<?xml version="1.0" encoding="UTF-8"?>
<gpx version="1.1" creator="https://www.youtrack.es" xsi:schemaLocation="http://www.topografix.com/GPX/1/1 http://www.topografix.com/GPX/1/1/gpx.xsd http://www.garmin.com/xmlschemas/GpxExtensions/v3 http://www.garmin.com/xmlschemas/GpxExtensionsv3.xsd http://www.garmin.com/xmlschemas/TrackPointExtension/v1 http://www.garmin.com/xmlschemas/TrackPointExtensionv1.xsd" xmlns:gpxtpx="http://www.garmin.com/xmlschemas/TrackPointExtension/v1" xmlns:gpxx="http://www.garmin.com/xmlschemas/GpxExtensions/v3" xmlns:xsi="http://www.w3.org/2001/XMLSchema-instance">
  <metadata>
    <link href="https://www.youtrack.es">
      <text>YouTrack.es</text>
    </link>
    <time>2026-05-08T06:20:42Z</time>
  </metadata>
  <trk>
    <src>https://www.youtrack.es</src>
    <link href="https://www.youtrack.es/ruta/37915-ruta-ayer">
      <text>YouTrack.es</text>
    </link>
    <trkseg>
      <trkpt lat="36.762844" lon="-2.611564">
        <ele>8.961726</ele>
        <time>2022-11-02T11:41:26.863Z</time>
      </trkpt>
      <trkpt lat="36.762967" lon="-2.611645">
        <ele>8.961726</ele>
        <time>2022-11-02T11:41:28.652Z</time>
      </trkpt>
      <trkpt lat="36.763110" lon="-2.611759">
        <ele>8.961726</ele>
        <time>2022-11-02T11:41:31.256Z</time>
      </trkpt>
      <trkpt lat="36.763681" lon="-2.612297">
        <ele>8.892113</ele>
        <time>2022-11-02T11:41:40.958Z</time>
      </trkpt>
      <trkpt lat="36.764098" lon="-2.612661">
        <ele>8.608337</ele>
        <time>2022-11-02T11:41:47.539Z</time>
      </trkpt>
      <trkpt lat="36.764122" lon="-2.612655">
        <ele>8.594687</ele>
        <time>2022-11-02T11:41:47.827Z</time>
      </trkpt>
      <trkpt lat="36.764196" lon="-2.612682">
        <ele>8.551691</ele>
        <time>2022-11-02T11:41:48.847Z</time>
      </trkpt>
      <trkpt lat="36.764238" lon="-2.612784">
        <ele>8.500454</ele>
        <time>2022-11-02T11:41:50.136Z</time>
      </trkpt>
      <trkpt lat="36.764234" lon="-2.612805">
        <ele>8.490810</ele>
        <time>2022-11-02T11:41:50.384Z</time>
      </trkpt>
      <trkpt lat="36.764439" lon="-2.613054">
        <ele>8.331293</ele>
        <time>2022-11-02T11:41:54.105Z</time>
      </trkpt>
      <trkpt lat="36.765164" lon="-2.613631">
        <ele>7.877487</ele>
        <time>2022-11-02T11:42:05.111Z</time>
      </trkpt>
      <trkpt lat="36.766149" lon="-2.614387">
        <ele>7.387743</ele>
        <time>2022-11-02T11:42:20.395Z</time>
      </trkpt>
      <trkpt lat="36.766362" lon="-2.614479">
        <ele>7.292280</ele>
        <time>2022-11-02T11:42:23.599Z</time>
      </trkpt>
      <trkpt lat="36.766404" lon="-2.614507">
        <ele>7.272113</ele>
        <time>2022-11-02T11:42:24.320Z</time>
      </trkpt>
      <trkpt lat="36.766429" lon="-2.614490">
        <ele>7.260055</ele>
        <time>2022-11-02T11:42:24.749Z</time>
      </trkpt>
      <trkpt lat="36.766527" lon="-2.614494">
        <ele>7.218525</ele>
        <time>2022-11-02T11:42:26.208Z</time>
      </trkpt>
      <trkpt lat="36.767316" lon="-2.614268">
        <ele>6.966070</ele>
        <time>2022-11-02T11:42:38.118Z</time>
      </trkpt>
      <trkpt lat="36.767885" lon="-2.614038">
        <ele>6.784059</ele>
        <time>2022-11-02T11:42:46.324Z</time>
      </trkpt>
      <trkpt lat="36.767924" lon="-2.613922">
        <ele>6.753391</ele>
        <time>2022-11-02T11:42:47.669Z</time>
      </trkpt>
      <trkpt lat="36.768069" lon="-2.613846">
        <ele>6.705533</ele>
        <time>2022-11-02T11:42:49.758Z</time>
      </trkpt>
      <trkpt lat="36.768161" lon="-2.613891">
        <ele>6.675463</ele>
        <time>2022-11-02T11:42:51.024Z</time>
      </trkpt>
      <trkpt lat="36.768397" lon="-2.613866">
        <ele>6.556316</ele>
        <time>2022-11-02T11:42:54.084Z</time>
      </trkpt>
      <trkpt lat="36.768790" lon="-2.613709">
        <ele>6.302486</ele>
        <time>2022-11-02T11:42:59.427Z</time>
      </trkpt>
      <trkpt lat="36.769268" lon="-2.613518">
        <ele>5.993750</ele>
        <time>2022-11-02T11:43:05.919Z</time>
      </trkpt>
      <trkpt lat="36.769687" lon="-2.613351">
        <ele>5.723185</ele>
        <time>2022-11-02T11:43:11.549Z</time>
      </trkpt>
      <trkpt lat="36.770172" lon="-2.613157">
        <ele>5.434159</ele>
        <time>2022-11-02T11:43:18.113Z</time>
      </trkpt>
      <trkpt lat="36.770703" lon="-2.612945">
        <ele>5.153709</ele>
        <time>2022-11-02T11:43:25.379Z</time>
      </trkpt>
      <trkpt lat="36.771070" lon="-2.612799">
        <ele>4.959941</ele>
        <time>2022-11-02T11:43:30.649Z</time>
      </trkpt>
      <trkpt lat="36.772262" lon="-2.612321">
        <ele>4.270684</ele>
        <time>2022-11-02T11:43:47.402Z</time>
      </trkpt>
      <trkpt lat="36.773240" lon="-2.611915">
        <ele>3.652184</ele>
        <time>2022-11-02T11:44:00.431Z</time>
      </trkpt>
      <trkpt lat="36.773591" lon="-2.611769">
        <ele>3.487479</ele>
        <time>2022-11-02T11:44:05.341Z</time>
      </trkpt>
      <trkpt lat="36.773731" lon="-2.611608">
        <ele>3.424127</ele>
        <time>2022-11-02T11:44:07.849Z</time>
      </trkpt>
      <trkpt lat="36.773840" lon="-2.611350">
        <ele>3.346365</ele>
        <time>2022-11-02T11:44:11.002Z</time>
      </trkpt>
      <trkpt lat="36.773983" lon="-2.611256">
        <ele>3.292577</ele>
        <time>2022-11-02T11:44:13.184Z</time>
      </trkpt>
      <trkpt lat="36.774145" lon="-2.611257">
        <ele>3.238659</ele>
        <time>2022-11-02T11:44:15.375Z</time>
      </trkpt>
      <trkpt lat="36.774309" lon="-2.611379">
        <ele>3.175121</ele>
        <time>2022-11-02T11:44:17.950Z</time>
      </trkpt>
      <trkpt lat="36.774562" lon="-2.611406">
        <ele>3.090609</ele>
        <time>2022-11-02T11:44:21.404Z</time>
      </trkpt>
      <trkpt lat="36.776016" lon="-2.610807">
        <ele>3.137042</ele>
        <time>2022-11-02T11:44:44.435Z</time>
      </trkpt>
      <trkpt lat="36.778421" lon="-2.609834">
        <ele>3.991960</ele>
        <time>2022-11-02T11:45:25.674Z</time>
      </trkpt>
      <trkpt lat="36.778460" lon="-2.609818">
        <ele>4.017465</ele>
        <time>2022-11-02T11:45:26.372Z</time>
      </trkpt>
      <trkpt lat="36.778658" lon="-2.609736">
        <ele>4.147068</ele>
        <time>2022-11-02T11:45:30.133Z</time>
      </trkpt>
      <trkpt lat="36.778741" lon="-2.609680">
        <ele>4.205681</ele>
        <time>2022-11-02T11:45:31.731Z</time>
      </trkpt>
      <trkpt lat="36.778779" lon="-2.609495">
        <ele>4.300718</ele>
        <time>2022-11-02T11:45:34.490Z</time>
      </trkpt>
      <trkpt lat="36.778908" lon="-2.609392">
        <ele>4.395850</ele>
        <time>2022-11-02T11:45:37.171Z</time>
      </trkpt>
      <trkpt lat="36.779059" lon="-2.609425">
        <ele>4.491088</ele>
        <time>2022-11-02T11:45:39.800Z</time>
      </trkpt>
      <trkpt lat="36.779116" lon="-2.609490">
        <ele>4.539049</ele>
        <time>2022-11-02T11:45:41.319Z</time>
      </trkpt>
      <trkpt lat="36.779283" lon="-2.609490">
        <ele>4.642802</ele>
        <time>2022-11-02T11:45:44.187Z</time>
      </trkpt>
      <trkpt lat="36.783054" lon="-2.607982">
        <ele>7.252096</ele>
        <time>2022-11-02T11:46:53.361Z</time>
      </trkpt>
      <trkpt lat="36.783221" lon="-2.607917">
        <ele>7.365712</ele>
        <time>2022-11-02T11:46:56.447Z</time>
      </trkpt>
      <trkpt lat="36.783762" lon="-2.607706">
        <ele>7.637333</ele>
        <time>2022-11-02T11:47:06.164Z</time>
      </trkpt>
      <trkpt lat="36.784304" lon="-2.607501">
        <ele>7.876036</ele>
        <time>2022-11-02T11:47:15.597Z</time>
      </trkpt>
      <trkpt lat="36.785068" lon="-2.607206">
        <ele>8.213105</ele>
        <time>2022-11-02T11:47:28.585Z</time>
      </trkpt>
      <trkpt lat="36.785540" lon="-2.607025">
        <ele>8.168937</ele>
        <time>2022-11-02T11:47:35.985Z</time>
      </trkpt>
      <trkpt lat="36.785779" lon="-2.606927">
        <ele>8.143948</ele>
        <time>2022-11-02T11:47:39.707Z</time>
      </trkpt>
      <trkpt lat="36.786019" lon="-2.606837">
        <ele>8.119054</ele>
        <time>2022-11-02T11:47:43.332Z</time>
      </trkpt>
      <trkpt lat="36.786495" lon="-2.606628">
        <ele>8.068930</ele>
        <time>2022-11-02T11:47:50.442Z</time>
      </trkpt>
      <trkpt lat="36.786644" lon="-2.606495">
        <ele>8.050735</ele>
        <time>2022-11-02T11:47:52.953Z</time>
      </trkpt>
      <trkpt lat="36.786693" lon="-2.606410">
        <ele>8.042402</ele>
        <time>2022-11-02T11:47:54.083Z</time>
      </trkpt>
      <trkpt lat="36.786843" lon="-2.606352">
        <ele>8.029832</ele>
        <time>2022-11-02T11:47:56.220Z</time>
      </trkpt>
      <trkpt lat="36.786887" lon="-2.606365">
        <ele>8.026516</ele>
        <time>2022-11-02T11:47:56.862Z</time>
      </trkpt>
      <trkpt lat="36.787119" lon="-2.606356">
        <ele>8.009492</ele>
        <time>2022-11-02T11:48:00.095Z</time>
      </trkpt>
      <trkpt lat="36.787517" lon="-2.606215">
        <ele>7.979148</ele>
        <time>2022-11-02T11:48:05.856Z</time>
      </trkpt>
      <trkpt lat="36.788193" lon="-2.605920">
        <ele>7.926627</ele>
        <time>2022-11-02T11:48:15.887Z</time>
      </trkpt>
      <trkpt lat="36.792021" lon="-2.604440">
        <ele>10.076918</ele>
        <time>2022-11-02T11:49:23.384Z</time>
      </trkpt>
      <trkpt lat="36.792119" lon="-2.604350">
        <ele>10.297793</ele>
        <time>2022-11-02T11:49:25.882Z</time>
      </trkpt>
      <trkpt lat="36.792123" lon="-2.604325">
        <ele>10.334862</ele>
        <time>2022-11-02T11:49:26.284Z</time>
      </trkpt>
      <trkpt lat="36.792182" lon="-2.604204">
        <ele>10.540845</ele>
        <time>2022-11-02T11:49:28.720Z</time>
      </trkpt>
      <trkpt lat="36.792319" lon="-2.604149">
        <ele>10.802131</ele>
        <time>2022-11-02T11:49:32.023Z</time>
      </trkpt>
      <trkpt lat="36.792447" lon="-2.604233">
        <ele>11.064677</ele>
        <time>2022-11-02T11:49:35.128Z</time>
      </trkpt>
      <trkpt lat="36.792604" lon="-2.604215">
        <ele>11.350936</ele>
        <time>2022-11-02T11:49:38.893Z</time>
      </trkpt>
      <trkpt lat="36.793249" lon="-2.603951">
        <ele>12.583349</ele>
        <time>2022-11-02T11:49:54.781Z</time>
      </trkpt>
      <trkpt lat="36.793869" lon="-2.603698">
        <ele>13.807831</ele>
        <time>2022-11-02T11:50:10.598Z</time>
      </trkpt>
      <trkpt lat="36.794353" lon="-2.603499">
        <ele>14.788505</ele>
        <time>2022-11-02T11:50:22.532Z</time>
      </trkpt>
      <trkpt lat="36.794640" lon="-2.603381">
        <ele>15.370019</ele>
        <time>2022-11-02T11:50:29.332Z</time>
      </trkpt>
      <trkpt lat="36.799056" lon="-2.601531">
        <ele>22.867951</ele>
        <time>2022-11-02T11:52:07.389Z</time>
      </trkpt>
      <trkpt lat="36.799290" lon="-2.601433">
        <ele>23.245908</ele>
        <time>2022-11-02T11:52:12.391Z</time>
      </trkpt>
      <trkpt lat="36.799446" lon="-2.601293">
        <ele>23.540089</ele>
        <time>2022-11-02T11:52:16.327Z</time>
      </trkpt>
      <trkpt lat="36.799565" lon="-2.601173">
        <ele>23.774315</ele>
        <time>2022-11-02T11:52:19.355Z</time>
      </trkpt>
      <trkpt lat="36.799699" lon="-2.601169">
        <ele>23.979578</ele>
        <time>2022-11-02T11:52:22.047Z</time>
      </trkpt>
      <trkpt lat="36.799740" lon="-2.601192">
        <ele>24.048408</ele>
        <time>2022-11-02T11:52:23.002Z</time>
      </trkpt>
      <trkpt lat="36.799895" lon="-2.601177">
        <ele>24.286484</ele>
        <time>2022-11-02T11:52:26.038Z</time>
      </trkpt>
      <trkpt lat="36.801316" lon="-2.600614">
        <ele>27.455624</ele>
        <time>2022-11-02T11:52:59.474Z</time>
      </trkpt>
      <trkpt lat="36.802790" lon="-2.600031">
        <ele>32.135199</ele>
        <time>2022-11-02T11:53:41.481Z</time>
      </trkpt>
      <trkpt lat="36.803170" lon="-2.599846">
        <ele>33.615120</ele>
        <time>2022-11-02T11:53:54.156Z</time>
      </trkpt>
      <trkpt lat="36.803269" lon="-2.599648">
        <ele>34.293339</ele>
        <time>2022-11-02T11:53:59.912Z</time>
      </trkpt>
      <trkpt lat="36.803400" lon="-2.599627">
        <ele>34.772583</ele>
        <time>2022-11-02T11:54:04.088Z</time>
      </trkpt>
      <trkpt lat="36.803474" lon="-2.599673">
        <ele>35.072520</ele>
        <time>2022-11-02T11:54:06.627Z</time>
      </trkpt>
      <trkpt lat="36.803668" lon="-2.599662">
        <ele>35.784387</ele>
        <time>2022-11-02T11:54:12.638Z</time>
      </trkpt>
      <trkpt lat="36.804062" lon="-2.599510">
        <ele>37.496674</ele>
        <time>2022-11-02T11:54:25.424Z</time>
      </trkpt>
      <trkpt lat="36.804396" lon="-2.599378">
        <ele>38.951328</ele>
        <time>2022-11-02T11:54:36.314Z</time>
      </trkpt>
      <trkpt lat="36.804750" lon="-2.599238">
        <ele>40.493183</ele>
        <time>2022-11-02T11:54:47.917Z</time>
      </trkpt>
      <trkpt lat="36.805213" lon="-2.599056">
        <ele>42.508680</ele>
        <time>2022-11-02T11:55:03.569Z</time>
      </trkpt>
      <trkpt lat="36.805496" lon="-2.598946">
        <ele>43.739112</ele>
        <time>2022-11-02T11:55:13.049Z</time>
      </trkpt>
      <trkpt lat="36.805865" lon="-2.598799">
        <ele>45.346582</ele>
        <time>2022-11-02T11:55:25.394Z</time>
      </trkpt>
      <trkpt lat="36.806349" lon="-2.598581">
        <ele>47.481948</ele>
        <time>2022-11-02T11:55:41.526Z</time>
      </trkpt>
      <trkpt lat="36.806402" lon="-2.598533">
        <ele>47.753657</ele>
        <time>2022-11-02T11:55:43.556Z</time>
      </trkpt>
      <trkpt lat="36.806505" lon="-2.598432">
        <ele>48.297144</ele>
        <time>2022-11-02T11:55:47.629Z</time>
      </trkpt>
      <trkpt lat="36.806623" lon="-2.598451">
        <ele>48.790930</ele>
        <time>2022-11-02T11:55:51.436Z</time>
      </trkpt>
      <trkpt lat="36.806633" lon="-2.598450">
        <ele>48.832566</ele>
        <time>2022-11-02T11:55:51.762Z</time>
      </trkpt>
      <trkpt lat="36.807066" lon="-2.598310">
        <ele>50.681701</ele>
        <time>2022-11-02T11:56:05.915Z</time>
      </trkpt>
      <trkpt lat="36.807637" lon="-2.598079">
        <ele>52.537524</ele>
        <time>2022-11-02T11:56:23.962Z</time>
      </trkpt>
      <trkpt lat="36.808297" lon="-2.597812">
        <ele>54.682602</ele>
        <time>2022-11-02T11:56:43.087Z</time>
      </trkpt>
      <trkpt lat="36.808527" lon="-2.597722">
        <ele>55.427840</ele>
        <time>2022-11-02T11:56:49.185Z</time>
      </trkpt>
      <trkpt lat="36.808716" lon="-2.597567">
        <ele>56.126938</ele>
        <time>2022-11-02T11:56:54.425Z</time>
      </trkpt>
      <trkpt lat="36.808809" lon="-2.597372">
        <ele>56.299531</ele>
        <time>2022-11-02T11:56:58.472Z</time>
      </trkpt>
      <trkpt lat="36.808827" lon="-2.597303">
        <ele>56.329336</ele>
        <time>2022-11-02T11:56:59.643Z</time>
      </trkpt>
      <trkpt lat="36.808933" lon="-2.597198">
        <ele>56.398737</ele>
        <time>2022-11-02T11:57:02.471Z</time>
      </trkpt>
      <trkpt lat="36.809066" lon="-2.597221">
        <ele>56.467615</ele>
        <time>2022-11-02T11:57:05.193Z</time>
      </trkpt>
      <trkpt lat="36.809132" lon="-2.597311">
        <ele>56.517741</ele>
        <time>2022-11-02T11:57:06.981Z</time>
      </trkpt>
      <trkpt lat="36.809147" lon="-2.597441">
        <ele>56.571685</ele>
        <time>2022-11-02T11:57:08.923Z</time>
      </trkpt>
      <trkpt lat="36.809147" lon="-2.597442">
        <ele>56.572096</ele>
        <time>2022-11-02T11:57:08.975Z</time>
      </trkpt>
      <trkpt lat="36.809097" lon="-2.597559">
        <ele>56.626566</ele>
        <time>2022-11-02T11:57:10.921Z</time>
      </trkpt>
      <trkpt lat="36.809013" lon="-2.597614">
        <ele>56.675218</ele>
        <time>2022-11-02T11:57:12.528Z</time>
      </trkpt>
      <trkpt lat="36.808951" lon="-2.597616">
        <ele>56.707034</ele>
        <time>2022-11-02T11:57:13.494Z</time>
      </trkpt>
      <trkpt lat="36.808824" lon="-2.597937">
        <ele>56.854091</ele>
        <time>2022-11-02T11:57:17.955Z</time>
      </trkpt>
      <trkpt lat="36.808554" lon="-2.599446">
        <ele>56.154305</ele>
        <time>2022-11-02T11:57:33.732Z</time>
      </trkpt>
      <trkpt lat="36.808472" lon="-2.599954">
        <ele>55.542155</ele>
        <time>2022-11-02T11:57:38.513Z</time>
      </trkpt>
      <trkpt lat="36.808400" lon="-2.600418">
        <ele>54.983854</ele>
        <time>2022-11-02T11:57:42.685Z</time>
      </trkpt>
      <trkpt lat="36.808300" lon="-2.601220">
        <ele>53.742268</ele>
        <time>2022-11-02T11:57:49.615Z</time>
      </trkpt>
      <trkpt lat="36.808313" lon="-2.601255">
        <ele>53.669034</ele>
        <time>2022-11-02T11:57:49.948Z</time>
      </trkpt>
      <trkpt lat="36.808275" lon="-2.601381">
        <ele>53.413470</ele>
        <time>2022-11-02T11:57:51.078Z</time>
      </trkpt>
      <trkpt lat="36.808190" lon="-2.601666">
        <ele>52.836199</ele>
        <time>2022-11-02T11:57:53.696Z</time>
      </trkpt>
      <trkpt lat="36.808174" lon="-2.601764">
        <ele>52.646357</ele>
        <time>2022-11-02T11:57:54.533Z</time>
      </trkpt>
      <trkpt lat="36.807986" lon="-2.602939">
        <ele>50.371992</ele>
        <time>2022-11-02T11:58:04.669Z</time>
      </trkpt>
      <trkpt lat="36.808032" lon="-2.603190">
        <ele>50.112798</ele>
        <time>2022-11-02T11:58:06.844Z</time>
      </trkpt>
      <trkpt lat="36.808174" lon="-2.603360">
        <ele>49.957856</ele>
        <time>2022-11-02T11:58:08.987Z</time>
      </trkpt>
      <trkpt lat="36.808215" lon="-2.603570">
        <ele>49.821533</ele>
        <time>2022-11-02T11:58:10.892Z</time>
      </trkpt>
      <trkpt lat="36.808132" lon="-2.603836">
        <ele>49.641483</ele>
        <time>2022-11-02T11:58:13.585Z</time>
      </trkpt>
      <trkpt lat="36.807934" lon="-2.603971">
        <ele>49.463789</ele>
        <time>2022-11-02T11:58:16.355Z</time>
      </trkpt>
      <trkpt lat="36.807776" lon="-2.604249">
        <ele>49.248777</ele>
        <time>2022-11-02T11:58:19.951Z</time>
      </trkpt>
      <trkpt lat="36.807755" lon="-2.604376">
        <ele>49.166990</ele>
        <time>2022-11-02T11:58:21.502Z</time>
      </trkpt>
      <trkpt lat="36.807733" lon="-2.604504">
        <ele>49.084424</ele>
        <time>2022-11-02T11:58:23.113Z</time>
      </trkpt>
      <trkpt lat="36.807408" lon="-2.606463">
        <ele>50.558374</ele>
        <time>2022-11-02T11:58:54.064Z</time>
      </trkpt>
      <trkpt lat="36.806475" lon="-2.612162">
        <ele>60.387643</ele>
        <time>2022-11-02T12:00:43.436Z</time>
      </trkpt>
      <trkpt lat="36.806171" lon="-2.614019">
        <ele>64.398551</ele>
        <time>2022-11-02T12:01:21.595Z</time>
      </trkpt>
      <trkpt lat="36.806183" lon="-2.614759">
        <ele>66.426307</ele>
        <time>2022-11-02T12:01:38.254Z</time>
      </trkpt>
      <trkpt lat="36.806212" lon="-2.614936">
        <ele>66.921274</ele>
        <time>2022-11-02T12:01:42.537Z</time>
      </trkpt>
      <trkpt lat="36.806130" lon="-2.615081">
        <ele>67.407619</ele>
        <time>2022-11-02T12:01:46.627Z</time>
      </trkpt>
      <trkpt lat="36.806039" lon="-2.615585">
        <ele>68.823078</ele>
        <time>2022-11-02T12:01:58.998Z</time>
      </trkpt>
      <trkpt lat="36.806020" lon="-2.615702">
        <ele>69.150144</ele>
        <time>2022-11-02T12:02:01.944Z</time>
      </trkpt>
      <trkpt lat="36.805960" lon="-2.616073">
        <ele>70.198216</ele>
        <time>2022-11-02T12:02:11.166Z</time>
      </trkpt>
      <trkpt lat="36.805879" lon="-2.616565">
        <ele>71.609543</ele>
        <time>2022-11-02T12:02:23.506Z</time>
      </trkpt>
      <trkpt lat="36.805793" lon="-2.617098">
        <ele>73.137258</ele>
        <time>2022-11-02T12:02:36.589Z</time>
      </trkpt>
      <trkpt lat="36.805774" lon="-2.617214">
        <ele>73.469942</ele>
        <time>2022-11-02T12:02:39.343Z</time>
      </trkpt>
      <trkpt lat="36.805706" lon="-2.617631">
        <ele>74.665672</ele>
        <time>2022-11-02T12:02:49.034Z</time>
      </trkpt>
      <trkpt lat="36.805617" lon="-2.618157">
        <ele>76.140144</ele>
        <time>2022-11-02T12:03:00.578Z</time>
      </trkpt>
      <trkpt lat="36.805575" lon="-2.618435">
        <ele>76.679324</ele>
        <time>2022-11-02T12:03:06.318Z</time>
      </trkpt>
      <trkpt lat="36.805537" lon="-2.618686">
        <ele>77.166173</ele>
        <time>2022-11-02T12:03:11.387Z</time>
      </trkpt>
      <trkpt lat="36.805451" lon="-2.619207">
        <ele>78.180012</ele>
        <time>2022-11-02T12:03:21.636Z</time>
      </trkpt>
      <trkpt lat="36.805383" lon="-2.619618">
        <ele>78.979874</ele>
        <time>2022-11-02T12:03:29.566Z</time>
      </trkpt>
      <trkpt lat="36.805364" lon="-2.619734">
        <ele>79.205533</ele>
        <time>2022-11-02T12:03:31.829Z</time>
      </trkpt>
      <trkpt lat="36.805272" lon="-2.620192">
        <ele>80.105474</ele>
        <time>2022-11-02T12:03:40.759Z</time>
      </trkpt>
      <trkpt lat="36.805273" lon="-2.620269">
        <ele>80.252246</ele>
        <time>2022-11-02T12:03:42.195Z</time>
      </trkpt>
      <trkpt lat="36.805249" lon="-2.620339">
        <ele>80.394016</ele>
        <time>2022-11-02T12:03:43.608Z</time>
      </trkpt>
      <trkpt lat="36.805143" lon="-2.620985">
        <ele>81.569658</ele>
        <time>2022-11-02T12:03:55.719Z</time>
      </trkpt>
      <trkpt lat="36.805122" lon="-2.621118">
        <ele>81.811340</ele>
        <time>2022-11-02T12:03:58.245Z</time>
      </trkpt>
      <trkpt lat="36.805099" lon="-2.621257">
        <ele>82.064390</ele>
        <time>2022-11-02T12:04:00.901Z</time>
      </trkpt>
      <trkpt lat="36.805037" lon="-2.621637">
        <ele>82.755788</ele>
        <time>2022-11-02T12:04:08.422Z</time>
      </trkpt>
      <trkpt lat="36.805002" lon="-2.621855">
        <ele>83.152181</ele>
        <time>2022-11-02T12:04:12.828Z</time>
      </trkpt>
      <trkpt lat="36.804968" lon="-2.622061">
        <ele>83.527166</ele>
        <time>2022-11-02T12:04:16.925Z</time>
      </trkpt>
      <trkpt lat="36.804907" lon="-2.622435">
        <ele>84.207639</ele>
        <time>2022-11-02T12:04:24.387Z</time>
      </trkpt>
      <trkpt lat="36.804864" lon="-2.622696">
        <ele>84.650983</ele>
        <time>2022-11-02T12:04:29.536Z</time>
      </trkpt>
      <trkpt lat="36.804843" lon="-2.622847">
        <ele>84.898144</ele>
        <time>2022-11-02T12:04:32.432Z</time>
      </trkpt>
      <trkpt lat="36.804721" lon="-2.623577">
        <ele>86.100774</ele>
        <time>2022-11-02T12:04:46.003Z</time>
      </trkpt>
      <trkpt lat="36.804707" lon="-2.623655">
        <ele>86.229685</ele>
        <time>2022-11-02T12:04:47.434Z</time>
      </trkpt>
      <trkpt lat="36.804564" lon="-2.624533">
        <ele>87.674621</ele>
        <time>2022-11-02T12:05:03.416Z</time>
      </trkpt>
      <trkpt lat="36.804548" lon="-2.624630">
        <ele>87.834336</ele>
        <time>2022-11-02T12:05:05.210Z</time>
      </trkpt>
      <trkpt lat="36.804472" lon="-2.625076">
        <ele>88.431738</ele>
        <time>2022-11-02T12:05:13.702Z</time>
      </trkpt>
      <trkpt lat="36.804488" lon="-2.625111">
        <ele>88.481705</ele>
        <time>2022-11-02T12:05:14.447Z</time>
      </trkpt>
      <trkpt lat="36.804499" lon="-2.625235">
        <ele>88.636380</ele>
        <time>2022-11-02T12:05:16.757Z</time>
      </trkpt>
      <trkpt lat="36.804450" lon="-2.625356">
        <ele>88.804491</ele>
        <time>2022-11-02T12:05:19.121Z</time>
      </trkpt>
      <trkpt lat="36.804423" lon="-2.625382">
        <ele>88.857282</ele>
        <time>2022-11-02T12:05:19.872Z</time>
      </trkpt>
      <trkpt lat="36.804374" lon="-2.625717">
        <ele>89.279487</ele>
        <time>2022-11-02T12:05:25.673Z</time>
      </trkpt>
      <trkpt lat="36.804351" lon="-2.625846">
        <ele>89.443338</ele>
        <time>2022-11-02T12:05:27.841Z</time>
      </trkpt>
      <trkpt lat="36.804271" lon="-2.626356">
        <ele>90.087654</ele>
        <time>2022-11-02T12:05:36.364Z</time>
      </trkpt>
      <trkpt lat="36.804176" lon="-2.626956">
        <ele>90.801231</ele>
        <time>2022-11-02T12:05:46.072Z</time>
      </trkpt>
      <trkpt lat="36.803946" lon="-2.628411">
        <ele>91.704285</ele>
        <time>2022-11-02T12:06:08.251Z</time>
      </trkpt>
      <trkpt lat="36.803921" lon="-2.628684">
        <ele>91.871600</ele>
        <time>2022-11-02T12:06:11.869Z</time>
      </trkpt>
      <trkpt lat="36.803956" lon="-2.628779">
        <ele>91.935276</ele>
        <time>2022-11-02T12:06:13.300Z</time>
      </trkpt>
      <trkpt lat="36.803909" lon="-2.629025">
        <ele>92.089271</ele>
        <time>2022-11-02T12:06:16.500Z</time>
      </trkpt>
      <trkpt lat="36.803856" lon="-2.629081">
        <ele>92.123982</ele>
        <time>2022-11-02T12:06:17.416Z</time>
      </trkpt>
      <trkpt lat="36.803761" lon="-2.629575">
        <ele>92.087209</ele>
        <time>2022-11-02T12:06:23.548Z</time>
      </trkpt>
      <trkpt lat="36.803709" lon="-2.629860">
        <ele>92.066051</ele>
        <time>2022-11-02T12:06:27.206Z</time>
      </trkpt>
      <trkpt lat="36.803628" lon="-2.630322">
        <ele>92.031818</ele>
        <time>2022-11-02T12:06:32.737Z</time>
      </trkpt>
      <trkpt lat="36.803599" lon="-2.630494">
        <ele>92.019095</ele>
        <time>2022-11-02T12:06:34.646Z</time>
      </trkpt>
      <trkpt lat="36.803616" lon="-2.630526">
        <ele>92.016315</ele>
        <time>2022-11-02T12:06:35.170Z</time>
      </trkpt>
      <trkpt lat="36.803626" lon="-2.630712">
        <ele>92.002821</ele>
        <time>2022-11-02T12:06:37.401Z</time>
      </trkpt>
      <trkpt lat="36.803547" lon="-2.630829">
        <ele>91.991743</ele>
        <time>2022-11-02T12:06:38.997Z</time>
      </trkpt>
      <trkpt lat="36.803542" lon="-2.630833">
        <ele>91.991207</ele>
        <time>2022-11-02T12:06:39.069Z</time>
      </trkpt>
      <trkpt lat="36.803478" lon="-2.631227">
        <ele>91.953574</ele>
        <time>2022-11-02T12:06:43.525Z</time>
      </trkpt>
      <trkpt lat="36.803350" lon="-2.632011">
        <ele>91.483578</ele>
        <time>2022-11-02T12:06:51.915Z</time>
      </trkpt>
      <trkpt lat="36.803257" lon="-2.632568">
        <ele>91.149360</ele>
        <time>2022-11-02T12:06:57.713Z</time>
      </trkpt>
      <trkpt lat="36.803126" lon="-2.633375">
        <ele>90.665685</ele>
        <time>2022-11-02T12:07:05.967Z</time>
      </trkpt>
      <trkpt lat="36.803104" lon="-2.633516">
        <ele>90.560605</ele>
        <time>2022-11-02T12:07:07.320Z</time>
      </trkpt>
      <trkpt lat="36.802971" lon="-2.634339">
        <ele>89.904101</ele>
        <time>2022-11-02T12:07:15.217Z</time>
      </trkpt>
      <trkpt lat="36.802897" lon="-2.634794">
        <ele>89.541057</ele>
        <time>2022-11-02T12:07:19.708Z</time>
      </trkpt>
      <trkpt lat="36.802807" lon="-2.635352">
        <ele>89.095975</ele>
        <time>2022-11-02T12:07:25.383Z</time>
      </trkpt>
      <trkpt lat="36.802729" lon="-2.635835">
        <ele>88.900109</ele>
        <time>2022-11-02T12:07:30.512Z</time>
      </trkpt>
      <trkpt lat="36.802706" lon="-2.635978">
        <ele>88.908363</ele>
        <time>2022-11-02T12:07:32.028Z</time>
      </trkpt>
      <trkpt lat="36.802501" lon="-2.637251">
        <ele>88.981848</ele>
        <time>2022-11-02T12:07:46.515Z</time>
      </trkpt>
      <trkpt lat="36.802362" lon="-2.638113">
        <ele>89.348937</ele>
        <time>2022-11-02T12:08:00.310Z</time>
      </trkpt>
      <trkpt lat="36.802240" lon="-2.638866">
        <ele>90.196433</ele>
        <time>2022-11-02T12:08:12.547Z</time>
      </trkpt>
      <trkpt lat="36.802216" lon="-2.639016">
        <ele>90.365175</ele>
        <time>2022-11-02T12:08:14.893Z</time>
      </trkpt>
      <trkpt lat="36.802225" lon="-2.639220">
        <ele>90.590557</ele>
        <time>2022-11-02T12:08:18.366Z</time>
      </trkpt>
      <trkpt lat="36.802201" lon="-2.639288">
        <ele>90.672534</ele>
        <time>2022-11-02T12:08:19.570Z</time>
      </trkpt>
      <trkpt lat="36.802133" lon="-2.639690">
        <ele>91.125783</ele>
        <time>2022-11-02T12:08:26.559Z</time>
      </trkpt>
      <trkpt lat="36.802014" lon="-2.640398">
        <ele>92.052373</ele>
        <time>2022-11-02T12:08:39.251Z</time>
      </trkpt>
      <trkpt lat="36.801951" lon="-2.640776">
        <ele>92.605217</ele>
        <time>2022-11-02T12:08:46.120Z</time>
      </trkpt>
      <trkpt lat="36.801743" lon="-2.642017">
        <ele>94.420669</ele>
        <time>2022-11-02T12:09:07.924Z</time>
      </trkpt>
      <trkpt lat="36.801681" lon="-2.642379">
        <ele>95.026632</ele>
        <time>2022-11-02T12:09:14.667Z</time>
      </trkpt>
      <trkpt lat="36.801579" lon="-2.642994">
        <ele>96.208118</ele>
        <time>2022-11-02T12:09:26.728Z</time>
      </trkpt>
      <trkpt lat="36.801501" lon="-2.643461">
        <ele>97.105541</ele>
        <time>2022-11-02T12:09:36.013Z</time>
      </trkpt>
      <trkpt lat="36.801484" lon="-2.643563">
        <ele>97.301535</ele>
        <time>2022-11-02T12:09:38.038Z</time>
      </trkpt>
      <trkpt lat="36.801425" lon="-2.643915">
        <ele>97.978066</ele>
        <time>2022-11-02T12:09:45.157Z</time>
      </trkpt>
      <trkpt lat="36.801293" lon="-2.644699">
        <ele>99.600961</ele>
        <time>2022-11-02T12:10:01.422Z</time>
      </trkpt>
      <trkpt lat="36.801234" lon="-2.645056">
        <ele>100.430907</ele>
        <time>2022-11-02T12:10:09.071Z</time>
      </trkpt>
      <trkpt lat="36.801218" lon="-2.645148">
        <ele>100.645255</ele>
        <time>2022-11-02T12:10:11.042Z</time>
      </trkpt>
      <trkpt lat="36.801145" lon="-2.645584">
        <ele>101.659405</ele>
        <time>2022-11-02T12:10:20.569Z</time>
      </trkpt>
      <trkpt lat="36.801121" lon="-2.645733">
        <ele>102.005442</ele>
        <time>2022-11-02T12:10:23.866Z</time>
      </trkpt>
      <trkpt lat="36.801109" lon="-2.645748">
        <ele>102.053718</ele>
        <time>2022-11-02T12:10:24.327Z</time>
      </trkpt>
      <trkpt lat="36.800998" lon="-2.646477">
        <ele>103.743243</ele>
        <time>2022-11-02T12:10:40.242Z</time>
      </trkpt>
      <trkpt lat="36.800880" lon="-2.647182">
        <ele>105.323180</ele>
        <time>2022-11-02T12:10:55.209Z</time>
      </trkpt>
      <trkpt lat="36.800779" lon="-2.647791">
        <ele>106.675611</ele>
        <time>2022-11-02T12:11:07.868Z</time>
      </trkpt>
      <trkpt lat="36.800761" lon="-2.647903">
        <ele>106.924022</ele>
        <time>2022-11-02T12:11:10.166Z</time>
      </trkpt>
      <trkpt lat="36.800601" lon="-2.648860">
        <ele>109.034149</ele>
        <time>2022-11-02T12:11:30.057Z</time>
      </trkpt>
      <trkpt lat="36.800586" lon="-2.648951">
        <ele>109.208699</ele>
        <time>2022-11-02T12:11:31.910Z</time>
      </trkpt>
      <trkpt lat="36.800426" lon="-2.649914">
        <ele>111.056468</ele>
        <time>2022-11-02T12:11:51.861Z</time>
      </trkpt>
      <trkpt lat="36.800324" lon="-2.650531">
        <ele>112.240103</ele>
        <time>2022-11-02T12:12:03.870Z</time>
      </trkpt>
      <trkpt lat="36.800305" lon="-2.650646">
        <ele>112.460711</ele>
        <time>2022-11-02T12:12:06.039Z</time>
      </trkpt>
      <trkpt lat="36.800229" lon="-2.651099">
        <ele>113.270865</ele>
        <time>2022-11-02T12:12:14.527Z</time>
      </trkpt>
      <trkpt lat="36.800230" lon="-2.651180">
        <ele>113.371848</ele>
        <time>2022-11-02T12:12:16.018Z</time>
      </trkpt>
      <trkpt lat="36.800206" lon="-2.651248">
        <ele>113.464482</ele>
        <time>2022-11-02T12:12:17.340Z</time>
      </trkpt>
      <trkpt lat="36.800130" lon="-2.651697">
        <ele>114.036552</ele>
        <time>2022-11-02T12:12:25.389Z</time>
      </trkpt>
      <trkpt lat="36.800109" lon="-2.651820">
        <ele>114.193324</ele>
        <time>2022-11-02T12:12:27.543Z</time>
      </trkpt>
      <trkpt lat="36.799976" lon="-2.652602">
        <ele>115.189874</ele>
        <time>2022-11-02T12:12:40.773Z</time>
      </trkpt>
      <trkpt lat="36.799800" lon="-2.653644">
        <ele>116.648776</ele>
        <time>2022-11-02T12:12:57.303Z</time>
      </trkpt>
      <trkpt lat="36.799741" lon="-2.653986">
        <ele>117.186571</ele>
        <time>2022-11-02T12:13:03.108Z</time>
      </trkpt>
      <trkpt lat="36.799774" lon="-2.654116">
        <ele>117.396212</ele>
        <time>2022-11-02T12:13:05.519Z</time>
      </trkpt>
      <trkpt lat="36.799740" lon="-2.654244">
        <ele>117.603521</ele>
        <time>2022-11-02T12:13:07.900Z</time>
      </trkpt>
      <trkpt lat="36.799674" lon="-2.654379">
        <ele>117.846669</ele>
        <time>2022-11-02T12:13:10.621Z</time>
      </trkpt>
      <trkpt lat="36.799583" lon="-2.654560">
        <ele>118.175206</ele>
        <time>2022-11-02T12:13:14.606Z</time>
      </trkpt>
      <trkpt lat="36.799462" lon="-2.655021">
        <ele>118.920971</ele>
        <time>2022-11-02T12:13:23.780Z</time>
      </trkpt>
      <trkpt lat="36.798107" lon="-2.663291">
        <ele>137.312727</ele>
        <time>2022-11-02T12:16:22.120Z</time>
      </trkpt>
      <trkpt lat="36.797826" lon="-2.664879">
        <ele>139.390005</ele>
        <time>2022-11-02T12:16:46.909Z</time>
      </trkpt>
      <trkpt lat="36.797620" lon="-2.666173">
        <ele>140.387411</ele>
        <time>2022-11-02T12:17:05.852Z</time>
      </trkpt>
      <trkpt lat="36.797325" lon="-2.668004">
        <ele>141.991437</ele>
        <time>2022-11-02T12:17:34.998Z</time>
      </trkpt>
      <trkpt lat="36.796799" lon="-2.671194">
        <ele>144.727870</ele>
        <time>2022-11-02T12:18:24.861Z</time>
      </trkpt>
      <trkpt lat="36.796690" lon="-2.671863">
        <ele>145.227875</ele>
        <time>2022-11-02T12:18:34.766Z</time>
      </trkpt>
      <trkpt lat="36.796615" lon="-2.672318">
        <ele>145.568097</ele>
        <time>2022-11-02T12:18:41.306Z</time>
      </trkpt>
      <trkpt lat="36.796336" lon="-2.674015">
        <ele>146.795011</ele>
        <time>2022-11-02T12:19:07.373Z</time>
      </trkpt>
      <trkpt lat="36.796159" lon="-2.675091">
        <ele>147.557918</ele>
        <time>2022-11-02T12:19:23.294Z</time>
      </trkpt>
      <trkpt lat="36.796006" lon="-2.676017">
        <ele>147.731050</ele>
        <time>2022-11-02T12:19:36.426Z</time>
      </trkpt>
      <trkpt lat="36.795304" lon="-2.680258">
        <ele>148.303447</ele>
        <time>2022-11-02T12:20:25.811Z</time>
      </trkpt>
      <trkpt lat="36.795258" lon="-2.680826">
        <ele>148.754161</ele>
        <time>2022-11-02T12:20:34.676Z</time>
      </trkpt>
      <trkpt lat="36.795265" lon="-2.680836">
        <ele>148.764646</ele>
        <time>2022-11-02T12:20:34.886Z</time>
      </trkpt>
      <trkpt lat="36.795290" lon="-2.680947">
        <ele>148.855679</ele>
        <time>2022-11-02T12:20:36.839Z</time>
      </trkpt>
      <trkpt lat="36.795251" lon="-2.681053">
        <ele>148.947775</ele>
        <time>2022-11-02T12:20:38.729Z</time>
      </trkpt>
      <trkpt lat="36.795105" lon="-2.681547">
        <ele>149.363494</ele>
        <time>2022-11-02T12:20:47.845Z</time>
      </trkpt>
      <trkpt lat="36.794668" lon="-2.684102">
        <ele>153.908193</ele>
        <time>2022-11-02T12:21:37.704Z</time>
      </trkpt>
      <trkpt lat="36.794557" lon="-2.684763">
        <ele>155.399544</ele>
        <time>2022-11-02T12:21:50.909Z</time>
      </trkpt>
      <trkpt lat="36.794544" lon="-2.684966">
        <ele>155.849234</ele>
        <time>2022-11-02T12:21:55.020Z</time>
      </trkpt>
      <trkpt lat="36.794591" lon="-2.685207">
        <ele>156.396958</ele>
        <time>2022-11-02T12:22:00.389Z</time>
      </trkpt>
      <trkpt lat="36.794603" lon="-2.685218">
        <ele>156.438006</ele>
        <time>2022-11-02T12:22:00.785Z</time>
      </trkpt>
      <trkpt lat="36.794655" lon="-2.685395">
        <ele>156.854325</ele>
        <time>2022-11-02T12:22:04.932Z</time>
      </trkpt>
      <trkpt lat="36.794861" lon="-2.685785">
        <ele>157.885982</ele>
        <time>2022-11-02T12:22:15.562Z</time>
      </trkpt>
      <trkpt lat="36.795305" lon="-2.686383">
        <ele>159.474399</ele>
        <time>2022-11-02T12:22:33.128Z</time>
      </trkpt>
      <trkpt lat="36.795590" lon="-2.686562">
        <ele>160.207198</ele>
        <time>2022-11-02T12:22:41.073Z</time>
      </trkpt>
      <trkpt lat="36.795695" lon="-2.686566">
        <ele>160.448502</ele>
        <time>2022-11-02T12:22:43.608Z</time>
      </trkpt>
      <trkpt lat="36.795782" lon="-2.686636">
        <ele>160.686235</ele>
        <time>2022-11-02T12:22:46.093Z</time>
      </trkpt>
      <trkpt lat="36.795820" lon="-2.686715">
        <ele>160.855751</ele>
        <time>2022-11-02T12:22:47.912Z</time>
      </trkpt>
      <trkpt lat="36.795816" lon="-2.686895">
        <ele>161.186976</ele>
        <time>2022-11-02T12:22:51.281Z</time>
      </trkpt>
      <trkpt lat="36.795686" lon="-2.687035">
        <ele>161.581297</ele>
        <time>2022-11-02T12:22:55.192Z</time>
      </trkpt>
      <trkpt lat="36.795681" lon="-2.687036">
        <ele>161.592929</ele>
        <time>2022-11-02T12:22:55.306Z</time>
      </trkpt>
      <trkpt lat="36.795607" lon="-2.687191">
        <ele>161.924867</ele>
        <time>2022-11-02T12:22:58.572Z</time>
      </trkpt>
      <trkpt lat="36.795043" lon="-2.687708">
        <ele>162.799025</ele>
        <time>2022-11-02T12:23:13.075Z</time>
      </trkpt>
      <trkpt lat="36.794451" lon="-2.688429">
        <ele>163.285383</ele>
        <time>2022-11-02T12:23:26.242Z</time>
      </trkpt>
      <trkpt lat="36.794225" lon="-2.688941">
        <ele>163.560734</ele>
        <time>2022-11-02T12:23:33.206Z</time>
      </trkpt>
      <trkpt lat="36.793933" lon="-2.690325">
        <ele>163.907115</ele>
        <time>2022-11-02T12:23:51.120Z</time>
      </trkpt>
      <trkpt lat="36.793568" lon="-2.692322">
        <ele>164.887780</ele>
        <time>2022-11-02T12:24:18.381Z</time>
      </trkpt>
      <trkpt lat="36.793393" lon="-2.693469">
        <ele>165.697309</ele>
        <time>2022-11-02T12:24:36.786Z</time>
      </trkpt>
      <trkpt lat="36.793297" lon="-2.694221">
        <ele>166.406588</ele>
        <time>2022-11-02T12:24:49.314Z</time>
      </trkpt>
      <trkpt lat="36.793147" lon="-2.695395">
        <ele>167.513919</ele>
        <time>2022-11-02T12:25:07.733Z</time>
      </trkpt>
      <trkpt lat="36.793015" lon="-2.696181">
        <ele>167.870682</ele>
        <time>2022-11-02T12:25:19.701Z</time>
      </trkpt>
      <trkpt lat="36.792930" lon="-2.696689">
        <ele>167.997365</ele>
        <time>2022-11-02T12:25:26.991Z</time>
      </trkpt>
      <trkpt lat="36.792871" lon="-2.697044">
        <ele>168.085868</ele>
        <time>2022-11-02T12:25:31.687Z</time>
      </trkpt>
      <trkpt lat="36.792860" lon="-2.697108">
        <ele>168.101847</ele>
        <time>2022-11-02T12:25:32.498Z</time>
      </trkpt>
      <trkpt lat="36.792661" lon="-2.698307">
        <ele>167.763603</ele>
        <time>2022-11-02T12:25:45.807Z</time>
      </trkpt>
      <trkpt lat="36.792486" lon="-2.699523">
        <ele>166.473928</ele>
        <time>2022-11-02T12:25:57.368Z</time>
      </trkpt>
      <trkpt lat="36.792460" lon="-2.700031">
        <ele>165.942562</ele>
        <time>2022-11-02T12:26:01.837Z</time>
      </trkpt>
      <trkpt lat="36.792414" lon="-2.700849">
        <ele>164.322331</ele>
        <time>2022-11-02T12:26:08.824Z</time>
      </trkpt>
      <trkpt lat="36.792061" lon="-2.703421">
        <ele>159.160613</ele>
        <time>2022-11-02T12:26:30.754Z</time>
      </trkpt>
      <trkpt lat="36.792042" lon="-2.703564">
        <ele>158.874879</ele>
        <time>2022-11-02T12:26:31.872Z</time>
      </trkpt>
      <trkpt lat="36.791935" lon="-2.705122">
        <ele>156.156298</ele>
        <time>2022-11-02T12:26:45.591Z</time>
      </trkpt>
      <trkpt lat="36.791917" lon="-2.706040">
        <ele>154.868751</ele>
        <time>2022-11-02T12:26:53.936Z</time>
      </trkpt>
      <trkpt lat="36.791997" lon="-2.706091">
        <ele>154.711483</ele>
        <time>2022-11-02T12:26:55.018Z</time>
      </trkpt>
      <trkpt lat="36.792022" lon="-2.706198">
        <ele>154.555199</ele>
        <time>2022-11-02T12:26:56.069Z</time>
      </trkpt>
      <trkpt lat="36.791980" lon="-2.706292">
        <ele>154.404272</ele>
        <time>2022-11-02T12:26:57.053Z</time>
      </trkpt>
      <trkpt lat="36.791896" lon="-2.706321">
        <ele>154.251680</ele>
        <time>2022-11-02T12:26:58.044Z</time>
      </trkpt>
      <trkpt lat="36.791865" lon="-2.706710">
        <ele>153.641729</ele>
        <time>2022-11-02T12:27:01.612Z</time>
      </trkpt>
      <trkpt lat="36.791787" lon="-2.707040">
        <ele>153.010105</ele>
        <time>2022-11-02T12:27:04.670Z</time>
      </trkpt>
      <trkpt lat="36.791492" lon="-2.707682">
        <ele>151.651342</ele>
        <time>2022-11-02T12:27:11.142Z</time>
      </trkpt>
      <trkpt lat="36.791080" lon="-2.708299">
        <ele>150.176607</ele>
        <time>2022-11-02T12:27:17.918Z</time>
      </trkpt>
      <trkpt lat="36.790960" lon="-2.708590">
        <ele>149.485672</ele>
        <time>2022-11-02T12:27:20.632Z</time>
      </trkpt>
      <trkpt lat="36.790853" lon="-2.708958">
        <ele>148.450724</ele>
        <time>2022-11-02T12:27:23.836Z</time>
      </trkpt>
      <trkpt lat="36.790336" lon="-2.712086">
        <ele>139.617518</ele>
        <time>2022-11-02T12:27:49.385Z</time>
      </trkpt>
      <trkpt lat="36.790294" lon="-2.712915">
        <ele>137.214021</ele>
        <time>2022-11-02T12:27:55.867Z</time>
      </trkpt>
      <trkpt lat="36.790333" lon="-2.713774">
        <ele>135.085829</ele>
        <time>2022-11-02T12:28:02.739Z</time>
      </trkpt>
      <trkpt lat="36.790302" lon="-2.714203">
        <ele>134.020365</ele>
        <time>2022-11-02T12:28:06.270Z</time>
      </trkpt>
      <trkpt lat="36.790173" lon="-2.714699">
        <ele>132.730405</ele>
        <time>2022-11-02T12:28:10.589Z</time>
      </trkpt>
      <trkpt lat="36.789846" lon="-2.715488">
        <ele>131.282651</ele>
        <time>2022-11-02T12:28:18.132Z</time>
      </trkpt>
      <trkpt lat="36.789686" lon="-2.716024">
        <ele>130.741717</ele>
        <time>2022-11-02T12:28:23.402Z</time>
      </trkpt>
      <trkpt lat="36.789281" lon="-2.718482">
        <ele>129.277477</ele>
        <time>2022-11-02T12:28:50.563Z</time>
      </trkpt>
      <trkpt lat="36.789300" lon="-2.719103">
        <ele>129.115667</ele>
        <time>2022-11-02T12:28:57.961Z</time>
      </trkpt>
      <trkpt lat="36.789382" lon="-2.719383">
        <ele>129.038041</ele>
        <time>2022-11-02T12:29:01.237Z</time>
      </trkpt>
      <trkpt lat="36.789638" lon="-2.719888">
        <ele>128.620069</ele>
        <time>2022-11-02T12:29:07.801Z</time>
      </trkpt>
      <trkpt lat="36.789767" lon="-2.720210">
        <ele>128.368255</ele>
        <time>2022-11-02T12:29:11.471Z</time>
      </trkpt>
      <trkpt lat="36.789800" lon="-2.720651">
        <ele>128.058476</ele>
        <time>2022-11-02T12:29:15.868Z</time>
      </trkpt>
      <trkpt lat="36.789607" lon="-2.721758">
        <ele>126.947250</ele>
        <time>2022-11-02T12:29:26.688Z</time>
      </trkpt>
      <trkpt lat="36.789546" lon="-2.721972">
        <ele>126.536477</ele>
        <time>2022-11-02T12:29:28.678Z</time>
      </trkpt>
      <trkpt lat="36.789377" lon="-2.722196">
        <ele>125.979956</ele>
        <time>2022-11-02T12:29:31.309Z</time>
      </trkpt>
      <trkpt lat="36.788846" lon="-2.722556">
        <ele>124.615580</ele>
        <time>2022-11-02T12:29:37.756Z</time>
      </trkpt>
      <trkpt lat="36.788576" lon="-2.722932">
        <ele>123.702318</ele>
        <time>2022-11-02T12:29:42.022Z</time>
      </trkpt>
      <trkpt lat="36.787892" lon="-2.726897">
        <ele>114.416973</ele>
        <time>2022-11-02T12:30:15.230Z</time>
      </trkpt>
      <trkpt lat="36.787443" lon="-2.729625">
        <ele>109.620870</ele>
        <time>2022-11-02T12:30:39.725Z</time>
      </trkpt>
      <trkpt lat="36.787305" lon="-2.730465">
        <ele>108.266480</ele>
        <time>2022-11-02T12:30:47.409Z</time>
      </trkpt>
      <trkpt lat="36.787115" lon="-2.731631">
        <ele>106.388416</ele>
        <time>2022-11-02T12:30:57.899Z</time>
      </trkpt>
      <trkpt lat="36.785901" lon="-2.739025">
        <ele>92.806764</ele>
        <time>2022-11-02T12:32:02.925Z</time>
      </trkpt>
      <trkpt lat="36.785850" lon="-2.739334">
        <ele>92.250367</ele>
        <time>2022-11-02T12:32:05.518Z</time>
      </trkpt>
      <trkpt lat="36.785558" lon="-2.741254">
        <ele>89.234344</ele>
        <time>2022-11-02T12:32:22.564Z</time>
      </trkpt>
      <trkpt lat="36.785661" lon="-2.741532">
        <ele>88.923533</ele>
        <time>2022-11-02T12:32:25.478Z</time>
      </trkpt>
      <trkpt lat="36.785960" lon="-2.741851">
        <ele>88.425251</ele>
        <time>2022-11-02T12:32:30.184Z</time>
      </trkpt>
      <trkpt lat="36.786020" lon="-2.742008">
        <ele>88.248735</ele>
        <time>2022-11-02T12:32:31.923Z</time>
      </trkpt>
      <trkpt lat="36.786074" lon="-2.742487">
        <ele>87.757904</ele>
        <time>2022-11-02T12:32:36.717Z</time>
      </trkpt>
      <trkpt lat="36.786021" lon="-2.743409">
        <ele>86.749519</ele>
        <time>2022-11-02T12:32:46.533Z</time>
      </trkpt>
      <trkpt lat="36.785978" lon="-2.743583">
        <ele>86.546647</ele>
        <time>2022-11-02T12:32:48.431Z</time>
      </trkpt>
      <trkpt lat="36.785841" lon="-2.743807">
        <ele>86.232641</ele>
        <time>2022-11-02T12:32:51.263Z</time>
      </trkpt>
      <trkpt lat="36.785096" lon="-2.744497">
        <ele>84.867751</ele>
        <time>2022-11-02T12:33:01.423Z</time>
      </trkpt>
      <trkpt lat="36.784961" lon="-2.744789">
        <ele>84.195883</ele>
        <time>2022-11-02T12:33:04.224Z</time>
      </trkpt>
      <trkpt lat="36.784662" lon="-2.746603">
        <ele>80.518454</ele>
        <time>2022-11-02T12:33:19.835Z</time>
      </trkpt>
      <trkpt lat="36.784674" lon="-2.747469">
        <ele>79.196066</ele>
        <time>2022-11-02T12:33:27.156Z</time>
      </trkpt>
      <trkpt lat="36.784231" lon="-2.749996">
        <ele>75.560627</ele>
        <time>2022-11-02T12:33:51.079Z</time>
      </trkpt>
      <trkpt lat="36.784355" lon="-2.750139">
        <ele>75.292425</ele>
        <time>2022-11-02T12:33:53.026Z</time>
      </trkpt>
      <trkpt lat="36.784334" lon="-2.750318">
        <ele>75.062209</ele>
        <time>2022-11-02T12:33:54.637Z</time>
      </trkpt>
      <trkpt lat="36.784167" lon="-2.750407">
        <ele>74.773703</ele>
        <time>2022-11-02T12:33:56.669Z</time>
      </trkpt>
      <trkpt lat="36.783761" lon="-2.752628">
        <ele>71.809155</ele>
        <time>2022-11-02T12:34:17.191Z</time>
      </trkpt>
      <trkpt lat="36.783360" lon="-2.753694">
        <ele>70.523943</ele>
        <time>2022-11-02T12:34:28.244Z</time>
      </trkpt>
      <trkpt lat="36.783166" lon="-2.754369">
        <ele>69.809467</ele>
        <time>2022-11-02T12:34:35.015Z</time>
      </trkpt>
      <trkpt lat="36.783027" lon="-2.754934">
        <ele>69.220611</ele>
        <time>2022-11-02T12:34:40.766Z</time>
      </trkpt>
      <trkpt lat="36.782858" lon="-2.755954">
        <ele>68.625412</ele>
        <time>2022-11-02T12:34:50.858Z</time>
      </trkpt>
      <trkpt lat="36.782094" lon="-2.760560">
        <ele>66.391138</ele>
        <time>2022-11-02T12:35:40.589Z</time>
      </trkpt>
      <trkpt lat="36.781879" lon="-2.761854">
        <ele>65.898493</ele>
        <time>2022-11-02T12:35:55.298Z</time>
      </trkpt>
      <trkpt lat="36.781663" lon="-2.763185">
        <ele>65.191671</ele>
        <time>2022-11-02T12:36:09.445Z</time>
      </trkpt>
      <trkpt lat="36.781060" lon="-2.766838">
        <ele>62.770195</ele>
        <time>2022-11-02T12:36:45.925Z</time>
      </trkpt>
      <trkpt lat="36.780939" lon="-2.767566">
        <ele>62.502424</ele>
        <time>2022-11-02T12:36:54.318Z</time>
      </trkpt>
      <trkpt lat="36.780707" lon="-2.768953">
        <ele>62.061777</ele>
        <time>2022-11-02T12:37:11.326Z</time>
      </trkpt>
      <trkpt lat="36.780694" lon="-2.769377">
        <ele>61.949936</ele>
        <time>2022-11-02T12:37:16.193Z</time>
      </trkpt>
      <trkpt lat="36.780786" lon="-2.769706">
        <ele>61.858084</ele>
        <time>2022-11-02T12:37:19.998Z</time>
      </trkpt>
      <trkpt lat="36.780838" lon="-2.769791">
        <ele>61.829892</ele>
        <time>2022-11-02T12:37:21.188Z</time>
      </trkpt>
      <trkpt lat="36.780848" lon="-2.769851">
        <ele>61.813738</ele>
        <time>2022-11-02T12:37:21.836Z</time>
      </trkpt>
      <trkpt lat="36.780819" lon="-2.769965">
        <ele>61.782211</ele>
        <time>2022-11-02T12:37:23.075Z</time>
      </trkpt>
      <trkpt lat="36.780742" lon="-2.770033">
        <ele>61.751172</ele>
        <time>2022-11-02T12:37:24.303Z</time>
      </trkpt>
      <trkpt lat="36.780571" lon="-2.770222">
        <ele>61.676015</ele>
        <time>2022-11-02T12:37:27.214Z</time>
      </trkpt>
      <trkpt lat="36.780404" lon="-2.770757">
        <ele>61.114395</ele>
        <time>2022-11-02T12:37:32.853Z</time>
      </trkpt>
      <trkpt lat="36.780297" lon="-2.771421">
        <ele>60.394557</ele>
        <time>2022-11-02T12:37:39.178Z</time>
      </trkpt>
      <trkpt lat="36.780099" lon="-2.772649">
        <ele>59.073257</ele>
        <time>2022-11-02T12:37:50.620Z</time>
      </trkpt>
      <trkpt lat="36.779964" lon="-2.773489">
        <ele>58.206058</ele>
        <time>2022-11-02T12:37:58.521Z</time>
      </trkpt>
      <trkpt lat="36.779916" lon="-2.773907">
        <ele>57.778630</ele>
        <time>2022-11-02T12:38:02.449Z</time>
      </trkpt>
      <trkpt lat="36.779850" lon="-2.774353">
        <ele>57.319545</ele>
        <time>2022-11-02T12:38:06.862Z</time>
      </trkpt>
      <trkpt lat="36.779781" lon="-2.774773">
        <ele>56.949214</ele>
        <time>2022-11-02T12:38:11.176Z</time>
      </trkpt>
      <trkpt lat="36.779685" lon="-2.775351">
        <ele>56.683423</ele>
        <time>2022-11-02T12:38:17.399Z</time>
      </trkpt>
      <trkpt lat="36.779616" lon="-2.775774">
        <ele>56.489050</ele>
        <time>2022-11-02T12:38:22.154Z</time>
      </trkpt>
      <trkpt lat="36.779553" lon="-2.776153">
        <ele>56.314763</ele>
        <time>2022-11-02T12:38:26.350Z</time>
      </trkpt>
      <trkpt lat="36.779438" lon="-2.776849">
        <ele>55.994777</ele>
        <time>2022-11-02T12:38:33.681Z</time>
      </trkpt>
      <trkpt lat="36.779478" lon="-2.777105">
        <ele>55.832381</ele>
        <time>2022-11-02T12:38:36.335Z</time>
      </trkpt>
      <trkpt lat="36.779515" lon="-2.777157">
        <ele>55.788462</ele>
        <time>2022-11-02T12:38:37.129Z</time>
      </trkpt>
      <trkpt lat="36.779530" lon="-2.777203">
        <ele>55.757101</ele>
        <time>2022-11-02T12:38:37.684Z</time>
      </trkpt>
      <trkpt lat="36.779477" lon="-2.777375">
        <ele>55.640736</ele>
        <time>2022-11-02T12:38:39.656Z</time>
      </trkpt>
      <trkpt lat="36.779438" lon="-2.777399">
        <ele>55.606458</ele>
        <time>2022-11-02T12:38:40.218Z</time>
      </trkpt>
      <trkpt lat="36.779350" lon="-2.777481">
        <ele>55.519891</ele>
        <time>2022-11-02T12:38:41.640Z</time>
      </trkpt>
      <trkpt lat="36.779272" lon="-2.777679">
        <ele>55.380564</ele>
        <time>2022-11-02T12:38:43.961Z</time>
      </trkpt>
      <trkpt lat="36.779169" lon="-2.778302">
        <ele>54.978890</ele>
        <time>2022-11-02T12:38:50.302Z</time>
      </trkpt>
      <trkpt lat="36.779044" lon="-2.779069">
        <ele>54.462679</ele>
        <time>2022-11-02T12:38:57.971Z</time>
      </trkpt>
      <trkpt lat="36.778899" lon="-2.779948">
        <ele>53.751913</ele>
        <time>2022-11-02T12:39:06.684Z</time>
      </trkpt>
      <trkpt lat="36.778779" lon="-2.780683">
        <ele>53.157832</ele>
        <time>2022-11-02T12:39:14.101Z</time>
      </trkpt>
      <trkpt lat="36.778720" lon="-2.781038">
        <ele>52.870688</ele>
        <time>2022-11-02T12:39:17.706Z</time>
      </trkpt>
      <trkpt lat="36.778690" lon="-2.781459">
        <ele>52.535783</ele>
        <time>2022-11-02T12:39:21.912Z</time>
      </trkpt>
      <trkpt lat="36.778697" lon="-2.781516">
        <ele>52.490083</ele>
        <time>2022-11-02T12:39:22.492Z</time>
      </trkpt>
      <trkpt lat="36.778674" lon="-2.781629">
        <ele>52.397686</ele>
        <time>2022-11-02T12:39:23.613Z</time>
      </trkpt>
      <trkpt lat="36.778651" lon="-2.781669">
        <ele>52.358664</ele>
        <time>2022-11-02T12:39:24.093Z</time>
      </trkpt>
      <trkpt lat="36.778359" lon="-2.783226">
        <ele>51.091387</ele>
        <time>2022-11-02T12:39:39.526Z</time>
      </trkpt>
      <trkpt lat="36.778196" lon="-2.784228">
        <ele>50.838662</ele>
        <time>2022-11-02T12:39:49.978Z</time>
      </trkpt>
      <trkpt lat="36.778104" lon="-2.784794">
        <ele>50.729656</ele>
        <time>2022-11-02T12:39:56.490Z</time>
      </trkpt>
      <trkpt lat="36.778012" lon="-2.785363">
        <ele>50.620095</ele>
        <time>2022-11-02T12:40:03.761Z</time>
      </trkpt>
      <trkpt lat="36.778001" lon="-2.785832">
        <ele>50.847104</ele>
        <time>2022-11-02T12:40:10.300Z</time>
      </trkpt>
      <trkpt lat="36.778061" lon="-2.785935">
        <ele>50.954792</ele>
        <time>2022-11-02T12:40:12.179Z</time>
      </trkpt>
      <trkpt lat="36.778061" lon="-2.786062">
        <ele>51.062175</ele>
        <time>2022-11-02T12:40:14.024Z</time>
      </trkpt>
      <trkpt lat="36.778000" lon="-2.786164">
        <ele>51.169808</ele>
        <time>2022-11-02T12:40:15.924Z</time>
      </trkpt>
      <trkpt lat="36.777832" lon="-2.786452">
        <ele>51.471060</ele>
        <time>2022-11-02T12:40:21.354Z</time>
      </trkpt>
      <trkpt lat="36.777816" lon="-2.786547">
        <ele>51.553143</ele>
        <time>2022-11-02T12:40:22.874Z</time>
      </trkpt>
      <trkpt lat="36.777674" lon="-2.787399">
        <ele>52.288975</ele>
        <time>2022-11-02T12:40:36.957Z</time>
      </trkpt>
      <trkpt lat="36.777617" lon="-2.787736">
        <ele>52.571008</ele>
        <time>2022-11-02T12:40:42.663Z</time>
      </trkpt>
      <trkpt lat="36.777546" lon="-2.788164">
        <ele>52.903765</ele>
        <time>2022-11-02T12:40:49.722Z</time>
      </trkpt>
      <trkpt lat="36.777523" lon="-2.788299">
        <ele>53.008842</ele>
        <time>2022-11-02T12:40:52.019Z</time>
      </trkpt>
      <trkpt lat="36.777445" lon="-2.788767">
        <ele>53.372768</ele>
        <time>2022-11-02T12:40:59.340Z</time>
      </trkpt>
      <trkpt lat="36.777403" lon="-2.789021">
        <ele>53.570220</ele>
        <time>2022-11-02T12:41:03.154Z</time>
      </trkpt>
      <trkpt lat="36.777362" lon="-2.789265">
        <ele>53.760024</ele>
        <time>2022-11-02T12:41:06.639Z</time>
      </trkpt>
      <trkpt lat="36.777320" lon="-2.789517">
        <ele>53.955985</ele>
        <time>2022-11-02T12:41:09.979Z</time>
      </trkpt>
      <trkpt lat="36.777306" lon="-2.789602">
        <ele>54.022051</ele>
        <time>2022-11-02T12:41:11.161Z</time>
      </trkpt>
      <trkpt lat="36.777259" lon="-2.789880">
        <ele>54.213690</ele>
        <time>2022-11-02T12:41:14.884Z</time>
      </trkpt>
      <trkpt lat="36.777189" lon="-2.790300">
        <ele>54.343253</ele>
        <time>2022-11-02T12:41:20.667Z</time>
      </trkpt>
      <trkpt lat="36.777202" lon="-2.790658">
        <ele>54.451486</ele>
        <time>2022-11-02T12:41:25.531Z</time>
      </trkpt>
      <trkpt lat="36.777268" lon="-2.790762">
        <ele>54.491559</ele>
        <time>2022-11-02T12:41:27.372Z</time>
      </trkpt>
      <trkpt lat="36.777277" lon="-2.790850">
        <ele>54.518352</ele>
        <time>2022-11-02T12:41:28.612Z</time>
      </trkpt>
      <trkpt lat="36.777263" lon="-2.790892">
        <ele>54.532092</ele>
        <time>2022-11-02T12:41:29.242Z</time>
      </trkpt>
      <trkpt lat="36.777234" lon="-2.790975">
        <ele>54.559440</ele>
        <time>2022-11-02T12:41:30.422Z</time>
      </trkpt>
      <trkpt lat="36.777139" lon="-2.791042">
        <ele>54.600581</ele>
        <time>2022-11-02T12:41:32.149Z</time>
      </trkpt>
      <trkpt lat="36.777034" lon="-2.791300">
        <ele>54.687983</ele>
        <time>2022-11-02T12:41:35.878Z</time>
      </trkpt>
      <trkpt lat="36.777013" lon="-2.791356">
        <ele>54.706657</ele>
        <time>2022-11-02T12:41:36.657Z</time>
      </trkpt>
      <trkpt lat="36.776925" lon="-2.791892">
        <ele>54.871904</ele>
        <time>2022-11-02T12:41:43.402Z</time>
      </trkpt>
      <trkpt lat="36.776869" lon="-2.792238">
        <ele>54.900965</ele>
        <time>2022-11-02T12:41:47.835Z</time>
      </trkpt>
      <trkpt lat="36.776819" lon="-2.792543">
        <ele>54.924092</ele>
        <time>2022-11-02T12:41:51.739Z</time>
      </trkpt>
      <trkpt lat="36.776783" lon="-2.792769">
        <ele>54.941209</ele>
        <time>2022-11-02T12:41:54.542Z</time>
      </trkpt>
      <trkpt lat="36.776557" lon="-2.794158">
        <ele>55.047715</ele>
        <time>2022-11-02T12:42:11.769Z</time>
      </trkpt>
      <trkpt lat="36.776473" lon="-2.794679">
        <ele>55.099124</ele>
        <time>2022-11-02T12:42:17.781Z</time>
      </trkpt>
      <trkpt lat="36.776213" lon="-2.796279">
        <ele>55.257050</ele>
        <time>2022-11-02T12:42:36.972Z</time>
      </trkpt>
      <trkpt lat="36.775910" lon="-2.798054">
        <ele>57.040296</ele>
        <time>2022-11-02T12:43:05.043Z</time>
      </trkpt>
      <trkpt lat="36.775822" lon="-2.798571">
        <ele>57.581298</ele>
        <time>2022-11-02T12:43:15.126Z</time>
      </trkpt>
      <trkpt lat="36.775724" lon="-2.799144">
        <ele>58.285429</ele>
        <time>2022-11-02T12:43:26.495Z</time>
      </trkpt>
      <trkpt lat="36.775679" lon="-2.799411">
        <ele>58.613325</ele>
        <time>2022-11-02T12:43:31.398Z</time>
      </trkpt>
      <trkpt lat="36.775583" lon="-2.799970">
        <ele>59.300378</ele>
        <time>2022-11-02T12:43:41.311Z</time>
      </trkpt>
      <trkpt lat="36.775439" lon="-2.800802">
        <ele>60.251872</ele>
        <time>2022-11-02T12:43:53.373Z</time>
      </trkpt>
      <trkpt lat="36.775414" lon="-2.800960">
        <ele>60.337428</ele>
        <time>2022-11-02T12:43:55.389Z</time>
      </trkpt>
      <trkpt lat="36.775550" lon="-2.801049">
        <ele>60.439266</ele>
        <time>2022-11-02T12:43:57.992Z</time>
      </trkpt>
      <trkpt lat="36.775618" lon="-2.801221">
        <ele>60.541162</ele>
        <time>2022-11-02T12:44:00.875Z</time>
      </trkpt>
      <trkpt lat="36.775616" lon="-2.801318">
        <ele>60.592708</ele>
        <time>2022-11-02T12:44:02.189Z</time>
      </trkpt>
      <trkpt lat="36.775506" lon="-2.801521">
        <ele>60.722907</ele>
        <time>2022-11-02T12:44:05.995Z</time>
      </trkpt>
      <trkpt lat="36.775496" lon="-2.801532">
        <ele>60.731746</ele>
        <time>2022-11-02T12:44:06.255Z</time>
      </trkpt>
      <trkpt lat="36.775448" lon="-2.801811">
        <ele>60.883339</ele>
        <time>2022-11-02T12:44:10.290Z</time>
      </trkpt>
      <trkpt lat="36.775392" lon="-2.802138">
        <ele>61.060978</ele>
        <time>2022-11-02T12:44:14.951Z</time>
      </trkpt>
      <trkpt lat="36.775348" lon="-2.802395">
        <ele>61.200588</ele>
        <time>2022-11-02T12:44:18.702Z</time>
      </trkpt>
      <trkpt lat="36.775291" lon="-2.802728">
        <ele>61.381482</ele>
        <time>2022-11-02T12:44:22.908Z</time>
      </trkpt>
      <trkpt lat="36.775158" lon="-2.803496">
        <ele>61.911508</ele>
        <time>2022-11-02T12:44:33.148Z</time>
      </trkpt>
      <trkpt lat="36.775133" lon="-2.803581">
        <ele>61.972799</ele>
        <time>2022-11-02T12:44:34.466Z</time>
      </trkpt>
      <trkpt lat="36.774913" lon="-2.804180">
        <ele>62.418845</ele>
        <time>2022-11-02T12:44:44.566Z</time>
      </trkpt>
      <trkpt lat="36.774821" lon="-2.804740">
        <ele>62.805792</ele>
        <time>2022-11-02T12:44:53.626Z</time>
      </trkpt>
      <trkpt lat="36.774768" lon="-2.805065">
        <ele>63.098164</ele>
        <time>2022-11-02T12:44:58.661Z</time>
      </trkpt>
      <trkpt lat="36.774680" lon="-2.805638">
        <ele>63.712473</ele>
        <time>2022-11-02T12:45:07.527Z</time>
      </trkpt>
      <trkpt lat="36.774510" lon="-2.806743">
        <ele>64.897210</ele>
        <time>2022-11-02T12:45:25.131Z</time>
      </trkpt>
      <trkpt lat="36.774527" lon="-2.806936">
        <ele>65.101648</ele>
        <time>2022-11-02T12:45:28.552Z</time>
      </trkpt>
      <trkpt lat="36.774606" lon="-2.807098">
        <ele>65.321486</ele>
        <time>2022-11-02T12:45:31.909Z</time>
      </trkpt>
      <trkpt lat="36.774586" lon="-2.807273">
        <ele>65.637331</ele>
        <time>2022-11-02T12:45:35.116Z</time>
      </trkpt>
      <trkpt lat="36.774543" lon="-2.807345">
        <ele>65.797797</ele>
        <time>2022-11-02T12:45:36.735Z</time>
      </trkpt>
      <trkpt lat="36.774514" lon="-2.807374">
        <ele>65.880679</ele>
        <time>2022-11-02T12:45:37.554Z</time>
      </trkpt>
      <trkpt lat="36.774378" lon="-2.807619">
        <ele>66.413273</ele>
        <time>2022-11-02T12:45:43.041Z</time>
      </trkpt>
      <trkpt lat="36.774205" lon="-2.808531">
        <ele>68.087848</ele>
        <time>2022-11-02T12:46:01.122Z</time>
      </trkpt>
      <trkpt lat="36.774034" lon="-2.809453">
        <ele>69.876599</ele>
        <time>2022-11-02T12:46:19.941Z</time>
      </trkpt>
      <trkpt lat="36.773983" lon="-2.809582">
        <ele>70.184493</ele>
        <time>2022-11-02T12:46:22.896Z</time>
      </trkpt>
      <trkpt lat="36.773805" lon="-2.810668">
        <ele>72.556992</ele>
        <time>2022-11-02T12:46:46.163Z</time>
      </trkpt>
      <trkpt lat="36.773735" lon="-2.811111">
        <ele>73.523407</ele>
        <time>2022-11-02T12:46:55.686Z</time>
      </trkpt>
      <trkpt lat="36.773713" lon="-2.811405">
        <ele>74.137746</ele>
        <time>2022-11-02T12:47:01.716Z</time>
      </trkpt>
      <trkpt lat="36.773596" lon="-2.812150">
        <ele>75.320750</ele>
        <time>2022-11-02T12:47:16.096Z</time>
      </trkpt>
      <trkpt lat="36.773486" lon="-2.812639">
        <ele>76.112216</ele>
        <time>2022-11-02T12:47:25.172Z</time>
      </trkpt>
      <trkpt lat="36.773316" lon="-2.813698">
        <ele>77.808059</ele>
        <time>2022-11-02T12:47:43.617Z</time>
      </trkpt>
      <trkpt lat="36.773288" lon="-2.813928">
        <ele>78.193188</ele>
        <time>2022-11-02T12:47:47.409Z</time>
      </trkpt>
      <trkpt lat="36.773240" lon="-2.814327">
        <ele>78.861127</ele>
        <time>2022-11-02T12:47:53.801Z</time>
      </trkpt>
      <trkpt lat="36.773145" lon="-2.814876">
        <ele>79.790944</ele>
        <time>2022-11-02T12:48:03.201Z</time>
      </trkpt>
      <trkpt lat="36.773113" lon="-2.815060">
        <ele>80.102648</ele>
        <time>2022-11-02T12:48:06.863Z</time>
      </trkpt>
      <trkpt lat="36.773022" lon="-2.815506">
        <ele>80.864564</ele>
        <time>2022-11-02T12:48:16.291Z</time>
      </trkpt>
      <trkpt lat="36.773004" lon="-2.815616">
        <ele>81.050427</ele>
        <time>2022-11-02T12:48:18.686Z</time>
      </trkpt>
      <trkpt lat="36.772901" lon="-2.816255">
        <ele>82.679903</ele>
        <time>2022-11-02T12:48:33.600Z</time>
      </trkpt>
      <trkpt lat="36.772857" lon="-2.816523">
        <ele>83.435820</ele>
        <time>2022-11-02T12:48:39.942Z</time>
      </trkpt>
      <trkpt lat="36.772818" lon="-2.816769">
        <ele>84.128738</ele>
        <time>2022-11-02T12:48:45.492Z</time>
      </trkpt>
      <trkpt lat="36.772811" lon="-2.816851">
        <ele>84.356599</ele>
        <time>2022-11-02T12:48:47.387Z</time>
      </trkpt>
      <trkpt lat="36.772754" lon="-2.817164">
        <ele>85.243532</ele>
        <time>2022-11-02T12:48:54.609Z</time>
      </trkpt>
      <trkpt lat="36.772692" lon="-2.817544">
        <ele>86.315088</ele>
        <time>2022-11-02T12:49:03.709Z</time>
      </trkpt>
      <trkpt lat="36.772662" lon="-2.817727">
        <ele>86.831225</ele>
        <time>2022-11-02T12:49:08.250Z</time>
      </trkpt>
      <trkpt lat="36.772634" lon="-2.817902">
        <ele>87.324328</ele>
        <time>2022-11-02T12:49:12.558Z</time>
      </trkpt>
      <trkpt lat="36.772615" lon="-2.818020">
        <ele>87.648811</ele>
        <time>2022-11-02T12:49:15.450Z</time>
      </trkpt>
      <trkpt lat="36.772528" lon="-2.818559">
        <ele>89.083636</ele>
        <time>2022-11-02T12:49:28.810Z</time>
      </trkpt>
      <trkpt lat="36.772507" lon="-2.818778">
        <ele>89.659210</ele>
        <time>2022-11-02T12:49:33.801Z</time>
      </trkpt>
      <trkpt lat="36.772410" lon="-2.819454">
        <ele>91.451355</ele>
        <time>2022-11-02T12:49:48.494Z</time>
      </trkpt>
      <trkpt lat="36.772360" lon="-2.819763">
        <ele>92.273999</ele>
        <time>2022-11-02T12:49:54.916Z</time>
      </trkpt>
      <trkpt lat="36.772267" lon="-2.820341">
        <ele>93.637047</ele>
        <time>2022-11-02T12:50:07.735Z</time>
      </trkpt>
      <trkpt lat="36.772203" lon="-2.820742">
        <ele>94.280114</ele>
        <time>2022-11-02T12:50:17.146Z</time>
      </trkpt>
      <trkpt lat="36.772085" lon="-2.821483">
        <ele>95.468323</ele>
        <time>2022-11-02T12:50:32.658Z</time>
      </trkpt>
      <trkpt lat="36.772023" lon="-2.821867">
        <ele>96.084404</ele>
        <time>2022-11-02T12:50:38.952Z</time>
      </trkpt>
      <trkpt lat="36.771997" lon="-2.822027">
        <ele>96.341170</ele>
        <time>2022-11-02T12:50:41.288Z</time>
      </trkpt>
      <trkpt lat="36.771964" lon="-2.822213">
        <ele>96.640790</ele>
        <time>2022-11-02T12:50:43.845Z</time>
      </trkpt>
      <trkpt lat="36.771870" lon="-2.822786">
        <ele>96.849507</ele>
        <time>2022-11-02T12:50:50.749Z</time>
      </trkpt>
      <trkpt lat="36.771768" lon="-2.823400">
        <ele>96.770159</ele>
        <time>2022-11-02T12:50:57.672Z</time>
      </trkpt>
      <trkpt lat="36.771650" lon="-2.824174">
        <ele>96.670458</ele>
        <time>2022-11-02T12:51:05.954Z</time>
      </trkpt>
      <trkpt lat="36.771667" lon="-2.824241">
        <ele>96.661565</ele>
        <time>2022-11-02T12:51:06.708Z</time>
      </trkpt>
      <trkpt lat="36.771667" lon="-2.824276">
        <ele>96.657136</ele>
        <time>2022-11-02T12:51:07.075Z</time>
      </trkpt>
      <trkpt lat="36.771617" lon="-2.824390">
        <ele>96.640690</ele>
        <time>2022-11-02T12:51:08.436Z</time>
      </trkpt>
      <trkpt lat="36.771562" lon="-2.824538">
        <ele>96.620045</ele>
        <time>2022-11-02T12:51:10.242Z</time>
      </trkpt>
      <trkpt lat="36.771499" lon="-2.824732">
        <ele>96.885281</ele>
        <time>2022-11-02T12:51:12.490Z</time>
      </trkpt>
      <trkpt lat="36.771348" lon="-2.825653">
        <ele>98.167079</ele>
        <time>2022-11-02T12:51:26.143Z</time>
      </trkpt>
      <trkpt lat="36.771209" lon="-2.826496">
        <ele>99.340592</ele>
        <time>2022-11-02T12:51:44.254Z</time>
      </trkpt>
      <trkpt lat="36.771203" lon="-2.826530">
        <ele>99.388062</ele>
        <time>2022-11-02T12:51:45.042Z</time>
      </trkpt>
      <trkpt lat="36.771168" lon="-2.826744">
        <ele>99.689564</ele>
        <time>2022-11-02T12:51:50.122Z</time>
      </trkpt>
      <trkpt lat="36.771144" lon="-2.826887">
        <ele>100.012240</ele>
        <time>2022-11-02T12:51:53.440Z</time>
      </trkpt>
      <trkpt lat="36.771112" lon="-2.827085">
        <ele>100.458340</ele>
        <time>2022-11-02T12:51:58.067Z</time>
      </trkpt>
      <trkpt lat="36.770968" lon="-2.827961">
        <ele>102.433327</ele>
        <time>2022-11-02T12:52:17.681Z</time>
      </trkpt>
      <trkpt lat="36.770869" lon="-2.828561">
        <ele>103.786265</ele>
        <time>2022-11-02T12:52:29.920Z</time>
      </trkpt>
      <trkpt lat="36.770833" lon="-2.828782">
        <ele>104.284341</ele>
        <time>2022-11-02T12:52:34.305Z</time>
      </trkpt>
      <trkpt lat="36.770820" lon="-2.828862">
        <ele>104.464622</ele>
        <time>2022-11-02T12:52:35.870Z</time>
      </trkpt>
      <trkpt lat="36.770688" lon="-2.829659">
        <ele>105.575744</ele>
        <time>2022-11-02T12:52:50.086Z</time>
      </trkpt>
      <trkpt lat="36.770649" lon="-2.829896">
        <ele>105.884154</ele>
        <time>2022-11-02T12:52:53.889Z</time>
      </trkpt>
      <trkpt lat="36.770688" lon="-2.830251">
        <ele>106.340906</ele>
        <time>2022-11-02T12:52:59.626Z</time>
      </trkpt>
      <trkpt lat="36.770749" lon="-2.830345">
        <ele>106.495112</ele>
        <time>2022-11-02T12:53:01.624Z</time>
      </trkpt>
      <trkpt lat="36.770745" lon="-2.830602">
        <ele>106.822769</ele>
        <time>2022-11-02T12:53:05.972Z</time>
      </trkpt>
      <trkpt lat="36.770592" lon="-2.830744">
        <ele>107.126151</ele>
        <time>2022-11-02T12:53:09.981Z</time>
      </trkpt>
      <trkpt lat="36.770488" lon="-2.830966">
        <ele>107.453974</ele>
        <time>2022-11-02T12:53:14.302Z</time>
      </trkpt>
      <trkpt lat="36.770480" lon="-2.831009">
        <ele>107.508234</ele>
        <time>2022-11-02T12:53:15.021Z</time>
      </trkpt>
      <trkpt lat="36.770229" lon="-2.832404">
        <ele>108.929429</ele>
        <time>2022-11-02T12:53:38.629Z</time>
      </trkpt>
      <trkpt lat="36.769638" lon="-2.835891">
        <ele>111.575543</ele>
        <time>2022-11-02T12:54:30.581Z</time>
      </trkpt>
      <trkpt lat="36.769500" lon="-2.837774">
        <ele>112.734161</ele>
        <time>2022-11-02T12:54:57.906Z</time>
      </trkpt>
      <trkpt lat="36.769396" lon="-2.838564">
        <ele>113.055080</ele>
        <time>2022-11-02T12:55:09.052Z</time>
      </trkpt>
      <trkpt lat="36.768686" lon="-2.841556">
        <ele>114.247169</ele>
        <time>2022-11-02T12:55:49.535Z</time>
      </trkpt>
      <trkpt lat="36.768318" lon="-2.842746">
        <ele>114.998706</ele>
        <time>2022-11-02T12:56:07.883Z</time>
      </trkpt>
      <trkpt lat="36.768026" lon="-2.844235">
        <ele>116.008766</ele>
        <time>2022-11-02T12:56:31.112Z</time>
      </trkpt>
      <trkpt lat="36.768010" lon="-2.844595">
        <ele>116.126027</ele>
        <time>2022-11-02T12:56:36.530Z</time>
      </trkpt>
      <trkpt lat="36.768167" lon="-2.845961">
        <ele>116.574834</ele>
        <time>2022-11-02T12:56:55.068Z</time>
      </trkpt>
      <trkpt lat="36.768119" lon="-2.846555">
        <ele>116.456476</ele>
        <time>2022-11-02T12:57:01.536Z</time>
      </trkpt>
      <trkpt lat="36.768165" lon="-2.846705">
        <ele>116.301106</ele>
        <time>2022-11-02T12:57:03.179Z</time>
      </trkpt>
      <trkpt lat="36.768125" lon="-2.846858">
        <ele>116.145420</ele>
        <time>2022-11-02T12:57:04.799Z</time>
      </trkpt>
      <trkpt lat="36.768006" lon="-2.846948">
        <ele>115.977403</ele>
        <time>2022-11-02T12:57:06.498Z</time>
      </trkpt>
      <trkpt lat="36.766796" lon="-2.849020">
        <ele>113.585091</ele>
        <time>2022-11-02T12:57:40.124Z</time>
      </trkpt>
      <trkpt lat="36.766346" lon="-2.850710">
        <ele>112.218162</ele>
        <time>2022-11-02T12:58:05.722Z</time>
      </trkpt>
      <trkpt lat="36.766348" lon="-2.850843">
        <ele>112.147193</ele>
        <time>2022-11-02T12:58:07.822Z</time>
      </trkpt>
      <trkpt lat="36.766400" lon="-2.850916">
        <ele>112.095077</ele>
        <time>2022-11-02T12:58:09.074Z</time>
      </trkpt>
      <trkpt lat="36.767019" lon="-2.850785">
        <ele>111.676950</ele>
        <time>2022-11-02T12:58:21.193Z</time>
      </trkpt>
      <trkpt lat="36.766969" lon="-2.850892">
        <ele>111.610862</ele>
        <time>2022-11-02T12:58:22.750Z</time>
      </trkpt>
      <trkpt lat="36.766266" lon="-2.851120">
        <ele>110.766475</ele>
        <time>2022-11-02T12:58:35.761Z</time>
      </trkpt>
      <trkpt lat="36.766188" lon="-2.851279">
        <ele>110.495128</ele>
        <time>2022-11-02T12:58:38.624Z</time>
      </trkpt>
      <trkpt lat="36.763439" lon="-2.858981">
        <ele>98.074114</ele>
        <time>2022-11-02T13:00:25.626Z</time>
      </trkpt>
      <trkpt lat="36.763300" lon="-2.859485">
        <ele>97.404046</ele>
        <time>2022-11-02T13:00:32.573Z</time>
      </trkpt>
      <trkpt lat="36.763186" lon="-2.860638">
        <ele>95.943618</ele>
        <time>2022-11-02T13:00:47.680Z</time>
      </trkpt>
      <trkpt lat="36.763200" lon="-2.860836">
        <ele>95.693745</ele>
        <time>2022-11-02T13:00:50.307Z</time>
      </trkpt>
      <trkpt lat="36.763454" lon="-2.861409">
        <ele>95.003378</ele>
        <time>2022-11-02T13:00:59.125Z</time>
      </trkpt>
      <trkpt lat="36.763127" lon="-2.861900">
        <ele>94.456334</ele>
        <time>2022-11-02T13:01:07.905Z</time>
      </trkpt>
      <trkpt lat="36.762903" lon="-2.862653">
        <ele>93.768156</ele>
        <time>2022-11-02T13:01:19.018Z</time>
      </trkpt>
      <trkpt lat="36.762866" lon="-2.862732">
        <ele>93.689754</ele>
        <time>2022-11-02T13:01:20.255Z</time>
      </trkpt>
      <trkpt lat="36.762717" lon="-2.863048">
        <ele>93.375605</ele>
        <time>2022-11-02T13:01:25.404Z</time>
      </trkpt>
      <trkpt lat="36.762435" lon="-2.863460">
        <ele>93.020798</ele>
        <time>2022-11-02T13:01:33.109Z</time>
      </trkpt>
      <trkpt lat="36.761548" lon="-2.864550">
        <ele>92.011445</ele>
        <time>2022-11-02T13:01:55.619Z</time>
      </trkpt>
      <trkpt lat="36.761080" lon="-2.865297">
        <ele>91.207703</ele>
        <time>2022-11-02T13:02:08.725Z</time>
      </trkpt>
      <trkpt lat="36.760067" lon="-2.867953">
        <ele>88.800394</ele>
        <time>2022-11-02T13:02:48.807Z</time>
      </trkpt>
      <trkpt lat="36.760019" lon="-2.868211">
        <ele>88.601969</ele>
        <time>2022-11-02T13:02:52.634Z</time>
      </trkpt>
      <trkpt lat="36.760073" lon="-2.868648">
        <ele>88.270718</ele>
        <time>2022-11-02T13:02:59.124Z</time>
      </trkpt>
      <trkpt lat="36.760028" lon="-2.869058">
        <ele>88.153453</ele>
        <time>2022-11-02T13:03:05.360Z</time>
      </trkpt>
      <trkpt lat="36.759963" lon="-2.869181">
        <ele>88.122474</ele>
        <time>2022-11-02T13:03:07.471Z</time>
      </trkpt>
      <trkpt lat="36.759379" lon="-2.869721">
        <ele>87.931744</ele>
        <time>2022-11-02T13:03:21.757Z</time>
      </trkpt>
      <trkpt lat="36.759303" lon="-2.869876">
        <ele>87.893537</ele>
        <time>2022-11-02T13:03:24.780Z</time>
      </trkpt>
      <trkpt lat="36.757402" lon="-2.875148">
        <ele>86.459490</ele>
        <time>2022-11-02T13:04:54.115Z</time>
      </trkpt>
      <trkpt lat="36.757205" lon="-2.875690">
        <ele>86.134725</ele>
        <time>2022-11-02T13:05:02.651Z</time>
      </trkpt>
      <trkpt lat="36.755883" lon="-2.879431">
        <ele>83.551363</ele>
        <time>2022-11-02T13:06:00.278Z</time>
      </trkpt>
      <trkpt lat="36.755239" lon="-2.882369">
        <ele>82.047005</ele>
        <time>2022-11-02T13:06:45.371Z</time>
      </trkpt>
      <trkpt lat="36.754736" lon="-2.885098">
        <ele>80.547743</ele>
        <time>2022-11-02T13:07:25.846Z</time>
      </trkpt>
      <trkpt lat="36.754623" lon="-2.886360">
        <ele>79.827119</ele>
        <time>2022-11-02T13:07:43.778Z</time>
      </trkpt>
      <trkpt lat="36.754576" lon="-2.887494">
        <ele>79.218373</ele>
        <time>2022-11-02T13:08:00.164Z</time>
      </trkpt>
      <trkpt lat="36.754469" lon="-2.890078">
        <ele>78.708298</ele>
        <time>2022-11-02T13:08:40.621Z</time>
      </trkpt>
      <trkpt lat="36.754535" lon="-2.890373">
        <ele>78.690664</ele>
        <time>2022-11-02T13:08:45.020Z</time>
      </trkpt>
      <trkpt lat="36.754596" lon="-2.890441">
        <ele>78.684786</ele>
        <time>2022-11-02T13:08:46.598Z</time>
      </trkpt>
      <trkpt lat="36.754867" lon="-2.890541">
        <ele>78.664479</ele>
        <time>2022-11-02T13:08:52.089Z</time>
      </trkpt>
      <trkpt lat="36.754955" lon="-2.890699">
        <ele>78.653400</ele>
        <time>2022-11-02T13:08:55.467Z</time>
      </trkpt>
      <trkpt lat="36.754480" lon="-2.890591">
        <ele>78.618705</ele>
        <time>2022-11-02T13:09:05.144Z</time>
      </trkpt>
      <trkpt lat="36.753839" lon="-2.890489">
        <ele>78.556645</ele>
        <time>2022-11-02T13:09:19.531Z</time>
      </trkpt>
      <trkpt lat="36.753575" lon="-2.890416">
        <ele>78.527901</ele>
        <time>2022-11-02T13:09:25.560Z</time>
      </trkpt>
      <trkpt lat="36.753066" lon="-2.890145">
        <ele>78.469076</ele>
        <time>2022-11-02T13:09:36.180Z</time>
      </trkpt>
      <trkpt lat="36.752601" lon="-2.890187">
        <ele>78.419516</ele>
        <time>2022-11-02T13:09:45.932Z</time>
      </trkpt>
      <trkpt lat="36.752774" lon="-2.894196">
        <ele>73.259099</ele>
        <time>2022-11-02T13:10:22.757Z</time>
      </trkpt>
      <trkpt lat="36.752751" lon="-2.894597">
        <ele>72.630604</ele>
        <time>2022-11-02T13:10:26.226Z</time>
      </trkpt>
      <trkpt lat="36.752614" lon="-2.895246">
        <ele>70.201026</ele>
        <time>2022-11-02T13:10:31.674Z</time>
      </trkpt>
      <trkpt lat="36.752288" lon="-2.895988">
        <ele>66.672516</ele>
        <time>2022-11-02T13:10:38.030Z</time>
      </trkpt>
      <trkpt lat="36.751783" lon="-2.896671">
        <ele>62.679229</ele>
        <time>2022-11-02T13:10:44.781Z</time>
      </trkpt>
      <trkpt lat="36.751316" lon="-2.897285">
        <ele>57.493467</ele>
        <time>2022-11-02T13:10:50.789Z</time>
      </trkpt>
      <trkpt lat="36.750687" lon="-2.898257">
        <ele>49.840079</ele>
        <time>2022-11-02T13:10:59.583Z</time>
      </trkpt>
      <trkpt lat="36.750578" lon="-2.898439">
        <ele>48.680362</ele>
        <time>2022-11-02T13:11:01.227Z</time>
      </trkpt>
      <trkpt lat="36.750071" lon="-2.899290">
        <ele>43.958303</ele>
        <time>2022-11-02T13:11:09.045Z</time>
      </trkpt>
      <trkpt lat="36.749046" lon="-2.901014">
        <ele>35.821877</ele>
        <time>2022-11-02T13:11:25.505Z</time>
      </trkpt>
      <trkpt lat="36.748951" lon="-2.901178">
        <ele>35.182222</ele>
        <time>2022-11-02T13:11:27.134Z</time>
      </trkpt>
      <trkpt lat="36.748646" lon="-2.901809">
        <ele>32.852926</ele>
        <time>2022-11-02T13:11:33.013Z</time>
      </trkpt>
      <trkpt lat="36.748503" lon="-2.902280">
        <ele>31.799353</ele>
        <time>2022-11-02T13:11:37.121Z</time>
      </trkpt>
      <trkpt lat="36.748449" lon="-2.902744">
        <ele>31.160482</ele>
        <time>2022-11-02T13:11:41.049Z</time>
      </trkpt>
      <trkpt lat="36.748460" lon="-2.903252">
        <ele>30.468039</ele>
        <time>2022-11-02T13:11:45.536Z</time>
      </trkpt>
      <trkpt lat="36.748544" lon="-2.903720">
        <ele>29.814549</ele>
        <time>2022-11-02T13:11:50.290Z</time>
      </trkpt>
      <trkpt lat="36.748737" lon="-2.904340">
        <ele>29.151897</ele>
        <time>2022-11-02T13:11:57.377Z</time>
      </trkpt>
      <trkpt lat="36.749015" lon="-2.904974">
        <ele>29.164877</ele>
        <time>2022-11-02T13:12:06.707Z</time>
      </trkpt>
      <trkpt lat="36.749144" lon="-2.904934">
        <ele>29.167857</ele>
        <time>2022-11-02T13:12:08.963Z</time>
      </trkpt>
      <trkpt lat="36.749248" lon="-2.905154">
        <ele>29.172444</ele>
        <time>2022-11-02T13:12:12.507Z</time>
      </trkpt>
      <trkpt lat="36.749260" lon="-2.905293">
        <ele>29.174955</ele>
        <time>2022-11-02T13:12:14.289Z</time>
      </trkpt>
      <trkpt lat="36.749193" lon="-2.905355">
        <ele>29.176824</ele>
        <time>2022-11-02T13:12:15.559Z</time>
      </trkpt>
      <trkpt lat="36.749481" lon="-2.905965">
        <ele>29.159513</ele>
        <time>2022-11-02T13:12:24.003Z</time>
      </trkpt>
      <trkpt lat="36.749636" lon="-2.906284">
        <ele>28.761897</ele>
        <time>2022-11-02T13:12:27.976Z</time>
      </trkpt>
      <trkpt lat="36.749776" lon="-2.906573">
        <ele>28.401967</ele>
        <time>2022-11-02T13:12:31.232Z</time>
      </trkpt>
      <trkpt lat="36.749897" lon="-2.906821">
        <ele>28.092506</ele>
        <time>2022-11-02T13:12:33.896Z</time>
      </trkpt>
      <trkpt lat="36.749919" lon="-2.906867">
        <ele>28.035410</ele>
        <time>2022-11-02T13:12:34.376Z</time>
      </trkpt>
      <trkpt lat="36.750068" lon="-2.907172">
        <ele>27.654692</ele>
        <time>2022-11-02T13:12:37.651Z</time>
      </trkpt>
      <trkpt lat="36.750101" lon="-2.907244">
        <ele>27.566288</ele>
        <time>2022-11-02T13:12:38.404Z</time>
      </trkpt>
      <trkpt lat="36.750488" lon="-2.908060">
        <ele>26.511021</ele>
        <time>2022-11-02T13:12:46.764Z</time>
      </trkpt>
      <trkpt lat="36.750537" lon="-2.908164">
        <ele>26.358598</ele>
        <time>2022-11-02T13:12:47.791Z</time>
      </trkpt>
      <trkpt lat="36.751586" lon="-2.910397">
        <ele>23.659463</ele>
        <time>2022-11-02T13:13:11.706Z</time>
      </trkpt>
      <trkpt lat="36.751694" lon="-2.910399">
        <ele>23.600667</ele>
        <time>2022-11-02T13:13:13.273Z</time>
      </trkpt>
      <trkpt lat="36.751726" lon="-2.910511">
        <ele>23.548805</ele>
        <time>2022-11-02T13:13:14.493Z</time>
      </trkpt>
      <trkpt lat="36.751667" lon="-2.910593">
        <ele>23.500737</ele>
        <time>2022-11-02T13:13:15.476Z</time>
      </trkpt>
      <trkpt lat="36.752855" lon="-2.913111">
        <ele>23.515274</ele>
        <time>2022-11-02T13:13:51.209Z</time>
      </trkpt>
      <trkpt lat="36.752974" lon="-2.913383">
        <ele>23.610808</ele>
        <time>2022-11-02T13:13:56.128Z</time>
      </trkpt>
      <trkpt lat="36.753039" lon="-2.913531">
        <ele>23.662836</ele>
        <time>2022-11-02T13:13:58.801Z</time>
      </trkpt>
      <trkpt lat="36.753624" lon="-2.914763">
        <ele>24.378397</ele>
        <time>2022-11-02T13:14:20.987Z</time>
      </trkpt>
      <trkpt lat="36.753819" lon="-2.915484">
        <ele>24.762225</ele>
        <time>2022-11-02T13:14:30.871Z</time>
      </trkpt>
      <trkpt lat="36.753881" lon="-2.916145">
        <ele>24.186643</ele>
        <time>2022-11-02T13:14:37.691Z</time>
      </trkpt>
      <trkpt lat="36.753857" lon="-2.916480">
        <ele>23.827039</ele>
        <time>2022-11-02T13:14:40.839Z</time>
      </trkpt>
      <trkpt lat="36.753606" lon="-2.917575">
        <ele>22.609312</ele>
        <time>2022-11-02T13:14:50.967Z</time>
      </trkpt>
      <trkpt lat="36.753484" lon="-2.918327">
        <ele>21.712513</ele>
        <time>2022-11-02T13:14:57.740Z</time>
      </trkpt>
      <trkpt lat="36.753502" lon="-2.919018">
        <ele>20.881665</ele>
        <time>2022-11-02T13:15:04.036Z</time>
      </trkpt>
      <trkpt lat="36.753605" lon="-2.919737">
        <ele>20.003904</ele>
        <time>2022-11-02T13:15:10.982Z</time>
      </trkpt>
      <trkpt lat="36.753642" lon="-2.919886">
        <ele>19.816441</ele>
        <time>2022-11-02T13:15:12.583Z</time>
      </trkpt>
      <trkpt lat="36.753690" lon="-2.920171">
        <ele>19.483759</ele>
        <time>2022-11-02T13:15:15.471Z</time>
      </trkpt>
      <trkpt lat="36.753690" lon="-2.920822">
        <ele>18.757506</ele>
        <time>2022-11-02T13:15:22.045Z</time>
      </trkpt>
      <trkpt lat="36.753472" lon="-2.922231">
        <ele>17.149755</ele>
        <time>2022-11-02T13:15:35.043Z</time>
      </trkpt>
      <trkpt lat="36.753103" lon="-2.923941">
        <ele>14.885772</ele>
        <time>2022-11-02T13:15:50.767Z</time>
      </trkpt>
      <trkpt lat="36.753022" lon="-2.924527">
        <ele>14.337088</ele>
        <time>2022-11-02T13:15:56.504Z</time>
      </trkpt>
      <trkpt lat="36.753069" lon="-2.925078">
        <ele>14.349209</ele>
        <time>2022-11-02T13:16:02.510Z</time>
      </trkpt>
      <trkpt lat="36.753282" lon="-2.926225">
        <ele>14.374963</ele>
        <time>2022-11-02T13:16:18.069Z</time>
      </trkpt>
      <trkpt lat="36.753344" lon="-2.926808">
        <ele>14.457213</ele>
        <time>2022-11-02T13:16:26.402Z</time>
      </trkpt>
      <trkpt lat="36.753337" lon="-2.927268">
        <ele>14.601728</ele>
        <time>2022-11-02T13:16:32.725Z</time>
      </trkpt>
      <trkpt lat="36.753131" lon="-2.928259">
        <ele>14.923312</ele>
        <time>2022-11-02T13:16:45.754Z</time>
      </trkpt>
      <trkpt lat="36.752828" lon="-2.929434">
        <ele>15.320238</ele>
        <time>2022-11-02T13:17:01.333Z</time>
      </trkpt>
      <trkpt lat="36.752712" lon="-2.930194">
        <ele>15.573274</ele>
        <time>2022-11-02T13:17:12.179Z</time>
      </trkpt>
      <trkpt lat="36.752661" lon="-2.931096">
        <ele>15.811298</ele>
        <time>2022-11-02T13:17:24.237Z</time>
      </trkpt>
      <trkpt lat="36.752726" lon="-2.932020">
        <ele>15.742493</ele>
        <time>2022-11-02T13:17:35.932Z</time>
      </trkpt>
      <trkpt lat="36.752803" lon="-2.932390">
        <ele>15.714136</ele>
        <time>2022-11-02T13:17:40.456Z</time>
      </trkpt>
      <trkpt lat="36.753675" lon="-2.936086">
        <ele>14.094822</ele>
        <time>2022-11-02T13:18:20.163Z</time>
      </trkpt>
      <trkpt lat="36.754174" lon="-2.938738">
        <ele>13.410946</ele>
        <time>2022-11-02T13:18:49.264Z</time>
      </trkpt>
      <trkpt lat="36.755031" lon="-2.941159">
        <ele>13.563294</ele>
        <time>2022-11-02T13:19:24.689Z</time>
      </trkpt>
      <trkpt lat="36.755733" lon="-2.942525">
        <ele>12.730504</ele>
        <time>2022-11-02T13:19:41.328Z</time>
      </trkpt>
      <trkpt lat="36.755819" lon="-2.942691">
        <ele>12.565662</ele>
        <time>2022-11-02T13:19:43.179Z</time>
      </trkpt>
      <trkpt lat="36.756360" lon="-2.943917">
        <ele>11.503389</ele>
        <time>2022-11-02T13:19:56.128Z</time>
      </trkpt>
      <trkpt lat="36.756750" lon="-2.945077">
        <ele>10.762410</ele>
        <time>2022-11-02T13:20:08.208Z</time>
      </trkpt>
      <trkpt lat="36.758805" lon="-2.955194">
        <ele>15.171882</ele>
        <time>2022-11-02T13:22:30.461Z</time>
      </trkpt>
      <trkpt lat="36.758853" lon="-2.955407">
        <ele>15.404345</ele>
        <time>2022-11-02T13:22:34.389Z</time>
      </trkpt>
      <trkpt lat="36.758872" lon="-2.955507">
        <ele>15.512319</ele>
        <time>2022-11-02T13:22:36.112Z</time>
      </trkpt>
      <trkpt lat="36.759147" lon="-2.956729">
        <ele>16.860783</ele>
        <time>2022-11-02T13:22:58.779Z</time>
      </trkpt>
      <trkpt lat="36.759570" lon="-2.958178">
        <ele>18.574441</ele>
        <time>2022-11-02T13:23:24.647Z</time>
      </trkpt>
      <trkpt lat="36.759818" lon="-2.959170">
        <ele>19.304085</ele>
        <time>2022-11-02T13:23:39.513Z</time>
      </trkpt>
      <trkpt lat="36.759892" lon="-2.959807">
        <ele>19.549953</ele>
        <time>2022-11-02T13:23:47.761Z</time>
      </trkpt>
      <trkpt lat="36.759916" lon="-2.960652">
        <ele>19.872931</ele>
        <time>2022-11-02T13:23:57.905Z</time>
      </trkpt>
      <trkpt lat="36.759838" lon="-2.962208">
        <ele>21.533401</ele>
        <time>2022-11-02T13:24:20.525Z</time>
      </trkpt>
      <trkpt lat="36.759651" lon="-2.965925">
        <ele>28.421389</ele>
        <time>2022-11-02T13:25:35.806Z</time>
      </trkpt>
      <trkpt lat="36.759597" lon="-2.967236">
        <ele>31.017853</ele>
        <time>2022-11-02T13:26:01.815Z</time>
      </trkpt>
      <trkpt lat="36.759636" lon="-2.968392">
        <ele>32.832151</ele>
        <time>2022-11-02T13:26:24.095Z</time>
      </trkpt>
      <trkpt lat="36.759868" lon="-2.969121">
        <ele>33.943424</ele>
        <time>2022-11-02T13:26:37.828Z</time>
      </trkpt>
      <trkpt lat="36.759979" lon="-2.969260">
        <ele>34.221462</ele>
        <time>2022-11-02T13:26:41.187Z</time>
      </trkpt>
      <trkpt lat="36.760094" lon="-2.969517">
        <ele>34.638495</ele>
        <time>2022-11-02T13:26:45.744Z</time>
      </trkpt>
      <trkpt lat="36.760062" lon="-2.969863">
        <ele>34.866499</ele>
        <time>2022-11-02T13:26:51.027Z</time>
      </trkpt>
      <trkpt lat="36.760006" lon="-2.969968">
        <ele>34.895205</ele>
        <time>2022-11-02T13:26:52.861Z</time>
      </trkpt>
      <trkpt lat="36.759684" lon="-2.970311">
        <ele>35.015455</ele>
        <time>2022-11-02T13:27:00.317Z</time>
      </trkpt>
      <trkpt lat="36.759509" lon="-2.970586">
        <ele>35.095380</ele>
        <time>2022-11-02T13:27:04.944Z</time>
      </trkpt>
      <trkpt lat="36.759453" lon="-2.970780">
        <ele>35.142309</ele>
        <time>2022-11-02T13:27:07.693Z</time>
      </trkpt>
      <trkpt lat="36.759441" lon="-2.971050">
        <ele>35.203851</ele>
        <time>2022-11-02T13:27:10.843Z</time>
      </trkpt>
      <trkpt lat="36.759370" lon="-2.972741">
        <ele>34.584411</ele>
        <time>2022-11-02T13:27:28.163Z</time>
      </trkpt>
      <trkpt lat="36.759345" lon="-2.973335">
        <ele>34.201776</ele>
        <time>2022-11-02T13:27:33.955Z</time>
      </trkpt>
      <trkpt lat="36.759332" lon="-2.973634">
        <ele>34.009153</ele>
        <time>2022-11-02T13:27:36.858Z</time>
      </trkpt>
      <trkpt lat="36.759270" lon="-2.975426">
        <ele>32.809557</ele>
        <time>2022-11-02T13:27:55.264Z</time>
      </trkpt>
      <trkpt lat="36.759265" lon="-2.975723">
        <ele>32.609946</ele>
        <time>2022-11-02T13:27:58.239Z</time>
      </trkpt>
      <trkpt lat="36.759245" lon="-2.976106">
        <ele>32.346500</ele>
        <time>2022-11-02T13:28:01.901Z</time>
      </trkpt>
      <trkpt lat="36.759104" lon="-2.976925">
        <ele>31.640646</ele>
        <time>2022-11-02T13:28:09.844Z</time>
      </trkpt>
      <trkpt lat="36.758897" lon="-2.977647">
        <ele>30.994497</ele>
        <time>2022-11-02T13:28:17.521Z</time>
      </trkpt>
      <trkpt lat="36.758825" lon="-2.977860">
        <ele>30.799698</ele>
        <time>2022-11-02T13:28:19.765Z</time>
      </trkpt>
      <trkpt lat="36.758675" lon="-2.978269">
        <ele>30.439339</ele>
        <time>2022-11-02T13:28:24.155Z</time>
      </trkpt>
      <trkpt lat="36.758620" lon="-2.978485">
        <ele>30.306322</ele>
        <time>2022-11-02T13:28:26.434Z</time>
      </trkpt>
      <trkpt lat="36.758591" lon="-2.978677">
        <ele>30.191654</ele>
        <time>2022-11-02T13:28:28.265Z</time>
      </trkpt>
      <trkpt lat="36.758572" lon="-2.978906">
        <ele>30.056537</ele>
        <time>2022-11-02T13:28:30.525Z</time>
      </trkpt>
      <trkpt lat="36.758558" lon="-2.979069">
        <ele>29.960326</ele>
        <time>2022-11-02T13:28:32.089Z</time>
      </trkpt>
      <trkpt lat="36.758539" lon="-2.979297">
        <ele>29.825792</ele>
        <time>2022-11-02T13:28:34.501Z</time>
      </trkpt>
      <trkpt lat="36.758476" lon="-2.980084">
        <ele>29.361609</ele>
        <time>2022-11-02T13:28:42.724Z</time>
      </trkpt>
      <trkpt lat="36.758512" lon="-2.980309">
        <ele>29.226950</ele>
        <time>2022-11-02T13:28:45.421Z</time>
      </trkpt>
      <trkpt lat="36.758519" lon="-2.980358">
        <ele>29.197739</ele>
        <time>2022-11-02T13:28:45.918Z</time>
      </trkpt>
      <trkpt lat="36.758587" lon="-2.980783">
        <ele>28.899672</ele>
        <time>2022-11-02T13:28:50.584Z</time>
      </trkpt>
      <trkpt lat="36.758593" lon="-2.980822">
        <ele>28.871759</ele>
        <time>2022-11-02T13:28:50.966Z</time>
      </trkpt>
      <trkpt lat="36.758742" lon="-2.981131">
        <ele>28.618268</ele>
        <time>2022-11-02T13:28:54.746Z</time>
      </trkpt>
      <trkpt lat="36.758809" lon="-2.981269">
        <ele>28.504851</ele>
        <time>2022-11-02T13:28:56.256Z</time>
      </trkpt>
      <trkpt lat="36.759483" lon="-2.982110">
        <ele>27.668753</ele>
        <time>2022-11-02T13:29:08.001Z</time>
      </trkpt>
      <trkpt lat="36.759865" lon="-2.982552">
        <ele>27.492194</ele>
        <time>2022-11-02T13:29:13.959Z</time>
      </trkpt>
      <trkpt lat="36.759927" lon="-2.982559">
        <ele>27.478437</ele>
        <time>2022-11-02T13:29:14.737Z</time>
      </trkpt>
      <trkpt lat="36.760040" lon="-2.982634">
        <ele>27.450156</ele>
        <time>2022-11-02T13:29:16.325Z</time>
      </trkpt>
      <trkpt lat="36.760114" lon="-2.982840">
        <ele>27.410188</ele>
        <time>2022-11-02T13:29:18.624Z</time>
      </trkpt>
      <trkpt lat="36.760104" lon="-2.982929">
        <ele>27.394277</ele>
        <time>2022-11-02T13:29:19.577Z</time>
      </trkpt>
      <trkpt lat="36.760037" lon="-2.983064">
        <ele>27.366163</ele>
        <time>2022-11-02T13:29:21.384Z</time>
      </trkpt>
      <trkpt lat="36.760017" lon="-2.983089">
        <ele>27.359908</ele>
        <time>2022-11-02T13:29:21.778Z</time>
      </trkpt>
      <trkpt lat="36.759700" lon="-2.983708">
        <ele>27.229846</ele>
        <time>2022-11-02T13:29:31.513Z</time>
      </trkpt>
      <trkpt lat="36.759557" lon="-2.983963">
        <ele>27.310437</ele>
        <time>2022-11-02T13:29:36.297Z</time>
      </trkpt>
      <trkpt lat="36.759247" lon="-2.984518">
        <ele>28.319122</ele>
        <time>2022-11-02T13:29:46.871Z</time>
      </trkpt>
      <trkpt lat="36.759044" lon="-2.984879">
        <ele>28.976675</ele>
        <time>2022-11-02T13:29:54.437Z</time>
      </trkpt>
      <trkpt lat="36.758960" lon="-2.985079">
        <ele>29.313342</ele>
        <time>2022-11-02T13:29:58.807Z</time>
      </trkpt>
      <trkpt lat="36.758662" lon="-2.985775">
        <ele>30.489890</ele>
        <time>2022-11-02T13:30:15.964Z</time>
      </trkpt>
      <trkpt lat="36.758459" lon="-2.986215">
        <ele>30.740539</ele>
        <time>2022-11-02T13:30:25.906Z</time>
      </trkpt>
      <trkpt lat="36.758058" lon="-2.986851">
        <ele>31.087407</ele>
        <time>2022-11-02T13:30:37.807Z</time>
      </trkpt>
      <trkpt lat="36.757979" lon="-2.987030">
        <ele>31.174995</ele>
        <time>2022-11-02T13:30:40.467Z</time>
      </trkpt>
      <trkpt lat="36.757808" lon="-2.987244">
        <ele>31.304533</ele>
        <time>2022-11-02T13:30:43.585Z</time>
      </trkpt>
      <trkpt lat="36.757729" lon="-2.987309">
        <ele>31.355150</ele>
        <time>2022-11-02T13:30:44.863Z</time>
      </trkpt>
      <trkpt lat="36.757688" lon="-2.987278">
        <ele>31.380793</ele>
        <time>2022-11-02T13:30:45.440Z</time>
      </trkpt>
      <trkpt lat="36.757514" lon="-2.987317">
        <ele>31.475364</ele>
        <time>2022-11-02T13:30:47.465Z</time>
      </trkpt>
      <trkpt lat="36.757378" lon="-2.987341">
        <ele>31.151875</ele>
        <time>2022-11-02T13:30:49.163Z</time>
      </trkpt>
      <trkpt lat="36.757166" lon="-2.987380">
        <ele>30.363514</ele>
        <time>2022-11-02T13:30:51.513Z</time>
      </trkpt>
      <trkpt lat="36.756862" lon="-2.987432">
        <ele>29.234662</ele>
        <time>2022-11-02T13:30:54.768Z</time>
      </trkpt>
      <trkpt lat="36.756657" lon="-2.987464">
        <ele>28.474603</ele>
        <time>2022-11-02T13:30:56.897Z</time>
      </trkpt>
      <trkpt lat="36.756183" lon="-2.987529">
        <ele>26.720292</ele>
        <time>2022-11-02T13:31:01.462Z</time>
      </trkpt>
      <trkpt lat="36.755933" lon="-2.987564">
        <ele>25.794788</ele>
        <time>2022-11-02T13:31:03.821Z</time>
      </trkpt>
      <trkpt lat="36.755666" lon="-2.987601">
        <ele>24.773629</ele>
        <time>2022-11-02T13:31:06.300Z</time>
      </trkpt>
      <trkpt lat="36.755418" lon="-2.987636">
        <ele>23.452599</ele>
        <time>2022-11-02T13:31:08.625Z</time>
      </trkpt>
      <trkpt lat="36.755178" lon="-2.987669">
        <ele>22.174593</ele>
        <time>2022-11-02T13:31:10.813Z</time>
      </trkpt>
      <trkpt lat="36.754927" lon="-2.987704">
        <ele>20.837783</ele>
        <time>2022-11-02T13:31:13.161Z</time>
      </trkpt>
      <trkpt lat="36.754660" lon="-2.987741">
        <ele>19.415867</ele>
        <time>2022-11-02T13:31:15.628Z</time>
      </trkpt>
      <trkpt lat="36.754523" lon="-2.987767">
        <ele>18.682391</ele>
        <time>2022-11-02T13:31:16.920Z</time>
      </trkpt>
      <trkpt lat="36.754339" lon="-2.987786">
        <ele>17.705151</ele>
        <time>2022-11-02T13:31:18.648Z</time>
      </trkpt>
      <trkpt lat="36.754133" lon="-2.987803">
        <ele>16.612411</ele>
        <time>2022-11-02T13:31:20.597Z</time>
      </trkpt>
      <trkpt lat="36.753863" lon="-2.987920">
        <ele>15.231820</ele>
        <time>2022-11-02T13:31:23.371Z</time>
      </trkpt>
      <trkpt lat="36.753717" lon="-2.988047">
        <ele>14.766086</ele>
        <time>2022-11-02T13:31:25.060Z</time>
      </trkpt>
      <trkpt lat="36.753638" lon="-2.988123">
        <ele>14.505049</ele>
        <time>2022-11-02T13:31:26.080Z</time>
      </trkpt>
      <trkpt lat="36.753512" lon="-2.988119">
        <ele>14.175193</ele>
        <time>2022-11-02T13:31:27.306Z</time>
      </trkpt>
      <trkpt lat="36.753324" lon="-2.988216">
        <ele>13.642801</ele>
        <time>2022-11-02T13:31:29.329Z</time>
      </trkpt>
      <trkpt lat="36.753163" lon="-2.988387">
        <ele>13.089538</ele>
        <time>2022-11-02T13:31:31.417Z</time>
      </trkpt>
      <trkpt lat="36.752981" lon="-2.988691">
        <ele>12.293800</ele>
        <time>2022-11-02T13:31:34.603Z</time>
      </trkpt>
      <trkpt lat="36.752574" lon="-2.989593">
        <ele>10.676415</ele>
        <time>2022-11-02T13:31:44.877Z</time>
      </trkpt>
      <trkpt lat="36.752398" lon="-2.990109">
        <ele>10.726183</ele>
        <time>2022-11-02T13:31:51.909Z</time>
      </trkpt>
      <trkpt lat="36.751884" lon="-2.991827">
        <ele>11.137359</ele>
        <time>2022-11-02T13:32:15.750Z</time>
      </trkpt>
      <trkpt lat="36.751550" lon="-2.992974">
        <ele>11.998045</ele>
        <time>2022-11-02T13:32:34.238Z</time>
      </trkpt>
      <trkpt lat="36.751522" lon="-2.993499">
        <ele>12.369121</ele>
        <time>2022-11-02T13:32:42.276Z</time>
      </trkpt>
      <trkpt lat="36.751418" lon="-2.993682">
        <ele>12.576969</ele>
        <time>2022-11-02T13:32:45.626Z</time>
      </trkpt>
      <trkpt lat="36.751120" lon="-2.993947">
        <ele>13.074620</ele>
        <time>2022-11-02T13:32:52.717Z</time>
      </trkpt>
      <trkpt lat="36.750433" lon="-2.995223">
        <ele>14.749885</ele>
        <time>2022-11-02T13:33:18.866Z</time>
      </trkpt>
      <trkpt lat="36.749801" lon="-2.996211">
        <ele>15.170291</ele>
        <time>2022-11-02T13:33:38.010Z</time>
      </trkpt>
      <trkpt lat="36.747848" lon="-2.999258">
        <ele>14.063189</ele>
        <time>2022-11-02T13:34:19.388Z</time>
      </trkpt>
      <trkpt lat="36.747765" lon="-2.999471">
        <ele>13.883176</ele>
        <time>2022-11-02T13:34:21.638Z</time>
      </trkpt>
      <trkpt lat="36.747773" lon="-2.999851">
        <ele>13.594267</ele>
        <time>2022-11-02T13:34:25.101Z</time>
      </trkpt>
      <trkpt lat="36.747807" lon="-2.999983">
        <ele>13.488888</ele>
        <time>2022-11-02T13:34:26.475Z</time>
      </trkpt>
      <trkpt lat="36.747741" lon="-3.000140">
        <ele>13.354139</ele>
        <time>2022-11-02T13:34:28.082Z</time>
      </trkpt>
      <trkpt lat="36.747651" lon="-3.000552">
        <ele>13.029581</ele>
        <time>2022-11-02T13:34:32.070Z</time>
      </trkpt>
      <trkpt lat="36.748080" lon="-3.003360">
        <ele>12.114475</ele>
        <time>2022-11-02T13:35:02.573Z</time>
      </trkpt>
      <trkpt lat="36.748118" lon="-3.003605">
        <ele>12.247910</ele>
        <time>2022-11-02T13:35:06.010Z</time>
      </trkpt>
      <trkpt lat="36.748135" lon="-3.003730">
        <ele>12.315705</ele>
        <time>2022-11-02T13:35:07.746Z</time>
      </trkpt>
      <trkpt lat="36.748546" lon="-3.006442">
        <ele>13.762497</ele>
        <time>2022-11-02T13:35:49.336Z</time>
      </trkpt>
      <trkpt lat="36.748703" lon="-3.007052">
        <ele>14.089253</ele>
        <time>2022-11-02T13:35:58.175Z</time>
      </trkpt>
      <trkpt lat="36.748759" lon="-3.007083">
        <ele>14.128246</ele>
        <time>2022-11-02T13:35:59.194Z</time>
      </trkpt>
      <trkpt lat="36.748768" lon="-3.007092">
        <ele>14.135586</ele>
        <time>2022-11-02T13:35:59.366Z</time>
      </trkpt>
      <trkpt lat="36.748803" lon="-3.007227">
        <ele>14.207951</ele>
        <time>2022-11-02T13:36:01.137Z</time>
      </trkpt>
      <trkpt lat="36.748789" lon="-3.007274">
        <ele>14.233523</ele>
        <time>2022-11-02T13:36:01.761Z</time>
      </trkpt>
      <trkpt lat="36.748739" lon="-3.007333">
        <ele>14.277321</ele>
        <time>2022-11-02T13:36:02.792Z</time>
      </trkpt>
      <trkpt lat="36.748727" lon="-3.007638">
        <ele>14.211813</ele>
        <time>2022-11-02T13:36:06.322Z</time>
      </trkpt>
      <trkpt lat="36.748810" lon="-3.008129">
        <ele>14.015960</ele>
        <time>2022-11-02T13:36:11.877Z</time>
      </trkpt>
      <trkpt lat="36.748875" lon="-3.008570">
        <ele>13.840951</ele>
        <time>2022-11-02T13:36:16.637Z</time>
      </trkpt>
      <trkpt lat="36.749004" lon="-3.009453">
        <ele>13.490639</ele>
        <time>2022-11-02T13:36:25.671Z</time>
      </trkpt>
      <trkpt lat="36.749024" lon="-3.009591">
        <ele>13.435905</ele>
        <time>2022-11-02T13:36:27.067Z</time>
      </trkpt>
      <trkpt lat="36.749106" lon="-3.010162">
        <ele>13.192547</ele>
        <time>2022-11-02T13:36:33.007Z</time>
      </trkpt>
      <trkpt lat="36.749152" lon="-3.010473">
        <ele>13.059696</ele>
        <time>2022-11-02T13:36:36.220Z</time>
      </trkpt>
      <trkpt lat="36.749202" lon="-3.010824">
        <ele>12.909938</ele>
        <time>2022-11-02T13:36:39.842Z</time>
      </trkpt>
      <trkpt lat="36.749243" lon="-3.011064">
        <ele>12.806854</ele>
        <time>2022-11-02T13:36:42.450Z</time>
      </trkpt>
      <trkpt lat="36.749262" lon="-3.011176">
        <ele>12.758763</ele>
        <time>2022-11-02T13:36:43.660Z</time>
      </trkpt>
      <trkpt lat="36.749313" lon="-3.011497">
        <ele>12.621293</ele>
        <time>2022-11-02T13:36:47.315Z</time>
      </trkpt>
      <trkpt lat="36.749394" lon="-3.012003">
        <ele>12.448162</ele>
        <time>2022-11-02T13:36:53.286Z</time>
      </trkpt>
      <trkpt lat="36.749454" lon="-3.012675">
        <ele>12.311458</ele>
        <time>2022-11-02T13:37:01.017Z</time>
      </trkpt>
      <trkpt lat="36.749347" lon="-3.013392">
        <ele>12.164004</ele>
        <time>2022-11-02T13:37:09.663Z</time>
      </trkpt>
      <trkpt lat="36.749304" lon="-3.013518">
        <ele>12.136315</ele>
        <time>2022-11-02T13:37:11.278Z</time>
      </trkpt>
      <trkpt lat="36.748970" lon="-3.014576">
        <ele>11.499597</ele>
        <time>2022-11-02T13:37:22.992Z</time>
      </trkpt>
      <trkpt lat="36.748887" lon="-3.014892">
        <ele>11.219335</ele>
        <time>2022-11-02T13:37:26.214Z</time>
      </trkpt>
      <trkpt lat="36.748833" lon="-3.015100">
        <ele>11.035064</ele>
        <time>2022-11-02T13:37:28.287Z</time>
      </trkpt>
      <trkpt lat="36.748747" lon="-3.015427">
        <ele>10.745009</ele>
        <time>2022-11-02T13:37:31.577Z</time>
      </trkpt>
      <trkpt lat="36.748680" lon="-3.015737">
        <ele>10.474410</ele>
        <time>2022-11-02T13:37:34.552Z</time>
      </trkpt>
      <trkpt lat="36.748605" lon="-3.016417">
        <ele>9.974984</ele>
        <time>2022-11-02T13:37:40.999Z</time>
      </trkpt>
      <trkpt lat="36.748554" lon="-3.016866">
        <ele>9.715115</ele>
        <time>2022-11-02T13:37:45.372Z</time>
      </trkpt>
      <trkpt lat="36.748351" lon="-3.017874">
        <ele>9.119519</ele>
        <time>2022-11-02T13:37:56.046Z</time>
      </trkpt>
      <trkpt lat="36.748291" lon="-3.018118">
        <ele>8.973259</ele>
        <time>2022-11-02T13:37:59.021Z</time>
      </trkpt>
      <trkpt lat="36.748266" lon="-3.018217">
        <ele>8.913776</ele>
        <time>2022-11-02T13:38:00.193Z</time>
      </trkpt>
      <trkpt lat="36.748053" lon="-3.019120">
        <ele>8.715930</ele>
        <time>2022-11-02T13:38:11.506Z</time>
      </trkpt>
      <trkpt lat="36.748048" lon="-3.019439">
        <ele>8.662589</ele>
        <time>2022-11-02T13:38:15.362Z</time>
      </trkpt>
      <trkpt lat="36.748148" lon="-3.019880">
        <ele>8.585967</ele>
        <time>2022-11-02T13:38:20.641Z</time>
      </trkpt>
      <trkpt lat="36.748231" lon="-3.020244">
        <ele>8.522697</ele>
        <time>2022-11-02T13:38:24.825Z</time>
      </trkpt>
      <trkpt lat="36.748274" lon="-3.020442">
        <ele>8.488401</ele>
        <time>2022-11-02T13:38:26.987Z</time>
      </trkpt>
      <trkpt lat="36.748298" lon="-3.020739">
        <ele>8.289645</ele>
        <time>2022-11-02T13:38:30.058Z</time>
      </trkpt>
      <trkpt lat="36.748090" lon="-3.022303">
        <ele>7.103969</ele>
        <time>2022-11-02T13:38:45.389Z</time>
      </trkpt>
      <trkpt lat="36.747965" lon="-3.022743">
        <ele>6.770299</ele>
        <time>2022-11-02T13:38:49.992Z</time>
      </trkpt>
      <trkpt lat="36.748000" lon="-3.022797">
        <ele>6.735182</ele>
        <time>2022-11-02T13:38:50.760Z</time>
      </trkpt>
      <trkpt lat="36.748010" lon="-3.022904">
        <ele>6.680715</ele>
        <time>2022-11-02T13:38:51.807Z</time>
      </trkpt>
      <trkpt lat="36.747964" lon="-3.022995">
        <ele>6.626314</ele>
        <time>2022-11-02T13:38:52.825Z</time>
      </trkpt>
      <trkpt lat="36.747964" lon="-3.023451">
        <ele>6.395757</ele>
        <time>2022-11-02T13:38:57.361Z</time>
      </trkpt>
      <trkpt lat="36.747900" lon="-3.023958">
        <ele>6.136252</ele>
        <time>2022-11-02T13:39:02.547Z</time>
      </trkpt>
      <trkpt lat="36.747831" lon="-3.024484">
        <ele>5.866762</ele>
        <time>2022-11-02T13:39:08.141Z</time>
      </trkpt>
      <trkpt lat="36.747748" lon="-3.025119">
        <ele>5.700085</ele>
        <time>2022-11-02T13:39:15.751Z</time>
      </trkpt>
      <trkpt lat="36.747638" lon="-3.025964">
        <ele>5.811453</ele>
        <time>2022-11-02T13:39:26.195Z</time>
      </trkpt>
      <trkpt lat="36.747476" lon="-3.027195">
        <ele>5.990739</ele>
        <time>2022-11-02T13:39:42.173Z</time>
      </trkpt>
      <trkpt lat="36.747408" lon="-3.027613">
        <ele>6.113120</ele>
        <time>2022-11-02T13:39:48.036Z</time>
      </trkpt>
      <trkpt lat="36.747422" lon="-3.027767">
        <ele>6.157589</ele>
        <time>2022-11-02T13:39:50.273Z</time>
      </trkpt>
      <trkpt lat="36.747320" lon="-3.027856">
        <ele>6.202155</ele>
        <time>2022-11-02T13:39:52.391Z</time>
      </trkpt>
      <trkpt lat="36.747432" lon="-3.030063">
        <ele>6.527644</ele>
        <time>2022-11-02T13:40:20.754Z</time>
      </trkpt>
      <trkpt lat="36.747504" lon="-3.030601">
        <ele>6.476551</ele>
        <time>2022-11-02T13:40:26.601Z</time>
      </trkpt>
      <trkpt lat="36.747638" lon="-3.031702">
        <ele>6.469528</ele>
        <time>2022-11-02T13:40:38.678Z</time>
      </trkpt>
      <trkpt lat="36.747655" lon="-3.031828">
        <ele>6.512491</ele>
        <time>2022-11-02T13:40:40.146Z</time>
      </trkpt>
      <trkpt lat="36.747669" lon="-3.031947">
        <ele>6.552932</ele>
        <time>2022-11-02T13:40:41.556Z</time>
      </trkpt>
      <trkpt lat="36.747690" lon="-3.032110">
        <ele>6.608443</ele>
        <time>2022-11-02T13:40:43.430Z</time>
      </trkpt>
      <trkpt lat="36.747770" lon="-3.032729">
        <ele>6.819264</ele>
        <time>2022-11-02T13:40:51.181Z</time>
      </trkpt>
      <trkpt lat="36.747812" lon="-3.033135">
        <ele>6.956909</ele>
        <time>2022-11-02T13:40:56.739Z</time>
      </trkpt>
      <trkpt lat="36.748010" lon="-3.034595">
        <ele>7.603888</ele>
        <time>2022-11-02T13:41:20.690Z</time>
      </trkpt>
      <trkpt lat="36.747934" lon="-3.036358">
        <ele>8.069038</ele>
        <time>2022-11-02T13:41:43.172Z</time>
      </trkpt>
      <trkpt lat="36.747845" lon="-3.037530">
        <ele>7.522342</ele>
        <time>2022-11-02T13:41:54.331Z</time>
      </trkpt>
      <trkpt lat="36.747778" lon="-3.038406">
        <ele>7.515929</ele>
        <time>2022-11-02T13:42:03.465Z</time>
      </trkpt>
      <trkpt lat="36.747734" lon="-3.038933">
        <ele>8.139076</ele>
        <time>2022-11-02T13:42:11.452Z</time>
      </trkpt>
      <trkpt lat="36.747646" lon="-3.039981">
        <ele>9.378354</ele>
        <time>2022-11-02T13:42:28.778Z</time>
      </trkpt>
      <trkpt lat="36.747805" lon="-3.040041">
        <ele>9.622161</ele>
        <time>2022-11-02T13:42:34.368Z</time>
      </trkpt>
      <trkpt lat="36.748017" lon="-3.040035">
        <ele>10.056886</ele>
        <time>2022-11-02T13:42:38.996Z</time>
      </trkpt>
      <trkpt lat="36.748076" lon="-3.039885">
        <ele>10.621718</ele>
        <time>2022-11-02T13:42:43.928Z</time>
      </trkpt>
      <trkpt lat="36.747842" lon="-3.039472">
        <ele>12.331512</ele>
        <time>2022-11-02T13:42:55.867Z</time>
      </trkpt>
      <trkpt lat="36.747814" lon="-3.039352">
        <ele>12.753991</ele>
        <time>2022-11-02T13:42:58.003Z</time>
      </trkpt>
      <trkpt lat="36.747855" lon="-3.039112">
        <ele>13.583485</ele>
        <time>2022-11-02T13:43:04.810Z</time>
      </trkpt>
      <trkpt lat="36.747947" lon="-3.038897">
        <ele>14.407378</ele>
        <time>2022-11-02T13:43:10.671Z</time>
      </trkpt>
      <trkpt lat="36.748043" lon="-3.038805">
        <ele>14.917988</ele>
        <time>2022-11-02T13:43:15.718Z</time>
      </trkpt>
      <trkpt lat="36.748158" lon="-3.038777">
        <ele>15.412272</ele>
        <time>2022-11-02T13:43:20.612Z</time>
      </trkpt>
      <trkpt lat="36.748275" lon="-3.038886">
        <ele>16.028200</ele>
        <time>2022-11-02T13:43:25.401Z</time>
      </trkpt>
      <trkpt lat="36.748531" lon="-3.039461">
        <ele>18.651038</ele>
        <time>2022-11-02T13:43:41.493Z</time>
      </trkpt>
      <trkpt lat="36.748774" lon="-3.039763">
        <ele>20.823076</ele>
        <time>2022-11-02T13:43:54.435Z</time>
      </trkpt>
      <trkpt lat="36.748887" lon="-3.040176">
        <ele>23.037857</ele>
        <time>2022-11-02T13:44:09.241Z</time>
      </trkpt>
      <trkpt lat="36.748974" lon="-3.040273">
        <ele>23.776750</ele>
        <time>2022-11-02T13:44:14.804Z</time>
      </trkpt>
      <trkpt lat="36.749162" lon="-3.040357">
        <ele>25.041488</ele>
        <time>2022-11-02T13:44:23.346Z</time>
      </trkpt>
      <trkpt lat="36.749251" lon="-3.040837">
        <ele>27.541823</ele>
        <time>2022-11-02T13:44:40.489Z</time>
      </trkpt>
      <trkpt lat="36.749595" lon="-3.041301">
        <ele>30.822115</ele>
        <time>2022-11-02T13:45:01.670Z</time>
      </trkpt>
      <trkpt lat="36.749784" lon="-3.041457">
        <ele>32.311733</ele>
        <time>2022-11-02T13:45:10.889Z</time>
      </trkpt>
      <trkpt lat="36.750379" lon="-3.041558">
        <ele>36.259242</ele>
        <time>2022-11-02T13:45:33.730Z</time>
      </trkpt>
      <trkpt lat="36.750521" lon="-3.041650">
        <ele>37.311030</ele>
        <time>2022-11-02T13:45:39.370Z</time>
      </trkpt>
      <trkpt lat="36.750540" lon="-3.041840">
        <ele>38.319592</ele>
        <time>2022-11-02T13:45:49.014Z</time>
      </trkpt>
      <trkpt lat="36.750286" lon="-3.042041">
        <ele>40.296737</ele>
        <time>2022-11-02T13:46:03.107Z</time>
      </trkpt>
      <trkpt lat="36.750211" lon="-3.042196">
        <ele>41.190316</ele>
        <time>2022-11-02T13:46:07.046Z</time>
      </trkpt>
      <trkpt lat="36.750185" lon="-3.042542">
        <ele>42.830564</ele>
        <time>2022-11-02T13:46:18.845Z</time>
      </trkpt>
      <trkpt lat="36.750104" lon="-3.042925">
        <ele>44.700193</ele>
        <time>2022-11-02T13:46:30.459Z</time>
      </trkpt>
      <trkpt lat="36.749970" lon="-3.043180">
        <ele>46.139519</ele>
        <time>2022-11-02T13:46:36.344Z</time>
      </trkpt>
      <trkpt lat="36.749993" lon="-3.043233">
        <ele>46.424007</ele>
        <time>2022-11-02T13:46:41.463Z</time>
      </trkpt>
      <trkpt lat="36.750451" lon="-3.043338">
        <ele>49.167063</ele>
        <time>2022-11-02T13:46:58.107Z</time>
      </trkpt>
      <trkpt lat="36.750914" lon="-3.042827">
        <ele>53.137010</ele>
        <time>2022-11-02T13:47:21.535Z</time>
      </trkpt>
      <trkpt lat="36.751100" lon="-3.042730">
        <ele>54.578050</ele>
        <time>2022-11-02T13:47:26.591Z</time>
      </trkpt>
      <trkpt lat="36.751186" lon="-3.042742">
        <ele>55.196655</ele>
        <time>2022-11-02T13:47:29.731Z</time>
      </trkpt>
      <trkpt lat="36.751334" lon="-3.042907">
        <ele>56.615279</ele>
        <time>2022-11-02T13:47:42.045Z</time>
      </trkpt>
      <trkpt lat="36.751455" lon="-3.043479">
        <ele>60.003781</ele>
        <time>2022-11-02T13:48:02.042Z</time>
      </trkpt>
      <trkpt lat="36.751340" lon="-3.044077">
        <ele>63.526218</ele>
        <time>2022-11-02T13:48:25.179Z</time>
      </trkpt>
      <trkpt lat="36.751441" lon="-3.044275">
        <ele>64.974405</ele>
        <time>2022-11-02T13:48:34.519Z</time>
      </trkpt>
      <trkpt lat="36.751808" lon="-3.044400">
        <ele>68.071996</ele>
        <time>2022-11-02T13:48:53.101Z</time>
      </trkpt>
      <trkpt lat="36.752805" lon="-3.044265">
        <ele>76.237744</ele>
        <time>2022-11-02T13:49:40.463Z</time>
      </trkpt>
      <trkpt lat="36.752860" lon="-3.044319">
        <ele>76.807545</ele>
        <time>2022-11-02T13:49:44.254Z</time>
      </trkpt>
      <trkpt lat="36.752854" lon="-3.044496">
        <ele>77.963326</ele>
        <time>2022-11-02T13:49:51.557Z</time>
      </trkpt>
      <trkpt lat="36.752616" lon="-3.044802">
        <ele>80.364344</ele>
        <time>2022-11-02T13:50:07.482Z</time>
      </trkpt>
      <trkpt lat="36.752618" lon="-3.044883">
        <ele>80.791025</ele>
        <time>2022-11-02T13:50:09.881Z</time>
      </trkpt>
      <trkpt lat="36.752726" lon="-3.044987">
        <ele>81.687423</ele>
        <time>2022-11-02T13:50:15.741Z</time>
      </trkpt>
      <trkpt lat="36.752922" lon="-3.044974">
        <ele>82.977233</ele>
        <time>2022-11-02T13:50:23.774Z</time>
      </trkpt>
      <trkpt lat="36.753169" lon="-3.045082">
        <ele>84.697089</ele>
        <time>2022-11-02T13:50:34.527Z</time>
      </trkpt>
      <trkpt lat="36.753293" lon="-3.045081">
        <ele>85.511958</ele>
        <time>2022-11-02T13:50:38.713Z</time>
      </trkpt>
      <trkpt lat="36.753705" lon="-3.044846">
        <ele>88.488700</ele>
        <time>2022-11-02T13:50:55.468Z</time>
      </trkpt>
      <trkpt lat="36.753829" lon="-3.044827">
        <ele>89.309669</ele>
        <time>2022-11-02T13:51:01.254Z</time>
      </trkpt>
      <trkpt lat="36.753874" lon="-3.044885">
        <ele>89.734757</ele>
        <time>2022-11-02T13:51:03.519Z</time>
      </trkpt>
      <trkpt lat="36.753901" lon="-3.045078">
        <ele>90.769956</ele>
        <time>2022-11-02T13:51:09.116Z</time>
      </trkpt>
      <trkpt lat="36.753979" lon="-3.045195">
        <ele>91.587928</ele>
        <time>2022-11-02T13:51:15.289Z</time>
      </trkpt>
      <trkpt lat="36.754155" lon="-3.045310">
        <ele>92.920437</ele>
        <time>2022-11-02T13:51:22.639Z</time>
      </trkpt>
      <trkpt lat="36.754258" lon="-3.045239">
        <ele>93.709674</ele>
        <time>2022-11-02T13:51:27.978Z</time>
      </trkpt>
      <trkpt lat="36.754402" lon="-3.044968">
        <ele>95.457236</ele>
        <time>2022-11-02T13:51:37.726Z</time>
      </trkpt>
      <trkpt lat="36.754544" lon="-3.044962">
        <ele>96.410246</ele>
        <time>2022-11-02T13:51:44.453Z</time>
      </trkpt>
      <trkpt lat="36.754745" lon="-3.045041">
        <ele>97.823720</ele>
        <time>2022-11-02T13:51:52.148Z</time>
      </trkpt>
      <trkpt lat="36.754858" lon="-3.045202">
        <ele>98.973980</ele>
        <time>2022-11-02T13:52:00.581Z</time>
      </trkpt>
      <trkpt lat="36.754844" lon="-3.045818">
        <ele>102.285738</ele>
        <time>2022-11-02T13:52:24.697Z</time>
      </trkpt>
      <trkpt lat="36.755073" lon="-3.046050">
        <ele>103.921718</ele>
        <time>2022-11-02T13:52:35.600Z</time>
      </trkpt>
      <trkpt lat="36.755271" lon="-3.046071">
        <ele>104.971213</ele>
        <time>2022-11-02T13:52:41.954Z</time>
      </trkpt>
      <trkpt lat="36.755578" lon="-3.046214">
        <ele>106.701850</ele>
        <time>2022-11-02T13:52:53.449Z</time>
      </trkpt>
      <trkpt lat="36.755639" lon="-3.046327">
        <ele>107.278414</ele>
        <time>2022-11-02T13:52:56.292Z</time>
      </trkpt>
      <trkpt lat="36.755632" lon="-3.046492">
        <ele>107.977584</ele>
        <time>2022-11-02T13:53:02.620Z</time>
      </trkpt>
      <trkpt lat="36.755349" lon="-3.046908">
        <ele>110.286830</ele>
        <time>2022-11-02T13:53:15.605Z</time>
      </trkpt>
      <trkpt lat="36.755100" lon="-3.047034">
        <ele>111.705881</ele>
        <time>2022-11-02T13:53:25.706Z</time>
      </trkpt>
      <trkpt lat="36.754978" lon="-3.047177">
        <ele>112.767776</ele>
        <time>2022-11-02T13:53:29.652Z</time>
      </trkpt>
      <trkpt lat="36.754941" lon="-3.047345">
        <ele>113.805580</ele>
        <time>2022-11-02T13:53:35.514Z</time>
      </trkpt>
      <trkpt lat="36.755049" lon="-3.047606">
        <ele>115.555315</ele>
        <time>2022-11-02T13:53:43.624Z</time>
      </trkpt>
      <trkpt lat="36.755231" lon="-3.047623">
        <ele>116.912161</ele>
        <time>2022-11-02T13:53:52.752Z</time>
      </trkpt>
      <trkpt lat="36.755325" lon="-3.047690">
        <ele>117.716920</ele>
        <time>2022-11-02T13:53:55.911Z</time>
      </trkpt>
      <trkpt lat="36.755369" lon="-3.048006">
        <ele>119.627367</ele>
        <time>2022-11-02T13:54:05.546Z</time>
      </trkpt>
      <trkpt lat="36.755450" lon="-3.048107">
        <ele>120.478573</ele>
        <time>2022-11-02T13:54:10.151Z</time>
      </trkpt>
      <trkpt lat="36.755588" lon="-3.048128">
        <ele>121.512118</ele>
        <time>2022-11-02T13:54:16.947Z</time>
      </trkpt>
      <trkpt lat="36.755750" lon="-3.048035">
        <ele>122.837779</ele>
        <time>2022-11-02T13:54:25.633Z</time>
      </trkpt>
      <trkpt lat="36.755895" lon="-3.048065">
        <ele>123.930478</ele>
        <time>2022-11-02T13:54:33.565Z</time>
      </trkpt>
      <trkpt lat="36.756559" lon="-3.048553">
        <ele>132.349676</ele>
        <time>2022-11-02T13:55:22.081Z</time>
      </trkpt>
      <trkpt lat="36.756849" lon="-3.048700">
        <ele>136.191130</ele>
        <time>2022-11-02T13:55:43.858Z</time>
      </trkpt>
      <trkpt lat="36.757613" lon="-3.049476">
        <ele>148.145823</ele>
        <time>2022-11-02T13:56:49.086Z</time>
      </trkpt>
      <trkpt lat="36.757809" lon="-3.049587">
        <ele>150.266548</ele>
        <time>2022-11-02T13:57:02.385Z</time>
      </trkpt>
      <trkpt lat="36.758038" lon="-3.049592">
        <ele>152.523282</ele>
        <time>2022-11-02T13:57:16.223Z</time>
      </trkpt>
      <trkpt lat="36.758396" lon="-3.049974">
        <ele>157.164020</ele>
        <time>2022-11-02T13:57:41.570Z</time>
      </trkpt>
      <trkpt lat="36.758761" lon="-3.050182">
        <ele>161.117542</ele>
        <time>2022-11-02T13:58:01.353Z</time>
      </trkpt>
      <trkpt lat="36.759012" lon="-3.050458">
        <ele>164.413521</ele>
        <time>2022-11-02T13:58:16.724Z</time>
      </trkpt>
      <trkpt lat="36.759245" lon="-3.050514">
        <ele>166.397327</ele>
        <time>2022-11-02T13:58:27.372Z</time>
      </trkpt>
      <trkpt lat="36.759734" lon="-3.050854">
        <ele>170.546090</ele>
        <time>2022-11-02T13:58:56.837Z</time>
      </trkpt>
      <trkpt lat="36.759942" lon="-3.051114">
        <ele>172.727897</ele>
        <time>2022-11-02T13:59:13.040Z</time>
      </trkpt>
      <trkpt lat="36.760060" lon="-3.051165">
        <ele>173.653439</ele>
        <time>2022-11-02T13:59:17.453Z</time>
      </trkpt>
      <trkpt lat="36.760237" lon="-3.051098">
        <ele>175.024331</ele>
        <time>2022-11-02T13:59:27.225Z</time>
      </trkpt>
      <trkpt lat="36.760599" lon="-3.050681">
        <ele>178.659347</ele>
        <time>2022-11-02T13:59:41.778Z</time>
      </trkpt>
      <trkpt lat="36.760691" lon="-3.050677">
        <ele>178.845214</ele>
        <time>2022-11-02T13:59:49.828Z</time>
      </trkpt>
      <trkpt lat="36.760835" lon="-3.050833">
        <ele>179.230193</ele>
        <time>2022-11-02T13:59:53.272Z</time>
      </trkpt>
      <trkpt lat="36.760872" lon="-3.051002">
        <ele>179.513585</ele>
        <time>2022-11-02T13:59:56.900Z</time>
      </trkpt>
      <trkpt lat="36.760579" lon="-3.051639">
        <ele>180.701725</ele>
        <time>2022-11-02T14:00:10.103Z</time>
      </trkpt>
      <trkpt lat="36.760304" lon="-3.051927">
        <ele>181.426516</ele>
        <time>2022-11-02T14:00:17.028Z</time>
      </trkpt>
      <trkpt lat="36.760188" lon="-3.052153">
        <ele>181.860680</ele>
        <time>2022-11-02T14:00:22.318Z</time>
      </trkpt>
      <trkpt lat="36.760000" lon="-3.052280">
        <ele>182.294524</ele>
        <time>2022-11-02T14:00:24.353Z</time>
      </trkpt>
      <trkpt lat="36.759794" lon="-3.052237">
        <ele>182.844350</ele>
        <time>2022-11-02T14:00:26.963Z</time>
      </trkpt>
      <trkpt lat="36.759562" lon="-3.052364">
        <ele>183.511243</ele>
        <time>2022-11-02T14:00:32.936Z</time>
      </trkpt>
      <trkpt lat="36.759189" lon="-3.052173">
        <ele>184.572583</ele>
        <time>2022-11-02T14:00:41.328Z</time>
      </trkpt>
      <trkpt lat="36.758896" lon="-3.052102">
        <ele>185.358307</ele>
        <time>2022-11-02T14:00:49.778Z</time>
      </trkpt>
      <trkpt lat="36.758755" lon="-3.052119">
        <ele>185.731217</ele>
        <time>2022-11-02T14:00:52.468Z</time>
      </trkpt>
      <trkpt lat="36.758682" lon="-3.052200">
        <ele>185.988345</ele>
        <time>2022-11-02T14:00:54.384Z</time>
      </trkpt>
      <trkpt lat="36.758699" lon="-3.052360">
        <ele>186.328749</ele>
        <time>2022-11-02T14:01:01.451Z</time>
      </trkpt>
      <trkpt lat="36.758477" lon="-3.052856">
        <ele>188.626203</ele>
        <time>2022-11-02T14:01:17.426Z</time>
      </trkpt>
      <trkpt lat="36.758904" lon="-3.053596">
        <ele>194.718182</ele>
        <time>2022-11-02T14:01:48.189Z</time>
      </trkpt>
      <trkpt lat="36.758974" lon="-3.053971">
        <ele>197.290318</ele>
        <time>2022-11-02T14:02:04.412Z</time>
      </trkpt>
      <trkpt lat="36.758802" lon="-3.054353">
        <ele>200.217512</ele>
        <time>2022-11-02T14:02:21.674Z</time>
      </trkpt>
      <trkpt lat="36.759084" lon="-3.054687">
        <ele>204.357992</ele>
        <time>2022-11-02T14:02:47.541Z</time>
      </trkpt>
      <trkpt lat="36.759535" lon="-3.054812">
        <ele>210.611879</ele>
        <time>2022-11-02T14:03:19.014Z</time>
      </trkpt>
      <trkpt lat="36.759666" lon="-3.054791">
        <ele>212.399790</ele>
        <time>2022-11-02T14:03:29.045Z</time>
      </trkpt>
      <trkpt lat="36.759929" lon="-3.054610">
        <ele>216.465319</ele>
        <time>2022-11-02T14:03:49.659Z</time>
      </trkpt>
      <trkpt lat="36.760037" lon="-3.054623">
        <ele>217.934097</ele>
        <time>2022-11-02T14:03:58.291Z</time>
      </trkpt>
      <trkpt lat="36.760448" lon="-3.054867">
        <ele>224.095042</ele>
        <time>2022-11-02T14:04:30.559Z</time>
      </trkpt>
      <trkpt lat="36.760846" lon="-3.055237">
        <ele>229.983162</ele>
        <time>2022-11-02T14:05:06.485Z</time>
      </trkpt>
      <trkpt lat="36.761149" lon="-3.055397">
        <ele>233.605980</ele>
        <time>2022-11-02T14:05:30.349Z</time>
      </trkpt>
      <trkpt lat="36.761513" lon="-3.055434">
        <ele>237.627497</ele>
        <time>2022-11-02T14:05:55.420Z</time>
      </trkpt>
      <trkpt lat="36.761833" lon="-3.055534">
        <ele>241.259982</ele>
        <time>2022-11-02T14:06:13.766Z</time>
      </trkpt>
      <trkpt lat="36.762098" lon="-3.055493">
        <ele>244.200405</ele>
        <time>2022-11-02T14:06:25.025Z</time>
      </trkpt>
      <trkpt lat="36.762338" lon="-3.055700">
        <ele>246.529633</ele>
        <time>2022-11-02T14:06:35.591Z</time>
      </trkpt>
      <trkpt lat="36.763029" lon="-3.055868">
        <ele>248.767145</ele>
        <time>2022-11-02T14:06:57.172Z</time>
      </trkpt>
      <trkpt lat="36.763134" lon="-3.056049">
        <ele>249.336156</ele>
        <time>2022-11-02T14:07:02.077Z</time>
      </trkpt>
      <trkpt lat="36.763127" lon="-3.056267">
        <ele>249.891680</ele>
        <time>2022-11-02T14:07:06.075Z</time>
      </trkpt>
      <trkpt lat="36.763035" lon="-3.056356">
        <ele>250.261621</ele>
        <time>2022-11-02T14:07:08.704Z</time>
      </trkpt>
      <trkpt lat="36.762558" lon="-3.056442">
        <ele>251.793427</ele>
        <time>2022-11-02T14:07:17.290Z</time>
      </trkpt>
      <trkpt lat="36.762235" lon="-3.056617">
        <ele>252.721184</ele>
        <time>2022-11-02T14:07:24.382Z</time>
      </trkpt>
      <trkpt lat="36.762109" lon="-3.056890">
        <ele>253.373561</ele>
        <time>2022-11-02T14:07:29.874Z</time>
      </trkpt>
      <trkpt lat="36.761748" lon="-3.057028">
        <ele>254.349387</ele>
        <time>2022-11-02T14:07:39.488Z</time>
      </trkpt>
      <trkpt lat="36.761682" lon="-3.057165">
        <ele>254.680403</ele>
        <time>2022-11-02T14:07:43.232Z</time>
      </trkpt>
      <trkpt lat="36.762019" lon="-3.057924">
        <ele>256.477237</ele>
        <time>2022-11-02T14:08:03.047Z</time>
      </trkpt>
      <trkpt lat="36.762187" lon="-3.058164">
        <ele>257.876600</ele>
        <time>2022-11-02T14:08:09.893Z</time>
      </trkpt>
      <trkpt lat="36.762375" lon="-3.058291">
        <ele>259.109667</ele>
        <time>2022-11-02T14:08:15.935Z</time>
      </trkpt>
      <trkpt lat="36.762434" lon="-3.058391">
        <ele>259.683579</ele>
        <time>2022-11-02T14:08:18.285Z</time>
      </trkpt>
      <trkpt lat="36.762436" lon="-3.058499">
        <ele>260.182796</ele>
        <time>2022-11-02T14:08:21.621Z</time>
      </trkpt>
      <trkpt lat="36.762334" lon="-3.058663">
        <ele>261.142245</ele>
        <time>2022-11-02T14:08:26.969Z</time>
      </trkpt>
      <trkpt lat="36.762143" lon="-3.058795">
        <ele>262.401587</ele>
        <time>2022-11-02T14:08:34.806Z</time>
      </trkpt>
      <trkpt lat="36.761880" lon="-3.058875">
        <ele>263.963052</ele>
        <time>2022-11-02T14:08:44.468Z</time>
      </trkpt>
      <trkpt lat="36.761691" lon="-3.058997">
        <ele>265.190414</ele>
        <time>2022-11-02T14:08:53.668Z</time>
      </trkpt>
      <trkpt lat="36.761641" lon="-3.059161">
        <ele>266.001313</ele>
        <time>2022-11-02T14:09:00.243Z</time>
      </trkpt>
      <trkpt lat="36.761664" lon="-3.059351">
        <ele>266.889306</ele>
        <time>2022-11-02T14:09:08.930Z</time>
      </trkpt>
      <trkpt lat="36.761779" lon="-3.059439">
        <ele>268.561711</ele>
        <time>2022-11-02T14:09:16.457Z</time>
      </trkpt>
      <trkpt lat="36.762308" lon="-3.059261">
        <ele>275.463775</ele>
        <time>2022-11-02T14:09:48.984Z</time>
      </trkpt>
      <trkpt lat="36.762775" lon="-3.059377">
        <ele>281.462248</ele>
        <time>2022-11-02T14:10:17.686Z</time>
      </trkpt>
      <trkpt lat="36.763335" lon="-3.059354">
        <ele>288.520773</ele>
        <time>2022-11-02T14:11:02.581Z</time>
      </trkpt>
      <trkpt lat="36.763669" lon="-3.059603">
        <ele>293.102322</ele>
        <time>2022-11-02T14:11:34.217Z</time>
      </trkpt>
      <trkpt lat="36.763864" lon="-3.059660">
        <ele>295.416083</ele>
        <time>2022-11-02T14:11:50.926Z</time>
      </trkpt>
      <trkpt lat="36.763987" lon="-3.059653">
        <ele>296.838566</ele>
        <time>2022-11-02T14:11:58.403Z</time>
      </trkpt>
      <trkpt lat="36.764213" lon="-3.059315">
        <ele>300.913232</ele>
        <time>2022-11-02T14:12:22.314Z</time>
      </trkpt>
      <trkpt lat="36.764410" lon="-3.059213">
        <ele>303.377171</ele>
        <time>2022-11-02T14:12:37.728Z</time>
      </trkpt>
      <trkpt lat="36.764553" lon="-3.059220">
        <ele>305.030506</ele>
        <time>2022-11-02T14:12:42.218Z</time>
      </trkpt>
      <trkpt lat="36.764772" lon="-3.059407">
        <ele>308.095900</ele>
        <time>2022-11-02T14:12:54.402Z</time>
      </trkpt>
      <trkpt lat="36.764820" lon="-3.059562">
        <ele>309.633881</ele>
        <time>2022-11-02T14:12:57.465Z</time>
      </trkpt>
      <trkpt lat="36.764633" lon="-3.059831">
        <ele>311.415143</ele>
        <time>2022-11-02T14:13:07.652Z</time>
      </trkpt>
      <trkpt lat="36.764628" lon="-3.059995">
        <ele>312.042073</ele>
        <time>2022-11-02T14:13:12.797Z</time>
      </trkpt>
      <trkpt lat="36.764781" lon="-3.060567">
        <ele>314.345681</ele>
        <time>2022-11-02T14:13:32.426Z</time>
      </trkpt>
      <trkpt lat="36.764808" lon="-3.060836">
        <ele>315.381288</ele>
        <time>2022-11-02T14:13:35.625Z</time>
      </trkpt>
      <trkpt lat="36.764965" lon="-3.061177">
        <ele>316.883704</ele>
        <time>2022-11-02T14:13:44.331Z</time>
      </trkpt>
      <trkpt lat="36.765203" lon="-3.061504">
        <ele>318.571387</ele>
        <time>2022-11-02T14:13:56.209Z</time>
      </trkpt>
      <trkpt lat="36.765686" lon="-3.061984">
        <ele>322.303562</ele>
        <time>2022-11-02T14:14:19.131Z</time>
      </trkpt>
      <trkpt lat="36.766340" lon="-3.062117">
        <ele>326.425532</ele>
        <time>2022-11-02T14:14:47.963Z</time>
      </trkpt>
      <trkpt lat="36.766423" lon="-3.062218">
        <ele>327.146579</ele>
        <time>2022-11-02T14:14:53.001Z</time>
      </trkpt>
      <trkpt lat="36.766423" lon="-3.062369">
        <ele>327.899055</ele>
        <time>2022-11-02T14:14:58.923Z</time>
      </trkpt>
      <trkpt lat="36.766177" lon="-3.062798">
        <ele>330.609022</ele>
        <time>2022-11-02T14:15:15.325Z</time>
      </trkpt>
      <trkpt lat="36.766176" lon="-3.062965">
        <ele>331.604490</ele>
        <time>2022-11-02T14:15:20.032Z</time>
      </trkpt>
      <trkpt lat="36.766633" lon="-3.063366">
        <ele>335.760970</ele>
        <time>2022-11-02T14:15:40.822Z</time>
      </trkpt>
      <trkpt lat="36.766705" lon="-3.063492">
        <ele>336.683513</ele>
        <time>2022-11-02T14:15:44.903Z</time>
      </trkpt>
      <trkpt lat="36.766689" lon="-3.063602">
        <ele>337.349909</ele>
        <time>2022-11-02T14:15:48.100Z</time>
      </trkpt>
      <trkpt lat="36.766558" lon="-3.063811">
        <ele>338.931713</ele>
        <time>2022-11-02T14:15:55.639Z</time>
      </trkpt>
      <trkpt lat="36.766543" lon="-3.063968">
        <ele>339.874174</ele>
        <time>2022-11-02T14:16:00.862Z</time>
      </trkpt>
      <trkpt lat="36.766620" lon="-3.064173">
        <ele>341.223768</ele>
        <time>2022-11-02T14:16:09.957Z</time>
      </trkpt>
      <trkpt lat="36.766847" lon="-3.064288">
        <ele>343.046628</ele>
        <time>2022-11-02T14:16:22.974Z</time>
      </trkpt>
      <trkpt lat="36.767308" lon="-3.064117">
        <ele>350.856933</ele>
        <time>2022-11-02T14:16:56.139Z</time>
      </trkpt>
      <trkpt lat="36.767765" lon="-3.064252">
        <ele>359.081998</ele>
        <time>2022-11-02T14:17:34.963Z</time>
      </trkpt>
      <trkpt lat="36.767991" lon="-3.064220">
        <ele>363.065598</ele>
        <time>2022-11-02T14:17:58.147Z</time>
      </trkpt>
      <trkpt lat="36.768225" lon="-3.064080">
        <ele>367.610314</ele>
        <time>2022-11-02T14:18:23.031Z</time>
      </trkpt>
      <trkpt lat="36.768549" lon="-3.063298">
        <ele>380.093957</ele>
        <time>2022-11-02T14:19:32.894Z</time>
      </trkpt>
      <trkpt lat="36.768847" lon="-3.062825">
        <ele>388.760520</ele>
        <time>2022-11-02T14:20:21.550Z</time>
      </trkpt>
      <trkpt lat="36.769089" lon="-3.062078">
        <ele>400.365220</ele>
        <time>2022-11-02T14:21:18.330Z</time>
      </trkpt>
      <trkpt lat="36.769407" lon="-3.061910">
        <ele>406.573322</ele>
        <time>2022-11-02T14:21:43.901Z</time>
      </trkpt>
      <trkpt lat="36.769766" lon="-3.061595">
        <ele>410.451155</ele>
        <time>2022-11-02T14:22:09.994Z</time>
      </trkpt>
      <trkpt lat="36.770416" lon="-3.061301">
        <ele>415.882192</ele>
        <time>2022-11-02T14:22:41.470Z</time>
      </trkpt>
      <trkpt lat="36.770837" lon="-3.061004">
        <ele>419.680989</ele>
        <time>2022-11-02T14:23:00.152Z</time>
      </trkpt>
      <trkpt lat="36.771093" lon="-3.060930">
        <ele>421.576869</ele>
        <time>2022-11-02T14:23:08.003Z</time>
      </trkpt>
      <trkpt lat="36.771290" lon="-3.060754">
        <ele>422.324706</ele>
        <time>2022-11-02T14:23:14.343Z</time>
      </trkpt>
      <trkpt lat="36.771515" lon="-3.060676">
        <ele>423.045575</ele>
        <time>2022-11-02T14:23:20.099Z</time>
      </trkpt>
      <trkpt lat="36.771746" lon="-3.060741">
        <ele>423.776574</ele>
        <time>2022-11-02T14:23:25.297Z</time>
      </trkpt>
      <trkpt lat="36.771960" lon="-3.060943">
        <ele>424.604787</ele>
        <time>2022-11-02T14:23:30.156Z</time>
      </trkpt>
      <trkpt lat="36.772199" lon="-3.061073">
        <ele>425.409582</ele>
        <time>2022-11-02T14:23:35.676Z</time>
      </trkpt>
      <trkpt lat="36.772703" lon="-3.060913">
        <ele>427.014971</ele>
        <time>2022-11-02T14:23:51.148Z</time>
      </trkpt>
      <trkpt lat="36.772727" lon="-3.060680">
        <ele>428.318419</ele>
        <time>2022-11-02T14:23:58.080Z</time>
      </trkpt>
      <trkpt lat="36.772651" lon="-3.060326">
        <ele>430.362475</ele>
        <time>2022-11-02T14:24:09.349Z</time>
      </trkpt>
      <trkpt lat="36.772385" lon="-3.060132">
        <ele>432.507475</ele>
        <time>2022-11-02T14:24:22.335Z</time>
      </trkpt>
      <trkpt lat="36.772112" lon="-3.059662">
        <ele>435.745486</ele>
        <time>2022-11-02T14:24:44.432Z</time>
      </trkpt>
      <trkpt lat="36.771988" lon="-3.059352">
        <ele>437.678054</ele>
        <time>2022-11-02T14:24:57.834Z</time>
      </trkpt>
      <trkpt lat="36.771926" lon="-3.058990">
        <ele>439.798529</ele>
        <time>2022-11-02T14:25:11.634Z</time>
      </trkpt>
      <trkpt lat="36.771726" lon="-3.058584">
        <ele>443.203650</ele>
        <time>2022-11-02T14:25:28.946Z</time>
      </trkpt>
      <trkpt lat="36.771798" lon="-3.058446">
        <ele>444.380233</ele>
        <time>2022-11-02T14:25:35.839Z</time>
      </trkpt>
      <trkpt lat="36.772061" lon="-3.058377">
        <ele>446.777107</ele>
        <time>2022-11-02T14:25:50.642Z</time>
      </trkpt>
      <trkpt lat="36.772202" lon="-3.058502">
        <ele>448.319476</ele>
        <time>2022-11-02T14:25:59.264Z</time>
      </trkpt>
      <trkpt lat="36.772368" lon="-3.058808">
        <ele>450.959733</ele>
        <time>2022-11-02T14:26:15.445Z</time>
      </trkpt>
      <trkpt lat="36.772579" lon="-3.058998">
        <ele>453.280051</ele>
        <time>2022-11-02T14:26:29.258Z</time>
      </trkpt>
      <trkpt lat="36.772824" lon="-3.059050">
        <ele>455.496503</ele>
        <time>2022-11-02T14:26:41.395Z</time>
      </trkpt>
      <trkpt lat="36.773615" lon="-3.058817">
        <ele>462.601022</ele>
        <time>2022-11-02T14:27:21.488Z</time>
      </trkpt>
      <trkpt lat="36.773864" lon="-3.058472">
        <ele>465.851918</ele>
        <time>2022-11-02T14:27:40.561Z</time>
      </trkpt>
      <trkpt lat="36.773944" lon="-3.057928">
        <ele>469.723749</ele>
        <time>2022-11-02T14:28:04.757Z</time>
      </trkpt>
      <trkpt lat="36.774058" lon="-3.057855">
        <ele>470.843460</ele>
        <time>2022-11-02T14:28:11.411Z</time>
      </trkpt>
      <trkpt lat="36.774282" lon="-3.058010">
        <ele>472.069442</ele>
        <time>2022-11-02T14:28:23.393Z</time>
      </trkpt>
      <trkpt lat="36.774476" lon="-3.058015">
        <ele>472.799201</ele>
        <time>2022-11-02T14:28:31.071Z</time>
      </trkpt>
      <trkpt lat="36.774638" lon="-3.057894">
        <ele>473.509171</ele>
        <time>2022-11-02T14:28:37.460Z</time>
      </trkpt>
      <trkpt lat="36.774787" lon="-3.057558">
        <ele>474.666109</ele>
        <time>2022-11-02T14:28:46.999Z</time>
      </trkpt>
      <trkpt lat="36.774914" lon="-3.057419">
        <ele>475.301293</ele>
        <time>2022-11-02T14:28:51.519Z</time>
      </trkpt>
      <trkpt lat="36.775042" lon="-3.057419">
        <ele>475.782681</ele>
        <time>2022-11-02T14:28:54.995Z</time>
      </trkpt>
      <trkpt lat="36.775329" lon="-3.057671">
        <ele>477.102262</ele>
        <time>2022-11-02T14:29:02.088Z</time>
      </trkpt>
      <trkpt lat="36.775541" lon="-3.057796">
        <ele>477.984008</ele>
        <time>2022-11-02T14:29:05.630Z</time>
      </trkpt>
      <trkpt lat="36.775656" lon="-3.057796">
        <ele>478.069207</ele>
        <time>2022-11-02T14:29:07.698Z</time>
      </trkpt>
      <trkpt lat="36.775763" lon="-3.057668">
        <ele>478.069207</ele>
        <time>2022-11-02T14:29:09.655Z</time>
      </trkpt>
      <trkpt lat="36.775861" lon="-3.057331">
        <ele>478.069207</ele>
        <time>2022-11-02T14:29:13.633Z</time>
      </trkpt>
      <trkpt lat="36.775961" lon="-3.057200">
        <ele>478.069207</ele>
        <time>2022-11-02T14:29:15.153Z</time>
      </trkpt>
      <trkpt lat="36.776071" lon="-3.057181">
        <ele>478.069207</ele>
        <time>2022-11-02T14:29:16.316Z</time>
      </trkpt>
      <trkpt lat="36.776213" lon="-3.057253">
        <ele>478.069207</ele>
        <time>2022-11-02T14:29:17.843Z</time>
      </trkpt>
      <trkpt lat="36.776270" lon="-3.057434">
        <ele>478.069207</ele>
        <time>2022-11-02T14:29:19.356Z</time>
      </trkpt>
      <trkpt lat="36.776298" lon="-3.058042">
        <ele>478.069207</ele>
        <time>2022-11-02T14:29:24.243Z</time>
      </trkpt>
      <trkpt lat="36.776263" lon="-3.058584">
        <ele>478.069207</ele>
        <time>2022-11-02T14:29:28.726Z</time>
      </trkpt>
      <trkpt lat="36.776128" lon="-3.059015">
        <ele>478.069207</ele>
        <time>2022-11-02T14:29:32.412Z</time>
      </trkpt>
      <trkpt lat="36.776097" lon="-3.059266">
        <ele>478.069207</ele>
        <time>2022-11-02T14:29:34.375Z</time>
      </trkpt>
      <trkpt lat="36.7761710" lon="-3.0595630">
        <ele>481.8</ele>
        <time>2022-11-01T09:24:40Z</time>
      </trkpt>
      <trkpt lat="36.7761770" lon="-3.0595870">
        <ele>482.2</ele>
        <time>2022-11-01T09:24:41Z</time>
      </trkpt>
      <trkpt lat="36.7761860" lon="-3.0596110">
        <ele>482.6</ele>
        <time>2022-11-01T09:24:42Z</time>
      </trkpt>
      <trkpt lat="36.7761960" lon="-3.0596340">
        <ele>483.0</ele>
        <time>2022-11-01T09:24:43Z</time>
      </trkpt>
      <trkpt lat="36.7762050" lon="-3.0596560">
        <ele>483.2</ele>
        <time>2022-11-01T09:24:44Z</time>
      </trkpt>
      <trkpt lat="36.7762130" lon="-3.0596800">
        <ele>483.4</ele>
        <time>2022-11-01T09:24:45Z</time>
      </trkpt>
      <trkpt lat="36.7762220" lon="-3.0597040">
        <ele>483.6</ele>
        <time>2022-11-01T09:24:46Z</time>
      </trkpt>
      <trkpt lat="36.7762310" lon="-3.0597280">
        <ele>483.8</ele>
        <time>2022-11-01T09:24:47Z</time>
      </trkpt>
      <trkpt lat="36.7762390" lon="-3.0597520">
        <ele>484.0</ele>
        <time>2022-11-01T09:24:48Z</time>
      </trkpt>
      <trkpt lat="36.7762490" lon="-3.0597750">
        <ele>484.2</ele>
        <time>2022-11-01T09:24:49Z</time>
      </trkpt>
      <trkpt lat="36.7762590" lon="-3.0597970">
        <ele>484.4</ele>
        <time>2022-11-01T09:24:50Z</time>
      </trkpt>
      <trkpt lat="36.7762700" lon="-3.0598170">
        <ele>484.6</ele>
        <time>2022-11-01T09:24:51Z</time>
      </trkpt>
      <trkpt lat="36.7762810" lon="-3.0598380">
        <ele>484.8</ele>
        <time>2022-11-01T09:24:52Z</time>
      </trkpt>
      <trkpt lat="36.7762930" lon="-3.0598600">
        <ele>485.0</ele>
        <time>2022-11-01T09:24:53Z</time>
      </trkpt>
      <trkpt lat="36.7763040" lon="-3.0598810">
        <ele>485.2</ele>
        <time>2022-11-01T09:24:54Z</time>
      </trkpt>
      <trkpt lat="36.7763150" lon="-3.0599040">
        <ele>485.4</ele>
        <time>2022-11-01T09:24:55Z</time>
      </trkpt>
      <trkpt lat="36.7763270" lon="-3.0599250">
        <ele>485.6</ele>
        <time>2022-11-01T09:24:56Z</time>
      </trkpt>
      <trkpt lat="36.7763400" lon="-3.0599460">
        <ele>485.8</ele>
        <time>2022-11-01T09:24:57Z</time>
      </trkpt>
      <trkpt lat="36.7763550" lon="-3.0599640">
        <ele>486.0</ele>
        <time>2022-11-01T09:24:58Z</time>
      </trkpt>
      <trkpt lat="36.7763680" lon="-3.0599840">
        <ele>486.0</ele>
        <time>2022-11-01T09:24:59Z</time>
      </trkpt>
      <trkpt lat="36.7763810" lon="-3.0600030">
        <ele>486.2</ele>
        <time>2022-11-01T09:25:00Z</time>
      </trkpt>
      <trkpt lat="36.7763970" lon="-3.0600200">
        <ele>486.4</ele>
        <time>2022-11-01T09:25:01Z</time>
      </trkpt>
      <trkpt lat="36.7764120" lon="-3.0600380">
        <ele>486.6</ele>
        <time>2022-11-01T09:25:02Z</time>
      </trkpt>
      <trkpt lat="36.7764280" lon="-3.0600520">
        <ele>486.8</ele>
        <time>2022-11-01T09:25:03Z</time>
      </trkpt>
      <trkpt lat="36.7764450" lon="-3.0600580">
        <ele>487.0</ele>
        <time>2022-11-01T09:25:04Z</time>
      </trkpt>
      <trkpt lat="36.7764620" lon="-3.0600640">
        <ele>487.2</ele>
        <time>2022-11-01T09:25:05Z</time>
      </trkpt>
      <trkpt lat="36.7764780" lon="-3.0600720">
        <ele>487.2</ele>
        <time>2022-11-01T09:25:06Z</time>
      </trkpt>
      <trkpt lat="36.7764930" lon="-3.0600850">
        <ele>487.4</ele>
        <time>2022-11-01T09:25:07Z</time>
      </trkpt>
      <trkpt lat="36.7765030" lon="-3.0601050">
        <ele>487.6</ele>
        <time>2022-11-01T09:25:08Z</time>
      </trkpt>
      <trkpt lat="36.7765180" lon="-3.0601150">
        <ele>487.8</ele>
        <time>2022-11-01T09:25:09Z</time>
      </trkpt>
      <trkpt lat="36.7765350" lon="-3.0601200">
        <ele>488.0</ele>
        <time>2022-11-01T09:25:10Z</time>
      </trkpt>
      <trkpt lat="36.7765480" lon="-3.0601330">
        <ele>488.2</ele>
        <time>2022-11-01T09:25:11Z</time>
      </trkpt>
      <trkpt lat="36.7765610" lon="-3.0601550">
        <ele>488.4</ele>
        <time>2022-11-01T09:25:12Z</time>
      </trkpt>
      <trkpt lat="36.7765740" lon="-3.0601700">
        <ele>488.4</ele>
        <time>2022-11-01T09:25:13Z</time>
      </trkpt>
      <trkpt lat="36.7765830" lon="-3.0601910">
        <ele>488.6</ele>
        <time>2022-11-01T09:25:14Z</time>
      </trkpt>
      <trkpt lat="36.7765940" lon="-3.0602100">
        <ele>488.8</ele>
        <time>2022-11-01T09:25:15Z</time>
      </trkpt>
      <trkpt lat="36.7766000" lon="-3.0602330">
        <ele>489.0</ele>
        <time>2022-11-01T09:25:16Z</time>
      </trkpt>
      <trkpt lat="36.7766030" lon="-3.0602580">
        <ele>489.2</ele>
        <time>2022-11-01T09:25:17Z</time>
      </trkpt>
      <trkpt lat="36.7766060" lon="-3.0602830">
        <ele>489.2</ele>
        <time>2022-11-01T09:25:18Z</time>
      </trkpt>
      <trkpt lat="36.7766060" lon="-3.0603070">
        <ele>489.4</ele>
        <time>2022-11-01T09:25:19Z</time>
      </trkpt>
      <trkpt lat="36.7766010" lon="-3.0603300">
        <ele>489.6</ele>
        <time>2022-11-01T09:25:20Z</time>
      </trkpt>
      <trkpt lat="36.7765940" lon="-3.0603530">
        <ele>489.8</ele>
        <time>2022-11-01T09:25:21Z</time>
      </trkpt>
      <trkpt lat="36.7765860" lon="-3.0603760">
        <ele>489.8</ele>
        <time>2022-11-01T09:25:22Z</time>
      </trkpt>
      <trkpt lat="36.7765800" lon="-3.0604010">
        <ele>490.0</ele>
        <time>2022-11-01T09:25:23Z</time>
      </trkpt>
      <trkpt lat="36.7765730" lon="-3.0604230">
        <ele>490.2</ele>
        <time>2022-11-01T09:25:24Z</time>
      </trkpt>
      <trkpt lat="36.7765610" lon="-3.0604450">
        <ele>490.4</ele>
        <time>2022-11-01T09:25:25Z</time>
      </trkpt>
      <trkpt lat="36.7765490" lon="-3.0604670">
        <ele>490.4</ele>
        <time>2022-11-01T09:25:26Z</time>
      </trkpt>
      <trkpt lat="36.7765370" lon="-3.0604890">
        <ele>490.6</ele>
        <time>2022-11-01T09:25:27Z</time>
      </trkpt>
      <trkpt lat="36.7765270" lon="-3.0605110">
        <ele>490.8</ele>
        <time>2022-11-01T09:25:28Z</time>
      </trkpt>
      <trkpt lat="36.7765190" lon="-3.0605330">
        <ele>491.0</ele>
        <time>2022-11-01T09:25:29Z</time>
      </trkpt>
      <trkpt lat="36.7765080" lon="-3.0605530">
        <ele>491.2</ele>
        <time>2022-11-01T09:25:30Z</time>
      </trkpt>
      <trkpt lat="36.7764940" lon="-3.0605710">
        <ele>491.2</ele>
        <time>2022-11-01T09:25:31Z</time>
      </trkpt>
      <trkpt lat="36.7764800" lon="-3.0605880">
        <ele>491.4</ele>
        <time>2022-11-01T09:25:32Z</time>
      </trkpt>
      <trkpt lat="36.7764650" lon="-3.0606070">
        <ele>491.6</ele>
        <time>2022-11-01T09:25:33Z</time>
      </trkpt>
      <trkpt lat="36.7764510" lon="-3.0606280">
        <ele>491.8</ele>
        <time>2022-11-01T09:25:34Z</time>
      </trkpt>
      <trkpt lat="36.7764350" lon="-3.0606480">
        <ele>491.8</ele>
        <time>2022-11-01T09:25:35Z</time>
      </trkpt>
      <trkpt lat="36.7764200" lon="-3.0606670">
        <ele>492.0</ele>
        <time>2022-11-01T09:25:36Z</time>
      </trkpt>
      <trkpt lat="36.7764030" lon="-3.0606830">
        <ele>492.2</ele>
        <time>2022-11-01T09:25:37Z</time>
      </trkpt>
      <trkpt lat="36.7763830" lon="-3.0606920">
        <ele>492.4</ele>
        <time>2022-11-01T09:25:38Z</time>
      </trkpt>
      <trkpt lat="36.7763640" lon="-3.0607030">
        <ele>492.6</ele>
        <time>2022-11-01T09:25:39Z</time>
      </trkpt>
      <trkpt lat="36.7763460" lon="-3.0607180">
        <ele>492.8</ele>
        <time>2022-11-01T09:25:40Z</time>
      </trkpt>
      <trkpt lat="36.7763310" lon="-3.0607350">
        <ele>493.0</ele>
        <time>2022-11-01T09:25:41Z</time>
      </trkpt>
      <trkpt lat="36.7763140" lon="-3.0607520">
        <ele>493.0</ele>
        <time>2022-11-01T09:25:42Z</time>
      </trkpt>
      <trkpt lat="36.7762970" lon="-3.0607640">
        <ele>493.2</ele>
        <time>2022-11-01T09:25:43Z</time>
      </trkpt>
      <trkpt lat="36.7762770" lon="-3.0607730">
        <ele>493.4</ele>
        <time>2022-11-01T09:25:44Z</time>
      </trkpt>
      <trkpt lat="36.7762590" lon="-3.0607850">
        <ele>493.6</ele>
        <time>2022-11-01T09:25:45Z</time>
      </trkpt>
      <trkpt lat="36.7762390" lon="-3.0607940">
        <ele>493.8</ele>
        <time>2022-11-01T09:25:46Z</time>
      </trkpt>
      <trkpt lat="36.7762180" lon="-3.0608020">
        <ele>493.8</ele>
        <time>2022-11-01T09:25:47Z</time>
      </trkpt>
      <trkpt lat="36.7761970" lon="-3.0608100">
        <ele>494.0</ele>
        <time>2022-11-01T09:25:48Z</time>
      </trkpt>
      <trkpt lat="36.7761790" lon="-3.0608220">
        <ele>494.0</ele>
        <time>2022-11-01T09:25:49Z</time>
      </trkpt>
      <trkpt lat="36.7761580" lon="-3.0608310">
        <ele>494.4</ele>
        <time>2022-11-01T09:25:50Z</time>
      </trkpt>
      <trkpt lat="36.7761380" lon="-3.0608410">
        <ele>494.4</ele>
        <time>2022-11-01T09:25:51Z</time>
      </trkpt>
      <trkpt lat="36.7761170" lon="-3.0608460">
        <ele>494.6</ele>
        <time>2022-11-01T09:25:52Z</time>
      </trkpt>
      <trkpt lat="36.7760960" lon="-3.0608530">
        <ele>494.8</ele>
        <time>2022-11-01T09:25:53Z</time>
      </trkpt>
      <trkpt lat="36.7760760" lon="-3.0608630">
        <ele>495.0</ele>
        <time>2022-11-01T09:25:54Z</time>
      </trkpt>
      <trkpt lat="36.7760570" lon="-3.0608750">
        <ele>495.0</ele>
        <time>2022-11-01T09:25:55Z</time>
      </trkpt>
      <trkpt lat="36.7760370" lon="-3.0608870">
        <ele>495.2</ele>
        <time>2022-11-01T09:25:56Z</time>
      </trkpt>
      <trkpt lat="36.7760180" lon="-3.0609000">
        <ele>495.4</ele>
        <time>2022-11-01T09:25:57Z</time>
      </trkpt>
      <trkpt lat="36.7760010" lon="-3.0609160">
        <ele>495.6</ele>
        <time>2022-11-01T09:25:58Z</time>
      </trkpt>
      <trkpt lat="36.7759860" lon="-3.0609310">
        <ele>495.6</ele>
        <time>2022-11-01T09:25:59Z</time>
      </trkpt>
      <trkpt lat="36.7759730" lon="-3.0609500">
        <ele>495.8</ele>
        <time>2022-11-01T09:26:00Z</time>
      </trkpt>
      <trkpt lat="36.7759660" lon="-3.0609740">
        <ele>496.2</ele>
        <time>2022-11-01T09:26:01Z</time>
      </trkpt>
      <trkpt lat="36.7759650" lon="-3.0609980">
        <ele>496.2</ele>
        <time>2022-11-01T09:26:02Z</time>
      </trkpt>
      <trkpt lat="36.7759710" lon="-3.0610180">
        <ele>496.6</ele>
        <time>2022-11-01T09:26:03Z</time>
      </trkpt>
      <trkpt lat="36.7759810" lon="-3.0610390">
        <ele>496.8</ele>
        <time>2022-11-01T09:26:04Z</time>
      </trkpt>
      <trkpt lat="36.7759900" lon="-3.0610590">
        <ele>497.0</ele>
        <time>2022-11-01T09:26:05Z</time>
      </trkpt>
      <trkpt lat="36.7759960" lon="-3.0610790">
        <ele>497.2</ele>
        <time>2022-11-01T09:26:06Z</time>
      </trkpt>
      <trkpt lat="36.7760080" lon="-3.0610940">
        <ele>497.4</ele>
        <time>2022-11-01T09:26:07Z</time>
      </trkpt>
      <trkpt lat="36.7760240" lon="-3.0611060">
        <ele>497.6</ele>
        <time>2022-11-01T09:26:08Z</time>
      </trkpt>
      <trkpt lat="36.7760400" lon="-3.0611200">
        <ele>497.8</ele>
        <time>2022-11-01T09:26:09Z</time>
      </trkpt>
      <trkpt lat="36.7760540" lon="-3.0611370">
        <ele>498.0</ele>
        <time>2022-11-01T09:26:10Z</time>
      </trkpt>
      <trkpt lat="36.7760670" lon="-3.0611560">
        <ele>498.0</ele>
        <time>2022-11-01T09:26:11Z</time>
      </trkpt>
      <trkpt lat="36.7760810" lon="-3.0611710">
        <ele>498.2</ele>
        <time>2022-11-01T09:26:12Z</time>
      </trkpt>
      <trkpt lat="36.7760970" lon="-3.0611850">
        <ele>498.2</ele>
        <time>2022-11-01T09:26:13Z</time>
      </trkpt>
      <trkpt lat="36.7761130" lon="-3.0612000">
        <ele>498.4</ele>
        <time>2022-11-01T09:26:14Z</time>
      </trkpt>
      <trkpt lat="36.7761300" lon="-3.0612150">
        <ele>498.6</ele>
        <time>2022-11-01T09:26:15Z</time>
      </trkpt>
      <trkpt lat="36.7761460" lon="-3.0612290">
        <ele>498.8</ele>
        <time>2022-11-01T09:26:16Z</time>
      </trkpt>
      <trkpt lat="36.7761600" lon="-3.0612450">
        <ele>499.0</ele>
        <time>2022-11-01T09:26:17Z</time>
      </trkpt>
      <trkpt lat="36.7761750" lon="-3.0612610">
        <ele>499.2</ele>
        <time>2022-11-01T09:26:18Z</time>
      </trkpt>
      <trkpt lat="36.7761890" lon="-3.0612780">
        <ele>499.4</ele>
        <time>2022-11-01T09:26:19Z</time>
      </trkpt>
      <trkpt lat="36.7762010" lon="-3.0612970">
        <ele>499.6</ele>
        <time>2022-11-01T09:26:20Z</time>
      </trkpt>
      <trkpt lat="36.7762160" lon="-3.0613140">
        <ele>499.6</ele>
        <time>2022-11-01T09:26:21Z</time>
      </trkpt>
      <trkpt lat="36.7762310" lon="-3.0613310">
        <ele>499.8</ele>
        <time>2022-11-01T09:26:22Z</time>
      </trkpt>
      <trkpt lat="36.7762480" lon="-3.0613440">
        <ele>500.0</ele>
        <time>2022-11-01T09:26:23Z</time>
      </trkpt>
      <trkpt lat="36.7762640" lon="-3.0613580">
        <ele>500.2</ele>
        <time>2022-11-01T09:26:24Z</time>
      </trkpt>
      <trkpt lat="36.7762780" lon="-3.0613710">
        <ele>500.2</ele>
        <time>2022-11-01T09:26:25Z</time>
      </trkpt>
      <trkpt lat="36.7762920" lon="-3.0613920">
        <ele>500.6</ele>
        <time>2022-11-01T09:26:26Z</time>
      </trkpt>
      <trkpt lat="36.7763070" lon="-3.0614090">
        <ele>500.8</ele>
        <time>2022-11-01T09:26:27Z</time>
      </trkpt>
      <trkpt lat="36.7763180" lon="-3.0614250">
        <ele>500.8</ele>
        <time>2022-11-01T09:26:28Z</time>
      </trkpt>
      <trkpt lat="36.7763250" lon="-3.0614480">
        <ele>501.0</ele>
        <time>2022-11-01T09:26:29Z</time>
      </trkpt>
      <trkpt lat="36.7763290" lon="-3.0614750">
        <ele>501.2</ele>
        <time>2022-11-01T09:26:30Z</time>
      </trkpt>
      <trkpt lat="36.7763350" lon="-3.0615010">
        <ele>501.4</ele>
        <time>2022-11-01T09:26:31Z</time>
      </trkpt>
      <trkpt lat="36.7763430" lon="-3.0615250">
        <ele>501.6</ele>
        <time>2022-11-01T09:26:32Z</time>
      </trkpt>
      <trkpt lat="36.7763530" lon="-3.0615460">
        <ele>501.8</ele>
        <time>2022-11-01T09:26:33Z</time>
      </trkpt>
      <trkpt lat="36.7763560" lon="-3.0615670">
        <ele>502.0</ele>
        <time>2022-11-01T09:26:34Z</time>
      </trkpt>
      <trkpt lat="36.7763500" lon="-3.0615900">
        <ele>502.2</ele>
        <time>2022-11-01T09:26:35Z</time>
      </trkpt>
      <trkpt lat="36.7763430" lon="-3.0616150">
        <ele>502.2</ele>
        <time>2022-11-01T09:26:36Z</time>
      </trkpt>
      <trkpt lat="36.7763400" lon="-3.0616390">
        <ele>502.4</ele>
        <time>2022-11-01T09:26:37Z</time>
      </trkpt>
      <trkpt lat="36.7763360" lon="-3.0616640">
        <ele>502.6</ele>
        <time>2022-11-01T09:26:38Z</time>
      </trkpt>
      <trkpt lat="36.7763250" lon="-3.0616860">
        <ele>502.8</ele>
        <time>2022-11-01T09:26:39Z</time>
      </trkpt>
      <trkpt lat="36.7763110" lon="-3.0617060">
        <ele>502.8</ele>
        <time>2022-11-01T09:26:40Z</time>
      </trkpt>
      <trkpt lat="36.7762970" lon="-3.0617270">
        <ele>503.0</ele>
        <time>2022-11-01T09:26:41Z</time>
      </trkpt>
      <trkpt lat="36.7762880" lon="-3.0617480">
        <ele>503.2</ele>
        <time>2022-11-01T09:26:42Z</time>
      </trkpt>
      <trkpt lat="36.7762810" lon="-3.0617700">
        <ele>503.4</ele>
        <time>2022-11-01T09:26:43Z</time>
      </trkpt>
      <trkpt lat="36.7762740" lon="-3.0617900">
        <ele>503.4</ele>
        <time>2022-11-01T09:26:44Z</time>
      </trkpt>
      <trkpt lat="36.7762620" lon="-3.0618080">
        <ele>503.6</ele>
        <time>2022-11-01T09:26:45Z</time>
      </trkpt>
      <trkpt lat="36.7762490" lon="-3.0618270">
        <ele>503.8</ele>
        <time>2022-11-01T09:26:46Z</time>
      </trkpt>
      <trkpt lat="36.7762380" lon="-3.0618480">
        <ele>504.0</ele>
        <time>2022-11-01T09:26:47Z</time>
      </trkpt>
      <trkpt lat="36.7762260" lon="-3.0618680">
        <ele>504.0</ele>
        <time>2022-11-01T09:26:48Z</time>
      </trkpt>
      <trkpt lat="36.7762140" lon="-3.0618870">
        <ele>504.2</ele>
        <time>2022-11-01T09:26:49Z</time>
      </trkpt>
      <trkpt lat="36.7762030" lon="-3.0619060">
        <ele>504.4</ele>
        <time>2022-11-01T09:26:50Z</time>
      </trkpt>
      <trkpt lat="36.7761910" lon="-3.0619240">
        <ele>504.6</ele>
        <time>2022-11-01T09:26:51Z</time>
      </trkpt>
      <trkpt lat="36.7761810" lon="-3.0619440">
        <ele>504.8</ele>
        <time>2022-11-01T09:26:52Z</time>
      </trkpt>
      <trkpt lat="36.7761720" lon="-3.0619650">
        <ele>504.8</ele>
        <time>2022-11-01T09:26:53Z</time>
      </trkpt>
      <trkpt lat="36.7761640" lon="-3.0619870">
        <ele>505.0</ele>
        <time>2022-11-01T09:26:54Z</time>
      </trkpt>
      <trkpt lat="36.7761570" lon="-3.0620090">
        <ele>505.2</ele>
        <time>2022-11-01T09:26:55Z</time>
      </trkpt>
      <trkpt lat="36.7761510" lon="-3.0620310">
        <ele>505.4</ele>
        <time>2022-11-01T09:26:56Z</time>
      </trkpt>
      <trkpt lat="36.7761460" lon="-3.0620550">
        <ele>505.4</ele>
        <time>2022-11-01T09:26:57Z</time>
      </trkpt>
      <trkpt lat="36.7761410" lon="-3.0620810">
        <ele>505.6</ele>
        <time>2022-11-01T09:26:58Z</time>
      </trkpt>
      <trkpt lat="36.7761380" lon="-3.0621080">
        <ele>505.8</ele>
        <time>2022-11-01T09:26:59Z</time>
      </trkpt>
      <trkpt lat="36.7761360" lon="-3.0621350">
        <ele>506.0</ele>
        <time>2022-11-01T09:27:00Z</time>
      </trkpt>
      <trkpt lat="36.7761340" lon="-3.0621610">
        <ele>506.2</ele>
        <time>2022-11-01T09:27:01Z</time>
      </trkpt>
      <trkpt lat="36.7761340" lon="-3.0621860">
        <ele>506.4</ele>
        <time>2022-11-01T09:27:02Z</time>
      </trkpt>
      <trkpt lat="36.7761370" lon="-3.0622130">
        <ele>506.6</ele>
        <time>2022-11-01T09:27:03Z</time>
      </trkpt>
      <trkpt lat="36.7761400" lon="-3.0622370">
        <ele>506.8</ele>
        <time>2022-11-01T09:27:04Z</time>
      </trkpt>
      <trkpt lat="36.7761400" lon="-3.0622630">
        <ele>507.0</ele>
        <time>2022-11-01T09:27:05Z</time>
      </trkpt>
      <trkpt lat="36.7761390" lon="-3.0622900">
        <ele>507.0</ele>
        <time>2022-11-01T09:27:06Z</time>
      </trkpt>
      <trkpt lat="36.7761380" lon="-3.0623150">
        <ele>507.2</ele>
        <time>2022-11-01T09:27:07Z</time>
      </trkpt>
      <trkpt lat="36.7761370" lon="-3.0623410">
        <ele>507.4</ele>
        <time>2022-11-01T09:27:08Z</time>
      </trkpt>
      <trkpt lat="36.7761340" lon="-3.0623660">
        <ele>507.4</ele>
        <time>2022-11-01T09:27:09Z</time>
      </trkpt>
      <trkpt lat="36.7761310" lon="-3.0623910">
        <ele>507.6</ele>
        <time>2022-11-01T09:27:10Z</time>
      </trkpt>
      <trkpt lat="36.7761270" lon="-3.0624150">
        <ele>507.8</ele>
        <time>2022-11-01T09:27:11Z</time>
      </trkpt>
      <trkpt lat="36.7761250" lon="-3.0624390">
        <ele>508.0</ele>
        <time>2022-11-01T09:27:12Z</time>
      </trkpt>
      <trkpt lat="36.7761240" lon="-3.0624640">
        <ele>508.2</ele>
        <time>2022-11-01T09:27:13Z</time>
      </trkpt>
      <trkpt lat="36.7761260" lon="-3.0624900">
        <ele>508.4</ele>
        <time>2022-11-01T09:27:14Z</time>
      </trkpt>
      <trkpt lat="36.7761300" lon="-3.0625130">
        <ele>508.6</ele>
        <time>2022-11-01T09:27:15Z</time>
      </trkpt>
      <trkpt lat="36.7761380" lon="-3.0625340">
        <ele>508.6</ele>
        <time>2022-11-01T09:27:16Z</time>
      </trkpt>
      <trkpt lat="36.7761450" lon="-3.0625540">
        <ele>508.8</ele>
        <time>2022-11-01T09:27:17Z</time>
      </trkpt>
      <trkpt lat="36.7761550" lon="-3.0625710">
        <ele>509.0</ele>
        <time>2022-11-01T09:27:18Z</time>
      </trkpt>
      <trkpt lat="36.7761670" lon="-3.0625860">
        <ele>509.2</ele>
        <time>2022-11-01T09:27:19Z</time>
      </trkpt>
      <trkpt lat="36.7761780" lon="-3.0626010">
        <ele>509.4</ele>
        <time>2022-11-01T09:27:20Z</time>
      </trkpt>
      <trkpt lat="36.7761930" lon="-3.0626140">
        <ele>509.6</ele>
        <time>2022-11-01T09:27:21Z</time>
      </trkpt>
      <trkpt lat="36.7762110" lon="-3.0626290">
        <ele>509.8</ele>
        <time>2022-11-01T09:27:22Z</time>
      </trkpt>
      <trkpt lat="36.7762290" lon="-3.0626440">
        <ele>510.0</ele>
        <time>2022-11-01T09:27:23Z</time>
      </trkpt>
      <trkpt lat="36.7762500" lon="-3.0626570">
        <ele>510.0</ele>
        <time>2022-11-01T09:27:24Z</time>
      </trkpt>
      <trkpt lat="36.7762710" lon="-3.0626610">
        <ele>510.4</ele>
        <time>2022-11-01T09:27:25Z</time>
      </trkpt>
      <trkpt lat="36.7762940" lon="-3.0626690">
        <ele>510.6</ele>
        <time>2022-11-01T09:27:26Z</time>
      </trkpt>
      <trkpt lat="36.7763190" lon="-3.0626720">
        <ele>510.6</ele>
        <time>2022-11-01T09:27:27Z</time>
      </trkpt>
      <trkpt lat="36.7763410" lon="-3.0626750">
        <ele>511.0</ele>
        <time>2022-11-01T09:27:28Z</time>
      </trkpt>
      <trkpt lat="36.7763520" lon="-3.0627060">
        <ele>511.2</ele>
        <time>2022-11-01T09:27:29Z</time>
      </trkpt>
      <trkpt lat="36.7763610" lon="-3.0627390">
        <ele>511.4</ele>
        <time>2022-11-01T09:27:30Z</time>
      </trkpt>
      <trkpt lat="36.7763630" lon="-3.0627700">
        <ele>511.6</ele>
        <time>2022-11-01T09:27:31Z</time>
      </trkpt>
      <trkpt lat="36.7763610" lon="-3.0628000">
        <ele>511.8</ele>
        <time>2022-11-01T09:27:32Z</time>
      </trkpt>
      <trkpt lat="36.7763570" lon="-3.0628300">
        <ele>512.0</ele>
        <time>2022-11-01T09:27:33Z</time>
      </trkpt>
      <trkpt lat="36.7763540" lon="-3.0628610">
        <ele>512.0</ele>
        <time>2022-11-01T09:27:34Z</time>
      </trkpt>
      <trkpt lat="36.7763520" lon="-3.0628910">
        <ele>512.2</ele>
        <time>2022-11-01T09:27:35Z</time>
      </trkpt>
      <trkpt lat="36.7763480" lon="-3.0629190">
        <ele>512.4</ele>
        <time>2022-11-01T09:27:36Z</time>
      </trkpt>
      <trkpt lat="36.7763370" lon="-3.0629550">
        <ele>512.6</ele>
        <time>2022-11-01T09:27:37Z</time>
      </trkpt>
      <trkpt lat="36.7763230" lon="-3.0629910">
        <ele>512.6</ele>
        <time>2022-11-01T09:27:38Z</time>
      </trkpt>
      <trkpt lat="36.7763080" lon="-3.0630250">
        <ele>512.8</ele>
        <time>2022-11-01T09:27:39Z</time>
      </trkpt>
      <trkpt lat="36.7763040" lon="-3.0630550">
        <ele>512.8</ele>
        <time>2022-11-01T09:27:40Z</time>
      </trkpt>
      <trkpt lat="36.7763000" lon="-3.0630870">
        <ele>513.0</ele>
        <time>2022-11-01T09:27:41Z</time>
      </trkpt>
      <trkpt lat="36.7762850" lon="-3.0631210">
        <ele>513.2</ele>
        <time>2022-11-01T09:27:42Z</time>
      </trkpt>
      <trkpt lat="36.7762680" lon="-3.0631530">
        <ele>513.2</ele>
        <time>2022-11-01T09:27:43Z</time>
      </trkpt>
      <trkpt lat="36.7762520" lon="-3.0631850">
        <ele>513.4</ele>
        <time>2022-11-01T09:27:44Z</time>
      </trkpt>
      <trkpt lat="36.7762370" lon="-3.0632170">
        <ele>513.6</ele>
        <time>2022-11-01T09:27:45Z</time>
      </trkpt>
      <trkpt lat="36.7762220" lon="-3.0632490">
        <ele>513.8</ele>
        <time>2022-11-01T09:27:46Z</time>
      </trkpt>
      <trkpt lat="36.7762070" lon="-3.0632810">
        <ele>513.8</ele>
        <time>2022-11-01T09:27:47Z</time>
      </trkpt>
      <trkpt lat="36.7761940" lon="-3.0633140">
        <ele>514.2</ele>
        <time>2022-11-01T09:27:48Z</time>
      </trkpt>
      <trkpt lat="36.7761800" lon="-3.0633460">
        <ele>514.2</ele>
        <time>2022-11-01T09:27:49Z</time>
      </trkpt>
      <trkpt lat="36.7761640" lon="-3.0633760">
        <ele>514.4</ele>
        <time>2022-11-01T09:27:50Z</time>
      </trkpt>
      <trkpt lat="36.7761460" lon="-3.0634080">
        <ele>514.6</ele>
        <time>2022-11-01T09:27:51Z</time>
      </trkpt>
      <trkpt lat="36.7761290" lon="-3.0634390">
        <ele>514.6</ele>
        <time>2022-11-01T09:27:52Z</time>
      </trkpt>
      <trkpt lat="36.7761110" lon="-3.0634690">
        <ele>514.8</ele>
        <time>2022-11-01T09:27:53Z</time>
      </trkpt>
      <trkpt lat="36.7760860" lon="-3.0634930">
        <ele>514.8</ele>
        <time>2022-11-01T09:27:54Z</time>
      </trkpt>
      <trkpt lat="36.7760590" lon="-3.0635140">
        <ele>515.0</ele>
        <time>2022-11-01T09:27:55Z</time>
      </trkpt>
      <trkpt lat="36.7760310" lon="-3.0635310">
        <ele>515.2</ele>
        <time>2022-11-01T09:27:56Z</time>
      </trkpt>
      <trkpt lat="36.7760020" lon="-3.0635470">
        <ele>515.2</ele>
        <time>2022-11-01T09:27:57Z</time>
      </trkpt>
      <trkpt lat="36.7759750" lon="-3.0635650">
        <ele>515.4</ele>
        <time>2022-11-01T09:27:58Z</time>
      </trkpt>
      <trkpt lat="36.7759520" lon="-3.0635870">
        <ele>515.6</ele>
        <time>2022-11-01T09:27:59Z</time>
      </trkpt>
      <trkpt lat="36.7759330" lon="-3.0636100">
        <ele>515.8</ele>
        <time>2022-11-01T09:28:00Z</time>
      </trkpt>
      <trkpt lat="36.7759130" lon="-3.0636330">
        <ele>515.8</ele>
        <time>2022-11-01T09:28:01Z</time>
      </trkpt>
      <trkpt lat="36.7758940" lon="-3.0636560">
        <ele>516.0</ele>
        <time>2022-11-01T09:28:02Z</time>
      </trkpt>
      <trkpt lat="36.7758800" lon="-3.0636820">
        <ele>516.2</ele>
        <time>2022-11-01T09:28:03Z</time>
      </trkpt>
      <trkpt lat="36.7758740" lon="-3.0637090">
        <ele>516.4</ele>
        <time>2022-11-01T09:28:04Z</time>
      </trkpt>
      <trkpt lat="36.7758720" lon="-3.0637380">
        <ele>516.6</ele>
        <time>2022-11-01T09:28:05Z</time>
      </trkpt>
      <trkpt lat="36.7758690" lon="-3.0637670">
        <ele>516.8</ele>
        <time>2022-11-01T09:28:06Z</time>
      </trkpt>
      <trkpt lat="36.7758690" lon="-3.0637960">
        <ele>517.0</ele>
        <time>2022-11-01T09:28:07Z</time>
      </trkpt>
      <trkpt lat="36.7758700" lon="-3.0638240">
        <ele>517.2</ele>
        <time>2022-11-01T09:28:08Z</time>
      </trkpt>
      <trkpt lat="36.7758710" lon="-3.0638530">
        <ele>517.2</ele>
        <time>2022-11-01T09:28:09Z</time>
      </trkpt>
      <trkpt lat="36.7758730" lon="-3.0638830">
        <ele>517.4</ele>
        <time>2022-11-01T09:28:10Z</time>
      </trkpt>
      <trkpt lat="36.7758750" lon="-3.0639130">
        <ele>517.8</ele>
        <time>2022-11-01T09:28:11Z</time>
      </trkpt>
      <trkpt lat="36.7758770" lon="-3.0639420">
        <ele>517.8</ele>
        <time>2022-11-01T09:28:12Z</time>
      </trkpt>
      <trkpt lat="36.7758790" lon="-3.0639730">
        <ele>518.0</ele>
        <time>2022-11-01T09:28:13Z</time>
      </trkpt>
      <trkpt lat="36.7758800" lon="-3.0640030">
        <ele>518.2</ele>
        <time>2022-11-01T09:28:14Z</time>
      </trkpt>
      <trkpt lat="36.7758810" lon="-3.0640330">
        <ele>518.4</ele>
        <time>2022-11-01T09:28:15Z</time>
      </trkpt>
      <trkpt lat="36.7758830" lon="-3.0640610">
        <ele>518.6</ele>
        <time>2022-11-01T09:28:16Z</time>
      </trkpt>
      <trkpt lat="36.7758850" lon="-3.0640880">
        <ele>518.8</ele>
        <time>2022-11-01T09:28:17Z</time>
      </trkpt>
      <trkpt lat="36.7758850" lon="-3.0641150">
        <ele>519.0</ele>
        <time>2022-11-01T09:28:18Z</time>
      </trkpt>
      <trkpt lat="36.7758850" lon="-3.0641460">
        <ele>519.2</ele>
        <time>2022-11-01T09:28:19Z</time>
      </trkpt>
      <trkpt lat="36.7758870" lon="-3.0641740">
        <ele>519.2</ele>
        <time>2022-11-01T09:28:20Z</time>
      </trkpt>
      <trkpt lat="36.7758860" lon="-3.0642020">
        <ele>519.4</ele>
        <time>2022-11-01T09:28:21Z</time>
      </trkpt>
      <trkpt lat="36.7758870" lon="-3.0642270">
        <ele>519.6</ele>
        <time>2022-11-01T09:28:22Z</time>
      </trkpt>
      <trkpt lat="36.7758830" lon="-3.0642550">
        <ele>519.8</ele>
        <time>2022-11-01T09:28:23Z</time>
      </trkpt>
      <trkpt lat="36.7758790" lon="-3.0642830">
        <ele>519.8</ele>
        <time>2022-11-01T09:28:24Z</time>
      </trkpt>
      <trkpt lat="36.7758740" lon="-3.0643130">
        <ele>520.0</ele>
        <time>2022-11-01T09:28:25Z</time>
      </trkpt>
      <trkpt lat="36.7758670" lon="-3.0643410">
        <ele>520.2</ele>
        <time>2022-11-01T09:28:26Z</time>
      </trkpt>
      <trkpt lat="36.7758580" lon="-3.0643720">
        <ele>520.2</ele>
        <time>2022-11-01T09:28:27Z</time>
      </trkpt>
      <trkpt lat="36.7758470" lon="-3.0644020">
        <ele>520.4</ele>
        <time>2022-11-01T09:28:28Z</time>
      </trkpt>
      <trkpt lat="36.7758380" lon="-3.0644320">
        <ele>520.4</ele>
        <time>2022-11-01T09:28:29Z</time>
      </trkpt>
      <trkpt lat="36.7758250" lon="-3.0644630">
        <ele>520.6</ele>
        <time>2022-11-01T09:28:30Z</time>
      </trkpt>
      <trkpt lat="36.7758090" lon="-3.0644930">
        <ele>520.8</ele>
        <time>2022-11-01T09:28:31Z</time>
      </trkpt>
      <trkpt lat="36.7757910" lon="-3.0645210">
        <ele>521.0</ele>
        <time>2022-11-01T09:28:32Z</time>
      </trkpt>
      <trkpt lat="36.7757660" lon="-3.0645410">
        <ele>521.0</ele>
        <time>2022-11-01T09:28:33Z</time>
      </trkpt>
      <trkpt lat="36.7757350" lon="-3.0645570">
        <ele>521.0</ele>
        <time>2022-11-01T09:28:34Z</time>
      </trkpt>
      <trkpt lat="36.7757060" lon="-3.0645730">
        <ele>521.2</ele>
        <time>2022-11-01T09:28:35Z</time>
      </trkpt>
      <trkpt lat="36.7756770" lon="-3.0645840">
        <ele>521.2</ele>
        <time>2022-11-01T09:28:36Z</time>
      </trkpt>
      <trkpt lat="36.7756460" lon="-3.0645940">
        <ele>521.4</ele>
        <time>2022-11-01T09:28:37Z</time>
      </trkpt>
      <trkpt lat="36.7756140" lon="-3.0646070">
        <ele>521.4</ele>
        <time>2022-11-01T09:28:38Z</time>
      </trkpt>
      <trkpt lat="36.7755840" lon="-3.0646240">
        <ele>521.6</ele>
        <time>2022-11-01T09:28:39Z</time>
      </trkpt>
      <trkpt lat="36.7755570" lon="-3.0646460">
        <ele>521.8</ele>
        <time>2022-11-01T09:28:40Z</time>
      </trkpt>
      <trkpt lat="36.7755300" lon="-3.0646710">
        <ele>521.8</ele>
        <time>2022-11-01T09:28:41Z</time>
      </trkpt>
      <trkpt lat="36.7755080" lon="-3.0647000">
        <ele>522.0</ele>
        <time>2022-11-01T09:28:42Z</time>
      </trkpt>
      <trkpt lat="36.7754880" lon="-3.0647310">
        <ele>522.2</ele>
        <time>2022-11-01T09:28:43Z</time>
      </trkpt>
      <trkpt lat="36.7754720" lon="-3.0647630">
        <ele>522.4</ele>
        <time>2022-11-01T09:28:44Z</time>
      </trkpt>
      <trkpt lat="36.7754580" lon="-3.0647960">
        <ele>522.4</ele>
        <time>2022-11-01T09:28:45Z</time>
      </trkpt>
      <trkpt lat="36.7754460" lon="-3.0648260">
        <ele>522.6</ele>
        <time>2022-11-01T09:28:46Z</time>
      </trkpt>
      <trkpt lat="36.7754330" lon="-3.0648570">
        <ele>522.8</ele>
        <time>2022-11-01T09:28:47Z</time>
      </trkpt>
      <trkpt lat="36.7754190" lon="-3.0648910">
        <ele>523.0</ele>
        <time>2022-11-01T09:28:48Z</time>
      </trkpt>
      <trkpt lat="36.7754050" lon="-3.0649240">
        <ele>523.2</ele>
        <time>2022-11-01T09:28:49Z</time>
      </trkpt>
      <trkpt lat="36.7753910" lon="-3.0649580">
        <ele>523.4</ele>
        <time>2022-11-01T09:28:50Z</time>
      </trkpt>
      <trkpt lat="36.7753780" lon="-3.0649920">
        <ele>523.6</ele>
        <time>2022-11-01T09:28:51Z</time>
      </trkpt>
      <trkpt lat="36.7753640" lon="-3.0650240">
        <ele>523.8</ele>
        <time>2022-11-01T09:28:52Z</time>
      </trkpt>
      <trkpt lat="36.7753500" lon="-3.0650560">
        <ele>524.0</ele>
        <time>2022-11-01T09:28:53Z</time>
      </trkpt>
      <trkpt lat="36.7753350" lon="-3.0650850">
        <ele>524.2</ele>
        <time>2022-11-01T09:28:54Z</time>
      </trkpt>
      <trkpt lat="36.7753230" lon="-3.0651160">
        <ele>524.4</ele>
        <time>2022-11-01T09:28:55Z</time>
      </trkpt>
      <trkpt lat="36.7753110" lon="-3.0651480">
        <ele>524.4</ele>
        <time>2022-11-01T09:28:56Z</time>
      </trkpt>
      <trkpt lat="36.7752980" lon="-3.0651790">
        <ele>524.8</ele>
        <time>2022-11-01T09:28:57Z</time>
      </trkpt>
      <trkpt lat="36.7752820" lon="-3.0652090">
        <ele>525.0</ele>
        <time>2022-11-01T09:28:58Z</time>
      </trkpt>
      <trkpt lat="36.7752650" lon="-3.0652390">
        <ele>525.0</ele>
        <time>2022-11-01T09:28:59Z</time>
      </trkpt>
      <trkpt lat="36.7752470" lon="-3.0652690">
        <ele>525.2</ele>
        <time>2022-11-01T09:29:00Z</time>
      </trkpt>
      <trkpt lat="36.7752280" lon="-3.0652980">
        <ele>525.4</ele>
        <time>2022-11-01T09:29:01Z</time>
      </trkpt>
      <trkpt lat="36.7752070" lon="-3.0653260">
        <ele>525.4</ele>
        <time>2022-11-01T09:29:02Z</time>
      </trkpt>
      <trkpt lat="36.7751870" lon="-3.0653550">
        <ele>525.6</ele>
        <time>2022-11-01T09:29:03Z</time>
      </trkpt>
      <trkpt lat="36.7751680" lon="-3.0653860">
        <ele>525.6</ele>
        <time>2022-11-01T09:29:04Z</time>
      </trkpt>
      <trkpt lat="36.7751490" lon="-3.0654180">
        <ele>525.8</ele>
        <time>2022-11-01T09:29:05Z</time>
      </trkpt>
      <trkpt lat="36.7751300" lon="-3.0654510">
        <ele>525.8</ele>
        <time>2022-11-01T09:29:06Z</time>
      </trkpt>
      <trkpt lat="36.7751100" lon="-3.0654820">
        <ele>526.0</ele>
        <time>2022-11-01T09:29:07Z</time>
      </trkpt>
      <trkpt lat="36.7750910" lon="-3.0655130">
        <ele>526.2</ele>
        <time>2022-11-01T09:29:08Z</time>
      </trkpt>
      <trkpt lat="36.7750730" lon="-3.0655450">
        <ele>526.4</ele>
        <time>2022-11-01T09:29:09Z</time>
      </trkpt>
      <trkpt lat="36.7750570" lon="-3.0655800">
        <ele>526.4</ele>
        <time>2022-11-01T09:29:10Z</time>
      </trkpt>
      <trkpt lat="36.7750450" lon="-3.0656180">
        <ele>526.6</ele>
        <time>2022-11-01T09:29:11Z</time>
      </trkpt>
      <trkpt lat="36.7750420" lon="-3.0656570">
        <ele>526.8</ele>
        <time>2022-11-01T09:29:12Z</time>
      </trkpt>
      <trkpt lat="36.7750450" lon="-3.0656950">
        <ele>527.0</ele>
        <time>2022-11-01T09:29:13Z</time>
      </trkpt>
      <trkpt lat="36.7750530" lon="-3.0657300">
        <ele>527.2</ele>
        <time>2022-11-01T09:29:14Z</time>
      </trkpt>
      <trkpt lat="36.7750660" lon="-3.0657620">
        <ele>527.4</ele>
        <time>2022-11-01T09:29:15Z</time>
      </trkpt>
      <trkpt lat="36.7750880" lon="-3.0657850">
        <ele>527.6</ele>
        <time>2022-11-01T09:29:16Z</time>
      </trkpt>
      <trkpt lat="36.7751120" lon="-3.0658040">
        <ele>527.6</ele>
        <time>2022-11-01T09:29:17Z</time>
      </trkpt>
      <trkpt lat="36.7751400" lon="-3.0658150">
        <ele>527.8</ele>
        <time>2022-11-01T09:29:18Z</time>
      </trkpt>
      <trkpt lat="36.7751660" lon="-3.0658230">
        <ele>528.0</ele>
        <time>2022-11-01T09:29:19Z</time>
      </trkpt>
      <trkpt lat="36.7751930" lon="-3.0658250">
        <ele>528.2</ele>
        <time>2022-11-01T09:29:20Z</time>
      </trkpt>
      <trkpt lat="36.7752210" lon="-3.0658260">
        <ele>528.4</ele>
        <time>2022-11-01T09:29:21Z</time>
      </trkpt>
      <trkpt lat="36.7752500" lon="-3.0658230">
        <ele>528.6</ele>
        <time>2022-11-01T09:29:22Z</time>
      </trkpt>
      <trkpt lat="36.7752760" lon="-3.0658160">
        <ele>528.8</ele>
        <time>2022-11-01T09:29:23Z</time>
      </trkpt>
      <trkpt lat="36.7753070" lon="-3.0658130">
        <ele>529.0</ele>
        <time>2022-11-01T09:29:24Z</time>
      </trkpt>
      <trkpt lat="36.7753640" lon="-3.0658200">
        <ele>529.0</ele>
        <time>2022-11-01T09:29:25Z</time>
      </trkpt>
      <trkpt lat="36.7753640" lon="-3.0658200">
        <ele>529.0</ele>
        <time>2022-11-01T09:29:26Z</time>
      </trkpt>
      <trkpt lat="36.7753940" lon="-3.0658270">
        <ele>529.2</ele>
        <time>2022-11-01T09:29:27Z</time>
      </trkpt>
      <trkpt lat="36.7754260" lon="-3.0658370">
        <ele>529.4</ele>
        <time>2022-11-01T09:29:28Z</time>
      </trkpt>
      <trkpt lat="36.7754580" lon="-3.0658450">
        <ele>529.6</ele>
        <time>2022-11-01T09:29:29Z</time>
      </trkpt>
      <trkpt lat="36.7754860" lon="-3.0658510">
        <ele>529.6</ele>
        <time>2022-11-01T09:29:30Z</time>
      </trkpt>
      <trkpt lat="36.7755150" lon="-3.0658650">
        <ele>530.0</ele>
        <time>2022-11-01T09:29:31Z</time>
      </trkpt>
      <trkpt lat="36.7755440" lon="-3.0658790">
        <ele>530.0</ele>
        <time>2022-11-01T09:29:32Z</time>
      </trkpt>
      <trkpt lat="36.7755740" lon="-3.0658910">
        <ele>530.2</ele>
        <time>2022-11-01T09:29:33Z</time>
      </trkpt>
      <trkpt lat="36.7756040" lon="-3.0658990">
        <ele>530.4</ele>
        <time>2022-11-01T09:29:34Z</time>
      </trkpt>
      <trkpt lat="36.7756340" lon="-3.0659080">
        <ele>530.6</ele>
        <time>2022-11-01T09:29:35Z</time>
      </trkpt>
      <trkpt lat="36.7756650" lon="-3.0659110">
        <ele>530.8</ele>
        <time>2022-11-01T09:29:36Z</time>
      </trkpt>
      <trkpt lat="36.7756950" lon="-3.0659130">
        <ele>531.0</ele>
        <time>2022-11-01T09:29:37Z</time>
      </trkpt>
      <trkpt lat="36.7757250" lon="-3.0659160">
        <ele>531.0</ele>
        <time>2022-11-01T09:29:38Z</time>
      </trkpt>
      <trkpt lat="36.7757540" lon="-3.0659200">
        <ele>531.4</ele>
        <time>2022-11-01T09:29:39Z</time>
      </trkpt>
      <trkpt lat="36.7757840" lon="-3.0659250">
        <ele>531.4</ele>
        <time>2022-11-01T09:29:40Z</time>
      </trkpt>
      <trkpt lat="36.7758140" lon="-3.0659300">
        <ele>531.6</ele>
        <time>2022-11-01T09:29:41Z</time>
      </trkpt>
      <trkpt lat="36.7758440" lon="-3.0659290">
        <ele>531.8</ele>
        <time>2022-11-01T09:29:42Z</time>
      </trkpt>
      <trkpt lat="36.7758740" lon="-3.0659300">
        <ele>532.0</ele>
        <time>2022-11-01T09:29:43Z</time>
      </trkpt>
      <trkpt lat="36.7759050" lon="-3.0659350">
        <ele>532.2</ele>
        <time>2022-11-01T09:29:44Z</time>
      </trkpt>
      <trkpt lat="36.7759330" lon="-3.0659400">
        <ele>532.4</ele>
        <time>2022-11-01T09:29:45Z</time>
      </trkpt>
      <trkpt lat="36.7759610" lon="-3.0659410">
        <ele>532.6</ele>
        <time>2022-11-01T09:29:46Z</time>
      </trkpt>
      <trkpt lat="36.7759900" lon="-3.0659460">
        <ele>532.8</ele>
        <time>2022-11-01T09:29:47Z</time>
      </trkpt>
      <trkpt lat="36.7760170" lon="-3.0659500">
        <ele>533.0</ele>
        <time>2022-11-01T09:29:48Z</time>
      </trkpt>
      <trkpt lat="36.7760400" lon="-3.0659590">
        <ele>533.0</ele>
        <time>2022-11-01T09:29:49Z</time>
      </trkpt>
      <trkpt lat="36.7760650" lon="-3.0659790">
        <ele>533.2</ele>
        <time>2022-11-01T09:29:50Z</time>
      </trkpt>
      <trkpt lat="36.7760910" lon="-3.0659940">
        <ele>533.2</ele>
        <time>2022-11-01T09:29:51Z</time>
      </trkpt>
      <trkpt lat="36.7761180" lon="-3.0660080">
        <ele>533.4</ele>
        <time>2022-11-01T09:29:52Z</time>
      </trkpt>
      <trkpt lat="36.7761460" lon="-3.0660240">
        <ele>533.6</ele>
        <time>2022-11-01T09:29:53Z</time>
      </trkpt>
      <trkpt lat="36.7761750" lon="-3.0660380">
        <ele>533.6</ele>
        <time>2022-11-01T09:29:54Z</time>
      </trkpt>
      <trkpt lat="36.7762030" lon="-3.0660560">
        <ele>533.8</ele>
        <time>2022-11-01T09:29:55Z</time>
      </trkpt>
      <trkpt lat="36.7762310" lon="-3.0660700">
        <ele>533.8</ele>
        <time>2022-11-01T09:29:56Z</time>
      </trkpt>
      <trkpt lat="36.7762580" lon="-3.0660920">
        <ele>534.0</ele>
        <time>2022-11-01T09:29:57Z</time>
      </trkpt>
      <trkpt lat="36.7762840" lon="-3.0661130">
        <ele>534.2</ele>
        <time>2022-11-01T09:29:58Z</time>
      </trkpt>
      <trkpt lat="36.7763120" lon="-3.0661330">
        <ele>534.4</ele>
        <time>2022-11-01T09:29:59Z</time>
      </trkpt>
      <trkpt lat="36.7763410" lon="-3.0661530">
        <ele>534.4</ele>
        <time>2022-11-01T09:30:00Z</time>
      </trkpt>
      <trkpt lat="36.7763700" lon="-3.0661690">
        <ele>534.6</ele>
        <time>2022-11-01T09:30:01Z</time>
      </trkpt>
      <trkpt lat="36.7763970" lon="-3.0661850">
        <ele>534.8</ele>
        <time>2022-11-01T09:30:02Z</time>
      </trkpt>
      <trkpt lat="36.7764240" lon="-3.0661990">
        <ele>535.0</ele>
        <time>2022-11-01T09:30:03Z</time>
      </trkpt>
      <trkpt lat="36.7764520" lon="-3.0662100">
        <ele>535.0</ele>
        <time>2022-11-01T09:30:04Z</time>
      </trkpt>
      <trkpt lat="36.7764800" lon="-3.0662190">
        <ele>535.2</ele>
        <time>2022-11-01T09:30:05Z</time>
      </trkpt>
      <trkpt lat="36.7765060" lon="-3.0662300">
        <ele>535.4</ele>
        <time>2022-11-01T09:30:06Z</time>
      </trkpt>
      <trkpt lat="36.7765330" lon="-3.0662400">
        <ele>535.6</ele>
        <time>2022-11-01T09:30:07Z</time>
      </trkpt>
      <trkpt lat="36.7765590" lon="-3.0662480">
        <ele>535.8</ele>
        <time>2022-11-01T09:30:08Z</time>
      </trkpt>
      <trkpt lat="36.7765850" lon="-3.0662530">
        <ele>536.0</ele>
        <time>2022-11-01T09:30:09Z</time>
      </trkpt>
      <trkpt lat="36.7766110" lon="-3.0662600">
        <ele>536.4</ele>
        <time>2022-11-01T09:30:10Z</time>
      </trkpt>
      <trkpt lat="36.7766350" lon="-3.0662650">
        <ele>536.4</ele>
        <time>2022-11-01T09:30:11Z</time>
      </trkpt>
      <trkpt lat="36.7766610" lon="-3.0662700">
        <ele>536.6</ele>
        <time>2022-11-01T09:30:12Z</time>
      </trkpt>
      <trkpt lat="36.7766870" lon="-3.0662760">
        <ele>536.8</ele>
        <time>2022-11-01T09:30:13Z</time>
      </trkpt>
      <trkpt lat="36.7767120" lon="-3.0662810">
        <ele>537.0</ele>
        <time>2022-11-01T09:30:14Z</time>
      </trkpt>
      <trkpt lat="36.7767360" lon="-3.0662870">
        <ele>537.2</ele>
        <time>2022-11-01T09:30:15Z</time>
      </trkpt>
      <trkpt lat="36.7767590" lon="-3.0662940">
        <ele>537.4</ele>
        <time>2022-11-01T09:30:16Z</time>
      </trkpt>
      <trkpt lat="36.7767800" lon="-3.0663000">
        <ele>537.6</ele>
        <time>2022-11-01T09:30:17Z</time>
      </trkpt>
      <trkpt lat="36.7768030" lon="-3.0663090">
        <ele>537.8</ele>
        <time>2022-11-01T09:30:18Z</time>
      </trkpt>
      <trkpt lat="36.7768260" lon="-3.0663200">
        <ele>538.0</ele>
        <time>2022-11-01T09:30:19Z</time>
      </trkpt>
      <trkpt lat="36.7768490" lon="-3.0663310">
        <ele>538.4</ele>
        <time>2022-11-01T09:30:20Z</time>
      </trkpt>
      <trkpt lat="36.7768710" lon="-3.0663420">
        <ele>538.4</ele>
        <time>2022-11-01T09:30:21Z</time>
      </trkpt>
      <trkpt lat="36.7768940" lon="-3.0663560">
        <ele>538.6</ele>
        <time>2022-11-01T09:30:22Z</time>
      </trkpt>
      <trkpt lat="36.7769140" lon="-3.0663750">
        <ele>538.8</ele>
        <time>2022-11-01T09:30:23Z</time>
      </trkpt>
      <trkpt lat="36.7769340" lon="-3.0663920">
        <ele>539.0</ele>
        <time>2022-11-01T09:30:24Z</time>
      </trkpt>
      <trkpt lat="36.7769560" lon="-3.0664040">
        <ele>539.2</ele>
        <time>2022-11-01T09:30:25Z</time>
      </trkpt>
      <trkpt lat="36.7769750" lon="-3.0664130">
        <ele>539.4</ele>
        <time>2022-11-01T09:30:26Z</time>
      </trkpt>
      <trkpt lat="36.7769900" lon="-3.0664310">
        <ele>539.6</ele>
        <time>2022-11-01T09:30:27Z</time>
      </trkpt>
      <trkpt lat="36.7770050" lon="-3.0664520">
        <ele>539.8</ele>
        <time>2022-11-01T09:30:28Z</time>
      </trkpt>
      <trkpt lat="36.7770210" lon="-3.0664740">
        <ele>540.0</ele>
        <time>2022-11-01T09:30:29Z</time>
      </trkpt>
      <trkpt lat="36.7770400" lon="-3.0664900">
        <ele>540.2</ele>
        <time>2022-11-01T09:30:30Z</time>
      </trkpt>
      <trkpt lat="36.7770590" lon="-3.0665090">
        <ele>540.4</ele>
        <time>2022-11-01T09:30:31Z</time>
      </trkpt>
      <trkpt lat="36.7770770" lon="-3.0665270">
        <ele>540.6</ele>
        <time>2022-11-01T09:30:32Z</time>
      </trkpt>
      <trkpt lat="36.7770960" lon="-3.0665430">
        <ele>540.8</ele>
        <time>2022-11-01T09:30:33Z</time>
      </trkpt>
      <trkpt lat="36.7771150" lon="-3.0665580">
        <ele>541.0</ele>
        <time>2022-11-01T09:30:34Z</time>
      </trkpt>
      <trkpt lat="36.7771340" lon="-3.0665720">
        <ele>541.2</ele>
        <time>2022-11-01T09:30:35Z</time>
      </trkpt>
      <trkpt lat="36.7771550" lon="-3.0665810">
        <ele>541.4</ele>
        <time>2022-11-01T09:30:36Z</time>
      </trkpt>
      <trkpt lat="36.7771790" lon="-3.0665870">
        <ele>541.6</ele>
        <time>2022-11-01T09:30:37Z</time>
      </trkpt>
      <trkpt lat="36.7772030" lon="-3.0665940">
        <ele>541.8</ele>
        <time>2022-11-01T09:30:38Z</time>
      </trkpt>
      <trkpt lat="36.7772280" lon="-3.0666000">
        <ele>542.0</ele>
        <time>2022-11-01T09:30:39Z</time>
      </trkpt>
      <trkpt lat="36.7772530" lon="-3.0666050">
        <ele>542.0</ele>
        <time>2022-11-01T09:30:40Z</time>
      </trkpt>
      <trkpt lat="36.7772770" lon="-3.0666080">
        <ele>542.4</ele>
        <time>2022-11-01T09:30:41Z</time>
      </trkpt>
      <trkpt lat="36.7773000" lon="-3.0666090">
        <ele>542.4</ele>
        <time>2022-11-01T09:30:42Z</time>
      </trkpt>
      <trkpt lat="36.7773240" lon="-3.0666070">
        <ele>542.6</ele>
        <time>2022-11-01T09:30:43Z</time>
      </trkpt>
      <trkpt lat="36.7773470" lon="-3.0666020">
        <ele>542.8</ele>
        <time>2022-11-01T09:30:44Z</time>
      </trkpt>
      <trkpt lat="36.7773680" lon="-3.0665920">
        <ele>543.0</ele>
        <time>2022-11-01T09:30:45Z</time>
      </trkpt>
      <trkpt lat="36.7773870" lon="-3.0665780">
        <ele>543.2</ele>
        <time>2022-11-01T09:30:46Z</time>
      </trkpt>
      <trkpt lat="36.7774070" lon="-3.0665660">
        <ele>543.4</ele>
        <time>2022-11-01T09:30:47Z</time>
      </trkpt>
      <trkpt lat="36.7774260" lon="-3.0665550">
        <ele>543.6</ele>
        <time>2022-11-01T09:30:48Z</time>
      </trkpt>
      <trkpt lat="36.7774430" lon="-3.0665410">
        <ele>543.6</ele>
        <time>2022-11-01T09:30:49Z</time>
      </trkpt>
      <trkpt lat="36.7774580" lon="-3.0665270">
        <ele>543.8</ele>
        <time>2022-11-01T09:30:50Z</time>
      </trkpt>
      <trkpt lat="36.7774780" lon="-3.0665180">
        <ele>544.0</ele>
        <time>2022-11-01T09:30:51Z</time>
      </trkpt>
      <trkpt lat="36.7774980" lon="-3.0665090">
        <ele>544.2</ele>
        <time>2022-11-01T09:30:52Z</time>
      </trkpt>
      <trkpt lat="36.7775190" lon="-3.0664990">
        <ele>544.4</ele>
        <time>2022-11-01T09:30:53Z</time>
      </trkpt>
      <trkpt lat="36.7775410" lon="-3.0664880">
        <ele>544.6</ele>
        <time>2022-11-01T09:30:54Z</time>
      </trkpt>
      <trkpt lat="36.7775630" lon="-3.0664770">
        <ele>544.8</ele>
        <time>2022-11-01T09:30:55Z</time>
      </trkpt>
      <trkpt lat="36.7775860" lon="-3.0664680">
        <ele>544.8</ele>
        <time>2022-11-01T09:30:56Z</time>
      </trkpt>
      <trkpt lat="36.7776100" lon="-3.0664610">
        <ele>545.0</ele>
        <time>2022-11-01T09:30:57Z</time>
      </trkpt>
      <trkpt lat="36.7776330" lon="-3.0664530">
        <ele>545.2</ele>
        <time>2022-11-01T09:30:58Z</time>
      </trkpt>
      <trkpt lat="36.7776560" lon="-3.0664460">
        <ele>545.4</ele>
        <time>2022-11-01T09:30:59Z</time>
      </trkpt>
      <trkpt lat="36.7776780" lon="-3.0664410">
        <ele>545.6</ele>
        <time>2022-11-01T09:31:00Z</time>
      </trkpt>
      <trkpt lat="36.7777010" lon="-3.0664380">
        <ele>545.6</ele>
        <time>2022-11-01T09:31:01Z</time>
      </trkpt>
      <trkpt lat="36.7777240" lon="-3.0664360">
        <ele>545.8</ele>
        <time>2022-11-01T09:31:02Z</time>
      </trkpt>
      <trkpt lat="36.7777480" lon="-3.0664320">
        <ele>546.0</ele>
        <time>2022-11-01T09:31:03Z</time>
      </trkpt>
      <trkpt lat="36.7777720" lon="-3.0664290">
        <ele>546.2</ele>
        <time>2022-11-01T09:31:04Z</time>
      </trkpt>
      <trkpt lat="36.7777970" lon="-3.0664270">
        <ele>546.4</ele>
        <time>2022-11-01T09:31:05Z</time>
      </trkpt>
      <trkpt lat="36.7778210" lon="-3.0664230">
        <ele>546.6</ele>
        <time>2022-11-01T09:31:06Z</time>
      </trkpt>
      <trkpt lat="36.7778460" lon="-3.0664200">
        <ele>546.6</ele>
        <time>2022-11-01T09:31:07Z</time>
      </trkpt>
      <trkpt lat="36.7778700" lon="-3.0664170">
        <ele>547.0</ele>
        <time>2022-11-01T09:31:08Z</time>
      </trkpt>
      <trkpt lat="36.7778940" lon="-3.0664120">
        <ele>547.0</ele>
        <time>2022-11-01T09:31:09Z</time>
      </trkpt>
      <trkpt lat="36.7779170" lon="-3.0664060">
        <ele>547.2</ele>
        <time>2022-11-01T09:31:10Z</time>
      </trkpt>
      <trkpt lat="36.7779400" lon="-3.0664000">
        <ele>547.4</ele>
        <time>2022-11-01T09:31:11Z</time>
      </trkpt>
      <trkpt lat="36.7779690" lon="-3.0663980">
        <ele>547.6</ele>
        <time>2022-11-01T09:31:12Z</time>
      </trkpt>
      <trkpt lat="36.7779930" lon="-3.0663970">
        <ele>547.8</ele>
        <time>2022-11-01T09:31:13Z</time>
      </trkpt>
      <trkpt lat="36.7780170" lon="-3.0663970">
        <ele>548.0</ele>
        <time>2022-11-01T09:31:14Z</time>
      </trkpt>
      <trkpt lat="36.7780410" lon="-3.0663940">
        <ele>548.2</ele>
        <time>2022-11-01T09:31:15Z</time>
      </trkpt>
      <trkpt lat="36.7780630" lon="-3.0663890">
        <ele>548.4</ele>
        <time>2022-11-01T09:31:16Z</time>
      </trkpt>
      <trkpt lat="36.7780840" lon="-3.0663810">
        <ele>548.6</ele>
        <time>2022-11-01T09:31:17Z</time>
      </trkpt>
      <trkpt lat="36.7781050" lon="-3.0663690">
        <ele>548.8</ele>
        <time>2022-11-01T09:31:18Z</time>
      </trkpt>
      <trkpt lat="36.7781230" lon="-3.0663520">
        <ele>549.0</ele>
        <time>2022-11-01T09:31:19Z</time>
      </trkpt>
      <trkpt lat="36.7781380" lon="-3.0663340">
        <ele>549.2</ele>
        <time>2022-11-01T09:31:20Z</time>
      </trkpt>
      <trkpt lat="36.7781550" lon="-3.0663160">
        <ele>549.4</ele>
        <time>2022-11-01T09:31:21Z</time>
      </trkpt>
      <trkpt lat="36.7781710" lon="-3.0662970">
        <ele>549.6</ele>
        <time>2022-11-01T09:31:22Z</time>
      </trkpt>
      <trkpt lat="36.7781880" lon="-3.0662790">
        <ele>549.8</ele>
        <time>2022-11-01T09:31:23Z</time>
      </trkpt>
      <trkpt lat="36.7782040" lon="-3.0662610">
        <ele>549.8</ele>
        <time>2022-11-01T09:31:24Z</time>
      </trkpt>
      <trkpt lat="36.7782190" lon="-3.0662430">
        <ele>550.0</ele>
        <time>2022-11-01T09:31:25Z</time>
      </trkpt>
      <trkpt lat="36.7782360" lon="-3.0662240">
        <ele>550.2</ele>
        <time>2022-11-01T09:31:26Z</time>
      </trkpt>
      <trkpt lat="36.7782510" lon="-3.0662050">
        <ele>550.4</ele>
        <time>2022-11-01T09:31:27Z</time>
      </trkpt>
      <trkpt lat="36.7782680" lon="-3.0661890">
        <ele>550.6</ele>
        <time>2022-11-01T09:31:28Z</time>
      </trkpt>
      <trkpt lat="36.7782880" lon="-3.0661750">
        <ele>550.8</ele>
        <time>2022-11-01T09:31:29Z</time>
      </trkpt>
      <trkpt lat="36.7783080" lon="-3.0661620">
        <ele>551.0</ele>
        <time>2022-11-01T09:31:30Z</time>
      </trkpt>
      <trkpt lat="36.7783290" lon="-3.0661500">
        <ele>551.2</ele>
        <time>2022-11-01T09:31:31Z</time>
      </trkpt>
      <trkpt lat="36.7783490" lon="-3.0661390">
        <ele>551.4</ele>
        <time>2022-11-01T09:31:32Z</time>
      </trkpt>
      <trkpt lat="36.7783710" lon="-3.0661340">
        <ele>551.6</ele>
        <time>2022-11-01T09:31:33Z</time>
      </trkpt>
      <trkpt lat="36.7783920" lon="-3.0661310">
        <ele>551.8</ele>
        <time>2022-11-01T09:31:34Z</time>
      </trkpt>
      <trkpt lat="36.7784130" lon="-3.0661260">
        <ele>551.8</ele>
        <time>2022-11-01T09:31:35Z</time>
      </trkpt>
      <trkpt lat="36.7784340" lon="-3.0661250">
        <ele>552.2</ele>
        <time>2022-11-01T09:31:36Z</time>
      </trkpt>
      <trkpt lat="36.7784550" lon="-3.0661280">
        <ele>552.4</ele>
        <time>2022-11-01T09:31:37Z</time>
      </trkpt>
      <trkpt lat="36.7784750" lon="-3.0661270">
        <ele>552.6</ele>
        <time>2022-11-01T09:31:38Z</time>
      </trkpt>
      <trkpt lat="36.7784960" lon="-3.0661310">
        <ele>552.8</ele>
        <time>2022-11-01T09:31:39Z</time>
      </trkpt>
      <trkpt lat="36.7785170" lon="-3.0661410">
        <ele>553.0</ele>
        <time>2022-11-01T09:31:40Z</time>
      </trkpt>
      <trkpt lat="36.7785390" lon="-3.0661490">
        <ele>553.0</ele>
        <time>2022-11-01T09:31:41Z</time>
      </trkpt>
      <trkpt lat="36.7785630" lon="-3.0661510">
        <ele>553.2</ele>
        <time>2022-11-01T09:31:42Z</time>
      </trkpt>
      <trkpt lat="36.7785870" lon="-3.0661500">
        <ele>553.4</ele>
        <time>2022-11-01T09:31:43Z</time>
      </trkpt>
      <trkpt lat="36.7786090" lon="-3.0661440">
        <ele>553.6</ele>
        <time>2022-11-01T09:31:44Z</time>
      </trkpt>
      <trkpt lat="36.7786290" lon="-3.0661310">
        <ele>553.8</ele>
        <time>2022-11-01T09:31:45Z</time>
      </trkpt>
      <trkpt lat="36.7786490" lon="-3.0661170">
        <ele>553.8</ele>
        <time>2022-11-01T09:31:46Z</time>
      </trkpt>
      <trkpt lat="36.7786710" lon="-3.0661050">
        <ele>554.0</ele>
        <time>2022-11-01T09:31:47Z</time>
      </trkpt>
      <trkpt lat="36.7786930" lon="-3.0660920">
        <ele>554.2</ele>
        <time>2022-11-01T09:31:48Z</time>
      </trkpt>
      <trkpt lat="36.7787130" lon="-3.0660770">
        <ele>554.4</ele>
        <time>2022-11-01T09:31:49Z</time>
      </trkpt>
      <trkpt lat="36.7787350" lon="-3.0660660">
        <ele>554.4</ele>
        <time>2022-11-01T09:31:50Z</time>
      </trkpt>
      <trkpt lat="36.7787570" lon="-3.0660560">
        <ele>554.6</ele>
        <time>2022-11-01T09:31:51Z</time>
      </trkpt>
      <trkpt lat="36.7787780" lon="-3.0660460">
        <ele>554.8</ele>
        <time>2022-11-01T09:31:52Z</time>
      </trkpt>
      <trkpt lat="36.7788000" lon="-3.0660410">
        <ele>555.0</ele>
        <time>2022-11-01T09:31:53Z</time>
      </trkpt>
      <trkpt lat="36.7788240" lon="-3.0660400">
        <ele>555.0</ele>
        <time>2022-11-01T09:31:54Z</time>
      </trkpt>
      <trkpt lat="36.7788470" lon="-3.0660370">
        <ele>555.2</ele>
        <time>2022-11-01T09:31:55Z</time>
      </trkpt>
      <trkpt lat="36.7788700" lon="-3.0660390">
        <ele>555.4</ele>
        <time>2022-11-01T09:31:56Z</time>
      </trkpt>
      <trkpt lat="36.7788920" lon="-3.0660460">
        <ele>555.6</ele>
        <time>2022-11-01T09:31:57Z</time>
      </trkpt>
      <trkpt lat="36.7789160" lon="-3.0660580">
        <ele>555.8</ele>
        <time>2022-11-01T09:31:58Z</time>
      </trkpt>
      <trkpt lat="36.7789390" lon="-3.0660730">
        <ele>555.8</ele>
        <time>2022-11-01T09:31:59Z</time>
      </trkpt>
      <trkpt lat="36.7789590" lon="-3.0660960">
        <ele>556.0</ele>
        <time>2022-11-01T09:32:00Z</time>
      </trkpt>
      <trkpt lat="36.7789750" lon="-3.0661190">
        <ele>556.2</ele>
        <time>2022-11-01T09:32:01Z</time>
      </trkpt>
      <trkpt lat="36.7789890" lon="-3.0661430">
        <ele>556.4</ele>
        <time>2022-11-01T09:32:02Z</time>
      </trkpt>
      <trkpt lat="36.7790030" lon="-3.0661660">
        <ele>556.6</ele>
        <time>2022-11-01T09:32:03Z</time>
      </trkpt>
      <trkpt lat="36.7790180" lon="-3.0661820">
        <ele>556.6</ele>
        <time>2022-11-01T09:32:04Z</time>
      </trkpt>
      <trkpt lat="36.7790330" lon="-3.0662000">
        <ele>556.8</ele>
        <time>2022-11-01T09:32:05Z</time>
      </trkpt>
      <trkpt lat="36.7790440" lon="-3.0662220">
        <ele>557.0</ele>
        <time>2022-11-01T09:32:06Z</time>
      </trkpt>
      <trkpt lat="36.7790550" lon="-3.0662480">
        <ele>557.2</ele>
        <time>2022-11-01T09:32:07Z</time>
      </trkpt>
      <trkpt lat="36.7790670" lon="-3.0662710">
        <ele>557.4</ele>
        <time>2022-11-01T09:32:08Z</time>
      </trkpt>
      <trkpt lat="36.7790790" lon="-3.0662950">
        <ele>557.6</ele>
        <time>2022-11-01T09:32:09Z</time>
      </trkpt>
      <trkpt lat="36.7790940" lon="-3.0663160">
        <ele>557.8</ele>
        <time>2022-11-01T09:32:10Z</time>
      </trkpt>
      <trkpt lat="36.7791120" lon="-3.0663350">
        <ele>557.8</ele>
        <time>2022-11-01T09:32:11Z</time>
      </trkpt>
      <trkpt lat="36.7791320" lon="-3.0663500">
        <ele>558.0</ele>
        <time>2022-11-01T09:32:12Z</time>
      </trkpt>
      <trkpt lat="36.7791530" lon="-3.0663620">
        <ele>558.2</ele>
        <time>2022-11-01T09:32:13Z</time>
      </trkpt>
      <trkpt lat="36.7791750" lon="-3.0663710">
        <ele>558.4</ele>
        <time>2022-11-01T09:32:14Z</time>
      </trkpt>
      <trkpt lat="36.7791950" lon="-3.0663820">
        <ele>558.4</ele>
        <time>2022-11-01T09:32:15Z</time>
      </trkpt>
      <trkpt lat="36.7792140" lon="-3.0663920">
        <ele>558.6</ele>
        <time>2022-11-01T09:32:16Z</time>
      </trkpt>
      <trkpt lat="36.7792330" lon="-3.0663990">
        <ele>558.8</ele>
        <time>2022-11-01T09:32:17Z</time>
      </trkpt>
      <trkpt lat="36.7792490" lon="-3.0664100">
        <ele>559.2</ele>
        <time>2022-11-01T09:32:18Z</time>
      </trkpt>
      <trkpt lat="36.7792660" lon="-3.0664270">
        <ele>559.2</ele>
        <time>2022-11-01T09:32:19Z</time>
      </trkpt>
      <trkpt lat="36.7792860" lon="-3.0664430">
        <ele>559.4</ele>
        <time>2022-11-01T09:32:20Z</time>
      </trkpt>
      <trkpt lat="36.7793050" lon="-3.0664660">
        <ele>559.6</ele>
        <time>2022-11-01T09:32:21Z</time>
      </trkpt>
      <trkpt lat="36.7793240" lon="-3.0664900">
        <ele>559.6</ele>
        <time>2022-11-01T09:32:22Z</time>
      </trkpt>
      <trkpt lat="36.7793420" lon="-3.0665130">
        <ele>559.8</ele>
        <time>2022-11-01T09:32:23Z</time>
      </trkpt>
      <trkpt lat="36.7793570" lon="-3.0665390">
        <ele>559.8</ele>
        <time>2022-11-01T09:32:24Z</time>
      </trkpt>
      <trkpt lat="36.7793670" lon="-3.0665650">
        <ele>560.0</ele>
        <time>2022-11-01T09:32:25Z</time>
      </trkpt>
      <trkpt lat="36.7793760" lon="-3.0665920">
        <ele>560.2</ele>
        <time>2022-11-01T09:32:26Z</time>
      </trkpt>
      <trkpt lat="36.7793870" lon="-3.0666180">
        <ele>560.4</ele>
        <time>2022-11-01T09:32:27Z</time>
      </trkpt>
      <trkpt lat="36.7794020" lon="-3.0666430">
        <ele>560.4</ele>
        <time>2022-11-01T09:32:28Z</time>
      </trkpt>
      <trkpt lat="36.7794180" lon="-3.0666680">
        <ele>560.6</ele>
        <time>2022-11-01T09:32:29Z</time>
      </trkpt>
      <trkpt lat="36.7794370" lon="-3.0666910">
        <ele>560.8</ele>
        <time>2022-11-01T09:32:30Z</time>
      </trkpt>
      <trkpt lat="36.7794590" lon="-3.0667060">
        <ele>561.0</ele>
        <time>2022-11-01T09:32:31Z</time>
      </trkpt>
      <trkpt lat="36.7794830" lon="-3.0667190">
        <ele>561.2</ele>
        <time>2022-11-01T09:32:32Z</time>
      </trkpt>
      <trkpt lat="36.7795050" lon="-3.0667290">
        <ele>561.4</ele>
        <time>2022-11-01T09:32:33Z</time>
      </trkpt>
      <trkpt lat="36.7795280" lon="-3.0667390">
        <ele>561.4</ele>
        <time>2022-11-01T09:32:34Z</time>
      </trkpt>
      <trkpt lat="36.7795500" lon="-3.0667460">
        <ele>561.8</ele>
        <time>2022-11-01T09:32:35Z</time>
      </trkpt>
      <trkpt lat="36.7795700" lon="-3.0667570">
        <ele>561.8</ele>
        <time>2022-11-01T09:32:36Z</time>
      </trkpt>
      <trkpt lat="36.7795890" lon="-3.0667730">
        <ele>562.2</ele>
        <time>2022-11-01T09:32:37Z</time>
      </trkpt>
      <trkpt lat="36.7796080" lon="-3.0667910">
        <ele>562.4</ele>
        <time>2022-11-01T09:32:38Z</time>
      </trkpt>
      <trkpt lat="36.7796260" lon="-3.0668120">
        <ele>562.6</ele>
        <time>2022-11-01T09:32:39Z</time>
      </trkpt>
      <trkpt lat="36.7796450" lon="-3.0668330">
        <ele>562.6</ele>
        <time>2022-11-01T09:32:40Z</time>
      </trkpt>
      <trkpt lat="36.7796620" lon="-3.0668570">
        <ele>562.8</ele>
        <time>2022-11-01T09:32:41Z</time>
      </trkpt>
      <trkpt lat="36.7796770" lon="-3.0668830">
        <ele>563.0</ele>
        <time>2022-11-01T09:32:42Z</time>
      </trkpt>
      <trkpt lat="36.7796910" lon="-3.0669090">
        <ele>563.2</ele>
        <time>2022-11-01T09:32:43Z</time>
      </trkpt>
      <trkpt lat="36.7797040" lon="-3.0669310">
        <ele>563.2</ele>
        <time>2022-11-01T09:32:44Z</time>
      </trkpt>
      <trkpt lat="36.7797190" lon="-3.0669580">
        <ele>563.4</ele>
        <time>2022-11-01T09:32:45Z</time>
      </trkpt>
      <trkpt lat="36.7797350" lon="-3.0669910">
        <ele>563.6</ele>
        <time>2022-11-01T09:32:46Z</time>
      </trkpt>
      <trkpt lat="36.7797530" lon="-3.0670240">
        <ele>563.8</ele>
        <time>2022-11-01T09:32:47Z</time>
      </trkpt>
      <trkpt lat="36.7797700" lon="-3.0670560">
        <ele>564.0</ele>
        <time>2022-11-01T09:32:48Z</time>
      </trkpt>
      <trkpt lat="36.7797920" lon="-3.0670900">
        <ele>564.2</ele>
        <time>2022-11-01T09:32:49Z</time>
      </trkpt>
      <trkpt lat="36.7798170" lon="-3.0671210">
        <ele>564.4</ele>
        <time>2022-11-01T09:32:50Z</time>
      </trkpt>
      <trkpt lat="36.7798450" lon="-3.0671470">
        <ele>564.6</ele>
        <time>2022-11-01T09:32:51Z</time>
      </trkpt>
      <trkpt lat="36.7798720" lon="-3.0671720">
        <ele>564.8</ele>
        <time>2022-11-01T09:32:52Z</time>
      </trkpt>
      <trkpt lat="36.7798980" lon="-3.0671960">
        <ele>565.2</ele>
        <time>2022-11-01T09:32:53Z</time>
      </trkpt>
      <trkpt lat="36.7799230" lon="-3.0672200">
        <ele>565.4</ele>
        <time>2022-11-01T09:32:54Z</time>
      </trkpt>
      <trkpt lat="36.7799470" lon="-3.0672420">
        <ele>565.6</ele>
        <time>2022-11-01T09:32:55Z</time>
      </trkpt>
      <trkpt lat="36.7799710" lon="-3.0672640">
        <ele>565.8</ele>
        <time>2022-11-01T09:32:56Z</time>
      </trkpt>
      <trkpt lat="36.7799940" lon="-3.0672840">
        <ele>566.0</ele>
        <time>2022-11-01T09:32:57Z</time>
      </trkpt>
      <trkpt lat="36.7800160" lon="-3.0673040">
        <ele>566.2</ele>
        <time>2022-11-01T09:32:58Z</time>
      </trkpt>
      <trkpt lat="36.7800370" lon="-3.0673240">
        <ele>566.4</ele>
        <time>2022-11-01T09:32:59Z</time>
      </trkpt>
      <trkpt lat="36.7800570" lon="-3.0673420">
        <ele>566.6</ele>
        <time>2022-11-01T09:33:00Z</time>
      </trkpt>
      <trkpt lat="36.7800760" lon="-3.0673600">
        <ele>566.8</ele>
        <time>2022-11-01T09:33:01Z</time>
      </trkpt>
      <trkpt lat="36.7800940" lon="-3.0673800">
        <ele>567.0</ele>
        <time>2022-11-01T09:33:02Z</time>
      </trkpt>
      <trkpt lat="36.7801140" lon="-3.0674000">
        <ele>567.2</ele>
        <time>2022-11-01T09:33:03Z</time>
      </trkpt>
      <trkpt lat="36.7801350" lon="-3.0674200">
        <ele>567.4</ele>
        <time>2022-11-01T09:33:04Z</time>
      </trkpt>
      <trkpt lat="36.7801580" lon="-3.0674360">
        <ele>567.6</ele>
        <time>2022-11-01T09:33:05Z</time>
      </trkpt>
      <trkpt lat="36.7801780" lon="-3.0674540">
        <ele>567.8</ele>
        <time>2022-11-01T09:33:06Z</time>
      </trkpt>
      <trkpt lat="36.7801970" lon="-3.0674740">
        <ele>568.0</ele>
        <time>2022-11-01T09:33:07Z</time>
      </trkpt>
      <trkpt lat="36.7802150" lon="-3.0674960">
        <ele>568.0</ele>
        <time>2022-11-01T09:33:08Z</time>
      </trkpt>
      <trkpt lat="36.7802320" lon="-3.0675170">
        <ele>568.2</ele>
        <time>2022-11-01T09:33:09Z</time>
      </trkpt>
      <trkpt lat="36.7802500" lon="-3.0675380">
        <ele>568.4</ele>
        <time>2022-11-01T09:33:10Z</time>
      </trkpt>
      <trkpt lat="36.7802660" lon="-3.0675590">
        <ele>568.6</ele>
        <time>2022-11-01T09:33:11Z</time>
      </trkpt>
      <trkpt lat="36.7802840" lon="-3.0675800">
        <ele>568.8</ele>
        <time>2022-11-01T09:33:12Z</time>
      </trkpt>
      <trkpt lat="36.7803030" lon="-3.0676000">
        <ele>569.0</ele>
        <time>2022-11-01T09:33:13Z</time>
      </trkpt>
      <trkpt lat="36.7803230" lon="-3.0676190">
        <ele>569.2</ele>
        <time>2022-11-01T09:33:14Z</time>
      </trkpt>
      <trkpt lat="36.7803420" lon="-3.0676350">
        <ele>569.4</ele>
        <time>2022-11-01T09:33:15Z</time>
      </trkpt>
      <trkpt lat="36.7803630" lon="-3.0676510">
        <ele>569.4</ele>
        <time>2022-11-01T09:33:16Z</time>
      </trkpt>
      <trkpt lat="36.7803830" lon="-3.0676660">
        <ele>569.6</ele>
        <time>2022-11-01T09:33:17Z</time>
      </trkpt>
      <trkpt lat="36.7804060" lon="-3.0676780">
        <ele>569.8</ele>
        <time>2022-11-01T09:33:18Z</time>
      </trkpt>
      <trkpt lat="36.7804290" lon="-3.0676910">
        <ele>570.0</ele>
        <time>2022-11-01T09:33:19Z</time>
      </trkpt>
      <trkpt lat="36.7804530" lon="-3.0677020">
        <ele>570.0</ele>
        <time>2022-11-01T09:33:20Z</time>
      </trkpt>
      <trkpt lat="36.7804770" lon="-3.0677110">
        <ele>570.2</ele>
        <time>2022-11-01T09:33:21Z</time>
      </trkpt>
      <trkpt lat="36.7805010" lon="-3.0677150">
        <ele>570.6</ele>
        <time>2022-11-01T09:33:22Z</time>
      </trkpt>
      <trkpt lat="36.7805250" lon="-3.0677140">
        <ele>570.8</ele>
        <time>2022-11-01T09:33:23Z</time>
      </trkpt>
      <trkpt lat="36.7805470" lon="-3.0677140">
        <ele>570.8</ele>
        <time>2022-11-01T09:33:24Z</time>
      </trkpt>
      <trkpt lat="36.7805700" lon="-3.0677140">
        <ele>571.0</ele>
        <time>2022-11-01T09:33:25Z</time>
      </trkpt>
      <trkpt lat="36.7805940" lon="-3.0677140">
        <ele>571.2</ele>
        <time>2022-11-01T09:33:26Z</time>
      </trkpt>
      <trkpt lat="36.7806180" lon="-3.0677120">
        <ele>571.4</ele>
        <time>2022-11-01T09:33:27Z</time>
      </trkpt>
      <trkpt lat="36.7806420" lon="-3.0677090">
        <ele>571.6</ele>
        <time>2022-11-01T09:33:28Z</time>
      </trkpt>
      <trkpt lat="36.7806660" lon="-3.0677030">
        <ele>571.6</ele>
        <time>2022-11-01T09:33:29Z</time>
      </trkpt>
      <trkpt lat="36.7806900" lon="-3.0676960">
        <ele>571.8</ele>
        <time>2022-11-01T09:33:30Z</time>
      </trkpt>
      <trkpt lat="36.7807130" lon="-3.0676880">
        <ele>572.0</ele>
        <time>2022-11-01T09:33:31Z</time>
      </trkpt>
      <trkpt lat="36.7807350" lon="-3.0676790">
        <ele>572.2</ele>
        <time>2022-11-01T09:33:32Z</time>
      </trkpt>
      <trkpt lat="36.7807550" lon="-3.0676650">
        <ele>572.4</ele>
        <time>2022-11-01T09:33:33Z</time>
      </trkpt>
      <trkpt lat="36.7807760" lon="-3.0676540">
        <ele>572.6</ele>
        <time>2022-11-01T09:33:34Z</time>
      </trkpt>
      <trkpt lat="36.7807960" lon="-3.0676420">
        <ele>572.8</ele>
        <time>2022-11-01T09:33:35Z</time>
      </trkpt>
      <trkpt lat="36.7808180" lon="-3.0676300">
        <ele>572.8</ele>
        <time>2022-11-01T09:33:36Z</time>
      </trkpt>
      <trkpt lat="36.7808380" lon="-3.0676170">
        <ele>573.0</ele>
        <time>2022-11-01T09:33:37Z</time>
      </trkpt>
      <trkpt lat="36.7808560" lon="-3.0676020">
        <ele>573.2</ele>
        <time>2022-11-01T09:33:38Z</time>
      </trkpt>
      <trkpt lat="36.7808760" lon="-3.0675870">
        <ele>573.4</ele>
        <time>2022-11-01T09:33:39Z</time>
      </trkpt>
      <trkpt lat="36.7808960" lon="-3.0675730">
        <ele>573.6</ele>
        <time>2022-11-01T09:33:40Z</time>
      </trkpt>
      <trkpt lat="36.7809130" lon="-3.0675580">
        <ele>573.8</ele>
        <time>2022-11-01T09:33:41Z</time>
      </trkpt>
      <trkpt lat="36.7809300" lon="-3.0675440">
        <ele>574.0</ele>
        <time>2022-11-01T09:33:42Z</time>
      </trkpt>
      <trkpt lat="36.7809450" lon="-3.0675300">
        <ele>574.2</ele>
        <time>2022-11-01T09:33:43Z</time>
      </trkpt>
      <trkpt lat="36.7809590" lon="-3.0675120">
        <ele>574.2</ele>
        <time>2022-11-01T09:33:44Z</time>
      </trkpt>
      <trkpt lat="36.7809760" lon="-3.0674970">
        <ele>574.4</ele>
        <time>2022-11-01T09:33:45Z</time>
      </trkpt>
      <trkpt lat="36.7809950" lon="-3.0674810">
        <ele>574.6</ele>
        <time>2022-11-01T09:33:46Z</time>
      </trkpt>
      <trkpt lat="36.7810130" lon="-3.0674640">
        <ele>574.8</ele>
        <time>2022-11-01T09:33:47Z</time>
      </trkpt>
      <trkpt lat="36.7810330" lon="-3.0674480">
        <ele>574.8</ele>
        <time>2022-11-01T09:33:48Z</time>
      </trkpt>
      <trkpt lat="36.7810520" lon="-3.0674280">
        <ele>575.0</ele>
        <time>2022-11-01T09:33:49Z</time>
      </trkpt>
      <trkpt lat="36.7810680" lon="-3.0674060">
        <ele>575.2</ele>
        <time>2022-11-01T09:33:50Z</time>
      </trkpt>
      <trkpt lat="36.7810870" lon="-3.0673860">
        <ele>575.4</ele>
        <time>2022-11-01T09:33:51Z</time>
      </trkpt>
      <trkpt lat="36.7811090" lon="-3.0673650">
        <ele>575.4</ele>
        <time>2022-11-01T09:33:52Z</time>
      </trkpt>
      <trkpt lat="36.7811320" lon="-3.0673450">
        <ele>575.4</ele>
        <time>2022-11-01T09:33:53Z</time>
      </trkpt>
      <trkpt lat="36.7811560" lon="-3.0673250">
        <ele>575.6</ele>
        <time>2022-11-01T09:33:54Z</time>
      </trkpt>
      <trkpt lat="36.7811850" lon="-3.0673130">
        <ele>575.8</ele>
        <time>2022-11-01T09:33:55Z</time>
      </trkpt>
      <trkpt lat="36.7812130" lon="-3.0673060">
        <ele>575.8</ele>
        <time>2022-11-01T09:33:56Z</time>
      </trkpt>
      <trkpt lat="36.7812410" lon="-3.0673060">
        <ele>576.0</ele>
        <time>2022-11-01T09:33:57Z</time>
      </trkpt>
      <trkpt lat="36.7812660" lon="-3.0673120">
        <ele>576.2</ele>
        <time>2022-11-01T09:33:58Z</time>
      </trkpt>
      <trkpt lat="36.7812910" lon="-3.0673220">
        <ele>576.4</ele>
        <time>2022-11-01T09:33:59Z</time>
      </trkpt>
      <trkpt lat="36.7813150" lon="-3.0673330">
        <ele>576.6</ele>
        <time>2022-11-01T09:34:00Z</time>
      </trkpt>
      <trkpt lat="36.7813370" lon="-3.0673460">
        <ele>576.8</ele>
        <time>2022-11-01T09:34:01Z</time>
      </trkpt>
      <trkpt lat="36.7813560" lon="-3.0673610">
        <ele>576.8</ele>
        <time>2022-11-01T09:34:02Z</time>
      </trkpt>
      <trkpt lat="36.7813760" lon="-3.0673790">
        <ele>577.0</ele>
        <time>2022-11-01T09:34:03Z</time>
      </trkpt>
      <trkpt lat="36.7813950" lon="-3.0673960">
        <ele>577.2</ele>
        <time>2022-11-01T09:34:04Z</time>
      </trkpt>
      <trkpt lat="36.7814110" lon="-3.0674160">
        <ele>577.4</ele>
        <time>2022-11-01T09:34:05Z</time>
      </trkpt>
      <trkpt lat="36.7814270" lon="-3.0674320">
        <ele>577.6</ele>
        <time>2022-11-01T09:34:06Z</time>
      </trkpt>
      <trkpt lat="36.7814450" lon="-3.0674500">
        <ele>577.6</ele>
        <time>2022-11-01T09:34:07Z</time>
      </trkpt>
      <trkpt lat="36.7814620" lon="-3.0674550">
        <ele>578.0</ele>
        <time>2022-11-01T09:34:08Z</time>
      </trkpt>
      <trkpt lat="36.7814810" lon="-3.0674610">
        <ele>578.2</ele>
        <time>2022-11-01T09:34:09Z</time>
      </trkpt>
      <trkpt lat="36.7815010" lon="-3.0674730">
        <ele>578.2</ele>
        <time>2022-11-01T09:34:10Z</time>
      </trkpt>
      <trkpt lat="36.7815200" lon="-3.0674850">
        <ele>578.4</ele>
        <time>2022-11-01T09:34:11Z</time>
      </trkpt>
      <trkpt lat="36.7815380" lon="-3.0674930">
        <ele>578.8</ele>
        <time>2022-11-01T09:34:12Z</time>
      </trkpt>
      <trkpt lat="36.7815520" lon="-3.0674980">
        <ele>579.0</ele>
        <time>2022-11-01T09:34:13Z</time>
      </trkpt>
      <trkpt lat="36.7815710" lon="-3.0675060">
        <ele>579.0</ele>
        <time>2022-11-01T09:34:14Z</time>
      </trkpt>
      <trkpt lat="36.7815890" lon="-3.0675180">
        <ele>579.2</ele>
        <time>2022-11-01T09:34:15Z</time>
      </trkpt>
      <trkpt lat="36.7816060" lon="-3.0675310">
        <ele>579.4</ele>
        <time>2022-11-01T09:34:16Z</time>
      </trkpt>
      <trkpt lat="36.7816250" lon="-3.0675390">
        <ele>579.6</ele>
        <time>2022-11-01T09:34:17Z</time>
      </trkpt>
      <trkpt lat="36.7816450" lon="-3.0675460">
        <ele>579.8</ele>
        <time>2022-11-01T09:34:18Z</time>
      </trkpt>
      <trkpt lat="36.7816630" lon="-3.0675550">
        <ele>580.0</ele>
        <time>2022-11-01T09:34:19Z</time>
      </trkpt>
      <trkpt lat="36.7816820" lon="-3.0675730">
        <ele>580.2</ele>
        <time>2022-11-01T09:34:20Z</time>
      </trkpt>
      <trkpt lat="36.7817000" lon="-3.0675910">
        <ele>580.4</ele>
        <time>2022-11-01T09:34:21Z</time>
      </trkpt>
      <trkpt lat="36.7817180" lon="-3.0676070">
        <ele>580.6</ele>
        <time>2022-11-01T09:34:22Z</time>
      </trkpt>
      <trkpt lat="36.7817340" lon="-3.0676160">
        <ele>580.8</ele>
        <time>2022-11-01T09:34:23Z</time>
      </trkpt>
      <trkpt lat="36.7817500" lon="-3.0676180">
        <ele>581.0</ele>
        <time>2022-11-01T09:34:24Z</time>
      </trkpt>
      <trkpt lat="36.7817660" lon="-3.0676180">
        <ele>581.2</ele>
        <time>2022-11-01T09:34:25Z</time>
      </trkpt>
      <trkpt lat="36.7817820" lon="-3.0676130">
        <ele>581.4</ele>
        <time>2022-11-01T09:34:26Z</time>
      </trkpt>
      <trkpt lat="36.7817970" lon="-3.0676100">
        <ele>581.6</ele>
        <time>2022-11-01T09:34:27Z</time>
      </trkpt>
      <trkpt lat="36.7818170" lon="-3.0676090">
        <ele>581.6</ele>
        <time>2022-11-01T09:34:28Z</time>
      </trkpt>
      <trkpt lat="36.7818370" lon="-3.0676000">
        <ele>581.8</ele>
        <time>2022-11-01T09:34:29Z</time>
      </trkpt>
      <trkpt lat="36.7818520" lon="-3.0675880">
        <ele>582.0</ele>
        <time>2022-11-01T09:34:30Z</time>
      </trkpt>
      <trkpt lat="36.7818680" lon="-3.0675720">
        <ele>582.2</ele>
        <time>2022-11-01T09:34:31Z</time>
      </trkpt>
      <trkpt lat="36.7818820" lon="-3.0675560">
        <ele>582.4</ele>
        <time>2022-11-01T09:34:32Z</time>
      </trkpt>
      <trkpt lat="36.7818950" lon="-3.0675380">
        <ele>582.4</ele>
        <time>2022-11-01T09:34:33Z</time>
      </trkpt>
      <trkpt lat="36.7819130" lon="-3.0675210">
        <ele>582.6</ele>
        <time>2022-11-01T09:34:34Z</time>
      </trkpt>
      <trkpt lat="36.7819310" lon="-3.0675060">
        <ele>582.8</ele>
        <time>2022-11-01T09:34:35Z</time>
      </trkpt>
      <trkpt lat="36.7819490" lon="-3.0674910">
        <ele>583.0</ele>
        <time>2022-11-01T09:34:36Z</time>
      </trkpt>
      <trkpt lat="36.7819660" lon="-3.0674760">
        <ele>583.0</ele>
        <time>2022-11-01T09:34:37Z</time>
      </trkpt>
      <trkpt lat="36.7819840" lon="-3.0674570">
        <ele>583.2</ele>
        <time>2022-11-01T09:34:38Z</time>
      </trkpt>
      <trkpt lat="36.7820030" lon="-3.0674410">
        <ele>583.4</ele>
        <time>2022-11-01T09:34:39Z</time>
      </trkpt>
      <trkpt lat="36.7820210" lon="-3.0674230">
        <ele>583.6</ele>
        <time>2022-11-01T09:34:40Z</time>
      </trkpt>
      <trkpt lat="36.7820340" lon="-3.0674060">
        <ele>583.8</ele>
        <time>2022-11-01T09:34:41Z</time>
      </trkpt>
      <trkpt lat="36.7820530" lon="-3.0673920">
        <ele>583.8</ele>
        <time>2022-11-01T09:34:42Z</time>
      </trkpt>
      <trkpt lat="36.7820750" lon="-3.0673790">
        <ele>584.0</ele>
        <time>2022-11-01T09:34:43Z</time>
      </trkpt>
      <trkpt lat="36.7821010" lon="-3.0673670">
        <ele>584.2</ele>
        <time>2022-11-01T09:34:44Z</time>
      </trkpt>
      <trkpt lat="36.7821280" lon="-3.0673560">
        <ele>584.4</ele>
        <time>2022-11-01T09:34:45Z</time>
      </trkpt>
      <trkpt lat="36.7821550" lon="-3.0673450">
        <ele>584.4</ele>
        <time>2022-11-01T09:34:46Z</time>
      </trkpt>
      <trkpt lat="36.7821810" lon="-3.0673330">
        <ele>584.6</ele>
        <time>2022-11-01T09:34:47Z</time>
      </trkpt>
      <trkpt lat="36.7822090" lon="-3.0673250">
        <ele>584.8</ele>
        <time>2022-11-01T09:34:48Z</time>
      </trkpt>
      <trkpt lat="36.7822340" lon="-3.0673180">
        <ele>585.0</ele>
        <time>2022-11-01T09:34:49Z</time>
      </trkpt>
      <trkpt lat="36.7822540" lon="-3.0673080">
        <ele>585.2</ele>
        <time>2022-11-01T09:34:50Z</time>
      </trkpt>
      <trkpt lat="36.7822740" lon="-3.0672950">
        <ele>585.2</ele>
        <time>2022-11-01T09:34:51Z</time>
      </trkpt>
      <trkpt lat="36.7822990" lon="-3.0672860">
        <ele>585.4</ele>
        <time>2022-11-01T09:34:52Z</time>
      </trkpt>
      <trkpt lat="36.7823230" lon="-3.0672810">
        <ele>585.6</ele>
        <time>2022-11-01T09:34:53Z</time>
      </trkpt>
      <trkpt lat="36.7823480" lon="-3.0672780">
        <ele>585.8</ele>
        <time>2022-11-01T09:34:54Z</time>
      </trkpt>
      <trkpt lat="36.7823700" lon="-3.0672730">
        <ele>586.0</ele>
        <time>2022-11-01T09:34:55Z</time>
      </trkpt>
      <trkpt lat="36.7823920" lon="-3.0672710">
        <ele>586.2</ele>
        <time>2022-11-01T09:34:56Z</time>
      </trkpt>
      <trkpt lat="36.7824140" lon="-3.0672690">
        <ele>586.4</ele>
        <time>2022-11-01T09:34:57Z</time>
      </trkpt>
      <trkpt lat="36.7824360" lon="-3.0672670">
        <ele>586.6</ele>
        <time>2022-11-01T09:34:58Z</time>
      </trkpt>
      <trkpt lat="36.7824580" lon="-3.0672670">
        <ele>586.6</ele>
        <time>2022-11-01T09:34:59Z</time>
      </trkpt>
      <trkpt lat="36.7824800" lon="-3.0672640">
        <ele>586.8</ele>
        <time>2022-11-01T09:35:00Z</time>
      </trkpt>
      <trkpt lat="36.7825000" lon="-3.0672560">
        <ele>587.0</ele>
        <time>2022-11-01T09:35:01Z</time>
      </trkpt>
      <trkpt lat="36.7825220" lon="-3.0672480">
        <ele>587.2</ele>
        <time>2022-11-01T09:35:02Z</time>
      </trkpt>
      <trkpt lat="36.7825430" lon="-3.0672430">
        <ele>587.2</ele>
        <time>2022-11-01T09:35:03Z</time>
      </trkpt>
      <trkpt lat="36.7825650" lon="-3.0672350">
        <ele>587.4</ele>
        <time>2022-11-01T09:35:04Z</time>
      </trkpt>
      <trkpt lat="36.7825860" lon="-3.0672230">
        <ele>587.6</ele>
        <time>2022-11-01T09:35:05Z</time>
      </trkpt>
      <trkpt lat="36.7826070" lon="-3.0672110">
        <ele>587.8</ele>
        <time>2022-11-01T09:35:06Z</time>
      </trkpt>
      <trkpt lat="36.7826280" lon="-3.0671970">
        <ele>588.0</ele>
        <time>2022-11-01T09:35:07Z</time>
      </trkpt>
      <trkpt lat="36.7826490" lon="-3.0671820">
        <ele>588.0</ele>
        <time>2022-11-01T09:35:08Z</time>
      </trkpt>
      <trkpt lat="36.7826710" lon="-3.0671680">
        <ele>588.2</ele>
        <time>2022-11-01T09:35:09Z</time>
      </trkpt>
      <trkpt lat="36.7826900" lon="-3.0671520">
        <ele>588.4</ele>
        <time>2022-11-01T09:35:10Z</time>
      </trkpt>
      <trkpt lat="36.7827140" lon="-3.0671380">
        <ele>588.4</ele>
        <time>2022-11-01T09:35:11Z</time>
      </trkpt>
      <trkpt lat="36.7827400" lon="-3.0671240">
        <ele>588.6</ele>
        <time>2022-11-01T09:35:12Z</time>
      </trkpt>
      <trkpt lat="36.7827660" lon="-3.0671090">
        <ele>588.6</ele>
        <time>2022-11-01T09:35:13Z</time>
      </trkpt>
      <trkpt lat="36.7827910" lon="-3.0670900">
        <ele>588.8</ele>
        <time>2022-11-01T09:35:14Z</time>
      </trkpt>
      <trkpt lat="36.7828100" lon="-3.0670700">
        <ele>589.0</ele>
        <time>2022-11-01T09:35:15Z</time>
      </trkpt>
      <trkpt lat="36.7828320" lon="-3.0670520">
        <ele>589.2</ele>
        <time>2022-11-01T09:35:16Z</time>
      </trkpt>
      <trkpt lat="36.7828540" lon="-3.0670340">
        <ele>589.4</ele>
        <time>2022-11-01T09:35:17Z</time>
      </trkpt>
      <trkpt lat="36.7828720" lon="-3.0670160">
        <ele>589.4</ele>
        <time>2022-11-01T09:35:18Z</time>
      </trkpt>
      <trkpt lat="36.7828950" lon="-3.0670010">
        <ele>589.6</ele>
        <time>2022-11-01T09:35:19Z</time>
      </trkpt>
      <trkpt lat="36.7829130" lon="-3.0669850">
        <ele>589.8</ele>
        <time>2022-11-01T09:35:20Z</time>
      </trkpt>
      <trkpt lat="36.7829310" lon="-3.0669690">
        <ele>590.0</ele>
        <time>2022-11-01T09:35:21Z</time>
      </trkpt>
      <trkpt lat="36.7829490" lon="-3.0669530">
        <ele>590.2</ele>
        <time>2022-11-01T09:35:22Z</time>
      </trkpt>
      <trkpt lat="36.7829590" lon="-3.0669360">
        <ele>590.4</ele>
        <time>2022-11-01T09:35:23Z</time>
      </trkpt>
      <trkpt lat="36.7829660" lon="-3.0669160">
        <ele>590.4</ele>
        <time>2022-11-01T09:35:24Z</time>
      </trkpt>
      <trkpt lat="36.7829760" lon="-3.0668980">
        <ele>590.6</ele>
        <time>2022-11-01T09:35:25Z</time>
      </trkpt>
      <trkpt lat="36.7829950" lon="-3.0668810">
        <ele>590.6</ele>
        <time>2022-11-01T09:35:26Z</time>
      </trkpt>
      <trkpt lat="36.7830140" lon="-3.0668650">
        <ele>590.8</ele>
        <time>2022-11-01T09:35:27Z</time>
      </trkpt>
      <trkpt lat="36.7830360" lon="-3.0668500">
        <ele>591.0</ele>
        <time>2022-11-01T09:35:28Z</time>
      </trkpt>
      <trkpt lat="36.7830590" lon="-3.0668310">
        <ele>591.2</ele>
        <time>2022-11-01T09:35:29Z</time>
      </trkpt>
      <trkpt lat="36.7830750" lon="-3.0668070">
        <ele>591.4</ele>
        <time>2022-11-01T09:35:30Z</time>
      </trkpt>
      <trkpt lat="36.7830860" lon="-3.0667800">
        <ele>591.4</ele>
        <time>2022-11-01T09:35:31Z</time>
      </trkpt>
      <trkpt lat="36.7830900" lon="-3.0667540">
        <ele>591.4</ele>
        <time>2022-11-01T09:35:32Z</time>
      </trkpt>
      <trkpt lat="36.7830850" lon="-3.0667210">
        <ele>591.6</ele>
        <time>2022-11-01T09:35:33Z</time>
      </trkpt>
      <trkpt lat="36.7830810" lon="-3.0666890">
        <ele>591.8</ele>
        <time>2022-11-01T09:35:34Z</time>
      </trkpt>
      <trkpt lat="36.7830710" lon="-3.0666620">
        <ele>591.8</ele>
        <time>2022-11-01T09:35:35Z</time>
      </trkpt>
      <trkpt lat="36.7830590" lon="-3.0666380">
        <ele>592.0</ele>
        <time>2022-11-01T09:35:36Z</time>
      </trkpt>
      <trkpt lat="36.7830400" lon="-3.0666060">
        <ele>592.0</ele>
        <time>2022-11-01T09:35:37Z</time>
      </trkpt>
      <trkpt lat="36.7830210" lon="-3.0665820">
        <ele>592.0</ele>
        <time>2022-11-01T09:35:38Z</time>
      </trkpt>
      <trkpt lat="36.7830020" lon="-3.0665620">
        <ele>592.2</ele>
        <time>2022-11-01T09:35:39Z</time>
      </trkpt>
      <trkpt lat="36.7829820" lon="-3.0665420">
        <ele>592.2</ele>
        <time>2022-11-01T09:35:40Z</time>
      </trkpt>
      <trkpt lat="36.7829660" lon="-3.0665140">
        <ele>592.4</ele>
        <time>2022-11-01T09:35:41Z</time>
      </trkpt>
      <trkpt lat="36.7829500" lon="-3.0664860">
        <ele>592.6</ele>
        <time>2022-11-01T09:35:42Z</time>
      </trkpt>
      <trkpt lat="36.7829330" lon="-3.0664570">
        <ele>592.8</ele>
        <time>2022-11-01T09:35:43Z</time>
      </trkpt>
      <trkpt lat="36.7829150" lon="-3.0664240">
        <ele>592.8</ele>
        <time>2022-11-01T09:35:44Z</time>
      </trkpt>
      <trkpt lat="36.7828960" lon="-3.0663920">
        <ele>593.0</ele>
        <time>2022-11-01T09:35:45Z</time>
      </trkpt>
      <trkpt lat="36.7828780" lon="-3.0663610">
        <ele>593.0</ele>
        <time>2022-11-01T09:35:46Z</time>
      </trkpt>
      <trkpt lat="36.7828580" lon="-3.0663280">
        <ele>593.2</ele>
        <time>2022-11-01T09:35:47Z</time>
      </trkpt>
      <trkpt lat="36.7828420" lon="-3.0662960">
        <ele>593.2</ele>
        <time>2022-11-01T09:35:48Z</time>
      </trkpt>
      <trkpt lat="36.7828310" lon="-3.0662600">
        <ele>593.4</ele>
        <time>2022-11-01T09:35:49Z</time>
      </trkpt>
      <trkpt lat="36.7828290" lon="-3.0662190">
        <ele>593.4</ele>
        <time>2022-11-01T09:35:50Z</time>
      </trkpt>
      <trkpt lat="36.7828280" lon="-3.0661800">
        <ele>593.4</ele>
        <time>2022-11-01T09:35:51Z</time>
      </trkpt>
      <trkpt lat="36.7828330" lon="-3.0661590">
        <ele>593.6</ele>
        <time>2022-11-01T09:35:52Z</time>
      </trkpt>
      <trkpt lat="36.7828460" lon="-3.0661170">
        <ele>593.8</ele>
        <time>2022-11-01T09:35:53Z</time>
      </trkpt>
      <trkpt lat="36.7828620" lon="-3.0660740">
        <ele>593.8</ele>
        <time>2022-11-01T09:35:54Z</time>
      </trkpt>
      <trkpt lat="36.7828800" lon="-3.0660390">
        <ele>594.0</ele>
        <time>2022-11-01T09:35:55Z</time>
      </trkpt>
      <trkpt lat="36.7829000" lon="-3.0660060">
        <ele>594.2</ele>
        <time>2022-11-01T09:35:56Z</time>
      </trkpt>
      <trkpt lat="36.7829180" lon="-3.0659770">
        <ele>594.4</ele>
        <time>2022-11-01T09:35:57Z</time>
      </trkpt>
      <trkpt lat="36.7829360" lon="-3.0659490">
        <ele>594.6</ele>
        <time>2022-11-01T09:35:58Z</time>
      </trkpt>
      <trkpt lat="36.7829560" lon="-3.0659240">
        <ele>594.8</ele>
        <time>2022-11-01T09:35:59Z</time>
      </trkpt>
      <trkpt lat="36.7829770" lon="-3.0659010">
        <ele>595.0</ele>
        <time>2022-11-01T09:36:00Z</time>
      </trkpt>
      <trkpt lat="36.7830000" lon="-3.0658840">
        <ele>595.2</ele>
        <time>2022-11-01T09:36:01Z</time>
      </trkpt>
      <trkpt lat="36.7830220" lon="-3.0658660">
        <ele>595.4</ele>
        <time>2022-11-01T09:36:02Z</time>
      </trkpt>
      <trkpt lat="36.7830430" lon="-3.0658470">
        <ele>595.6</ele>
        <time>2022-11-01T09:36:03Z</time>
      </trkpt>
      <trkpt lat="36.7830620" lon="-3.0658240">
        <ele>595.6</ele>
        <time>2022-11-01T09:36:04Z</time>
      </trkpt>
      <trkpt lat="36.7830810" lon="-3.0657980">
        <ele>595.8</ele>
        <time>2022-11-01T09:36:05Z</time>
      </trkpt>
      <trkpt lat="36.7830980" lon="-3.0657690">
        <ele>596.0</ele>
        <time>2022-11-01T09:36:06Z</time>
      </trkpt>
      <trkpt lat="36.7831130" lon="-3.0657380">
        <ele>596.0</ele>
        <time>2022-11-01T09:36:07Z</time>
      </trkpt>
      <trkpt lat="36.7831230" lon="-3.0657060">
        <ele>596.2</ele>
        <time>2022-11-01T09:36:08Z</time>
      </trkpt>
      <trkpt lat="36.7831400" lon="-3.0656690">
        <ele>596.2</ele>
        <time>2022-11-01T09:36:09Z</time>
      </trkpt>
      <trkpt lat="36.7831460" lon="-3.0656320">
        <ele>596.4</ele>
        <time>2022-11-01T09:36:10Z</time>
      </trkpt>
      <trkpt lat="36.7831510" lon="-3.0655940">
        <ele>596.4</ele>
        <time>2022-11-01T09:36:11Z</time>
      </trkpt>
      <trkpt lat="36.7831580" lon="-3.0655540">
        <ele>596.6</ele>
        <time>2022-11-01T09:36:12Z</time>
      </trkpt>
      <trkpt lat="36.7831620" lon="-3.0655160">
        <ele>596.8</ele>
        <time>2022-11-01T09:36:13Z</time>
      </trkpt>
      <trkpt lat="36.7831690" lon="-3.0654760">
        <ele>597.0</ele>
        <time>2022-11-01T09:36:14Z</time>
      </trkpt>
      <trkpt lat="36.7831780" lon="-3.0654360">
        <ele>597.0</ele>
        <time>2022-11-01T09:36:15Z</time>
      </trkpt>
      <trkpt lat="36.7831900" lon="-3.0653960">
        <ele>597.2</ele>
        <time>2022-11-01T09:36:16Z</time>
      </trkpt>
      <trkpt lat="36.7831970" lon="-3.0653570">
        <ele>597.2</ele>
        <time>2022-11-01T09:36:17Z</time>
      </trkpt>
      <trkpt lat="36.7832040" lon="-3.0653190">
        <ele>597.4</ele>
        <time>2022-11-01T09:36:18Z</time>
      </trkpt>
      <trkpt lat="36.7832070" lon="-3.0652830">
        <ele>597.6</ele>
        <time>2022-11-01T09:36:19Z</time>
      </trkpt>
      <trkpt lat="36.7832110" lon="-3.0652490">
        <ele>597.8</ele>
        <time>2022-11-01T09:36:20Z</time>
      </trkpt>
      <trkpt lat="36.7832130" lon="-3.0652130">
        <ele>598.0</ele>
        <time>2022-11-01T09:36:21Z</time>
      </trkpt>
      <trkpt lat="36.7832170" lon="-3.0651780">
        <ele>598.2</ele>
        <time>2022-11-01T09:36:22Z</time>
      </trkpt>
      <trkpt lat="36.7832180" lon="-3.0651420">
        <ele>598.2</ele>
        <time>2022-11-01T09:36:23Z</time>
      </trkpt>
      <trkpt lat="36.7832190" lon="-3.0651060">
        <ele>598.4</ele>
        <time>2022-11-01T09:36:24Z</time>
      </trkpt>
      <trkpt lat="36.7832190" lon="-3.0650710">
        <ele>598.4</ele>
        <time>2022-11-01T09:36:25Z</time>
      </trkpt>
      <trkpt lat="36.7832160" lon="-3.0650370">
        <ele>598.6</ele>
        <time>2022-11-01T09:36:26Z</time>
      </trkpt>
      <trkpt lat="36.7832100" lon="-3.0650020">
        <ele>598.8</ele>
        <time>2022-11-01T09:36:27Z</time>
      </trkpt>
      <trkpt lat="36.7832050" lon="-3.0649700">
        <ele>599.0</ele>
        <time>2022-11-01T09:36:28Z</time>
      </trkpt>
      <trkpt lat="36.7832010" lon="-3.0649340">
        <ele>599.0</ele>
        <time>2022-11-01T09:36:29Z</time>
      </trkpt>
      <trkpt lat="36.7831960" lon="-3.0648970">
        <ele>599.2</ele>
        <time>2022-11-01T09:36:30Z</time>
      </trkpt>
      <trkpt lat="36.7831930" lon="-3.0648610">
        <ele>599.4</ele>
        <time>2022-11-01T09:36:31Z</time>
      </trkpt>
      <trkpt lat="36.7831900" lon="-3.0648260">
        <ele>599.6</ele>
        <time>2022-11-01T09:36:32Z</time>
      </trkpt>
      <trkpt lat="36.7831870" lon="-3.0647910">
        <ele>599.6</ele>
        <time>2022-11-01T09:36:33Z</time>
      </trkpt>
      <trkpt lat="36.7831820" lon="-3.0647520">
        <ele>599.8</ele>
        <time>2022-11-01T09:36:34Z</time>
      </trkpt>
      <trkpt lat="36.7831870" lon="-3.0647100">
        <ele>600.0</ele>
        <time>2022-11-01T09:36:35Z</time>
      </trkpt>
      <trkpt lat="36.7831980" lon="-3.0646680">
        <ele>600.0</ele>
        <time>2022-11-01T09:36:36Z</time>
      </trkpt>
      <trkpt lat="36.7832140" lon="-3.0646300">
        <ele>600.0</ele>
        <time>2022-11-01T09:36:37Z</time>
      </trkpt>
      <trkpt lat="36.7832330" lon="-3.0645920">
        <ele>600.2</ele>
        <time>2022-11-01T09:36:38Z</time>
      </trkpt>
      <trkpt lat="36.7832540" lon="-3.0645570">
        <ele>600.4</ele>
        <time>2022-11-01T09:36:39Z</time>
      </trkpt>
      <trkpt lat="36.7832730" lon="-3.0645230">
        <ele>600.6</ele>
        <time>2022-11-01T09:36:40Z</time>
      </trkpt>
      <trkpt lat="36.7832890" lon="-3.0644900">
        <ele>600.8</ele>
        <time>2022-11-01T09:36:41Z</time>
      </trkpt>
      <trkpt lat="36.7833050" lon="-3.0644580">
        <ele>601.0</ele>
        <time>2022-11-01T09:36:42Z</time>
      </trkpt>
      <trkpt lat="36.7833180" lon="-3.0644240">
        <ele>601.2</ele>
        <time>2022-11-01T09:36:43Z</time>
      </trkpt>
      <trkpt lat="36.7833280" lon="-3.0643890">
        <ele>601.4</ele>
        <time>2022-11-01T09:36:44Z</time>
      </trkpt>
      <trkpt lat="36.7833330" lon="-3.0643550">
        <ele>601.6</ele>
        <time>2022-11-01T09:36:45Z</time>
      </trkpt>
      <trkpt lat="36.7833340" lon="-3.0643210">
        <ele>601.8</ele>
        <time>2022-11-01T09:36:46Z</time>
      </trkpt>
      <trkpt lat="36.7833290" lon="-3.0642900">
        <ele>602.0</ele>
        <time>2022-11-01T09:36:47Z</time>
      </trkpt>
      <trkpt lat="36.7833240" lon="-3.0642640">
        <ele>602.2</ele>
        <time>2022-11-01T09:36:48Z</time>
      </trkpt>
      <trkpt lat="36.7833210" lon="-3.0642310">
        <ele>602.4</ele>
        <time>2022-11-01T09:36:49Z</time>
      </trkpt>
      <trkpt lat="36.7833150" lon="-3.0641960">
        <ele>602.6</ele>
        <time>2022-11-01T09:36:50Z</time>
      </trkpt>
      <trkpt lat="36.7833100" lon="-3.0641590">
        <ele>602.6</ele>
        <time>2022-11-01T09:36:51Z</time>
      </trkpt>
      <trkpt lat="36.7832990" lon="-3.0641250">
        <ele>602.8</ele>
        <time>2022-11-01T09:36:52Z</time>
      </trkpt>
      <trkpt lat="36.7832890" lon="-3.0640900">
        <ele>603.0</ele>
        <time>2022-11-01T09:36:53Z</time>
      </trkpt>
      <trkpt lat="36.7832780" lon="-3.0640540">
        <ele>603.2</ele>
        <time>2022-11-01T09:36:54Z</time>
      </trkpt>
      <trkpt lat="36.7832680" lon="-3.0640180">
        <ele>603.4</ele>
        <time>2022-11-01T09:36:55Z</time>
      </trkpt>
      <trkpt lat="36.7832610" lon="-3.0639830">
        <ele>603.6</ele>
        <time>2022-11-01T09:36:56Z</time>
      </trkpt>
      <trkpt lat="36.7832550" lon="-3.0639460">
        <ele>603.6</ele>
        <time>2022-11-01T09:36:57Z</time>
      </trkpt>
      <trkpt lat="36.7832520" lon="-3.0639100">
        <ele>603.8</ele>
        <time>2022-11-01T09:36:58Z</time>
      </trkpt>
      <trkpt lat="36.7832540" lon="-3.0638730">
        <ele>604.0</ele>
        <time>2022-11-01T09:36:59Z</time>
      </trkpt>
      <trkpt lat="36.7832600" lon="-3.0638370">
        <ele>604.0</ele>
        <time>2022-11-01T09:37:00Z</time>
      </trkpt>
      <trkpt lat="36.7832730" lon="-3.0638120">
        <ele>604.0</ele>
        <time>2022-11-01T09:37:01Z</time>
      </trkpt>
      <trkpt lat="36.7832940" lon="-3.0637860">
        <ele>604.2</ele>
        <time>2022-11-01T09:37:02Z</time>
      </trkpt>
      <trkpt lat="36.7833200" lon="-3.0637670">
        <ele>604.2</ele>
        <time>2022-11-01T09:37:03Z</time>
      </trkpt>
      <trkpt lat="36.7833520" lon="-3.0637570">
        <ele>604.2</ele>
        <time>2022-11-01T09:37:04Z</time>
      </trkpt>
      <trkpt lat="36.7833810" lon="-3.0637560">
        <ele>604.4</ele>
        <time>2022-11-01T09:37:05Z</time>
      </trkpt>
      <trkpt lat="36.7834120" lon="-3.0637590">
        <ele>604.4</ele>
        <time>2022-11-01T09:37:06Z</time>
      </trkpt>
      <trkpt lat="36.7834450" lon="-3.0637650">
        <ele>604.6</ele>
        <time>2022-11-01T09:37:07Z</time>
      </trkpt>
      <trkpt lat="36.7834740" lon="-3.0637730">
        <ele>604.6</ele>
        <time>2022-11-01T09:37:08Z</time>
      </trkpt>
      <trkpt lat="36.7834970" lon="-3.0637880">
        <ele>604.8</ele>
        <time>2022-11-01T09:37:09Z</time>
      </trkpt>
      <trkpt lat="36.7835180" lon="-3.0637980">
        <ele>604.8</ele>
        <time>2022-11-01T09:37:10Z</time>
      </trkpt>
      <trkpt lat="36.7835420" lon="-3.0638140">
        <ele>604.8</ele>
        <time>2022-11-01T09:37:11Z</time>
      </trkpt>
      <trkpt lat="36.7835670" lon="-3.0638350">
        <ele>604.8</ele>
        <time>2022-11-01T09:37:12Z</time>
      </trkpt>
      <trkpt lat="36.7835930" lon="-3.0638560">
        <ele>604.8</ele>
        <time>2022-11-01T09:37:13Z</time>
      </trkpt>
      <trkpt lat="36.7836230" lon="-3.0638820">
        <ele>604.6</ele>
        <time>2022-11-01T09:37:14Z</time>
      </trkpt>
      <trkpt lat="36.7836540" lon="-3.0639090">
        <ele>604.6</ele>
        <time>2022-11-01T09:37:15Z</time>
      </trkpt>
      <trkpt lat="36.7836890" lon="-3.0639410">
        <ele>604.4</ele>
        <time>2022-11-01T09:37:16Z</time>
      </trkpt>
      <trkpt lat="36.7837250" lon="-3.0639770">
        <ele>604.2</ele>
        <time>2022-11-01T09:37:17Z</time>
      </trkpt>
      <trkpt lat="36.7837640" lon="-3.0640210">
        <ele>604.0</ele>
        <time>2022-11-01T09:37:18Z</time>
      </trkpt>
      <trkpt lat="36.7838050" lon="-3.0640680">
        <ele>603.6</ele>
        <time>2022-11-01T09:37:19Z</time>
      </trkpt>
      <trkpt lat="36.7838480" lon="-3.0641190">
        <ele>603.4</ele>
        <time>2022-11-01T09:37:20Z</time>
      </trkpt>
      <trkpt lat="36.7838920" lon="-3.0641750">
        <ele>603.0</ele>
        <time>2022-11-01T09:37:21Z</time>
      </trkpt>
      <trkpt lat="36.7839340" lon="-3.0642320">
        <ele>602.6</ele>
        <time>2022-11-01T09:37:22Z</time>
      </trkpt>
      <trkpt lat="36.7839710" lon="-3.0642850">
        <ele>602.4</ele>
        <time>2022-11-01T09:37:23Z</time>
      </trkpt>
      <trkpt lat="36.7840020" lon="-3.0643310">
        <ele>602.0</ele>
        <time>2022-11-01T09:37:24Z</time>
      </trkpt>
      <trkpt lat="36.7840310" lon="-3.0643740">
        <ele>601.8</ele>
        <time>2022-11-01T09:37:25Z</time>
      </trkpt>
      <trkpt lat="36.7840590" lon="-3.0644130">
        <ele>601.6</ele>
        <time>2022-11-01T09:37:26Z</time>
      </trkpt>
      <trkpt lat="36.7840790" lon="-3.0644380">
        <ele>601.4</ele>
        <time>2022-11-01T09:37:27Z</time>
      </trkpt>
      <trkpt lat="36.7840960" lon="-3.0644550">
        <ele>601.2</ele>
        <time>2022-11-01T09:37:28Z</time>
      </trkpt>
      <trkpt lat="36.7841060" lon="-3.0644630">
        <ele>601.2</ele>
        <time>2022-11-01T09:37:29Z</time>
      </trkpt>
      <trkpt lat="36.7841140" lon="-3.0644730">
        <ele>601.2</ele>
        <time>2022-11-01T09:37:30Z</time>
      </trkpt>
      <trkpt lat="36.7841200" lon="-3.0644730">
        <ele>601.0</ele>
        <time>2022-11-01T09:37:31Z</time>
      </trkpt>
      <trkpt lat="36.7841240" lon="-3.0644740">
        <ele>601.0</ele>
        <time>2022-11-01T09:37:32Z</time>
      </trkpt>
      <trkpt lat="36.7841250" lon="-3.0644750">
        <ele>601.0</ele>
        <time>2022-11-01T09:37:33Z</time>
      </trkpt>
      <trkpt lat="36.7841270" lon="-3.0644750">
        <ele>601.0</ele>
        <time>2022-11-01T09:37:34Z</time>
      </trkpt>
      <trkpt lat="36.7841730" lon="-3.0645150">
        <ele>600.8</ele>
        <time>2022-11-01T09:39:06Z</time>
      </trkpt>
      <trkpt lat="36.7841880" lon="-3.0645170">
        <ele>600.6</ele>
        <time>2022-11-01T09:39:07Z</time>
      </trkpt>
      <trkpt lat="36.7842040" lon="-3.0645180">
        <ele>600.6</ele>
        <time>2022-11-01T09:39:08Z</time>
      </trkpt>
      <trkpt lat="36.7842230" lon="-3.0645190">
        <ele>600.4</ele>
        <time>2022-11-01T09:39:09Z</time>
      </trkpt>
      <trkpt lat="36.7842450" lon="-3.0645230">
        <ele>600.4</ele>
        <time>2022-11-01T09:39:10Z</time>
      </trkpt>
      <trkpt lat="36.7842700" lon="-3.0645260">
        <ele>600.4</ele>
        <time>2022-11-01T09:39:11Z</time>
      </trkpt>
      <trkpt lat="36.7842950" lon="-3.0645270">
        <ele>600.2</ele>
        <time>2022-11-01T09:39:12Z</time>
      </trkpt>
      <trkpt lat="36.7843240" lon="-3.0645290">
        <ele>600.2</ele>
        <time>2022-11-01T09:39:13Z</time>
      </trkpt>
      <trkpt lat="36.7843540" lon="-3.0645290">
        <ele>600.0</ele>
        <time>2022-11-01T09:39:14Z</time>
      </trkpt>
      <trkpt lat="36.7843860" lon="-3.0645320">
        <ele>599.8</ele>
        <time>2022-11-01T09:39:15Z</time>
      </trkpt>
      <trkpt lat="36.7844110" lon="-3.0645320">
        <ele>599.8</ele>
        <time>2022-11-01T09:39:16Z</time>
      </trkpt>
      <trkpt lat="36.7844270" lon="-3.0645300">
        <ele>599.8</ele>
        <time>2022-11-01T09:39:17Z</time>
      </trkpt>
      <trkpt lat="36.7844320" lon="-3.0645320">
        <ele>599.6</ele>
        <time>2022-11-01T09:39:18Z</time>
      </trkpt>
      <trkpt lat="36.7844340" lon="-3.0645330">
        <ele>599.6</ele>
        <time>2022-11-01T09:39:19Z</time>
      </trkpt>
      <trkpt lat="36.7844340" lon="-3.0645360">
        <ele>599.6</ele>
        <time>2022-11-01T09:39:20Z</time>
      </trkpt>
      <trkpt lat="36.7844350" lon="-3.0645350">
        <ele>599.6</ele>
        <time>2022-11-01T09:39:21Z</time>
      </trkpt>
      <trkpt lat="36.7844370" lon="-3.0645340">
        <ele>599.6</ele>
        <time>2022-11-01T09:39:22Z</time>
      </trkpt>
      <trkpt lat="36.7844960" lon="-3.0645100">
        <ele>599.4</ele>
        <time>2022-11-01T09:39:29Z</time>
      </trkpt>
      <trkpt lat="36.7844960" lon="-3.0645100">
        <ele>599.4</ele>
        <time>2022-11-01T09:39:30Z</time>
      </trkpt>
      <trkpt lat="36.7845150" lon="-3.0645020">
        <ele>599.2</ele>
        <time>2022-11-01T09:39:31Z</time>
      </trkpt>
      <trkpt lat="36.7845360" lon="-3.0644910">
        <ele>599.2</ele>
        <time>2022-11-01T09:39:32Z</time>
      </trkpt>
      <trkpt lat="36.7845580" lon="-3.0644770">
        <ele>599.0</ele>
        <time>2022-11-01T09:39:33Z</time>
      </trkpt>
      <trkpt lat="36.7845810" lon="-3.0644600">
        <ele>599.0</ele>
        <time>2022-11-01T09:39:34Z</time>
      </trkpt>
      <trkpt lat="36.7846040" lon="-3.0644400">
        <ele>599.0</ele>
        <time>2022-11-01T09:39:35Z</time>
      </trkpt>
      <trkpt lat="36.7846290" lon="-3.0644160">
        <ele>598.8</ele>
        <time>2022-11-01T09:39:36Z</time>
      </trkpt>
      <trkpt lat="36.7846580" lon="-3.0643890">
        <ele>598.4</ele>
        <time>2022-11-01T09:39:37Z</time>
      </trkpt>
      <trkpt lat="36.7846900" lon="-3.0643540">
        <ele>598.2</ele>
        <time>2022-11-01T09:39:38Z</time>
      </trkpt>
      <trkpt lat="36.7847250" lon="-3.0643190">
        <ele>598.0</ele>
        <time>2022-11-01T09:39:39Z</time>
      </trkpt>
      <trkpt lat="36.7847650" lon="-3.0642930">
        <ele>597.6</ele>
        <time>2022-11-01T09:39:40Z</time>
      </trkpt>
      <trkpt lat="36.7848140" lon="-3.0642820">
        <ele>597.4</ele>
        <time>2022-11-01T09:39:41Z</time>
      </trkpt>
      <trkpt lat="36.7848620" lon="-3.0642920">
        <ele>597.2</ele>
        <time>2022-11-01T09:39:42Z</time>
      </trkpt>
      <trkpt lat="36.7849000" lon="-3.0643190">
        <ele>597.2</ele>
        <time>2022-11-01T09:39:43Z</time>
      </trkpt>
      <trkpt lat="36.7849310" lon="-3.0643560">
        <ele>597.2</ele>
        <time>2022-11-01T09:39:44Z</time>
      </trkpt>
      <trkpt lat="36.7849530" lon="-3.0643880">
        <ele>597.4</ele>
        <time>2022-11-01T09:39:45Z</time>
      </trkpt>
      <trkpt lat="36.7849760" lon="-3.0644210">
        <ele>597.6</ele>
        <time>2022-11-01T09:39:46Z</time>
      </trkpt>
      <trkpt lat="36.7849980" lon="-3.0644490">
        <ele>597.6</ele>
        <time>2022-11-01T09:39:47Z</time>
      </trkpt>
      <trkpt lat="36.7850210" lon="-3.0644720">
        <ele>597.6</ele>
        <time>2022-11-01T09:39:48Z</time>
      </trkpt>
      <trkpt lat="36.7850450" lon="-3.0644880">
        <ele>597.6</ele>
        <time>2022-11-01T09:39:49Z</time>
      </trkpt>
      <trkpt lat="36.7850660" lon="-3.0645000">
        <ele>597.8</ele>
        <time>2022-11-01T09:39:50Z</time>
      </trkpt>
      <trkpt lat="36.7850880" lon="-3.0645150">
        <ele>597.8</ele>
        <time>2022-11-01T09:39:51Z</time>
      </trkpt>
      <trkpt lat="36.7851100" lon="-3.0645260">
        <ele>597.8</ele>
        <time>2022-11-01T09:39:52Z</time>
      </trkpt>
      <trkpt lat="36.7851290" lon="-3.0645420">
        <ele>598.0</ele>
        <time>2022-11-01T09:39:53Z</time>
      </trkpt>
      <trkpt lat="36.7851470" lon="-3.0645570">
        <ele>598.0</ele>
        <time>2022-11-01T09:39:54Z</time>
      </trkpt>
      <trkpt lat="36.7851690" lon="-3.0645770">
        <ele>598.0</ele>
        <time>2022-11-01T09:39:55Z</time>
      </trkpt>
      <trkpt lat="36.7851940" lon="-3.0645970">
        <ele>598.0</ele>
        <time>2022-11-01T09:39:56Z</time>
      </trkpt>
      <trkpt lat="36.7852210" lon="-3.0646170">
        <ele>598.2</ele>
        <time>2022-11-01T09:39:57Z</time>
      </trkpt>
      <trkpt lat="36.7852480" lon="-3.0646370">
        <ele>598.2</ele>
        <time>2022-11-01T09:39:58Z</time>
      </trkpt>
      <trkpt lat="36.7852750" lon="-3.0646570">
        <ele>598.4</ele>
        <time>2022-11-01T09:39:59Z</time>
      </trkpt>
      <trkpt lat="36.7853020" lon="-3.0646770">
        <ele>598.4</ele>
        <time>2022-11-01T09:40:00Z</time>
      </trkpt>
      <trkpt lat="36.7853300" lon="-3.0646930">
        <ele>598.4</ele>
        <time>2022-11-01T09:40:01Z</time>
      </trkpt>
      <trkpt lat="36.7853590" lon="-3.0647110">
        <ele>598.6</ele>
        <time>2022-11-01T09:40:02Z</time>
      </trkpt>
      <trkpt lat="36.7853870" lon="-3.0647320">
        <ele>598.8</ele>
        <time>2022-11-01T09:40:03Z</time>
      </trkpt>
      <trkpt lat="36.7854130" lon="-3.0647540">
        <ele>599.0</ele>
        <time>2022-11-01T09:40:04Z</time>
      </trkpt>
      <trkpt lat="36.7854380" lon="-3.0647790">
        <ele>599.0</ele>
        <time>2022-11-01T09:40:05Z</time>
      </trkpt>
      <trkpt lat="36.7854650" lon="-3.0648060">
        <ele>599.0</ele>
        <time>2022-11-01T09:40:06Z</time>
      </trkpt>
      <trkpt lat="36.7854910" lon="-3.0648350">
        <ele>599.2</ele>
        <time>2022-11-01T09:40:07Z</time>
      </trkpt>
      <trkpt lat="36.7855150" lon="-3.0648690">
        <ele>599.4</ele>
        <time>2022-11-01T09:40:08Z</time>
      </trkpt>
      <trkpt lat="36.7855380" lon="-3.0649050">
        <ele>599.6</ele>
        <time>2022-11-01T09:40:09Z</time>
      </trkpt>
      <trkpt lat="36.7855580" lon="-3.0649430">
        <ele>599.6</ele>
        <time>2022-11-01T09:40:10Z</time>
      </trkpt>
      <trkpt lat="36.7855760" lon="-3.0649840">
        <ele>599.8</ele>
        <time>2022-11-01T09:40:11Z</time>
      </trkpt>
      <trkpt lat="36.7855920" lon="-3.0650260">
        <ele>599.8</ele>
        <time>2022-11-01T09:40:12Z</time>
      </trkpt>
      <trkpt lat="36.7856050" lon="-3.0650730">
        <ele>599.8</ele>
        <time>2022-11-01T09:40:13Z</time>
      </trkpt>
      <trkpt lat="36.7856170" lon="-3.0651190">
        <ele>599.8</ele>
        <time>2022-11-01T09:40:14Z</time>
      </trkpt>
      <trkpt lat="36.7856240" lon="-3.0651670">
        <ele>599.8</ele>
        <time>2022-11-01T09:40:15Z</time>
      </trkpt>
      <trkpt lat="36.7856290" lon="-3.0652190">
        <ele>599.6</ele>
        <time>2022-11-01T09:40:16Z</time>
      </trkpt>
      <trkpt lat="36.7856360" lon="-3.0652750">
        <ele>599.6</ele>
        <time>2022-11-01T09:40:17Z</time>
      </trkpt>
      <trkpt lat="36.7856450" lon="-3.0653380">
        <ele>599.2</ele>
        <time>2022-11-01T09:40:18Z</time>
      </trkpt>
      <trkpt lat="36.7856570" lon="-3.0654070">
        <ele>598.8</ele>
        <time>2022-11-01T09:40:19Z</time>
      </trkpt>
      <trkpt lat="36.7856690" lon="-3.0654800">
        <ele>598.4</ele>
        <time>2022-11-01T09:40:20Z</time>
      </trkpt>
      <trkpt lat="36.7856830" lon="-3.0655560">
        <ele>598.0</ele>
        <time>2022-11-01T09:40:21Z</time>
      </trkpt>
      <trkpt lat="36.7856990" lon="-3.0656350">
        <ele>597.4</ele>
        <time>2022-11-01T09:40:22Z</time>
      </trkpt>
      <trkpt lat="36.7857190" lon="-3.0657180">
        <ele>596.8</ele>
        <time>2022-11-01T09:40:23Z</time>
      </trkpt>
      <trkpt lat="36.7857490" lon="-3.0658050">
        <ele>596.0</ele>
        <time>2022-11-01T09:40:24Z</time>
      </trkpt>
      <trkpt lat="36.7857910" lon="-3.0658860">
        <ele>595.4</ele>
        <time>2022-11-01T09:40:25Z</time>
      </trkpt>
      <trkpt lat="36.7858430" lon="-3.0659610">
        <ele>594.4</ele>
        <time>2022-11-01T09:40:26Z</time>
      </trkpt>
      <trkpt lat="36.7859060" lon="-3.0660290">
        <ele>593.6</ele>
        <time>2022-11-01T09:40:27Z</time>
      </trkpt>
      <trkpt lat="36.7859710" lon="-3.0660920">
        <ele>592.6</ele>
        <time>2022-11-01T09:40:28Z</time>
      </trkpt>
      <trkpt lat="36.7860290" lon="-3.0661490">
        <ele>591.8</ele>
        <time>2022-11-01T09:40:29Z</time>
      </trkpt>
      <trkpt lat="36.7860790" lon="-3.0662120">
        <ele>590.6</ele>
        <time>2022-11-01T09:40:30Z</time>
      </trkpt>
      <trkpt lat="36.7861100" lon="-3.0662940">
        <ele>589.6</ele>
        <time>2022-11-01T09:40:31Z</time>
      </trkpt>
      <trkpt lat="36.7861130" lon="-3.0663890">
        <ele>588.8</ele>
        <time>2022-11-01T09:40:32Z</time>
      </trkpt>
      <trkpt lat="36.7860900" lon="-3.0664900">
        <ele>588.0</ele>
        <time>2022-11-01T09:40:33Z</time>
      </trkpt>
      <trkpt lat="36.7860570" lon="-3.0665930">
        <ele>587.2</ele>
        <time>2022-11-01T09:40:34Z</time>
      </trkpt>
      <trkpt lat="36.7860370" lon="-3.0667040">
        <ele>586.4</ele>
        <time>2022-11-01T09:40:35Z</time>
      </trkpt>
      <trkpt lat="36.7860450" lon="-3.0668140">
        <ele>585.6</ele>
        <time>2022-11-01T09:40:36Z</time>
      </trkpt>
      <trkpt lat="36.7860780" lon="-3.0669230">
        <ele>584.8</ele>
        <time>2022-11-01T09:40:37Z</time>
      </trkpt>
      <trkpt lat="36.7861290" lon="-3.0670290">
        <ele>583.8</ele>
        <time>2022-11-01T09:40:38Z</time>
      </trkpt>
      <trkpt lat="36.7861930" lon="-3.0671290">
        <ele>583.0</ele>
        <time>2022-11-01T09:40:39Z</time>
      </trkpt>
      <trkpt lat="36.7862710" lon="-3.0672230">
        <ele>582.0</ele>
        <time>2022-11-01T09:40:40Z</time>
      </trkpt>
      <trkpt lat="36.7863580" lon="-3.0673100">
        <ele>581.0</ele>
        <time>2022-11-01T09:40:41Z</time>
      </trkpt>
      <trkpt lat="36.7864340" lon="-3.0674070">
        <ele>580.2</ele>
        <time>2022-11-01T09:40:42Z</time>
      </trkpt>
      <trkpt lat="36.7864890" lon="-3.0675170">
        <ele>579.0</ele>
        <time>2022-11-01T09:40:43Z</time>
      </trkpt>
      <trkpt lat="36.7865260" lon="-3.0676530">
        <ele>578.0</ele>
        <time>2022-11-01T09:40:44Z</time>
      </trkpt>
      <trkpt lat="36.7865680" lon="-3.0677940">
        <ele>576.8</ele>
        <time>2022-11-01T09:40:45Z</time>
      </trkpt>
      <trkpt lat="36.7866250" lon="-3.0679330">
        <ele>575.4</ele>
        <time>2022-11-01T09:40:46Z</time>
      </trkpt>
      <trkpt lat="36.7866920" lon="-3.0680640">
        <ele>574.4</ele>
        <time>2022-11-01T09:40:47Z</time>
      </trkpt>
      <trkpt lat="36.7867640" lon="-3.0681750">
        <ele>573.4</ele>
        <time>2022-11-01T09:40:48Z</time>
      </trkpt>
      <trkpt lat="36.7868320" lon="-3.0682650">
        <ele>572.4</ele>
        <time>2022-11-01T09:40:49Z</time>
      </trkpt>
      <trkpt lat="36.7869000" lon="-3.0683330">
        <ele>571.6</ele>
        <time>2022-11-01T09:40:50Z</time>
      </trkpt>
      <trkpt lat="36.7869700" lon="-3.0683730">
        <ele>570.8</ele>
        <time>2022-11-01T09:40:51Z</time>
      </trkpt>
      <trkpt lat="36.7870490" lon="-3.0683850">
        <ele>570.0</ele>
        <time>2022-11-01T09:40:52Z</time>
      </trkpt>
      <trkpt lat="36.7871340" lon="-3.0683790">
        <ele>569.2</ele>
        <time>2022-11-01T09:40:53Z</time>
      </trkpt>
      <trkpt lat="36.7872250" lon="-3.0683670">
        <ele>568.2</ele>
        <time>2022-11-01T09:40:54Z</time>
      </trkpt>
      <trkpt lat="36.7873210" lon="-3.0683490">
        <ele>567.2</ele>
        <time>2022-11-01T09:40:55Z</time>
      </trkpt>
      <trkpt lat="36.7874180" lon="-3.0683400">
        <ele>566.2</ele>
        <time>2022-11-01T09:40:56Z</time>
      </trkpt>
      <trkpt lat="36.7875170" lon="-3.0683360">
        <ele>565.2</ele>
        <time>2022-11-01T09:40:57Z</time>
      </trkpt>
      <trkpt lat="36.7876210" lon="-3.0683330">
        <ele>564.2</ele>
        <time>2022-11-01T09:40:58Z</time>
      </trkpt>
      <trkpt lat="36.7877290" lon="-3.0683480">
        <ele>563.2</ele>
        <time>2022-11-01T09:40:59Z</time>
      </trkpt>
      <trkpt lat="36.7878400" lon="-3.0683870">
        <ele>562.2</ele>
        <time>2022-11-01T09:41:00Z</time>
      </trkpt>
      <trkpt lat="36.7879480" lon="-3.0684540">
        <ele>561.0</ele>
        <time>2022-11-01T09:41:01Z</time>
      </trkpt>
      <trkpt lat="36.7880510" lon="-3.0685400">
        <ele>559.8</ele>
        <time>2022-11-01T09:41:02Z</time>
      </trkpt>
      <trkpt lat="36.7881580" lon="-3.0686350">
        <ele>558.4</ele>
        <time>2022-11-01T09:41:03Z</time>
      </trkpt>
      <trkpt lat="36.7882700" lon="-3.0687240">
        <ele>557.2</ele>
        <time>2022-11-01T09:41:04Z</time>
      </trkpt>
      <trkpt lat="36.7883860" lon="-3.0688050">
        <ele>555.8</ele>
        <time>2022-11-01T09:41:05Z</time>
      </trkpt>
      <trkpt lat="36.7885030" lon="-3.0688720">
        <ele>554.4</ele>
        <time>2022-11-01T09:41:06Z</time>
      </trkpt>
      <trkpt lat="36.7886220" lon="-3.0689170">
        <ele>553.2</ele>
        <time>2022-11-01T09:41:07Z</time>
      </trkpt>
      <trkpt lat="36.7887420" lon="-3.0689390">
        <ele>552.0</ele>
        <time>2022-11-01T09:41:08Z</time>
      </trkpt>
      <trkpt lat="36.7888650" lon="-3.0689500">
        <ele>550.8</ele>
        <time>2022-11-01T09:41:09Z</time>
      </trkpt>
      <trkpt lat="36.7889880" lon="-3.0689650">
        <ele>549.8</ele>
        <time>2022-11-01T09:41:10Z</time>
      </trkpt>
      <trkpt lat="36.7891110" lon="-3.0689920">
        <ele>548.8</ele>
        <time>2022-11-01T09:41:11Z</time>
      </trkpt>
      <trkpt lat="36.7892290" lon="-3.0690310">
        <ele>547.8</ele>
        <time>2022-11-01T09:41:12Z</time>
      </trkpt>
      <trkpt lat="36.7893390" lon="-3.0690950">
        <ele>547.0</ele>
        <time>2022-11-01T09:41:13Z</time>
      </trkpt>
      <trkpt lat="36.7894340" lon="-3.0691920">
        <ele>546.0</ele>
        <time>2022-11-01T09:41:14Z</time>
      </trkpt>
      <trkpt lat="36.7895160" lon="-3.0693100">
        <ele>545.0</ele>
        <time>2022-11-01T09:41:15Z</time>
      </trkpt>
      <trkpt lat="36.7895940" lon="-3.0694340">
        <ele>544.2</ele>
        <time>2022-11-01T09:41:16Z</time>
      </trkpt>
      <trkpt lat="36.7896750" lon="-3.0695590">
        <ele>543.4</ele>
        <time>2022-11-01T09:41:17Z</time>
      </trkpt>
      <trkpt lat="36.7897570" lon="-3.0696870">
        <ele>542.4</ele>
        <time>2022-11-01T09:41:18Z</time>
      </trkpt>
      <trkpt lat="36.7898270" lon="-3.0698290">
        <ele>541.4</ele>
        <time>2022-11-01T09:41:19Z</time>
      </trkpt>
      <trkpt lat="36.7898690" lon="-3.0699810">
        <ele>540.4</ele>
        <time>2022-11-01T09:41:20Z</time>
      </trkpt>
      <trkpt lat="36.7898800" lon="-3.0701290">
        <ele>539.6</ele>
        <time>2022-11-01T09:41:21Z</time>
      </trkpt>
      <trkpt lat="36.7898650" lon="-3.0702640">
        <ele>538.8</ele>
        <time>2022-11-01T09:41:22Z</time>
      </trkpt>
      <trkpt lat="36.7898490" lon="-3.0703980">
        <ele>538.4</ele>
        <time>2022-11-01T09:41:23Z</time>
      </trkpt>
      <trkpt lat="36.7898580" lon="-3.0705330">
        <ele>537.6</ele>
        <time>2022-11-01T09:41:24Z</time>
      </trkpt>
      <trkpt lat="36.7898930" lon="-3.0706640">
        <ele>536.8</ele>
        <time>2022-11-01T09:41:25Z</time>
      </trkpt>
      <trkpt lat="36.7899360" lon="-3.0707950">
        <ele>536.0</ele>
        <time>2022-11-01T09:41:26Z</time>
      </trkpt>
      <trkpt lat="36.7899640" lon="-3.0709360">
        <ele>535.2</ele>
        <time>2022-11-01T09:41:27Z</time>
      </trkpt>
      <trkpt lat="36.7899730" lon="-3.0710800">
        <ele>534.2</ele>
        <time>2022-11-01T09:41:28Z</time>
      </trkpt>
      <trkpt lat="36.7899790" lon="-3.0712240">
        <ele>533.4</ele>
        <time>2022-11-01T09:41:29Z</time>
      </trkpt>
      <trkpt lat="36.7900030" lon="-3.0713650">
        <ele>532.6</ele>
        <time>2022-11-01T09:41:30Z</time>
      </trkpt>
      <trkpt lat="36.7900460" lon="-3.0715030">
        <ele>531.6</ele>
        <time>2022-11-01T09:41:31Z</time>
      </trkpt>
      <trkpt lat="36.7900950" lon="-3.0716390">
        <ele>530.6</ele>
        <time>2022-11-01T09:41:32Z</time>
      </trkpt>
      <trkpt lat="36.7901260" lon="-3.0717760">
        <ele>529.8</ele>
        <time>2022-11-01T09:41:33Z</time>
      </trkpt>
      <trkpt lat="36.7901260" lon="-3.0719150">
        <ele>529.0</ele>
        <time>2022-11-01T09:41:34Z</time>
      </trkpt>
      <trkpt lat="36.7901110" lon="-3.0720550">
        <ele>528.2</ele>
        <time>2022-11-01T09:41:35Z</time>
      </trkpt>
      <trkpt lat="36.7901120" lon="-3.0722000">
        <ele>527.2</ele>
        <time>2022-11-01T09:41:36Z</time>
      </trkpt>
      <trkpt lat="36.7901350" lon="-3.0723460">
        <ele>526.4</ele>
        <time>2022-11-01T09:41:37Z</time>
      </trkpt>
      <trkpt lat="36.7901660" lon="-3.0724930">
        <ele>525.6</ele>
        <time>2022-11-01T09:41:38Z</time>
      </trkpt>
      <trkpt lat="36.7901830" lon="-3.0726390">
        <ele>524.8</ele>
        <time>2022-11-01T09:41:39Z</time>
      </trkpt>
      <trkpt lat="36.7901810" lon="-3.0727770">
        <ele>524.0</ele>
        <time>2022-11-01T09:41:40Z</time>
      </trkpt>
      <trkpt lat="36.7901690" lon="-3.0728980">
        <ele>523.2</ele>
        <time>2022-11-01T09:41:41Z</time>
      </trkpt>
      <trkpt lat="36.7901550" lon="-3.0730010">
        <ele>522.4</ele>
        <time>2022-11-01T09:41:42Z</time>
      </trkpt>
      <trkpt lat="36.7901500" lon="-3.0730910">
        <ele>521.8</ele>
        <time>2022-11-01T09:41:43Z</time>
      </trkpt>
      <trkpt lat="36.7901640" lon="-3.0731770">
        <ele>521.2</ele>
        <time>2022-11-01T09:41:44Z</time>
      </trkpt>
      <trkpt lat="36.7902020" lon="-3.0732520">
        <ele>520.8</ele>
        <time>2022-11-01T09:41:45Z</time>
      </trkpt>
      <trkpt lat="36.7902610" lon="-3.0733020">
        <ele>520.2</ele>
        <time>2022-11-01T09:41:46Z</time>
      </trkpt>
      <trkpt lat="36.7903350" lon="-3.0733280">
        <ele>519.6</ele>
        <time>2022-11-01T09:41:47Z</time>
      </trkpt>
      <trkpt lat="36.7904180" lon="-3.0733490">
        <ele>518.8</ele>
        <time>2022-11-01T09:41:48Z</time>
      </trkpt>
      <trkpt lat="36.7904990" lon="-3.0733750">
        <ele>518.0</ele>
        <time>2022-11-01T09:41:49Z</time>
      </trkpt>
      <trkpt lat="36.7905760" lon="-3.0734110">
        <ele>517.4</ele>
        <time>2022-11-01T09:41:50Z</time>
      </trkpt>
      <trkpt lat="36.7906450" lon="-3.0734730">
        <ele>516.8</ele>
        <time>2022-11-01T09:41:51Z</time>
      </trkpt>
      <trkpt lat="36.7907020" lon="-3.0735530">
        <ele>516.2</ele>
        <time>2022-11-01T09:41:52Z</time>
      </trkpt>
      <trkpt lat="36.7907500" lon="-3.0736430">
        <ele>515.8</ele>
        <time>2022-11-01T09:41:53Z</time>
      </trkpt>
      <trkpt lat="36.7907930" lon="-3.0737330">
        <ele>515.4</ele>
        <time>2022-11-01T09:41:54Z</time>
      </trkpt>
      <trkpt lat="36.7908340" lon="-3.0738250">
        <ele>515.2</ele>
        <time>2022-11-01T09:41:55Z</time>
      </trkpt>
      <trkpt lat="36.7908740" lon="-3.0739140">
        <ele>515.2</ele>
        <time>2022-11-01T09:41:56Z</time>
      </trkpt>
      <trkpt lat="36.7909240" lon="-3.0739910">
        <ele>515.0</ele>
        <time>2022-11-01T09:41:57Z</time>
      </trkpt>
      <trkpt lat="36.7909880" lon="-3.0740420">
        <ele>515.0</ele>
        <time>2022-11-01T09:41:58Z</time>
      </trkpt>
      <trkpt lat="36.7910610" lon="-3.0740640">
        <ele>514.8</ele>
        <time>2022-11-01T09:41:59Z</time>
      </trkpt>
      <trkpt lat="36.7911390" lon="-3.0740620">
        <ele>514.6</ele>
        <time>2022-11-01T09:42:00Z</time>
      </trkpt>
      <trkpt lat="36.7912190" lon="-3.0740480">
        <ele>514.2</ele>
        <time>2022-11-01T09:42:01Z</time>
      </trkpt>
      <trkpt lat="36.7913090" lon="-3.0740290">
        <ele>513.6</ele>
        <time>2022-11-01T09:42:02Z</time>
      </trkpt>
      <trkpt lat="36.7914000" lon="-3.0740150">
        <ele>513.0</ele>
        <time>2022-11-01T09:42:03Z</time>
      </trkpt>
      <trkpt lat="36.7914930" lon="-3.0740190">
        <ele>512.4</ele>
        <time>2022-11-01T09:42:04Z</time>
      </trkpt>
      <trkpt lat="36.7915900" lon="-3.0740370">
        <ele>511.6</ele>
        <time>2022-11-01T09:42:05Z</time>
      </trkpt>
      <trkpt lat="36.7916890" lon="-3.0740490">
        <ele>511.0</ele>
        <time>2022-11-01T09:42:06Z</time>
      </trkpt>
      <trkpt lat="36.7917860" lon="-3.0740490">
        <ele>510.4</ele>
        <time>2022-11-01T09:42:07Z</time>
      </trkpt>
      <trkpt lat="36.7918730" lon="-3.0740270">
        <ele>509.6</ele>
        <time>2022-11-01T09:42:08Z</time>
      </trkpt>
      <trkpt lat="36.7919470" lon="-3.0739750">
        <ele>508.8</ele>
        <time>2022-11-01T09:42:09Z</time>
      </trkpt>
      <trkpt lat="36.7920050" lon="-3.0738920">
        <ele>508.0</ele>
        <time>2022-11-01T09:42:10Z</time>
      </trkpt>
      <trkpt lat="36.7920510" lon="-3.0737860">
        <ele>507.4</ele>
        <time>2022-11-01T09:42:11Z</time>
      </trkpt>
      <trkpt lat="36.7920950" lon="-3.0736770">
        <ele>506.6</ele>
        <time>2022-11-01T09:42:12Z</time>
      </trkpt>
      <trkpt lat="36.7921500" lon="-3.0735880">
        <ele>505.6</ele>
        <time>2022-11-01T09:42:13Z</time>
      </trkpt>
      <trkpt lat="36.7922260" lon="-3.0735350">
        <ele>504.8</ele>
        <time>2022-11-01T09:42:14Z</time>
      </trkpt>
      <trkpt lat="36.7923140" lon="-3.0735150">
        <ele>503.8</ele>
        <time>2022-11-01T09:42:15Z</time>
      </trkpt>
      <trkpt lat="36.7924080" lon="-3.0735100">
        <ele>503.2</ele>
        <time>2022-11-01T09:42:16Z</time>
      </trkpt>
      <trkpt lat="36.7925060" lon="-3.0734890">
        <ele>502.4</ele>
        <time>2022-11-01T09:42:17Z</time>
      </trkpt>
      <trkpt lat="36.7926030" lon="-3.0734420">
        <ele>501.4</ele>
        <time>2022-11-01T09:42:18Z</time>
      </trkpt>
      <trkpt lat="36.7926970" lon="-3.0733720">
        <ele>500.6</ele>
        <time>2022-11-01T09:42:19Z</time>
      </trkpt>
      <trkpt lat="36.7927900" lon="-3.0732870">
        <ele>499.6</ele>
        <time>2022-11-01T09:42:20Z</time>
      </trkpt>
      <trkpt lat="36.7928850" lon="-3.0731970">
        <ele>498.4</ele>
        <time>2022-11-01T09:42:21Z</time>
      </trkpt>
      <trkpt lat="36.7929890" lon="-3.0731060">
        <ele>497.4</ele>
        <time>2022-11-01T09:42:22Z</time>
      </trkpt>
      <trkpt lat="36.7931040" lon="-3.0730340">
        <ele>495.8</ele>
        <time>2022-11-01T09:42:23Z</time>
      </trkpt>
      <trkpt lat="36.7932290" lon="-3.0729870">
        <ele>494.6</ele>
        <time>2022-11-01T09:42:24Z</time>
      </trkpt>
      <trkpt lat="36.7933630" lon="-3.0729540">
        <ele>493.4</ele>
        <time>2022-11-01T09:42:25Z</time>
      </trkpt>
      <trkpt lat="36.7934940" lon="-3.0729110">
        <ele>492.4</ele>
        <time>2022-11-01T09:42:26Z</time>
      </trkpt>
      <trkpt lat="36.7936140" lon="-3.0728520">
        <ele>491.2</ele>
        <time>2022-11-01T09:42:27Z</time>
      </trkpt>
      <trkpt lat="36.7937190" lon="-3.0727760">
        <ele>490.2</ele>
        <time>2022-11-01T09:42:28Z</time>
      </trkpt>
      <trkpt lat="36.7937960" lon="-3.0726910">
        <ele>489.4</ele>
        <time>2022-11-01T09:42:29Z</time>
      </trkpt>
      <trkpt lat="36.7938480" lon="-3.0725920">
        <ele>488.6</ele>
        <time>2022-11-01T09:42:30Z</time>
      </trkpt>
      <trkpt lat="36.7938720" lon="-3.0724760">
        <ele>487.8</ele>
        <time>2022-11-01T09:42:31Z</time>
      </trkpt>
      <trkpt lat="36.7938730" lon="-3.0723480">
        <ele>486.6</ele>
        <time>2022-11-01T09:42:32Z</time>
      </trkpt>
      <trkpt lat="36.7938610" lon="-3.0722160">
        <ele>485.8</ele>
        <time>2022-11-01T09:42:33Z</time>
      </trkpt>
      <trkpt lat="36.7938380" lon="-3.0720960">
        <ele>484.8</ele>
        <time>2022-11-01T09:42:34Z</time>
      </trkpt>
      <trkpt lat="36.7937960" lon="-3.0719930">
        <ele>484.0</ele>
        <time>2022-11-01T09:42:35Z</time>
      </trkpt>
      <trkpt lat="36.7937320" lon="-3.0719080">
        <ele>483.0</ele>
        <time>2022-11-01T09:42:36Z</time>
      </trkpt>
      <trkpt lat="36.7936510" lon="-3.0718340">
        <ele>482.2</ele>
        <time>2022-11-01T09:42:37Z</time>
      </trkpt>
      <trkpt lat="36.7935650" lon="-3.0717610">
        <ele>481.2</ele>
        <time>2022-11-01T09:42:38Z</time>
      </trkpt>
      <trkpt lat="36.7934850" lon="-3.0716840">
        <ele>480.2</ele>
        <time>2022-11-01T09:42:39Z</time>
      </trkpt>
      <trkpt lat="36.7934220" lon="-3.0716100">
        <ele>479.0</ele>
        <time>2022-11-01T09:42:40Z</time>
      </trkpt>
      <trkpt lat="36.7933790" lon="-3.0715450">
        <ele>478.2</ele>
        <time>2022-11-01T09:42:41Z</time>
      </trkpt>
      <trkpt lat="36.7933560" lon="-3.0714950">
        <ele>477.6</ele>
        <time>2022-11-01T09:42:42Z</time>
      </trkpt>
      <trkpt lat="36.7933620" lon="-3.0714400">
        <ele>477.0</ele>
        <time>2022-11-01T09:42:43Z</time>
      </trkpt>
      <trkpt lat="36.7933880" lon="-3.0713980">
        <ele>476.6</ele>
        <time>2022-11-01T09:42:44Z</time>
      </trkpt>
      <trkpt lat="36.7934360" lon="-3.0713730">
        <ele>476.2</ele>
        <time>2022-11-01T09:42:45Z</time>
      </trkpt>
      <trkpt lat="36.7935030" lon="-3.0713620">
        <ele>475.8</ele>
        <time>2022-11-01T09:42:46Z</time>
      </trkpt>
      <trkpt lat="36.7935770" lon="-3.0713630">
        <ele>475.2</ele>
        <time>2022-11-01T09:42:47Z</time>
      </trkpt>
      <trkpt lat="36.7936570" lon="-3.0713670">
        <ele>474.4</ele>
        <time>2022-11-01T09:42:48Z</time>
      </trkpt>
      <trkpt lat="36.7937460" lon="-3.0713570">
        <ele>473.4</ele>
        <time>2022-11-01T09:42:49Z</time>
      </trkpt>
      <trkpt lat="36.7938390" lon="-3.0713240">
        <ele>472.4</ele>
        <time>2022-11-01T09:42:50Z</time>
      </trkpt>
      <trkpt lat="36.7939330" lon="-3.0712670">
        <ele>471.2</ele>
        <time>2022-11-01T09:42:51Z</time>
      </trkpt>
      <trkpt lat="36.7940290" lon="-3.0712120">
        <ele>470.0</ele>
        <time>2022-11-01T09:42:52Z</time>
      </trkpt>
      <trkpt lat="36.7941210" lon="-3.0711410">
        <ele>468.6</ele>
        <time>2022-11-01T09:42:53Z</time>
      </trkpt>
      <trkpt lat="36.7942030" lon="-3.0710440">
        <ele>467.2</ele>
        <time>2022-11-01T09:42:54Z</time>
      </trkpt>
      <trkpt lat="36.7942840" lon="-3.0709350">
        <ele>465.6</ele>
        <time>2022-11-01T09:42:55Z</time>
      </trkpt>
      <trkpt lat="36.7943840" lon="-3.0708400">
        <ele>464.2</ele>
        <time>2022-11-01T09:42:56Z</time>
      </trkpt>
      <trkpt lat="36.7944960" lon="-3.0707660">
        <ele>462.8</ele>
        <time>2022-11-01T09:42:57Z</time>
      </trkpt>
      <trkpt lat="36.7946110" lon="-3.0707010">
        <ele>461.6</ele>
        <time>2022-11-01T09:42:58Z</time>
      </trkpt>
      <trkpt lat="36.7947040" lon="-3.0706240">
        <ele>460.4</ele>
        <time>2022-11-01T09:42:59Z</time>
      </trkpt>
      <trkpt lat="36.7947700" lon="-3.0705300">
        <ele>459.4</ele>
        <time>2022-11-01T09:43:00Z</time>
      </trkpt>
      <trkpt lat="36.7948150" lon="-3.0704350">
        <ele>458.6</ele>
        <time>2022-11-01T09:43:01Z</time>
      </trkpt>
      <trkpt lat="36.7948600" lon="-3.0703550">
        <ele>458.0</ele>
        <time>2022-11-01T09:43:02Z</time>
      </trkpt>
      <trkpt lat="36.7948880" lon="-3.0702870">
        <ele>457.4</ele>
        <time>2022-11-01T09:43:03Z</time>
      </trkpt>
      <trkpt lat="36.7949160" lon="-3.0702280">
        <ele>457.0</ele>
        <time>2022-11-01T09:43:04Z</time>
      </trkpt>
      <trkpt lat="36.7949580" lon="-3.0701720">
        <ele>456.8</ele>
        <time>2022-11-01T09:43:05Z</time>
      </trkpt>
      <trkpt lat="36.7950010" lon="-3.0701280">
        <ele>456.4</ele>
        <time>2022-11-01T09:43:06Z</time>
      </trkpt>
      <trkpt lat="36.7950520" lon="-3.0701020">
        <ele>456.2</ele>
        <time>2022-11-01T09:43:07Z</time>
      </trkpt>
      <trkpt lat="36.7950940" lon="-3.0700960">
        <ele>456.0</ele>
        <time>2022-11-01T09:43:08Z</time>
      </trkpt>
      <trkpt lat="36.7951360" lon="-3.0701100">
        <ele>455.8</ele>
        <time>2022-11-01T09:43:09Z</time>
      </trkpt>
      <trkpt lat="36.7951790" lon="-3.0701400">
        <ele>455.6</ele>
        <time>2022-11-01T09:43:10Z</time>
      </trkpt>
      <trkpt lat="36.7952030" lon="-3.0701810">
        <ele>455.6</ele>
        <time>2022-11-01T09:43:11Z</time>
      </trkpt>
      <trkpt lat="36.7952140" lon="-3.0702280">
        <ele>455.2</ele>
        <time>2022-11-01T09:43:12Z</time>
      </trkpt>
      <trkpt lat="36.7952160" lon="-3.0702960">
        <ele>454.8</ele>
        <time>2022-11-01T09:43:13Z</time>
      </trkpt>
      <trkpt lat="36.7951990" lon="-3.0703660">
        <ele>454.2</ele>
        <time>2022-11-01T09:43:14Z</time>
      </trkpt>
      <trkpt lat="36.7951660" lon="-3.0704370">
        <ele>453.8</ele>
        <time>2022-11-01T09:43:15Z</time>
      </trkpt>
      <trkpt lat="36.7951250" lon="-3.0705060">
        <ele>453.4</ele>
        <time>2022-11-01T09:43:16Z</time>
      </trkpt>
      <trkpt lat="36.7950790" lon="-3.0705770">
        <ele>453.0</ele>
        <time>2022-11-01T09:43:17Z</time>
      </trkpt>
      <trkpt lat="36.7950310" lon="-3.0706460">
        <ele>452.4</ele>
        <time>2022-11-01T09:43:18Z</time>
      </trkpt>
      <trkpt lat="36.7949890" lon="-3.0707190">
        <ele>451.8</ele>
        <time>2022-11-01T09:43:19Z</time>
      </trkpt>
      <trkpt lat="36.7949560" lon="-3.0708050">
        <ele>451.2</ele>
        <time>2022-11-01T09:43:20Z</time>
      </trkpt>
      <trkpt lat="36.7949310" lon="-3.0709000">
        <ele>450.6</ele>
        <time>2022-11-01T09:43:21Z</time>
      </trkpt>
      <trkpt lat="36.7949170" lon="-3.0709960">
        <ele>450.0</ele>
        <time>2022-11-01T09:43:22Z</time>
      </trkpt>
      <trkpt lat="36.7949080" lon="-3.0710940">
        <ele>449.2</ele>
        <time>2022-11-01T09:43:23Z</time>
      </trkpt>
      <trkpt lat="36.7949030" lon="-3.0711890">
        <ele>448.6</ele>
        <time>2022-11-01T09:43:24Z</time>
      </trkpt>
      <trkpt lat="36.7948960" lon="-3.0712810">
        <ele>448.0</ele>
        <time>2022-11-01T09:43:25Z</time>
      </trkpt>
      <trkpt lat="36.7948810" lon="-3.0713590">
        <ele>447.4</ele>
        <time>2022-11-01T09:43:26Z</time>
      </trkpt>
      <trkpt lat="36.7948590" lon="-3.0714290">
        <ele>446.8</ele>
        <time>2022-11-01T09:43:27Z</time>
      </trkpt>
      <trkpt lat="36.7948300" lon="-3.0714960">
        <ele>446.6</ele>
        <time>2022-11-01T09:43:28Z</time>
      </trkpt>
      <trkpt lat="36.7948080" lon="-3.0715650">
        <ele>446.4</ele>
        <time>2022-11-01T09:43:29Z</time>
      </trkpt>
      <trkpt lat="36.7948060" lon="-3.0716330">
        <ele>446.6</ele>
        <time>2022-11-01T09:43:30Z</time>
      </trkpt>
      <trkpt lat="36.7948210" lon="-3.0716900">
        <ele>446.8</ele>
        <time>2022-11-01T09:43:31Z</time>
      </trkpt>
      <trkpt lat="36.7948440" lon="-3.0717330">
        <ele>447.0</ele>
        <time>2022-11-01T09:43:32Z</time>
      </trkpt>
      <trkpt lat="36.7948680" lon="-3.0717650">
        <ele>447.4</ele>
        <time>2022-11-01T09:43:33Z</time>
      </trkpt>
      <trkpt lat="36.7948880" lon="-3.0717920">
        <ele>447.6</ele>
        <time>2022-11-01T09:43:34Z</time>
      </trkpt>
      <trkpt lat="36.7949040" lon="-3.0718150">
        <ele>447.8</ele>
        <time>2022-11-01T09:43:35Z</time>
      </trkpt>
      <trkpt lat="36.7949160" lon="-3.0718380">
        <ele>448.0</ele>
        <time>2022-11-01T09:43:36Z</time>
      </trkpt>
      <trkpt lat="36.7949240" lon="-3.0718530">
        <ele>448.4</ele>
        <time>2022-11-01T09:43:37Z</time>
      </trkpt>
      <trkpt lat="36.7949380" lon="-3.0718690">
        <ele>448.6</ele>
        <time>2022-11-01T09:43:38Z</time>
      </trkpt>
      <trkpt lat="36.7949520" lon="-3.0718830">
        <ele>448.8</ele>
        <time>2022-11-01T09:43:39Z</time>
      </trkpt>
      <trkpt lat="36.7949670" lon="-3.0718990">
        <ele>448.8</ele>
        <time>2022-11-01T09:43:40Z</time>
      </trkpt>
      <trkpt lat="36.7949800" lon="-3.0719180">
        <ele>449.0</ele>
        <time>2022-11-01T09:43:41Z</time>
      </trkpt>
      <trkpt lat="36.7949950" lon="-3.0719390">
        <ele>449.2</ele>
        <time>2022-11-01T09:43:42Z</time>
      </trkpt>
      <trkpt lat="36.7950090" lon="-3.0719620">
        <ele>449.4</ele>
        <time>2022-11-01T09:43:43Z</time>
      </trkpt>
      <trkpt lat="36.7950270" lon="-3.0719800">
        <ele>449.6</ele>
        <time>2022-11-01T09:43:44Z</time>
      </trkpt>
      <trkpt lat="36.7950450" lon="-3.0719960">
        <ele>449.8</ele>
        <time>2022-11-01T09:43:45Z</time>
      </trkpt>
      <trkpt lat="36.7950610" lon="-3.0720160">
        <ele>450.0</ele>
        <time>2022-11-01T09:43:46Z</time>
      </trkpt>
      <trkpt lat="36.7950750" lon="-3.0720340">
        <ele>450.2</ele>
        <time>2022-11-01T09:43:47Z</time>
      </trkpt>
      <trkpt lat="36.7950890" lon="-3.0720490">
        <ele>450.4</ele>
        <time>2022-11-01T09:43:48Z</time>
      </trkpt>
      <trkpt lat="36.7951050" lon="-3.0720670">
        <ele>450.6</ele>
        <time>2022-11-01T09:43:49Z</time>
      </trkpt>
      <trkpt lat="36.7951250" lon="-3.0720870">
        <ele>450.8</ele>
        <time>2022-11-01T09:43:50Z</time>
      </trkpt>
      <trkpt lat="36.7951440" lon="-3.0721080">
        <ele>451.0</ele>
        <time>2022-11-01T09:43:51Z</time>
      </trkpt>
      <trkpt lat="36.7951640" lon="-3.0721330">
        <ele>451.2</ele>
        <time>2022-11-01T09:43:52Z</time>
      </trkpt>
      <trkpt lat="36.7951850" lon="-3.0721560">
        <ele>451.4</ele>
        <time>2022-11-01T09:43:53Z</time>
      </trkpt>
      <trkpt lat="36.7952070" lon="-3.0721780">
        <ele>451.8</ele>
        <time>2022-11-01T09:43:54Z</time>
      </trkpt>
      <trkpt lat="36.7952310" lon="-3.0721970">
        <ele>452.0</ele>
        <time>2022-11-01T09:43:55Z</time>
      </trkpt>
      <trkpt lat="36.7952550" lon="-3.0722180">
        <ele>452.2</ele>
        <time>2022-11-01T09:43:56Z</time>
      </trkpt>
      <trkpt lat="36.7952780" lon="-3.0722410">
        <ele>452.4</ele>
        <time>2022-11-01T09:43:57Z</time>
      </trkpt>
      <trkpt lat="36.7953010" lon="-3.0722570">
        <ele>452.6</ele>
        <time>2022-11-01T09:43:58Z</time>
      </trkpt>
      <trkpt lat="36.7953220" lon="-3.0722760">
        <ele>453.0</ele>
        <time>2022-11-01T09:43:59Z</time>
      </trkpt>
      <trkpt lat="36.7953420" lon="-3.0722930">
        <ele>453.0</ele>
        <time>2022-11-01T09:44:00Z</time>
      </trkpt>
      <trkpt lat="36.7953610" lon="-3.0723090">
        <ele>453.2</ele>
        <time>2022-11-01T09:44:01Z</time>
      </trkpt>
      <trkpt lat="36.7953780" lon="-3.0723270">
        <ele>453.6</ele>
        <time>2022-11-01T09:44:02Z</time>
      </trkpt>
      <trkpt lat="36.7953950" lon="-3.0723430">
        <ele>453.6</ele>
        <time>2022-11-01T09:44:03Z</time>
      </trkpt>
      <trkpt lat="36.7954120" lon="-3.0723580">
        <ele>453.8</ele>
        <time>2022-11-01T09:44:04Z</time>
      </trkpt>
      <trkpt lat="36.7954290" lon="-3.0723720">
        <ele>454.0</ele>
        <time>2022-11-01T09:44:05Z</time>
      </trkpt>
      <trkpt lat="36.7954480" lon="-3.0723870">
        <ele>454.2</ele>
        <time>2022-11-01T09:44:06Z</time>
      </trkpt>
      <trkpt lat="36.7954680" lon="-3.0724020">
        <ele>454.2</ele>
        <time>2022-11-01T09:44:07Z</time>
      </trkpt>
      <trkpt lat="36.7954880" lon="-3.0724130">
        <ele>454.4</ele>
        <time>2022-11-01T09:44:08Z</time>
      </trkpt>
      <trkpt lat="36.7955050" lon="-3.0724290">
        <ele>454.6</ele>
        <time>2022-11-01T09:44:09Z</time>
      </trkpt>
      <trkpt lat="36.7955220" lon="-3.0724470">
        <ele>454.8</ele>
        <time>2022-11-01T09:44:10Z</time>
      </trkpt>
      <trkpt lat="36.7955390" lon="-3.0724640">
        <ele>454.8</ele>
        <time>2022-11-01T09:44:11Z</time>
      </trkpt>
      <trkpt lat="36.7955580" lon="-3.0724740">
        <ele>455.0</ele>
        <time>2022-11-01T09:44:12Z</time>
      </trkpt>
      <trkpt lat="36.7955780" lon="-3.0724880">
        <ele>455.2</ele>
        <time>2022-11-01T09:44:13Z</time>
      </trkpt>
      <trkpt lat="36.7955950" lon="-3.0725100">
        <ele>455.2</ele>
        <time>2022-11-01T09:44:14Z</time>
      </trkpt>
      <trkpt lat="36.7956120" lon="-3.0725320">
        <ele>455.4</ele>
        <time>2022-11-01T09:44:15Z</time>
      </trkpt>
      <trkpt lat="36.7956310" lon="-3.0725530">
        <ele>455.6</ele>
        <time>2022-11-01T09:44:16Z</time>
      </trkpt>
      <trkpt lat="36.7956500" lon="-3.0725730">
        <ele>455.8</ele>
        <time>2022-11-01T09:44:17Z</time>
      </trkpt>
      <trkpt lat="36.7956690" lon="-3.0725910">
        <ele>456.0</ele>
        <time>2022-11-01T09:44:18Z</time>
      </trkpt>
      <trkpt lat="36.7956860" lon="-3.0726100">
        <ele>456.2</ele>
        <time>2022-11-01T09:44:19Z</time>
      </trkpt>
      <trkpt lat="36.7957030" lon="-3.0726320">
        <ele>456.2</ele>
        <time>2022-11-01T09:44:20Z</time>
      </trkpt>
      <trkpt lat="36.7957180" lon="-3.0726520">
        <ele>456.4</ele>
        <time>2022-11-01T09:44:21Z</time>
      </trkpt>
      <trkpt lat="36.7957310" lon="-3.0726750">
        <ele>456.6</ele>
        <time>2022-11-01T09:44:22Z</time>
      </trkpt>
      <trkpt lat="36.7957430" lon="-3.0726970">
        <ele>456.8</ele>
        <time>2022-11-01T09:44:23Z</time>
      </trkpt>
      <trkpt lat="36.7957520" lon="-3.0727190">
        <ele>456.8</ele>
        <time>2022-11-01T09:44:24Z</time>
      </trkpt>
      <trkpt lat="36.7957620" lon="-3.0727380">
        <ele>457.0</ele>
        <time>2022-11-01T09:44:25Z</time>
      </trkpt>
      <trkpt lat="36.7957760" lon="-3.0727560">
        <ele>457.2</ele>
        <time>2022-11-01T09:44:26Z</time>
      </trkpt>
      <trkpt lat="36.7957890" lon="-3.0727740">
        <ele>457.4</ele>
        <time>2022-11-01T09:44:27Z</time>
      </trkpt>
      <trkpt lat="36.7958000" lon="-3.0727950">
        <ele>457.4</ele>
        <time>2022-11-01T09:44:28Z</time>
      </trkpt>
      <trkpt lat="36.7958060" lon="-3.0728170">
        <ele>457.8</ele>
        <time>2022-11-01T09:44:29Z</time>
      </trkpt>
      <trkpt lat="36.7958180" lon="-3.0728350">
        <ele>457.8</ele>
        <time>2022-11-01T09:44:30Z</time>
      </trkpt>
      <trkpt lat="36.7958300" lon="-3.0728540">
        <ele>458.0</ele>
        <time>2022-11-01T09:44:31Z</time>
      </trkpt>
      <trkpt lat="36.7958370" lon="-3.0728730">
        <ele>458.2</ele>
        <time>2022-11-01T09:44:32Z</time>
      </trkpt>
      <trkpt lat="36.7958430" lon="-3.0728940">
        <ele>458.4</ele>
        <time>2022-11-01T09:44:33Z</time>
      </trkpt>
      <trkpt lat="36.7958500" lon="-3.0729130">
        <ele>458.6</ele>
        <time>2022-11-01T09:44:34Z</time>
      </trkpt>
      <trkpt lat="36.7958580" lon="-3.0729330">
        <ele>458.8</ele>
        <time>2022-11-01T09:44:35Z</time>
      </trkpt>
      <trkpt lat="36.7958630" lon="-3.0729520">
        <ele>459.0</ele>
        <time>2022-11-01T09:44:36Z</time>
      </trkpt>
      <trkpt lat="36.7958690" lon="-3.0729730">
        <ele>459.2</ele>
        <time>2022-11-01T09:44:37Z</time>
      </trkpt>
      <trkpt lat="36.7958760" lon="-3.0729920">
        <ele>459.4</ele>
        <time>2022-11-01T09:44:38Z</time>
      </trkpt>
      <trkpt lat="36.7958830" lon="-3.0730110">
        <ele>459.6</ele>
        <time>2022-11-01T09:44:39Z</time>
      </trkpt>
      <trkpt lat="36.7958860" lon="-3.0730320">
        <ele>459.8</ele>
        <time>2022-11-01T09:44:40Z</time>
      </trkpt>
      <trkpt lat="36.7958910" lon="-3.0730540">
        <ele>460.0</ele>
        <time>2022-11-01T09:44:41Z</time>
      </trkpt>
      <trkpt lat="36.7959030" lon="-3.0730710">
        <ele>460.2</ele>
        <time>2022-11-01T09:44:42Z</time>
      </trkpt>
      <trkpt lat="36.7959110" lon="-3.0730920">
        <ele>460.4</ele>
        <time>2022-11-01T09:44:43Z</time>
      </trkpt>
      <trkpt lat="36.7959170" lon="-3.0731130">
        <ele>460.6</ele>
        <time>2022-11-01T09:44:44Z</time>
      </trkpt>
      <trkpt lat="36.7959240" lon="-3.0731360">
        <ele>460.8</ele>
        <time>2022-11-01T09:44:45Z</time>
      </trkpt>
      <trkpt lat="36.7959330" lon="-3.0731600">
        <ele>461.0</ele>
        <time>2022-11-01T09:44:46Z</time>
      </trkpt>
      <trkpt lat="36.7959420" lon="-3.0731800">
        <ele>461.2</ele>
        <time>2022-11-01T09:44:47Z</time>
      </trkpt>
      <trkpt lat="36.7959530" lon="-3.0732000">
        <ele>461.4</ele>
        <time>2022-11-01T09:44:48Z</time>
      </trkpt>
      <trkpt lat="36.7959670" lon="-3.0732190">
        <ele>461.4</ele>
        <time>2022-11-01T09:44:49Z</time>
      </trkpt>
      <trkpt lat="36.7959810" lon="-3.0732380">
        <ele>461.6</ele>
        <time>2022-11-01T09:44:50Z</time>
      </trkpt>
      <trkpt lat="36.7959970" lon="-3.0732570">
        <ele>461.8</ele>
        <time>2022-11-01T09:44:51Z</time>
      </trkpt>
      <trkpt lat="36.7960160" lon="-3.0732760">
        <ele>461.8</ele>
        <time>2022-11-01T09:44:52Z</time>
      </trkpt>
      <trkpt lat="36.7960390" lon="-3.0732910">
        <ele>461.8</ele>
        <time>2022-11-01T09:44:53Z</time>
      </trkpt>
      <trkpt lat="36.7960660" lon="-3.0733010">
        <ele>461.8</ele>
        <time>2022-11-01T09:44:54Z</time>
      </trkpt>
      <trkpt lat="36.7960970" lon="-3.0733120">
        <ele>461.8</ele>
        <time>2022-11-01T09:44:55Z</time>
      </trkpt>
      <trkpt lat="36.7961320" lon="-3.0733190">
        <ele>461.8</ele>
        <time>2022-11-01T09:44:56Z</time>
      </trkpt>
      <trkpt lat="36.7961700" lon="-3.0733280">
        <ele>461.8</ele>
        <time>2022-11-01T09:44:57Z</time>
      </trkpt>
      <trkpt lat="36.7962120" lon="-3.0733350">
        <ele>461.6</ele>
        <time>2022-11-01T09:44:58Z</time>
      </trkpt>
      <trkpt lat="36.7962560" lon="-3.0733420">
        <ele>461.6</ele>
        <time>2022-11-01T09:44:59Z</time>
      </trkpt>
      <trkpt lat="36.7962990" lon="-3.0733520">
        <ele>461.6</ele>
        <time>2022-11-01T09:45:00Z</time>
      </trkpt>
      <trkpt lat="36.7963370" lon="-3.0733720">
        <ele>461.6</ele>
        <time>2022-11-01T09:45:01Z</time>
      </trkpt>
      <trkpt lat="36.7963660" lon="-3.0734020">
        <ele>461.8</ele>
        <time>2022-11-01T09:45:02Z</time>
      </trkpt>
      <trkpt lat="36.7963820" lon="-3.0734350">
        <ele>462.2</ele>
        <time>2022-11-01T09:45:03Z</time>
      </trkpt>
      <trkpt lat="36.7963880" lon="-3.0734670">
        <ele>462.4</ele>
        <time>2022-11-01T09:45:04Z</time>
      </trkpt>
      <trkpt lat="36.7963920" lon="-3.0734960">
        <ele>462.8</ele>
        <time>2022-11-01T09:45:05Z</time>
      </trkpt>
      <trkpt lat="36.7963930" lon="-3.0735270">
        <ele>463.0</ele>
        <time>2022-11-01T09:45:06Z</time>
      </trkpt>
      <trkpt lat="36.7963920" lon="-3.0735550">
        <ele>463.2</ele>
        <time>2022-11-01T09:45:07Z</time>
      </trkpt>
      <trkpt lat="36.7963900" lon="-3.0735800">
        <ele>463.6</ele>
        <time>2022-11-01T09:45:08Z</time>
      </trkpt>
      <trkpt lat="36.7963810" lon="-3.0736010">
        <ele>463.8</ele>
        <time>2022-11-01T09:45:09Z</time>
      </trkpt>
      <trkpt lat="36.7963720" lon="-3.0736210">
        <ele>464.2</ele>
        <time>2022-11-01T09:45:10Z</time>
      </trkpt>
      <trkpt lat="36.7963650" lon="-3.0736420">
        <ele>464.4</ele>
        <time>2022-11-01T09:45:11Z</time>
      </trkpt>
      <trkpt lat="36.7963630" lon="-3.0736630">
        <ele>464.8</ele>
        <time>2022-11-01T09:45:12Z</time>
      </trkpt>
      <trkpt lat="36.7963560" lon="-3.0736830">
        <ele>465.0</ele>
        <time>2022-11-01T09:45:13Z</time>
      </trkpt>
      <trkpt lat="36.7963440" lon="-3.0736970">
        <ele>465.2</ele>
        <time>2022-11-01T09:45:14Z</time>
      </trkpt>
      <trkpt lat="36.7963360" lon="-3.0737160">
        <ele>465.4</ele>
        <time>2022-11-01T09:45:15Z</time>
      </trkpt>
      <trkpt lat="36.7963260" lon="-3.0737330">
        <ele>465.6</ele>
        <time>2022-11-01T09:45:16Z</time>
      </trkpt>
      <trkpt lat="36.7963150" lon="-3.0737470">
        <ele>465.8</ele>
        <time>2022-11-01T09:45:17Z</time>
      </trkpt>
      <trkpt lat="36.7963010" lon="-3.0737570">
        <ele>466.0</ele>
        <time>2022-11-01T09:45:18Z</time>
      </trkpt>
      <trkpt lat="36.7962850" lon="-3.0737690">
        <ele>466.2</ele>
        <time>2022-11-01T09:45:19Z</time>
      </trkpt>
      <trkpt lat="36.7962720" lon="-3.0737850">
        <ele>466.4</ele>
        <time>2022-11-01T09:45:20Z</time>
      </trkpt>
      <trkpt lat="36.7962660" lon="-3.0738050">
        <ele>466.6</ele>
        <time>2022-11-01T09:45:21Z</time>
      </trkpt>
      <trkpt lat="36.7962600" lon="-3.0738290">
        <ele>466.8</ele>
        <time>2022-11-01T09:45:22Z</time>
      </trkpt>
      <trkpt lat="36.7962500" lon="-3.0738500">
        <ele>467.0</ele>
        <time>2022-11-01T09:45:23Z</time>
      </trkpt>
      <trkpt lat="36.7962390" lon="-3.0738680">
        <ele>467.2</ele>
        <time>2022-11-01T09:45:24Z</time>
      </trkpt>
      <trkpt lat="36.7962290" lon="-3.0738840">
        <ele>467.4</ele>
        <time>2022-11-01T09:45:25Z</time>
      </trkpt>
      <trkpt lat="36.7962200" lon="-3.0739010">
        <ele>467.6</ele>
        <time>2022-11-01T09:45:26Z</time>
      </trkpt>
      <trkpt lat="36.7962100" lon="-3.0739170">
        <ele>467.8</ele>
        <time>2022-11-01T09:45:27Z</time>
      </trkpt>
      <trkpt lat="36.7962030" lon="-3.0739350">
        <ele>468.0</ele>
        <time>2022-11-01T09:45:28Z</time>
      </trkpt>
      <trkpt lat="36.7961950" lon="-3.0739550">
        <ele>468.0</ele>
        <time>2022-11-01T09:45:29Z</time>
      </trkpt>
      <trkpt lat="36.7961870" lon="-3.0739770">
        <ele>468.2</ele>
        <time>2022-11-01T09:45:30Z</time>
      </trkpt>
      <trkpt lat="36.7961770" lon="-3.0739980">
        <ele>468.4</ele>
        <time>2022-11-01T09:45:31Z</time>
      </trkpt>
      <trkpt lat="36.7961670" lon="-3.0740210">
        <ele>468.6</ele>
        <time>2022-11-01T09:45:32Z</time>
      </trkpt>
      <trkpt lat="36.7961570" lon="-3.0740440">
        <ele>468.8</ele>
        <time>2022-11-01T09:45:33Z</time>
      </trkpt>
      <trkpt lat="36.7961450" lon="-3.0740670">
        <ele>468.8</ele>
        <time>2022-11-01T09:45:34Z</time>
      </trkpt>
      <trkpt lat="36.7961360" lon="-3.0740910">
        <ele>469.0</ele>
        <time>2022-11-01T09:45:35Z</time>
      </trkpt>
      <trkpt lat="36.7961280" lon="-3.0741140">
        <ele>469.2</ele>
        <time>2022-11-01T09:45:36Z</time>
      </trkpt>
      <trkpt lat="36.7961200" lon="-3.0741380">
        <ele>469.4</ele>
        <time>2022-11-01T09:45:37Z</time>
      </trkpt>
      <trkpt lat="36.7961110" lon="-3.0741610">
        <ele>469.4</ele>
        <time>2022-11-01T09:45:38Z</time>
      </trkpt>
      <trkpt lat="36.7961000" lon="-3.0741820">
        <ele>469.6</ele>
        <time>2022-11-01T09:45:39Z</time>
      </trkpt>
      <trkpt lat="36.7960870" lon="-3.0741990">
        <ele>470.0</ele>
        <time>2022-11-01T09:45:40Z</time>
      </trkpt>
      <trkpt lat="36.7960750" lon="-3.0742180">
        <ele>470.0</ele>
        <time>2022-11-01T09:45:41Z</time>
      </trkpt>
      <trkpt lat="36.7960690" lon="-3.0742410">
        <ele>470.2</ele>
        <time>2022-11-01T09:45:42Z</time>
      </trkpt>
      <trkpt lat="36.7960650" lon="-3.0742650">
        <ele>470.4</ele>
        <time>2022-11-01T09:45:43Z</time>
      </trkpt>
      <trkpt lat="36.7960570" lon="-3.0742860">
        <ele>470.6</ele>
        <time>2022-11-01T09:45:44Z</time>
      </trkpt>
      <trkpt lat="36.7960470" lon="-3.0743060">
        <ele>470.8</ele>
        <time>2022-11-01T09:45:45Z</time>
      </trkpt>
      <trkpt lat="36.7960370" lon="-3.0743230">
        <ele>471.2</ele>
        <time>2022-11-01T09:45:46Z</time>
      </trkpt>
      <trkpt lat="36.7960340" lon="-3.0743430">
        <ele>471.4</ele>
        <time>2022-11-01T09:45:47Z</time>
      </trkpt>
      <trkpt lat="36.7960300" lon="-3.0743630">
        <ele>471.6</ele>
        <time>2022-11-01T09:45:48Z</time>
      </trkpt>
      <trkpt lat="36.7960200" lon="-3.0743810">
        <ele>471.6</ele>
        <time>2022-11-01T09:45:49Z</time>
      </trkpt>
      <trkpt lat="36.7960070" lon="-3.0743940">
        <ele>472.0</ele>
        <time>2022-11-01T09:45:50Z</time>
      </trkpt>
      <trkpt lat="36.7959940" lon="-3.0744060">
        <ele>472.2</ele>
        <time>2022-11-01T09:45:51Z</time>
      </trkpt>
      <trkpt lat="36.7959870" lon="-3.0744260">
        <ele>472.2</ele>
        <time>2022-11-01T09:45:52Z</time>
      </trkpt>
      <trkpt lat="36.7959840" lon="-3.0744490">
        <ele>472.6</ele>
        <time>2022-11-01T09:45:53Z</time>
      </trkpt>
      <trkpt lat="36.7959760" lon="-3.0744700">
        <ele>472.6</ele>
        <time>2022-11-01T09:45:54Z</time>
      </trkpt>
      <trkpt lat="36.7959680" lon="-3.0744900">
        <ele>473.0</ele>
        <time>2022-11-01T09:45:55Z</time>
      </trkpt>
      <trkpt lat="36.7959560" lon="-3.0745040">
        <ele>473.2</ele>
        <time>2022-11-01T09:45:56Z</time>
      </trkpt>
      <trkpt lat="36.7959420" lon="-3.0745130">
        <ele>473.4</ele>
        <time>2022-11-01T09:45:57Z</time>
      </trkpt>
      <trkpt lat="36.7959300" lon="-3.0745270">
        <ele>473.6</ele>
        <time>2022-11-01T09:45:58Z</time>
      </trkpt>
      <trkpt lat="36.7959250" lon="-3.0745470">
        <ele>473.8</ele>
        <time>2022-11-01T09:45:59Z</time>
      </trkpt>
      <trkpt lat="36.7959240" lon="-3.0745700">
        <ele>473.8</ele>
        <time>2022-11-01T09:46:00Z</time>
      </trkpt>
      <trkpt lat="36.7959180" lon="-3.0745920">
        <ele>474.0</ele>
        <time>2022-11-01T09:46:01Z</time>
      </trkpt>
      <trkpt lat="36.7959090" lon="-3.0746150">
        <ele>474.2</ele>
        <time>2022-11-01T09:46:02Z</time>
      </trkpt>
      <trkpt lat="36.7959000" lon="-3.0746350">
        <ele>474.4</ele>
        <time>2022-11-01T09:46:03Z</time>
      </trkpt>
      <trkpt lat="36.7958910" lon="-3.0746550">
        <ele>474.6</ele>
        <time>2022-11-01T09:46:04Z</time>
      </trkpt>
      <trkpt lat="36.7958840" lon="-3.0746740">
        <ele>474.8</ele>
        <time>2022-11-01T09:46:05Z</time>
      </trkpt>
      <trkpt lat="36.7958740" lon="-3.0746910">
        <ele>475.0</ele>
        <time>2022-11-01T09:46:06Z</time>
      </trkpt>
      <trkpt lat="36.7958590" lon="-3.0747070">
        <ele>475.2</ele>
        <time>2022-11-01T09:46:07Z</time>
      </trkpt>
      <trkpt lat="36.7958450" lon="-3.0747260">
        <ele>475.2</ele>
        <time>2022-11-01T09:46:08Z</time>
      </trkpt>
      <trkpt lat="36.7958330" lon="-3.0747450">
        <ele>475.4</ele>
        <time>2022-11-01T09:46:09Z</time>
      </trkpt>
      <trkpt lat="36.7958220" lon="-3.0747660">
        <ele>475.6</ele>
        <time>2022-11-01T09:46:10Z</time>
      </trkpt>
      <trkpt lat="36.7958140" lon="-3.0747890">
        <ele>475.8</ele>
        <time>2022-11-01T09:46:11Z</time>
      </trkpt>
      <trkpt lat="36.7958060" lon="-3.0748100">
        <ele>476.2</ele>
        <time>2022-11-01T09:46:12Z</time>
      </trkpt>
      <trkpt lat="36.7957990" lon="-3.0748290">
        <ele>476.4</ele>
        <time>2022-11-01T09:46:13Z</time>
      </trkpt>
      <trkpt lat="36.7957940" lon="-3.0748490">
        <ele>476.6</ele>
        <time>2022-11-01T09:46:14Z</time>
      </trkpt>
      <trkpt lat="36.7957950" lon="-3.0748720">
        <ele>477.0</ele>
        <time>2022-11-01T09:46:15Z</time>
      </trkpt>
      <trkpt lat="36.7958020" lon="-3.0748940">
        <ele>477.2</ele>
        <time>2022-11-01T09:46:16Z</time>
      </trkpt>
      <trkpt lat="36.7958100" lon="-3.0749150">
        <ele>477.4</ele>
        <time>2022-11-01T09:46:17Z</time>
      </trkpt>
      <trkpt lat="36.7958210" lon="-3.0749320">
        <ele>477.6</ele>
        <time>2022-11-01T09:46:18Z</time>
      </trkpt>
      <trkpt lat="36.7958370" lon="-3.0749440">
        <ele>477.8</ele>
        <time>2022-11-01T09:46:19Z</time>
      </trkpt>
      <trkpt lat="36.7958540" lon="-3.0749590">
        <ele>478.0</ele>
        <time>2022-11-01T09:46:20Z</time>
      </trkpt>
      <trkpt lat="36.7958730" lon="-3.0749690">
        <ele>478.2</ele>
        <time>2022-11-01T09:46:21Z</time>
      </trkpt>
      <trkpt lat="36.7958950" lon="-3.0749700">
        <ele>478.2</ele>
        <time>2022-11-01T09:46:22Z</time>
      </trkpt>
      <trkpt lat="36.7959140" lon="-3.0749650">
        <ele>478.6</ele>
        <time>2022-11-01T09:46:23Z</time>
      </trkpt>
      <trkpt lat="36.7959320" lon="-3.0749550">
        <ele>478.8</ele>
        <time>2022-11-01T09:46:24Z</time>
      </trkpt>
      <trkpt lat="36.7959510" lon="-3.0749400">
        <ele>478.8</ele>
        <time>2022-11-01T09:46:25Z</time>
      </trkpt>
      <trkpt lat="36.7959700" lon="-3.0749190">
        <ele>479.0</ele>
        <time>2022-11-01T09:46:26Z</time>
      </trkpt>
      <trkpt lat="36.7959870" lon="-3.0748940">
        <ele>479.0</ele>
        <time>2022-11-01T09:46:27Z</time>
      </trkpt>
      <trkpt lat="36.7960020" lon="-3.0748650">
        <ele>479.2</ele>
        <time>2022-11-01T09:46:28Z</time>
      </trkpt>
      <trkpt lat="36.7960170" lon="-3.0748350">
        <ele>479.4</ele>
        <time>2022-11-01T09:46:29Z</time>
      </trkpt>
      <trkpt lat="36.7960310" lon="-3.0748040">
        <ele>479.4</ele>
        <time>2022-11-01T09:46:30Z</time>
      </trkpt>
      <trkpt lat="36.7960480" lon="-3.0747740">
        <ele>479.6</ele>
        <time>2022-11-01T09:46:31Z</time>
      </trkpt>
      <trkpt lat="36.7960640" lon="-3.0747450">
        <ele>479.6</ele>
        <time>2022-11-01T09:46:32Z</time>
      </trkpt>
      <trkpt lat="36.7960790" lon="-3.0747140">
        <ele>479.8</ele>
        <time>2022-11-01T09:46:33Z</time>
      </trkpt>
      <trkpt lat="36.7960940" lon="-3.0746820">
        <ele>480.0</ele>
        <time>2022-11-01T09:46:34Z</time>
      </trkpt>
      <trkpt lat="36.7961070" lon="-3.0746490">
        <ele>480.2</ele>
        <time>2022-11-01T09:46:35Z</time>
      </trkpt>
      <trkpt lat="36.7961210" lon="-3.0746170">
        <ele>480.2</ele>
        <time>2022-11-01T09:46:36Z</time>
      </trkpt>
      <trkpt lat="36.7961360" lon="-3.0745860">
        <ele>480.4</ele>
        <time>2022-11-01T09:46:37Z</time>
      </trkpt>
      <trkpt lat="36.7961490" lon="-3.0745560">
        <ele>480.6</ele>
        <time>2022-11-01T09:46:38Z</time>
      </trkpt>
      <trkpt lat="36.7961620" lon="-3.0745240">
        <ele>480.8</ele>
        <time>2022-11-01T09:46:39Z</time>
      </trkpt>
      <trkpt lat="36.7961740" lon="-3.0744930">
        <ele>480.8</ele>
        <time>2022-11-01T09:46:40Z</time>
      </trkpt>
      <trkpt lat="36.7961870" lon="-3.0744630">
        <ele>481.0</ele>
        <time>2022-11-01T09:46:41Z</time>
      </trkpt>
      <trkpt lat="36.7962000" lon="-3.0744340">
        <ele>481.2</ele>
        <time>2022-11-01T09:46:42Z</time>
      </trkpt>
      <trkpt lat="36.7962120" lon="-3.0744060">
        <ele>481.4</ele>
        <time>2022-11-01T09:46:43Z</time>
      </trkpt>
      <trkpt lat="36.7962230" lon="-3.0743760">
        <ele>481.4</ele>
        <time>2022-11-01T09:46:44Z</time>
      </trkpt>
      <trkpt lat="36.7962350" lon="-3.0743490">
        <ele>481.6</ele>
        <time>2022-11-01T09:46:45Z</time>
      </trkpt>
      <trkpt lat="36.7962470" lon="-3.0743220">
        <ele>482.0</ele>
        <time>2022-11-01T09:46:46Z</time>
      </trkpt>
      <trkpt lat="36.7962610" lon="-3.0742970">
        <ele>482.0</ele>
        <time>2022-11-01T09:46:47Z</time>
      </trkpt>
      <trkpt lat="36.7962770" lon="-3.0742720">
        <ele>482.2</ele>
        <time>2022-11-01T09:46:48Z</time>
      </trkpt>
      <trkpt lat="36.7962910" lon="-3.0742440">
        <ele>482.4</ele>
        <time>2022-11-01T09:46:49Z</time>
      </trkpt>
      <trkpt lat="36.7963050" lon="-3.0742140">
        <ele>482.4</ele>
        <time>2022-11-01T09:46:50Z</time>
      </trkpt>
      <trkpt lat="36.7963200" lon="-3.0741860">
        <ele>482.6</ele>
        <time>2022-11-01T09:46:51Z</time>
      </trkpt>
      <trkpt lat="36.7963390" lon="-3.0741610">
        <ele>482.8</ele>
        <time>2022-11-01T09:46:52Z</time>
      </trkpt>
      <trkpt lat="36.7963580" lon="-3.0741390">
        <ele>483.0</ele>
        <time>2022-11-01T09:46:53Z</time>
      </trkpt>
      <trkpt lat="36.7963770" lon="-3.0741200">
        <ele>483.2</ele>
        <time>2022-11-01T09:46:54Z</time>
      </trkpt>
      <trkpt lat="36.7963980" lon="-3.0741040">
        <ele>483.4</ele>
        <time>2022-11-01T09:46:55Z</time>
      </trkpt>
      <trkpt lat="36.7964180" lon="-3.0740900">
        <ele>483.6</ele>
        <time>2022-11-01T09:46:56Z</time>
      </trkpt>
      <trkpt lat="36.7964380" lon="-3.0740780">
        <ele>483.8</ele>
        <time>2022-11-01T09:46:57Z</time>
      </trkpt>
      <trkpt lat="36.7964560" lon="-3.0740630">
        <ele>484.0</ele>
        <time>2022-11-01T09:46:58Z</time>
      </trkpt>
      <trkpt lat="36.7964730" lon="-3.0740470">
        <ele>484.4</ele>
        <time>2022-11-01T09:46:59Z</time>
      </trkpt>
      <trkpt lat="36.7964920" lon="-3.0740350">
        <ele>484.6</ele>
        <time>2022-11-01T09:47:00Z</time>
      </trkpt>
      <trkpt lat="36.7965100" lon="-3.0740250">
        <ele>484.8</ele>
        <time>2022-11-01T09:47:01Z</time>
      </trkpt>
      <trkpt lat="36.7965280" lon="-3.0740190">
        <ele>485.0</ele>
        <time>2022-11-01T09:47:02Z</time>
      </trkpt>
      <trkpt lat="36.7965450" lon="-3.0740140">
        <ele>485.2</ele>
        <time>2022-11-01T09:47:03Z</time>
      </trkpt>
      <trkpt lat="36.7965600" lon="-3.0740050">
        <ele>485.4</ele>
        <time>2022-11-01T09:47:04Z</time>
      </trkpt>
      <trkpt lat="36.7965760" lon="-3.0740040">
        <ele>485.6</ele>
        <time>2022-11-01T09:47:05Z</time>
      </trkpt>
      <trkpt lat="36.7965910" lon="-3.0740100">
        <ele>486.0</ele>
        <time>2022-11-01T09:47:06Z</time>
      </trkpt>
      <trkpt lat="36.7966090" lon="-3.0740190">
        <ele>486.0</ele>
        <time>2022-11-01T09:47:07Z</time>
      </trkpt>
      <trkpt lat="36.7966240" lon="-3.0740250">
        <ele>486.4</ele>
        <time>2022-11-01T09:47:08Z</time>
      </trkpt>
      <trkpt lat="36.7966390" lon="-3.0740310">
        <ele>486.6</ele>
        <time>2022-11-01T09:47:09Z</time>
      </trkpt>
      <trkpt lat="36.7966500" lon="-3.0740480">
        <ele>486.8</ele>
        <time>2022-11-01T09:47:10Z</time>
      </trkpt>
      <trkpt lat="36.7966580" lon="-3.0740690">
        <ele>487.2</ele>
        <time>2022-11-01T09:47:11Z</time>
      </trkpt>
      <trkpt lat="36.7966600" lon="-3.0740900">
        <ele>487.4</ele>
        <time>2022-11-01T09:47:12Z</time>
      </trkpt>
      <trkpt lat="36.7966580" lon="-3.0741120">
        <ele>487.8</ele>
        <time>2022-11-01T09:47:13Z</time>
      </trkpt>
      <trkpt lat="36.7966570" lon="-3.0741320">
        <ele>488.0</ele>
        <time>2022-11-01T09:47:14Z</time>
      </trkpt>
      <trkpt lat="36.7966540" lon="-3.0741510">
        <ele>488.2</ele>
        <time>2022-11-01T09:47:15Z</time>
      </trkpt>
      <trkpt lat="36.7966510" lon="-3.0741690">
        <ele>488.6</ele>
        <time>2022-11-01T09:47:16Z</time>
      </trkpt>
      <trkpt lat="36.7966450" lon="-3.0741850">
        <ele>488.8</ele>
        <time>2022-11-01T09:47:17Z</time>
      </trkpt>
      <trkpt lat="36.7966320" lon="-3.0742010">
        <ele>489.2</ele>
        <time>2022-11-01T09:47:18Z</time>
      </trkpt>
      <trkpt lat="36.7966180" lon="-3.0742180">
        <ele>489.2</ele>
        <time>2022-11-01T09:47:19Z</time>
      </trkpt>
      <trkpt lat="36.7966110" lon="-3.0742380">
        <ele>489.6</ele>
        <time>2022-11-01T09:47:20Z</time>
      </trkpt>
      <trkpt lat="36.7966010" lon="-3.0742580">
        <ele>489.8</ele>
        <time>2022-11-01T09:47:21Z</time>
      </trkpt>
      <trkpt lat="36.7965870" lon="-3.0742780">
        <ele>490.2</ele>
        <time>2022-11-01T09:47:22Z</time>
      </trkpt>
      <trkpt lat="36.7965730" lon="-3.0742970">
        <ele>490.4</ele>
        <time>2022-11-01T09:47:23Z</time>
      </trkpt>
      <trkpt lat="36.7965590" lon="-3.0743160">
        <ele>490.6</ele>
        <time>2022-11-01T09:47:24Z</time>
      </trkpt>
      <trkpt lat="36.7965460" lon="-3.0743350">
        <ele>490.8</ele>
        <time>2022-11-01T09:47:25Z</time>
      </trkpt>
      <trkpt lat="36.7965330" lon="-3.0743540">
        <ele>491.2</ele>
        <time>2022-11-01T09:47:26Z</time>
      </trkpt>
      <trkpt lat="36.7965220" lon="-3.0743740">
        <ele>491.4</ele>
        <time>2022-11-01T09:47:27Z</time>
      </trkpt>
      <trkpt lat="36.7965130" lon="-3.0743950">
        <ele>491.6</ele>
        <time>2022-11-01T09:47:28Z</time>
      </trkpt>
      <trkpt lat="36.7965030" lon="-3.0744160">
        <ele>491.8</ele>
        <time>2022-11-01T09:47:29Z</time>
      </trkpt>
      <trkpt lat="36.7964960" lon="-3.0744390">
        <ele>492.0</ele>
        <time>2022-11-01T09:47:30Z</time>
      </trkpt>
      <trkpt lat="36.7964860" lon="-3.0744610">
        <ele>492.2</ele>
        <time>2022-11-01T09:47:31Z</time>
      </trkpt>
      <trkpt lat="36.7964720" lon="-3.0744810">
        <ele>492.4</ele>
        <time>2022-11-01T09:47:32Z</time>
      </trkpt>
      <trkpt lat="36.7964610" lon="-3.0745090">
        <ele>492.6</ele>
        <time>2022-11-01T09:47:33Z</time>
      </trkpt>
      <trkpt lat="36.7964530" lon="-3.0745410">
        <ele>493.0</ele>
        <time>2022-11-01T09:47:34Z</time>
      </trkpt>
      <trkpt lat="36.7964460" lon="-3.0745730">
        <ele>493.0</ele>
        <time>2022-11-01T09:47:35Z</time>
      </trkpt>
      <trkpt lat="36.7964380" lon="-3.0746000">
        <ele>493.4</ele>
        <time>2022-11-01T09:47:36Z</time>
      </trkpt>
      <trkpt lat="36.7964300" lon="-3.0746230">
        <ele>493.6</ele>
        <time>2022-11-01T09:47:37Z</time>
      </trkpt>
      <trkpt lat="36.7964240" lon="-3.0746430">
        <ele>493.8</ele>
        <time>2022-11-01T09:47:38Z</time>
      </trkpt>
      <trkpt lat="36.7964200" lon="-3.0746640">
        <ele>494.0</ele>
        <time>2022-11-01T09:47:39Z</time>
      </trkpt>
      <trkpt lat="36.7964130" lon="-3.0746870">
        <ele>494.2</ele>
        <time>2022-11-01T09:47:40Z</time>
      </trkpt>
      <trkpt lat="36.7964020" lon="-3.0747120">
        <ele>494.4</ele>
        <time>2022-11-01T09:47:41Z</time>
      </trkpt>
      <trkpt lat="36.7963890" lon="-3.0747380">
        <ele>494.6</ele>
        <time>2022-11-01T09:47:42Z</time>
      </trkpt>
      <trkpt lat="36.7963810" lon="-3.0747660">
        <ele>494.8</ele>
        <time>2022-11-01T09:47:43Z</time>
      </trkpt>
      <trkpt lat="36.7963730" lon="-3.0747930">
        <ele>495.0</ele>
        <time>2022-11-01T09:47:44Z</time>
      </trkpt>
      <trkpt lat="36.7963630" lon="-3.0748170">
        <ele>495.2</ele>
        <time>2022-11-01T09:47:45Z</time>
      </trkpt>
      <trkpt lat="36.7963540" lon="-3.0748400">
        <ele>495.4</ele>
        <time>2022-11-01T09:47:46Z</time>
      </trkpt>
      <trkpt lat="36.7963480" lon="-3.0748620">
        <ele>495.6</ele>
        <time>2022-11-01T09:47:47Z</time>
      </trkpt>
      <trkpt lat="36.7963400" lon="-3.0748840">
        <ele>495.8</ele>
        <time>2022-11-01T09:47:48Z</time>
      </trkpt>
      <trkpt lat="36.7963300" lon="-3.0749060">
        <ele>496.0</ele>
        <time>2022-11-01T09:47:49Z</time>
      </trkpt>
      <trkpt lat="36.7963200" lon="-3.0749260">
        <ele>496.2</ele>
        <time>2022-11-01T09:47:50Z</time>
      </trkpt>
      <trkpt lat="36.7963090" lon="-3.0749480">
        <ele>496.4</ele>
        <time>2022-11-01T09:47:51Z</time>
      </trkpt>
      <trkpt lat="36.7963050" lon="-3.0749670">
        <ele>496.6</ele>
        <time>2022-11-01T09:47:52Z</time>
      </trkpt>
      <trkpt lat="36.7962990" lon="-3.0749890">
        <ele>497.0</ele>
        <time>2022-11-01T09:47:53Z</time>
      </trkpt>
      <trkpt lat="36.7962920" lon="-3.0750110">
        <ele>497.2</ele>
        <time>2022-11-01T09:47:54Z</time>
      </trkpt>
      <trkpt lat="36.7962850" lon="-3.0750350">
        <ele>497.4</ele>
        <time>2022-11-01T09:47:55Z</time>
      </trkpt>
      <trkpt lat="36.7962760" lon="-3.0750570">
        <ele>497.4</ele>
        <time>2022-11-01T09:47:56Z</time>
      </trkpt>
      <trkpt lat="36.7962670" lon="-3.0750790">
        <ele>497.6</ele>
        <time>2022-11-01T09:47:57Z</time>
      </trkpt>
      <trkpt lat="36.7962570" lon="-3.0751010">
        <ele>497.8</ele>
        <time>2022-11-01T09:47:58Z</time>
      </trkpt>
      <trkpt lat="36.7962460" lon="-3.0751210">
        <ele>498.0</ele>
        <time>2022-11-01T09:47:59Z</time>
      </trkpt>
      <trkpt lat="36.7962350" lon="-3.0751410">
        <ele>498.2</ele>
        <time>2022-11-01T09:48:00Z</time>
      </trkpt>
      <trkpt lat="36.7962290" lon="-3.0751650">
        <ele>498.4</ele>
        <time>2022-11-01T09:48:01Z</time>
      </trkpt>
      <trkpt lat="36.7962270" lon="-3.0751900">
        <ele>498.6</ele>
        <time>2022-11-01T09:48:02Z</time>
      </trkpt>
      <trkpt lat="36.7962210" lon="-3.0752160">
        <ele>498.8</ele>
        <time>2022-11-01T09:48:03Z</time>
      </trkpt>
      <trkpt lat="36.7962140" lon="-3.0752400">
        <ele>498.8</ele>
        <time>2022-11-01T09:48:04Z</time>
      </trkpt>
      <trkpt lat="36.7962050" lon="-3.0752630">
        <ele>499.0</ele>
        <time>2022-11-01T09:48:05Z</time>
      </trkpt>
      <trkpt lat="36.7961950" lon="-3.0752840">
        <ele>499.2</ele>
        <time>2022-11-01T09:48:06Z</time>
      </trkpt>
      <trkpt lat="36.7961870" lon="-3.0753060">
        <ele>499.4</ele>
        <time>2022-11-01T09:48:07Z</time>
      </trkpt>
      <trkpt lat="36.7961770" lon="-3.0753260">
        <ele>499.6</ele>
        <time>2022-11-01T09:48:08Z</time>
      </trkpt>
      <trkpt lat="36.7961670" lon="-3.0753460">
        <ele>499.8</ele>
        <time>2022-11-01T09:48:09Z</time>
      </trkpt>
      <trkpt lat="36.7961570" lon="-3.0753670">
        <ele>500.0</ele>
        <time>2022-11-01T09:48:10Z</time>
      </trkpt>
      <trkpt lat="36.7961460" lon="-3.0753860">
        <ele>500.2</ele>
        <time>2022-11-01T09:48:11Z</time>
      </trkpt>
      <trkpt lat="36.7961360" lon="-3.0754060">
        <ele>500.4</ele>
        <time>2022-11-01T09:48:12Z</time>
      </trkpt>
      <trkpt lat="36.7961270" lon="-3.0754300">
        <ele>500.6</ele>
        <time>2022-11-01T09:48:13Z</time>
      </trkpt>
      <trkpt lat="36.7961150" lon="-3.0754540">
        <ele>500.8</ele>
        <time>2022-11-01T09:48:14Z</time>
      </trkpt>
      <trkpt lat="36.7961020" lon="-3.0754770">
        <ele>501.0</ele>
        <time>2022-11-01T09:48:15Z</time>
      </trkpt>
      <trkpt lat="36.7960920" lon="-3.0755000">
        <ele>501.2</ele>
        <time>2022-11-01T09:48:16Z</time>
      </trkpt>
      <trkpt lat="36.7960810" lon="-3.0755220">
        <ele>501.4</ele>
        <time>2022-11-01T09:48:17Z</time>
      </trkpt>
      <trkpt lat="36.7960700" lon="-3.0755420">
        <ele>501.6</ele>
        <time>2022-11-01T09:48:18Z</time>
      </trkpt>
      <trkpt lat="36.7960590" lon="-3.0755620">
        <ele>501.8</ele>
        <time>2022-11-01T09:48:19Z</time>
      </trkpt>
      <trkpt lat="36.7960480" lon="-3.0755820">
        <ele>502.2</ele>
        <time>2022-11-01T09:48:20Z</time>
      </trkpt>
      <trkpt lat="36.7960390" lon="-3.0756020">
        <ele>502.2</ele>
        <time>2022-11-01T09:48:21Z</time>
      </trkpt>
      <trkpt lat="36.7960310" lon="-3.0756200">
        <ele>502.4</ele>
        <time>2022-11-01T09:48:22Z</time>
      </trkpt>
      <trkpt lat="36.7960230" lon="-3.0756370">
        <ele>502.6</ele>
        <time>2022-11-01T09:48:23Z</time>
      </trkpt>
      <trkpt lat="36.7960140" lon="-3.0756590">
        <ele>502.8</ele>
        <time>2022-11-01T09:48:24Z</time>
      </trkpt>
      <trkpt lat="36.7960060" lon="-3.0756830">
        <ele>503.0</ele>
        <time>2022-11-01T09:48:25Z</time>
      </trkpt>
      <trkpt lat="36.7959980" lon="-3.0757060">
        <ele>503.4</ele>
        <time>2022-11-01T09:48:26Z</time>
      </trkpt>
      <trkpt lat="36.7959890" lon="-3.0757280">
        <ele>503.4</ele>
        <time>2022-11-01T09:48:27Z</time>
      </trkpt>
      <trkpt lat="36.7959800" lon="-3.0757510">
        <ele>503.8</ele>
        <time>2022-11-01T09:48:28Z</time>
      </trkpt>
      <trkpt lat="36.7959730" lon="-3.0757740">
        <ele>504.0</ele>
        <time>2022-11-01T09:48:29Z</time>
      </trkpt>
      <trkpt lat="36.7959680" lon="-3.0757970">
        <ele>504.2</ele>
        <time>2022-11-01T09:48:30Z</time>
      </trkpt>
      <trkpt lat="36.7959640" lon="-3.0758210">
        <ele>504.4</ele>
        <time>2022-11-01T09:48:31Z</time>
      </trkpt>
      <trkpt lat="36.7959600" lon="-3.0758460">
        <ele>504.6</ele>
        <time>2022-11-01T09:48:32Z</time>
      </trkpt>
      <trkpt lat="36.7959580" lon="-3.0758690">
        <ele>504.8</ele>
        <time>2022-11-01T09:48:33Z</time>
      </trkpt>
      <trkpt lat="36.7959550" lon="-3.0758900">
        <ele>505.0</ele>
        <time>2022-11-01T09:48:34Z</time>
      </trkpt>
      <trkpt lat="36.7959480" lon="-3.0759110">
        <ele>505.2</ele>
        <time>2022-11-01T09:48:35Z</time>
      </trkpt>
      <trkpt lat="36.7959420" lon="-3.0759330">
        <ele>505.4</ele>
        <time>2022-11-01T09:48:36Z</time>
      </trkpt>
      <trkpt lat="36.7959430" lon="-3.0759560">
        <ele>505.6</ele>
        <time>2022-11-01T09:48:37Z</time>
      </trkpt>
      <trkpt lat="36.7959490" lon="-3.0759780">
        <ele>505.8</ele>
        <time>2022-11-01T09:48:38Z</time>
      </trkpt>
      <trkpt lat="36.7959580" lon="-3.0759970">
        <ele>506.0</ele>
        <time>2022-11-01T09:48:39Z</time>
      </trkpt>
      <trkpt lat="36.7959650" lon="-3.0760170">
        <ele>506.2</ele>
        <time>2022-11-01T09:48:40Z</time>
      </trkpt>
      <trkpt lat="36.7959680" lon="-3.0760380">
        <ele>506.4</ele>
        <time>2022-11-01T09:48:41Z</time>
      </trkpt>
      <trkpt lat="36.7959670" lon="-3.0760620">
        <ele>506.6</ele>
        <time>2022-11-01T09:48:42Z</time>
      </trkpt>
      <trkpt lat="36.7959710" lon="-3.0760860">
        <ele>506.8</ele>
        <time>2022-11-01T09:48:43Z</time>
      </trkpt>
      <trkpt lat="36.7959790" lon="-3.0761060">
        <ele>507.0</ele>
        <time>2022-11-01T09:48:44Z</time>
      </trkpt>
      <trkpt lat="36.7959880" lon="-3.0761240">
        <ele>507.2</ele>
        <time>2022-11-01T09:48:45Z</time>
      </trkpt>
      <trkpt lat="36.7959950" lon="-3.0761450">
        <ele>507.4</ele>
        <time>2022-11-01T09:48:46Z</time>
      </trkpt>
      <trkpt lat="36.7960030" lon="-3.0761650">
        <ele>507.6</ele>
        <time>2022-11-01T09:48:47Z</time>
      </trkpt>
      <trkpt lat="36.7960120" lon="-3.0761840">
        <ele>507.8</ele>
        <time>2022-11-01T09:48:48Z</time>
      </trkpt>
      <trkpt lat="36.7960210" lon="-3.0762030">
        <ele>508.0</ele>
        <time>2022-11-01T09:48:49Z</time>
      </trkpt>
      <trkpt lat="36.7960280" lon="-3.0762250">
        <ele>508.2</ele>
        <time>2022-11-01T09:48:50Z</time>
      </trkpt>
      <trkpt lat="36.7960360" lon="-3.0762450">
        <ele>508.4</ele>
        <time>2022-11-01T09:48:51Z</time>
      </trkpt>
      <trkpt lat="36.7960460" lon="-3.0762630">
        <ele>508.6</ele>
        <time>2022-11-01T09:48:52Z</time>
      </trkpt>
      <trkpt lat="36.7960590" lon="-3.0762780">
        <ele>509.0</ele>
        <time>2022-11-01T09:48:53Z</time>
      </trkpt>
      <trkpt lat="36.7960680" lon="-3.0762940">
        <ele>509.2</ele>
        <time>2022-11-01T09:48:54Z</time>
      </trkpt>
      <trkpt lat="36.7960750" lon="-3.0763150">
        <ele>509.4</ele>
        <time>2022-11-01T09:48:55Z</time>
      </trkpt>
      <trkpt lat="36.7960850" lon="-3.0763360">
        <ele>509.6</ele>
        <time>2022-11-01T09:48:56Z</time>
      </trkpt>
      <trkpt lat="36.7960960" lon="-3.0763420">
        <ele>510.0</ele>
        <time>2022-11-01T09:48:57Z</time>
      </trkpt>
      <trkpt lat="36.7961080" lon="-3.0763610">
        <ele>510.4</ele>
        <time>2022-11-01T09:48:58Z</time>
      </trkpt>
      <trkpt lat="36.7961210" lon="-3.0763790">
        <ele>510.6</ele>
        <time>2022-11-01T09:48:59Z</time>
      </trkpt>
      <trkpt lat="36.7961340" lon="-3.0764000">
        <ele>510.8</ele>
        <time>2022-11-01T09:49:00Z</time>
      </trkpt>
      <trkpt lat="36.7961450" lon="-3.0764240">
        <ele>511.2</ele>
        <time>2022-11-01T09:49:01Z</time>
      </trkpt>
      <trkpt lat="36.7961530" lon="-3.0764500">
        <ele>511.4</ele>
        <time>2022-11-01T09:49:02Z</time>
      </trkpt>
      <trkpt lat="36.7961570" lon="-3.0764770">
        <ele>511.4</ele>
        <time>2022-11-01T09:49:03Z</time>
      </trkpt>
      <trkpt lat="36.7961580" lon="-3.0765040">
        <ele>511.6</ele>
        <time>2022-11-01T09:49:04Z</time>
      </trkpt>
      <trkpt lat="36.7961560" lon="-3.0765340">
        <ele>511.8</ele>
        <time>2022-11-01T09:49:05Z</time>
      </trkpt>
      <trkpt lat="36.7961470" lon="-3.0765620">
        <ele>511.8</ele>
        <time>2022-11-01T09:49:06Z</time>
      </trkpt>
      <trkpt lat="36.7961320" lon="-3.0765900">
        <ele>512.0</ele>
        <time>2022-11-01T09:49:07Z</time>
      </trkpt>
      <trkpt lat="36.7961100" lon="-3.0766160">
        <ele>512.0</ele>
        <time>2022-11-01T09:49:08Z</time>
      </trkpt>
      <trkpt lat="36.7960880" lon="-3.0766420">
        <ele>512.0</ele>
        <time>2022-11-01T09:49:09Z</time>
      </trkpt>
      <trkpt lat="36.7960630" lon="-3.0766660">
        <ele>512.0</ele>
        <time>2022-11-01T09:49:10Z</time>
      </trkpt>
      <trkpt lat="36.7960370" lon="-3.0766880">
        <ele>512.2</ele>
        <time>2022-11-01T09:49:11Z</time>
      </trkpt>
      <trkpt lat="36.7960110" lon="-3.0767090">
        <ele>512.2</ele>
        <time>2022-11-01T09:49:12Z</time>
      </trkpt>
      <trkpt lat="36.7959860" lon="-3.0767300">
        <ele>512.2</ele>
        <time>2022-11-01T09:49:13Z</time>
      </trkpt>
      <trkpt lat="36.7959590" lon="-3.0767490">
        <ele>512.2</ele>
        <time>2022-11-01T09:49:14Z</time>
      </trkpt>
      <trkpt lat="36.7959300" lon="-3.0767690">
        <ele>512.4</ele>
        <time>2022-11-01T09:49:15Z</time>
      </trkpt>
      <trkpt lat="36.7959000" lon="-3.0767870">
        <ele>512.4</ele>
        <time>2022-11-01T09:49:16Z</time>
      </trkpt>
      <trkpt lat="36.7958690" lon="-3.0768040">
        <ele>512.6</ele>
        <time>2022-11-01T09:49:17Z</time>
      </trkpt>
      <trkpt lat="36.7958380" lon="-3.0768200">
        <ele>512.4</ele>
        <time>2022-11-01T09:49:18Z</time>
      </trkpt>
      <trkpt lat="36.7958060" lon="-3.0768390">
        <ele>512.4</ele>
        <time>2022-11-01T09:49:19Z</time>
      </trkpt>
      <trkpt lat="36.7957740" lon="-3.0768540">
        <ele>512.6</ele>
        <time>2022-11-01T09:49:20Z</time>
      </trkpt>
      <trkpt lat="36.7957380" lon="-3.0768680">
        <ele>512.4</ele>
        <time>2022-11-01T09:49:21Z</time>
      </trkpt>
      <trkpt lat="36.7957000" lon="-3.0768800">
        <ele>512.2</ele>
        <time>2022-11-01T09:49:22Z</time>
      </trkpt>
      <trkpt lat="36.7956590" lon="-3.0768920">
        <ele>512.2</ele>
        <time>2022-11-01T09:49:23Z</time>
      </trkpt>
      <trkpt lat="36.7956140" lon="-3.0769060">
        <ele>512.2</ele>
        <time>2022-11-01T09:49:24Z</time>
      </trkpt>
      <trkpt lat="36.7955700" lon="-3.0769250">
        <ele>512.2</ele>
        <time>2022-11-01T09:49:25Z</time>
      </trkpt>
      <trkpt lat="36.7955260" lon="-3.0769490">
        <ele>512.2</ele>
        <time>2022-11-01T09:49:26Z</time>
      </trkpt>
      <trkpt lat="36.7954870" lon="-3.0769800">
        <ele>512.2</ele>
        <time>2022-11-01T09:49:27Z</time>
      </trkpt>
      <trkpt lat="36.7954540" lon="-3.0770220">
        <ele>512.2</ele>
        <time>2022-11-01T09:49:28Z</time>
      </trkpt>
      <trkpt lat="36.7954270" lon="-3.0770690">
        <ele>512.0</ele>
        <time>2022-11-01T09:49:29Z</time>
      </trkpt>
      <trkpt lat="36.7954050" lon="-3.0771190">
        <ele>512.2</ele>
        <time>2022-11-01T09:49:30Z</time>
      </trkpt>
      <trkpt lat="36.7953880" lon="-3.0771740">
        <ele>512.2</ele>
        <time>2022-11-01T09:49:31Z</time>
      </trkpt>
      <trkpt lat="36.7953760" lon="-3.0772300">
        <ele>512.2</ele>
        <time>2022-11-01T09:49:32Z</time>
      </trkpt>
      <trkpt lat="36.7953710" lon="-3.0772880">
        <ele>512.2</ele>
        <time>2022-11-01T09:49:33Z</time>
      </trkpt>
      <trkpt lat="36.7953690" lon="-3.0773470">
        <ele>512.2</ele>
        <time>2022-11-01T09:49:34Z</time>
      </trkpt>
      <trkpt lat="36.7953730" lon="-3.0774060">
        <ele>512.2</ele>
        <time>2022-11-01T09:49:35Z</time>
      </trkpt>
      <trkpt lat="36.7953810" lon="-3.0774630">
        <ele>512.4</ele>
        <time>2022-11-01T09:49:36Z</time>
      </trkpt>
      <trkpt lat="36.7953940" lon="-3.0775190">
        <ele>512.4</ele>
        <time>2022-11-01T09:49:37Z</time>
      </trkpt>
      <trkpt lat="36.7954110" lon="-3.0775720">
        <ele>512.6</ele>
        <time>2022-11-01T09:49:38Z</time>
      </trkpt>
      <trkpt lat="36.7954290" lon="-3.0776240">
        <ele>512.6</ele>
        <time>2022-11-01T09:49:39Z</time>
      </trkpt>
      <trkpt lat="36.7954460" lon="-3.0776740">
        <ele>512.6</ele>
        <time>2022-11-01T09:49:40Z</time>
      </trkpt>
      <trkpt lat="36.7954640" lon="-3.0777210">
        <ele>512.8</ele>
        <time>2022-11-01T09:49:41Z</time>
      </trkpt>
      <trkpt lat="36.7954800" lon="-3.0777650">
        <ele>513.0</ele>
        <time>2022-11-01T09:49:42Z</time>
      </trkpt>
      <trkpt lat="36.7954920" lon="-3.0778120">
        <ele>513.2</ele>
        <time>2022-11-01T09:49:43Z</time>
      </trkpt>
      <trkpt lat="36.7954990" lon="-3.0778580">
        <ele>513.2</ele>
        <time>2022-11-01T09:49:44Z</time>
      </trkpt>
      <trkpt lat="36.7955040" lon="-3.0779030">
        <ele>513.4</ele>
        <time>2022-11-01T09:49:45Z</time>
      </trkpt>
      <trkpt lat="36.7955040" lon="-3.0779460">
        <ele>513.6</ele>
        <time>2022-11-01T09:49:46Z</time>
      </trkpt>
      <trkpt lat="36.7955030" lon="-3.0779870">
        <ele>513.8</ele>
        <time>2022-11-01T09:49:47Z</time>
      </trkpt>
      <trkpt lat="36.7954990" lon="-3.0780250">
        <ele>513.8</ele>
        <time>2022-11-01T09:49:48Z</time>
      </trkpt>
      <trkpt lat="36.7954920" lon="-3.0780590">
        <ele>514.0</ele>
        <time>2022-11-01T09:49:49Z</time>
      </trkpt>
      <trkpt lat="36.7954850" lon="-3.0780920">
        <ele>514.0</ele>
        <time>2022-11-01T09:49:50Z</time>
      </trkpt>
      <trkpt lat="36.7954800" lon="-3.0781250">
        <ele>514.2</ele>
        <time>2022-11-01T09:49:51Z</time>
      </trkpt>
      <trkpt lat="36.7954750" lon="-3.0781560">
        <ele>514.2</ele>
        <time>2022-11-01T09:49:52Z</time>
      </trkpt>
      <trkpt lat="36.7954660" lon="-3.0781830">
        <ele>514.4</ele>
        <time>2022-11-01T09:49:53Z</time>
      </trkpt>
      <trkpt lat="36.7954550" lon="-3.0782060">
        <ele>514.6</ele>
        <time>2022-11-01T09:49:54Z</time>
      </trkpt>
      <trkpt lat="36.7954450" lon="-3.0782280">
        <ele>514.6</ele>
        <time>2022-11-01T09:49:55Z</time>
      </trkpt>
      <trkpt lat="36.7954360" lon="-3.0782470">
        <ele>514.6</ele>
        <time>2022-11-01T09:49:56Z</time>
      </trkpt>
      <trkpt lat="36.7954310" lon="-3.0782660">
        <ele>514.6</ele>
        <time>2022-11-01T09:49:57Z</time>
      </trkpt>
      <trkpt lat="36.7954240" lon="-3.0782770">
        <ele>514.8</ele>
        <time>2022-11-01T09:49:58Z</time>
      </trkpt>
      <trkpt lat="36.7954200" lon="-3.0782860">
        <ele>514.8</ele>
        <time>2022-11-01T09:49:59Z</time>
      </trkpt>
      <trkpt lat="36.7954130" lon="-3.0783000">
        <ele>514.8</ele>
        <time>2022-11-01T09:50:00Z</time>
      </trkpt>
      <trkpt lat="36.7954090" lon="-3.0783190">
        <ele>514.8</ele>
        <time>2022-11-01T09:50:01Z</time>
      </trkpt>
      <trkpt lat="36.7954050" lon="-3.0783370">
        <ele>515.0</ele>
        <time>2022-11-01T09:50:02Z</time>
      </trkpt>
      <trkpt lat="36.7954020" lon="-3.0783530">
        <ele>515.0</ele>
        <time>2022-11-01T09:50:03Z</time>
      </trkpt>
      <trkpt lat="36.7954030" lon="-3.0783690">
        <ele>515.0</ele>
        <time>2022-11-01T09:50:04Z</time>
      </trkpt>
      <trkpt lat="36.7954100" lon="-3.0783850">
        <ele>515.0</ele>
        <time>2022-11-01T09:50:05Z</time>
      </trkpt>
      <trkpt lat="36.7954200" lon="-3.0783950">
        <ele>515.0</ele>
        <time>2022-11-01T09:50:06Z</time>
      </trkpt>
      <trkpt lat="36.7954290" lon="-3.0783930">
        <ele>515.0</ele>
        <time>2022-11-01T09:50:07Z</time>
      </trkpt>
      <trkpt lat="36.7954360" lon="-3.0783810">
        <ele>515.2</ele>
        <time>2022-11-01T09:50:08Z</time>
      </trkpt>
      <trkpt lat="36.7954450" lon="-3.0783650">
        <ele>515.2</ele>
        <time>2022-11-01T09:50:09Z</time>
      </trkpt>
      <trkpt lat="36.7954560" lon="-3.0783560">
        <ele>515.4</ele>
        <time>2022-11-01T09:50:10Z</time>
      </trkpt>
      <trkpt lat="36.7954680" lon="-3.0783540">
        <ele>515.4</ele>
        <time>2022-11-01T09:50:11Z</time>
      </trkpt>
      <trkpt lat="36.7954810" lon="-3.0783540">
        <ele>515.6</ele>
        <time>2022-11-01T09:50:12Z</time>
      </trkpt>
      <trkpt lat="36.7954920" lon="-3.0783410">
        <ele>515.8</ele>
        <time>2022-11-01T09:50:13Z</time>
      </trkpt>
      <trkpt lat="36.7955000" lon="-3.0783180">
        <ele>515.8</ele>
        <time>2022-11-01T09:50:14Z</time>
      </trkpt>
      <trkpt lat="36.7955080" lon="-3.0782920">
        <ele>516.0</ele>
        <time>2022-11-01T09:50:15Z</time>
      </trkpt>
      <trkpt lat="36.7955160" lon="-3.0782680">
        <ele>516.4</ele>
        <time>2022-11-01T09:50:16Z</time>
      </trkpt>
      <trkpt lat="36.7955260" lon="-3.0782460">
        <ele>516.6</ele>
        <time>2022-11-01T09:50:17Z</time>
      </trkpt>
      <trkpt lat="36.7955380" lon="-3.0782270">
        <ele>516.8</ele>
        <time>2022-11-01T09:50:18Z</time>
      </trkpt>
      <trkpt lat="36.7955510" lon="-3.0782080">
        <ele>517.2</ele>
        <time>2022-11-01T09:50:19Z</time>
      </trkpt>
      <trkpt lat="36.7955640" lon="-3.0781870">
        <ele>517.4</ele>
        <time>2022-11-01T09:50:20Z</time>
      </trkpt>
      <trkpt lat="36.7955750" lon="-3.0781600">
        <ele>517.8</ele>
        <time>2022-11-01T09:50:21Z</time>
      </trkpt>
      <trkpt lat="36.7955870" lon="-3.0781290">
        <ele>518.0</ele>
        <time>2022-11-01T09:50:22Z</time>
      </trkpt>
      <trkpt lat="36.7956000" lon="-3.0781020">
        <ele>518.4</ele>
        <time>2022-11-01T09:50:23Z</time>
      </trkpt>
      <trkpt lat="36.7956120" lon="-3.0780780">
        <ele>518.6</ele>
        <time>2022-11-01T09:50:24Z</time>
      </trkpt>
      <trkpt lat="36.7956240" lon="-3.0780560">
        <ele>518.8</ele>
        <time>2022-11-01T09:50:25Z</time>
      </trkpt>
      <trkpt lat="36.7956350" lon="-3.0780370">
        <ele>519.2</ele>
        <time>2022-11-01T09:50:26Z</time>
      </trkpt>
      <trkpt lat="36.7956450" lon="-3.0780180">
        <ele>519.4</ele>
        <time>2022-11-01T09:50:27Z</time>
      </trkpt>
      <trkpt lat="36.7956550" lon="-3.0780010">
        <ele>519.6</ele>
        <time>2022-11-01T09:50:28Z</time>
      </trkpt>
      <trkpt lat="36.7956660" lon="-3.0779830">
        <ele>519.8</ele>
        <time>2022-11-01T09:50:29Z</time>
      </trkpt>
      <trkpt lat="36.7956790" lon="-3.0779650">
        <ele>520.0</ele>
        <time>2022-11-01T09:50:30Z</time>
      </trkpt>
      <trkpt lat="36.7956930" lon="-3.0779470">
        <ele>520.2</ele>
        <time>2022-11-01T09:50:31Z</time>
      </trkpt>
      <trkpt lat="36.7957070" lon="-3.0779310">
        <ele>520.4</ele>
        <time>2022-11-01T09:50:32Z</time>
      </trkpt>
      <trkpt lat="36.7957160" lon="-3.0779150">
        <ele>520.8</ele>
        <time>2022-11-01T09:50:33Z</time>
      </trkpt>
      <trkpt lat="36.7957260" lon="-3.0778970">
        <ele>521.0</ele>
        <time>2022-11-01T09:50:34Z</time>
      </trkpt>
      <trkpt lat="36.7957370" lon="-3.0778830">
        <ele>521.2</ele>
        <time>2022-11-01T09:50:35Z</time>
      </trkpt>
      <trkpt lat="36.7957500" lon="-3.0778700">
        <ele>521.4</ele>
        <time>2022-11-01T09:50:36Z</time>
      </trkpt>
      <trkpt lat="36.7957620" lon="-3.0778570">
        <ele>521.6</ele>
        <time>2022-11-01T09:50:37Z</time>
      </trkpt>
      <trkpt lat="36.7957720" lon="-3.0778430">
        <ele>521.8</ele>
        <time>2022-11-01T09:50:38Z</time>
      </trkpt>
      <trkpt lat="36.7957830" lon="-3.0778270">
        <ele>522.0</ele>
        <time>2022-11-01T09:50:39Z</time>
      </trkpt>
      <trkpt lat="36.7957930" lon="-3.0778110">
        <ele>522.2</ele>
        <time>2022-11-01T09:50:40Z</time>
      </trkpt>
      <trkpt lat="36.7958030" lon="-3.0777960">
        <ele>522.4</ele>
        <time>2022-11-01T09:50:41Z</time>
      </trkpt>
      <trkpt lat="36.7958150" lon="-3.0777800">
        <ele>522.6</ele>
        <time>2022-11-01T09:50:42Z</time>
      </trkpt>
      <trkpt lat="36.7958260" lon="-3.0777630">
        <ele>522.8</ele>
        <time>2022-11-01T09:50:43Z</time>
      </trkpt>
      <trkpt lat="36.7958380" lon="-3.0777450">
        <ele>523.0</ele>
        <time>2022-11-01T09:50:44Z</time>
      </trkpt>
      <trkpt lat="36.7958500" lon="-3.0777280">
        <ele>523.2</ele>
        <time>2022-11-01T09:50:45Z</time>
      </trkpt>
      <trkpt lat="36.7958610" lon="-3.0777110">
        <ele>523.4</ele>
        <time>2022-11-01T09:50:46Z</time>
      </trkpt>
      <trkpt lat="36.7958710" lon="-3.0776920">
        <ele>523.6</ele>
        <time>2022-11-01T09:50:47Z</time>
      </trkpt>
      <trkpt lat="36.7958820" lon="-3.0776740">
        <ele>523.6</ele>
        <time>2022-11-01T09:50:48Z</time>
      </trkpt>
      <trkpt lat="36.7958950" lon="-3.0776570">
        <ele>523.8</ele>
        <time>2022-11-01T09:50:49Z</time>
      </trkpt>
      <trkpt lat="36.7959080" lon="-3.0776390">
        <ele>523.8</ele>
        <time>2022-11-01T09:50:50Z</time>
      </trkpt>
      <trkpt lat="36.7959220" lon="-3.0776240">
        <ele>524.0</ele>
        <time>2022-11-01T09:50:51Z</time>
      </trkpt>
      <trkpt lat="36.7959380" lon="-3.0776110">
        <ele>524.0</ele>
        <time>2022-11-01T09:50:52Z</time>
      </trkpt>
      <trkpt lat="36.7959530" lon="-3.0775970">
        <ele>524.2</ele>
        <time>2022-11-01T09:50:53Z</time>
      </trkpt>
      <trkpt lat="36.7959670" lon="-3.0775820">
        <ele>524.2</ele>
        <time>2022-11-01T09:50:54Z</time>
      </trkpt>
      <trkpt lat="36.7959780" lon="-3.0775660">
        <ele>524.2</ele>
        <time>2022-11-01T09:50:55Z</time>
      </trkpt>
      <trkpt lat="36.7959880" lon="-3.0775510">
        <ele>524.4</ele>
        <time>2022-11-01T09:50:56Z</time>
      </trkpt>
      <trkpt lat="36.7959990" lon="-3.0775380">
        <ele>524.4</ele>
        <time>2022-11-01T09:50:57Z</time>
      </trkpt>
      <trkpt lat="36.7960090" lon="-3.0775240">
        <ele>524.4</ele>
        <time>2022-11-01T09:50:58Z</time>
      </trkpt>
      <trkpt lat="36.7960170" lon="-3.0775100">
        <ele>524.4</ele>
        <time>2022-11-01T09:50:59Z</time>
      </trkpt>
      <trkpt lat="36.7960210" lon="-3.0774980">
        <ele>524.6</ele>
        <time>2022-11-01T09:51:00Z</time>
      </trkpt>
      <trkpt lat="36.7960200" lon="-3.0774850">
        <ele>524.6</ele>
        <time>2022-11-01T09:51:01Z</time>
      </trkpt>
      <trkpt lat="36.7960200" lon="-3.0774770">
        <ele>524.6</ele>
        <time>2022-11-01T09:51:02Z</time>
      </trkpt>
      <trkpt lat="36.7960240" lon="-3.0774740">
        <ele>524.6</ele>
        <time>2022-11-01T09:51:03Z</time>
      </trkpt>
      <trkpt lat="36.7960300" lon="-3.0774720">
        <ele>524.6</ele>
        <time>2022-11-01T09:51:04Z</time>
      </trkpt>
      <trkpt lat="36.7960350" lon="-3.0774710">
        <ele>524.6</ele>
        <time>2022-11-01T09:51:05Z</time>
      </trkpt>
      <trkpt lat="36.7958470" lon="-3.0773040">
        <ele>524.0</ele>
        <time>2022-11-01T09:59:47Z</time>
      </trkpt>
      <trkpt lat="36.7958470" lon="-3.0773040">
        <ele>524.0</ele>
        <time>2022-11-01T09:59:48Z</time>
      </trkpt>
      <trkpt lat="36.7960260" lon="-3.0774180">
        <ele>524.4</ele>
        <time>2022-11-01T10:01:54Z</time>
      </trkpt>
      <trkpt lat="36.7960260" lon="-3.0774180">
        <ele>524.4</ele>
        <time>2022-11-01T10:01:55Z</time>
      </trkpt>
      <trkpt lat="36.7960320" lon="-3.0774220">
        <ele>524.4</ele>
        <time>2022-11-01T10:01:56Z</time>
      </trkpt>
      <trkpt lat="36.7960370" lon="-3.0774260">
        <ele>524.4</ele>
        <time>2022-11-01T10:01:57Z</time>
      </trkpt>
      <trkpt lat="36.7960430" lon="-3.0774290">
        <ele>524.4</ele>
        <time>2022-11-01T10:01:58Z</time>
      </trkpt>
      <trkpt lat="36.7960480" lon="-3.0774320">
        <ele>524.4</ele>
        <time>2022-11-01T10:01:59Z</time>
      </trkpt>
      <trkpt lat="36.7960530" lon="-3.0774340">
        <ele>524.4</ele>
        <time>2022-11-01T10:02:00Z</time>
      </trkpt>
      <trkpt lat="36.7960570" lon="-3.0774400">
        <ele>524.4</ele>
        <time>2022-11-01T10:02:01Z</time>
      </trkpt>
      <trkpt lat="36.7960620" lon="-3.0774470">
        <ele>524.4</ele>
        <time>2022-11-01T10:02:02Z</time>
      </trkpt>
      <trkpt lat="36.7960680" lon="-3.0774540">
        <ele>524.4</ele>
        <time>2022-11-01T10:02:03Z</time>
      </trkpt>
      <trkpt lat="36.7960720" lon="-3.0774610">
        <ele>524.4</ele>
        <time>2022-11-01T10:02:04Z</time>
      </trkpt>
      <trkpt lat="36.7960760" lon="-3.0774670">
        <ele>524.4</ele>
        <time>2022-11-01T10:02:05Z</time>
      </trkpt>
      <trkpt lat="36.7960800" lon="-3.0774730">
        <ele>524.4</ele>
        <time>2022-11-01T10:02:06Z</time>
      </trkpt>
      <trkpt lat="36.7960850" lon="-3.0774770">
        <ele>524.4</ele>
        <time>2022-11-01T10:02:07Z</time>
      </trkpt>
      <trkpt lat="36.7960880" lon="-3.0774830">
        <ele>524.4</ele>
        <time>2022-11-01T10:02:08Z</time>
      </trkpt>
      <trkpt lat="36.7960880" lon="-3.0774900">
        <ele>524.6</ele>
        <time>2022-11-01T10:02:09Z</time>
      </trkpt>
      <trkpt lat="36.7960870" lon="-3.0774980">
        <ele>524.6</ele>
        <time>2022-11-01T10:02:10Z</time>
      </trkpt>
      <trkpt lat="36.7960860" lon="-3.0775050">
        <ele>524.4</ele>
        <time>2022-11-01T10:02:11Z</time>
      </trkpt>
      <trkpt lat="36.7960840" lon="-3.0775110">
        <ele>524.4</ele>
        <time>2022-11-01T10:02:12Z</time>
      </trkpt>
      <trkpt lat="36.7960830" lon="-3.0775100">
        <ele>524.4</ele>
        <time>2022-11-01T10:02:13Z</time>
      </trkpt>
      <trkpt lat="36.7960820" lon="-3.0775100">
        <ele>524.4</ele>
        <time>2022-11-01T10:02:14Z</time>
      </trkpt>
      <trkpt lat="36.7960820" lon="-3.0775100">
        <ele>524.4</ele>
        <time>2022-11-01T10:02:15Z</time>
      </trkpt>
      <trkpt lat="36.7960820" lon="-3.0775120">
        <ele>524.4</ele>
        <time>2022-11-01T10:02:16Z</time>
      </trkpt>
      <trkpt lat="36.7960760" lon="-3.0775180">
        <ele>524.4</ele>
        <time>2022-11-01T10:02:17Z</time>
      </trkpt>
      <trkpt lat="36.7960610" lon="-3.0775530">
        <ele>524.4</ele>
        <time>2022-11-01T10:02:19Z</time>
      </trkpt>
      <trkpt lat="36.7960610" lon="-3.0775530">
        <ele>524.4</ele>
        <time>2022-11-01T10:02:20Z</time>
      </trkpt>
      <trkpt lat="36.7960550" lon="-3.0775620">
        <ele>524.2</ele>
        <time>2022-11-01T10:02:21Z</time>
      </trkpt>
      <trkpt lat="36.7960460" lon="-3.0775720">
        <ele>524.2</ele>
        <time>2022-11-01T10:02:22Z</time>
      </trkpt>
      <trkpt lat="36.7960360" lon="-3.0775810">
        <ele>524.2</ele>
        <time>2022-11-01T10:02:23Z</time>
      </trkpt>
      <trkpt lat="36.7960300" lon="-3.0775950">
        <ele>524.0</ele>
        <time>2022-11-01T10:02:24Z</time>
      </trkpt>
      <trkpt lat="36.7960210" lon="-3.0776110">
        <ele>524.0</ele>
        <time>2022-11-01T10:02:25Z</time>
      </trkpt>
      <trkpt lat="36.7960120" lon="-3.0776270">
        <ele>524.0</ele>
        <time>2022-11-01T10:02:26Z</time>
      </trkpt>
      <trkpt lat="36.7959990" lon="-3.0776410">
        <ele>523.8</ele>
        <time>2022-11-01T10:02:27Z</time>
      </trkpt>
      <trkpt lat="36.7959860" lon="-3.0776510">
        <ele>523.8</ele>
        <time>2022-11-01T10:02:28Z</time>
      </trkpt>
      <trkpt lat="36.7959730" lon="-3.0776610">
        <ele>523.6</ele>
        <time>2022-11-01T10:02:29Z</time>
      </trkpt>
      <trkpt lat="36.7959610" lon="-3.0776770">
        <ele>523.4</ele>
        <time>2022-11-01T10:02:30Z</time>
      </trkpt>
      <trkpt lat="36.7959440" lon="-3.0776980">
        <ele>523.2</ele>
        <time>2022-11-01T10:02:31Z</time>
      </trkpt>
      <trkpt lat="36.7959280" lon="-3.0777250">
        <ele>523.0</ele>
        <time>2022-11-01T10:02:32Z</time>
      </trkpt>
      <trkpt lat="36.7959040" lon="-3.0777580">
        <ele>522.6</ele>
        <time>2022-11-01T10:02:33Z</time>
      </trkpt>
      <trkpt lat="36.7958770" lon="-3.0777960">
        <ele>522.0</ele>
        <time>2022-11-01T10:02:34Z</time>
      </trkpt>
      <trkpt lat="36.7958480" lon="-3.0778340">
        <ele>521.6</ele>
        <time>2022-11-01T10:02:35Z</time>
      </trkpt>
      <trkpt lat="36.7958200" lon="-3.0778810">
        <ele>521.0</ele>
        <time>2022-11-01T10:02:36Z</time>
      </trkpt>
      <trkpt lat="36.7957930" lon="-3.0779270">
        <ele>520.4</ele>
        <time>2022-11-01T10:02:37Z</time>
      </trkpt>
      <trkpt lat="36.7957650" lon="-3.0779790">
        <ele>519.8</ele>
        <time>2022-11-01T10:02:38Z</time>
      </trkpt>
      <trkpt lat="36.7957360" lon="-3.0780360">
        <ele>519.4</ele>
        <time>2022-11-01T10:02:39Z</time>
      </trkpt>
      <trkpt lat="36.7957060" lon="-3.0780940">
        <ele>519.0</ele>
        <time>2022-11-01T10:02:40Z</time>
      </trkpt>
      <trkpt lat="36.7956810" lon="-3.0781460">
        <ele>518.4</ele>
        <time>2022-11-01T10:02:41Z</time>
      </trkpt>
      <trkpt lat="36.7956540" lon="-3.0781930">
        <ele>517.8</ele>
        <time>2022-11-01T10:02:42Z</time>
      </trkpt>
      <trkpt lat="36.7956280" lon="-3.0782380">
        <ele>517.2</ele>
        <time>2022-11-01T10:02:43Z</time>
      </trkpt>
      <trkpt lat="36.7956020" lon="-3.0782760">
        <ele>516.6</ele>
        <time>2022-11-01T10:02:44Z</time>
      </trkpt>
      <trkpt lat="36.7955740" lon="-3.0783050">
        <ele>516.2</ele>
        <time>2022-11-01T10:02:45Z</time>
      </trkpt>
      <trkpt lat="36.7955430" lon="-3.0783200">
        <ele>515.8</ele>
        <time>2022-11-01T10:02:46Z</time>
      </trkpt>
      <trkpt lat="36.7955120" lon="-3.0783230">
        <ele>515.4</ele>
        <time>2022-11-01T10:02:47Z</time>
      </trkpt>
      <trkpt lat="36.7954870" lon="-3.0783100">
        <ele>515.2</ele>
        <time>2022-11-01T10:02:48Z</time>
      </trkpt>
      <trkpt lat="36.7954750" lon="-3.0782860">
        <ele>515.0</ele>
        <time>2022-11-01T10:02:49Z</time>
      </trkpt>
      <trkpt lat="36.7954800" lon="-3.0782580">
        <ele>515.0</ele>
        <time>2022-11-01T10:02:50Z</time>
      </trkpt>
      <trkpt lat="36.7954900" lon="-3.0782270">
        <ele>514.8</ele>
        <time>2022-11-01T10:02:51Z</time>
      </trkpt>
      <trkpt lat="36.7955030" lon="-3.0781900">
        <ele>514.6</ele>
        <time>2022-11-01T10:02:52Z</time>
      </trkpt>
      <trkpt lat="36.7955150" lon="-3.0781490">
        <ele>514.6</ele>
        <time>2022-11-01T10:02:53Z</time>
      </trkpt>
      <trkpt lat="36.7955220" lon="-3.0781050">
        <ele>514.6</ele>
        <time>2022-11-01T10:02:54Z</time>
      </trkpt>
      <trkpt lat="36.7955280" lon="-3.0780550">
        <ele>514.4</ele>
        <time>2022-11-01T10:02:55Z</time>
      </trkpt>
      <trkpt lat="36.7955300" lon="-3.0779980">
        <ele>514.4</ele>
        <time>2022-11-01T10:02:56Z</time>
      </trkpt>
      <trkpt lat="36.7955280" lon="-3.0779360">
        <ele>514.2</ele>
        <time>2022-11-01T10:02:57Z</time>
      </trkpt>
      <trkpt lat="36.7955180" lon="-3.0778690">
        <ele>514.0</ele>
        <time>2022-11-01T10:02:58Z</time>
      </trkpt>
      <trkpt lat="36.7955010" lon="-3.0778000">
        <ele>513.8</ele>
        <time>2022-11-01T10:02:59Z</time>
      </trkpt>
      <trkpt lat="36.7954750" lon="-3.0777320">
        <ele>513.6</ele>
        <time>2022-11-01T10:03:00Z</time>
      </trkpt>
      <trkpt lat="36.7954480" lon="-3.0776640">
        <ele>513.4</ele>
        <time>2022-11-01T10:03:01Z</time>
      </trkpt>
      <trkpt lat="36.7954220" lon="-3.0775930">
        <ele>513.2</ele>
        <time>2022-11-01T10:03:02Z</time>
      </trkpt>
      <trkpt lat="36.7954000" lon="-3.0775190">
        <ele>513.0</ele>
        <time>2022-11-01T10:03:03Z</time>
      </trkpt>
      <trkpt lat="36.7953840" lon="-3.0774410">
        <ele>512.8</ele>
        <time>2022-11-01T10:03:04Z</time>
      </trkpt>
      <trkpt lat="36.7953730" lon="-3.0773610">
        <ele>512.6</ele>
        <time>2022-11-01T10:03:05Z</time>
      </trkpt>
      <trkpt lat="36.7953710" lon="-3.0772800">
        <ele>512.6</ele>
        <time>2022-11-01T10:03:06Z</time>
      </trkpt>
      <trkpt lat="36.7953780" lon="-3.0772010">
        <ele>512.4</ele>
        <time>2022-11-01T10:03:07Z</time>
      </trkpt>
      <trkpt lat="36.7953990" lon="-3.0771260">
        <ele>512.2</ele>
        <time>2022-11-01T10:03:08Z</time>
      </trkpt>
      <trkpt lat="36.7954280" lon="-3.0770540">
        <ele>512.2</ele>
        <time>2022-11-01T10:03:09Z</time>
      </trkpt>
      <trkpt lat="36.7954660" lon="-3.0769920">
        <ele>512.0</ele>
        <time>2022-11-01T10:03:10Z</time>
      </trkpt>
      <trkpt lat="36.7955150" lon="-3.0769450">
        <ele>512.2</ele>
        <time>2022-11-01T10:03:11Z</time>
      </trkpt>
      <trkpt lat="36.7955710" lon="-3.0769110">
        <ele>512.2</ele>
        <time>2022-11-01T10:03:12Z</time>
      </trkpt>
      <trkpt lat="36.7956280" lon="-3.0768880">
        <ele>512.2</ele>
        <time>2022-11-01T10:03:13Z</time>
      </trkpt>
      <trkpt lat="36.7956900" lon="-3.0768720">
        <ele>512.2</ele>
        <time>2022-11-01T10:03:14Z</time>
      </trkpt>
      <trkpt lat="36.7957520" lon="-3.0768520">
        <ele>512.2</ele>
        <time>2022-11-01T10:03:15Z</time>
      </trkpt>
      <trkpt lat="36.7958110" lon="-3.0768250">
        <ele>512.4</ele>
        <time>2022-11-01T10:03:16Z</time>
      </trkpt>
      <trkpt lat="36.7958670" lon="-3.0767950">
        <ele>512.4</ele>
        <time>2022-11-01T10:03:17Z</time>
      </trkpt>
      <trkpt lat="36.7959230" lon="-3.0767640">
        <ele>512.4</ele>
        <time>2022-11-01T10:03:18Z</time>
      </trkpt>
      <trkpt lat="36.7959790" lon="-3.0767350">
        <ele>512.4</ele>
        <time>2022-11-01T10:03:19Z</time>
      </trkpt>
      <trkpt lat="36.7960360" lon="-3.0767050">
        <ele>512.4</ele>
        <time>2022-11-01T10:03:20Z</time>
      </trkpt>
      <trkpt lat="36.7960870" lon="-3.0766650">
        <ele>512.2</ele>
        <time>2022-11-01T10:03:21Z</time>
      </trkpt>
      <trkpt lat="36.7961240" lon="-3.0766080">
        <ele>512.2</ele>
        <time>2022-11-01T10:03:22Z</time>
      </trkpt>
      <trkpt lat="36.7961370" lon="-3.0765360">
        <ele>512.0</ele>
        <time>2022-11-01T10:03:23Z</time>
      </trkpt>
      <trkpt lat="36.7961230" lon="-3.0764600">
        <ele>511.8</ele>
        <time>2022-11-01T10:03:24Z</time>
      </trkpt>
      <trkpt lat="36.7960880" lon="-3.0763880">
        <ele>511.2</ele>
        <time>2022-11-01T10:03:25Z</time>
      </trkpt>
      <trkpt lat="36.7960430" lon="-3.0763090">
        <ele>510.6</ele>
        <time>2022-11-01T10:03:26Z</time>
      </trkpt>
      <trkpt lat="36.7960010" lon="-3.0762170">
        <ele>509.8</ele>
        <time>2022-11-01T10:03:27Z</time>
      </trkpt>
      <trkpt lat="36.7959680" lon="-3.0761170">
        <ele>508.8</ele>
        <time>2022-11-01T10:03:28Z</time>
      </trkpt>
      <trkpt lat="36.7959440" lon="-3.0760070">
        <ele>508.0</ele>
        <time>2022-11-01T10:03:29Z</time>
      </trkpt>
      <trkpt lat="36.7959380" lon="-3.0758940">
        <ele>507.0</ele>
        <time>2022-11-01T10:03:30Z</time>
      </trkpt>
      <trkpt lat="36.7959570" lon="-3.0757780">
        <ele>506.0</ele>
        <time>2022-11-01T10:03:31Z</time>
      </trkpt>
      <trkpt lat="36.7959960" lon="-3.0756630">
        <ele>505.2</ele>
        <time>2022-11-01T10:03:32Z</time>
      </trkpt>
      <trkpt lat="36.7960460" lon="-3.0755450">
        <ele>504.2</ele>
        <time>2022-11-01T10:03:33Z</time>
      </trkpt>
      <trkpt lat="36.7961040" lon="-3.0754260">
        <ele>503.2</ele>
        <time>2022-11-01T10:03:34Z</time>
      </trkpt>
      <trkpt lat="36.7961640" lon="-3.0753040">
        <ele>502.2</ele>
        <time>2022-11-01T10:03:35Z</time>
      </trkpt>
      <trkpt lat="36.7962230" lon="-3.0751730">
        <ele>501.0</ele>
        <time>2022-11-01T10:03:36Z</time>
      </trkpt>
      <trkpt lat="36.7962810" lon="-3.0750360">
        <ele>499.8</ele>
        <time>2022-11-01T10:03:37Z</time>
      </trkpt>
      <trkpt lat="36.7963350" lon="-3.0748920">
        <ele>498.4</ele>
        <time>2022-11-01T10:03:38Z</time>
      </trkpt>
      <trkpt lat="36.7963830" lon="-3.0747410">
        <ele>497.2</ele>
        <time>2022-11-01T10:03:39Z</time>
      </trkpt>
      <trkpt lat="36.7964270" lon="-3.0745930">
        <ele>496.2</ele>
        <time>2022-11-01T10:03:40Z</time>
      </trkpt>
      <trkpt lat="36.7964750" lon="-3.0744600">
        <ele>495.0</ele>
        <time>2022-11-01T10:03:41Z</time>
      </trkpt>
      <trkpt lat="36.7965360" lon="-3.0743500">
        <ele>494.0</ele>
        <time>2022-11-01T10:03:42Z</time>
      </trkpt>
      <trkpt lat="36.7965990" lon="-3.0742630">
        <ele>493.0</ele>
        <time>2022-11-01T10:03:43Z</time>
      </trkpt>
      <trkpt lat="36.7966490" lon="-3.0741930">
        <ele>491.8</ele>
        <time>2022-11-01T10:03:44Z</time>
      </trkpt>
      <trkpt lat="36.7966770" lon="-3.0741310">
        <ele>490.8</ele>
        <time>2022-11-01T10:03:45Z</time>
      </trkpt>
      <trkpt lat="36.7966810" lon="-3.0740740">
        <ele>489.8</ele>
        <time>2022-11-01T10:03:46Z</time>
      </trkpt>
      <trkpt lat="36.7966600" lon="-3.0740300">
        <ele>489.0</ele>
        <time>2022-11-01T10:03:47Z</time>
      </trkpt>
      <trkpt lat="36.7966140" lon="-3.0740110">
        <ele>488.2</ele>
        <time>2022-11-01T10:03:48Z</time>
      </trkpt>
      <trkpt lat="36.7965550" lon="-3.0740210">
        <ele>487.4</ele>
        <time>2022-11-01T10:03:49Z</time>
      </trkpt>
      <trkpt lat="36.7964950" lon="-3.0740580">
        <ele>486.6</ele>
        <time>2022-11-01T10:03:50Z</time>
      </trkpt>
      <trkpt lat="36.7964350" lon="-3.0741130">
        <ele>485.8</ele>
        <time>2022-11-01T10:03:51Z</time>
      </trkpt>
      <trkpt lat="36.7963760" lon="-3.0741810">
        <ele>485.0</ele>
        <time>2022-11-01T10:03:52Z</time>
      </trkpt>
      <trkpt lat="36.7963220" lon="-3.0742630">
        <ele>484.4</ele>
        <time>2022-11-01T10:03:53Z</time>
      </trkpt>
      <trkpt lat="36.7962750" lon="-3.0743540">
        <ele>483.8</ele>
        <time>2022-11-01T10:03:54Z</time>
      </trkpt>
      <trkpt lat="36.7962340" lon="-3.0744540">
        <ele>483.0</ele>
        <time>2022-11-01T10:03:55Z</time>
      </trkpt>
      <trkpt lat="36.7961920" lon="-3.0745570">
        <ele>482.4</ele>
        <time>2022-11-01T10:03:56Z</time>
      </trkpt>
      <trkpt lat="36.7961470" lon="-3.0746600">
        <ele>481.8</ele>
        <time>2022-11-01T10:03:57Z</time>
      </trkpt>
      <trkpt lat="36.7960980" lon="-3.0747590">
        <ele>481.2</ele>
        <time>2022-11-01T10:03:58Z</time>
      </trkpt>
      <trkpt lat="36.7960510" lon="-3.0748520">
        <ele>480.8</ele>
        <time>2022-11-01T10:03:59Z</time>
      </trkpt>
      <trkpt lat="36.7960060" lon="-3.0749270">
        <ele>480.4</ele>
        <time>2022-11-01T10:04:00Z</time>
      </trkpt>
      <trkpt lat="36.7959570" lon="-3.0749770">
        <ele>480.2</ele>
        <time>2022-11-01T10:04:01Z</time>
      </trkpt>
      <trkpt lat="36.7958980" lon="-3.0749970">
        <ele>479.8</ele>
        <time>2022-11-01T10:04:02Z</time>
      </trkpt>
      <trkpt lat="36.7958380" lon="-3.0749840">
        <ele>479.6</ele>
        <time>2022-11-01T10:04:03Z</time>
      </trkpt>
      <trkpt lat="36.7957940" lon="-3.0749380">
        <ele>479.2</ele>
        <time>2022-11-01T10:04:04Z</time>
      </trkpt>
      <trkpt lat="36.7957780" lon="-3.0748690">
        <ele>478.8</ele>
        <time>2022-11-01T10:04:05Z</time>
      </trkpt>
      <trkpt lat="36.7957920" lon="-3.0747890">
        <ele>478.2</ele>
        <time>2022-11-01T10:04:06Z</time>
      </trkpt>
      <trkpt lat="36.7958300" lon="-3.0747090">
        <ele>477.6</ele>
        <time>2022-11-01T10:04:07Z</time>
      </trkpt>
      <trkpt lat="36.7958760" lon="-3.0746250">
        <ele>476.8</ele>
        <time>2022-11-01T10:04:08Z</time>
      </trkpt>
      <trkpt lat="36.7959220" lon="-3.0745310">
        <ele>476.0</ele>
        <time>2022-11-01T10:04:09Z</time>
      </trkpt>
      <trkpt lat="36.7959680" lon="-3.0744280">
        <ele>475.2</ele>
        <time>2022-11-01T10:04:10Z</time>
      </trkpt>
      <trkpt lat="36.7960180" lon="-3.0743170">
        <ele>474.2</ele>
        <time>2022-11-01T10:04:11Z</time>
      </trkpt>
      <trkpt lat="36.7960690" lon="-3.0741960">
        <ele>473.2</ele>
        <time>2022-11-01T10:04:12Z</time>
      </trkpt>
      <trkpt lat="36.7961190" lon="-3.0740700">
        <ele>472.0</ele>
        <time>2022-11-01T10:04:13Z</time>
      </trkpt>
      <trkpt lat="36.7961760" lon="-3.0739510">
        <ele>471.0</ele>
        <time>2022-11-01T10:04:14Z</time>
      </trkpt>
      <trkpt lat="36.7962360" lon="-3.0738470">
        <ele>470.0</ele>
        <time>2022-11-01T10:04:15Z</time>
      </trkpt>
      <trkpt lat="36.7963000" lon="-3.0737580">
        <ele>469.2</ele>
        <time>2022-11-01T10:04:16Z</time>
      </trkpt>
      <trkpt lat="36.7963580" lon="-3.0736770">
        <ele>468.0</ele>
        <time>2022-11-01T10:04:17Z</time>
      </trkpt>
      <trkpt lat="36.7963980" lon="-3.0735990">
        <ele>467.2</ele>
        <time>2022-11-01T10:04:18Z</time>
      </trkpt>
      <trkpt lat="36.7964110" lon="-3.0735180">
        <ele>466.2</ele>
        <time>2022-11-01T10:04:19Z</time>
      </trkpt>
      <trkpt lat="36.7963930" lon="-3.0734440">
        <ele>465.2</ele>
        <time>2022-11-01T10:04:20Z</time>
      </trkpt>
      <trkpt lat="36.7963460" lon="-3.0733830">
        <ele>464.4</ele>
        <time>2022-11-01T10:04:21Z</time>
      </trkpt>
      <trkpt lat="36.7962760" lon="-3.0733490">
        <ele>463.8</ele>
        <time>2022-11-01T10:04:22Z</time>
      </trkpt>
      <trkpt lat="36.7962000" lon="-3.0733400">
        <ele>463.4</ele>
        <time>2022-11-01T10:04:23Z</time>
      </trkpt>
      <trkpt lat="36.7961260" lon="-3.0733280">
        <ele>463.0</ele>
        <time>2022-11-01T10:04:24Z</time>
      </trkpt>
      <trkpt lat="36.7960570" lon="-3.0733040">
        <ele>463.0</ele>
        <time>2022-11-01T10:04:25Z</time>
      </trkpt>
      <trkpt lat="36.7959970" lon="-3.0732630">
        <ele>462.8</ele>
        <time>2022-11-01T10:04:26Z</time>
      </trkpt>
      <trkpt lat="36.7959490" lon="-3.0732020">
        <ele>462.6</ele>
        <time>2022-11-01T10:04:27Z</time>
      </trkpt>
      <trkpt lat="36.7959130" lon="-3.0731260">
        <ele>462.4</ele>
        <time>2022-11-01T10:04:28Z</time>
      </trkpt>
      <trkpt lat="36.7958850" lon="-3.0730370">
        <ele>462.0</ele>
        <time>2022-11-01T10:04:29Z</time>
      </trkpt>
      <trkpt lat="36.7958540" lon="-3.0729380">
        <ele>461.2</ele>
        <time>2022-11-01T10:04:30Z</time>
      </trkpt>
      <trkpt lat="36.7958100" lon="-3.0728350">
        <ele>460.4</ele>
        <time>2022-11-01T10:04:31Z</time>
      </trkpt>
      <trkpt lat="36.7957550" lon="-3.0727330">
        <ele>459.6</ele>
        <time>2022-11-01T10:04:32Z</time>
      </trkpt>
      <trkpt lat="36.7956870" lon="-3.0726330">
        <ele>458.6</ele>
        <time>2022-11-01T10:04:33Z</time>
      </trkpt>
      <trkpt lat="36.7956070" lon="-3.0725420">
        <ele>458.0</ele>
        <time>2022-11-01T10:04:34Z</time>
      </trkpt>
      <trkpt lat="36.7955160" lon="-3.0724610">
        <ele>457.2</ele>
        <time>2022-11-01T10:04:35Z</time>
      </trkpt>
      <trkpt lat="36.7954220" lon="-3.0723880">
        <ele>456.4</ele>
        <time>2022-11-01T10:04:36Z</time>
      </trkpt>
      <trkpt lat="36.7953330" lon="-3.0723160">
        <ele>455.6</ele>
        <time>2022-11-01T10:04:37Z</time>
      </trkpt>
      <trkpt lat="36.7952500" lon="-3.0722410">
        <ele>454.8</ele>
        <time>2022-11-01T10:04:38Z</time>
      </trkpt>
      <trkpt lat="36.7951700" lon="-3.0721640">
        <ele>454.2</ele>
        <time>2022-11-01T10:04:39Z</time>
      </trkpt>
      <trkpt lat="36.7950950" lon="-3.0720830">
        <ele>453.2</ele>
        <time>2022-11-01T10:04:40Z</time>
      </trkpt>
      <trkpt lat="36.7950220" lon="-3.0720000">
        <ele>452.4</ele>
        <time>2022-11-01T10:04:41Z</time>
      </trkpt>
      <trkpt lat="36.7949580" lon="-3.0719220">
        <ele>451.6</ele>
        <time>2022-11-01T10:04:42Z</time>
      </trkpt>
      <trkpt lat="36.7949020" lon="-3.0718500">
        <ele>450.8</ele>
        <time>2022-11-01T10:04:43Z</time>
      </trkpt>
      <trkpt lat="36.7948540" lon="-3.0717850">
        <ele>450.2</ele>
        <time>2022-11-01T10:04:44Z</time>
      </trkpt>
      <trkpt lat="36.7948160" lon="-3.0717200">
        <ele>449.6</ele>
        <time>2022-11-01T10:04:45Z</time>
      </trkpt>
      <trkpt lat="36.7947950" lon="-3.0716560">
        <ele>449.0</ele>
        <time>2022-11-01T10:04:46Z</time>
      </trkpt>
      <trkpt lat="36.7947970" lon="-3.0715780">
        <ele>448.6</ele>
        <time>2022-11-01T10:04:47Z</time>
      </trkpt>
      <trkpt lat="36.7948180" lon="-3.0715070">
        <ele>448.0</ele>
        <time>2022-11-01T10:04:48Z</time>
      </trkpt>
      <trkpt lat="36.7948440" lon="-3.0714420">
        <ele>447.6</ele>
        <time>2022-11-01T10:04:49Z</time>
      </trkpt>
      <trkpt lat="36.7948710" lon="-3.0713810">
        <ele>447.4</ele>
        <time>2022-11-01T10:04:50Z</time>
      </trkpt>
      <trkpt lat="36.7948870" lon="-3.0713100">
        <ele>447.4</ele>
        <time>2022-11-01T10:04:51Z</time>
      </trkpt>
      <trkpt lat="36.7948900" lon="-3.0712400">
        <ele>447.4</ele>
        <time>2022-11-01T10:04:52Z</time>
      </trkpt>
      <trkpt lat="36.7948900" lon="-3.0711790">
        <ele>447.8</ele>
        <time>2022-11-01T10:04:53Z</time>
      </trkpt>
      <trkpt lat="36.7948930" lon="-3.0711260">
        <ele>448.0</ele>
        <time>2022-11-01T10:04:54Z</time>
      </trkpt>
      <trkpt lat="36.7948970" lon="-3.0710840">
        <ele>448.6</ele>
        <time>2022-11-01T10:04:55Z</time>
      </trkpt>
      <trkpt lat="36.7948990" lon="-3.0710460">
        <ele>448.8</ele>
        <time>2022-11-01T10:04:56Z</time>
      </trkpt>
      <trkpt lat="36.7949010" lon="-3.0710120">
        <ele>449.2</ele>
        <time>2022-11-01T10:04:57Z</time>
      </trkpt>
      <trkpt lat="36.7949060" lon="-3.0709810">
        <ele>449.4</ele>
        <time>2022-11-01T10:04:58Z</time>
      </trkpt>
      <trkpt lat="36.7949110" lon="-3.0709480">
        <ele>449.8</ele>
        <time>2022-11-01T10:04:59Z</time>
      </trkpt>
      <trkpt lat="36.7949180" lon="-3.0709150">
        <ele>449.8</ele>
        <time>2022-11-01T10:05:00Z</time>
      </trkpt>
      <trkpt lat="36.7949230" lon="-3.0708750">
        <ele>450.2</ele>
        <time>2022-11-01T10:05:01Z</time>
      </trkpt>
      <trkpt lat="36.7949310" lon="-3.0708310">
        <ele>450.4</ele>
        <time>2022-11-01T10:05:02Z</time>
      </trkpt>
      <trkpt lat="36.7949420" lon="-3.0707870">
        <ele>450.6</ele>
        <time>2022-11-01T10:05:03Z</time>
      </trkpt>
      <trkpt lat="36.7949550" lon="-3.0707500">
        <ele>451.0</ele>
        <time>2022-11-01T10:05:04Z</time>
      </trkpt>
      <trkpt lat="36.7949690" lon="-3.0707160">
        <ele>451.2</ele>
        <time>2022-11-01T10:05:05Z</time>
      </trkpt>
      <trkpt lat="36.7949860" lon="-3.0706880">
        <ele>451.6</ele>
        <time>2022-11-01T10:05:06Z</time>
      </trkpt>
      <trkpt lat="36.7950010" lon="-3.0706600">
        <ele>451.8</ele>
        <time>2022-11-01T10:05:07Z</time>
      </trkpt>
      <trkpt lat="36.7950180" lon="-3.0706340">
        <ele>452.0</ele>
        <time>2022-11-01T10:05:08Z</time>
      </trkpt>
      <trkpt lat="36.7950360" lon="-3.0706080">
        <ele>452.4</ele>
        <time>2022-11-01T10:05:09Z</time>
      </trkpt>
      <trkpt lat="36.7950540" lon="-3.0705800">
        <ele>452.4</ele>
        <time>2022-11-01T10:05:10Z</time>
      </trkpt>
      <trkpt lat="36.7950710" lon="-3.0705540">
        <ele>452.8</ele>
        <time>2022-11-01T10:05:11Z</time>
      </trkpt>
      <trkpt lat="36.7950890" lon="-3.0705270">
        <ele>453.0</ele>
        <time>2022-11-01T10:05:12Z</time>
      </trkpt>
      <trkpt lat="36.7951080" lon="-3.0705010">
        <ele>453.0</ele>
        <time>2022-11-01T10:05:13Z</time>
      </trkpt>
      <trkpt lat="36.7951240" lon="-3.0704740">
        <ele>453.4</ele>
        <time>2022-11-01T10:05:14Z</time>
      </trkpt>
      <trkpt lat="36.7951400" lon="-3.0704450">
        <ele>453.4</ele>
        <time>2022-11-01T10:05:15Z</time>
      </trkpt>
      <trkpt lat="36.7951540" lon="-3.0704170">
        <ele>453.6</ele>
        <time>2022-11-01T10:05:16Z</time>
      </trkpt>
      <trkpt lat="36.7951670" lon="-3.0703880">
        <ele>453.8</ele>
        <time>2022-11-01T10:05:17Z</time>
      </trkpt>
      <trkpt lat="36.7951790" lon="-3.0703580">
        <ele>454.0</ele>
        <time>2022-11-01T10:05:18Z</time>
      </trkpt>
      <trkpt lat="36.7951900" lon="-3.0703280">
        <ele>454.2</ele>
        <time>2022-11-01T10:05:19Z</time>
      </trkpt>
      <trkpt lat="36.7951990" lon="-3.0703000">
        <ele>454.4</ele>
        <time>2022-11-01T10:05:20Z</time>
      </trkpt>
      <trkpt lat="36.7952070" lon="-3.0702720">
        <ele>454.8</ele>
        <time>2022-11-01T10:05:21Z</time>
      </trkpt>
      <trkpt lat="36.7952120" lon="-3.0702470">
        <ele>455.0</ele>
        <time>2022-11-01T10:05:22Z</time>
      </trkpt>
      <trkpt lat="36.7952140" lon="-3.0702250">
        <ele>455.2</ele>
        <time>2022-11-01T10:05:23Z</time>
      </trkpt>
      <trkpt lat="36.7952150" lon="-3.0702060">
        <ele>455.6</ele>
        <time>2022-11-01T10:05:24Z</time>
      </trkpt>
      <trkpt lat="36.7952190" lon="-3.0701890">
        <ele>455.8</ele>
        <time>2022-11-01T10:05:25Z</time>
      </trkpt>
      <trkpt lat="36.7952170" lon="-3.0701700">
        <ele>456.0</ele>
        <time>2022-11-01T10:05:26Z</time>
      </trkpt>
      <trkpt lat="36.7952060" lon="-3.0701530">
        <ele>456.2</ele>
        <time>2022-11-01T10:05:27Z</time>
      </trkpt>
      <trkpt lat="36.7951900" lon="-3.0701370">
        <ele>456.4</ele>
        <time>2022-11-01T10:05:28Z</time>
      </trkpt>
      <trkpt lat="36.7951690" lon="-3.0701180">
        <ele>456.4</ele>
        <time>2022-11-01T10:05:29Z</time>
      </trkpt>
      <trkpt lat="36.7951430" lon="-3.0701000">
        <ele>456.4</ele>
        <time>2022-11-01T10:05:30Z</time>
      </trkpt>
      <trkpt lat="36.7951150" lon="-3.0700930">
        <ele>456.4</ele>
        <time>2022-11-01T10:05:31Z</time>
      </trkpt>
      <trkpt lat="36.7950880" lon="-3.0701000">
        <ele>456.6</ele>
        <time>2022-11-01T10:05:32Z</time>
      </trkpt>
      <trkpt lat="36.7950620" lon="-3.0701150">
        <ele>456.8</ele>
        <time>2022-11-01T10:05:33Z</time>
      </trkpt>
      <trkpt lat="36.7950360" lon="-3.0701330">
        <ele>456.8</ele>
        <time>2022-11-01T10:05:34Z</time>
      </trkpt>
      <trkpt lat="36.7950180" lon="-3.0701530">
        <ele>456.8</ele>
        <time>2022-11-01T10:05:35Z</time>
      </trkpt>
      <trkpt lat="36.7949980" lon="-3.0701740">
        <ele>456.8</ele>
        <time>2022-11-01T10:05:36Z</time>
      </trkpt>
      <trkpt lat="36.7949810" lon="-3.0701890">
        <ele>457.0</ele>
        <time>2022-11-01T10:05:37Z</time>
      </trkpt>
      <trkpt lat="36.7949620" lon="-3.0702160">
        <ele>457.0</ele>
        <time>2022-11-01T10:05:38Z</time>
      </trkpt>
      <trkpt lat="36.7949510" lon="-3.0702360">
        <ele>457.2</ele>
        <time>2022-11-01T10:05:39Z</time>
      </trkpt>
      <trkpt lat="36.7949390" lon="-3.0702410">
        <ele>457.4</ele>
        <time>2022-11-01T10:05:40Z</time>
      </trkpt>
      <trkpt lat="36.7949280" lon="-3.0702550">
        <ele>457.4</ele>
        <time>2022-11-01T10:05:41Z</time>
      </trkpt>
      <trkpt lat="36.7949190" lon="-3.0702740">
        <ele>457.6</ele>
        <time>2022-11-01T10:05:42Z</time>
      </trkpt>
      <trkpt lat="36.7949060" lon="-3.0702970">
        <ele>457.8</ele>
        <time>2022-11-01T10:05:43Z</time>
      </trkpt>
      <trkpt lat="36.7948910" lon="-3.0703300">
        <ele>458.0</ele>
        <time>2022-11-01T10:05:44Z</time>
      </trkpt>
      <trkpt lat="36.7948750" lon="-3.0703600">
        <ele>458.0</ele>
        <time>2022-11-01T10:05:45Z</time>
      </trkpt>
      <trkpt lat="36.7948600" lon="-3.0703850">
        <ele>458.4</ele>
        <time>2022-11-01T10:05:46Z</time>
      </trkpt>
      <trkpt lat="36.7948460" lon="-3.0704120">
        <ele>458.4</ele>
        <time>2022-11-01T10:05:47Z</time>
      </trkpt>
      <trkpt lat="36.7948300" lon="-3.0704380">
        <ele>458.6</ele>
        <time>2022-11-01T10:05:48Z</time>
      </trkpt>
      <trkpt lat="36.7948120" lon="-3.0704610">
        <ele>458.8</ele>
        <time>2022-11-01T10:05:49Z</time>
      </trkpt>
      <trkpt lat="36.7947960" lon="-3.0704750">
        <ele>459.0</ele>
        <time>2022-11-01T10:05:50Z</time>
      </trkpt>
      <trkpt lat="36.7947750" lon="-3.0704970">
        <ele>459.2</ele>
        <time>2022-11-01T10:05:51Z</time>
      </trkpt>
      <trkpt lat="36.7947550" lon="-3.0705180">
        <ele>459.4</ele>
        <time>2022-11-01T10:05:52Z</time>
      </trkpt>
      <trkpt lat="36.7947310" lon="-3.0705470">
        <ele>459.6</ele>
        <time>2022-11-01T10:05:53Z</time>
      </trkpt>
      <trkpt lat="36.7947060" lon="-3.0705700">
        <ele>459.8</ele>
        <time>2022-11-01T10:05:54Z</time>
      </trkpt>
      <trkpt lat="36.7946780" lon="-3.0705960">
        <ele>460.0</ele>
        <time>2022-11-01T10:05:55Z</time>
      </trkpt>
      <trkpt lat="36.7946560" lon="-3.0706170">
        <ele>460.0</ele>
        <time>2022-11-01T10:05:56Z</time>
      </trkpt>
      <trkpt lat="36.7946280" lon="-3.0706510">
        <ele>460.2</ele>
        <time>2022-11-01T10:05:57Z</time>
      </trkpt>
      <trkpt lat="36.7946050" lon="-3.0706730">
        <ele>460.6</ele>
        <time>2022-11-01T10:05:58Z</time>
      </trkpt>
      <trkpt lat="36.7945840" lon="-3.0706900">
        <ele>460.6</ele>
        <time>2022-11-01T10:05:59Z</time>
      </trkpt>
      <trkpt lat="36.7945640" lon="-3.0707040">
        <ele>461.0</ele>
        <time>2022-11-01T10:06:00Z</time>
      </trkpt>
      <trkpt lat="36.7945450" lon="-3.0707150">
        <ele>461.2</ele>
        <time>2022-11-01T10:06:01Z</time>
      </trkpt>
      <trkpt lat="36.7945270" lon="-3.0707270">
        <ele>461.4</ele>
        <time>2022-11-01T10:06:02Z</time>
      </trkpt>
      <trkpt lat="36.7945090" lon="-3.0707360">
        <ele>461.6</ele>
        <time>2022-11-01T10:06:03Z</time>
      </trkpt>
      <trkpt lat="36.7944890" lon="-3.0707470">
        <ele>461.8</ele>
        <time>2022-11-01T10:06:04Z</time>
      </trkpt>
      <trkpt lat="36.7944710" lon="-3.0707630">
        <ele>462.0</ele>
        <time>2022-11-01T10:06:05Z</time>
      </trkpt>
      <trkpt lat="36.7944540" lon="-3.0707790">
        <ele>462.2</ele>
        <time>2022-11-01T10:06:06Z</time>
      </trkpt>
      <trkpt lat="36.7944370" lon="-3.0707940">
        <ele>462.4</ele>
        <time>2022-11-01T10:06:07Z</time>
      </trkpt>
      <trkpt lat="36.7944170" lon="-3.0708090">
        <ele>462.6</ele>
        <time>2022-11-01T10:06:08Z</time>
      </trkpt>
      <trkpt lat="36.7944010" lon="-3.0708220">
        <ele>462.8</ele>
        <time>2022-11-01T10:06:09Z</time>
      </trkpt>
      <trkpt lat="36.7943860" lon="-3.0708380">
        <ele>463.0</ele>
        <time>2022-11-01T10:06:10Z</time>
      </trkpt>
      <trkpt lat="36.7943760" lon="-3.0708590">
        <ele>463.2</ele>
        <time>2022-11-01T10:06:11Z</time>
      </trkpt>
      <trkpt lat="36.7943650" lon="-3.0708760">
        <ele>463.4</ele>
        <time>2022-11-01T10:06:12Z</time>
      </trkpt>
      <trkpt lat="36.7943480" lon="-3.0708930">
        <ele>463.6</ele>
        <time>2022-11-01T10:06:13Z</time>
      </trkpt>
      <trkpt lat="36.7943300" lon="-3.0709110">
        <ele>463.8</ele>
        <time>2022-11-01T10:06:14Z</time>
      </trkpt>
      <trkpt lat="36.7943130" lon="-3.0709260">
        <ele>464.0</ele>
        <time>2022-11-01T10:06:15Z</time>
      </trkpt>
      <trkpt lat="36.7942980" lon="-3.0709460">
        <ele>464.2</ele>
        <time>2022-11-01T10:06:16Z</time>
      </trkpt>
      <trkpt lat="36.7942850" lon="-3.0709650">
        <ele>464.4</ele>
        <time>2022-11-01T10:06:17Z</time>
      </trkpt>
      <trkpt lat="36.7942740" lon="-3.0709830">
        <ele>464.6</ele>
        <time>2022-11-01T10:06:18Z</time>
      </trkpt>
      <trkpt lat="36.7942610" lon="-3.0709990">
        <ele>465.0</ele>
        <time>2022-11-01T10:06:19Z</time>
      </trkpt>
      <trkpt lat="36.7942470" lon="-3.0710180">
        <ele>465.2</ele>
        <time>2022-11-01T10:06:20Z</time>
      </trkpt>
      <trkpt lat="36.7942340" lon="-3.0710370">
        <ele>465.4</ele>
        <time>2022-11-01T10:06:21Z</time>
      </trkpt>
      <trkpt lat="36.7942210" lon="-3.0710540">
        <ele>465.6</ele>
        <time>2022-11-01T10:06:22Z</time>
      </trkpt>
      <trkpt lat="36.7942080" lon="-3.0710680">
        <ele>465.8</ele>
        <time>2022-11-01T10:06:23Z</time>
      </trkpt>
      <trkpt lat="36.7941940" lon="-3.0710790">
        <ele>466.0</ele>
        <time>2022-11-01T10:06:24Z</time>
      </trkpt>
      <trkpt lat="36.7941770" lon="-3.0710920">
        <ele>466.2</ele>
        <time>2022-11-01T10:06:25Z</time>
      </trkpt>
      <trkpt lat="36.7941620" lon="-3.0711070">
        <ele>466.4</ele>
        <time>2022-11-01T10:06:26Z</time>
      </trkpt>
      <trkpt lat="36.7941470" lon="-3.0711210">
        <ele>466.8</ele>
        <time>2022-11-01T10:06:27Z</time>
      </trkpt>
      <trkpt lat="36.7941300" lon="-3.0711350">
        <ele>467.0</ele>
        <time>2022-11-01T10:06:28Z</time>
      </trkpt>
      <trkpt lat="36.7941170" lon="-3.0711460">
        <ele>467.2</ele>
        <time>2022-11-01T10:06:29Z</time>
      </trkpt>
      <trkpt lat="36.7941040" lon="-3.0711590">
        <ele>467.4</ele>
        <time>2022-11-01T10:06:30Z</time>
      </trkpt>
      <trkpt lat="36.7940930" lon="-3.0711740">
        <ele>467.6</ele>
        <time>2022-11-01T10:06:31Z</time>
      </trkpt>
      <trkpt lat="36.7940790" lon="-3.0711850">
        <ele>468.0</ele>
        <time>2022-11-01T10:06:32Z</time>
      </trkpt>
      <trkpt lat="36.7940660" lon="-3.0711890">
        <ele>468.2</ele>
        <time>2022-11-01T10:06:33Z</time>
      </trkpt>
      <trkpt lat="36.7940490" lon="-3.0711950">
        <ele>468.4</ele>
        <time>2022-11-01T10:06:34Z</time>
      </trkpt>
      <trkpt lat="36.7940330" lon="-3.0711980">
        <ele>468.8</ele>
        <time>2022-11-01T10:06:35Z</time>
      </trkpt>
      <trkpt lat="36.7940180" lon="-3.0712060">
        <ele>468.8</ele>
        <time>2022-11-01T10:06:36Z</time>
      </trkpt>
      <trkpt lat="36.7940000" lon="-3.0712160">
        <ele>469.2</ele>
        <time>2022-11-01T10:06:37Z</time>
      </trkpt>
      <trkpt lat="36.7939830" lon="-3.0712270">
        <ele>469.4</ele>
        <time>2022-11-01T10:06:38Z</time>
      </trkpt>
      <trkpt lat="36.7939670" lon="-3.0712410">
        <ele>469.6</ele>
        <time>2022-11-01T10:06:39Z</time>
      </trkpt>
      <trkpt lat="36.7939510" lon="-3.0712560">
        <ele>469.8</ele>
        <time>2022-11-01T10:06:40Z</time>
      </trkpt>
      <trkpt lat="36.7939360" lon="-3.0712670">
        <ele>470.0</ele>
        <time>2022-11-01T10:06:41Z</time>
      </trkpt>
      <trkpt lat="36.7939200" lon="-3.0712770">
        <ele>470.2</ele>
        <time>2022-11-01T10:06:42Z</time>
      </trkpt>
      <trkpt lat="36.7939050" lon="-3.0712790">
        <ele>470.4</ele>
        <time>2022-11-01T10:06:43Z</time>
      </trkpt>
      <trkpt lat="36.7938890" lon="-3.0712850">
        <ele>470.6</ele>
        <time>2022-11-01T10:06:44Z</time>
      </trkpt>
      <trkpt lat="36.7938720" lon="-3.0712950">
        <ele>471.0</ele>
        <time>2022-11-01T10:06:45Z</time>
      </trkpt>
      <trkpt lat="36.7938550" lon="-3.0713070">
        <ele>471.2</ele>
        <time>2022-11-01T10:06:46Z</time>
      </trkpt>
      <trkpt lat="36.7938400" lon="-3.0713150">
        <ele>471.2</ele>
        <time>2022-11-01T10:06:47Z</time>
      </trkpt>
      <trkpt lat="36.7938210" lon="-3.0713250">
        <ele>471.6</ele>
        <time>2022-11-01T10:06:48Z</time>
      </trkpt>
      <trkpt lat="36.7938030" lon="-3.0713340">
        <ele>471.8</ele>
        <time>2022-11-01T10:06:49Z</time>
      </trkpt>
      <trkpt lat="36.7937850" lon="-3.0713450">
        <ele>472.0</ele>
        <time>2022-11-01T10:06:50Z</time>
      </trkpt>
      <trkpt lat="36.7937680" lon="-3.0713550">
        <ele>472.2</ele>
        <time>2022-11-01T10:06:51Z</time>
      </trkpt>
      <trkpt lat="36.7937510" lon="-3.0713650">
        <ele>472.4</ele>
        <time>2022-11-01T10:06:52Z</time>
      </trkpt>
      <trkpt lat="36.7937350" lon="-3.0713710">
        <ele>472.6</ele>
        <time>2022-11-01T10:06:53Z</time>
      </trkpt>
      <trkpt lat="36.7937230" lon="-3.0713720">
        <ele>473.0</ele>
        <time>2022-11-01T10:06:54Z</time>
      </trkpt>
      <trkpt lat="36.7937080" lon="-3.0713720">
        <ele>473.2</ele>
        <time>2022-11-01T10:06:55Z</time>
      </trkpt>
      <trkpt lat="36.7936890" lon="-3.0713700">
        <ele>473.2</ele>
        <time>2022-11-01T10:06:56Z</time>
      </trkpt>
      <trkpt lat="36.7936710" lon="-3.0713720">
        <ele>473.6</ele>
        <time>2022-11-01T10:06:57Z</time>
      </trkpt>
      <trkpt lat="36.7936550" lon="-3.0713770">
        <ele>473.8</ele>
        <time>2022-11-01T10:06:58Z</time>
      </trkpt>
      <trkpt lat="36.7936390" lon="-3.0713780">
        <ele>474.0</ele>
        <time>2022-11-01T10:06:59Z</time>
      </trkpt>
      <trkpt lat="36.7936260" lon="-3.0713760">
        <ele>474.2</ele>
        <time>2022-11-01T10:07:00Z</time>
      </trkpt>
      <trkpt lat="36.7936090" lon="-3.0713730">
        <ele>474.4</ele>
        <time>2022-11-01T10:07:01Z</time>
      </trkpt>
      <trkpt lat="36.7935940" lon="-3.0713710">
        <ele>474.6</ele>
        <time>2022-11-01T10:07:02Z</time>
      </trkpt>
      <trkpt lat="36.7935780" lon="-3.0713750">
        <ele>474.8</ele>
        <time>2022-11-01T10:07:03Z</time>
      </trkpt>
      <trkpt lat="36.7935640" lon="-3.0713830">
        <ele>475.2</ele>
        <time>2022-11-01T10:07:04Z</time>
      </trkpt>
      <trkpt lat="36.7935490" lon="-3.0713860">
        <ele>475.2</ele>
        <time>2022-11-01T10:07:05Z</time>
      </trkpt>
      <trkpt lat="36.7935340" lon="-3.0713860">
        <ele>475.4</ele>
        <time>2022-11-01T10:07:06Z</time>
      </trkpt>
      <trkpt lat="36.7935200" lon="-3.0713830">
        <ele>475.6</ele>
        <time>2022-11-01T10:07:07Z</time>
      </trkpt>
      <trkpt lat="36.7935060" lon="-3.0713790">
        <ele>475.8</ele>
        <time>2022-11-01T10:07:08Z</time>
      </trkpt>
      <trkpt lat="36.7934900" lon="-3.0713770">
        <ele>476.0</ele>
        <time>2022-11-01T10:07:09Z</time>
      </trkpt>
      <trkpt lat="36.7934730" lon="-3.0713830">
        <ele>476.2</ele>
        <time>2022-11-01T10:07:10Z</time>
      </trkpt>
      <trkpt lat="36.7934560" lon="-3.0713910">
        <ele>476.4</ele>
        <time>2022-11-01T10:07:11Z</time>
      </trkpt>
      <trkpt lat="36.7934410" lon="-3.0714040">
        <ele>476.6</ele>
        <time>2022-11-01T10:07:12Z</time>
      </trkpt>
      <trkpt lat="36.7934260" lon="-3.0714150">
        <ele>476.6</ele>
        <time>2022-11-01T10:07:13Z</time>
      </trkpt>
      <trkpt lat="36.7934110" lon="-3.0714320">
        <ele>476.8</ele>
        <time>2022-11-01T10:07:14Z</time>
      </trkpt>
      <trkpt lat="36.7934020" lon="-3.0714470">
        <ele>476.8</ele>
        <time>2022-11-01T10:07:15Z</time>
      </trkpt>
      <trkpt lat="36.7934020" lon="-3.0714700">
        <ele>477.0</ele>
        <time>2022-11-01T10:07:16Z</time>
      </trkpt>
      <trkpt lat="36.7934100" lon="-3.0715010">
        <ele>477.0</ele>
        <time>2022-11-01T10:07:17Z</time>
      </trkpt>
      <trkpt lat="36.7934220" lon="-3.0715310">
        <ele>477.0</ele>
        <time>2022-11-01T10:07:18Z</time>
      </trkpt>
      <trkpt lat="36.7934350" lon="-3.0715570">
        <ele>477.2</ele>
        <time>2022-11-01T10:07:19Z</time>
      </trkpt>
      <trkpt lat="36.7934480" lon="-3.0715820">
        <ele>477.4</ele>
        <time>2022-11-01T10:07:20Z</time>
      </trkpt>
      <trkpt lat="36.7934600" lon="-3.0716050">
        <ele>477.6</ele>
        <time>2022-11-01T10:07:21Z</time>
      </trkpt>
      <trkpt lat="36.7934690" lon="-3.0716220">
        <ele>477.6</ele>
        <time>2022-11-01T10:07:22Z</time>
      </trkpt>
      <trkpt lat="36.7934830" lon="-3.0716370">
        <ele>477.8</ele>
        <time>2022-11-01T10:07:23Z</time>
      </trkpt>
      <trkpt lat="36.7934980" lon="-3.0716510">
        <ele>478.0</ele>
        <time>2022-11-01T10:07:24Z</time>
      </trkpt>
      <trkpt lat="36.7935120" lon="-3.0716640">
        <ele>478.4</ele>
        <time>2022-11-01T10:07:25Z</time>
      </trkpt>
      <trkpt lat="36.7935300" lon="-3.0716830">
        <ele>478.6</ele>
        <time>2022-11-01T10:07:26Z</time>
      </trkpt>
      <trkpt lat="36.7935440" lon="-3.0717010">
        <ele>479.0</ele>
        <time>2022-11-01T10:07:27Z</time>
      </trkpt>
      <trkpt lat="36.7935540" lon="-3.0717180">
        <ele>479.2</ele>
        <time>2022-11-01T10:07:28Z</time>
      </trkpt>
      <trkpt lat="36.7935670" lon="-3.0717370">
        <ele>479.4</ele>
        <time>2022-11-01T10:07:29Z</time>
      </trkpt>
      <trkpt lat="36.7935840" lon="-3.0717560">
        <ele>479.6</ele>
        <time>2022-11-01T10:07:30Z</time>
      </trkpt>
      <trkpt lat="36.7936030" lon="-3.0717730">
        <ele>480.0</ele>
        <time>2022-11-01T10:07:31Z</time>
      </trkpt>
      <trkpt lat="36.7936240" lon="-3.0717860">
        <ele>480.2</ele>
        <time>2022-11-01T10:07:32Z</time>
      </trkpt>
      <trkpt lat="36.7936450" lon="-3.0717980">
        <ele>480.4</ele>
        <time>2022-11-01T10:07:33Z</time>
      </trkpt>
      <trkpt lat="36.7936670" lon="-3.0718150">
        <ele>480.8</ele>
        <time>2022-11-01T10:07:34Z</time>
      </trkpt>
      <trkpt lat="36.7936880" lon="-3.0718320">
        <ele>481.2</ele>
        <time>2022-11-01T10:07:35Z</time>
      </trkpt>
      <trkpt lat="36.7937070" lon="-3.0718480">
        <ele>481.4</ele>
        <time>2022-11-01T10:07:36Z</time>
      </trkpt>
      <trkpt lat="36.7937230" lon="-3.0718670">
        <ele>481.8</ele>
        <time>2022-11-01T10:07:37Z</time>
      </trkpt>
      <trkpt lat="36.7937390" lon="-3.0718870">
        <ele>482.0</ele>
        <time>2022-11-01T10:07:38Z</time>
      </trkpt>
      <trkpt lat="36.7937540" lon="-3.0719070">
        <ele>482.2</ele>
        <time>2022-11-01T10:07:39Z</time>
      </trkpt>
      <trkpt lat="36.7937700" lon="-3.0719230">
        <ele>482.4</ele>
        <time>2022-11-01T10:07:40Z</time>
      </trkpt>
      <trkpt lat="36.7937850" lon="-3.0719390">
        <ele>482.6</ele>
        <time>2022-11-01T10:07:41Z</time>
      </trkpt>
      <trkpt lat="36.7937950" lon="-3.0719600">
        <ele>482.8</ele>
        <time>2022-11-01T10:07:42Z</time>
      </trkpt>
      <trkpt lat="36.7938030" lon="-3.0719840">
        <ele>482.8</ele>
        <time>2022-11-01T10:07:43Z</time>
      </trkpt>
      <trkpt lat="36.7938100" lon="-3.0720100">
        <ele>483.0</ele>
        <time>2022-11-01T10:07:44Z</time>
      </trkpt>
      <trkpt lat="36.7938200" lon="-3.0720350">
        <ele>483.2</ele>
        <time>2022-11-01T10:07:45Z</time>
      </trkpt>
      <trkpt lat="36.7938290" lon="-3.0720600">
        <ele>483.4</ele>
        <time>2022-11-01T10:07:46Z</time>
      </trkpt>
      <trkpt lat="36.7938370" lon="-3.0720850">
        <ele>483.4</ele>
        <time>2022-11-01T10:07:47Z</time>
      </trkpt>
      <trkpt lat="36.7938440" lon="-3.0721100">
        <ele>483.6</ele>
        <time>2022-11-01T10:07:48Z</time>
      </trkpt>
      <trkpt lat="36.7938500" lon="-3.0721350">
        <ele>483.8</ele>
        <time>2022-11-01T10:07:49Z</time>
      </trkpt>
      <trkpt lat="36.7938540" lon="-3.0721600">
        <ele>483.8</ele>
        <time>2022-11-01T10:07:50Z</time>
      </trkpt>
      <trkpt lat="36.7938610" lon="-3.0721860">
        <ele>484.0</ele>
        <time>2022-11-01T10:07:51Z</time>
      </trkpt>
      <trkpt lat="36.7938650" lon="-3.0722140">
        <ele>484.2</ele>
        <time>2022-11-01T10:07:52Z</time>
      </trkpt>
      <trkpt lat="36.7938690" lon="-3.0722410">
        <ele>484.4</ele>
        <time>2022-11-01T10:07:53Z</time>
      </trkpt>
      <trkpt lat="36.7938730" lon="-3.0722650">
        <ele>484.6</ele>
        <time>2022-11-01T10:07:54Z</time>
      </trkpt>
      <trkpt lat="36.7938770" lon="-3.0722870">
        <ele>484.8</ele>
        <time>2022-11-01T10:07:55Z</time>
      </trkpt>
      <trkpt lat="36.7938800" lon="-3.0723120">
        <ele>485.0</ele>
        <time>2022-11-01T10:07:56Z</time>
      </trkpt>
      <trkpt lat="36.7938830" lon="-3.0723370">
        <ele>485.2</ele>
        <time>2022-11-01T10:07:57Z</time>
      </trkpt>
      <trkpt lat="36.7938880" lon="-3.0723600">
        <ele>485.4</ele>
        <time>2022-11-01T10:07:58Z</time>
      </trkpt>
      <trkpt lat="36.7938910" lon="-3.0723860">
        <ele>485.8</ele>
        <time>2022-11-01T10:07:59Z</time>
      </trkpt>
      <trkpt lat="36.7938910" lon="-3.0724120">
        <ele>486.0</ele>
        <time>2022-11-01T10:08:00Z</time>
      </trkpt>
      <trkpt lat="36.7938900" lon="-3.0724380">
        <ele>486.2</ele>
        <time>2022-11-01T10:08:01Z</time>
      </trkpt>
      <trkpt lat="36.7938880" lon="-3.0724630">
        <ele>486.4</ele>
        <time>2022-11-01T10:08:02Z</time>
      </trkpt>
      <trkpt lat="36.7938860" lon="-3.0724910">
        <ele>486.6</ele>
        <time>2022-11-01T10:08:03Z</time>
      </trkpt>
      <trkpt lat="36.7938860" lon="-3.0725150">
        <ele>486.8</ele>
        <time>2022-11-01T10:08:04Z</time>
      </trkpt>
      <trkpt lat="36.7938810" lon="-3.0725400">
        <ele>487.2</ele>
        <time>2022-11-01T10:08:05Z</time>
      </trkpt>
      <trkpt lat="36.7938760" lon="-3.0725660">
        <ele>487.2</ele>
        <time>2022-11-01T10:08:06Z</time>
      </trkpt>
      <trkpt lat="36.7938720" lon="-3.0725900">
        <ele>487.4</ele>
        <time>2022-11-01T10:08:07Z</time>
      </trkpt>
      <trkpt lat="36.7938660" lon="-3.0726160">
        <ele>487.8</ele>
        <time>2022-11-01T10:08:08Z</time>
      </trkpt>
      <trkpt lat="36.7938570" lon="-3.0726410">
        <ele>488.0</ele>
        <time>2022-11-01T10:08:09Z</time>
      </trkpt>
      <trkpt lat="36.7938460" lon="-3.0726600">
        <ele>488.0</ele>
        <time>2022-11-01T10:08:10Z</time>
      </trkpt>
      <trkpt lat="36.7938320" lon="-3.0726800">
        <ele>488.2</ele>
        <time>2022-11-01T10:08:11Z</time>
      </trkpt>
      <trkpt lat="36.7938150" lon="-3.0726990">
        <ele>488.6</ele>
        <time>2022-11-01T10:08:12Z</time>
      </trkpt>
      <trkpt lat="36.7937990" lon="-3.0727190">
        <ele>488.6</ele>
        <time>2022-11-01T10:08:13Z</time>
      </trkpt>
      <trkpt lat="36.7937830" lon="-3.0727380">
        <ele>488.8</ele>
        <time>2022-11-01T10:08:14Z</time>
      </trkpt>
      <trkpt lat="36.7937650" lon="-3.0727540">
        <ele>489.0</ele>
        <time>2022-11-01T10:08:15Z</time>
      </trkpt>
      <trkpt lat="36.7937450" lon="-3.0727670">
        <ele>489.2</ele>
        <time>2022-11-01T10:08:16Z</time>
      </trkpt>
      <trkpt lat="36.7937240" lon="-3.0727810">
        <ele>489.2</ele>
        <time>2022-11-01T10:08:17Z</time>
      </trkpt>
      <trkpt lat="36.7937050" lon="-3.0727960">
        <ele>489.2</ele>
        <time>2022-11-01T10:08:18Z</time>
      </trkpt>
      <trkpt lat="36.7936850" lon="-3.0728140">
        <ele>489.4</ele>
        <time>2022-11-01T10:08:19Z</time>
      </trkpt>
      <trkpt lat="36.7936640" lon="-3.0728290">
        <ele>489.6</ele>
        <time>2022-11-01T10:08:20Z</time>
      </trkpt>
      <trkpt lat="36.7936430" lon="-3.0728410">
        <ele>489.8</ele>
        <time>2022-11-01T10:08:21Z</time>
      </trkpt>
      <trkpt lat="36.7936210" lon="-3.0728520">
        <ele>489.8</ele>
        <time>2022-11-01T10:08:22Z</time>
      </trkpt>
      <trkpt lat="36.7936000" lon="-3.0728620">
        <ele>490.0</ele>
        <time>2022-11-01T10:08:23Z</time>
      </trkpt>
      <trkpt lat="36.7935790" lon="-3.0728740">
        <ele>490.2</ele>
        <time>2022-11-01T10:08:24Z</time>
      </trkpt>
      <trkpt lat="36.7935590" lon="-3.0728870">
        <ele>490.4</ele>
        <time>2022-11-01T10:08:25Z</time>
      </trkpt>
      <trkpt lat="36.7935390" lon="-3.0728960">
        <ele>490.4</ele>
        <time>2022-11-01T10:08:26Z</time>
      </trkpt>
      <trkpt lat="36.7935180" lon="-3.0729060">
        <ele>490.6</ele>
        <time>2022-11-01T10:08:27Z</time>
      </trkpt>
      <trkpt lat="36.7934980" lon="-3.0729180">
        <ele>490.8</ele>
        <time>2022-11-01T10:08:28Z</time>
      </trkpt>
      <trkpt lat="36.7934780" lon="-3.0729280">
        <ele>491.0</ele>
        <time>2022-11-01T10:08:29Z</time>
      </trkpt>
      <trkpt lat="36.7934570" lon="-3.0729370">
        <ele>491.2</ele>
        <time>2022-11-01T10:08:30Z</time>
      </trkpt>
      <trkpt lat="36.7934350" lon="-3.0729460">
        <ele>491.2</ele>
        <time>2022-11-01T10:08:31Z</time>
      </trkpt>
      <trkpt lat="36.7934120" lon="-3.0729510">
        <ele>491.4</ele>
        <time>2022-11-01T10:08:32Z</time>
      </trkpt>
      <trkpt lat="36.7933890" lon="-3.0729550">
        <ele>491.8</ele>
        <time>2022-11-01T10:08:33Z</time>
      </trkpt>
      <trkpt lat="36.7933670" lon="-3.0729640">
        <ele>491.8</ele>
        <time>2022-11-01T10:08:34Z</time>
      </trkpt>
      <trkpt lat="36.7933440" lon="-3.0729690">
        <ele>492.0</ele>
        <time>2022-11-01T10:08:35Z</time>
      </trkpt>
      <trkpt lat="36.7933200" lon="-3.0729710">
        <ele>492.2</ele>
        <time>2022-11-01T10:08:36Z</time>
      </trkpt>
      <trkpt lat="36.7932970" lon="-3.0729750">
        <ele>492.4</ele>
        <time>2022-11-01T10:08:37Z</time>
      </trkpt>
      <trkpt lat="36.7932750" lon="-3.0729830">
        <ele>492.6</ele>
        <time>2022-11-01T10:08:38Z</time>
      </trkpt>
      <trkpt lat="36.7932540" lon="-3.0729890">
        <ele>492.8</ele>
        <time>2022-11-01T10:08:39Z</time>
      </trkpt>
      <trkpt lat="36.7932330" lon="-3.0729980">
        <ele>493.0</ele>
        <time>2022-11-01T10:08:40Z</time>
      </trkpt>
      <trkpt lat="36.7932110" lon="-3.0730050">
        <ele>493.2</ele>
        <time>2022-11-01T10:08:41Z</time>
      </trkpt>
      <trkpt lat="36.7931890" lon="-3.0730130">
        <ele>493.4</ele>
        <time>2022-11-01T10:08:42Z</time>
      </trkpt>
      <trkpt lat="36.7931670" lon="-3.0730160">
        <ele>493.6</ele>
        <time>2022-11-01T10:08:43Z</time>
      </trkpt>
      <trkpt lat="36.7931440" lon="-3.0730210">
        <ele>493.8</ele>
        <time>2022-11-01T10:08:44Z</time>
      </trkpt>
      <trkpt lat="36.7931220" lon="-3.0730280">
        <ele>493.8</ele>
        <time>2022-11-01T10:08:45Z</time>
      </trkpt>
      <trkpt lat="36.7931010" lon="-3.0730390">
        <ele>494.0</ele>
        <time>2022-11-01T10:08:46Z</time>
      </trkpt>
      <trkpt lat="36.7930800" lon="-3.0730530">
        <ele>494.2</ele>
        <time>2022-11-01T10:08:47Z</time>
      </trkpt>
      <trkpt lat="36.7930600" lon="-3.0730680">
        <ele>494.4</ele>
        <time>2022-11-01T10:08:48Z</time>
      </trkpt>
      <trkpt lat="36.7930420" lon="-3.0730800">
        <ele>494.6</ele>
        <time>2022-11-01T10:08:49Z</time>
      </trkpt>
      <trkpt lat="36.7930240" lon="-3.0730920">
        <ele>494.8</ele>
        <time>2022-11-01T10:08:50Z</time>
      </trkpt>
      <trkpt lat="36.7930050" lon="-3.0731050">
        <ele>495.0</ele>
        <time>2022-11-01T10:08:51Z</time>
      </trkpt>
      <trkpt lat="36.7929870" lon="-3.0731170">
        <ele>495.2</ele>
        <time>2022-11-01T10:08:52Z</time>
      </trkpt>
      <trkpt lat="36.7929740" lon="-3.0731330">
        <ele>495.4</ele>
        <time>2022-11-01T10:08:53Z</time>
      </trkpt>
      <trkpt lat="36.7929590" lon="-3.0731490">
        <ele>495.6</ele>
        <time>2022-11-01T10:08:54Z</time>
      </trkpt>
      <trkpt lat="36.7929430" lon="-3.0731650">
        <ele>495.8</ele>
        <time>2022-11-01T10:08:55Z</time>
      </trkpt>
      <trkpt lat="36.7929290" lon="-3.0731830">
        <ele>496.2</ele>
        <time>2022-11-01T10:08:56Z</time>
      </trkpt>
      <trkpt lat="36.7929140" lon="-3.0732000">
        <ele>496.4</ele>
        <time>2022-11-01T10:08:57Z</time>
      </trkpt>
      <trkpt lat="36.7928980" lon="-3.0732170">
        <ele>496.6</ele>
        <time>2022-11-01T10:08:58Z</time>
      </trkpt>
      <trkpt lat="36.7928830" lon="-3.0732330">
        <ele>497.0</ele>
        <time>2022-11-01T10:08:59Z</time>
      </trkpt>
      <trkpt lat="36.7928680" lon="-3.0732490">
        <ele>497.0</ele>
        <time>2022-11-01T10:09:00Z</time>
      </trkpt>
      <trkpt lat="36.7928540" lon="-3.0732630">
        <ele>497.2</ele>
        <time>2022-11-01T10:09:01Z</time>
      </trkpt>
      <trkpt lat="36.7928400" lon="-3.0732750">
        <ele>497.6</ele>
        <time>2022-11-01T10:09:02Z</time>
      </trkpt>
      <trkpt lat="36.7928230" lon="-3.0732860">
        <ele>497.6</ele>
        <time>2022-11-01T10:09:03Z</time>
      </trkpt>
      <trkpt lat="36.7928060" lon="-3.0732990">
        <ele>497.8</ele>
        <time>2022-11-01T10:09:04Z</time>
      </trkpt>
      <trkpt lat="36.7927920" lon="-3.0733160">
        <ele>498.0</ele>
        <time>2022-11-01T10:09:05Z</time>
      </trkpt>
      <trkpt lat="36.7927810" lon="-3.0733330">
        <ele>498.2</ele>
        <time>2022-11-01T10:09:06Z</time>
      </trkpt>
      <trkpt lat="36.7927690" lon="-3.0733460">
        <ele>498.4</ele>
        <time>2022-11-01T10:09:07Z</time>
      </trkpt>
      <trkpt lat="36.7927530" lon="-3.0733590">
        <ele>498.6</ele>
        <time>2022-11-01T10:09:08Z</time>
      </trkpt>
      <trkpt lat="36.7927380" lon="-3.0733710">
        <ele>498.8</ele>
        <time>2022-11-01T10:09:09Z</time>
      </trkpt>
      <trkpt lat="36.7927240" lon="-3.0733850">
        <ele>499.0</ele>
        <time>2022-11-01T10:09:10Z</time>
      </trkpt>
      <trkpt lat="36.7927090" lon="-3.0733970">
        <ele>499.2</ele>
        <time>2022-11-01T10:09:11Z</time>
      </trkpt>
      <trkpt lat="36.7926930" lon="-3.0734080">
        <ele>499.4</ele>
        <time>2022-11-01T10:09:12Z</time>
      </trkpt>
      <trkpt lat="36.7926740" lon="-3.0734180">
        <ele>499.6</ele>
        <time>2022-11-01T10:09:13Z</time>
      </trkpt>
      <trkpt lat="36.7926540" lon="-3.0734270">
        <ele>499.8</ele>
        <time>2022-11-01T10:09:14Z</time>
      </trkpt>
      <trkpt lat="36.7926350" lon="-3.0734390">
        <ele>500.0</ele>
        <time>2022-11-01T10:09:15Z</time>
      </trkpt>
      <trkpt lat="36.7926160" lon="-3.0734490">
        <ele>500.2</ele>
        <time>2022-11-01T10:09:16Z</time>
      </trkpt>
      <trkpt lat="36.7925980" lon="-3.0734560">
        <ele>500.4</ele>
        <time>2022-11-01T10:09:17Z</time>
      </trkpt>
      <trkpt lat="36.7925780" lon="-3.0734620">
        <ele>500.6</ele>
        <time>2022-11-01T10:09:18Z</time>
      </trkpt>
      <trkpt lat="36.7925590" lon="-3.0734700">
        <ele>500.8</ele>
        <time>2022-11-01T10:09:19Z</time>
      </trkpt>
      <trkpt lat="36.7925420" lon="-3.0734810">
        <ele>501.0</ele>
        <time>2022-11-01T10:09:20Z</time>
      </trkpt>
      <trkpt lat="36.7925240" lon="-3.0734900">
        <ele>501.2</ele>
        <time>2022-11-01T10:09:21Z</time>
      </trkpt>
      <trkpt lat="36.7925040" lon="-3.0734940">
        <ele>501.4</ele>
        <time>2022-11-01T10:09:22Z</time>
      </trkpt>
      <trkpt lat="36.7924830" lon="-3.0734960">
        <ele>501.4</ele>
        <time>2022-11-01T10:09:23Z</time>
      </trkpt>
      <trkpt lat="36.7924610" lon="-3.0735010">
        <ele>501.6</ele>
        <time>2022-11-01T10:09:24Z</time>
      </trkpt>
      <trkpt lat="36.7924410" lon="-3.0735090">
        <ele>501.8</ele>
        <time>2022-11-01T10:09:25Z</time>
      </trkpt>
      <trkpt lat="36.7924200" lon="-3.0735170">
        <ele>502.0</ele>
        <time>2022-11-01T10:09:26Z</time>
      </trkpt>
      <trkpt lat="36.7923990" lon="-3.0735210">
        <ele>502.2</ele>
        <time>2022-11-01T10:09:27Z</time>
      </trkpt>
      <trkpt lat="36.7923780" lon="-3.0735210">
        <ele>502.4</ele>
        <time>2022-11-01T10:09:28Z</time>
      </trkpt>
      <trkpt lat="36.7923560" lon="-3.0735220">
        <ele>502.6</ele>
        <time>2022-11-01T10:09:29Z</time>
      </trkpt>
      <trkpt lat="36.7923360" lon="-3.0735270">
        <ele>502.8</ele>
        <time>2022-11-01T10:09:30Z</time>
      </trkpt>
      <trkpt lat="36.7923140" lon="-3.0735300">
        <ele>502.8</ele>
        <time>2022-11-01T10:09:31Z</time>
      </trkpt>
      <trkpt lat="36.7922930" lon="-3.0735340">
        <ele>503.0</ele>
        <time>2022-11-01T10:09:32Z</time>
      </trkpt>
      <trkpt lat="36.7922710" lon="-3.0735370">
        <ele>503.2</ele>
        <time>2022-11-01T10:09:33Z</time>
      </trkpt>
      <trkpt lat="36.7922490" lon="-3.0735390">
        <ele>503.4</ele>
        <time>2022-11-01T10:09:34Z</time>
      </trkpt>
      <trkpt lat="36.7922270" lon="-3.0735440">
        <ele>503.6</ele>
        <time>2022-11-01T10:09:35Z</time>
      </trkpt>
      <trkpt lat="36.7922030" lon="-3.0735510">
        <ele>503.8</ele>
        <time>2022-11-01T10:09:36Z</time>
      </trkpt>
      <trkpt lat="36.7921810" lon="-3.0735620">
        <ele>503.8</ele>
        <time>2022-11-01T10:09:37Z</time>
      </trkpt>
      <trkpt lat="36.7921610" lon="-3.0735790">
        <ele>504.0</ele>
        <time>2022-11-01T10:09:38Z</time>
      </trkpt>
      <trkpt lat="36.7921420" lon="-3.0735990">
        <ele>504.2</ele>
        <time>2022-11-01T10:09:39Z</time>
      </trkpt>
      <trkpt lat="36.7921260" lon="-3.0736210">
        <ele>504.4</ele>
        <time>2022-11-01T10:09:40Z</time>
      </trkpt>
      <trkpt lat="36.7921150" lon="-3.0736460">
        <ele>504.8</ele>
        <time>2022-11-01T10:09:41Z</time>
      </trkpt>
      <trkpt lat="36.7921080" lon="-3.0736710">
        <ele>505.0</ele>
        <time>2022-11-01T10:09:42Z</time>
      </trkpt>
      <trkpt lat="36.7921010" lon="-3.0736940">
        <ele>505.2</ele>
        <time>2022-11-01T10:09:43Z</time>
      </trkpt>
      <trkpt lat="36.7920950" lon="-3.0737170">
        <ele>505.4</ele>
        <time>2022-11-01T10:09:44Z</time>
      </trkpt>
      <trkpt lat="36.7920890" lon="-3.0737420">
        <ele>505.6</ele>
        <time>2022-11-01T10:09:45Z</time>
      </trkpt>
      <trkpt lat="36.7920850" lon="-3.0737660">
        <ele>505.8</ele>
        <time>2022-11-01T10:09:46Z</time>
      </trkpt>
      <trkpt lat="36.7920780" lon="-3.0737890">
        <ele>506.0</ele>
        <time>2022-11-01T10:09:47Z</time>
      </trkpt>
      <trkpt lat="36.7920690" lon="-3.0738090">
        <ele>506.2</ele>
        <time>2022-11-01T10:09:48Z</time>
      </trkpt>
      <trkpt lat="36.7920570" lon="-3.0738290">
        <ele>506.4</ele>
        <time>2022-11-01T10:09:49Z</time>
      </trkpt>
      <trkpt lat="36.7920440" lon="-3.0738490">
        <ele>506.6</ele>
        <time>2022-11-01T10:09:50Z</time>
      </trkpt>
      <trkpt lat="36.7920320" lon="-3.0738700">
        <ele>506.8</ele>
        <time>2022-11-01T10:09:51Z</time>
      </trkpt>
      <trkpt lat="36.7920200" lon="-3.0738910">
        <ele>507.0</ele>
        <time>2022-11-01T10:09:52Z</time>
      </trkpt>
      <trkpt lat="36.7920080" lon="-3.0739110">
        <ele>507.2</ele>
        <time>2022-11-01T10:09:53Z</time>
      </trkpt>
      <trkpt lat="36.7919940" lon="-3.0739300">
        <ele>507.4</ele>
        <time>2022-11-01T10:09:54Z</time>
      </trkpt>
      <trkpt lat="36.7919790" lon="-3.0739470">
        <ele>507.4</ele>
        <time>2022-11-01T10:09:55Z</time>
      </trkpt>
      <trkpt lat="36.7919610" lon="-3.0739620">
        <ele>507.8</ele>
        <time>2022-11-01T10:09:56Z</time>
      </trkpt>
      <trkpt lat="36.7919430" lon="-3.0739750">
        <ele>508.0</ele>
        <time>2022-11-01T10:09:57Z</time>
      </trkpt>
      <trkpt lat="36.7919240" lon="-3.0739860">
        <ele>508.0</ele>
        <time>2022-11-01T10:09:58Z</time>
      </trkpt>
      <trkpt lat="36.7919040" lon="-3.0739970">
        <ele>508.2</ele>
        <time>2022-11-01T10:09:59Z</time>
      </trkpt>
      <trkpt lat="36.7918820" lon="-3.0740090">
        <ele>508.4</ele>
        <time>2022-11-01T10:10:00Z</time>
      </trkpt>
      <trkpt lat="36.7918640" lon="-3.0740240">
        <ele>508.6</ele>
        <time>2022-11-01T10:10:01Z</time>
      </trkpt>
      <trkpt lat="36.7918470" lon="-3.0740360">
        <ele>508.6</ele>
        <time>2022-11-01T10:10:02Z</time>
      </trkpt>
      <trkpt lat="36.7918280" lon="-3.0740380">
        <ele>509.0</ele>
        <time>2022-11-01T10:10:03Z</time>
      </trkpt>
      <trkpt lat="36.7918080" lon="-3.0740360">
        <ele>509.2</ele>
        <time>2022-11-01T10:10:04Z</time>
      </trkpt>
      <trkpt lat="36.7917880" lon="-3.0740340">
        <ele>509.2</ele>
        <time>2022-11-01T10:10:05Z</time>
      </trkpt>
      <trkpt lat="36.7917670" lon="-3.0740380">
        <ele>509.6</ele>
        <time>2022-11-01T10:10:06Z</time>
      </trkpt>
      <trkpt lat="36.7917470" lon="-3.0740450">
        <ele>509.8</ele>
        <time>2022-11-01T10:10:07Z</time>
      </trkpt>
      <trkpt lat="36.7917270" lon="-3.0740460">
        <ele>510.0</ele>
        <time>2022-11-01T10:10:08Z</time>
      </trkpt>
      <trkpt lat="36.7917070" lon="-3.0740410">
        <ele>510.0</ele>
        <time>2022-11-01T10:10:09Z</time>
      </trkpt>
      <trkpt lat="36.7916850" lon="-3.0740370">
        <ele>510.2</ele>
        <time>2022-11-01T10:10:10Z</time>
      </trkpt>
      <trkpt lat="36.7916620" lon="-3.0740350">
        <ele>510.4</ele>
        <time>2022-11-01T10:10:11Z</time>
      </trkpt>
      <trkpt lat="36.7916410" lon="-3.0740320">
        <ele>510.6</ele>
        <time>2022-11-01T10:10:12Z</time>
      </trkpt>
      <trkpt lat="36.7916190" lon="-3.0740290">
        <ele>510.8</ele>
        <time>2022-11-01T10:10:13Z</time>
      </trkpt>
      <trkpt lat="36.7915980" lon="-3.0740310">
        <ele>510.8</ele>
        <time>2022-11-01T10:10:14Z</time>
      </trkpt>
      <trkpt lat="36.7915770" lon="-3.0740310">
        <ele>511.0</ele>
        <time>2022-11-01T10:10:15Z</time>
      </trkpt>
      <trkpt lat="36.7915550" lon="-3.0740290">
        <ele>511.2</ele>
        <time>2022-11-01T10:10:16Z</time>
      </trkpt>
      <trkpt lat="36.7915330" lon="-3.0740260">
        <ele>511.4</ele>
        <time>2022-11-01T10:10:17Z</time>
      </trkpt>
      <trkpt lat="36.7915100" lon="-3.0740250">
        <ele>511.4</ele>
        <time>2022-11-01T10:10:18Z</time>
      </trkpt>
      <trkpt lat="36.7914880" lon="-3.0740240">
        <ele>511.6</ele>
        <time>2022-11-01T10:10:19Z</time>
      </trkpt>
      <trkpt lat="36.7914650" lon="-3.0740230">
        <ele>511.8</ele>
        <time>2022-11-01T10:10:20Z</time>
      </trkpt>
      <trkpt lat="36.7914430" lon="-3.0740260">
        <ele>512.0</ele>
        <time>2022-11-01T10:10:21Z</time>
      </trkpt>
      <trkpt lat="36.7914210" lon="-3.0740300">
        <ele>512.2</ele>
        <time>2022-11-01T10:10:22Z</time>
      </trkpt>
      <trkpt lat="36.7913980" lon="-3.0740340">
        <ele>512.4</ele>
        <time>2022-11-01T10:10:23Z</time>
      </trkpt>
      <trkpt lat="36.7913760" lon="-3.0740380">
        <ele>512.6</ele>
        <time>2022-11-01T10:10:24Z</time>
      </trkpt>
      <trkpt lat="36.7913530" lon="-3.0740440">
        <ele>512.8</ele>
        <time>2022-11-01T10:10:25Z</time>
      </trkpt>
      <trkpt lat="36.7913330" lon="-3.0740490">
        <ele>513.0</ele>
        <time>2022-11-01T10:10:26Z</time>
      </trkpt>
      <trkpt lat="36.7913120" lon="-3.0740540">
        <ele>513.2</ele>
        <time>2022-11-01T10:10:27Z</time>
      </trkpt>
      <trkpt lat="36.7912900" lon="-3.0740570">
        <ele>513.4</ele>
        <time>2022-11-01T10:10:28Z</time>
      </trkpt>
      <trkpt lat="36.7912680" lon="-3.0740610">
        <ele>513.6</ele>
        <time>2022-11-01T10:10:29Z</time>
      </trkpt>
      <trkpt lat="36.7912450" lon="-3.0740670">
        <ele>513.8</ele>
        <time>2022-11-01T10:10:30Z</time>
      </trkpt>
      <trkpt lat="36.7912230" lon="-3.0740730">
        <ele>514.0</ele>
        <time>2022-11-01T10:10:31Z</time>
      </trkpt>
      <trkpt lat="36.7912000" lon="-3.0740770">
        <ele>514.2</ele>
        <time>2022-11-01T10:10:32Z</time>
      </trkpt>
      <trkpt lat="36.7911770" lon="-3.0740830">
        <ele>514.6</ele>
        <time>2022-11-01T10:10:33Z</time>
      </trkpt>
      <trkpt lat="36.7911540" lon="-3.0740880">
        <ele>514.6</ele>
        <time>2022-11-01T10:10:34Z</time>
      </trkpt>
      <trkpt lat="36.7911300" lon="-3.0740910">
        <ele>514.8</ele>
        <time>2022-11-01T10:10:35Z</time>
      </trkpt>
      <trkpt lat="36.7911060" lon="-3.0740910">
        <ele>515.0</ele>
        <time>2022-11-01T10:10:36Z</time>
      </trkpt>
      <trkpt lat="36.7910800" lon="-3.0740900">
        <ele>515.2</ele>
        <time>2022-11-01T10:10:37Z</time>
      </trkpt>
      <trkpt lat="36.7910540" lon="-3.0740870">
        <ele>515.2</ele>
        <time>2022-11-01T10:10:38Z</time>
      </trkpt>
      <trkpt lat="36.7910260" lon="-3.0740800">
        <ele>515.4</ele>
        <time>2022-11-01T10:10:39Z</time>
      </trkpt>
      <trkpt lat="36.7909980" lon="-3.0740680">
        <ele>515.6</ele>
        <time>2022-11-01T10:10:40Z</time>
      </trkpt>
      <trkpt lat="36.7909700" lon="-3.0740470">
        <ele>515.6</ele>
        <time>2022-11-01T10:10:41Z</time>
      </trkpt>
      <trkpt lat="36.7909430" lon="-3.0740190">
        <ele>515.6</ele>
        <time>2022-11-01T10:10:42Z</time>
      </trkpt>
      <trkpt lat="36.7909190" lon="-3.0739860">
        <ele>515.6</ele>
        <time>2022-11-01T10:10:43Z</time>
      </trkpt>
      <trkpt lat="36.7908970" lon="-3.0739490">
        <ele>515.8</ele>
        <time>2022-11-01T10:10:44Z</time>
      </trkpt>
      <trkpt lat="36.7908780" lon="-3.0739110">
        <ele>515.8</ele>
        <time>2022-11-01T10:10:45Z</time>
      </trkpt>
      <trkpt lat="36.7908600" lon="-3.0738710">
        <ele>515.6</ele>
        <time>2022-11-01T10:10:46Z</time>
      </trkpt>
      <trkpt lat="36.7908430" lon="-3.0738260">
        <ele>515.6</ele>
        <time>2022-11-01T10:10:47Z</time>
      </trkpt>
      <trkpt lat="36.7908240" lon="-3.0737810">
        <ele>515.6</ele>
        <time>2022-11-01T10:10:48Z</time>
      </trkpt>
      <trkpt lat="36.7908020" lon="-3.0737350">
        <ele>515.6</ele>
        <time>2022-11-01T10:10:49Z</time>
      </trkpt>
      <trkpt lat="36.7907790" lon="-3.0736880">
        <ele>515.8</ele>
        <time>2022-11-01T10:10:50Z</time>
      </trkpt>
      <trkpt lat="36.7907560" lon="-3.0736390">
        <ele>515.8</ele>
        <time>2022-11-01T10:10:51Z</time>
      </trkpt>
      <trkpt lat="36.7907320" lon="-3.0735910">
        <ele>515.8</ele>
        <time>2022-11-01T10:10:52Z</time>
      </trkpt>
      <trkpt lat="36.7907050" lon="-3.0735440">
        <ele>515.8</ele>
        <time>2022-11-01T10:10:53Z</time>
      </trkpt>
      <trkpt lat="36.7906760" lon="-3.0735020">
        <ele>516.0</ele>
        <time>2022-11-01T10:10:54Z</time>
      </trkpt>
      <trkpt lat="36.7906430" lon="-3.0734620">
        <ele>516.0</ele>
        <time>2022-11-01T10:10:55Z</time>
      </trkpt>
      <trkpt lat="36.7906040" lon="-3.0734310">
        <ele>516.2</ele>
        <time>2022-11-01T10:10:56Z</time>
      </trkpt>
      <trkpt lat="36.7905610" lon="-3.0734120">
        <ele>516.2</ele>
        <time>2022-11-01T10:10:57Z</time>
      </trkpt>
      <trkpt lat="36.7905200" lon="-3.0734000">
        <ele>516.4</ele>
        <time>2022-11-01T10:10:58Z</time>
      </trkpt>
      <trkpt lat="36.7904830" lon="-3.0733890">
        <ele>516.6</ele>
        <time>2022-11-01T10:10:59Z</time>
      </trkpt>
      <trkpt lat="36.7904480" lon="-3.0733800">
        <ele>516.8</ele>
        <time>2022-11-01T10:11:00Z</time>
      </trkpt>
      <trkpt lat="36.7904150" lon="-3.0733700">
        <ele>517.2</ele>
        <time>2022-11-01T10:11:01Z</time>
      </trkpt>
      <trkpt lat="36.7903830" lon="-3.0733630">
        <ele>517.4</ele>
        <time>2022-11-01T10:11:02Z</time>
      </trkpt>
      <trkpt lat="36.7903540" lon="-3.0733570">
        <ele>517.8</ele>
        <time>2022-11-01T10:11:03Z</time>
      </trkpt>
      <trkpt lat="36.7903270" lon="-3.0733490">
        <ele>518.0</ele>
        <time>2022-11-01T10:11:04Z</time>
      </trkpt>
      <trkpt lat="36.7903010" lon="-3.0733410">
        <ele>518.4</ele>
        <time>2022-11-01T10:11:05Z</time>
      </trkpt>
      <trkpt lat="36.7902770" lon="-3.0733310">
        <ele>518.6</ele>
        <time>2022-11-01T10:11:06Z</time>
      </trkpt>
      <trkpt lat="36.7902540" lon="-3.0733200">
        <ele>519.0</ele>
        <time>2022-11-01T10:11:07Z</time>
      </trkpt>
      <trkpt lat="36.7902320" lon="-3.0733050">
        <ele>519.2</ele>
        <time>2022-11-01T10:11:08Z</time>
      </trkpt>
      <trkpt lat="36.7902120" lon="-3.0732850">
        <ele>519.6</ele>
        <time>2022-11-01T10:11:09Z</time>
      </trkpt>
      <trkpt lat="36.7901930" lon="-3.0732600">
        <ele>519.8</ele>
        <time>2022-11-01T10:11:10Z</time>
      </trkpt>
      <trkpt lat="36.7901770" lon="-3.0732310">
        <ele>520.0</ele>
        <time>2022-11-01T10:11:11Z</time>
      </trkpt>
      <trkpt lat="36.7901660" lon="-3.0732000">
        <ele>520.4</ele>
        <time>2022-11-01T10:11:12Z</time>
      </trkpt>
      <trkpt lat="36.7901580" lon="-3.0731670">
        <ele>520.4</ele>
        <time>2022-11-01T10:11:13Z</time>
      </trkpt>
      <trkpt lat="36.7901520" lon="-3.0731330">
        <ele>520.6</ele>
        <time>2022-11-01T10:11:14Z</time>
      </trkpt>
      <trkpt lat="36.7901490" lon="-3.0730980">
        <ele>520.8</ele>
        <time>2022-11-01T10:11:15Z</time>
      </trkpt>
      <trkpt lat="36.7901500" lon="-3.0730620">
        <ele>521.0</ele>
        <time>2022-11-01T10:11:16Z</time>
      </trkpt>
      <trkpt lat="36.7901510" lon="-3.0730270">
        <ele>521.2</ele>
        <time>2022-11-01T10:11:17Z</time>
      </trkpt>
      <trkpt lat="36.7901530" lon="-3.0729890">
        <ele>521.4</ele>
        <time>2022-11-01T10:11:18Z</time>
      </trkpt>
      <trkpt lat="36.7901590" lon="-3.0729540">
        <ele>521.6</ele>
        <time>2022-11-01T10:11:19Z</time>
      </trkpt>
      <trkpt lat="36.7901660" lon="-3.0729170">
        <ele>521.8</ele>
        <time>2022-11-01T10:11:20Z</time>
      </trkpt>
      <trkpt lat="36.7901720" lon="-3.0728810">
        <ele>521.8</ele>
        <time>2022-11-01T10:11:21Z</time>
      </trkpt>
      <trkpt lat="36.7901770" lon="-3.0728440">
        <ele>522.0</ele>
        <time>2022-11-01T10:11:22Z</time>
      </trkpt>
      <trkpt lat="36.7901790" lon="-3.0728080">
        <ele>522.2</ele>
        <time>2022-11-01T10:11:23Z</time>
      </trkpt>
      <trkpt lat="36.7901800" lon="-3.0727720">
        <ele>522.4</ele>
        <time>2022-11-01T10:11:24Z</time>
      </trkpt>
      <trkpt lat="36.7901810" lon="-3.0727380">
        <ele>522.4</ele>
        <time>2022-11-01T10:11:25Z</time>
      </trkpt>
      <trkpt lat="36.7901840" lon="-3.0727060">
        <ele>522.6</ele>
        <time>2022-11-01T10:11:26Z</time>
      </trkpt>
      <trkpt lat="36.7901860" lon="-3.0726750">
        <ele>522.8</ele>
        <time>2022-11-01T10:11:27Z</time>
      </trkpt>
      <trkpt lat="36.7901850" lon="-3.0726430">
        <ele>523.0</ele>
        <time>2022-11-01T10:11:28Z</time>
      </trkpt>
      <trkpt lat="36.7901830" lon="-3.0726110">
        <ele>523.2</ele>
        <time>2022-11-01T10:11:29Z</time>
      </trkpt>
      <trkpt lat="36.7901810" lon="-3.0725780">
        <ele>523.4</ele>
        <time>2022-11-01T10:11:30Z</time>
      </trkpt>
      <trkpt lat="36.7901780" lon="-3.0725470">
        <ele>523.6</ele>
        <time>2022-11-01T10:11:31Z</time>
      </trkpt>
      <trkpt lat="36.7901730" lon="-3.0725150">
        <ele>523.8</ele>
        <time>2022-11-01T10:11:32Z</time>
      </trkpt>
      <trkpt lat="36.7901660" lon="-3.0724840">
        <ele>523.8</ele>
        <time>2022-11-01T10:11:33Z</time>
      </trkpt>
      <trkpt lat="36.7901570" lon="-3.0724550">
        <ele>524.2</ele>
        <time>2022-11-01T10:11:34Z</time>
      </trkpt>
      <trkpt lat="36.7901480" lon="-3.0724260">
        <ele>524.2</ele>
        <time>2022-11-01T10:11:35Z</time>
      </trkpt>
      <trkpt lat="36.7901420" lon="-3.0724000">
        <ele>524.4</ele>
        <time>2022-11-01T10:11:36Z</time>
      </trkpt>
      <trkpt lat="36.7901380" lon="-3.0723720">
        <ele>524.8</ele>
        <time>2022-11-01T10:11:37Z</time>
      </trkpt>
      <trkpt lat="36.7901300" lon="-3.0723450">
        <ele>525.0</ele>
        <time>2022-11-01T10:11:38Z</time>
      </trkpt>
      <trkpt lat="36.7901190" lon="-3.0723200">
        <ele>525.2</ele>
        <time>2022-11-01T10:11:39Z</time>
      </trkpt>
      <trkpt lat="36.7901110" lon="-3.0722930">
        <ele>525.4</ele>
        <time>2022-11-01T10:11:40Z</time>
      </trkpt>
      <trkpt lat="36.7901100" lon="-3.0722650">
        <ele>525.6</ele>
        <time>2022-11-01T10:11:41Z</time>
      </trkpt>
      <trkpt lat="36.7901110" lon="-3.0722370">
        <ele>525.8</ele>
        <time>2022-11-01T10:11:42Z</time>
      </trkpt>
      <trkpt lat="36.7901130" lon="-3.0722090">
        <ele>526.0</ele>
        <time>2022-11-01T10:11:43Z</time>
      </trkpt>
      <trkpt lat="36.7901150" lon="-3.0721800">
        <ele>526.2</ele>
        <time>2022-11-01T10:11:44Z</time>
      </trkpt>
      <trkpt lat="36.7901130" lon="-3.0721510">
        <ele>526.4</ele>
        <time>2022-11-01T10:11:45Z</time>
      </trkpt>
      <trkpt lat="36.7901130" lon="-3.0721220">
        <ele>526.4</ele>
        <time>2022-11-01T10:11:46Z</time>
      </trkpt>
      <trkpt lat="36.7901140" lon="-3.0720940">
        <ele>526.8</ele>
        <time>2022-11-01T10:11:47Z</time>
      </trkpt>
      <trkpt lat="36.7901170" lon="-3.0720640">
        <ele>527.0</ele>
        <time>2022-11-01T10:11:48Z</time>
      </trkpt>
      <trkpt lat="36.7901210" lon="-3.0720340">
        <ele>527.0</ele>
        <time>2022-11-01T10:11:49Z</time>
      </trkpt>
      <trkpt lat="36.7901220" lon="-3.0720020">
        <ele>527.2</ele>
        <time>2022-11-01T10:11:50Z</time>
      </trkpt>
      <trkpt lat="36.7901240" lon="-3.0719700">
        <ele>527.4</ele>
        <time>2022-11-01T10:11:51Z</time>
      </trkpt>
      <trkpt lat="36.7901270" lon="-3.0719370">
        <ele>527.6</ele>
        <time>2022-11-01T10:11:52Z</time>
      </trkpt>
      <trkpt lat="36.7901290" lon="-3.0719040">
        <ele>527.8</ele>
        <time>2022-11-01T10:11:53Z</time>
      </trkpt>
      <trkpt lat="36.7901310" lon="-3.0718710">
        <ele>528.0</ele>
        <time>2022-11-01T10:11:54Z</time>
      </trkpt>
      <trkpt lat="36.7901320" lon="-3.0718380">
        <ele>528.0</ele>
        <time>2022-11-01T10:11:55Z</time>
      </trkpt>
      <trkpt lat="36.7901320" lon="-3.0718040">
        <ele>528.4</ele>
        <time>2022-11-01T10:11:56Z</time>
      </trkpt>
      <trkpt lat="36.7901280" lon="-3.0717710">
        <ele>528.4</ele>
        <time>2022-11-01T10:11:57Z</time>
      </trkpt>
      <trkpt lat="36.7901230" lon="-3.0717380">
        <ele>528.6</ele>
        <time>2022-11-01T10:11:58Z</time>
      </trkpt>
      <trkpt lat="36.7901160" lon="-3.0717050">
        <ele>528.8</ele>
        <time>2022-11-01T10:11:59Z</time>
      </trkpt>
      <trkpt lat="36.7901080" lon="-3.0716730">
        <ele>529.0</ele>
        <time>2022-11-01T10:12:00Z</time>
      </trkpt>
      <trkpt lat="36.7900980" lon="-3.0716440">
        <ele>529.0</ele>
        <time>2022-11-01T10:12:01Z</time>
      </trkpt>
      <trkpt lat="36.7900870" lon="-3.0716140">
        <ele>529.2</ele>
        <time>2022-11-01T10:12:02Z</time>
      </trkpt>
      <trkpt lat="36.7900750" lon="-3.0715850">
        <ele>529.4</ele>
        <time>2022-11-01T10:12:03Z</time>
      </trkpt>
      <trkpt lat="36.7900610" lon="-3.0715590">
        <ele>529.6</ele>
        <time>2022-11-01T10:12:04Z</time>
      </trkpt>
      <trkpt lat="36.7900470" lon="-3.0715340">
        <ele>529.8</ele>
        <time>2022-11-01T10:12:05Z</time>
      </trkpt>
      <trkpt lat="36.7900370" lon="-3.0715080">
        <ele>530.0</ele>
        <time>2022-11-01T10:12:06Z</time>
      </trkpt>
      <trkpt lat="36.7900290" lon="-3.0714810">
        <ele>530.2</ele>
        <time>2022-11-01T10:12:07Z</time>
      </trkpt>
      <trkpt lat="36.7900190" lon="-3.0714550">
        <ele>530.4</ele>
        <time>2022-11-01T10:12:08Z</time>
      </trkpt>
      <trkpt lat="36.7900100" lon="-3.0714280">
        <ele>530.4</ele>
        <time>2022-11-01T10:12:09Z</time>
      </trkpt>
      <trkpt lat="36.7900040" lon="-3.0714000">
        <ele>530.8</ele>
        <time>2022-11-01T10:12:10Z</time>
      </trkpt>
      <trkpt lat="36.7899990" lon="-3.0713700">
        <ele>531.0</ele>
        <time>2022-11-01T10:12:11Z</time>
      </trkpt>
      <trkpt lat="36.7899960" lon="-3.0713400">
        <ele>531.0</ele>
        <time>2022-11-01T10:12:12Z</time>
      </trkpt>
      <trkpt lat="36.7899950" lon="-3.0713110">
        <ele>531.2</ele>
        <time>2022-11-01T10:12:13Z</time>
      </trkpt>
      <trkpt lat="36.7899920" lon="-3.0712810">
        <ele>531.4</ele>
        <time>2022-11-01T10:12:14Z</time>
      </trkpt>
      <trkpt lat="36.7899900" lon="-3.0712510">
        <ele>531.6</ele>
        <time>2022-11-01T10:12:15Z</time>
      </trkpt>
      <trkpt lat="36.7899860" lon="-3.0712230">
        <ele>531.8</ele>
        <time>2022-11-01T10:12:16Z</time>
      </trkpt>
      <trkpt lat="36.7899800" lon="-3.0711960">
        <ele>532.0</ele>
        <time>2022-11-01T10:12:17Z</time>
      </trkpt>
      <trkpt lat="36.7899710" lon="-3.0711690">
        <ele>532.2</ele>
        <time>2022-11-01T10:12:18Z</time>
      </trkpt>
      <trkpt lat="36.7899670" lon="-3.0711410">
        <ele>532.4</ele>
        <time>2022-11-01T10:12:19Z</time>
      </trkpt>
      <trkpt lat="36.7899680" lon="-3.0711110">
        <ele>532.6</ele>
        <time>2022-11-01T10:12:20Z</time>
      </trkpt>
      <trkpt lat="36.7899660" lon="-3.0710810">
        <ele>532.8</ele>
        <time>2022-11-01T10:12:21Z</time>
      </trkpt>
      <trkpt lat="36.7899650" lon="-3.0710510">
        <ele>533.0</ele>
        <time>2022-11-01T10:12:22Z</time>
      </trkpt>
      <trkpt lat="36.7899620" lon="-3.0710220">
        <ele>533.0</ele>
        <time>2022-11-01T10:12:23Z</time>
      </trkpt>
      <trkpt lat="36.7899620" lon="-3.0709930">
        <ele>533.2</ele>
        <time>2022-11-01T10:12:24Z</time>
      </trkpt>
      <trkpt lat="36.7899620" lon="-3.0709640">
        <ele>533.6</ele>
        <time>2022-11-01T10:12:25Z</time>
      </trkpt>
      <trkpt lat="36.7899610" lon="-3.0709350">
        <ele>533.6</ele>
        <time>2022-11-01T10:12:26Z</time>
      </trkpt>
      <trkpt lat="36.7899590" lon="-3.0709070">
        <ele>533.8</ele>
        <time>2022-11-01T10:12:27Z</time>
      </trkpt>
      <trkpt lat="36.7899560" lon="-3.0708780">
        <ele>534.0</ele>
        <time>2022-11-01T10:12:28Z</time>
      </trkpt>
      <trkpt lat="36.7899520" lon="-3.0708510">
        <ele>534.4</ele>
        <time>2022-11-01T10:12:29Z</time>
      </trkpt>
      <trkpt lat="36.7899470" lon="-3.0708240">
        <ele>534.4</ele>
        <time>2022-11-01T10:12:30Z</time>
      </trkpt>
      <trkpt lat="36.7899400" lon="-3.0707980">
        <ele>534.6</ele>
        <time>2022-11-01T10:12:31Z</time>
      </trkpt>
      <trkpt lat="36.7899330" lon="-3.0707730">
        <ele>534.8</ele>
        <time>2022-11-01T10:12:32Z</time>
      </trkpt>
      <trkpt lat="36.7899240" lon="-3.0707480">
        <ele>535.0</ele>
        <time>2022-11-01T10:12:33Z</time>
      </trkpt>
      <trkpt lat="36.7899170" lon="-3.0707230">
        <ele>535.2</ele>
        <time>2022-11-01T10:12:34Z</time>
      </trkpt>
      <trkpt lat="36.7899090" lon="-3.0706970">
        <ele>535.4</ele>
        <time>2022-11-01T10:12:35Z</time>
      </trkpt>
      <trkpt lat="36.7898970" lon="-3.0706720">
        <ele>535.6</ele>
        <time>2022-11-01T10:12:36Z</time>
      </trkpt>
      <trkpt lat="36.7898830" lon="-3.0706490">
        <ele>535.8</ele>
        <time>2022-11-01T10:12:37Z</time>
      </trkpt>
      <trkpt lat="36.7898680" lon="-3.0706250">
        <ele>536.0</ele>
        <time>2022-11-01T10:12:38Z</time>
      </trkpt>
      <trkpt lat="36.7898570" lon="-3.0706000">
        <ele>536.2</ele>
        <time>2022-11-01T10:12:39Z</time>
      </trkpt>
      <trkpt lat="36.7898510" lon="-3.0705720">
        <ele>536.4</ele>
        <time>2022-11-01T10:12:40Z</time>
      </trkpt>
      <trkpt lat="36.7898450" lon="-3.0705420">
        <ele>536.4</ele>
        <time>2022-11-01T10:12:41Z</time>
      </trkpt>
      <trkpt lat="36.7898420" lon="-3.0705110">
        <ele>536.6</ele>
        <time>2022-11-01T10:12:42Z</time>
      </trkpt>
      <trkpt lat="36.7898410" lon="-3.0704800">
        <ele>536.8</ele>
        <time>2022-11-01T10:12:43Z</time>
      </trkpt>
      <trkpt lat="36.7898420" lon="-3.0704490">
        <ele>537.0</ele>
        <time>2022-11-01T10:12:44Z</time>
      </trkpt>
      <trkpt lat="36.7898440" lon="-3.0704180">
        <ele>537.0</ele>
        <time>2022-11-01T10:12:45Z</time>
      </trkpt>
      <trkpt lat="36.7898480" lon="-3.0703870">
        <ele>537.2</ele>
        <time>2022-11-01T10:12:46Z</time>
      </trkpt>
      <trkpt lat="36.7898520" lon="-3.0703560">
        <ele>537.4</ele>
        <time>2022-11-01T10:12:47Z</time>
      </trkpt>
      <trkpt lat="36.7898560" lon="-3.0703250">
        <ele>537.6</ele>
        <time>2022-11-01T10:12:48Z</time>
      </trkpt>
      <trkpt lat="36.7898590" lon="-3.0702950">
        <ele>537.6</ele>
        <time>2022-11-01T10:12:49Z</time>
      </trkpt>
      <trkpt lat="36.7898610" lon="-3.0702660">
        <ele>537.8</ele>
        <time>2022-11-01T10:12:50Z</time>
      </trkpt>
      <trkpt lat="36.7898590" lon="-3.0702350">
        <ele>538.0</ele>
        <time>2022-11-01T10:12:51Z</time>
      </trkpt>
      <trkpt lat="36.7898610" lon="-3.0702060">
        <ele>538.2</ele>
        <time>2022-11-01T10:12:52Z</time>
      </trkpt>
      <trkpt lat="36.7898620" lon="-3.0701760">
        <ele>538.4</ele>
        <time>2022-11-01T10:12:53Z</time>
      </trkpt>
      <trkpt lat="36.7898660" lon="-3.0701460">
        <ele>538.6</ele>
        <time>2022-11-01T10:12:54Z</time>
      </trkpt>
      <trkpt lat="36.7898680" lon="-3.0701150">
        <ele>538.8</ele>
        <time>2022-11-01T10:12:55Z</time>
      </trkpt>
      <trkpt lat="36.7898690" lon="-3.0700840">
        <ele>539.0</ele>
        <time>2022-11-01T10:12:56Z</time>
      </trkpt>
      <trkpt lat="36.7898690" lon="-3.0700540">
        <ele>539.0</ele>
        <time>2022-11-01T10:12:57Z</time>
      </trkpt>
      <trkpt lat="36.7898670" lon="-3.0700230">
        <ele>539.2</ele>
        <time>2022-11-01T10:12:58Z</time>
      </trkpt>
      <trkpt lat="36.7898640" lon="-3.0699920">
        <ele>539.6</ele>
        <time>2022-11-01T10:12:59Z</time>
      </trkpt>
      <trkpt lat="36.7898600" lon="-3.0699610">
        <ele>539.6</ele>
        <time>2022-11-01T10:13:00Z</time>
      </trkpt>
      <trkpt lat="36.7898540" lon="-3.0699300">
        <ele>539.8</ele>
        <time>2022-11-01T10:13:01Z</time>
      </trkpt>
      <trkpt lat="36.7898470" lon="-3.0698990">
        <ele>540.0</ele>
        <time>2022-11-01T10:13:02Z</time>
      </trkpt>
      <trkpt lat="36.7898400" lon="-3.0698700">
        <ele>540.2</ele>
        <time>2022-11-01T10:13:03Z</time>
      </trkpt>
      <trkpt lat="36.7898320" lon="-3.0698410">
        <ele>540.4</ele>
        <time>2022-11-01T10:13:04Z</time>
      </trkpt>
      <trkpt lat="36.7898230" lon="-3.0698120">
        <ele>540.6</ele>
        <time>2022-11-01T10:13:05Z</time>
      </trkpt>
      <trkpt lat="36.7898110" lon="-3.0697850">
        <ele>540.8</ele>
        <time>2022-11-01T10:13:06Z</time>
      </trkpt>
      <trkpt lat="36.7897960" lon="-3.0697590">
        <ele>540.8</ele>
        <time>2022-11-01T10:13:07Z</time>
      </trkpt>
      <trkpt lat="36.7897810" lon="-3.0697340">
        <ele>541.0</ele>
        <time>2022-11-01T10:13:08Z</time>
      </trkpt>
      <trkpt lat="36.7897640" lon="-3.0697110">
        <ele>541.2</ele>
        <time>2022-11-01T10:13:09Z</time>
      </trkpt>
      <trkpt lat="36.7897490" lon="-3.0696870">
        <ele>541.4</ele>
        <time>2022-11-01T10:13:10Z</time>
      </trkpt>
      <trkpt lat="36.7897340" lon="-3.0696620">
        <ele>541.6</ele>
        <time>2022-11-01T10:13:11Z</time>
      </trkpt>
      <trkpt lat="36.7897180" lon="-3.0696400">
        <ele>541.8</ele>
        <time>2022-11-01T10:13:12Z</time>
      </trkpt>
      <trkpt lat="36.7897010" lon="-3.0696190">
        <ele>542.0</ele>
        <time>2022-11-01T10:13:13Z</time>
      </trkpt>
      <trkpt lat="36.7896840" lon="-3.0695990">
        <ele>542.2</ele>
        <time>2022-11-01T10:13:14Z</time>
      </trkpt>
      <trkpt lat="36.7896670" lon="-3.0695780">
        <ele>542.4</ele>
        <time>2022-11-01T10:13:15Z</time>
      </trkpt>
      <trkpt lat="36.7896510" lon="-3.0695570">
        <ele>542.6</ele>
        <time>2022-11-01T10:13:16Z</time>
      </trkpt>
      <trkpt lat="36.7896360" lon="-3.0695360">
        <ele>542.8</ele>
        <time>2022-11-01T10:13:17Z</time>
      </trkpt>
      <trkpt lat="36.7896220" lon="-3.0695140">
        <ele>543.0</ele>
        <time>2022-11-01T10:13:18Z</time>
      </trkpt>
      <trkpt lat="36.7896100" lon="-3.0694910">
        <ele>543.0</ele>
        <time>2022-11-01T10:13:19Z</time>
      </trkpt>
      <trkpt lat="36.7895980" lon="-3.0694690">
        <ele>543.2</ele>
        <time>2022-11-01T10:13:20Z</time>
      </trkpt>
      <trkpt lat="36.7895860" lon="-3.0694460">
        <ele>543.4</ele>
        <time>2022-11-01T10:13:21Z</time>
      </trkpt>
      <trkpt lat="36.7895730" lon="-3.0694220">
        <ele>543.6</ele>
        <time>2022-11-01T10:13:22Z</time>
      </trkpt>
      <trkpt lat="36.7895590" lon="-3.0693990">
        <ele>543.8</ele>
        <time>2022-11-01T10:13:23Z</time>
      </trkpt>
      <trkpt lat="36.7895460" lon="-3.0693770">
        <ele>544.0</ele>
        <time>2022-11-01T10:13:24Z</time>
      </trkpt>
      <trkpt lat="36.7895350" lon="-3.0693540">
        <ele>544.2</ele>
        <time>2022-11-01T10:13:25Z</time>
      </trkpt>
      <trkpt lat="36.7895240" lon="-3.0693320">
        <ele>544.4</ele>
        <time>2022-11-01T10:13:26Z</time>
      </trkpt>
      <trkpt lat="36.7895120" lon="-3.0693140">
        <ele>544.4</ele>
        <time>2022-11-01T10:13:27Z</time>
      </trkpt>
      <trkpt lat="36.7894980" lon="-3.0692950">
        <ele>544.6</ele>
        <time>2022-11-01T10:13:28Z</time>
      </trkpt>
      <trkpt lat="36.7894860" lon="-3.0692790">
        <ele>544.8</ele>
        <time>2022-11-01T10:13:29Z</time>
      </trkpt>
      <trkpt lat="36.7894740" lon="-3.0692600">
        <ele>545.0</ele>
        <time>2022-11-01T10:13:30Z</time>
      </trkpt>
      <trkpt lat="36.7894620" lon="-3.0692350">
        <ele>545.2</ele>
        <time>2022-11-01T10:13:31Z</time>
      </trkpt>
      <trkpt lat="36.7894490" lon="-3.0692130">
        <ele>545.2</ele>
        <time>2022-11-01T10:13:32Z</time>
      </trkpt>
      <trkpt lat="36.7894340" lon="-3.0691910">
        <ele>545.4</ele>
        <time>2022-11-01T10:13:33Z</time>
      </trkpt>
      <trkpt lat="36.7894170" lon="-3.0691730">
        <ele>545.6</ele>
        <time>2022-11-01T10:13:34Z</time>
      </trkpt>
      <trkpt lat="36.7893980" lon="-3.0691550">
        <ele>545.8</ele>
        <time>2022-11-01T10:13:35Z</time>
      </trkpt>
      <trkpt lat="36.7893780" lon="-3.0691390">
        <ele>546.0</ele>
        <time>2022-11-01T10:13:36Z</time>
      </trkpt>
      <trkpt lat="36.7893570" lon="-3.0691220">
        <ele>546.2</ele>
        <time>2022-11-01T10:13:37Z</time>
      </trkpt>
      <trkpt lat="36.7893360" lon="-3.0691070">
        <ele>546.2</ele>
        <time>2022-11-01T10:13:38Z</time>
      </trkpt>
      <trkpt lat="36.7893140" lon="-3.0690970">
        <ele>546.4</ele>
        <time>2022-11-01T10:13:39Z</time>
      </trkpt>
      <trkpt lat="36.7892920" lon="-3.0690840">
        <ele>546.4</ele>
        <time>2022-11-01T10:13:40Z</time>
      </trkpt>
      <trkpt lat="36.7892690" lon="-3.0690730">
        <ele>546.6</ele>
        <time>2022-11-01T10:13:41Z</time>
      </trkpt>
      <trkpt lat="36.7892470" lon="-3.0690640">
        <ele>546.8</ele>
        <time>2022-11-01T10:13:42Z</time>
      </trkpt>
      <trkpt lat="36.7892240" lon="-3.0690570">
        <ele>547.0</ele>
        <time>2022-11-01T10:13:43Z</time>
      </trkpt>
      <trkpt lat="36.7892010" lon="-3.0690520">
        <ele>547.0</ele>
        <time>2022-11-01T10:13:44Z</time>
      </trkpt>
      <trkpt lat="36.7891770" lon="-3.0690450">
        <ele>547.2</ele>
        <time>2022-11-01T10:13:45Z</time>
      </trkpt>
      <trkpt lat="36.7891520" lon="-3.0690360">
        <ele>547.4</ele>
        <time>2022-11-01T10:13:46Z</time>
      </trkpt>
      <trkpt lat="36.7891270" lon="-3.0690270">
        <ele>547.4</ele>
        <time>2022-11-01T10:13:47Z</time>
      </trkpt>
      <trkpt lat="36.7891030" lon="-3.0690200">
        <ele>547.6</ele>
        <time>2022-11-01T10:13:48Z</time>
      </trkpt>
      <trkpt lat="36.7890780" lon="-3.0690170">
        <ele>547.8</ele>
        <time>2022-11-01T10:13:49Z</time>
      </trkpt>
      <trkpt lat="36.7890530" lon="-3.0690120">
        <ele>548.0</ele>
        <time>2022-11-01T10:13:50Z</time>
      </trkpt>
      <trkpt lat="36.7890290" lon="-3.0690100">
        <ele>548.2</ele>
        <time>2022-11-01T10:13:51Z</time>
      </trkpt>
      <trkpt lat="36.7890040" lon="-3.0690070">
        <ele>548.4</ele>
        <time>2022-11-01T10:13:52Z</time>
      </trkpt>
      <trkpt lat="36.7889800" lon="-3.0690020">
        <ele>548.6</ele>
        <time>2022-11-01T10:13:53Z</time>
      </trkpt>
      <trkpt lat="36.7889570" lon="-3.0689960">
        <ele>548.6</ele>
        <time>2022-11-01T10:13:54Z</time>
      </trkpt>
      <trkpt lat="36.7889330" lon="-3.0689910">
        <ele>548.8</ele>
        <time>2022-11-01T10:13:55Z</time>
      </trkpt>
      <trkpt lat="36.7889090" lon="-3.0689870">
        <ele>549.0</ele>
        <time>2022-11-01T10:13:56Z</time>
      </trkpt>
      <trkpt lat="36.7888850" lon="-3.0689860">
        <ele>549.2</ele>
        <time>2022-11-01T10:13:57Z</time>
      </trkpt>
      <trkpt lat="36.7888620" lon="-3.0689850">
        <ele>549.4</ele>
        <time>2022-11-01T10:13:58Z</time>
      </trkpt>
      <trkpt lat="36.7888390" lon="-3.0689830">
        <ele>549.8</ele>
        <time>2022-11-01T10:13:59Z</time>
      </trkpt>
      <trkpt lat="36.7888170" lon="-3.0689780">
        <ele>549.8</ele>
        <time>2022-11-01T10:14:00Z</time>
      </trkpt>
      <trkpt lat="36.7887950" lon="-3.0689730">
        <ele>550.0</ele>
        <time>2022-11-01T10:14:01Z</time>
      </trkpt>
      <trkpt lat="36.7887740" lon="-3.0689690">
        <ele>550.4</ele>
        <time>2022-11-01T10:14:02Z</time>
      </trkpt>
      <trkpt lat="36.7887520" lon="-3.0689660">
        <ele>550.4</ele>
        <time>2022-11-01T10:14:03Z</time>
      </trkpt>
      <trkpt lat="36.7887310" lon="-3.0689630">
        <ele>550.8</ele>
        <time>2022-11-01T10:14:04Z</time>
      </trkpt>
      <trkpt lat="36.7887080" lon="-3.0689610">
        <ele>551.0</ele>
        <time>2022-11-01T10:14:05Z</time>
      </trkpt>
      <trkpt lat="36.7886860" lon="-3.0689590">
        <ele>551.2</ele>
        <time>2022-11-01T10:14:06Z</time>
      </trkpt>
      <trkpt lat="36.7886660" lon="-3.0689540">
        <ele>551.4</ele>
        <time>2022-11-01T10:14:07Z</time>
      </trkpt>
      <trkpt lat="36.7886470" lon="-3.0689440">
        <ele>551.6</ele>
        <time>2022-11-01T10:14:08Z</time>
      </trkpt>
      <trkpt lat="36.7886290" lon="-3.0689350">
        <ele>551.8</ele>
        <time>2022-11-01T10:14:09Z</time>
      </trkpt>
      <trkpt lat="36.7886090" lon="-3.0689290">
        <ele>552.0</ele>
        <time>2022-11-01T10:14:10Z</time>
      </trkpt>
      <trkpt lat="36.7885890" lon="-3.0689290">
        <ele>552.2</ele>
        <time>2022-11-01T10:14:11Z</time>
      </trkpt>
      <trkpt lat="36.7885710" lon="-3.0689250">
        <ele>552.4</ele>
        <time>2022-11-01T10:14:12Z</time>
      </trkpt>
      <trkpt lat="36.7885540" lon="-3.0689140">
        <ele>552.8</ele>
        <time>2022-11-01T10:14:13Z</time>
      </trkpt>
      <trkpt lat="36.7885370" lon="-3.0689010">
        <ele>553.0</ele>
        <time>2022-11-01T10:14:14Z</time>
      </trkpt>
      <trkpt lat="36.7885200" lon="-3.0688870">
        <ele>553.0</ele>
        <time>2022-11-01T10:14:15Z</time>
      </trkpt>
      <trkpt lat="36.7885000" lon="-3.0688750">
        <ele>553.2</ele>
        <time>2022-11-01T10:14:16Z</time>
      </trkpt>
      <trkpt lat="36.7884790" lon="-3.0688660">
        <ele>553.6</ele>
        <time>2022-11-01T10:14:17Z</time>
      </trkpt>
      <trkpt lat="36.7884590" lon="-3.0688570">
        <ele>553.8</ele>
        <time>2022-11-01T10:14:18Z</time>
      </trkpt>
      <trkpt lat="36.7884390" lon="-3.0688500">
        <ele>553.8</ele>
        <time>2022-11-01T10:14:19Z</time>
      </trkpt>
      <trkpt lat="36.7884190" lon="-3.0688430">
        <ele>554.2</ele>
        <time>2022-11-01T10:14:20Z</time>
      </trkpt>
      <trkpt lat="36.7884000" lon="-3.0688310">
        <ele>554.4</ele>
        <time>2022-11-01T10:14:21Z</time>
      </trkpt>
      <trkpt lat="36.7883840" lon="-3.0688170">
        <ele>554.6</ele>
        <time>2022-11-01T10:14:22Z</time>
      </trkpt>
      <trkpt lat="36.7883690" lon="-3.0688030">
        <ele>554.8</ele>
        <time>2022-11-01T10:14:23Z</time>
      </trkpt>
      <trkpt lat="36.7883530" lon="-3.0687880">
        <ele>555.0</ele>
        <time>2022-11-01T10:14:24Z</time>
      </trkpt>
      <trkpt lat="36.7883350" lon="-3.0687730">
        <ele>555.2</ele>
        <time>2022-11-01T10:14:25Z</time>
      </trkpt>
      <trkpt lat="36.7883170" lon="-3.0687590">
        <ele>555.6</ele>
        <time>2022-11-01T10:14:26Z</time>
      </trkpt>
      <trkpt lat="36.7882970" lon="-3.0687480">
        <ele>555.8</ele>
        <time>2022-11-01T10:14:27Z</time>
      </trkpt>
      <trkpt lat="36.7882780" lon="-3.0687370">
        <ele>556.0</ele>
        <time>2022-11-01T10:14:28Z</time>
      </trkpt>
      <trkpt lat="36.7882580" lon="-3.0687270">
        <ele>556.2</ele>
        <time>2022-11-01T10:14:29Z</time>
      </trkpt>
      <trkpt lat="36.7882400" lon="-3.0687130">
        <ele>556.4</ele>
        <time>2022-11-01T10:14:30Z</time>
      </trkpt>
      <trkpt lat="36.7882230" lon="-3.0687000">
        <ele>556.6</ele>
        <time>2022-11-01T10:14:31Z</time>
      </trkpt>
      <trkpt lat="36.7882050" lon="-3.0686860">
        <ele>556.8</ele>
        <time>2022-11-01T10:14:32Z</time>
      </trkpt>
      <trkpt lat="36.7881870" lon="-3.0686720">
        <ele>557.2</ele>
        <time>2022-11-01T10:14:33Z</time>
      </trkpt>
      <trkpt lat="36.7881700" lon="-3.0686580">
        <ele>557.2</ele>
        <time>2022-11-01T10:14:34Z</time>
      </trkpt>
      <trkpt lat="36.7881540" lon="-3.0686410">
        <ele>557.6</ele>
        <time>2022-11-01T10:14:35Z</time>
      </trkpt>
      <trkpt lat="36.7881410" lon="-3.0686220">
        <ele>557.8</ele>
        <time>2022-11-01T10:14:36Z</time>
      </trkpt>
      <trkpt lat="36.7881270" lon="-3.0686020">
        <ele>557.8</ele>
        <time>2022-11-01T10:14:37Z</time>
      </trkpt>
      <trkpt lat="36.7881100" lon="-3.0685880">
        <ele>558.2</ele>
        <time>2022-11-01T10:14:38Z</time>
      </trkpt>
      <trkpt lat="36.7880910" lon="-3.0685790">
        <ele>558.4</ele>
        <time>2022-11-01T10:14:39Z</time>
      </trkpt>
      <trkpt lat="36.7880720" lon="-3.0685700">
        <ele>558.4</ele>
        <time>2022-11-01T10:14:40Z</time>
      </trkpt>
      <trkpt lat="36.7880550" lon="-3.0685570">
        <ele>558.8</ele>
        <time>2022-11-01T10:14:41Z</time>
      </trkpt>
      <trkpt lat="36.7880390" lon="-3.0685410">
        <ele>559.0</ele>
        <time>2022-11-01T10:14:42Z</time>
      </trkpt>
      <trkpt lat="36.7880230" lon="-3.0685250">
        <ele>559.2</ele>
        <time>2022-11-01T10:14:43Z</time>
      </trkpt>
      <trkpt lat="36.7880060" lon="-3.0685100">
        <ele>559.2</ele>
        <time>2022-11-01T10:14:44Z</time>
      </trkpt>
      <trkpt lat="36.7879900" lon="-3.0684950">
        <ele>559.4</ele>
        <time>2022-11-01T10:14:45Z</time>
      </trkpt>
      <trkpt lat="36.7879750" lon="-3.0684800">
        <ele>559.6</ele>
        <time>2022-11-01T10:14:46Z</time>
      </trkpt>
      <trkpt lat="36.7879600" lon="-3.0684640">
        <ele>559.8</ele>
        <time>2022-11-01T10:14:47Z</time>
      </trkpt>
      <trkpt lat="36.7879420" lon="-3.0684530">
        <ele>560.0</ele>
        <time>2022-11-01T10:14:48Z</time>
      </trkpt>
      <trkpt lat="36.7879240" lon="-3.0684410">
        <ele>560.2</ele>
        <time>2022-11-01T10:14:49Z</time>
      </trkpt>
      <trkpt lat="36.7879080" lon="-3.0684260">
        <ele>560.4</ele>
        <time>2022-11-01T10:14:50Z</time>
      </trkpt>
      <trkpt lat="36.7878900" lon="-3.0684130">
        <ele>560.6</ele>
        <time>2022-11-01T10:14:51Z</time>
      </trkpt>
      <trkpt lat="36.7878720" lon="-3.0684030">
        <ele>560.8</ele>
        <time>2022-11-01T10:14:52Z</time>
      </trkpt>
      <trkpt lat="36.7878530" lon="-3.0683920">
        <ele>561.0</ele>
        <time>2022-11-01T10:14:53Z</time>
      </trkpt>
      <trkpt lat="36.7878340" lon="-3.0683820">
        <ele>561.2</ele>
        <time>2022-11-01T10:14:54Z</time>
      </trkpt>
      <trkpt lat="36.7878150" lon="-3.0683750">
        <ele>561.4</ele>
        <time>2022-11-01T10:14:55Z</time>
      </trkpt>
      <trkpt lat="36.7877970" lon="-3.0683690">
        <ele>561.6</ele>
        <time>2022-11-01T10:14:56Z</time>
      </trkpt>
      <trkpt lat="36.7877780" lon="-3.0683630">
        <ele>561.8</ele>
        <time>2022-11-01T10:14:57Z</time>
      </trkpt>
      <trkpt lat="36.7877590" lon="-3.0683560">
        <ele>562.0</ele>
        <time>2022-11-01T10:14:58Z</time>
      </trkpt>
      <trkpt lat="36.7877400" lon="-3.0683550">
        <ele>562.2</ele>
        <time>2022-11-01T10:14:59Z</time>
      </trkpt>
      <trkpt lat="36.7877190" lon="-3.0683530">
        <ele>562.6</ele>
        <time>2022-11-01T10:15:00Z</time>
      </trkpt>
      <trkpt lat="36.7877000" lon="-3.0683510">
        <ele>562.6</ele>
        <time>2022-11-01T10:15:01Z</time>
      </trkpt>
      <trkpt lat="36.7876790" lon="-3.0683510">
        <ele>563.0</ele>
        <time>2022-11-01T10:15:02Z</time>
      </trkpt>
      <trkpt lat="36.7876580" lon="-3.0683510">
        <ele>563.2</ele>
        <time>2022-11-01T10:15:03Z</time>
      </trkpt>
      <trkpt lat="36.7876370" lon="-3.0683520">
        <ele>563.2</ele>
        <time>2022-11-01T10:15:04Z</time>
      </trkpt>
      <trkpt lat="36.7876160" lon="-3.0683540">
        <ele>563.4</ele>
        <time>2022-11-01T10:15:05Z</time>
      </trkpt>
      <trkpt lat="36.7875950" lon="-3.0683570">
        <ele>563.8</ele>
        <time>2022-11-01T10:15:06Z</time>
      </trkpt>
      <trkpt lat="36.7875740" lon="-3.0683590">
        <ele>564.0</ele>
        <time>2022-11-01T10:15:07Z</time>
      </trkpt>
      <trkpt lat="36.7875520" lon="-3.0683620">
        <ele>564.2</ele>
        <time>2022-11-01T10:15:08Z</time>
      </trkpt>
      <trkpt lat="36.7875300" lon="-3.0683660">
        <ele>564.4</ele>
        <time>2022-11-01T10:15:09Z</time>
      </trkpt>
      <trkpt lat="36.7875080" lon="-3.0683690">
        <ele>564.6</ele>
        <time>2022-11-01T10:15:10Z</time>
      </trkpt>
      <trkpt lat="36.7874870" lon="-3.0683740">
        <ele>564.8</ele>
        <time>2022-11-01T10:15:11Z</time>
      </trkpt>
      <trkpt lat="36.7874650" lon="-3.0683770">
        <ele>565.0</ele>
        <time>2022-11-01T10:15:12Z</time>
      </trkpt>
      <trkpt lat="36.7874430" lon="-3.0683780">
        <ele>565.2</ele>
        <time>2022-11-01T10:15:13Z</time>
      </trkpt>
      <trkpt lat="36.7874200" lon="-3.0683800">
        <ele>565.4</ele>
        <time>2022-11-01T10:15:14Z</time>
      </trkpt>
      <trkpt lat="36.7873980" lon="-3.0683830">
        <ele>565.6</ele>
        <time>2022-11-01T10:15:15Z</time>
      </trkpt>
      <trkpt lat="36.7873760" lon="-3.0683860">
        <ele>565.8</ele>
        <time>2022-11-01T10:15:16Z</time>
      </trkpt>
      <trkpt lat="36.7873550" lon="-3.0683880">
        <ele>566.0</ele>
        <time>2022-11-01T10:15:17Z</time>
      </trkpt>
      <trkpt lat="36.7873350" lon="-3.0683890">
        <ele>566.2</ele>
        <time>2022-11-01T10:15:18Z</time>
      </trkpt>
      <trkpt lat="36.7873150" lon="-3.0683920">
        <ele>566.4</ele>
        <time>2022-11-01T10:15:19Z</time>
      </trkpt>
      <trkpt lat="36.7872950" lon="-3.0683940">
        <ele>566.6</ele>
        <time>2022-11-01T10:15:20Z</time>
      </trkpt>
      <trkpt lat="36.7872750" lon="-3.0683990">
        <ele>566.8</ele>
        <time>2022-11-01T10:15:21Z</time>
      </trkpt>
      <trkpt lat="36.7872550" lon="-3.0684040">
        <ele>567.0</ele>
        <time>2022-11-01T10:15:22Z</time>
      </trkpt>
      <trkpt lat="36.7872360" lon="-3.0684080">
        <ele>567.2</ele>
        <time>2022-11-01T10:15:23Z</time>
      </trkpt>
      <trkpt lat="36.7872160" lon="-3.0684100">
        <ele>567.6</ele>
        <time>2022-11-01T10:15:24Z</time>
      </trkpt>
      <trkpt lat="36.7871950" lon="-3.0684140">
        <ele>567.8</ele>
        <time>2022-11-01T10:15:25Z</time>
      </trkpt>
      <trkpt lat="36.7871760" lon="-3.0684170">
        <ele>568.0</ele>
        <time>2022-11-01T10:15:26Z</time>
      </trkpt>
      <trkpt lat="36.7871560" lon="-3.0684210">
        <ele>568.2</ele>
        <time>2022-11-01T10:15:27Z</time>
      </trkpt>
      <trkpt lat="36.7871350" lon="-3.0684230">
        <ele>568.4</ele>
        <time>2022-11-01T10:15:28Z</time>
      </trkpt>
      <trkpt lat="36.7871140" lon="-3.0684250">
        <ele>568.6</ele>
        <time>2022-11-01T10:15:29Z</time>
      </trkpt>
      <trkpt lat="36.7870950" lon="-3.0684250">
        <ele>568.8</ele>
        <time>2022-11-01T10:15:30Z</time>
      </trkpt>
      <trkpt lat="36.7870740" lon="-3.0684240">
        <ele>569.2</ele>
        <time>2022-11-01T10:15:31Z</time>
      </trkpt>
      <trkpt lat="36.7870530" lon="-3.0684240">
        <ele>569.4</ele>
        <time>2022-11-01T10:15:32Z</time>
      </trkpt>
      <trkpt lat="36.7870330" lon="-3.0684230">
        <ele>569.6</ele>
        <time>2022-11-01T10:15:33Z</time>
      </trkpt>
      <trkpt lat="36.7870140" lon="-3.0684180">
        <ele>569.8</ele>
        <time>2022-11-01T10:15:34Z</time>
      </trkpt>
      <trkpt lat="36.7869950" lon="-3.0684090">
        <ele>570.0</ele>
        <time>2022-11-01T10:15:35Z</time>
      </trkpt>
      <trkpt lat="36.7869740" lon="-3.0683990">
        <ele>570.2</ele>
        <time>2022-11-01T10:15:36Z</time>
      </trkpt>
      <trkpt lat="36.7869550" lon="-3.0683870">
        <ele>570.4</ele>
        <time>2022-11-01T10:15:37Z</time>
      </trkpt>
      <trkpt lat="36.7869370" lon="-3.0683720">
        <ele>570.6</ele>
        <time>2022-11-01T10:15:38Z</time>
      </trkpt>
      <trkpt lat="36.7869200" lon="-3.0683550">
        <ele>570.8</ele>
        <time>2022-11-01T10:15:39Z</time>
      </trkpt>
      <trkpt lat="36.7869030" lon="-3.0683380">
        <ele>571.0</ele>
        <time>2022-11-01T10:15:40Z</time>
      </trkpt>
      <trkpt lat="36.7868860" lon="-3.0683200">
        <ele>571.2</ele>
        <time>2022-11-01T10:15:41Z</time>
      </trkpt>
      <trkpt lat="36.7868690" lon="-3.0683020">
        <ele>571.4</ele>
        <time>2022-11-01T10:15:42Z</time>
      </trkpt>
      <trkpt lat="36.7868530" lon="-3.0682810">
        <ele>571.6</ele>
        <time>2022-11-01T10:15:43Z</time>
      </trkpt>
      <trkpt lat="36.7868400" lon="-3.0682580">
        <ele>571.8</ele>
        <time>2022-11-01T10:15:44Z</time>
      </trkpt>
      <trkpt lat="36.7868270" lon="-3.0682350">
        <ele>572.0</ele>
        <time>2022-11-01T10:15:45Z</time>
      </trkpt>
      <trkpt lat="36.7868120" lon="-3.0682140">
        <ele>572.2</ele>
        <time>2022-11-01T10:15:46Z</time>
      </trkpt>
      <trkpt lat="36.7867970" lon="-3.0681910">
        <ele>572.4</ele>
        <time>2022-11-01T10:15:47Z</time>
      </trkpt>
      <trkpt lat="36.7867820" lon="-3.0681700">
        <ele>572.6</ele>
        <time>2022-11-01T10:15:48Z</time>
      </trkpt>
      <trkpt lat="36.7867660" lon="-3.0681490">
        <ele>572.8</ele>
        <time>2022-11-01T10:15:49Z</time>
      </trkpt>
      <trkpt lat="36.7867500" lon="-3.0681290">
        <ele>572.8</ele>
        <time>2022-11-01T10:15:50Z</time>
      </trkpt>
      <trkpt lat="36.7867330" lon="-3.0681090">
        <ele>573.0</ele>
        <time>2022-11-01T10:15:51Z</time>
      </trkpt>
      <trkpt lat="36.7867170" lon="-3.0680880">
        <ele>573.2</ele>
        <time>2022-11-01T10:15:52Z</time>
      </trkpt>
      <trkpt lat="36.7867040" lon="-3.0680650">
        <ele>573.4</ele>
        <time>2022-11-01T10:15:53Z</time>
      </trkpt>
      <trkpt lat="36.7866900" lon="-3.0680430">
        <ele>573.4</ele>
        <time>2022-11-01T10:15:54Z</time>
      </trkpt>
      <trkpt lat="36.7866770" lon="-3.0680200">
        <ele>573.8</ele>
        <time>2022-11-01T10:15:55Z</time>
      </trkpt>
      <trkpt lat="36.7866650" lon="-3.0679960">
        <ele>574.0</ele>
        <time>2022-11-01T10:15:56Z</time>
      </trkpt>
      <trkpt lat="36.7866540" lon="-3.0679720">
        <ele>574.2</ele>
        <time>2022-11-01T10:15:57Z</time>
      </trkpt>
      <trkpt lat="36.7866430" lon="-3.0679490">
        <ele>574.2</ele>
        <time>2022-11-01T10:15:58Z</time>
      </trkpt>
      <trkpt lat="36.7866330" lon="-3.0679270">
        <ele>574.4</ele>
        <time>2022-11-01T10:15:59Z</time>
      </trkpt>
      <trkpt lat="36.7866230" lon="-3.0679030">
        <ele>574.6</ele>
        <time>2022-11-01T10:16:00Z</time>
      </trkpt>
      <trkpt lat="36.7866130" lon="-3.0678780">
        <ele>574.8</ele>
        <time>2022-11-01T10:16:01Z</time>
      </trkpt>
      <trkpt lat="36.7866030" lon="-3.0678550">
        <ele>575.0</ele>
        <time>2022-11-01T10:16:02Z</time>
      </trkpt>
      <trkpt lat="36.7865960" lon="-3.0678310">
        <ele>575.4</ele>
        <time>2022-11-01T10:16:03Z</time>
      </trkpt>
      <trkpt lat="36.7865900" lon="-3.0678070">
        <ele>575.4</ele>
        <time>2022-11-01T10:16:04Z</time>
      </trkpt>
      <trkpt lat="36.7865820" lon="-3.0677830">
        <ele>575.8</ele>
        <time>2022-11-01T10:16:05Z</time>
      </trkpt>
      <trkpt lat="36.7865760" lon="-3.0677580">
        <ele>576.0</ele>
        <time>2022-11-01T10:16:06Z</time>
      </trkpt>
      <trkpt lat="36.7865710" lon="-3.0677330">
        <ele>576.2</ele>
        <time>2022-11-01T10:16:07Z</time>
      </trkpt>
      <trkpt lat="36.7865660" lon="-3.0677060">
        <ele>576.2</ele>
        <time>2022-11-01T10:16:08Z</time>
      </trkpt>
      <trkpt lat="36.7865620" lon="-3.0676790">
        <ele>576.6</ele>
        <time>2022-11-01T10:16:09Z</time>
      </trkpt>
      <trkpt lat="36.7865580" lon="-3.0676510">
        <ele>576.8</ele>
        <time>2022-11-01T10:16:10Z</time>
      </trkpt>
      <trkpt lat="36.7865560" lon="-3.0676280">
        <ele>577.0</ele>
        <time>2022-11-01T10:16:11Z</time>
      </trkpt>
      <trkpt lat="36.7865510" lon="-3.0676030">
        <ele>577.2</ele>
        <time>2022-11-01T10:16:12Z</time>
      </trkpt>
      <trkpt lat="36.7865440" lon="-3.0675800">
        <ele>577.6</ele>
        <time>2022-11-01T10:16:13Z</time>
      </trkpt>
      <trkpt lat="36.7865370" lon="-3.0675560">
        <ele>577.8</ele>
        <time>2022-11-01T10:16:14Z</time>
      </trkpt>
      <trkpt lat="36.7865290" lon="-3.0675320">
        <ele>578.0</ele>
        <time>2022-11-01T10:16:15Z</time>
      </trkpt>
      <trkpt lat="36.7865200" lon="-3.0675120">
        <ele>578.2</ele>
        <time>2022-11-01T10:16:16Z</time>
      </trkpt>
      <trkpt lat="36.7865110" lon="-3.0674930">
        <ele>578.4</ele>
        <time>2022-11-01T10:16:17Z</time>
      </trkpt>
      <trkpt lat="36.7865020" lon="-3.0674700">
        <ele>578.8</ele>
        <time>2022-11-01T10:16:18Z</time>
      </trkpt>
      <trkpt lat="36.7864910" lon="-3.0674490">
        <ele>579.0</ele>
        <time>2022-11-01T10:16:19Z</time>
      </trkpt>
      <trkpt lat="36.7864780" lon="-3.0674270">
        <ele>579.0</ele>
        <time>2022-11-01T10:16:20Z</time>
      </trkpt>
      <trkpt lat="36.7864630" lon="-3.0674060">
        <ele>579.2</ele>
        <time>2022-11-01T10:16:21Z</time>
      </trkpt>
      <trkpt lat="36.7864470" lon="-3.0673900">
        <ele>579.4</ele>
        <time>2022-11-01T10:16:22Z</time>
      </trkpt>
      <trkpt lat="36.7864310" lon="-3.0673730">
        <ele>579.6</ele>
        <time>2022-11-01T10:16:23Z</time>
      </trkpt>
      <trkpt lat="36.7864140" lon="-3.0673590">
        <ele>579.8</ele>
        <time>2022-11-01T10:16:24Z</time>
      </trkpt>
      <trkpt lat="36.7863970" lon="-3.0673430">
        <ele>580.0</ele>
        <time>2022-11-01T10:16:25Z</time>
      </trkpt>
      <trkpt lat="36.7863810" lon="-3.0673280">
        <ele>580.2</ele>
        <time>2022-11-01T10:16:26Z</time>
      </trkpt>
      <trkpt lat="36.7863650" lon="-3.0673130">
        <ele>580.4</ele>
        <time>2022-11-01T10:16:27Z</time>
      </trkpt>
      <trkpt lat="36.7863490" lon="-3.0672970">
        <ele>580.6</ele>
        <time>2022-11-01T10:16:28Z</time>
      </trkpt>
      <trkpt lat="36.7863320" lon="-3.0672820">
        <ele>580.8</ele>
        <time>2022-11-01T10:16:29Z</time>
      </trkpt>
      <trkpt lat="36.7863160" lon="-3.0672660">
        <ele>581.0</ele>
        <time>2022-11-01T10:16:30Z</time>
      </trkpt>
      <trkpt lat="36.7863010" lon="-3.0672490">
        <ele>581.0</ele>
        <time>2022-11-01T10:16:31Z</time>
      </trkpt>
      <trkpt lat="36.7862860" lon="-3.0672310">
        <ele>581.2</ele>
        <time>2022-11-01T10:16:32Z</time>
      </trkpt>
      <trkpt lat="36.7862690" lon="-3.0672140">
        <ele>581.4</ele>
        <time>2022-11-01T10:16:33Z</time>
      </trkpt>
      <trkpt lat="36.7862530" lon="-3.0671960">
        <ele>581.6</ele>
        <time>2022-11-01T10:16:34Z</time>
      </trkpt>
      <trkpt lat="36.7862370" lon="-3.0671790">
        <ele>581.8</ele>
        <time>2022-11-01T10:16:35Z</time>
      </trkpt>
      <trkpt lat="36.7862230" lon="-3.0671600">
        <ele>582.0</ele>
        <time>2022-11-01T10:16:36Z</time>
      </trkpt>
      <trkpt lat="36.7862070" lon="-3.0671420">
        <ele>582.2</ele>
        <time>2022-11-01T10:16:37Z</time>
      </trkpt>
      <trkpt lat="36.7861940" lon="-3.0671230">
        <ele>582.4</ele>
        <time>2022-11-01T10:16:38Z</time>
      </trkpt>
      <trkpt lat="36.7861820" lon="-3.0671010">
        <ele>582.6</ele>
        <time>2022-11-01T10:16:39Z</time>
      </trkpt>
      <trkpt lat="36.7861690" lon="-3.0670790">
        <ele>582.8</ele>
        <time>2022-11-01T10:16:40Z</time>
      </trkpt>
      <trkpt lat="36.7861560" lon="-3.0670590">
        <ele>583.0</ele>
        <time>2022-11-01T10:16:41Z</time>
      </trkpt>
      <trkpt lat="36.7861440" lon="-3.0670380">
        <ele>583.2</ele>
        <time>2022-11-01T10:16:42Z</time>
      </trkpt>
      <trkpt lat="36.7861310" lon="-3.0670160">
        <ele>583.4</ele>
        <time>2022-11-01T10:16:43Z</time>
      </trkpt>
      <trkpt lat="36.7861210" lon="-3.0669950">
        <ele>583.6</ele>
        <time>2022-11-01T10:16:44Z</time>
      </trkpt>
      <trkpt lat="36.7861090" lon="-3.0669740">
        <ele>583.8</ele>
        <time>2022-11-01T10:16:45Z</time>
      </trkpt>
      <trkpt lat="36.7861010" lon="-3.0669500">
        <ele>584.0</ele>
        <time>2022-11-01T10:16:46Z</time>
      </trkpt>
      <trkpt lat="36.7860930" lon="-3.0669260">
        <ele>584.2</ele>
        <time>2022-11-01T10:16:47Z</time>
      </trkpt>
      <trkpt lat="36.7860830" lon="-3.0669030">
        <ele>584.4</ele>
        <time>2022-11-01T10:16:48Z</time>
      </trkpt>
      <trkpt lat="36.7860730" lon="-3.0668810">
        <ele>584.4</ele>
        <time>2022-11-01T10:16:49Z</time>
      </trkpt>
      <trkpt lat="36.7860640" lon="-3.0668580">
        <ele>584.6</ele>
        <time>2022-11-01T10:16:50Z</time>
      </trkpt>
      <trkpt lat="36.7860560" lon="-3.0668350">
        <ele>584.8</ele>
        <time>2022-11-01T10:16:51Z</time>
      </trkpt>
      <trkpt lat="36.7860530" lon="-3.0668100">
        <ele>585.0</ele>
        <time>2022-11-01T10:16:52Z</time>
      </trkpt>
      <trkpt lat="36.7860490" lon="-3.0667850">
        <ele>585.2</ele>
        <time>2022-11-01T10:16:53Z</time>
      </trkpt>
      <trkpt lat="36.7860470" lon="-3.0667600">
        <ele>585.2</ele>
        <time>2022-11-01T10:16:54Z</time>
      </trkpt>
      <trkpt lat="36.7860460" lon="-3.0667340">
        <ele>585.4</ele>
        <time>2022-11-01T10:16:55Z</time>
      </trkpt>
      <trkpt lat="36.7860470" lon="-3.0667090">
        <ele>585.6</ele>
        <time>2022-11-01T10:16:56Z</time>
      </trkpt>
      <trkpt lat="36.7860490" lon="-3.0666830">
        <ele>585.8</ele>
        <time>2022-11-01T10:16:57Z</time>
      </trkpt>
      <trkpt lat="36.7860530" lon="-3.0666570">
        <ele>585.8</ele>
        <time>2022-11-01T10:16:58Z</time>
      </trkpt>
      <trkpt lat="36.7860570" lon="-3.0666300">
        <ele>586.0</ele>
        <time>2022-11-01T10:16:59Z</time>
      </trkpt>
      <trkpt lat="36.7860610" lon="-3.0666060">
        <ele>586.2</ele>
        <time>2022-11-01T10:17:00Z</time>
      </trkpt>
      <trkpt lat="36.7860660" lon="-3.0665820">
        <ele>586.4</ele>
        <time>2022-11-01T10:17:01Z</time>
      </trkpt>
      <trkpt lat="36.7860750" lon="-3.0665600">
        <ele>586.6</ele>
        <time>2022-11-01T10:17:02Z</time>
      </trkpt>
      <trkpt lat="36.7860840" lon="-3.0665370">
        <ele>586.8</ele>
        <time>2022-11-01T10:17:03Z</time>
      </trkpt>
      <trkpt lat="36.7860920" lon="-3.0665130">
        <ele>587.0</ele>
        <time>2022-11-01T10:17:04Z</time>
      </trkpt>
      <trkpt lat="36.7861000" lon="-3.0664900">
        <ele>587.2</ele>
        <time>2022-11-01T10:17:05Z</time>
      </trkpt>
      <trkpt lat="36.7861080" lon="-3.0664660">
        <ele>587.2</ele>
        <time>2022-11-01T10:17:06Z</time>
      </trkpt>
      <trkpt lat="36.7861130" lon="-3.0664410">
        <ele>587.4</ele>
        <time>2022-11-01T10:17:07Z</time>
      </trkpt>
      <trkpt lat="36.7861170" lon="-3.0664160">
        <ele>587.6</ele>
        <time>2022-11-01T10:17:08Z</time>
      </trkpt>
      <trkpt lat="36.7861210" lon="-3.0663930">
        <ele>587.8</ele>
        <time>2022-11-01T10:17:09Z</time>
      </trkpt>
      <trkpt lat="36.7861270" lon="-3.0663690">
        <ele>588.0</ele>
        <time>2022-11-01T10:17:10Z</time>
      </trkpt>
      <trkpt lat="36.7861330" lon="-3.0663470">
        <ele>588.2</ele>
        <time>2022-11-01T10:17:11Z</time>
      </trkpt>
      <trkpt lat="36.7861340" lon="-3.0663220">
        <ele>588.4</ele>
        <time>2022-11-01T10:17:12Z</time>
      </trkpt>
      <trkpt lat="36.7861320" lon="-3.0662970">
        <ele>588.6</ele>
        <time>2022-11-01T10:17:13Z</time>
      </trkpt>
      <trkpt lat="36.7861280" lon="-3.0662720">
        <ele>588.6</ele>
        <time>2022-11-01T10:17:14Z</time>
      </trkpt>
      <trkpt lat="36.7861220" lon="-3.0662470">
        <ele>588.8</ele>
        <time>2022-11-01T10:17:15Z</time>
      </trkpt>
      <trkpt lat="36.7861130" lon="-3.0662230">
        <ele>589.0</ele>
        <time>2022-11-01T10:17:16Z</time>
      </trkpt>
      <trkpt lat="36.7861060" lon="-3.0662040">
        <ele>589.2</ele>
        <time>2022-11-01T10:17:17Z</time>
      </trkpt>
      <trkpt lat="36.7860930" lon="-3.0661890">
        <ele>589.4</ele>
        <time>2022-11-01T10:17:18Z</time>
      </trkpt>
      <trkpt lat="36.7860770" lon="-3.0661770">
        <ele>589.6</ele>
        <time>2022-11-01T10:17:19Z</time>
      </trkpt>
      <trkpt lat="36.7860590" lon="-3.0661660">
        <ele>590.0</ele>
        <time>2022-11-01T10:17:20Z</time>
      </trkpt>
      <trkpt lat="36.7860420" lon="-3.0661540">
        <ele>590.2</ele>
        <time>2022-11-01T10:17:21Z</time>
      </trkpt>
      <trkpt lat="36.7860270" lon="-3.0661410">
        <ele>590.4</ele>
        <time>2022-11-01T10:17:22Z</time>
      </trkpt>
      <trkpt lat="36.7860110" lon="-3.0661260">
        <ele>590.6</ele>
        <time>2022-11-01T10:17:23Z</time>
      </trkpt>
      <trkpt lat="36.7859940" lon="-3.0661130">
        <ele>591.0</ele>
        <time>2022-11-01T10:17:24Z</time>
      </trkpt>
      <trkpt lat="36.7859780" lon="-3.0661020">
        <ele>591.4</ele>
        <time>2022-11-01T10:17:25Z</time>
      </trkpt>
      <trkpt lat="36.7859620" lon="-3.0660890">
        <ele>591.6</ele>
        <time>2022-11-01T10:17:26Z</time>
      </trkpt>
      <trkpt lat="36.7859480" lon="-3.0660720">
        <ele>591.8</ele>
        <time>2022-11-01T10:17:27Z</time>
      </trkpt>
      <trkpt lat="36.7859350" lon="-3.0660560">
        <ele>592.2</ele>
        <time>2022-11-01T10:17:28Z</time>
      </trkpt>
      <trkpt lat="36.7859200" lon="-3.0660420">
        <ele>592.4</ele>
        <time>2022-11-01T10:17:29Z</time>
      </trkpt>
      <trkpt lat="36.7859030" lon="-3.0660290">
        <ele>592.8</ele>
        <time>2022-11-01T10:17:30Z</time>
      </trkpt>
      <trkpt lat="36.7858890" lon="-3.0660120">
        <ele>593.0</ele>
        <time>2022-11-01T10:17:31Z</time>
      </trkpt>
      <trkpt lat="36.7858750" lon="-3.0659920">
        <ele>593.2</ele>
        <time>2022-11-01T10:17:32Z</time>
      </trkpt>
      <trkpt lat="36.7858630" lon="-3.0659750">
        <ele>593.4</ele>
        <time>2022-11-01T10:17:33Z</time>
      </trkpt>
      <trkpt lat="36.7858490" lon="-3.0659610">
        <ele>593.8</ele>
        <time>2022-11-01T10:17:34Z</time>
      </trkpt>
      <trkpt lat="36.7858340" lon="-3.0659490">
        <ele>594.0</ele>
        <time>2022-11-01T10:17:35Z</time>
      </trkpt>
      <trkpt lat="36.7858200" lon="-3.0659360">
        <ele>594.2</ele>
        <time>2022-11-01T10:17:36Z</time>
      </trkpt>
      <trkpt lat="36.7858090" lon="-3.0659190">
        <ele>594.4</ele>
        <time>2022-11-01T10:17:37Z</time>
      </trkpt>
      <trkpt lat="36.7857970" lon="-3.0659010">
        <ele>594.6</ele>
        <time>2022-11-01T10:17:38Z</time>
      </trkpt>
      <trkpt lat="36.7857840" lon="-3.0658860">
        <ele>594.8</ele>
        <time>2022-11-01T10:17:39Z</time>
      </trkpt>
      <trkpt lat="36.7857720" lon="-3.0658680">
        <ele>595.2</ele>
        <time>2022-11-01T10:17:40Z</time>
      </trkpt>
      <trkpt lat="36.7857610" lon="-3.0658470">
        <ele>595.4</ele>
        <time>2022-11-01T10:17:41Z</time>
      </trkpt>
      <trkpt lat="36.7857530" lon="-3.0658260">
        <ele>595.6</ele>
        <time>2022-11-01T10:17:42Z</time>
      </trkpt>
      <trkpt lat="36.7857440" lon="-3.0658050">
        <ele>595.6</ele>
        <time>2022-11-01T10:17:43Z</time>
      </trkpt>
      <trkpt lat="36.7857350" lon="-3.0657860">
        <ele>595.8</ele>
        <time>2022-11-01T10:17:44Z</time>
      </trkpt>
      <trkpt lat="36.7857270" lon="-3.0657660">
        <ele>596.2</ele>
        <time>2022-11-01T10:17:45Z</time>
      </trkpt>
      <trkpt lat="36.7857190" lon="-3.0657460">
        <ele>596.2</ele>
        <time>2022-11-01T10:17:46Z</time>
      </trkpt>
      <trkpt lat="36.7857130" lon="-3.0657230">
        <ele>596.4</ele>
        <time>2022-11-01T10:17:47Z</time>
      </trkpt>
      <trkpt lat="36.7857090" lon="-3.0656990">
        <ele>596.6</ele>
        <time>2022-11-01T10:17:48Z</time>
      </trkpt>
      <trkpt lat="36.7857060" lon="-3.0656750">
        <ele>596.8</ele>
        <time>2022-11-01T10:17:49Z</time>
      </trkpt>
      <trkpt lat="36.7856990" lon="-3.0656520">
        <ele>597.0</ele>
        <time>2022-11-01T10:17:50Z</time>
      </trkpt>
      <trkpt lat="36.7856900" lon="-3.0656290">
        <ele>597.2</ele>
        <time>2022-11-01T10:17:51Z</time>
      </trkpt>
      <trkpt lat="36.7856870" lon="-3.0656060">
        <ele>597.4</ele>
        <time>2022-11-01T10:17:52Z</time>
      </trkpt>
      <trkpt lat="36.7856880" lon="-3.0655820">
        <ele>597.6</ele>
        <time>2022-11-01T10:17:53Z</time>
      </trkpt>
      <trkpt lat="36.7856880" lon="-3.0655580">
        <ele>597.8</ele>
        <time>2022-11-01T10:17:54Z</time>
      </trkpt>
      <trkpt lat="36.7856820" lon="-3.0655340">
        <ele>598.0</ele>
        <time>2022-11-01T10:17:55Z</time>
      </trkpt>
      <trkpt lat="36.7856770" lon="-3.0655090">
        <ele>598.2</ele>
        <time>2022-11-01T10:17:56Z</time>
      </trkpt>
      <trkpt lat="36.7856720" lon="-3.0654860">
        <ele>598.4</ele>
        <time>2022-11-01T10:17:57Z</time>
      </trkpt>
      <trkpt lat="36.7856680" lon="-3.0654620">
        <ele>598.4</ele>
        <time>2022-11-01T10:17:58Z</time>
      </trkpt>
      <trkpt lat="36.7856670" lon="-3.0654370">
        <ele>598.6</ele>
        <time>2022-11-01T10:17:59Z</time>
      </trkpt>
      <trkpt lat="36.7856640" lon="-3.0654100">
        <ele>598.8</ele>
        <time>2022-11-01T10:18:00Z</time>
      </trkpt>
      <trkpt lat="36.7856600" lon="-3.0653850">
        <ele>599.0</ele>
        <time>2022-11-01T10:18:01Z</time>
      </trkpt>
      <trkpt lat="36.7856540" lon="-3.0653620">
        <ele>599.2</ele>
        <time>2022-11-01T10:18:02Z</time>
      </trkpt>
      <trkpt lat="36.7856510" lon="-3.0653390">
        <ele>599.4</ele>
        <time>2022-11-01T10:18:03Z</time>
      </trkpt>
      <trkpt lat="36.7856480" lon="-3.0653160">
        <ele>599.4</ele>
        <time>2022-11-01T10:18:04Z</time>
      </trkpt>
      <trkpt lat="36.7856460" lon="-3.0652930">
        <ele>599.6</ele>
        <time>2022-11-01T10:18:05Z</time>
      </trkpt>
      <trkpt lat="36.7856430" lon="-3.0652690">
        <ele>599.8</ele>
        <time>2022-11-01T10:18:06Z</time>
      </trkpt>
      <trkpt lat="36.7856410" lon="-3.0652450">
        <ele>600.0</ele>
        <time>2022-11-01T10:18:07Z</time>
      </trkpt>
      <trkpt lat="36.7856370" lon="-3.0652190">
        <ele>600.2</ele>
        <time>2022-11-01T10:18:08Z</time>
      </trkpt>
      <trkpt lat="36.7856320" lon="-3.0651940">
        <ele>600.4</ele>
        <time>2022-11-01T10:18:09Z</time>
      </trkpt>
      <trkpt lat="36.7856280" lon="-3.0651700">
        <ele>600.4</ele>
        <time>2022-11-01T10:18:10Z</time>
      </trkpt>
      <trkpt lat="36.7856230" lon="-3.0651450">
        <ele>600.6</ele>
        <time>2022-11-01T10:18:11Z</time>
      </trkpt>
      <trkpt lat="36.7856170" lon="-3.0651190">
        <ele>600.6</ele>
        <time>2022-11-01T10:18:12Z</time>
      </trkpt>
      <trkpt lat="36.7856120" lon="-3.0650900">
        <ele>600.8</ele>
        <time>2022-11-01T10:18:13Z</time>
      </trkpt>
      <trkpt lat="36.7856060" lon="-3.0650600">
        <ele>601.0</ele>
        <time>2022-11-01T10:18:14Z</time>
      </trkpt>
      <trkpt lat="36.7855990" lon="-3.0650290">
        <ele>601.0</ele>
        <time>2022-11-01T10:18:15Z</time>
      </trkpt>
      <trkpt lat="36.7855910" lon="-3.0649960">
        <ele>601.0</ele>
        <time>2022-11-01T10:18:16Z</time>
      </trkpt>
      <trkpt lat="36.7855800" lon="-3.0649650">
        <ele>601.0</ele>
        <time>2022-11-01T10:18:17Z</time>
      </trkpt>
      <trkpt lat="36.7855640" lon="-3.0649300">
        <ele>601.0</ele>
        <time>2022-11-01T10:18:18Z</time>
      </trkpt>
      <trkpt lat="36.7855440" lon="-3.0648910">
        <ele>600.8</ele>
        <time>2022-11-01T10:18:19Z</time>
      </trkpt>
      <trkpt lat="36.7855210" lon="-3.0648540">
        <ele>600.8</ele>
        <time>2022-11-01T10:18:20Z</time>
      </trkpt>
      <trkpt lat="36.7854920" lon="-3.0648190">
        <ele>600.8</ele>
        <time>2022-11-01T10:18:21Z</time>
      </trkpt>
      <trkpt lat="36.7854580" lon="-3.0647880">
        <ele>600.6</ele>
        <time>2022-11-01T10:18:22Z</time>
      </trkpt>
      <trkpt lat="36.7854230" lon="-3.0647570">
        <ele>600.4</ele>
        <time>2022-11-01T10:18:23Z</time>
      </trkpt>
      <trkpt lat="36.7853830" lon="-3.0647270">
        <ele>600.4</ele>
        <time>2022-11-01T10:18:24Z</time>
      </trkpt>
      <trkpt lat="36.7853400" lon="-3.0646950">
        <ele>600.2</ele>
        <time>2022-11-01T10:18:25Z</time>
      </trkpt>
      <trkpt lat="36.7852940" lon="-3.0646660">
        <ele>600.0</ele>
        <time>2022-11-01T10:18:26Z</time>
      </trkpt>
      <trkpt lat="36.7852450" lon="-3.0646340">
        <ele>599.8</ele>
        <time>2022-11-01T10:18:27Z</time>
      </trkpt>
      <trkpt lat="36.7851960" lon="-3.0645990">
        <ele>599.8</ele>
        <time>2022-11-01T10:18:28Z</time>
      </trkpt>
      <trkpt lat="36.7851460" lon="-3.0645650">
        <ele>599.4</ele>
        <time>2022-11-01T10:18:29Z</time>
      </trkpt>
      <trkpt lat="36.7850970" lon="-3.0645260">
        <ele>599.4</ele>
        <time>2022-11-01T10:18:30Z</time>
      </trkpt>
      <trkpt lat="36.7850520" lon="-3.0644830">
        <ele>599.2</ele>
        <time>2022-11-01T10:18:31Z</time>
      </trkpt>
      <trkpt lat="36.7850130" lon="-3.0644330">
        <ele>599.0</ele>
        <time>2022-11-01T10:18:32Z</time>
      </trkpt>
      <trkpt lat="36.7849790" lon="-3.0643660">
        <ele>599.0</ele>
        <time>2022-11-01T10:18:33Z</time>
      </trkpt>
      <trkpt lat="36.7849420" lon="-3.0643190">
        <ele>598.8</ele>
        <time>2022-11-01T10:18:34Z</time>
      </trkpt>
      <trkpt lat="36.7848930" lon="-3.0642900">
        <ele>598.4</ele>
        <time>2022-11-01T10:18:35Z</time>
      </trkpt>
      <trkpt lat="36.7848380" lon="-3.0642860">
        <ele>598.4</ele>
        <time>2022-11-01T10:18:36Z</time>
      </trkpt>
      <trkpt lat="36.7847870" lon="-3.0643070">
        <ele>598.6</ele>
        <time>2022-11-01T10:18:37Z</time>
      </trkpt>
      <trkpt lat="36.7847450" lon="-3.0643430">
        <ele>598.8</ele>
        <time>2022-11-01T10:18:38Z</time>
      </trkpt>
      <trkpt lat="36.7847100" lon="-3.0643780">
        <ele>599.0</ele>
        <time>2022-11-01T10:18:39Z</time>
      </trkpt>
      <trkpt lat="36.7846730" lon="-3.0644090">
        <ele>599.2</ele>
        <time>2022-11-01T10:18:40Z</time>
      </trkpt>
      <trkpt lat="36.7846380" lon="-3.0644390">
        <ele>599.6</ele>
        <time>2022-11-01T10:18:41Z</time>
      </trkpt>
      <trkpt lat="36.7846020" lon="-3.0644660">
        <ele>599.8</ele>
        <time>2022-11-01T10:18:42Z</time>
      </trkpt>
      <trkpt lat="36.7845660" lon="-3.0644890">
        <ele>600.0</ele>
        <time>2022-11-01T10:18:43Z</time>
      </trkpt>
      <trkpt lat="36.7845290" lon="-3.0645090">
        <ele>600.2</ele>
        <time>2022-11-01T10:18:44Z</time>
      </trkpt>
      <trkpt lat="36.7844920" lon="-3.0645260">
        <ele>600.4</ele>
        <time>2022-11-01T10:18:45Z</time>
      </trkpt>
      <trkpt lat="36.7844540" lon="-3.0645400">
        <ele>600.4</ele>
        <time>2022-11-01T10:18:46Z</time>
      </trkpt>
      <trkpt lat="36.7844160" lon="-3.0645500">
        <ele>600.6</ele>
        <time>2022-11-01T10:18:47Z</time>
      </trkpt>
      <trkpt lat="36.7843760" lon="-3.0645540">
        <ele>600.8</ele>
        <time>2022-11-01T10:18:48Z</time>
      </trkpt>
      <trkpt lat="36.7843370" lon="-3.0645520">
        <ele>601.0</ele>
        <time>2022-11-01T10:18:49Z</time>
      </trkpt>
      <trkpt lat="36.7842970" lon="-3.0645470">
        <ele>601.2</ele>
        <time>2022-11-01T10:18:50Z</time>
      </trkpt>
      <trkpt lat="36.7842560" lon="-3.0645420">
        <ele>601.2</ele>
        <time>2022-11-01T10:18:51Z</time>
      </trkpt>
      <trkpt lat="36.7842180" lon="-3.0645310">
        <ele>601.4</ele>
        <time>2022-11-01T10:18:52Z</time>
      </trkpt>
      <trkpt lat="36.7841810" lon="-3.0645160">
        <ele>601.6</ele>
        <time>2022-11-01T10:18:53Z</time>
      </trkpt>
      <trkpt lat="36.7841470" lon="-3.0644960">
        <ele>601.8</ele>
        <time>2022-11-01T10:18:54Z</time>
      </trkpt>
      <trkpt lat="36.7841150" lon="-3.0644720">
        <ele>601.8</ele>
        <time>2022-11-01T10:18:55Z</time>
      </trkpt>
      <trkpt lat="36.7840860" lon="-3.0644430">
        <ele>602.0</ele>
        <time>2022-11-01T10:18:56Z</time>
      </trkpt>
      <trkpt lat="36.7840590" lon="-3.0644090">
        <ele>602.2</ele>
        <time>2022-11-01T10:18:57Z</time>
      </trkpt>
      <trkpt lat="36.7840340" lon="-3.0643740">
        <ele>602.2</ele>
        <time>2022-11-01T10:18:58Z</time>
      </trkpt>
      <trkpt lat="36.7840090" lon="-3.0643380">
        <ele>602.6</ele>
        <time>2022-11-01T10:18:59Z</time>
      </trkpt>
      <trkpt lat="36.7839880" lon="-3.0643010">
        <ele>602.6</ele>
        <time>2022-11-01T10:19:00Z</time>
      </trkpt>
      <trkpt lat="36.7839650" lon="-3.0642640">
        <ele>602.8</ele>
        <time>2022-11-01T10:19:01Z</time>
      </trkpt>
      <trkpt lat="36.7839410" lon="-3.0642280">
        <ele>603.0</ele>
        <time>2022-11-01T10:19:02Z</time>
      </trkpt>
      <trkpt lat="36.7839190" lon="-3.0641940">
        <ele>603.2</ele>
        <time>2022-11-01T10:19:03Z</time>
      </trkpt>
      <trkpt lat="36.7838980" lon="-3.0641640">
        <ele>603.4</ele>
        <time>2022-11-01T10:19:04Z</time>
      </trkpt>
      <trkpt lat="36.7838780" lon="-3.0641350">
        <ele>603.6</ele>
        <time>2022-11-01T10:19:05Z</time>
      </trkpt>
      <trkpt lat="36.7838560" lon="-3.0641060">
        <ele>603.8</ele>
        <time>2022-11-01T10:19:06Z</time>
      </trkpt>
      <trkpt lat="36.7838340" lon="-3.0640750">
        <ele>604.0</ele>
        <time>2022-11-01T10:19:07Z</time>
      </trkpt>
      <trkpt lat="36.7838110" lon="-3.0640440">
        <ele>604.2</ele>
        <time>2022-11-01T10:19:08Z</time>
      </trkpt>
      <trkpt lat="36.7837850" lon="-3.0640170">
        <ele>604.4</ele>
        <time>2022-11-01T10:19:09Z</time>
      </trkpt>
      <trkpt lat="36.7837610" lon="-3.0639910">
        <ele>604.6</ele>
        <time>2022-11-01T10:19:10Z</time>
      </trkpt>
      <trkpt lat="36.7837340" lon="-3.0639680">
        <ele>604.8</ele>
        <time>2022-11-01T10:19:11Z</time>
      </trkpt>
      <trkpt lat="36.7837070" lon="-3.0639480">
        <ele>605.0</ele>
        <time>2022-11-01T10:19:12Z</time>
      </trkpt>
      <trkpt lat="36.7836800" lon="-3.0639290">
        <ele>605.2</ele>
        <time>2022-11-01T10:19:13Z</time>
      </trkpt>
      <trkpt lat="36.7836560" lon="-3.0639060">
        <ele>605.4</ele>
        <time>2022-11-01T10:19:14Z</time>
      </trkpt>
      <trkpt lat="36.7836310" lon="-3.0638840">
        <ele>605.4</ele>
        <time>2022-11-01T10:19:15Z</time>
      </trkpt>
      <trkpt lat="36.7836100" lon="-3.0638620">
        <ele>605.6</ele>
        <time>2022-11-01T10:19:16Z</time>
      </trkpt>
      <trkpt lat="36.7835890" lon="-3.0638400">
        <ele>605.8</ele>
        <time>2022-11-01T10:19:17Z</time>
      </trkpt>
      <trkpt lat="36.7835670" lon="-3.0638210">
        <ele>606.0</ele>
        <time>2022-11-01T10:19:18Z</time>
      </trkpt>
      <trkpt lat="36.7835470" lon="-3.0638040">
        <ele>606.0</ele>
        <time>2022-11-01T10:19:19Z</time>
      </trkpt>
      <trkpt lat="36.7835120" lon="-3.0637870">
        <ele>605.8</ele>
        <time>2022-11-01T10:19:20Z</time>
      </trkpt>
      <trkpt lat="36.7834680" lon="-3.0637740">
        <ele>605.8</ele>
        <time>2022-11-01T10:19:21Z</time>
      </trkpt>
      <trkpt lat="36.7834230" lon="-3.0637720">
        <ele>605.6</ele>
        <time>2022-11-01T10:19:22Z</time>
      </trkpt>
      <trkpt lat="36.7833770" lon="-3.0637860">
        <ele>605.6</ele>
        <time>2022-11-01T10:19:23Z</time>
      </trkpt>
      <trkpt lat="36.7833410" lon="-3.0638230">
        <ele>605.4</ele>
        <time>2022-11-01T10:19:24Z</time>
      </trkpt>
      <trkpt lat="36.7833280" lon="-3.0638750">
        <ele>605.4</ele>
        <time>2022-11-01T10:19:25Z</time>
      </trkpt>
      <trkpt lat="36.7833360" lon="-3.0639280">
        <ele>605.4</ele>
        <time>2022-11-01T10:19:26Z</time>
      </trkpt>
      <trkpt lat="36.7833530" lon="-3.0639780">
        <ele>605.2</ele>
        <time>2022-11-01T10:19:27Z</time>
      </trkpt>
      <trkpt lat="36.7833710" lon="-3.0640370">
        <ele>605.0</ele>
        <time>2022-11-01T10:19:28Z</time>
      </trkpt>
      <trkpt lat="36.7833920" lon="-3.0641000">
        <ele>604.8</ele>
        <time>2022-11-01T10:19:29Z</time>
      </trkpt>
      <trkpt lat="36.7834070" lon="-3.0641720">
        <ele>604.4</ele>
        <time>2022-11-01T10:19:30Z</time>
      </trkpt>
      <trkpt lat="36.7834140" lon="-3.0642500">
        <ele>604.2</ele>
        <time>2022-11-01T10:19:31Z</time>
      </trkpt>
      <trkpt lat="36.7834000" lon="-3.0643340">
        <ele>603.8</ele>
        <time>2022-11-01T10:19:32Z</time>
      </trkpt>
      <trkpt lat="36.7833680" lon="-3.0644190">
        <ele>603.2</ele>
        <time>2022-11-01T10:19:33Z</time>
      </trkpt>
      <trkpt lat="36.7833220" lon="-3.0645000">
        <ele>602.8</ele>
        <time>2022-11-01T10:19:34Z</time>
      </trkpt>
      <trkpt lat="36.7832780" lon="-3.0645850">
        <ele>602.4</ele>
        <time>2022-11-01T10:19:35Z</time>
      </trkpt>
      <trkpt lat="36.7832550" lon="-3.0646870">
        <ele>601.8</ele>
        <time>2022-11-01T10:19:36Z</time>
      </trkpt>
      <trkpt lat="36.7832540" lon="-3.0647880">
        <ele>601.6</ele>
        <time>2022-11-01T10:19:37Z</time>
      </trkpt>
      <trkpt lat="36.7832720" lon="-3.0648840">
        <ele>601.2</ele>
        <time>2022-11-01T10:19:38Z</time>
      </trkpt>
      <trkpt lat="36.7832890" lon="-3.0649780">
        <ele>600.6</ele>
        <time>2022-11-01T10:19:39Z</time>
      </trkpt>
      <trkpt lat="36.7832920" lon="-3.0650880">
        <ele>600.2</ele>
        <time>2022-11-01T10:19:40Z</time>
      </trkpt>
      <trkpt lat="36.7832870" lon="-3.0651990">
        <ele>599.8</ele>
        <time>2022-11-01T10:19:41Z</time>
      </trkpt>
      <trkpt lat="36.7832780" lon="-3.0653160">
        <ele>599.2</ele>
        <time>2022-11-01T10:19:42Z</time>
      </trkpt>
      <trkpt lat="36.7832690" lon="-3.0654260">
        <ele>599.0</ele>
        <time>2022-11-01T10:19:43Z</time>
      </trkpt>
      <trkpt lat="36.7832530" lon="-3.0655210">
        <ele>598.6</ele>
        <time>2022-11-01T10:19:44Z</time>
      </trkpt>
      <trkpt lat="36.7832210" lon="-3.0656020">
        <ele>598.2</ele>
        <time>2022-11-01T10:19:45Z</time>
      </trkpt>
      <trkpt lat="36.7831720" lon="-3.0656730">
        <ele>598.0</ele>
        <time>2022-11-01T10:19:46Z</time>
      </trkpt>
      <trkpt lat="36.7831100" lon="-3.0657360">
        <ele>597.6</ele>
        <time>2022-11-01T10:19:47Z</time>
      </trkpt>
      <trkpt lat="36.7830460" lon="-3.0657960">
        <ele>597.2</ele>
        <time>2022-11-01T10:19:48Z</time>
      </trkpt>
      <trkpt lat="36.7829810" lon="-3.0658660">
        <ele>596.8</ele>
        <time>2022-11-01T10:19:49Z</time>
      </trkpt>
      <trkpt lat="36.7829300" lon="-3.0659470">
        <ele>596.2</ele>
        <time>2022-11-01T10:19:50Z</time>
      </trkpt>
      <trkpt lat="36.7829020" lon="-3.0660300">
        <ele>595.8</ele>
        <time>2022-11-01T10:19:51Z</time>
      </trkpt>
      <trkpt lat="36.7829030" lon="-3.0661170">
        <ele>595.6</ele>
        <time>2022-11-01T10:19:52Z</time>
      </trkpt>
      <trkpt lat="36.7829320" lon="-3.0661940">
        <ele>595.2</ele>
        <time>2022-11-01T10:19:53Z</time>
      </trkpt>
      <trkpt lat="36.7829750" lon="-3.0662690">
        <ele>595.0</ele>
        <time>2022-11-01T10:19:54Z</time>
      </trkpt>
      <trkpt lat="36.7830220" lon="-3.0663430">
        <ele>594.8</ele>
        <time>2022-11-01T10:19:55Z</time>
      </trkpt>
      <trkpt lat="36.7830710" lon="-3.0664160">
        <ele>594.4</ele>
        <time>2022-11-01T10:19:56Z</time>
      </trkpt>
      <trkpt lat="36.7831180" lon="-3.0664880">
        <ele>594.2</ele>
        <time>2022-11-01T10:19:57Z</time>
      </trkpt>
      <trkpt lat="36.7831540" lon="-3.0665580">
        <ele>593.8</ele>
        <time>2022-11-01T10:19:58Z</time>
      </trkpt>
      <trkpt lat="36.7831760" lon="-3.0666160">
        <ele>593.6</ele>
        <time>2022-11-01T10:19:59Z</time>
      </trkpt>
      <trkpt lat="36.7831740" lon="-3.0666830">
        <ele>593.4</ele>
        <time>2022-11-01T10:20:00Z</time>
      </trkpt>
      <trkpt lat="36.7831450" lon="-3.0667540">
        <ele>593.2</ele>
        <time>2022-11-01T10:20:01Z</time>
      </trkpt>
      <trkpt lat="36.7831060" lon="-3.0668140">
        <ele>593.0</ele>
        <time>2022-11-01T10:20:02Z</time>
      </trkpt>
      <trkpt lat="36.7830620" lon="-3.0668700">
        <ele>592.8</ele>
        <time>2022-11-01T10:20:03Z</time>
      </trkpt>
      <trkpt lat="36.7830130" lon="-3.0669250">
        <ele>592.4</ele>
        <time>2022-11-01T10:20:04Z</time>
      </trkpt>
      <trkpt lat="36.7829540" lon="-3.0669750">
        <ele>591.8</ele>
        <time>2022-11-01T10:20:05Z</time>
      </trkpt>
      <trkpt lat="36.7828880" lon="-3.0670260">
        <ele>591.2</ele>
        <time>2022-11-01T10:20:06Z</time>
      </trkpt>
      <trkpt lat="36.7828140" lon="-3.0670820">
        <ele>590.6</ele>
        <time>2022-11-01T10:20:07Z</time>
      </trkpt>
      <trkpt lat="36.7827390" lon="-3.0671380">
        <ele>590.2</ele>
        <time>2022-11-01T10:20:08Z</time>
      </trkpt>
      <trkpt lat="36.7826660" lon="-3.0671830">
        <ele>589.8</ele>
        <time>2022-11-01T10:20:09Z</time>
      </trkpt>
      <trkpt lat="36.7825870" lon="-3.0672160">
        <ele>589.2</ele>
        <time>2022-11-01T10:20:10Z</time>
      </trkpt>
      <trkpt lat="36.7825050" lon="-3.0672360">
        <ele>588.6</ele>
        <time>2022-11-01T10:20:11Z</time>
      </trkpt>
      <trkpt lat="36.7824180" lon="-3.0672500">
        <ele>588.0</ele>
        <time>2022-11-01T10:20:12Z</time>
      </trkpt>
      <trkpt lat="36.7823230" lon="-3.0672780">
        <ele>587.4</ele>
        <time>2022-11-01T10:20:13Z</time>
      </trkpt>
      <trkpt lat="36.7822360" lon="-3.0673180">
        <ele>586.6</ele>
        <time>2022-11-01T10:20:14Z</time>
      </trkpt>
      <trkpt lat="36.7821660" lon="-3.0673640">
        <ele>586.0</ele>
        <time>2022-11-01T10:20:15Z</time>
      </trkpt>
      <trkpt lat="36.7821220" lon="-3.0674000">
        <ele>585.8</ele>
        <time>2022-11-01T10:20:16Z</time>
      </trkpt>
      <trkpt lat="36.7820910" lon="-3.0674310">
        <ele>585.2</ele>
        <time>2022-11-01T10:20:17Z</time>
      </trkpt>
      <trkpt lat="36.7820620" lon="-3.0674640">
        <ele>584.8</ele>
        <time>2022-11-01T10:20:18Z</time>
      </trkpt>
      <trkpt lat="36.7820350" lon="-3.0675010">
        <ele>584.4</ele>
        <time>2022-11-01T10:20:19Z</time>
      </trkpt>
      <trkpt lat="36.7820000" lon="-3.0675340">
        <ele>584.0</ele>
        <time>2022-11-01T10:20:20Z</time>
      </trkpt>
      <trkpt lat="36.7819580" lon="-3.0675450">
        <ele>583.6</ele>
        <time>2022-11-01T10:20:21Z</time>
      </trkpt>
      <trkpt lat="36.7819030" lon="-3.0675370">
        <ele>583.2</ele>
        <time>2022-11-01T10:20:22Z</time>
      </trkpt>
      <trkpt lat="36.7818320" lon="-3.0675110">
        <ele>582.6</ele>
        <time>2022-11-01T10:20:23Z</time>
      </trkpt>
      <trkpt lat="36.7817660" lon="-3.0674810">
        <ele>582.0</ele>
        <time>2022-11-01T10:20:24Z</time>
      </trkpt>
      <trkpt lat="36.7816950" lon="-3.0674440">
        <ele>581.4</ele>
        <time>2022-11-01T10:20:25Z</time>
      </trkpt>
      <trkpt lat="36.7816180" lon="-3.0673980">
        <ele>580.8</ele>
        <time>2022-11-01T10:20:26Z</time>
      </trkpt>
      <trkpt lat="36.7815450" lon="-3.0673460">
        <ele>580.0</ele>
        <time>2022-11-01T10:20:27Z</time>
      </trkpt>
      <trkpt lat="36.7814650" lon="-3.0672990">
        <ele>579.4</ele>
        <time>2022-11-01T10:20:28Z</time>
      </trkpt>
      <trkpt lat="36.7813820" lon="-3.0672780">
        <ele>578.6</ele>
        <time>2022-11-01T10:20:29Z</time>
      </trkpt>
      <trkpt lat="36.7812980" lon="-3.0672920">
        <ele>578.0</ele>
        <time>2022-11-01T10:20:30Z</time>
      </trkpt>
      <trkpt lat="36.7812180" lon="-3.0673390">
        <ele>577.6</ele>
        <time>2022-11-01T10:20:31Z</time>
      </trkpt>
      <trkpt lat="36.7811480" lon="-3.0674060">
        <ele>577.0</ele>
        <time>2022-11-01T10:20:32Z</time>
      </trkpt>
      <trkpt lat="36.7810810" lon="-3.0674780">
        <ele>576.6</ele>
        <time>2022-11-01T10:20:33Z</time>
      </trkpt>
      <trkpt lat="36.7810040" lon="-3.0675470">
        <ele>576.2</ele>
        <time>2022-11-01T10:20:34Z</time>
      </trkpt>
      <trkpt lat="36.7809200" lon="-3.0676110">
        <ele>575.4</ele>
        <time>2022-11-01T10:20:35Z</time>
      </trkpt>
      <trkpt lat="36.7808280" lon="-3.0676620">
        <ele>574.8</ele>
        <time>2022-11-01T10:20:36Z</time>
      </trkpt>
      <trkpt lat="36.7807310" lon="-3.0676940">
        <ele>574.0</ele>
        <time>2022-11-01T10:20:37Z</time>
      </trkpt>
      <trkpt lat="36.7806380" lon="-3.0677130">
        <ele>573.4</ele>
        <time>2022-11-01T10:20:38Z</time>
      </trkpt>
      <trkpt lat="36.7805560" lon="-3.0677070">
        <ele>572.8</ele>
        <time>2022-11-01T10:20:39Z</time>
      </trkpt>
      <trkpt lat="36.7804760" lon="-3.0676760">
        <ele>572.2</ele>
        <time>2022-11-01T10:20:40Z</time>
      </trkpt>
      <trkpt lat="36.7803930" lon="-3.0676250">
        <ele>571.8</ele>
        <time>2022-11-01T10:20:41Z</time>
      </trkpt>
      <trkpt lat="36.7803150" lon="-3.0675610">
        <ele>571.2</ele>
        <time>2022-11-01T10:20:42Z</time>
      </trkpt>
      <trkpt lat="36.7802390" lon="-3.0674880">
        <ele>570.6</ele>
        <time>2022-11-01T10:20:43Z</time>
      </trkpt>
      <trkpt lat="36.7801630" lon="-3.0674110">
        <ele>570.0</ele>
        <time>2022-11-01T10:20:44Z</time>
      </trkpt>
      <trkpt lat="36.7800810" lon="-3.0673370">
        <ele>569.2</ele>
        <time>2022-11-01T10:20:45Z</time>
      </trkpt>
      <trkpt lat="36.7799940" lon="-3.0672620">
        <ele>568.4</ele>
        <time>2022-11-01T10:20:46Z</time>
      </trkpt>
      <trkpt lat="36.7799100" lon="-3.0671850">
        <ele>568.0</ele>
        <time>2022-11-01T10:20:47Z</time>
      </trkpt>
      <trkpt lat="36.7798350" lon="-3.0670950">
        <ele>567.2</ele>
        <time>2022-11-01T10:20:48Z</time>
      </trkpt>
      <trkpt lat="36.7797760" lon="-3.0669860">
        <ele>566.6</ele>
        <time>2022-11-01T10:20:49Z</time>
      </trkpt>
      <trkpt lat="36.7797200" lon="-3.0668840">
        <ele>565.8</ele>
        <time>2022-11-01T10:20:50Z</time>
      </trkpt>
      <trkpt lat="36.7796540" lon="-3.0668080">
        <ele>565.2</ele>
        <time>2022-11-01T10:20:51Z</time>
      </trkpt>
      <trkpt lat="36.7795750" lon="-3.0667620">
        <ele>564.4</ele>
        <time>2022-11-01T10:20:52Z</time>
      </trkpt>
      <trkpt lat="36.7795020" lon="-3.0667180">
        <ele>563.8</ele>
        <time>2022-11-01T10:20:53Z</time>
      </trkpt>
      <trkpt lat="36.7794500" lon="-3.0666510">
        <ele>563.2</ele>
        <time>2022-11-01T10:20:54Z</time>
      </trkpt>
      <trkpt lat="36.7794100" lon="-3.0665730">
        <ele>562.6</ele>
        <time>2022-11-01T10:20:55Z</time>
      </trkpt>
      <trkpt lat="36.7793600" lon="-3.0664980">
        <ele>562.0</ele>
        <time>2022-11-01T10:20:56Z</time>
      </trkpt>
      <trkpt lat="36.7792880" lon="-3.0664420">
        <ele>561.6</ele>
        <time>2022-11-01T10:20:57Z</time>
      </trkpt>
      <trkpt lat="36.7792090" lon="-3.0663920">
        <ele>561.0</ele>
        <time>2022-11-01T10:20:58Z</time>
      </trkpt>
      <trkpt lat="36.7791400" lon="-3.0663280">
        <ele>560.4</ele>
        <time>2022-11-01T10:20:59Z</time>
      </trkpt>
      <trkpt lat="36.7790910" lon="-3.0662480">
        <ele>559.8</ele>
        <time>2022-11-01T10:21:00Z</time>
      </trkpt>
      <trkpt lat="36.7790490" lon="-3.0661600">
        <ele>559.2</ele>
        <time>2022-11-01T10:21:01Z</time>
      </trkpt>
      <trkpt lat="36.7789930" lon="-3.0660930">
        <ele>558.4</ele>
        <time>2022-11-01T10:21:02Z</time>
      </trkpt>
      <trkpt lat="36.7789200" lon="-3.0660610">
        <ele>557.8</ele>
        <time>2022-11-01T10:21:03Z</time>
      </trkpt>
      <trkpt lat="36.7788380" lon="-3.0660680">
        <ele>557.2</ele>
        <time>2022-11-01T10:21:04Z</time>
      </trkpt>
      <trkpt lat="36.7787580" lon="-3.0661050">
        <ele>556.8</ele>
        <time>2022-11-01T10:21:05Z</time>
      </trkpt>
      <trkpt lat="36.7786800" lon="-3.0661400">
        <ele>556.2</ele>
        <time>2022-11-01T10:21:06Z</time>
      </trkpt>
      <trkpt lat="36.7785930" lon="-3.0661470">
        <ele>555.8</ele>
        <time>2022-11-01T10:21:07Z</time>
      </trkpt>
      <trkpt lat="36.7785010" lon="-3.0661320">
        <ele>555.0</ele>
        <time>2022-11-01T10:21:08Z</time>
      </trkpt>
      <trkpt lat="36.7784050" lon="-3.0661370">
        <ele>554.2</ele>
        <time>2022-11-01T10:21:09Z</time>
      </trkpt>
      <trkpt lat="36.7783150" lon="-3.0661810">
        <ele>553.4</ele>
        <time>2022-11-01T10:21:10Z</time>
      </trkpt>
      <trkpt lat="36.7782390" lon="-3.0662570">
        <ele>552.6</ele>
        <time>2022-11-01T10:21:11Z</time>
      </trkpt>
      <trkpt lat="36.7781580" lon="-3.0663310">
        <ele>551.8</ele>
        <time>2022-11-01T10:21:12Z</time>
      </trkpt>
      <trkpt lat="36.7780680" lon="-3.0663840">
        <ele>551.0</ele>
        <time>2022-11-01T10:21:13Z</time>
      </trkpt>
      <trkpt lat="36.7779690" lon="-3.0664200">
        <ele>550.2</ele>
        <time>2022-11-01T10:21:14Z</time>
      </trkpt>
      <trkpt lat="36.7778620" lon="-3.0664410">
        <ele>549.2</ele>
        <time>2022-11-01T10:21:15Z</time>
      </trkpt>
      <trkpt lat="36.7777500" lon="-3.0664570">
        <ele>548.4</ele>
        <time>2022-11-01T10:21:16Z</time>
      </trkpt>
      <trkpt lat="36.7776390" lon="-3.0664890">
        <ele>547.6</ele>
        <time>2022-11-01T10:21:17Z</time>
      </trkpt>
      <trkpt lat="36.7775320" lon="-3.0665440">
        <ele>546.8</ele>
        <time>2022-11-01T10:21:18Z</time>
      </trkpt>
      <trkpt lat="36.7774340" lon="-3.0666000">
        <ele>545.8</ele>
        <time>2022-11-01T10:21:19Z</time>
      </trkpt>
      <trkpt lat="36.7773420" lon="-3.0666310">
        <ele>545.0</ele>
        <time>2022-11-01T10:21:20Z</time>
      </trkpt>
      <trkpt lat="36.7772550" lon="-3.0666240">
        <ele>544.4</ele>
        <time>2022-11-01T10:21:21Z</time>
      </trkpt>
      <trkpt lat="36.7771700" lon="-3.0665810">
        <ele>543.6</ele>
        <time>2022-11-01T10:21:22Z</time>
      </trkpt>
      <trkpt lat="36.7770870" lon="-3.0665170">
        <ele>543.0</ele>
        <time>2022-11-01T10:21:23Z</time>
      </trkpt>
      <trkpt lat="36.7770040" lon="-3.0664450">
        <ele>542.2</ele>
        <time>2022-11-01T10:21:24Z</time>
      </trkpt>
      <trkpt lat="36.7769100" lon="-3.0663830">
        <ele>541.4</ele>
        <time>2022-11-01T10:21:25Z</time>
      </trkpt>
      <trkpt lat="36.7768050" lon="-3.0663420">
        <ele>540.6</ele>
        <time>2022-11-01T10:21:26Z</time>
      </trkpt>
      <trkpt lat="36.7766960" lon="-3.0663080">
        <ele>539.8</ele>
        <time>2022-11-01T10:21:27Z</time>
      </trkpt>
      <trkpt lat="36.7765850" lon="-3.0662680">
        <ele>539.0</ele>
        <time>2022-11-01T10:21:28Z</time>
      </trkpt>
      <trkpt lat="36.7764740" lon="-3.0662200">
        <ele>538.2</ele>
        <time>2022-11-01T10:21:29Z</time>
      </trkpt>
      <trkpt lat="36.7763620" lon="-3.0661620">
        <ele>537.2</ele>
        <time>2022-11-01T10:21:30Z</time>
      </trkpt>
      <trkpt lat="36.7762510" lon="-3.0660970">
        <ele>536.6</ele>
        <time>2022-11-01T10:21:31Z</time>
      </trkpt>
      <trkpt lat="36.7761390" lon="-3.0660410">
        <ele>536.0</ele>
        <time>2022-11-01T10:21:32Z</time>
      </trkpt>
      <trkpt lat="36.7760220" lon="-3.0660030">
        <ele>535.2</ele>
        <time>2022-11-01T10:21:33Z</time>
      </trkpt>
      <trkpt lat="36.7759030" lon="-3.0659860">
        <ele>534.6</ele>
        <time>2022-11-01T10:21:34Z</time>
      </trkpt>
      <trkpt lat="36.7757830" lon="-3.0659710">
        <ele>534.0</ele>
        <time>2022-11-01T10:21:35Z</time>
      </trkpt>
      <trkpt lat="36.7756650" lon="-3.0659470">
        <ele>533.2</ele>
        <time>2022-11-01T10:21:36Z</time>
      </trkpt>
      <trkpt lat="36.7755460" lon="-3.0659190">
        <ele>532.4</ele>
        <time>2022-11-01T10:21:37Z</time>
      </trkpt>
      <trkpt lat="36.7754310" lon="-3.0658950">
        <ele>531.8</ele>
        <time>2022-11-01T10:21:38Z</time>
      </trkpt>
      <trkpt lat="36.7753240" lon="-3.0658900">
        <ele>531.2</ele>
        <time>2022-11-01T10:21:39Z</time>
      </trkpt>
      <trkpt lat="36.7752350" lon="-3.0658900">
        <ele>530.6</ele>
        <time>2022-11-01T10:21:40Z</time>
      </trkpt>
      <trkpt lat="36.7751620" lon="-3.0658740">
        <ele>530.2</ele>
        <time>2022-11-01T10:21:41Z</time>
      </trkpt>
      <trkpt lat="36.7751050" lon="-3.0658380">
        <ele>529.6</ele>
        <time>2022-11-01T10:21:42Z</time>
      </trkpt>
      <trkpt lat="36.7750560" lon="-3.0657930">
        <ele>529.4</ele>
        <time>2022-11-01T10:21:43Z</time>
      </trkpt>
      <trkpt lat="36.7750280" lon="-3.0657260">
        <ele>529.0</ele>
        <time>2022-11-01T10:21:44Z</time>
      </trkpt>
      <trkpt lat="36.7750270" lon="-3.0656460">
        <ele>528.6</ele>
        <time>2022-11-01T10:21:45Z</time>
      </trkpt>
      <trkpt lat="36.7750490" lon="-3.0655630">
        <ele>528.4</ele>
        <time>2022-11-01T10:21:46Z</time>
      </trkpt>
      <trkpt lat="36.7750880" lon="-3.0654850">
        <ele>527.8</ele>
        <time>2022-11-01T10:21:47Z</time>
      </trkpt>
      <trkpt lat="36.7751360" lon="-3.0654040">
        <ele>527.6</ele>
        <time>2022-11-01T10:21:48Z</time>
      </trkpt>
      <trkpt lat="36.7751870" lon="-3.0653200">
        <ele>527.2</ele>
        <time>2022-11-01T10:21:49Z</time>
      </trkpt>
      <trkpt lat="36.7752350" lon="-3.0652310">
        <ele>526.8</ele>
        <time>2022-11-01T10:21:50Z</time>
      </trkpt>
      <trkpt lat="36.7752800" lon="-3.0651370">
        <ele>526.4</ele>
        <time>2022-11-01T10:21:51Z</time>
      </trkpt>
      <trkpt lat="36.7753190" lon="-3.0650340">
        <ele>525.8</ele>
        <time>2022-11-01T10:21:52Z</time>
      </trkpt>
      <trkpt lat="36.7753600" lon="-3.0649310">
        <ele>525.4</ele>
        <time>2022-11-01T10:21:53Z</time>
      </trkpt>
      <trkpt lat="36.7754020" lon="-3.0648260">
        <ele>525.0</ele>
        <time>2022-11-01T10:21:54Z</time>
      </trkpt>
      <trkpt lat="36.7754470" lon="-3.0647320">
        <ele>524.4</ele>
        <time>2022-11-01T10:21:55Z</time>
      </trkpt>
      <trkpt lat="36.7755010" lon="-3.0646620">
        <ele>524.0</ele>
        <time>2022-11-01T10:21:56Z</time>
      </trkpt>
      <trkpt lat="36.7755620" lon="-3.0646170">
        <ele>523.6</ele>
        <time>2022-11-01T10:21:57Z</time>
      </trkpt>
      <trkpt lat="36.7756250" lon="-3.0645850">
        <ele>523.4</ele>
        <time>2022-11-01T10:21:58Z</time>
      </trkpt>
      <trkpt lat="36.7756800" lon="-3.0645580">
        <ele>523.0</ele>
        <time>2022-11-01T10:21:59Z</time>
      </trkpt>
      <trkpt lat="36.7757320" lon="-3.0645210">
        <ele>522.6</ele>
        <time>2022-11-01T10:22:00Z</time>
      </trkpt>
      <trkpt lat="36.7757740" lon="-3.0644620">
        <ele>522.4</ele>
        <time>2022-11-01T10:22:01Z</time>
      </trkpt>
      <trkpt lat="36.7758040" lon="-3.0643850">
        <ele>522.0</ele>
        <time>2022-11-01T10:22:02Z</time>
      </trkpt>
      <trkpt lat="36.7758270" lon="-3.0642970">
        <ele>521.8</ele>
        <time>2022-11-01T10:22:03Z</time>
      </trkpt>
      <trkpt lat="36.7758410" lon="-3.0642040">
        <ele>521.2</ele>
        <time>2022-11-01T10:22:04Z</time>
      </trkpt>
      <trkpt lat="36.7758360" lon="-3.0641050">
        <ele>520.8</ele>
        <time>2022-11-01T10:22:05Z</time>
      </trkpt>
      <trkpt lat="36.7758250" lon="-3.0640030">
        <ele>520.4</ele>
        <time>2022-11-01T10:22:06Z</time>
      </trkpt>
      <trkpt lat="36.7758150" lon="-3.0638980">
        <ele>519.8</ele>
        <time>2022-11-01T10:22:07Z</time>
      </trkpt>
      <trkpt lat="36.7758180" lon="-3.0637950">
        <ele>519.4</ele>
        <time>2022-11-01T10:22:08Z</time>
      </trkpt>
      <trkpt lat="36.7758420" lon="-3.0637040">
        <ele>518.6</ele>
        <time>2022-11-01T10:22:09Z</time>
      </trkpt>
      <trkpt lat="36.7758950" lon="-3.0636270">
        <ele>518.0</ele>
        <time>2022-11-01T10:22:10Z</time>
      </trkpt>
      <trkpt lat="36.7759600" lon="-3.0635640">
        <ele>517.4</ele>
        <time>2022-11-01T10:22:11Z</time>
      </trkpt>
      <trkpt lat="36.7760280" lon="-3.0634960">
        <ele>517.0</ele>
        <time>2022-11-01T10:22:12Z</time>
      </trkpt>
      <trkpt lat="36.7760890" lon="-3.0634110">
        <ele>516.4</ele>
        <time>2022-11-01T10:22:13Z</time>
      </trkpt>
      <trkpt lat="36.7761430" lon="-3.0633180">
        <ele>516.2</ele>
        <time>2022-11-01T10:22:14Z</time>
      </trkpt>
      <trkpt lat="36.7761970" lon="-3.0632260">
        <ele>515.6</ele>
        <time>2022-11-01T10:22:15Z</time>
      </trkpt>
      <trkpt lat="36.7762450" lon="-3.0631330">
        <ele>515.2</ele>
        <time>2022-11-01T10:22:16Z</time>
      </trkpt>
      <trkpt lat="36.7762800" lon="-3.0630490">
        <ele>514.6</ele>
        <time>2022-11-01T10:22:17Z</time>
      </trkpt>
      <trkpt lat="36.7762970" lon="-3.0629830">
        <ele>514.2</ele>
        <time>2022-11-01T10:22:18Z</time>
      </trkpt>
      <trkpt lat="36.7762910" lon="-3.0629240">
        <ele>513.8</ele>
        <time>2022-11-01T10:22:19Z</time>
      </trkpt>
      <trkpt lat="36.7762560" lon="-3.0628520">
        <ele>513.2</ele>
        <time>2022-11-01T10:22:20Z</time>
      </trkpt>
      <trkpt lat="36.7761980" lon="-3.0627940">
        <ele>512.6</ele>
        <time>2022-11-01T10:22:21Z</time>
      </trkpt>
      <trkpt lat="36.7761390" lon="-3.0627320">
        <ele>512.0</ele>
        <time>2022-11-01T10:22:22Z</time>
      </trkpt>
      <trkpt lat="36.7760950" lon="-3.0626510">
        <ele>511.2</ele>
        <time>2022-11-01T10:22:23Z</time>
      </trkpt>
      <trkpt lat="36.7760760" lon="-3.0625470">
        <ele>510.6</ele>
        <time>2022-11-01T10:22:24Z</time>
      </trkpt>
      <trkpt lat="36.7760770" lon="-3.0624300">
        <ele>510.0</ele>
        <time>2022-11-01T10:22:25Z</time>
      </trkpt>
      <trkpt lat="36.7760840" lon="-3.0623050">
        <ele>509.2</ele>
        <time>2022-11-01T10:22:26Z</time>
      </trkpt>
      <trkpt lat="36.7760970" lon="-3.0621820">
        <ele>508.6</ele>
        <time>2022-11-01T10:22:27Z</time>
      </trkpt>
      <trkpt lat="36.7761300" lon="-3.0620650">
        <ele>507.8</ele>
        <time>2022-11-01T10:22:28Z</time>
      </trkpt>
      <trkpt lat="36.7761840" lon="-3.0619600">
        <ele>507.0</ele>
        <time>2022-11-01T10:22:29Z</time>
      </trkpt>
      <trkpt lat="36.7762450" lon="-3.0618650">
        <ele>506.2</ele>
        <time>2022-11-01T10:22:30Z</time>
      </trkpt>
      <trkpt lat="36.7762940" lon="-3.0617640">
        <ele>505.4</ele>
        <time>2022-11-01T10:22:31Z</time>
      </trkpt>
      <trkpt lat="36.7763130" lon="-3.0616680">
        <ele>504.8</ele>
        <time>2022-11-01T10:22:32Z</time>
      </trkpt>
      <trkpt lat="36.7762940" lon="-3.0615720">
        <ele>504.0</ele>
        <time>2022-11-01T10:22:33Z</time>
      </trkpt>
      <trkpt lat="36.7762430" lon="-3.0614860">
        <ele>503.4</ele>
        <time>2022-11-01T10:22:34Z</time>
      </trkpt>
      <trkpt lat="36.7761750" lon="-3.0614070">
        <ele>502.6</ele>
        <time>2022-11-01T10:22:35Z</time>
      </trkpt>
      <trkpt lat="36.7761040" lon="-3.0613220">
        <ele>501.8</ele>
        <time>2022-11-01T10:22:36Z</time>
      </trkpt>
      <trkpt lat="36.7760360" lon="-3.0612400">
        <ele>501.0</ele>
        <time>2022-11-01T10:22:37Z</time>
      </trkpt>
      <trkpt lat="36.7759810" lon="-3.0611640">
        <ele>500.2</ele>
        <time>2022-11-01T10:22:38Z</time>
      </trkpt>
      <trkpt lat="36.7759510" lon="-3.0610880">
        <ele>499.6</ele>
        <time>2022-11-01T10:22:39Z</time>
      </trkpt>
      <trkpt lat="36.7759550" lon="-3.0610030">
        <ele>498.8</ele>
        <time>2022-11-01T10:22:40Z</time>
      </trkpt>
      <trkpt lat="36.7759930" lon="-3.0609270">
        <ele>498.2</ele>
        <time>2022-11-01T10:22:41Z</time>
      </trkpt>
      <trkpt lat="36.7760580" lon="-3.0608730">
        <ele>497.6</ele>
        <time>2022-11-01T10:22:42Z</time>
      </trkpt>
      <trkpt lat="36.7761340" lon="-3.0608360">
        <ele>497.0</ele>
        <time>2022-11-01T10:22:43Z</time>
      </trkpt>
      <trkpt lat="36.7762140" lon="-3.0607990">
        <ele>496.2</ele>
        <time>2022-11-01T10:22:44Z</time>
      </trkpt>
      <trkpt lat="36.7762960" lon="-3.0607540">
        <ele>495.6</ele>
        <time>2022-11-01T10:22:45Z</time>
      </trkpt>
      <trkpt lat="36.7763740" lon="-3.0606900">
        <ele>495.0</ele>
        <time>2022-11-01T10:22:46Z</time>
      </trkpt>
      <trkpt lat="36.7764450" lon="-3.0606110">
        <ele>494.2</ele>
        <time>2022-11-01T10:22:47Z</time>
      </trkpt>
      <trkpt lat="36.7765040" lon="-3.0605250">
        <ele>493.4</ele>
        <time>2022-11-01T10:22:48Z</time>
      </trkpt>
      <trkpt lat="36.7765410" lon="-3.0604350">
        <ele>492.8</ele>
        <time>2022-11-01T10:22:49Z</time>
      </trkpt>
      <trkpt lat="36.7765500" lon="-3.0603490">
        <ele>492.0</ele>
        <time>2022-11-01T10:22:50Z</time>
      </trkpt>
      <trkpt lat="36.7765400" lon="-3.0602760">
        <ele>491.4</ele>
        <time>2022-11-01T10:22:51Z</time>
      </trkpt>
      <trkpt lat="36.7765120" lon="-3.0602180">
        <ele>490.8</ele>
        <time>2022-11-01T10:22:52Z</time>
      </trkpt>
      <trkpt lat="36.7764700" lon="-3.0601760">
        <ele>490.2</ele>
        <time>2022-11-01T10:22:53Z</time>
      </trkpt>
      <trkpt lat="36.7764170" lon="-3.0601340">
        <ele>489.8</ele>
        <time>2022-11-01T10:22:54Z</time>
      </trkpt>
      <trkpt lat="36.7763620" lon="-3.0600800">
        <ele>489.2</ele>
        <time>2022-11-01T10:22:55Z</time>
      </trkpt>
      <trkpt lat="36.7763080" lon="-3.0600120">
        <ele>488.6</ele>
        <time>2022-11-01T10:22:56Z</time>
      </trkpt>
      <trkpt lat="36.7762570" lon="-3.0599340">
        <ele>488.0</ele>
        <time>2022-11-01T10:22:57Z</time>
      </trkpt>
      <trkpt lat="36.7762090" lon="-3.0598430">
        <ele>487.4</ele>
        <time>2022-11-01T10:22:58Z</time>
      </trkpt>
      <trkpt lat="36.7761650" lon="-3.0597470">
        <ele>486.8</ele>
        <time>2022-11-01T10:22:59Z</time>
      </trkpt>
      <trkpt lat="36.7761240" lon="-3.0596460">
        <ele>486.0</ele>
        <time>2022-11-01T10:23:00Z</time>
      </trkpt>
      <trkpt lat="36.7760970" lon="-3.0595390">
        <ele>485.4</ele>
        <time>2022-11-01T10:23:01Z</time>
      </trkpt>
      <trkpt lat="36.7760930" lon="-3.0594260">
        <ele>484.8</ele>
        <time>2022-11-01T10:23:02Z</time>
      </trkpt>
      <trkpt lat="36.7761030" lon="-3.0593060">
        <ele>484.0</ele>
        <time>2022-11-01T10:23:03Z</time>
      </trkpt>
      <trkpt lat="36.7761230" lon="-3.0591810">
        <ele>483.4</ele>
        <time>2022-11-01T10:23:04Z</time>
      </trkpt>
      <trkpt lat="36.7761520" lon="-3.0590490">
        <ele>482.4</ele>
        <time>2022-11-01T10:23:05Z</time>
      </trkpt>
      <trkpt lat="36.7761890" lon="-3.0589170">
        <ele>481.6</ele>
        <time>2022-11-01T10:23:06Z</time>
      </trkpt>
      <trkpt lat="36.7762290" lon="-3.0587830">
        <ele>480.8</ele>
        <time>2022-11-01T10:23:07Z</time>
      </trkpt>
      <trkpt lat="36.7762640" lon="-3.0586420">
        <ele>480.0</ele>
        <time>2022-11-01T10:23:08Z</time>
      </trkpt>
      <trkpt lat="36.7762870" lon="-3.0584950">
        <ele>479.2</ele>
        <time>2022-11-01T10:23:09Z</time>
      </trkpt>
      <trkpt lat="36.7763020" lon="-3.0583430">
        <ele>478.4</ele>
        <time>2022-11-01T10:23:10Z</time>
      </trkpt>
      <trkpt lat="36.7763130" lon="-3.0581900">
        <ele>477.6</ele>
        <time>2022-11-01T10:23:11Z</time>
      </trkpt>
      <trkpt lat="36.7763160" lon="-3.0580330">
        <ele>476.4</ele>
        <time>2022-11-01T10:23:12Z</time>
      </trkpt>
      <trkpt lat="36.7763130" lon="-3.0578740">
        <ele>475.2</ele>
        <time>2022-11-01T10:23:13Z</time>
      </trkpt>
      <trkpt lat="36.7763060" lon="-3.0577200">
        <ele>474.4</ele>
        <time>2022-11-01T10:23:14Z</time>
      </trkpt>
      <trkpt lat="36.7763000" lon="-3.0575810">
        <ele>473.6</ele>
        <time>2022-11-01T10:23:15Z</time>
      </trkpt>
      <trkpt lat="36.7762910" lon="-3.0574600">
        <ele>472.8</ele>
        <time>2022-11-01T10:23:16Z</time>
      </trkpt>
      <trkpt lat="36.7762670" lon="-3.0573580">
        <ele>472.0</ele>
        <time>2022-11-01T10:23:17Z</time>
      </trkpt>
      <trkpt lat="36.7762200" lon="-3.0572800">
        <ele>471.4</ele>
        <time>2022-11-01T10:23:18Z</time>
      </trkpt>
      <trkpt lat="36.7761520" lon="-3.0572280">
        <ele>470.8</ele>
        <time>2022-11-01T10:23:19Z</time>
      </trkpt>
      <trkpt lat="36.7760700" lon="-3.0572120">
        <ele>470.0</ele>
        <time>2022-11-01T10:23:20Z</time>
      </trkpt>
      <trkpt lat="36.7759910" lon="-3.0572480">
        <ele>469.4</ele>
        <time>2022-11-01T10:23:21Z</time>
      </trkpt>
      <trkpt lat="36.7759250" lon="-3.0573240">
        <ele>468.6</ele>
        <time>2022-11-01T10:23:22Z</time>
      </trkpt>
      <trkpt lat="36.7758750" lon="-3.0574240">
        <ele>467.8</ele>
        <time>2022-11-01T10:23:23Z</time>
      </trkpt>
      <trkpt lat="36.7758320" lon="-3.0575380">
        <ele>467.0</ele>
        <time>2022-11-01T10:23:24Z</time>
      </trkpt>
      <trkpt lat="36.7757840" lon="-3.0576430">
        <ele>466.0</ele>
        <time>2022-11-01T10:23:25Z</time>
      </trkpt>
      <trkpt lat="36.7757240" lon="-3.0577200">
        <ele>465.2</ele>
        <time>2022-11-01T10:23:26Z</time>
      </trkpt>
      <trkpt lat="36.7756420" lon="-3.0577600">
        <ele>464.4</ele>
        <time>2022-11-01T10:23:27Z</time>
      </trkpt>
      <trkpt lat="36.7755510" lon="-3.0577580">
        <ele>463.4</ele>
        <time>2022-11-01T10:23:28Z</time>
      </trkpt>
      <trkpt lat="36.7754590" lon="-3.0577230">
        <ele>462.6</ele>
        <time>2022-11-01T10:23:29Z</time>
      </trkpt>
      <trkpt lat="36.7753680" lon="-3.0576690">
        <ele>461.8</ele>
        <time>2022-11-01T10:23:30Z</time>
      </trkpt>
      <trkpt lat="36.7752810" lon="-3.0576030">
        <ele>461.0</ele>
        <time>2022-11-01T10:23:31Z</time>
      </trkpt>
      <trkpt lat="36.7751930" lon="-3.0575290">
        <ele>460.2</ele>
        <time>2022-11-01T10:23:32Z</time>
      </trkpt>
      <trkpt lat="36.7751000" lon="-3.0574720">
        <ele>459.4</ele>
        <time>2022-11-01T10:23:33Z</time>
      </trkpt>
      <trkpt lat="36.7750010" lon="-3.0574540">
        <ele>458.6</ele>
        <time>2022-11-01T10:23:34Z</time>
      </trkpt>
      <trkpt lat="36.7749030" lon="-3.0574810">
        <ele>457.8</ele>
        <time>2022-11-01T10:23:35Z</time>
      </trkpt>
      <trkpt lat="36.7748250" lon="-3.0575530">
        <ele>457.0</ele>
        <time>2022-11-01T10:23:36Z</time>
      </trkpt>
      <trkpt lat="36.7747670" lon="-3.0576520">
        <ele>456.4</ele>
        <time>2022-11-01T10:23:37Z</time>
      </trkpt>
      <trkpt lat="36.7747130" lon="-3.0577630">
        <ele>455.6</ele>
        <time>2022-11-01T10:23:38Z</time>
      </trkpt>
      <trkpt lat="36.7746470" lon="-3.0578670">
        <ele>455.0</ele>
        <time>2022-11-01T10:23:39Z</time>
      </trkpt>
      <trkpt lat="36.7745600" lon="-3.0579480">
        <ele>454.2</ele>
        <time>2022-11-01T10:23:40Z</time>
      </trkpt>
      <trkpt lat="36.7744580" lon="-3.0580060">
        <ele>453.6</ele>
        <time>2022-11-01T10:23:41Z</time>
      </trkpt>
      <trkpt lat="36.7743610" lon="-3.0580200">
        <ele>452.8</ele>
        <time>2022-11-01T10:23:42Z</time>
      </trkpt>
      <trkpt lat="36.7742730" lon="-3.0579880">
        <ele>452.0</ele>
        <time>2022-11-01T10:23:43Z</time>
      </trkpt>
      <trkpt lat="36.7741930" lon="-3.0579310">
        <ele>451.2</ele>
        <time>2022-11-01T10:23:44Z</time>
      </trkpt>
      <trkpt lat="36.7741170" lon="-3.0578850">
        <ele>450.4</ele>
        <time>2022-11-01T10:23:45Z</time>
      </trkpt>
      <trkpt lat="36.7740420" lon="-3.0578840">
        <ele>449.8</ele>
        <time>2022-11-01T10:23:46Z</time>
      </trkpt>
      <trkpt lat="36.7739850" lon="-3.0579330">
        <ele>449.0</ele>
        <time>2022-11-01T10:23:47Z</time>
      </trkpt>
      <trkpt lat="36.7739500" lon="-3.0580150">
        <ele>448.4</ele>
        <time>2022-11-01T10:23:48Z</time>
      </trkpt>
      <trkpt lat="36.7739300" lon="-3.0581130">
        <ele>448.0</ele>
        <time>2022-11-01T10:23:49Z</time>
      </trkpt>
      <trkpt lat="36.7739140" lon="-3.0582220">
        <ele>447.4</ele>
        <time>2022-11-01T10:23:50Z</time>
      </trkpt>
      <trkpt lat="36.7738930" lon="-3.0583330">
        <ele>446.8</ele>
        <time>2022-11-01T10:23:51Z</time>
      </trkpt>
      <trkpt lat="36.7738580" lon="-3.0584450">
        <ele>446.2</ele>
        <time>2022-11-01T10:23:52Z</time>
      </trkpt>
      <trkpt lat="36.7738050" lon="-3.0585520">
        <ele>445.4</ele>
        <time>2022-11-01T10:23:53Z</time>
      </trkpt>
      <trkpt lat="36.7737370" lon="-3.0586530">
        <ele>444.8</ele>
        <time>2022-11-01T10:23:54Z</time>
      </trkpt>
      <trkpt lat="36.7736530" lon="-3.0587420">
        <ele>443.8</ele>
        <time>2022-11-01T10:23:55Z</time>
      </trkpt>
      <trkpt lat="36.7735570" lon="-3.0588100">
        <ele>443.0</ele>
        <time>2022-11-01T10:23:56Z</time>
      </trkpt>
      <trkpt lat="36.7734480" lon="-3.0588580">
        <ele>442.2</ele>
        <time>2022-11-01T10:23:57Z</time>
      </trkpt>
      <trkpt lat="36.7733330" lon="-3.0588980">
        <ele>441.2</ele>
        <time>2022-11-01T10:23:58Z</time>
      </trkpt>
      <trkpt lat="36.7732170" lon="-3.0589370">
        <ele>440.4</ele>
        <time>2022-11-01T10:23:59Z</time>
      </trkpt>
      <trkpt lat="36.7730990" lon="-3.0589750">
        <ele>439.2</ele>
        <time>2022-11-01T10:24:00Z</time>
      </trkpt>
      <trkpt lat="36.7729800" lon="-3.0590070">
        <ele>438.4</ele>
        <time>2022-11-01T10:24:01Z</time>
      </trkpt>
      <trkpt lat="36.7728600" lon="-3.0590190">
        <ele>437.4</ele>
        <time>2022-11-01T10:24:02Z</time>
      </trkpt>
      <trkpt lat="36.7727410" lon="-3.0590020">
        <ele>436.4</ele>
        <time>2022-11-01T10:24:03Z</time>
      </trkpt>
      <trkpt lat="36.7726230" lon="-3.0589570">
        <ele>435.6</ele>
        <time>2022-11-01T10:24:04Z</time>
      </trkpt>
      <trkpt lat="36.7725120" lon="-3.0588840">
        <ele>434.6</ele>
        <time>2022-11-01T10:24:05Z</time>
      </trkpt>
      <trkpt lat="36.7724160" lon="-3.0587810">
        <ele>433.6</ele>
        <time>2022-11-01T10:24:06Z</time>
      </trkpt>
      <trkpt lat="36.7723360" lon="-3.0586590">
        <ele>432.8</ele>
        <time>2022-11-01T10:24:07Z</time>
      </trkpt>
      <trkpt lat="36.7722610" lon="-3.0585410">
        <ele>431.8</ele>
        <time>2022-11-01T10:24:08Z</time>
      </trkpt>
      <trkpt lat="36.7721750" lon="-3.0584560">
        <ele>431.2</ele>
        <time>2022-11-01T10:24:09Z</time>
      </trkpt>
      <trkpt lat="36.7720800" lon="-3.0584170">
        <ele>430.4</ele>
        <time>2022-11-01T10:24:10Z</time>
      </trkpt>
      <trkpt lat="36.7719870" lon="-3.0584250">
        <ele>429.6</ele>
        <time>2022-11-01T10:24:11Z</time>
      </trkpt>
      <trkpt lat="36.7719040" lon="-3.0584700">
        <ele>429.0</ele>
        <time>2022-11-01T10:24:12Z</time>
      </trkpt>
      <trkpt lat="36.7718440" lon="-3.0585520">
        <ele>428.0</ele>
        <time>2022-11-01T10:24:13Z</time>
      </trkpt>
      <trkpt lat="36.7718220" lon="-3.0586560">
        <ele>427.2</ele>
        <time>2022-11-01T10:24:14Z</time>
      </trkpt>
      <trkpt lat="36.7718340" lon="-3.0587700">
        <ele>426.6</ele>
        <time>2022-11-01T10:24:15Z</time>
      </trkpt>
      <trkpt lat="36.7718710" lon="-3.0588840">
        <ele>426.0</ele>
        <time>2022-11-01T10:24:16Z</time>
      </trkpt>
      <trkpt lat="36.7719160" lon="-3.0589990">
        <ele>425.2</ele>
        <time>2022-11-01T10:24:17Z</time>
      </trkpt>
      <trkpt lat="36.7719590" lon="-3.0591200">
        <ele>424.2</ele>
        <time>2022-11-01T10:24:18Z</time>
      </trkpt>
      <trkpt lat="36.7719950" lon="-3.0592520">
        <ele>423.4</ele>
        <time>2022-11-01T10:24:19Z</time>
      </trkpt>
      <trkpt lat="36.7720360" lon="-3.0593850">
        <ele>422.6</ele>
        <time>2022-11-01T10:24:20Z</time>
      </trkpt>
      <trkpt lat="36.7720840" lon="-3.0595200">
        <ele>421.8</ele>
        <time>2022-11-01T10:24:21Z</time>
      </trkpt>
      <trkpt lat="36.7721380" lon="-3.0596530">
        <ele>420.8</ele>
        <time>2022-11-01T10:24:22Z</time>
      </trkpt>
      <trkpt lat="36.7722000" lon="-3.0597860">
        <ele>419.8</ele>
        <time>2022-11-01T10:24:23Z</time>
      </trkpt>
      <trkpt lat="36.7722700" lon="-3.0599170">
        <ele>419.0</ele>
        <time>2022-11-01T10:24:24Z</time>
      </trkpt>
      <trkpt lat="36.7723470" lon="-3.0600300">
        <ele>418.0</ele>
        <time>2022-11-01T10:24:25Z</time>
      </trkpt>
      <trkpt lat="36.7724310" lon="-3.0601200">
        <ele>417.2</ele>
        <time>2022-11-01T10:24:26Z</time>
      </trkpt>
      <trkpt lat="36.7725220" lon="-3.0601880">
        <ele>416.4</ele>
        <time>2022-11-01T10:24:27Z</time>
      </trkpt>
      <trkpt lat="36.7726040" lon="-3.0602480">
        <ele>415.6</ele>
        <time>2022-11-01T10:24:28Z</time>
      </trkpt>
      <trkpt lat="36.7726690" lon="-3.0603210">
        <ele>414.8</ele>
        <time>2022-11-01T10:24:29Z</time>
      </trkpt>
      <trkpt lat="36.7727200" lon="-3.0604190">
        <ele>414.0</ele>
        <time>2022-11-01T10:24:30Z</time>
      </trkpt>
      <trkpt lat="36.7727530" lon="-3.0605320">
        <ele>413.4</ele>
        <time>2022-11-01T10:24:31Z</time>
      </trkpt>
      <trkpt lat="36.7727730" lon="-3.0606440">
        <ele>412.6</ele>
        <time>2022-11-01T10:24:32Z</time>
      </trkpt>
      <trkpt lat="36.7727730" lon="-3.0607510">
        <ele>411.8</ele>
        <time>2022-11-01T10:24:33Z</time>
      </trkpt>
      <trkpt lat="36.7727500" lon="-3.0608380">
        <ele>411.4</ele>
        <time>2022-11-01T10:24:34Z</time>
      </trkpt>
      <trkpt lat="36.7726990" lon="-3.0609040">
        <ele>410.6</ele>
        <time>2022-11-01T10:24:35Z</time>
      </trkpt>
      <trkpt lat="36.7726260" lon="-3.0609480">
        <ele>410.2</ele>
        <time>2022-11-01T10:24:36Z</time>
      </trkpt>
      <trkpt lat="36.7725450" lon="-3.0609820">
        <ele>409.6</ele>
        <time>2022-11-01T10:24:37Z</time>
      </trkpt>
      <trkpt lat="36.7724580" lon="-3.0610160">
        <ele>408.8</ele>
        <time>2022-11-01T10:24:38Z</time>
      </trkpt>
      <trkpt lat="36.7723660" lon="-3.0610420">
        <ele>408.2</ele>
        <time>2022-11-01T10:24:39Z</time>
      </trkpt>
      <trkpt lat="36.7722690" lon="-3.0610500">
        <ele>407.4</ele>
        <time>2022-11-01T10:24:40Z</time>
      </trkpt>
      <trkpt lat="36.7721690" lon="-3.0610280">
        <ele>406.8</ele>
        <time>2022-11-01T10:24:41Z</time>
      </trkpt>
      <trkpt lat="36.7720690" lon="-3.0609800">
        <ele>406.0</ele>
        <time>2022-11-01T10:24:42Z</time>
      </trkpt>
      <trkpt lat="36.7719700" lon="-3.0609170">
        <ele>405.2</ele>
        <time>2022-11-01T10:24:43Z</time>
      </trkpt>
      <trkpt lat="36.7718730" lon="-3.0608390">
        <ele>404.2</ele>
        <time>2022-11-01T10:24:44Z</time>
      </trkpt>
      <trkpt lat="36.7717700" lon="-3.0607680">
        <ele>403.6</ele>
        <time>2022-11-01T10:24:45Z</time>
      </trkpt>
      <trkpt lat="36.7716570" lon="-3.0607270">
        <ele>402.8</ele>
        <time>2022-11-01T10:24:46Z</time>
      </trkpt>
      <trkpt lat="36.7715380" lon="-3.0607150">
        <ele>402.0</ele>
        <time>2022-11-01T10:24:47Z</time>
      </trkpt>
      <trkpt lat="36.7714180" lon="-3.0607270">
        <ele>400.6</ele>
        <time>2022-11-01T10:24:48Z</time>
      </trkpt>
      <trkpt lat="36.7713000" lon="-3.0607680">
        <ele>399.4</ele>
        <time>2022-11-01T10:24:49Z</time>
      </trkpt>
      <trkpt lat="36.7711830" lon="-3.0608320">
        <ele>398.4</ele>
        <time>2022-11-01T10:24:50Z</time>
      </trkpt>
      <trkpt lat="36.7710720" lon="-3.0609050">
        <ele>397.2</ele>
        <time>2022-11-01T10:24:51Z</time>
      </trkpt>
      <trkpt lat="36.7709570" lon="-3.0609740">
        <ele>396.2</ele>
        <time>2022-11-01T10:24:52Z</time>
      </trkpt>
      <trkpt lat="36.7708380" lon="-3.0610440">
        <ele>395.0</ele>
        <time>2022-11-01T10:24:53Z</time>
      </trkpt>
      <trkpt lat="36.7707190" lon="-3.0611130">
        <ele>394.0</ele>
        <time>2022-11-01T10:24:54Z</time>
      </trkpt>
      <trkpt lat="36.7705970" lon="-3.0611870">
        <ele>392.8</ele>
        <time>2022-11-01T10:24:55Z</time>
      </trkpt>
      <trkpt lat="36.7704710" lon="-3.0612620">
        <ele>391.6</ele>
        <time>2022-11-01T10:24:56Z</time>
      </trkpt>
      <trkpt lat="36.7703430" lon="-3.0613280">
        <ele>390.6</ele>
        <time>2022-11-01T10:24:57Z</time>
      </trkpt>
      <trkpt lat="36.7702090" lon="-3.0613890">
        <ele>389.4</ele>
        <time>2022-11-01T10:24:58Z</time>
      </trkpt>
      <trkpt lat="36.7700740" lon="-3.0614540">
        <ele>388.6</ele>
        <time>2022-11-01T10:24:59Z</time>
      </trkpt>
      <trkpt lat="36.7699410" lon="-3.0615260">
        <ele>387.4</ele>
        <time>2022-11-01T10:25:00Z</time>
      </trkpt>
      <trkpt lat="36.7698090" lon="-3.0616070">
        <ele>386.4</ele>
        <time>2022-11-01T10:25:01Z</time>
      </trkpt>
      <trkpt lat="36.7696850" lon="-3.0616980">
        <ele>385.6</ele>
        <time>2022-11-01T10:25:02Z</time>
      </trkpt>
      <trkpt lat="36.7695640" lon="-3.0617930">
        <ele>384.6</ele>
        <time>2022-11-01T10:25:03Z</time>
      </trkpt>
      <trkpt lat="36.7694380" lon="-3.0618880">
        <ele>383.8</ele>
        <time>2022-11-01T10:25:04Z</time>
      </trkpt>
      <trkpt lat="36.7693130" lon="-3.0619820">
        <ele>383.0</ele>
        <time>2022-11-01T10:25:05Z</time>
      </trkpt>
      <trkpt lat="36.7691970" lon="-3.0620910">
        <ele>381.8</ele>
        <time>2022-11-01T10:25:06Z</time>
      </trkpt>
      <trkpt lat="36.7690980" lon="-3.0622290">
        <ele>380.6</ele>
        <time>2022-11-01T10:25:07Z</time>
      </trkpt>
      <trkpt lat="36.7690250" lon="-3.0623880">
        <ele>379.6</ele>
        <time>2022-11-01T10:25:08Z</time>
      </trkpt>
      <trkpt lat="36.7689590" lon="-3.0625540">
        <ele>378.2</ele>
        <time>2022-11-01T10:25:09Z</time>
      </trkpt>
      <trkpt lat="36.7688910" lon="-3.0627200">
        <ele>377.0</ele>
        <time>2022-11-01T10:25:10Z</time>
      </trkpt>
      <trkpt lat="36.7688200" lon="-3.0628870">
        <ele>376.0</ele>
        <time>2022-11-01T10:25:11Z</time>
      </trkpt>
      <trkpt lat="36.7687430" lon="-3.0630510">
        <ele>374.8</ele>
        <time>2022-11-01T10:25:12Z</time>
      </trkpt>
      <trkpt lat="36.7686640" lon="-3.0632130">
        <ele>373.8</ele>
        <time>2022-11-01T10:25:13Z</time>
      </trkpt>
      <trkpt lat="36.7685870" lon="-3.0633750">
        <ele>372.6</ele>
        <time>2022-11-01T10:25:14Z</time>
      </trkpt>
      <trkpt lat="36.7685120" lon="-3.0635390">
        <ele>372.0</ele>
        <time>2022-11-01T10:25:15Z</time>
      </trkpt>
      <trkpt lat="36.7684390" lon="-3.0636980">
        <ele>371.4</ele>
        <time>2022-11-01T10:25:16Z</time>
      </trkpt>
      <trkpt lat="36.7683700" lon="-3.0638440">
        <ele>371.2</ele>
        <time>2022-11-01T10:25:17Z</time>
      </trkpt>
      <trkpt lat="36.7683030" lon="-3.0639690">
        <ele>370.4</ele>
        <time>2022-11-01T10:25:18Z</time>
      </trkpt>
      <trkpt lat="36.7682250" lon="-3.0640740">
        <ele>369.6</ele>
        <time>2022-11-01T10:25:19Z</time>
      </trkpt>
      <trkpt lat="36.7681300" lon="-3.0641550">
        <ele>368.6</ele>
        <time>2022-11-01T10:25:20Z</time>
      </trkpt>
      <trkpt lat="36.7680220" lon="-3.0642110">
        <ele>367.6</ele>
        <time>2022-11-01T10:25:21Z</time>
      </trkpt>
      <trkpt lat="36.7679040" lon="-3.0642470">
        <ele>366.6</ele>
        <time>2022-11-01T10:25:22Z</time>
      </trkpt>
      <trkpt lat="36.7677810" lon="-3.0642540">
        <ele>365.6</ele>
        <time>2022-11-01T10:25:23Z</time>
      </trkpt>
      <trkpt lat="36.7676600" lon="-3.0642300">
        <ele>364.4</ele>
        <time>2022-11-01T10:25:24Z</time>
      </trkpt>
      <trkpt lat="36.7675420" lon="-3.0641850">
        <ele>363.6</ele>
        <time>2022-11-01T10:25:25Z</time>
      </trkpt>
      <trkpt lat="36.7674240" lon="-3.0641530">
        <ele>362.6</ele>
        <time>2022-11-01T10:25:26Z</time>
      </trkpt>
      <trkpt lat="36.7673060" lon="-3.0641570">
        <ele>361.8</ele>
        <time>2022-11-01T10:25:27Z</time>
      </trkpt>
      <trkpt lat="36.7671880" lon="-3.0641940">
        <ele>361.0</ele>
        <time>2022-11-01T10:25:28Z</time>
      </trkpt>
      <trkpt lat="36.7670720" lon="-3.0642470">
        <ele>360.0</ele>
        <time>2022-11-01T10:25:29Z</time>
      </trkpt>
      <trkpt lat="36.7669560" lon="-3.0642810">
        <ele>359.0</ele>
        <time>2022-11-01T10:25:30Z</time>
      </trkpt>
      <trkpt lat="36.7668440" lon="-3.0642840">
        <ele>358.0</ele>
        <time>2022-11-01T10:25:31Z</time>
      </trkpt>
      <trkpt lat="36.7667450" lon="-3.0642540">
        <ele>357.2</ele>
        <time>2022-11-01T10:25:32Z</time>
      </trkpt>
      <trkpt lat="36.7666620" lon="-3.0641900">
        <ele>356.4</ele>
        <time>2022-11-01T10:25:33Z</time>
      </trkpt>
      <trkpt lat="36.7666020" lon="-3.0640910">
        <ele>355.4</ele>
        <time>2022-11-01T10:25:34Z</time>
      </trkpt>
      <trkpt lat="36.7665760" lon="-3.0639670">
        <ele>354.6</ele>
        <time>2022-11-01T10:25:35Z</time>
      </trkpt>
      <trkpt lat="36.7665810" lon="-3.0638410">
        <ele>353.6</ele>
        <time>2022-11-01T10:25:36Z</time>
      </trkpt>
      <trkpt lat="36.7666110" lon="-3.0637280">
        <ele>352.6</ele>
        <time>2022-11-01T10:25:37Z</time>
      </trkpt>
      <trkpt lat="36.7666560" lon="-3.0636260">
        <ele>351.6</ele>
        <time>2022-11-01T10:25:38Z</time>
      </trkpt>
      <trkpt lat="36.7666770" lon="-3.0635210">
        <ele>350.8</ele>
        <time>2022-11-01T10:25:39Z</time>
      </trkpt>
      <trkpt lat="36.7666570" lon="-3.0634160">
        <ele>349.6</ele>
        <time>2022-11-01T10:25:40Z</time>
      </trkpt>
      <trkpt lat="36.7665980" lon="-3.0633300">
        <ele>349.0</ele>
        <time>2022-11-01T10:25:41Z</time>
      </trkpt>
      <trkpt lat="36.7665160" lon="-3.0632690">
        <ele>348.2</ele>
        <time>2022-11-01T10:25:42Z</time>
      </trkpt>
      <trkpt lat="36.7664250" lon="-3.0632110">
        <ele>347.2</ele>
        <time>2022-11-01T10:25:43Z</time>
      </trkpt>
      <trkpt lat="36.7663340" lon="-3.0631410">
        <ele>346.4</ele>
        <time>2022-11-01T10:25:44Z</time>
      </trkpt>
      <trkpt lat="36.7662580" lon="-3.0630570">
        <ele>345.4</ele>
        <time>2022-11-01T10:25:45Z</time>
      </trkpt>
      <trkpt lat="36.7662130" lon="-3.0629580">
        <ele>344.6</ele>
        <time>2022-11-01T10:25:46Z</time>
      </trkpt>
      <trkpt lat="36.7662030" lon="-3.0628430">
        <ele>343.8</ele>
        <time>2022-11-01T10:25:47Z</time>
      </trkpt>
      <trkpt lat="36.7662280" lon="-3.0627260">
        <ele>342.6</ele>
        <time>2022-11-01T10:25:48Z</time>
      </trkpt>
      <trkpt lat="36.7662770" lon="-3.0626130">
        <ele>341.8</ele>
        <time>2022-11-01T10:25:49Z</time>
      </trkpt>
      <trkpt lat="36.7663440" lon="-3.0625120">
        <ele>341.0</ele>
        <time>2022-11-01T10:25:50Z</time>
      </trkpt>
      <trkpt lat="36.7663990" lon="-3.0624140">
        <ele>340.2</ele>
        <time>2022-11-01T10:25:51Z</time>
      </trkpt>
      <trkpt lat="36.7664220" lon="-3.0623130">
        <ele>339.4</ele>
        <time>2022-11-01T10:25:52Z</time>
      </trkpt>
      <trkpt lat="36.7664010" lon="-3.0622120">
        <ele>338.4</ele>
        <time>2022-11-01T10:25:53Z</time>
      </trkpt>
      <trkpt lat="36.7663400" lon="-3.0621290">
        <ele>337.8</ele>
        <time>2022-11-01T10:25:54Z</time>
      </trkpt>
      <trkpt lat="36.7662540" lon="-3.0620890">
        <ele>337.2</ele>
        <time>2022-11-01T10:25:55Z</time>
      </trkpt>
      <trkpt lat="36.7661590" lon="-3.0620680">
        <ele>336.6</ele>
        <time>2022-11-01T10:25:56Z</time>
      </trkpt>
      <trkpt lat="36.7660590" lon="-3.0620480">
        <ele>335.8</ele>
        <time>2022-11-01T10:25:57Z</time>
      </trkpt>
      <trkpt lat="36.7659570" lon="-3.0620260">
        <ele>335.0</ele>
        <time>2022-11-01T10:25:58Z</time>
      </trkpt>
      <trkpt lat="36.7658510" lon="-3.0620100">
        <ele>334.4</ele>
        <time>2022-11-01T10:25:59Z</time>
      </trkpt>
      <trkpt lat="36.7657490" lon="-3.0619880">
        <ele>333.8</ele>
        <time>2022-11-01T10:26:00Z</time>
      </trkpt>
      <trkpt lat="36.7656500" lon="-3.0619360">
        <ele>332.8</ele>
        <time>2022-11-01T10:26:01Z</time>
      </trkpt>
      <trkpt lat="36.7655590" lon="-3.0618580">
        <ele>332.2</ele>
        <time>2022-11-01T10:26:02Z</time>
      </trkpt>
      <trkpt lat="36.7654680" lon="-3.0617710">
        <ele>331.4</ele>
        <time>2022-11-01T10:26:03Z</time>
      </trkpt>
      <trkpt lat="36.7653780" lon="-3.0616760">
        <ele>330.4</ele>
        <time>2022-11-01T10:26:04Z</time>
      </trkpt>
      <trkpt lat="36.7652860" lon="-3.0615790">
        <ele>329.6</ele>
        <time>2022-11-01T10:26:05Z</time>
      </trkpt>
      <trkpt lat="36.7651940" lon="-3.0614760">
        <ele>328.8</ele>
        <time>2022-11-01T10:26:06Z</time>
      </trkpt>
      <trkpt lat="36.7651050" lon="-3.0613680">
        <ele>328.0</ele>
        <time>2022-11-01T10:26:07Z</time>
      </trkpt>
      <trkpt lat="36.7650220" lon="-3.0612520">
        <ele>327.2</ele>
        <time>2022-11-01T10:26:08Z</time>
      </trkpt>
      <trkpt lat="36.7649450" lon="-3.0611280">
        <ele>326.2</ele>
        <time>2022-11-01T10:26:09Z</time>
      </trkpt>
      <trkpt lat="36.7648770" lon="-3.0609950">
        <ele>325.2</ele>
        <time>2022-11-01T10:26:10Z</time>
      </trkpt>
      <trkpt lat="36.7648260" lon="-3.0608470">
        <ele>324.2</ele>
        <time>2022-11-01T10:26:11Z</time>
      </trkpt>
      <trkpt lat="36.7647910" lon="-3.0606900">
        <ele>323.4</ele>
        <time>2022-11-01T10:26:12Z</time>
      </trkpt>
      <trkpt lat="36.7647570" lon="-3.0605310">
        <ele>322.6</ele>
        <time>2022-11-01T10:26:13Z</time>
      </trkpt>
      <trkpt lat="36.7647150" lon="-3.0603750">
        <ele>321.6</ele>
        <time>2022-11-01T10:26:14Z</time>
      </trkpt>
      <trkpt lat="36.7646730" lon="-3.0602200">
        <ele>320.6</ele>
        <time>2022-11-01T10:26:15Z</time>
      </trkpt>
      <trkpt lat="36.7646370" lon="-3.0600820">
        <ele>320.0</ele>
        <time>2022-11-01T10:26:16Z</time>
      </trkpt>
      <trkpt lat="36.7646190" lon="-3.0599660">
        <ele>319.4</ele>
        <time>2022-11-01T10:26:17Z</time>
      </trkpt>
      <trkpt lat="36.7646320" lon="-3.0598600">
        <ele>318.6</ele>
        <time>2022-11-01T10:26:18Z</time>
      </trkpt>
      <trkpt lat="36.7646780" lon="-3.0597690">
        <ele>317.8</ele>
        <time>2022-11-01T10:26:19Z</time>
      </trkpt>
      <trkpt lat="36.7647440" lon="-3.0596850">
        <ele>317.2</ele>
        <time>2022-11-01T10:26:20Z</time>
      </trkpt>
      <trkpt lat="36.7647920" lon="-3.0595920">
        <ele>316.4</ele>
        <time>2022-11-01T10:26:21Z</time>
      </trkpt>
      <trkpt lat="36.7648020" lon="-3.0594840">
        <ele>315.4</ele>
        <time>2022-11-01T10:26:22Z</time>
      </trkpt>
      <trkpt lat="36.7647680" lon="-3.0593800">
        <ele>314.4</ele>
        <time>2022-11-01T10:26:23Z</time>
      </trkpt>
      <trkpt lat="36.7646980" lon="-3.0593030">
        <ele>313.8</ele>
        <time>2022-11-01T10:26:24Z</time>
      </trkpt>
      <trkpt lat="36.7646120" lon="-3.0592440">
        <ele>313.0</ele>
        <time>2022-11-01T10:26:25Z</time>
      </trkpt>
      <trkpt lat="36.7645150" lon="-3.0592100">
        <ele>312.2</ele>
        <time>2022-11-01T10:26:26Z</time>
      </trkpt>
      <trkpt lat="36.7644120" lon="-3.0592150">
        <ele>311.2</ele>
        <time>2022-11-01T10:26:27Z</time>
      </trkpt>
      <trkpt lat="36.7643110" lon="-3.0592580">
        <ele>310.4</ele>
        <time>2022-11-01T10:26:28Z</time>
      </trkpt>
      <trkpt lat="36.7642200" lon="-3.0593330">
        <ele>309.4</ele>
        <time>2022-11-01T10:26:29Z</time>
      </trkpt>
      <trkpt lat="36.7641430" lon="-3.0594340">
        <ele>308.6</ele>
        <time>2022-11-01T10:26:30Z</time>
      </trkpt>
      <trkpt lat="36.7640740" lon="-3.0595350">
        <ele>308.0</ele>
        <time>2022-11-01T10:26:31Z</time>
      </trkpt>
      <trkpt lat="36.7640000" lon="-3.0596070">
        <ele>307.0</ele>
        <time>2022-11-01T10:26:32Z</time>
      </trkpt>
      <trkpt lat="36.7639130" lon="-3.0596390">
        <ele>306.2</ele>
        <time>2022-11-01T10:26:33Z</time>
      </trkpt>
      <trkpt lat="36.7638170" lon="-3.0596320">
        <ele>305.6</ele>
        <time>2022-11-01T10:26:34Z</time>
      </trkpt>
      <trkpt lat="36.7637190" lon="-3.0595940">
        <ele>304.6</ele>
        <time>2022-11-01T10:26:35Z</time>
      </trkpt>
      <trkpt lat="36.7636210" lon="-3.0595410">
        <ele>303.8</ele>
        <time>2022-11-01T10:26:36Z</time>
      </trkpt>
      <trkpt lat="36.7635240" lon="-3.0594790">
        <ele>303.0</ele>
        <time>2022-11-01T10:26:37Z</time>
      </trkpt>
      <trkpt lat="36.7634260" lon="-3.0594100">
        <ele>302.2</ele>
        <time>2022-11-01T10:26:38Z</time>
      </trkpt>
      <trkpt lat="36.7633210" lon="-3.0593530">
        <ele>301.4</ele>
        <time>2022-11-01T10:26:39Z</time>
      </trkpt>
      <trkpt lat="36.7632060" lon="-3.0593280">
        <ele>300.4</ele>
        <time>2022-11-01T10:26:40Z</time>
      </trkpt>
      <trkpt lat="36.7630870" lon="-3.0593300">
        <ele>299.8</ele>
        <time>2022-11-01T10:26:41Z</time>
      </trkpt>
      <trkpt lat="36.7629640" lon="-3.0593440">
        <ele>299.0</ele>
        <time>2022-11-01T10:26:42Z</time>
      </trkpt>
      <trkpt lat="36.7628390" lon="-3.0593530">
        <ele>298.0</ele>
        <time>2022-11-01T10:26:43Z</time>
      </trkpt>
      <trkpt lat="36.7627140" lon="-3.0593460">
        <ele>297.2</ele>
        <time>2022-11-01T10:26:44Z</time>
      </trkpt>
      <trkpt lat="36.7625900" lon="-3.0593160">
        <ele>296.2</ele>
        <time>2022-11-01T10:26:45Z</time>
      </trkpt>
      <trkpt lat="36.7624630" lon="-3.0592850">
        <ele>295.0</ele>
        <time>2022-11-01T10:26:46Z</time>
      </trkpt>
      <trkpt lat="36.7623330" lon="-3.0592710">
        <ele>294.0</ele>
        <time>2022-11-01T10:26:47Z</time>
      </trkpt>
      <trkpt lat="36.7622020" lon="-3.0592890">
        <ele>292.8</ele>
        <time>2022-11-01T10:26:48Z</time>
      </trkpt>
      <trkpt lat="36.7620770" lon="-3.0593320">
        <ele>291.8</ele>
        <time>2022-11-01T10:26:49Z</time>
      </trkpt>
      <trkpt lat="36.7619650" lon="-3.0593740">
        <ele>291.0</ele>
        <time>2022-11-01T10:26:50Z</time>
      </trkpt>
      <trkpt lat="36.7618670" lon="-3.0593950">
        <ele>290.4</ele>
        <time>2022-11-01T10:26:51Z</time>
      </trkpt>
      <trkpt lat="36.7617860" lon="-3.0593860">
        <ele>289.6</ele>
        <time>2022-11-01T10:26:52Z</time>
      </trkpt>
      <trkpt lat="36.7617200" lon="-3.0593420">
        <ele>289.0</ele>
        <time>2022-11-01T10:26:53Z</time>
      </trkpt>
      <trkpt lat="36.7616770" lon="-3.0592630">
        <ele>288.4</ele>
        <time>2022-11-01T10:26:54Z</time>
      </trkpt>
      <trkpt lat="36.7616640" lon="-3.0591620">
        <ele>287.8</ele>
        <time>2022-11-01T10:26:55Z</time>
      </trkpt>
      <trkpt lat="36.7616860" lon="-3.0590590">
        <ele>287.2</ele>
        <time>2022-11-01T10:26:56Z</time>
      </trkpt>
      <trkpt lat="36.7617380" lon="-3.0589700">
        <ele>286.4</ele>
        <time>2022-11-01T10:26:57Z</time>
      </trkpt>
      <trkpt lat="36.7618140" lon="-3.0589050">
        <ele>285.6</ele>
        <time>2022-11-01T10:26:58Z</time>
      </trkpt>
      <trkpt lat="36.7619070" lon="-3.0588620">
        <ele>285.0</ele>
        <time>2022-11-01T10:26:59Z</time>
      </trkpt>
      <trkpt lat="36.7620080" lon="-3.0588330">
        <ele>284.4</ele>
        <time>2022-11-01T10:27:00Z</time>
      </trkpt>
      <trkpt lat="36.7621090" lon="-3.0588020">
        <ele>283.8</ele>
        <time>2022-11-01T10:27:01Z</time>
      </trkpt>
      <trkpt lat="36.7622060" lon="-3.0587510">
        <ele>283.2</ele>
        <time>2022-11-01T10:27:02Z</time>
      </trkpt>
      <trkpt lat="36.7622960" lon="-3.0586770">
        <ele>282.6</ele>
        <time>2022-11-01T10:27:03Z</time>
      </trkpt>
      <trkpt lat="36.7623700" lon="-3.0585870">
        <ele>282.0</ele>
        <time>2022-11-01T10:27:04Z</time>
      </trkpt>
      <trkpt lat="36.7624150" lon="-3.0584890">
        <ele>281.2</ele>
        <time>2022-11-01T10:27:05Z</time>
      </trkpt>
      <trkpt lat="36.7624240" lon="-3.0583850">
        <ele>280.4</ele>
        <time>2022-11-01T10:27:06Z</time>
      </trkpt>
      <trkpt lat="36.7623910" lon="-3.0582880">
        <ele>279.6</ele>
        <time>2022-11-01T10:27:07Z</time>
      </trkpt>
      <trkpt lat="36.7623250" lon="-3.0582100">
        <ele>278.8</ele>
        <time>2022-11-01T10:27:08Z</time>
      </trkpt>
      <trkpt lat="36.7622420" lon="-3.0581550">
        <ele>278.2</ele>
        <time>2022-11-01T10:27:09Z</time>
      </trkpt>
      <trkpt lat="36.7621590" lon="-3.0580890">
        <ele>277.2</ele>
        <time>2022-11-01T10:27:10Z</time>
      </trkpt>
      <trkpt lat="36.7620870" lon="-3.0580000">
        <ele>276.6</ele>
        <time>2022-11-01T10:27:11Z</time>
      </trkpt>
      <trkpt lat="36.7620250" lon="-3.0578940">
        <ele>275.8</ele>
        <time>2022-11-01T10:27:12Z</time>
      </trkpt>
      <trkpt lat="36.7619690" lon="-3.0577770">
        <ele>274.8</ele>
        <time>2022-11-01T10:27:13Z</time>
      </trkpt>
      <trkpt lat="36.7619180" lon="-3.0576580">
        <ele>274.0</ele>
        <time>2022-11-01T10:27:14Z</time>
      </trkpt>
      <trkpt lat="36.7618690" lon="-3.0575340">
        <ele>273.6</ele>
        <time>2022-11-01T10:27:15Z</time>
      </trkpt>
      <trkpt lat="36.7618100" lon="-3.0574170">
        <ele>272.6</ele>
        <time>2022-11-01T10:27:16Z</time>
      </trkpt>
      <trkpt lat="36.7617470" lon="-3.0573180">
        <ele>272.0</ele>
        <time>2022-11-01T10:27:17Z</time>
      </trkpt>
      <trkpt lat="36.7617050" lon="-3.0572280">
        <ele>271.6</ele>
        <time>2022-11-01T10:27:18Z</time>
      </trkpt>
      <trkpt lat="36.7616990" lon="-3.0571350">
        <ele>271.0</ele>
        <time>2022-11-01T10:27:19Z</time>
      </trkpt>
      <trkpt lat="36.7617320" lon="-3.0570520">
        <ele>270.4</ele>
        <time>2022-11-01T10:27:20Z</time>
      </trkpt>
      <trkpt lat="36.7617940" lon="-3.0569910">
        <ele>269.8</ele>
        <time>2022-11-01T10:27:21Z</time>
      </trkpt>
      <trkpt lat="36.7618700" lon="-3.0569520">
        <ele>269.4</ele>
        <time>2022-11-01T10:27:22Z</time>
      </trkpt>
      <trkpt lat="36.7619550" lon="-3.0569230">
        <ele>269.0</ele>
        <time>2022-11-01T10:27:23Z</time>
      </trkpt>
      <trkpt lat="36.7620410" lon="-3.0568750">
        <ele>268.4</ele>
        <time>2022-11-01T10:27:24Z</time>
      </trkpt>
      <trkpt lat="36.7621180" lon="-3.0567990">
        <ele>267.8</ele>
        <time>2022-11-01T10:27:25Z</time>
      </trkpt>
      <trkpt lat="36.7621850" lon="-3.0567060">
        <ele>267.2</ele>
        <time>2022-11-01T10:27:26Z</time>
      </trkpt>
      <trkpt lat="36.7622540" lon="-3.0566120">
        <ele>266.6</ele>
        <time>2022-11-01T10:27:27Z</time>
      </trkpt>
      <trkpt lat="36.7623400" lon="-3.0565340">
        <ele>266.0</ele>
        <time>2022-11-01T10:27:28Z</time>
      </trkpt>
      <trkpt lat="36.7624370" lon="-3.0564690">
        <ele>265.0</ele>
        <time>2022-11-01T10:27:29Z</time>
      </trkpt>
      <trkpt lat="36.7625420" lon="-3.0564220">
        <ele>264.4</ele>
        <time>2022-11-01T10:27:30Z</time>
      </trkpt>
      <trkpt lat="36.7626540" lon="-3.0563960">
        <ele>263.6</ele>
        <time>2022-11-01T10:27:31Z</time>
      </trkpt>
      <trkpt lat="36.7627700" lon="-3.0563820">
        <ele>262.6</ele>
        <time>2022-11-01T10:27:32Z</time>
      </trkpt>
      <trkpt lat="36.7628790" lon="-3.0563680">
        <ele>262.0</ele>
        <time>2022-11-01T10:27:33Z</time>
      </trkpt>
      <trkpt lat="36.7629770" lon="-3.0563440">
        <ele>261.4</ele>
        <time>2022-11-01T10:27:34Z</time>
      </trkpt>
      <trkpt lat="36.7630520" lon="-3.0562920">
        <ele>260.8</ele>
        <time>2022-11-01T10:27:35Z</time>
      </trkpt>
      <trkpt lat="36.7630970" lon="-3.0562050">
        <ele>260.0</ele>
        <time>2022-11-01T10:27:36Z</time>
      </trkpt>
      <trkpt lat="36.7631020" lon="-3.0560970">
        <ele>259.2</ele>
        <time>2022-11-01T10:27:37Z</time>
      </trkpt>
      <trkpt lat="36.7630730" lon="-3.0559850">
        <ele>258.2</ele>
        <time>2022-11-01T10:27:38Z</time>
      </trkpt>
      <trkpt lat="36.7630130" lon="-3.0558850">
        <ele>257.2</ele>
        <time>2022-11-01T10:27:39Z</time>
      </trkpt>
      <trkpt lat="36.7629270" lon="-3.0558150">
        <ele>256.4</ele>
        <time>2022-11-01T10:27:40Z</time>
      </trkpt>
      <trkpt lat="36.7628250" lon="-3.0557820">
        <ele>255.6</ele>
        <time>2022-11-01T10:27:41Z</time>
      </trkpt>
      <trkpt lat="36.7627160" lon="-3.0557720">
        <ele>254.8</ele>
        <time>2022-11-01T10:27:42Z</time>
      </trkpt>
      <trkpt lat="36.7626040" lon="-3.0557590">
        <ele>254.0</ele>
        <time>2022-11-01T10:27:43Z</time>
      </trkpt>
      <trkpt lat="36.7624910" lon="-3.0557290">
        <ele>253.0</ele>
        <time>2022-11-01T10:27:44Z</time>
      </trkpt>
      <trkpt lat="36.7623810" lon="-3.0556730">
        <ele>252.2</ele>
        <time>2022-11-01T10:27:45Z</time>
      </trkpt>
      <trkpt lat="36.7622720" lon="-3.0556000">
        <ele>251.0</ele>
        <time>2022-11-01T10:27:46Z</time>
      </trkpt>
      <trkpt lat="36.7621610" lon="-3.0555310">
        <ele>249.4</ele>
        <time>2022-11-01T10:27:47Z</time>
      </trkpt>
      <trkpt lat="36.7620390" lon="-3.0554950">
        <ele>248.4</ele>
        <time>2022-11-01T10:27:48Z</time>
      </trkpt>
      <trkpt lat="36.7619130" lon="-3.0554900">
        <ele>247.2</ele>
        <time>2022-11-01T10:27:49Z</time>
      </trkpt>
      <trkpt lat="36.7617830" lon="-3.0554830">
        <ele>246.2</ele>
        <time>2022-11-01T10:27:50Z</time>
      </trkpt>
      <trkpt lat="36.7616540" lon="-3.0554590">
        <ele>245.0</ele>
        <time>2022-11-01T10:27:51Z</time>
      </trkpt>
      <trkpt lat="36.7615230" lon="-3.0554300">
        <ele>244.0</ele>
        <time>2022-11-01T10:27:52Z</time>
      </trkpt>
      <trkpt lat="36.7613890" lon="-3.0554070">
        <ele>243.2</ele>
        <time>2022-11-01T10:27:53Z</time>
      </trkpt>
      <trkpt lat="36.7612540" lon="-3.0553850">
        <ele>242.6</ele>
        <time>2022-11-01T10:27:54Z</time>
      </trkpt>
      <trkpt lat="36.7611190" lon="-3.0553500">
        <ele>241.8</ele>
        <time>2022-11-01T10:27:55Z</time>
      </trkpt>
      <trkpt lat="36.7609900" lon="-3.0552920">
        <ele>240.2</ele>
        <time>2022-11-01T10:27:56Z</time>
      </trkpt>
      <trkpt lat="36.7608670" lon="-3.0552110">
        <ele>239.0</ele>
        <time>2022-11-01T10:27:57Z</time>
      </trkpt>
      <trkpt lat="36.7607470" lon="-3.0551200">
        <ele>237.8</ele>
        <time>2022-11-01T10:27:58Z</time>
      </trkpt>
      <trkpt lat="36.7606290" lon="-3.0550270">
        <ele>236.8</ele>
        <time>2022-11-01T10:27:59Z</time>
      </trkpt>
      <trkpt lat="36.7605130" lon="-3.0549280">
        <ele>235.8</ele>
        <time>2022-11-01T10:28:00Z</time>
      </trkpt>
      <trkpt lat="36.7603940" lon="-3.0548300">
        <ele>234.8</ele>
        <time>2022-11-01T10:28:01Z</time>
      </trkpt>
      <trkpt lat="36.7602720" lon="-3.0547370">
        <ele>233.8</ele>
        <time>2022-11-01T10:28:02Z</time>
      </trkpt>
      <trkpt lat="36.7601470" lon="-3.0546630">
        <ele>233.0</ele>
        <time>2022-11-01T10:28:03Z</time>
      </trkpt>
      <trkpt lat="36.7600250" lon="-3.0546250">
        <ele>232.4</ele>
        <time>2022-11-01T10:28:04Z</time>
      </trkpt>
      <trkpt lat="36.7599100" lon="-3.0546310">
        <ele>231.6</ele>
        <time>2022-11-01T10:28:05Z</time>
      </trkpt>
      <trkpt lat="36.7598070" lon="-3.0546800">
        <ele>231.0</ele>
        <time>2022-11-01T10:28:06Z</time>
      </trkpt>
      <trkpt lat="36.7597080" lon="-3.0547430">
        <ele>230.4</ele>
        <time>2022-11-01T10:28:07Z</time>
      </trkpt>
      <trkpt lat="36.7596030" lon="-3.0547810">
        <ele>229.4</ele>
        <time>2022-11-01T10:28:08Z</time>
      </trkpt>
      <trkpt lat="36.7594910" lon="-3.0547890">
        <ele>228.8</ele>
        <time>2022-11-01T10:28:09Z</time>
      </trkpt>
      <trkpt lat="36.7593720" lon="-3.0547750">
        <ele>227.8</ele>
        <time>2022-11-01T10:28:10Z</time>
      </trkpt>
      <trkpt lat="36.7592540" lon="-3.0547490">
        <ele>227.0</ele>
        <time>2022-11-01T10:28:11Z</time>
      </trkpt>
      <trkpt lat="36.7591370" lon="-3.0547050">
        <ele>226.2</ele>
        <time>2022-11-01T10:28:12Z</time>
      </trkpt>
      <trkpt lat="36.7590270" lon="-3.0546380">
        <ele>225.4</ele>
        <time>2022-11-01T10:28:13Z</time>
      </trkpt>
      <trkpt lat="36.7589330" lon="-3.0545510">
        <ele>224.4</ele>
        <time>2022-11-01T10:28:14Z</time>
      </trkpt>
      <trkpt lat="36.7588630" lon="-3.0544530">
        <ele>223.6</ele>
        <time>2022-11-01T10:28:15Z</time>
      </trkpt>
      <trkpt lat="36.7588290" lon="-3.0543520">
        <ele>222.8</ele>
        <time>2022-11-01T10:28:16Z</time>
      </trkpt>
      <trkpt lat="36.7588330" lon="-3.0542550">
        <ele>222.2</ele>
        <time>2022-11-01T10:28:17Z</time>
      </trkpt>
      <trkpt lat="36.7588680" lon="-3.0541650">
        <ele>221.8</ele>
        <time>2022-11-01T10:28:18Z</time>
      </trkpt>
      <trkpt lat="36.7589100" lon="-3.0540740">
        <ele>221.4</ele>
        <time>2022-11-01T10:28:19Z</time>
      </trkpt>
      <trkpt lat="36.7589410" lon="-3.0539730">
        <ele>221.0</ele>
        <time>2022-11-01T10:28:20Z</time>
      </trkpt>
      <trkpt lat="36.7589500" lon="-3.0538620">
        <ele>220.6</ele>
        <time>2022-11-01T10:28:21Z</time>
      </trkpt>
      <trkpt lat="36.7589380" lon="-3.0537470">
        <ele>220.2</ele>
        <time>2022-11-01T10:28:22Z</time>
      </trkpt>
      <trkpt lat="36.7589140" lon="-3.0536300">
        <ele>219.4</ele>
        <time>2022-11-01T10:28:23Z</time>
      </trkpt>
      <trkpt lat="36.7588750" lon="-3.0535140">
        <ele>218.8</ele>
        <time>2022-11-01T10:28:24Z</time>
      </trkpt>
      <trkpt lat="36.7588220" lon="-3.0534020">
        <ele>218.2</ele>
        <time>2022-11-01T10:28:25Z</time>
      </trkpt>
      <trkpt lat="36.7587620" lon="-3.0533010">
        <ele>217.6</ele>
        <time>2022-11-01T10:28:26Z</time>
      </trkpt>
      <trkpt lat="36.7587010" lon="-3.0532080">
        <ele>216.8</ele>
        <time>2022-11-01T10:28:27Z</time>
      </trkpt>
      <trkpt lat="36.7586400" lon="-3.0531190">
        <ele>215.8</ele>
        <time>2022-11-01T10:28:28Z</time>
      </trkpt>
      <trkpt lat="36.7585820" lon="-3.0530350">
        <ele>215.2</ele>
        <time>2022-11-01T10:28:29Z</time>
      </trkpt>
      <trkpt lat="36.7585370" lon="-3.0529580">
        <ele>214.4</ele>
        <time>2022-11-01T10:28:30Z</time>
      </trkpt>
      <trkpt lat="36.7585070" lon="-3.0528870">
        <ele>213.6</ele>
        <time>2022-11-01T10:28:31Z</time>
      </trkpt>
      <trkpt lat="36.7584990" lon="-3.0528130">
        <ele>213.2</ele>
        <time>2022-11-01T10:28:32Z</time>
      </trkpt>
      <trkpt lat="36.7585170" lon="-3.0527350">
        <ele>212.4</ele>
        <time>2022-11-01T10:28:33Z</time>
      </trkpt>
      <trkpt lat="36.7585560" lon="-3.0526590">
        <ele>212.0</ele>
        <time>2022-11-01T10:28:34Z</time>
      </trkpt>
      <trkpt lat="36.7586070" lon="-3.0525880">
        <ele>211.6</ele>
        <time>2022-11-01T10:28:35Z</time>
      </trkpt>
      <trkpt lat="36.7586540" lon="-3.0525090">
        <ele>211.0</ele>
        <time>2022-11-01T10:28:36Z</time>
      </trkpt>
      <trkpt lat="36.7586830" lon="-3.0524130">
        <ele>210.4</ele>
        <time>2022-11-01T10:28:37Z</time>
      </trkpt>
      <trkpt lat="36.7586930" lon="-3.0523190">
        <ele>210.0</ele>
        <time>2022-11-01T10:28:38Z</time>
      </trkpt>
      <trkpt lat="36.7586990" lon="-3.0522340">
        <ele>209.4</ele>
        <time>2022-11-01T10:28:39Z</time>
      </trkpt>
      <trkpt lat="36.7587240" lon="-3.0521610">
        <ele>208.8</ele>
        <time>2022-11-01T10:28:40Z</time>
      </trkpt>
      <trkpt lat="36.7587760" lon="-3.0521110">
        <ele>208.2</ele>
        <time>2022-11-01T10:28:41Z</time>
      </trkpt>
      <trkpt lat="36.7588510" lon="-3.0520880">
        <ele>207.4</ele>
        <time>2022-11-01T10:28:42Z</time>
      </trkpt>
      <trkpt lat="36.7589360" lon="-3.0520920">
        <ele>206.8</ele>
        <time>2022-11-01T10:28:43Z</time>
      </trkpt>
      <trkpt lat="36.7590280" lon="-3.0521120">
        <ele>206.2</ele>
        <time>2022-11-01T10:28:44Z</time>
      </trkpt>
      <trkpt lat="36.7591200" lon="-3.0521420">
        <ele>205.6</ele>
        <time>2022-11-01T10:28:45Z</time>
      </trkpt>
      <trkpt lat="36.7592160" lon="-3.0521800">
        <ele>205.0</ele>
        <time>2022-11-01T10:28:46Z</time>
      </trkpt>
      <trkpt lat="36.7593100" lon="-3.0522270">
        <ele>204.2</ele>
        <time>2022-11-01T10:28:47Z</time>
      </trkpt>
      <trkpt lat="36.7594070" lon="-3.0522780">
        <ele>203.6</ele>
        <time>2022-11-01T10:28:48Z</time>
      </trkpt>
      <trkpt lat="36.7595120" lon="-3.0523060">
        <ele>202.4</ele>
        <time>2022-11-01T10:28:49Z</time>
      </trkpt>
      <trkpt lat="36.7596240" lon="-3.0523050">
        <ele>201.6</ele>
        <time>2022-11-01T10:28:50Z</time>
      </trkpt>
      <trkpt lat="36.7597360" lon="-3.0522880">
        <ele>200.6</ele>
        <time>2022-11-01T10:28:51Z</time>
      </trkpt>
      <trkpt lat="36.7598490" lon="-3.0522750">
        <ele>199.8</ele>
        <time>2022-11-01T10:28:52Z</time>
      </trkpt>
      <trkpt lat="36.7599650" lon="-3.0522460">
        <ele>199.0</ele>
        <time>2022-11-01T10:28:53Z</time>
      </trkpt>
      <trkpt lat="36.7600760" lon="-3.0521850">
        <ele>198.0</ele>
        <time>2022-11-01T10:28:54Z</time>
      </trkpt>
      <trkpt lat="36.7601720" lon="-3.0520940">
        <ele>197.0</ele>
        <time>2022-11-01T10:28:55Z</time>
      </trkpt>
      <trkpt lat="36.7602610" lon="-3.0519840">
        <ele>196.0</ele>
        <time>2022-11-01T10:28:56Z</time>
      </trkpt>
      <trkpt lat="36.7603520" lon="-3.0518680">
        <ele>195.2</ele>
        <time>2022-11-01T10:28:57Z</time>
      </trkpt>
      <trkpt lat="36.7604440" lon="-3.0517520">
        <ele>194.2</ele>
        <time>2022-11-01T10:28:58Z</time>
      </trkpt>
      <trkpt lat="36.7605330" lon="-3.0516310">
        <ele>193.2</ele>
        <time>2022-11-01T10:28:59Z</time>
      </trkpt>
      <trkpt lat="36.7606140" lon="-3.0515010">
        <ele>192.4</ele>
        <time>2022-11-01T10:29:00Z</time>
      </trkpt>
      <trkpt lat="36.7606830" lon="-3.0513710">
        <ele>191.6</ele>
        <time>2022-11-01T10:29:01Z</time>
      </trkpt>
      <trkpt lat="36.7607450" lon="-3.0512490">
        <ele>190.6</ele>
        <time>2022-11-01T10:29:02Z</time>
      </trkpt>
      <trkpt lat="36.7608010" lon="-3.0511390">
        <ele>189.8</ele>
        <time>2022-11-01T10:29:03Z</time>
      </trkpt>
      <trkpt lat="36.7608390" lon="-3.0510310">
        <ele>189.0</ele>
        <time>2022-11-01T10:29:04Z</time>
      </trkpt>
      <trkpt lat="36.7608520" lon="-3.0509230">
        <ele>188.2</ele>
        <time>2022-11-01T10:29:05Z</time>
      </trkpt>
      <trkpt lat="36.7608290" lon="-3.0508200">
        <ele>187.6</ele>
        <time>2022-11-01T10:29:06Z</time>
      </trkpt>
      <trkpt lat="36.7607740" lon="-3.0507410">
        <ele>187.0</ele>
        <time>2022-11-01T10:29:07Z</time>
      </trkpt>
      <trkpt lat="36.7607070" lon="-3.0506910">
        <ele>186.6</ele>
        <time>2022-11-01T10:29:08Z</time>
      </trkpt>
      <trkpt lat="36.7606380" lon="-3.0506800">
        <ele>186.2</ele>
        <time>2022-11-01T10:29:09Z</time>
      </trkpt>
      <trkpt lat="36.7605720" lon="-3.0507110">
        <ele>186.0</ele>
        <time>2022-11-01T10:29:10Z</time>
      </trkpt>
      <trkpt lat="36.7605120" lon="-3.0507720">
        <ele>185.6</ele>
        <time>2022-11-01T10:29:11Z</time>
      </trkpt>
      <trkpt lat="36.7604530" lon="-3.0508480">
        <ele>185.2</ele>
        <time>2022-11-01T10:29:12Z</time>
      </trkpt>
      <trkpt lat="36.7603880" lon="-3.0509290">
        <ele>184.8</ele>
        <time>2022-11-01T10:29:13Z</time>
      </trkpt>
      <trkpt lat="36.7603190" lon="-3.0510120">
        <ele>184.2</ele>
        <time>2022-11-01T10:29:14Z</time>
      </trkpt>
      <trkpt lat="36.7602420" lon="-3.0510850">
        <ele>183.4</ele>
        <time>2022-11-01T10:29:15Z</time>
      </trkpt>
      <trkpt lat="36.7601560" lon="-3.0511290">
        <ele>182.8</ele>
        <time>2022-11-01T10:29:16Z</time>
      </trkpt>
      <trkpt lat="36.7600650" lon="-3.0511370">
        <ele>182.0</ele>
        <time>2022-11-01T10:29:17Z</time>
      </trkpt>
      <trkpt lat="36.7599730" lon="-3.0511070">
        <ele>181.4</ele>
        <time>2022-11-01T10:29:18Z</time>
      </trkpt>
      <trkpt lat="36.7598870" lon="-3.0510460">
        <ele>180.6</ele>
        <time>2022-11-01T10:29:19Z</time>
      </trkpt>
      <trkpt lat="36.7598090" lon="-3.0509670">
        <ele>180.0</ele>
        <time>2022-11-01T10:29:20Z</time>
      </trkpt>
      <trkpt lat="36.7597350" lon="-3.0508780">
        <ele>179.4</ele>
        <time>2022-11-01T10:29:21Z</time>
      </trkpt>
      <trkpt lat="36.7596520" lon="-3.0507980">
        <ele>178.8</ele>
        <time>2022-11-01T10:29:22Z</time>
      </trkpt>
      <trkpt lat="36.7595610" lon="-3.0507290">
        <ele>178.0</ele>
        <time>2022-11-01T10:29:23Z</time>
      </trkpt>
      <trkpt lat="36.7594650" lon="-3.0506610">
        <ele>177.2</ele>
        <time>2022-11-01T10:29:24Z</time>
      </trkpt>
      <trkpt lat="36.7593650" lon="-3.0505930">
        <ele>176.6</ele>
        <time>2022-11-01T10:29:25Z</time>
      </trkpt>
      <trkpt lat="36.7592620" lon="-3.0505330">
        <ele>175.8</ele>
        <time>2022-11-01T10:29:26Z</time>
      </trkpt>
      <trkpt lat="36.7591510" lon="-3.0504850">
        <ele>175.0</ele>
        <time>2022-11-01T10:29:27Z</time>
      </trkpt>
      <trkpt lat="36.7590420" lon="-3.0504380">
        <ele>174.0</ele>
        <time>2022-11-01T10:29:28Z</time>
      </trkpt>
      <trkpt lat="36.7589430" lon="-3.0503660">
        <ele>172.6</ele>
        <time>2022-11-01T10:29:29Z</time>
      </trkpt>
      <trkpt lat="36.7588500" lon="-3.0502650">
        <ele>171.2</ele>
        <time>2022-11-01T10:29:30Z</time>
      </trkpt>
      <trkpt lat="36.7587560" lon="-3.0501730">
        <ele>170.0</ele>
        <time>2022-11-01T10:29:31Z</time>
      </trkpt>
      <trkpt lat="36.7586540" lon="-3.0501040">
        <ele>169.2</ele>
        <time>2022-11-01T10:29:32Z</time>
      </trkpt>
      <trkpt lat="36.7585480" lon="-3.0500370">
        <ele>168.6</ele>
        <time>2022-11-01T10:29:33Z</time>
      </trkpt>
      <trkpt lat="36.7584450" lon="-3.0499580">
        <ele>168.0</ele>
        <time>2022-11-01T10:29:34Z</time>
      </trkpt>
      <trkpt lat="36.7583500" lon="-3.0498680">
        <ele>167.4</ele>
        <time>2022-11-01T10:29:35Z</time>
      </trkpt>
      <trkpt lat="36.7582610" lon="-3.0497660">
        <ele>166.4</ele>
        <time>2022-11-01T10:29:36Z</time>
      </trkpt>
      <trkpt lat="36.7581700" lon="-3.0496740">
        <ele>165.6</ele>
        <time>2022-11-01T10:29:37Z</time>
      </trkpt>
      <trkpt lat="36.7580680" lon="-3.0496180">
        <ele>164.8</ele>
        <time>2022-11-01T10:29:38Z</time>
      </trkpt>
      <trkpt lat="36.7579580" lon="-3.0495950">
        <ele>164.0</ele>
        <time>2022-11-01T10:29:39Z</time>
      </trkpt>
      <trkpt lat="36.7578470" lon="-3.0495690">
        <ele>163.2</ele>
        <time>2022-11-01T10:29:40Z</time>
      </trkpt>
      <trkpt lat="36.7577400" lon="-3.0495170">
        <ele>162.4</ele>
        <time>2022-11-01T10:29:41Z</time>
      </trkpt>
      <trkpt lat="36.7576340" lon="-3.0494490">
        <ele>161.4</ele>
        <time>2022-11-01T10:29:42Z</time>
      </trkpt>
      <trkpt lat="36.7575290" lon="-3.0493680">
        <ele>160.6</ele>
        <time>2022-11-01T10:29:43Z</time>
      </trkpt>
      <trkpt lat="36.7574280" lon="-3.0492740">
        <ele>159.8</ele>
        <time>2022-11-01T10:29:44Z</time>
      </trkpt>
      <trkpt lat="36.7573280" lon="-3.0491750">
        <ele>158.8</ele>
        <time>2022-11-01T10:29:45Z</time>
      </trkpt>
      <trkpt lat="36.7572270" lon="-3.0490730">
        <ele>157.2</ele>
        <time>2022-11-01T10:29:46Z</time>
      </trkpt>
      <trkpt lat="36.7571250" lon="-3.0489690">
        <ele>155.8</ele>
        <time>2022-11-01T10:29:47Z</time>
      </trkpt>
      <trkpt lat="36.7570210" lon="-3.0488620">
        <ele>154.8</ele>
        <time>2022-11-01T10:29:48Z</time>
      </trkpt>
      <trkpt lat="36.7569130" lon="-3.0487580">
        <ele>153.2</ele>
        <time>2022-11-01T10:29:49Z</time>
      </trkpt>
      <trkpt lat="36.7567980" lon="-3.0486620">
        <ele>152.0</ele>
        <time>2022-11-01T10:29:50Z</time>
      </trkpt>
      <trkpt lat="36.7566760" lon="-3.0485760">
        <ele>151.0</ele>
        <time>2022-11-01T10:29:51Z</time>
      </trkpt>
      <trkpt lat="36.7565510" lon="-3.0485000">
        <ele>150.0</ele>
        <time>2022-11-01T10:29:52Z</time>
      </trkpt>
      <trkpt lat="36.7564240" lon="-3.0484190">
        <ele>149.0</ele>
        <time>2022-11-01T10:29:53Z</time>
      </trkpt>
      <trkpt lat="36.7563010" lon="-3.0483260">
        <ele>147.4</ele>
        <time>2022-11-01T10:29:54Z</time>
      </trkpt>
      <trkpt lat="36.7561780" lon="-3.0482270">
        <ele>146.2</ele>
        <time>2022-11-01T10:29:55Z</time>
      </trkpt>
      <trkpt lat="36.7560650" lon="-3.0481440">
        <ele>145.2</ele>
        <time>2022-11-01T10:29:56Z</time>
      </trkpt>
      <trkpt lat="36.7559570" lon="-3.0480840">
        <ele>144.4</ele>
        <time>2022-11-01T10:29:57Z</time>
      </trkpt>
      <trkpt lat="36.7558510" lon="-3.0480520">
        <ele>143.4</ele>
        <time>2022-11-01T10:29:58Z</time>
      </trkpt>
      <trkpt lat="36.7557500" lon="-3.0480630">
        <ele>142.6</ele>
        <time>2022-11-01T10:29:59Z</time>
      </trkpt>
      <trkpt lat="36.7556590" lon="-3.0480940">
        <ele>141.8</ele>
        <time>2022-11-01T10:30:00Z</time>
      </trkpt>
      <trkpt lat="36.7555800" lon="-3.0481090">
        <ele>141.0</ele>
        <time>2022-11-01T10:30:01Z</time>
      </trkpt>
      <trkpt lat="36.7555120" lon="-3.0480910">
        <ele>140.4</ele>
        <time>2022-11-01T10:30:02Z</time>
      </trkpt>
      <trkpt lat="36.7554530" lon="-3.0480370">
        <ele>139.6</ele>
        <time>2022-11-01T10:30:03Z</time>
      </trkpt>
      <trkpt lat="36.7554130" lon="-3.0479540">
        <ele>139.0</ele>
        <time>2022-11-01T10:30:04Z</time>
      </trkpt>
      <trkpt lat="36.7553870" lon="-3.0478550">
        <ele>138.4</ele>
        <time>2022-11-01T10:30:05Z</time>
      </trkpt>
      <trkpt lat="36.7553490" lon="-3.0477540">
        <ele>137.8</ele>
        <time>2022-11-01T10:30:06Z</time>
      </trkpt>
      <trkpt lat="36.7552830" lon="-3.0476730">
        <ele>137.0</ele>
        <time>2022-11-01T10:30:07Z</time>
      </trkpt>
      <trkpt lat="36.7551980" lon="-3.0476320">
        <ele>136.2</ele>
        <time>2022-11-01T10:30:08Z</time>
      </trkpt>
      <trkpt lat="36.7551150" lon="-3.0476000">
        <ele>135.6</ele>
        <time>2022-11-01T10:30:09Z</time>
      </trkpt>
      <trkpt lat="36.7550480" lon="-3.0475410">
        <ele>135.2</ele>
        <time>2022-11-01T10:30:10Z</time>
      </trkpt>
      <trkpt lat="36.7550050" lon="-3.0474530">
        <ele>134.8</ele>
        <time>2022-11-01T10:30:11Z</time>
      </trkpt>
      <trkpt lat="36.7549870" lon="-3.0473480">
        <ele>134.2</ele>
        <time>2022-11-01T10:30:12Z</time>
      </trkpt>
      <trkpt lat="36.7549930" lon="-3.0472360">
        <ele>133.8</ele>
        <time>2022-11-01T10:30:13Z</time>
      </trkpt>
      <trkpt lat="36.7550320" lon="-3.0471320">
        <ele>133.2</ele>
        <time>2022-11-01T10:30:14Z</time>
      </trkpt>
      <trkpt lat="36.7551020" lon="-3.0470500">
        <ele>132.6</ele>
        <time>2022-11-01T10:30:15Z</time>
      </trkpt>
      <trkpt lat="36.7551900" lon="-3.0469900">
        <ele>132.0</ele>
        <time>2022-11-01T10:30:16Z</time>
      </trkpt>
      <trkpt lat="36.7552860" lon="-3.0469380">
        <ele>131.2</ele>
        <time>2022-11-01T10:30:17Z</time>
      </trkpt>
      <trkpt lat="36.7553780" lon="-3.0468690">
        <ele>130.4</ele>
        <time>2022-11-01T10:30:18Z</time>
      </trkpt>
      <trkpt lat="36.7554600" lon="-3.0467780">
        <ele>129.6</ele>
        <time>2022-11-01T10:30:19Z</time>
      </trkpt>
      <trkpt lat="36.7555370" lon="-3.0466760">
        <ele>129.0</ele>
        <time>2022-11-01T10:30:20Z</time>
      </trkpt>
      <trkpt lat="36.7556050" lon="-3.0465760">
        <ele>128.4</ele>
        <time>2022-11-01T10:30:21Z</time>
      </trkpt>
      <trkpt lat="36.7556450" lon="-3.0464760">
        <ele>127.6</ele>
        <time>2022-11-01T10:30:22Z</time>
      </trkpt>
      <trkpt lat="36.7556460" lon="-3.0463730">
        <ele>127.0</ele>
        <time>2022-11-01T10:30:23Z</time>
      </trkpt>
      <trkpt lat="36.7556120" lon="-3.0462740">
        <ele>126.0</ele>
        <time>2022-11-01T10:30:24Z</time>
      </trkpt>
      <trkpt lat="36.7555470" lon="-3.0461960">
        <ele>125.4</ele>
        <time>2022-11-01T10:30:25Z</time>
      </trkpt>
      <trkpt lat="36.7554630" lon="-3.0461420">
        <ele>125.0</ele>
        <time>2022-11-01T10:30:26Z</time>
      </trkpt>
      <trkpt lat="36.7553700" lon="-3.0461040">
        <ele>124.2</ele>
        <time>2022-11-01T10:30:27Z</time>
      </trkpt>
      <trkpt lat="36.7552700" lon="-3.0460750">
        <ele>123.6</ele>
        <time>2022-11-01T10:30:28Z</time>
      </trkpt>
      <trkpt lat="36.7551670" lon="-3.0460550">
        <ele>123.0</ele>
        <time>2022-11-01T10:30:29Z</time>
      </trkpt>
      <trkpt lat="36.7550670" lon="-3.0460200">
        <ele>122.4</ele>
        <time>2022-11-01T10:30:30Z</time>
      </trkpt>
      <trkpt lat="36.7549770" lon="-3.0459580">
        <ele>121.6</ele>
        <time>2022-11-01T10:30:31Z</time>
      </trkpt>
      <trkpt lat="36.7549060" lon="-3.0458760">
        <ele>121.0</ele>
        <time>2022-11-01T10:30:32Z</time>
      </trkpt>
      <trkpt lat="36.7548580" lon="-3.0457860">
        <ele>120.4</ele>
        <time>2022-11-01T10:30:33Z</time>
      </trkpt>
      <trkpt lat="36.7548420" lon="-3.0456890">
        <ele>120.0</ele>
        <time>2022-11-01T10:30:34Z</time>
      </trkpt>
      <trkpt lat="36.7548520" lon="-3.0455840">
        <ele>119.4</ele>
        <time>2022-11-01T10:30:35Z</time>
      </trkpt>
      <trkpt lat="36.7548710" lon="-3.0454750">
        <ele>118.8</ele>
        <time>2022-11-01T10:30:36Z</time>
      </trkpt>
      <trkpt lat="36.7548780" lon="-3.0453570">
        <ele>118.2</ele>
        <time>2022-11-01T10:30:37Z</time>
      </trkpt>
      <trkpt lat="36.7548690" lon="-3.0452360">
        <ele>117.6</ele>
        <time>2022-11-01T10:30:38Z</time>
      </trkpt>
      <trkpt lat="36.7548360" lon="-3.0451260">
        <ele>116.8</ele>
        <time>2022-11-01T10:30:39Z</time>
      </trkpt>
      <trkpt lat="36.7547730" lon="-3.0450380">
        <ele>116.0</ele>
        <time>2022-11-01T10:30:40Z</time>
      </trkpt>
      <trkpt lat="36.7546900" lon="-3.0449750">
        <ele>115.4</ele>
        <time>2022-11-01T10:30:41Z</time>
      </trkpt>
      <trkpt lat="36.7545990" lon="-3.0449370">
        <ele>114.4</ele>
        <time>2022-11-01T10:30:42Z</time>
      </trkpt>
      <trkpt lat="36.7545110" lon="-3.0449310">
        <ele>113.8</ele>
        <time>2022-11-01T10:30:43Z</time>
      </trkpt>
      <trkpt lat="36.7544340" lon="-3.0449620">
        <ele>113.2</ele>
        <time>2022-11-01T10:30:44Z</time>
      </trkpt>
      <trkpt lat="36.7543720" lon="-3.0450300">
        <ele>112.6</ele>
        <time>2022-11-01T10:30:45Z</time>
      </trkpt>
      <trkpt lat="36.7543230" lon="-3.0451190">
        <ele>112.2</ele>
        <time>2022-11-01T10:30:46Z</time>
      </trkpt>
      <trkpt lat="36.7542700" lon="-3.0452020">
        <ele>111.6</ele>
        <time>2022-11-01T10:30:47Z</time>
      </trkpt>
      <trkpt lat="36.7542080" lon="-3.0452570">
        <ele>110.8</ele>
        <time>2022-11-01T10:30:48Z</time>
      </trkpt>
      <trkpt lat="36.7541360" lon="-3.0452670">
        <ele>110.2</ele>
        <time>2022-11-01T10:30:49Z</time>
      </trkpt>
      <trkpt lat="36.7540600" lon="-3.0452340">
        <ele>109.4</ele>
        <time>2022-11-01T10:30:50Z</time>
      </trkpt>
      <trkpt lat="36.7539920" lon="-3.0451690">
        <ele>109.0</ele>
        <time>2022-11-01T10:30:51Z</time>
      </trkpt>
      <trkpt lat="36.7539420" lon="-3.0450790">
        <ele>108.2</ele>
        <time>2022-11-01T10:30:52Z</time>
      </trkpt>
      <trkpt lat="36.7539100" lon="-3.0449740">
        <ele>107.6</ele>
        <time>2022-11-01T10:30:53Z</time>
      </trkpt>
      <trkpt lat="36.7538710" lon="-3.0448760">
        <ele>107.0</ele>
        <time>2022-11-01T10:30:54Z</time>
      </trkpt>
      <trkpt lat="36.7538110" lon="-3.0448140">
        <ele>106.2</ele>
        <time>2022-11-01T10:30:55Z</time>
      </trkpt>
      <trkpt lat="36.7537320" lon="-3.0448000">
        <ele>105.4</ele>
        <time>2022-11-01T10:30:56Z</time>
      </trkpt>
      <trkpt lat="36.7536530" lon="-3.0448320">
        <ele>104.6</ele>
        <time>2022-11-01T10:30:57Z</time>
      </trkpt>
      <trkpt lat="36.7535790" lon="-3.0448960">
        <ele>103.8</ele>
        <time>2022-11-01T10:30:58Z</time>
      </trkpt>
      <trkpt lat="36.7535020" lon="-3.0449630">
        <ele>103.2</ele>
        <time>2022-11-01T10:30:59Z</time>
      </trkpt>
      <trkpt lat="36.7534190" lon="-3.0450220">
        <ele>102.6</ele>
        <time>2022-11-01T10:31:00Z</time>
      </trkpt>
      <trkpt lat="36.7533280" lon="-3.0450580">
        <ele>101.8</ele>
        <time>2022-11-01T10:31:01Z</time>
      </trkpt>
      <trkpt lat="36.7532300" lon="-3.0450580">
        <ele>101.2</ele>
        <time>2022-11-01T10:31:02Z</time>
      </trkpt>
      <trkpt lat="36.7531310" lon="-3.0450260">
        <ele>100.4</ele>
        <time>2022-11-01T10:31:03Z</time>
      </trkpt>
      <trkpt lat="36.7530280" lon="-3.0449920">
        <ele>99.4</ele>
        <time>2022-11-01T10:31:04Z</time>
      </trkpt>
      <trkpt lat="36.7529210" lon="-3.0449780">
        <ele>98.6</ele>
        <time>2022-11-01T10:31:05Z</time>
      </trkpt>
      <trkpt lat="36.7528180" lon="-3.0449800">
        <ele>97.8</ele>
        <time>2022-11-01T10:31:06Z</time>
      </trkpt>
      <trkpt lat="36.7527330" lon="-3.0449650">
        <ele>97.2</ele>
        <time>2022-11-01T10:31:07Z</time>
      </trkpt>
      <trkpt lat="36.7526750" lon="-3.0449130">
        <ele>96.8</ele>
        <time>2022-11-01T10:31:08Z</time>
      </trkpt>
      <trkpt lat="36.7526490" lon="-3.0448340">
        <ele>96.2</ele>
        <time>2022-11-01T10:31:09Z</time>
      </trkpt>
      <trkpt lat="36.7526600" lon="-3.0447470">
        <ele>95.8</ele>
        <time>2022-11-01T10:31:10Z</time>
      </trkpt>
      <trkpt lat="36.7526980" lon="-3.0446700">
        <ele>95.4</ele>
        <time>2022-11-01T10:31:11Z</time>
      </trkpt>
      <trkpt lat="36.7527540" lon="-3.0446090">
        <ele>95.0</ele>
        <time>2022-11-01T10:31:12Z</time>
      </trkpt>
      <trkpt lat="36.7528130" lon="-3.0445470">
        <ele>94.8</ele>
        <time>2022-11-01T10:31:13Z</time>
      </trkpt>
      <trkpt lat="36.7528510" lon="-3.0444710">
        <ele>94.2</ele>
        <time>2022-11-01T10:31:14Z</time>
      </trkpt>
      <trkpt lat="36.7528590" lon="-3.0443820">
        <ele>93.8</ele>
        <time>2022-11-01T10:31:15Z</time>
      </trkpt>
      <trkpt lat="36.7528280" lon="-3.0443030">
        <ele>93.0</ele>
        <time>2022-11-01T10:31:16Z</time>
      </trkpt>
      <trkpt lat="36.7527660" lon="-3.0442610">
        <ele>92.2</ele>
        <time>2022-11-01T10:31:17Z</time>
      </trkpt>
      <trkpt lat="36.7526910" lon="-3.0442580">
        <ele>91.8</ele>
        <time>2022-11-01T10:31:18Z</time>
      </trkpt>
      <trkpt lat="36.7526110" lon="-3.0442840">
        <ele>91.0</ele>
        <time>2022-11-01T10:31:19Z</time>
      </trkpt>
      <trkpt lat="36.7525270" lon="-3.0443200">
        <ele>90.4</ele>
        <time>2022-11-01T10:31:20Z</time>
      </trkpt>
      <trkpt lat="36.7524370" lon="-3.0443510">
        <ele>89.6</ele>
        <time>2022-11-01T10:31:21Z</time>
      </trkpt>
      <trkpt lat="36.7523390" lon="-3.0443710">
        <ele>88.8</ele>
        <time>2022-11-01T10:31:22Z</time>
      </trkpt>
      <trkpt lat="36.7522360" lon="-3.0443890">
        <ele>88.2</ele>
        <time>2022-11-01T10:31:23Z</time>
      </trkpt>
      <trkpt lat="36.7521310" lon="-3.0444080">
        <ele>87.2</ele>
        <time>2022-11-01T10:31:24Z</time>
      </trkpt>
      <trkpt lat="36.7520210" lon="-3.0444230">
        <ele>86.6</ele>
        <time>2022-11-01T10:31:25Z</time>
      </trkpt>
      <trkpt lat="36.7519100" lon="-3.0444280">
        <ele>85.6</ele>
        <time>2022-11-01T10:31:26Z</time>
      </trkpt>
      <trkpt lat="36.7517980" lon="-3.0444160">
        <ele>84.8</ele>
        <time>2022-11-01T10:31:27Z</time>
      </trkpt>
      <trkpt lat="36.7516830" lon="-3.0443810">
        <ele>83.8</ele>
        <time>2022-11-01T10:31:28Z</time>
      </trkpt>
      <trkpt lat="36.7515740" lon="-3.0443380">
        <ele>83.0</ele>
        <time>2022-11-01T10:31:29Z</time>
      </trkpt>
      <trkpt lat="36.7514840" lon="-3.0442910">
        <ele>82.4</ele>
        <time>2022-11-01T10:31:30Z</time>
      </trkpt>
      <trkpt lat="36.7514190" lon="-3.0442260">
        <ele>81.8</ele>
        <time>2022-11-01T10:31:31Z</time>
      </trkpt>
      <trkpt lat="36.7513830" lon="-3.0441410">
        <ele>81.4</ele>
        <time>2022-11-01T10:31:32Z</time>
      </trkpt>
      <trkpt lat="36.7513780" lon="-3.0440340">
        <ele>80.8</ele>
        <time>2022-11-01T10:31:33Z</time>
      </trkpt>
      <trkpt lat="36.7513950" lon="-3.0439210">
        <ele>80.2</ele>
        <time>2022-11-01T10:31:34Z</time>
      </trkpt>
      <trkpt lat="36.7514210" lon="-3.0438050">
        <ele>79.6</ele>
        <time>2022-11-01T10:31:35Z</time>
      </trkpt>
      <trkpt lat="36.7514460" lon="-3.0436860">
        <ele>79.0</ele>
        <time>2022-11-01T10:31:36Z</time>
      </trkpt>
      <trkpt lat="36.7514640" lon="-3.0435620">
        <ele>78.4</ele>
        <time>2022-11-01T10:31:37Z</time>
      </trkpt>
      <trkpt lat="36.7514650" lon="-3.0434320">
        <ele>77.8</ele>
        <time>2022-11-01T10:31:38Z</time>
      </trkpt>
      <trkpt lat="36.7514500" lon="-3.0433020">
        <ele>77.0</ele>
        <time>2022-11-01T10:31:39Z</time>
      </trkpt>
      <trkpt lat="36.7514250" lon="-3.0431690">
        <ele>76.2</ele>
        <time>2022-11-01T10:31:40Z</time>
      </trkpt>
      <trkpt lat="36.7513930" lon="-3.0430400">
        <ele>75.4</ele>
        <time>2022-11-01T10:31:41Z</time>
      </trkpt>
      <trkpt lat="36.7513560" lon="-3.0429310">
        <ele>74.8</ele>
        <time>2022-11-01T10:31:42Z</time>
      </trkpt>
      <trkpt lat="36.7513100" lon="-3.0428480">
        <ele>74.0</ele>
        <time>2022-11-01T10:31:43Z</time>
      </trkpt>
      <trkpt lat="36.7512500" lon="-3.0427860">
        <ele>73.0</ele>
        <time>2022-11-01T10:31:44Z</time>
      </trkpt>
      <trkpt lat="36.7511730" lon="-3.0427530">
        <ele>71.8</ele>
        <time>2022-11-01T10:31:45Z</time>
      </trkpt>
      <trkpt lat="36.7510850" lon="-3.0427550">
        <ele>70.6</ele>
        <time>2022-11-01T10:31:46Z</time>
      </trkpt>
      <trkpt lat="36.7509930" lon="-3.0427940">
        <ele>69.0</ele>
        <time>2022-11-01T10:31:47Z</time>
      </trkpt>
      <trkpt lat="36.7509070" lon="-3.0428650">
        <ele>67.8</ele>
        <time>2022-11-01T10:31:48Z</time>
      </trkpt>
      <trkpt lat="36.7508310" lon="-3.0429580">
        <ele>66.4</ele>
        <time>2022-11-01T10:31:49Z</time>
      </trkpt>
      <trkpt lat="36.7507600" lon="-3.0430540">
        <ele>65.2</ele>
        <time>2022-11-01T10:31:50Z</time>
      </trkpt>
      <trkpt lat="36.7506970" lon="-3.0431350">
        <ele>64.0</ele>
        <time>2022-11-01T10:31:51Z</time>
      </trkpt>
      <trkpt lat="36.7506410" lon="-3.0432050">
        <ele>62.6</ele>
        <time>2022-11-01T10:31:52Z</time>
      </trkpt>
      <trkpt lat="36.7505880" lon="-3.0432680">
        <ele>61.6</ele>
        <time>2022-11-01T10:31:53Z</time>
      </trkpt>
      <trkpt lat="36.7505330" lon="-3.0433180">
        <ele>60.4</ele>
        <time>2022-11-01T10:31:54Z</time>
      </trkpt>
      <trkpt lat="36.7504760" lon="-3.0433500">
        <ele>59.2</ele>
        <time>2022-11-01T10:31:55Z</time>
      </trkpt>
      <trkpt lat="36.7504230" lon="-3.0433760">
        <ele>58.6</ele>
        <time>2022-11-01T10:31:56Z</time>
      </trkpt>
      <trkpt lat="36.7503580" lon="-3.0433880">
        <ele>58.2</ele>
        <time>2022-11-01T10:31:57Z</time>
      </trkpt>
      <trkpt lat="36.7502820" lon="-3.0433910">
        <ele>58.0</ele>
        <time>2022-11-01T10:31:58Z</time>
      </trkpt>
      <trkpt lat="36.7502820" lon="-3.0433910">
        <ele>57.6</ele>
        <time>2022-11-01T10:31:59Z</time>
      </trkpt>
      <trkpt lat="36.7502820" lon="-3.0433910">
        <ele>57.2</ele>
        <time>2022-11-01T10:32:00Z</time>
      </trkpt>
      <trkpt lat="36.7502820" lon="-3.0433910">
        <ele>57.2</ele>
        <time>2022-11-01T10:32:01Z</time>
      </trkpt>
      <trkpt lat="36.7500700" lon="-3.0434320">
        <ele>57.0</ele>
        <time>2022-11-01T10:32:02Z</time>
      </trkpt>
      <trkpt lat="36.7500550" lon="-3.0434160">
        <ele>56.8</ele>
        <time>2022-11-01T10:32:03Z</time>
      </trkpt>
      <trkpt lat="36.7500200" lon="-3.0433850">
        <ele>56.8</ele>
        <time>2022-11-01T10:32:04Z</time>
      </trkpt>
      <trkpt lat="36.7499960" lon="-3.0433600">
        <ele>56.8</ele>
        <time>2022-11-01T10:32:05Z</time>
      </trkpt>
      <trkpt lat="36.7499750" lon="-3.0433150">
        <ele>56.8</ele>
        <time>2022-11-01T10:32:06Z</time>
      </trkpt>
      <trkpt lat="36.7499510" lon="-3.0432870">
        <ele>56.8</ele>
        <time>2022-11-01T10:32:07Z</time>
      </trkpt>
      <trkpt lat="36.7499320" lon="-3.0432670">
        <ele>56.8</ele>
        <time>2022-11-01T10:32:08Z</time>
      </trkpt>
      <trkpt lat="36.7499300" lon="-3.0432520">
        <ele>56.8</ele>
        <time>2022-11-01T10:32:09Z</time>
      </trkpt>
      <trkpt lat="36.7499320" lon="-3.0432270">
        <ele>57.0</ele>
        <time>2022-11-01T10:32:10Z</time>
      </trkpt>
      <trkpt lat="36.7499350" lon="-3.0432150">
        <ele>57.0</ele>
        <time>2022-11-01T10:32:11Z</time>
      </trkpt>
      <trkpt lat="36.7499340" lon="-3.0432080">
        <ele>57.0</ele>
        <time>2022-11-01T10:32:12Z</time>
      </trkpt>
      <trkpt lat="36.7499330" lon="-3.0432030">
        <ele>57.0</ele>
        <time>2022-11-01T10:32:13Z</time>
      </trkpt>
      <trkpt lat="36.7499340" lon="-3.0431930">
        <ele>57.2</ele>
        <time>2022-11-01T10:32:14Z</time>
      </trkpt>
      <trkpt lat="36.7499340" lon="-3.0431900">
        <ele>57.2</ele>
        <time>2022-11-01T10:32:21Z</time>
      </trkpt>
      <trkpt lat="36.7499340" lon="-3.0431870">
        <ele>57.0</ele>
        <time>2022-11-01T10:32:22Z</time>
      </trkpt>
      <trkpt lat="36.7499350" lon="-3.0431890">
        <ele>57.0</ele>
        <time>2022-11-01T10:32:23Z</time>
      </trkpt>
      <trkpt lat="36.7499350" lon="-3.0431900">
        <ele>57.0</ele>
        <time>2022-11-01T10:32:24Z</time>
      </trkpt>
      <trkpt lat="36.7499350" lon="-3.0431890">
        <ele>57.0</ele>
        <time>2022-11-01T10:32:25Z</time>
      </trkpt>
      <trkpt lat="36.7499360" lon="-3.0431870">
        <ele>57.0</ele>
        <time>2022-11-01T10:32:26Z</time>
      </trkpt>
      <trkpt lat="36.7499380" lon="-3.0431870">
        <ele>57.0</ele>
        <time>2022-11-01T10:32:27Z</time>
      </trkpt>
      <trkpt lat="36.7499390" lon="-3.0431870">
        <ele>57.0</ele>
        <time>2022-11-01T10:32:28Z</time>
      </trkpt>
      <trkpt lat="36.7499390" lon="-3.0431880">
        <ele>57.0</ele>
        <time>2022-11-01T10:32:29Z</time>
      </trkpt>
      <trkpt lat="36.7499940" lon="-3.0431320">
        <ele>57.4</ele>
        <time>2022-11-01T10:32:59Z</time>
      </trkpt>
      <trkpt lat="36.7500010" lon="-3.0431090">
        <ele>57.6</ele>
        <time>2022-11-01T10:33:00Z</time>
      </trkpt>
      <trkpt lat="36.7500130" lon="-3.0430970">
        <ele>57.8</ele>
        <time>2022-11-01T10:33:01Z</time>
      </trkpt>
      <trkpt lat="36.7500260" lon="-3.0430810">
        <ele>58.0</ele>
        <time>2022-11-01T10:33:02Z</time>
      </trkpt>
      <trkpt lat="36.7500410" lon="-3.0430630">
        <ele>58.2</ele>
        <time>2022-11-01T10:33:03Z</time>
      </trkpt>
      <trkpt lat="36.7500580" lon="-3.0430400">
        <ele>58.6</ele>
        <time>2022-11-01T10:33:04Z</time>
      </trkpt>
      <trkpt lat="36.7500730" lon="-3.0430160">
        <ele>58.8</ele>
        <time>2022-11-01T10:33:05Z</time>
      </trkpt>
      <trkpt lat="36.7500860" lon="-3.0429870">
        <ele>59.2</ele>
        <time>2022-11-01T10:33:06Z</time>
      </trkpt>
      <trkpt lat="36.7500930" lon="-3.0429530">
        <ele>59.6</ele>
        <time>2022-11-01T10:33:07Z</time>
      </trkpt>
      <trkpt lat="36.7500980" lon="-3.0429180">
        <ele>59.8</ele>
        <time>2022-11-01T10:33:08Z</time>
      </trkpt>
      <trkpt lat="36.7500990" lon="-3.0428810">
        <ele>60.2</ele>
        <time>2022-11-01T10:33:09Z</time>
      </trkpt>
      <trkpt lat="36.7501010" lon="-3.0428450">
        <ele>60.4</ele>
        <time>2022-11-01T10:33:10Z</time>
      </trkpt>
      <trkpt lat="36.7501090" lon="-3.0428130">
        <ele>60.8</ele>
        <time>2022-11-01T10:33:11Z</time>
      </trkpt>
      <trkpt lat="36.7501190" lon="-3.0427860">
        <ele>61.2</ele>
        <time>2022-11-01T10:33:12Z</time>
      </trkpt>
      <trkpt lat="36.7501260" lon="-3.0427580">
        <ele>61.4</ele>
        <time>2022-11-01T10:33:13Z</time>
      </trkpt>
      <trkpt lat="36.7501260" lon="-3.0427350">
        <ele>61.6</ele>
        <time>2022-11-01T10:33:14Z</time>
      </trkpt>
      <trkpt lat="36.7501270" lon="-3.0427110">
        <ele>61.8</ele>
        <time>2022-11-01T10:33:15Z</time>
      </trkpt>
      <trkpt lat="36.7501300" lon="-3.0426870">
        <ele>62.2</ele>
        <time>2022-11-01T10:33:16Z</time>
      </trkpt>
      <trkpt lat="36.7501330" lon="-3.0426610">
        <ele>62.2</ele>
        <time>2022-11-01T10:33:17Z</time>
      </trkpt>
      <trkpt lat="36.7501390" lon="-3.0426350">
        <ele>62.4</ele>
        <time>2022-11-01T10:33:18Z</time>
      </trkpt>
      <trkpt lat="36.7501420" lon="-3.0426080">
        <ele>62.6</ele>
        <time>2022-11-01T10:33:19Z</time>
      </trkpt>
      <trkpt lat="36.7501470" lon="-3.0425840">
        <ele>62.6</ele>
        <time>2022-11-01T10:33:20Z</time>
      </trkpt>
      <trkpt lat="36.7501520" lon="-3.0425590">
        <ele>62.6</ele>
        <time>2022-11-01T10:33:21Z</time>
      </trkpt>
      <trkpt lat="36.7501580" lon="-3.0425340">
        <ele>62.8</ele>
        <time>2022-11-01T10:33:22Z</time>
      </trkpt>
      <trkpt lat="36.7501620" lon="-3.0425100">
        <ele>62.8</ele>
        <time>2022-11-01T10:33:23Z</time>
      </trkpt>
      <trkpt lat="36.7501650" lon="-3.0424840">
        <ele>62.8</ele>
        <time>2022-11-01T10:33:24Z</time>
      </trkpt>
      <trkpt lat="36.7501670" lon="-3.0424520">
        <ele>62.8</ele>
        <time>2022-11-01T10:33:25Z</time>
      </trkpt>
      <trkpt lat="36.7501730" lon="-3.0424130">
        <ele>62.6</ele>
        <time>2022-11-01T10:33:26Z</time>
      </trkpt>
      <trkpt lat="36.7501760" lon="-3.0423660">
        <ele>62.6</ele>
        <time>2022-11-01T10:33:27Z</time>
      </trkpt>
      <trkpt lat="36.7501800" lon="-3.0423110">
        <ele>62.2</ele>
        <time>2022-11-01T10:33:28Z</time>
      </trkpt>
      <trkpt lat="36.7501880" lon="-3.0422500">
        <ele>62.0</ele>
        <time>2022-11-01T10:33:29Z</time>
      </trkpt>
      <trkpt lat="36.7502070" lon="-3.0421860">
        <ele>61.8</ele>
        <time>2022-11-01T10:33:30Z</time>
      </trkpt>
      <trkpt lat="36.7502310" lon="-3.0421350">
        <ele>61.4</ele>
        <time>2022-11-01T10:33:31Z</time>
      </trkpt>
      <trkpt lat="36.7502520" lon="-3.0421010">
        <ele>61.0</ele>
        <time>2022-11-01T10:33:32Z</time>
      </trkpt>
      <trkpt lat="36.7502730" lon="-3.0420730">
        <ele>60.8</ele>
        <time>2022-11-01T10:33:33Z</time>
      </trkpt>
      <trkpt lat="36.7502980" lon="-3.0420520">
        <ele>60.4</ele>
        <time>2022-11-01T10:33:34Z</time>
      </trkpt>
      <trkpt lat="36.7503260" lon="-3.0420300">
        <ele>60.2</ele>
        <time>2022-11-01T10:33:35Z</time>
      </trkpt>
      <trkpt lat="36.7503530" lon="-3.0420040">
        <ele>59.8</ele>
        <time>2022-11-01T10:33:36Z</time>
      </trkpt>
      <trkpt lat="36.7503830" lon="-3.0419800">
        <ele>59.6</ele>
        <time>2022-11-01T10:33:37Z</time>
      </trkpt>
      <trkpt lat="36.7504180" lon="-3.0419570">
        <ele>59.2</ele>
        <time>2022-11-01T10:33:38Z</time>
      </trkpt>
      <trkpt lat="36.7504530" lon="-3.0419250">
        <ele>58.8</ele>
        <time>2022-11-01T10:33:39Z</time>
      </trkpt>
      <trkpt lat="36.7504820" lon="-3.0418820">
        <ele>58.6</ele>
        <time>2022-11-01T10:33:40Z</time>
      </trkpt>
      <trkpt lat="36.7505060" lon="-3.0418340">
        <ele>58.2</ele>
        <time>2022-11-01T10:33:41Z</time>
      </trkpt>
      <trkpt lat="36.7505190" lon="-3.0417790">
        <ele>57.8</ele>
        <time>2022-11-01T10:33:42Z</time>
      </trkpt>
      <trkpt lat="36.7505150" lon="-3.0417250">
        <ele>57.4</ele>
        <time>2022-11-01T10:33:43Z</time>
      </trkpt>
      <trkpt lat="36.7504970" lon="-3.0416790">
        <ele>57.0</ele>
        <time>2022-11-01T10:33:44Z</time>
      </trkpt>
      <trkpt lat="36.7504690" lon="-3.0416440">
        <ele>56.8</ele>
        <time>2022-11-01T10:33:45Z</time>
      </trkpt>
      <trkpt lat="36.7504320" lon="-3.0416120">
        <ele>56.4</ele>
        <time>2022-11-01T10:33:46Z</time>
      </trkpt>
      <trkpt lat="36.7503910" lon="-3.0415820">
        <ele>56.0</ele>
        <time>2022-11-01T10:33:47Z</time>
      </trkpt>
      <trkpt lat="36.7503410" lon="-3.0415620">
        <ele>55.6</ele>
        <time>2022-11-01T10:33:48Z</time>
      </trkpt>
      <trkpt lat="36.7502880" lon="-3.0415490">
        <ele>55.2</ele>
        <time>2022-11-01T10:33:49Z</time>
      </trkpt>
      <trkpt lat="36.7502370" lon="-3.0415410">
        <ele>54.8</ele>
        <time>2022-11-01T10:33:50Z</time>
      </trkpt>
      <trkpt lat="36.7501870" lon="-3.0415350">
        <ele>54.4</ele>
        <time>2022-11-01T10:33:51Z</time>
      </trkpt>
      <trkpt lat="36.7501360" lon="-3.0415350">
        <ele>54.0</ele>
        <time>2022-11-01T10:33:52Z</time>
      </trkpt>
      <trkpt lat="36.7500830" lon="-3.0415370">
        <ele>53.6</ele>
        <time>2022-11-01T10:33:53Z</time>
      </trkpt>
      <trkpt lat="36.7500260" lon="-3.0415330">
        <ele>53.2</ele>
        <time>2022-11-01T10:33:54Z</time>
      </trkpt>
      <trkpt lat="36.7499730" lon="-3.0415250">
        <ele>52.8</ele>
        <time>2022-11-01T10:33:55Z</time>
      </trkpt>
      <trkpt lat="36.7499220" lon="-3.0415160">
        <ele>52.4</ele>
        <time>2022-11-01T10:33:56Z</time>
      </trkpt>
      <trkpt lat="36.7498750" lon="-3.0415010">
        <ele>52.0</ele>
        <time>2022-11-01T10:33:57Z</time>
      </trkpt>
      <trkpt lat="36.7498280" lon="-3.0414870">
        <ele>51.4</ele>
        <time>2022-11-01T10:33:58Z</time>
      </trkpt>
      <trkpt lat="36.7497790" lon="-3.0414630">
        <ele>51.2</ele>
        <time>2022-11-01T10:33:59Z</time>
      </trkpt>
      <trkpt lat="36.7497280" lon="-3.0414300">
        <ele>51.0</ele>
        <time>2022-11-01T10:34:00Z</time>
      </trkpt>
      <trkpt lat="36.7496780" lon="-3.0413880">
        <ele>50.4</ele>
        <time>2022-11-01T10:34:01Z</time>
      </trkpt>
      <trkpt lat="36.7496300" lon="-3.0413430">
        <ele>50.0</ele>
        <time>2022-11-01T10:34:02Z</time>
      </trkpt>
      <trkpt lat="36.7495860" lon="-3.0412950">
        <ele>49.6</ele>
        <time>2022-11-01T10:34:03Z</time>
      </trkpt>
      <trkpt lat="36.7495430" lon="-3.0412440">
        <ele>49.2</ele>
        <time>2022-11-01T10:34:04Z</time>
      </trkpt>
      <trkpt lat="36.7495020" lon="-3.0411920">
        <ele>48.8</ele>
        <time>2022-11-01T10:34:05Z</time>
      </trkpt>
      <trkpt lat="36.7494600" lon="-3.0411440">
        <ele>48.4</ele>
        <time>2022-11-01T10:34:06Z</time>
      </trkpt>
      <trkpt lat="36.7494220" lon="-3.0411000">
        <ele>48.0</ele>
        <time>2022-11-01T10:34:07Z</time>
      </trkpt>
      <trkpt lat="36.7493870" lon="-3.0410530">
        <ele>47.6</ele>
        <time>2022-11-01T10:34:08Z</time>
      </trkpt>
      <trkpt lat="36.7493510" lon="-3.0410060">
        <ele>47.2</ele>
        <time>2022-11-01T10:34:09Z</time>
      </trkpt>
      <trkpt lat="36.7493130" lon="-3.0409560">
        <ele>46.8</ele>
        <time>2022-11-01T10:34:10Z</time>
      </trkpt>
      <trkpt lat="36.7492740" lon="-3.0409040">
        <ele>46.4</ele>
        <time>2022-11-01T10:34:11Z</time>
      </trkpt>
      <trkpt lat="36.7492380" lon="-3.0408490">
        <ele>46.0</ele>
        <time>2022-11-01T10:34:12Z</time>
      </trkpt>
      <trkpt lat="36.7492120" lon="-3.0407990">
        <ele>45.6</ele>
        <time>2022-11-01T10:34:13Z</time>
      </trkpt>
      <trkpt lat="36.7491970" lon="-3.0407500">
        <ele>45.2</ele>
        <time>2022-11-01T10:34:14Z</time>
      </trkpt>
      <trkpt lat="36.7491890" lon="-3.0406990">
        <ele>45.0</ele>
        <time>2022-11-01T10:34:15Z</time>
      </trkpt>
      <trkpt lat="36.7491870" lon="-3.0406530">
        <ele>44.6</ele>
        <time>2022-11-01T10:34:16Z</time>
      </trkpt>
      <trkpt lat="36.7491890" lon="-3.0406200">
        <ele>44.4</ele>
        <time>2022-11-01T10:34:17Z</time>
      </trkpt>
      <trkpt lat="36.7491910" lon="-3.0405940">
        <ele>44.2</ele>
        <time>2022-11-01T10:34:18Z</time>
      </trkpt>
      <trkpt lat="36.7491900" lon="-3.0405850">
        <ele>44.2</ele>
        <time>2022-11-01T10:34:19Z</time>
      </trkpt>
      <trkpt lat="36.7491910" lon="-3.0405820">
        <ele>44.0</ele>
        <time>2022-11-01T10:34:20Z</time>
      </trkpt>
      <trkpt lat="36.7491930" lon="-3.0405810">
        <ele>44.0</ele>
        <time>2022-11-01T10:34:21Z</time>
      </trkpt>
      <trkpt lat="36.7492010" lon="-3.0405310">
        <ele>43.8</ele>
        <time>2022-11-01T10:34:22Z</time>
      </trkpt>
      <trkpt lat="36.7492070" lon="-3.0404840">
        <ele>44.2</ele>
        <time>2022-11-01T10:49:15Z</time>
      </trkpt>
      <trkpt lat="36.7492140" lon="-3.0404370">
        <ele>44.2</ele>
        <time>2022-11-01T10:49:16Z</time>
      </trkpt>
      <trkpt lat="36.7492130" lon="-3.0404360">
        <ele>44.2</ele>
        <time>2022-11-01T10:49:17Z</time>
      </trkpt>
      <trkpt lat="36.7492130" lon="-3.0404360">
        <ele>44.2</ele>
        <time>2022-11-01T10:49:18Z</time>
      </trkpt>
      <trkpt lat="36.7492140" lon="-3.0404360">
        <ele>44.2</ele>
        <time>2022-11-01T10:49:19Z</time>
      </trkpt>
      <trkpt lat="36.7492130" lon="-3.0404360">
        <ele>44.2</ele>
        <time>2022-11-01T10:49:20Z</time>
      </trkpt>
      <trkpt lat="36.7492120" lon="-3.0404370">
        <ele>44.2</ele>
        <time>2022-11-01T10:49:21Z</time>
      </trkpt>
      <trkpt lat="36.7492100" lon="-3.0404370">
        <ele>44.2</ele>
        <time>2022-11-01T10:49:22Z</time>
      </trkpt>
      <trkpt lat="36.7492100" lon="-3.0404380">
        <ele>44.2</ele>
        <time>2022-11-01T10:49:23Z</time>
      </trkpt>
      <trkpt lat="36.7492100" lon="-3.0404380">
        <ele>44.2</ele>
        <time>2022-11-01T10:49:24Z</time>
      </trkpt>
      <trkpt lat="36.7492090" lon="-3.0404440">
        <ele>44.2</ele>
        <time>2022-11-01T10:49:40Z</time>
      </trkpt>
      <trkpt lat="36.7492070" lon="-3.0404450">
        <ele>44.2</ele>
        <time>2022-11-01T10:49:41Z</time>
      </trkpt>
      <trkpt lat="36.7492060" lon="-3.0404450">
        <ele>44.2</ele>
        <time>2022-11-01T10:49:42Z</time>
      </trkpt>
      <trkpt lat="36.7492050" lon="-3.0404460">
        <ele>44.2</ele>
        <time>2022-11-01T10:49:43Z</time>
      </trkpt>
      <trkpt lat="36.7492040" lon="-3.0404460">
        <ele>44.2</ele>
        <time>2022-11-01T10:49:44Z</time>
      </trkpt>
      <trkpt lat="36.7492050" lon="-3.0404460">
        <ele>44.2</ele>
        <time>2022-11-01T10:49:45Z</time>
      </trkpt>
      <trkpt lat="36.7492060" lon="-3.0404460">
        <ele>44.2</ele>
        <time>2022-11-01T10:49:46Z</time>
      </trkpt>
      <trkpt lat="36.7492050" lon="-3.0404450">
        <ele>44.2</ele>
        <time>2022-11-01T10:49:47Z</time>
      </trkpt>
      <trkpt lat="36.7492050" lon="-3.0404450">
        <ele>44.2</ele>
        <time>2022-11-01T10:49:48Z</time>
      </trkpt>
      <trkpt lat="36.7492050" lon="-3.0404450">
        <ele>44.2</ele>
        <time>2022-11-01T10:49:49Z</time>
      </trkpt>
      <trkpt lat="36.7492040" lon="-3.0404450">
        <ele>44.0</ele>
        <time>2022-11-01T10:49:50Z</time>
      </trkpt>
      <trkpt lat="36.7492020" lon="-3.0404470">
        <ele>44.0</ele>
        <time>2022-11-01T10:49:51Z</time>
      </trkpt>
      <trkpt lat="36.7492000" lon="-3.0404490">
        <ele>44.2</ele>
        <time>2022-11-01T10:49:52Z</time>
      </trkpt>
      <trkpt lat="36.7491980" lon="-3.0404500">
        <ele>44.2</ele>
        <time>2022-11-01T10:50:15Z</time>
      </trkpt>
      <trkpt lat="36.7491960" lon="-3.0404520">
        <ele>44.2</ele>
        <time>2022-11-01T10:50:16Z</time>
      </trkpt>
      <trkpt lat="36.7491960" lon="-3.0404520">
        <ele>44.2</ele>
        <time>2022-11-01T10:50:17Z</time>
      </trkpt>
      <trkpt lat="36.7491960" lon="-3.0404520">
        <ele>44.2</ele>
        <time>2022-11-01T10:50:18Z</time>
      </trkpt>
      <trkpt lat="36.7491960" lon="-3.0404520">
        <ele>44.2</ele>
        <time>2022-11-01T10:50:19Z</time>
      </trkpt>
      <trkpt lat="36.7491970" lon="-3.0404520">
        <ele>44.2</ele>
        <time>2022-11-01T10:50:20Z</time>
      </trkpt>
      <trkpt lat="36.7491960" lon="-3.0404520">
        <ele>44.2</ele>
        <time>2022-11-01T10:50:21Z</time>
      </trkpt>
      <trkpt lat="36.7491960" lon="-3.0404520">
        <ele>44.2</ele>
        <time>2022-11-01T10:50:22Z</time>
      </trkpt>
      <trkpt lat="36.7491960" lon="-3.0404520">
        <ele>44.2</ele>
        <time>2022-11-01T10:50:23Z</time>
      </trkpt>
      <trkpt lat="36.7491960" lon="-3.0404510">
        <ele>44.4</ele>
        <time>2022-11-01T10:50:24Z</time>
      </trkpt>
      <trkpt lat="36.7491970" lon="-3.0404510">
        <ele>44.2</ele>
        <time>2022-11-01T10:50:25Z</time>
      </trkpt>
      <trkpt lat="36.7491970" lon="-3.0404500">
        <ele>44.4</ele>
        <time>2022-11-01T10:51:31Z</time>
      </trkpt>
      <trkpt lat="36.7491970" lon="-3.0404490">
        <ele>44.4</ele>
        <time>2022-11-01T10:51:32Z</time>
      </trkpt>
      <trkpt lat="36.7491980" lon="-3.0404490">
        <ele>44.4</ele>
        <time>2022-11-01T10:51:33Z</time>
      </trkpt>
      <trkpt lat="36.7491980" lon="-3.0404480">
        <ele>44.4</ele>
        <time>2022-11-01T10:51:34Z</time>
      </trkpt>
      <trkpt lat="36.7491990" lon="-3.0404470">
        <ele>44.2</ele>
        <time>2022-11-01T10:51:35Z</time>
      </trkpt>
      <trkpt lat="36.7491990" lon="-3.0404470">
        <ele>44.2</ele>
        <time>2022-11-01T10:51:36Z</time>
      </trkpt>
      <trkpt lat="36.7492000" lon="-3.0404460">
        <ele>44.2</ele>
        <time>2022-11-01T10:51:37Z</time>
      </trkpt>
      <trkpt lat="36.7492000" lon="-3.0404450">
        <ele>44.2</ele>
        <time>2022-11-01T10:51:38Z</time>
      </trkpt>
      <trkpt lat="36.7492000" lon="-3.0404440">
        <ele>44.2</ele>
        <time>2022-11-01T10:51:39Z</time>
      </trkpt>
      <trkpt lat="36.7492010" lon="-3.0404440">
        <ele>44.2</ele>
        <time>2022-11-01T10:51:40Z</time>
      </trkpt>
      <trkpt lat="36.7492010" lon="-3.0404430">
        <ele>44.2</ele>
        <time>2022-11-01T10:51:41Z</time>
      </trkpt>
      <trkpt lat="36.7492020" lon="-3.0404420">
        <ele>45.0</ele>
        <time>2022-11-01T10:58:01Z</time>
      </trkpt>
      <trkpt lat="36.7492020" lon="-3.0404420">
        <ele>45.0</ele>
        <time>2022-11-01T10:58:02Z</time>
      </trkpt>
      <trkpt lat="36.7492010" lon="-3.0404400">
        <ele>45.0</ele>
        <time>2022-11-01T10:58:03Z</time>
      </trkpt>
      <trkpt lat="36.7492010" lon="-3.0404410">
        <ele>45.0</ele>
        <time>2022-11-01T10:58:04Z</time>
      </trkpt>
      <trkpt lat="36.7491990" lon="-3.0404430">
        <ele>45.0</ele>
        <time>2022-11-01T10:58:05Z</time>
      </trkpt>
      <trkpt lat="36.7491980" lon="-3.0404450">
        <ele>45.0</ele>
        <time>2022-11-01T10:58:06Z</time>
      </trkpt>
      <trkpt lat="36.7491890" lon="-3.0403700">
        <ele>45.4</ele>
        <time>2022-11-01T10:59:36Z</time>
      </trkpt>
      <trkpt lat="36.7491820" lon="-3.0403470">
        <ele>45.4</ele>
        <time>2022-11-01T10:59:37Z</time>
      </trkpt>
      <trkpt lat="36.7491720" lon="-3.0403260">
        <ele>45.4</ele>
        <time>2022-11-01T10:59:38Z</time>
      </trkpt>
      <trkpt lat="36.7491540" lon="-3.0403110">
        <ele>45.4</ele>
        <time>2022-11-01T10:59:39Z</time>
      </trkpt>
      <trkpt lat="36.7491320" lon="-3.0403010">
        <ele>45.4</ele>
        <time>2022-11-01T10:59:40Z</time>
      </trkpt>
      <trkpt lat="36.7491110" lon="-3.0402970">
        <ele>45.2</ele>
        <time>2022-11-01T10:59:41Z</time>
      </trkpt>
      <trkpt lat="36.7490840" lon="-3.0402900">
        <ele>45.4</ele>
        <time>2022-11-01T10:59:42Z</time>
      </trkpt>
      <trkpt lat="36.7490550" lon="-3.0402800">
        <ele>45.2</ele>
        <time>2022-11-01T10:59:43Z</time>
      </trkpt>
      <trkpt lat="36.7490210" lon="-3.0402690">
        <ele>45.2</ele>
        <time>2022-11-01T10:59:44Z</time>
      </trkpt>
      <trkpt lat="36.7489870" lon="-3.0402570">
        <ele>45.2</ele>
        <time>2022-11-01T10:59:45Z</time>
      </trkpt>
      <trkpt lat="36.7489570" lon="-3.0402360">
        <ele>45.2</ele>
        <time>2022-11-01T10:59:46Z</time>
      </trkpt>
      <trkpt lat="36.7489290" lon="-3.0402060">
        <ele>45.2</ele>
        <time>2022-11-01T10:59:47Z</time>
      </trkpt>
      <trkpt lat="36.7489040" lon="-3.0401690">
        <ele>45.2</ele>
        <time>2022-11-01T10:59:48Z</time>
      </trkpt>
      <trkpt lat="36.7488820" lon="-3.0401240">
        <ele>45.0</ele>
        <time>2022-11-01T10:59:49Z</time>
      </trkpt>
      <trkpt lat="36.7488620" lon="-3.0400730">
        <ele>45.0</ele>
        <time>2022-11-01T10:59:50Z</time>
      </trkpt>
      <trkpt lat="36.7488440" lon="-3.0400140">
        <ele>44.8</ele>
        <time>2022-11-01T10:59:51Z</time>
      </trkpt>
      <trkpt lat="36.7488270" lon="-3.0399480">
        <ele>44.6</ele>
        <time>2022-11-01T10:59:52Z</time>
      </trkpt>
      <trkpt lat="36.7488100" lon="-3.0398750">
        <ele>44.2</ele>
        <time>2022-11-01T10:59:53Z</time>
      </trkpt>
      <trkpt lat="36.7487870" lon="-3.0397960">
        <ele>43.6</ele>
        <time>2022-11-01T10:59:54Z</time>
      </trkpt>
      <trkpt lat="36.7487510" lon="-3.0397160">
        <ele>43.2</ele>
        <time>2022-11-01T10:59:55Z</time>
      </trkpt>
      <trkpt lat="36.7486990" lon="-3.0396430">
        <ele>42.6</ele>
        <time>2022-11-01T10:59:56Z</time>
      </trkpt>
      <trkpt lat="36.7486540" lon="-3.0395820">
        <ele>42.0</ele>
        <time>2022-11-01T10:59:57Z</time>
      </trkpt>
      <trkpt lat="36.7485990" lon="-3.0395100">
        <ele>41.4</ele>
        <time>2022-11-01T10:59:58Z</time>
      </trkpt>
      <trkpt lat="36.7485450" lon="-3.0394240">
        <ele>40.8</ele>
        <time>2022-11-01T10:59:59Z</time>
      </trkpt>
      <trkpt lat="36.7484990" lon="-3.0393240">
        <ele>40.2</ele>
        <time>2022-11-01T11:00:00Z</time>
      </trkpt>
      <trkpt lat="36.7484560" lon="-3.0392170">
        <ele>39.4</ele>
        <time>2022-11-01T11:00:01Z</time>
      </trkpt>
      <trkpt lat="36.7484090" lon="-3.0391060">
        <ele>38.8</ele>
        <time>2022-11-01T11:00:02Z</time>
      </trkpt>
      <trkpt lat="36.7483610" lon="-3.0389950">
        <ele>37.8</ele>
        <time>2022-11-01T11:00:03Z</time>
      </trkpt>
      <trkpt lat="36.7483100" lon="-3.0388960">
        <ele>37.2</ele>
        <time>2022-11-01T11:00:04Z</time>
      </trkpt>
      <trkpt lat="36.7482560" lon="-3.0388270">
        <ele>36.4</ele>
        <time>2022-11-01T11:00:05Z</time>
      </trkpt>
      <trkpt lat="36.7481960" lon="-3.0387960">
        <ele>35.8</ele>
        <time>2022-11-01T11:00:06Z</time>
      </trkpt>
      <trkpt lat="36.7481290" lon="-3.0387960">
        <ele>35.0</ele>
        <time>2022-11-01T11:00:07Z</time>
      </trkpt>
      <trkpt lat="36.7480620" lon="-3.0388300">
        <ele>34.4</ele>
        <time>2022-11-01T11:00:08Z</time>
      </trkpt>
      <trkpt lat="36.7480040" lon="-3.0388910">
        <ele>33.6</ele>
        <time>2022-11-01T11:00:09Z</time>
      </trkpt>
      <trkpt lat="36.7479560" lon="-3.0389700">
        <ele>33.0</ele>
        <time>2022-11-01T11:00:10Z</time>
      </trkpt>
      <trkpt lat="36.7479210" lon="-3.0390620">
        <ele>32.2</ele>
        <time>2022-11-01T11:00:11Z</time>
      </trkpt>
      <trkpt lat="36.7479010" lon="-3.0391620">
        <ele>31.6</ele>
        <time>2022-11-01T11:00:12Z</time>
      </trkpt>
      <trkpt lat="36.7478920" lon="-3.0392660">
        <ele>31.0</ele>
        <time>2022-11-01T11:00:13Z</time>
      </trkpt>
      <trkpt lat="36.7478940" lon="-3.0393670">
        <ele>30.4</ele>
        <time>2022-11-01T11:00:14Z</time>
      </trkpt>
      <trkpt lat="36.7479120" lon="-3.0394580">
        <ele>29.8</ele>
        <time>2022-11-01T11:00:15Z</time>
      </trkpt>
      <trkpt lat="36.7479520" lon="-3.0395360">
        <ele>29.2</ele>
        <time>2022-11-01T11:00:16Z</time>
      </trkpt>
      <trkpt lat="36.7480030" lon="-3.0396060">
        <ele>28.6</ele>
        <time>2022-11-01T11:00:17Z</time>
      </trkpt>
      <trkpt lat="36.7480480" lon="-3.0396820">
        <ele>28.0</ele>
        <time>2022-11-01T11:00:18Z</time>
      </trkpt>
      <trkpt lat="36.7480780" lon="-3.0397630">
        <ele>27.6</ele>
        <time>2022-11-01T11:00:19Z</time>
      </trkpt>
      <trkpt lat="36.7480890" lon="-3.0398470">
        <ele>27.0</ele>
        <time>2022-11-01T11:00:20Z</time>
      </trkpt>
      <trkpt lat="36.7480740" lon="-3.0399270">
        <ele>26.4</ele>
        <time>2022-11-01T11:00:21Z</time>
      </trkpt>
      <trkpt lat="36.7480310" lon="-3.0399910">
        <ele>25.8</ele>
        <time>2022-11-01T11:00:22Z</time>
      </trkpt>
      <trkpt lat="36.7479700" lon="-3.0400310">
        <ele>25.4</ele>
        <time>2022-11-01T11:00:23Z</time>
      </trkpt>
      <trkpt lat="36.7479160" lon="-3.0400520">
        <ele>25.0</ele>
        <time>2022-11-01T11:00:24Z</time>
      </trkpt>
      <trkpt lat="36.7478660" lon="-3.0400610">
        <ele>24.4</ele>
        <time>2022-11-01T11:00:25Z</time>
      </trkpt>
      <trkpt lat="36.7478150" lon="-3.0400710">
        <ele>24.4</ele>
        <time>2022-11-01T11:00:26Z</time>
      </trkpt>
      <trkpt lat="36.7477790" lon="-3.0400790">
        <ele>23.8</ele>
        <time>2022-11-01T11:00:27Z</time>
      </trkpt>
      <trkpt lat="36.7477500" lon="-3.0400790">
        <ele>23.6</ele>
        <time>2022-11-01T11:00:28Z</time>
      </trkpt>
      <trkpt lat="36.7477190" lon="-3.0400670">
        <ele>23.4</ele>
        <time>2022-11-01T11:00:29Z</time>
      </trkpt>
      <trkpt lat="36.7476930" lon="-3.0400410">
        <ele>23.2</ele>
        <time>2022-11-01T11:00:30Z</time>
      </trkpt>
      <trkpt lat="36.7476780" lon="-3.0400000">
        <ele>23.0</ele>
        <time>2022-11-01T11:00:31Z</time>
      </trkpt>
      <trkpt lat="36.7476680" lon="-3.0399490">
        <ele>22.8</ele>
        <time>2022-11-01T11:00:32Z</time>
      </trkpt>
      <trkpt lat="36.7476620" lon="-3.0398930">
        <ele>22.8</ele>
        <time>2022-11-01T11:00:33Z</time>
      </trkpt>
      <trkpt lat="36.7476610" lon="-3.0398340">
        <ele>22.8</ele>
        <time>2022-11-01T11:00:34Z</time>
      </trkpt>
      <trkpt lat="36.7476630" lon="-3.0397740">
        <ele>22.6</ele>
        <time>2022-11-01T11:00:35Z</time>
      </trkpt>
      <trkpt lat="36.7476680" lon="-3.0397140">
        <ele>22.6</ele>
        <time>2022-11-01T11:00:36Z</time>
      </trkpt>
      <trkpt lat="36.7476730" lon="-3.0396560">
        <ele>22.6</ele>
        <time>2022-11-01T11:00:37Z</time>
      </trkpt>
      <trkpt lat="36.7476740" lon="-3.0395990">
        <ele>22.6</ele>
        <time>2022-11-01T11:00:38Z</time>
      </trkpt>
      <trkpt lat="36.7476770" lon="-3.0395410">
        <ele>22.6</ele>
        <time>2022-11-01T11:00:39Z</time>
      </trkpt>
      <trkpt lat="36.7476810" lon="-3.0394830">
        <ele>22.6</ele>
        <time>2022-11-01T11:00:40Z</time>
      </trkpt>
      <trkpt lat="36.7476850" lon="-3.0394240">
        <ele>22.6</ele>
        <time>2022-11-01T11:00:41Z</time>
      </trkpt>
      <trkpt lat="36.7476880" lon="-3.0393640">
        <ele>22.6</ele>
        <time>2022-11-01T11:00:42Z</time>
      </trkpt>
      <trkpt lat="36.7476890" lon="-3.0393020">
        <ele>22.6</ele>
        <time>2022-11-01T11:00:43Z</time>
      </trkpt>
      <trkpt lat="36.7476920" lon="-3.0392380">
        <ele>22.6</ele>
        <time>2022-11-01T11:00:44Z</time>
      </trkpt>
      <trkpt lat="36.7476970" lon="-3.0391740">
        <ele>22.6</ele>
        <time>2022-11-01T11:00:45Z</time>
      </trkpt>
      <trkpt lat="36.7476970" lon="-3.0391110">
        <ele>22.6</ele>
        <time>2022-11-01T11:00:46Z</time>
      </trkpt>
      <trkpt lat="36.7477000" lon="-3.0390460">
        <ele>22.6</ele>
        <time>2022-11-01T11:00:47Z</time>
      </trkpt>
      <trkpt lat="36.7477040" lon="-3.0389820">
        <ele>22.6</ele>
        <time>2022-11-01T11:00:48Z</time>
      </trkpt>
      <trkpt lat="36.7477080" lon="-3.0389170">
        <ele>22.8</ele>
        <time>2022-11-01T11:00:49Z</time>
      </trkpt>
      <trkpt lat="36.7477140" lon="-3.0388540">
        <ele>22.8</ele>
        <time>2022-11-01T11:00:50Z</time>
      </trkpt>
      <trkpt lat="36.7477200" lon="-3.0387890">
        <ele>22.8</ele>
        <time>2022-11-01T11:00:51Z</time>
      </trkpt>
      <trkpt lat="36.7477250" lon="-3.0387250">
        <ele>22.8</ele>
        <time>2022-11-01T11:00:52Z</time>
      </trkpt>
      <trkpt lat="36.7477300" lon="-3.0386590">
        <ele>22.8</ele>
        <time>2022-11-01T11:00:53Z</time>
      </trkpt>
      <trkpt lat="36.7477340" lon="-3.0385940">
        <ele>22.8</ele>
        <time>2022-11-01T11:00:54Z</time>
      </trkpt>
      <trkpt lat="36.7477390" lon="-3.0385290">
        <ele>23.0</ele>
        <time>2022-11-01T11:00:55Z</time>
      </trkpt>
      <trkpt lat="36.7477430" lon="-3.0384630">
        <ele>22.8</ele>
        <time>2022-11-01T11:00:56Z</time>
      </trkpt>
      <trkpt lat="36.7477480" lon="-3.0383960">
        <ele>22.8</ele>
        <time>2022-11-01T11:00:57Z</time>
      </trkpt>
      <trkpt lat="36.7477530" lon="-3.0383310">
        <ele>22.8</ele>
        <time>2022-11-01T11:00:58Z</time>
      </trkpt>
      <trkpt lat="36.7477580" lon="-3.0382660">
        <ele>23.0</ele>
        <time>2022-11-01T11:00:59Z</time>
      </trkpt>
      <trkpt lat="36.7477620" lon="-3.0382010">
        <ele>23.0</ele>
        <time>2022-11-01T11:01:00Z</time>
      </trkpt>
      <trkpt lat="36.7477660" lon="-3.0381350">
        <ele>23.2</ele>
        <time>2022-11-01T11:01:01Z</time>
      </trkpt>
      <trkpt lat="36.7477680" lon="-3.0380690">
        <ele>23.2</ele>
        <time>2022-11-01T11:01:02Z</time>
      </trkpt>
      <trkpt lat="36.7477710" lon="-3.0380040">
        <ele>23.2</ele>
        <time>2022-11-01T11:01:03Z</time>
      </trkpt>
      <trkpt lat="36.7477810" lon="-3.0379390">
        <ele>23.2</ele>
        <time>2022-11-01T11:01:04Z</time>
      </trkpt>
      <trkpt lat="36.7477860" lon="-3.0378740">
        <ele>23.2</ele>
        <time>2022-11-01T11:01:05Z</time>
      </trkpt>
      <trkpt lat="36.7477920" lon="-3.0378070">
        <ele>23.2</ele>
        <time>2022-11-01T11:01:06Z</time>
      </trkpt>
      <trkpt lat="36.7477970" lon="-3.0377400">
        <ele>23.4</ele>
        <time>2022-11-01T11:01:07Z</time>
      </trkpt>
      <trkpt lat="36.7478030" lon="-3.0376720">
        <ele>23.4</ele>
        <time>2022-11-01T11:01:08Z</time>
      </trkpt>
      <trkpt lat="36.7478070" lon="-3.0376040">
        <ele>23.4</ele>
        <time>2022-11-01T11:01:09Z</time>
      </trkpt>
      <trkpt lat="36.7478130" lon="-3.0375360">
        <ele>23.4</ele>
        <time>2022-11-01T11:01:10Z</time>
      </trkpt>
      <trkpt lat="36.7478180" lon="-3.0374670">
        <ele>23.4</ele>
        <time>2022-11-01T11:01:11Z</time>
      </trkpt>
      <trkpt lat="36.7478230" lon="-3.0373980">
        <ele>23.6</ele>
        <time>2022-11-01T11:01:12Z</time>
      </trkpt>
      <trkpt lat="36.7478270" lon="-3.0373290">
        <ele>23.6</ele>
        <time>2022-11-01T11:01:13Z</time>
      </trkpt>
      <trkpt lat="36.7478300" lon="-3.0372600">
        <ele>23.6</ele>
        <time>2022-11-01T11:01:14Z</time>
      </trkpt>
      <trkpt lat="36.7478370" lon="-3.0371900">
        <ele>23.6</ele>
        <time>2022-11-01T11:01:15Z</time>
      </trkpt>
      <trkpt lat="36.7478430" lon="-3.0371220">
        <ele>23.8</ele>
        <time>2022-11-01T11:01:16Z</time>
      </trkpt>
      <trkpt lat="36.7478470" lon="-3.0370550">
        <ele>23.8</ele>
        <time>2022-11-01T11:01:17Z</time>
      </trkpt>
      <trkpt lat="36.7478520" lon="-3.0369850">
        <ele>23.8</ele>
        <time>2022-11-01T11:01:18Z</time>
      </trkpt>
      <trkpt lat="36.7478570" lon="-3.0369180">
        <ele>23.8</ele>
        <time>2022-11-01T11:01:19Z</time>
      </trkpt>
      <trkpt lat="36.7478650" lon="-3.0368520">
        <ele>24.0</ele>
        <time>2022-11-01T11:01:20Z</time>
      </trkpt>
      <trkpt lat="36.7478710" lon="-3.0367880">
        <ele>24.2</ele>
        <time>2022-11-01T11:01:21Z</time>
      </trkpt>
      <trkpt lat="36.7478750" lon="-3.0367220">
        <ele>24.2</ele>
        <time>2022-11-01T11:01:22Z</time>
      </trkpt>
      <trkpt lat="36.7478800" lon="-3.0366560">
        <ele>24.4</ele>
        <time>2022-11-01T11:01:23Z</time>
      </trkpt>
      <trkpt lat="36.7478850" lon="-3.0365920">
        <ele>24.4</ele>
        <time>2022-11-01T11:01:24Z</time>
      </trkpt>
      <trkpt lat="36.7478910" lon="-3.0365270">
        <ele>24.6</ele>
        <time>2022-11-01T11:01:25Z</time>
      </trkpt>
      <trkpt lat="36.7478970" lon="-3.0364620">
        <ele>24.6</ele>
        <time>2022-11-01T11:01:26Z</time>
      </trkpt>
      <trkpt lat="36.7479020" lon="-3.0363970">
        <ele>24.8</ele>
        <time>2022-11-01T11:01:27Z</time>
      </trkpt>
      <trkpt lat="36.7479080" lon="-3.0363310">
        <ele>24.8</ele>
        <time>2022-11-01T11:01:28Z</time>
      </trkpt>
      <trkpt lat="36.7479120" lon="-3.0362660">
        <ele>24.8</ele>
        <time>2022-11-01T11:01:29Z</time>
      </trkpt>
      <trkpt lat="36.7479160" lon="-3.0362010">
        <ele>25.0</ele>
        <time>2022-11-01T11:01:30Z</time>
      </trkpt>
      <trkpt lat="36.7479210" lon="-3.0361370">
        <ele>25.2</ele>
        <time>2022-11-01T11:01:31Z</time>
      </trkpt>
      <trkpt lat="36.7479260" lon="-3.0360720">
        <ele>25.2</ele>
        <time>2022-11-01T11:01:32Z</time>
      </trkpt>
      <trkpt lat="36.7479280" lon="-3.0360090">
        <ele>25.2</ele>
        <time>2022-11-01T11:01:33Z</time>
      </trkpt>
      <trkpt lat="36.7479340" lon="-3.0359450">
        <ele>25.4</ele>
        <time>2022-11-01T11:01:34Z</time>
      </trkpt>
      <trkpt lat="36.7479400" lon="-3.0358800">
        <ele>25.6</ele>
        <time>2022-11-01T11:01:35Z</time>
      </trkpt>
      <trkpt lat="36.7479450" lon="-3.0358170">
        <ele>25.6</ele>
        <time>2022-11-01T11:01:36Z</time>
      </trkpt>
      <trkpt lat="36.7479490" lon="-3.0357540">
        <ele>25.8</ele>
        <time>2022-11-01T11:01:37Z</time>
      </trkpt>
      <trkpt lat="36.7479550" lon="-3.0356910">
        <ele>25.8</ele>
        <time>2022-11-01T11:01:38Z</time>
      </trkpt>
      <trkpt lat="36.7479540" lon="-3.0356310">
        <ele>26.0</ele>
        <time>2022-11-01T11:01:39Z</time>
      </trkpt>
      <trkpt lat="36.7479580" lon="-3.0355690">
        <ele>26.0</ele>
        <time>2022-11-01T11:01:40Z</time>
      </trkpt>
      <trkpt lat="36.7479630" lon="-3.0355050">
        <ele>26.0</ele>
        <time>2022-11-01T11:01:41Z</time>
      </trkpt>
      <trkpt lat="36.7479660" lon="-3.0354410">
        <ele>26.2</ele>
        <time>2022-11-01T11:01:42Z</time>
      </trkpt>
      <trkpt lat="36.7479700" lon="-3.0353750">
        <ele>26.2</ele>
        <time>2022-11-01T11:01:43Z</time>
      </trkpt>
      <trkpt lat="36.7479750" lon="-3.0353080">
        <ele>26.2</ele>
        <time>2022-11-01T11:01:44Z</time>
      </trkpt>
      <trkpt lat="36.7479790" lon="-3.0352400">
        <ele>26.2</ele>
        <time>2022-11-01T11:01:45Z</time>
      </trkpt>
      <trkpt lat="36.7479820" lon="-3.0351730">
        <ele>26.2</ele>
        <time>2022-11-01T11:01:46Z</time>
      </trkpt>
      <trkpt lat="36.7479870" lon="-3.0351050">
        <ele>26.4</ele>
        <time>2022-11-01T11:01:47Z</time>
      </trkpt>
      <trkpt lat="36.7479910" lon="-3.0350380">
        <ele>26.6</ele>
        <time>2022-11-01T11:01:48Z</time>
      </trkpt>
      <trkpt lat="36.7479920" lon="-3.0349720">
        <ele>26.6</ele>
        <time>2022-11-01T11:01:49Z</time>
      </trkpt>
      <trkpt lat="36.7479900" lon="-3.0349050">
        <ele>26.6</ele>
        <time>2022-11-01T11:01:50Z</time>
      </trkpt>
      <trkpt lat="36.7479870" lon="-3.0348410">
        <ele>26.6</ele>
        <time>2022-11-01T11:01:51Z</time>
      </trkpt>
      <trkpt lat="36.7479830" lon="-3.0347750">
        <ele>26.6</ele>
        <time>2022-11-01T11:01:52Z</time>
      </trkpt>
      <trkpt lat="36.7479780" lon="-3.0347060">
        <ele>26.4</ele>
        <time>2022-11-01T11:01:53Z</time>
      </trkpt>
      <trkpt lat="36.7479730" lon="-3.0346390">
        <ele>26.4</ele>
        <time>2022-11-01T11:01:54Z</time>
      </trkpt>
      <trkpt lat="36.7479660" lon="-3.0345730">
        <ele>26.2</ele>
        <time>2022-11-01T11:01:55Z</time>
      </trkpt>
      <trkpt lat="36.7479580" lon="-3.0345060">
        <ele>26.2</ele>
        <time>2022-11-01T11:01:56Z</time>
      </trkpt>
      <trkpt lat="36.7479480" lon="-3.0344400">
        <ele>26.2</ele>
        <time>2022-11-01T11:01:57Z</time>
      </trkpt>
      <trkpt lat="36.7479360" lon="-3.0343710">
        <ele>26.2</ele>
        <time>2022-11-01T11:01:58Z</time>
      </trkpt>
      <trkpt lat="36.7479260" lon="-3.0343000">
        <ele>26.2</ele>
        <time>2022-11-01T11:01:59Z</time>
      </trkpt>
      <trkpt lat="36.7479100" lon="-3.0342330">
        <ele>26.2</ele>
        <time>2022-11-01T11:02:00Z</time>
      </trkpt>
      <trkpt lat="36.7479020" lon="-3.0341610">
        <ele>26.0</ele>
        <time>2022-11-01T11:02:01Z</time>
      </trkpt>
      <trkpt lat="36.7478950" lon="-3.0340880">
        <ele>26.0</ele>
        <time>2022-11-01T11:02:02Z</time>
      </trkpt>
      <trkpt lat="36.7478870" lon="-3.0340170">
        <ele>25.8</ele>
        <time>2022-11-01T11:02:03Z</time>
      </trkpt>
      <trkpt lat="36.7478730" lon="-3.0339510">
        <ele>25.8</ele>
        <time>2022-11-01T11:02:04Z</time>
      </trkpt>
      <trkpt lat="36.7478640" lon="-3.0338810">
        <ele>25.8</ele>
        <time>2022-11-01T11:02:05Z</time>
      </trkpt>
      <trkpt lat="36.7478520" lon="-3.0338100">
        <ele>25.6</ele>
        <time>2022-11-01T11:02:06Z</time>
      </trkpt>
      <trkpt lat="36.7478390" lon="-3.0337430">
        <ele>25.6</ele>
        <time>2022-11-01T11:02:07Z</time>
      </trkpt>
      <trkpt lat="36.7478230" lon="-3.0336750">
        <ele>25.6</ele>
        <time>2022-11-01T11:02:08Z</time>
      </trkpt>
      <trkpt lat="36.7478110" lon="-3.0336130">
        <ele>25.6</ele>
        <time>2022-11-01T11:02:09Z</time>
      </trkpt>
      <trkpt lat="36.7478070" lon="-3.0335430">
        <ele>25.6</ele>
        <time>2022-11-01T11:02:10Z</time>
      </trkpt>
      <trkpt lat="36.7477970" lon="-3.0334650">
        <ele>25.6</ele>
        <time>2022-11-01T11:02:11Z</time>
      </trkpt>
      <trkpt lat="36.7477900" lon="-3.0333870">
        <ele>25.6</ele>
        <time>2022-11-01T11:02:12Z</time>
      </trkpt>
      <trkpt lat="36.7477820" lon="-3.0333050">
        <ele>25.8</ele>
        <time>2022-11-01T11:02:13Z</time>
      </trkpt>
      <trkpt lat="36.7477710" lon="-3.0332250">
        <ele>25.6</ele>
        <time>2022-11-01T11:02:14Z</time>
      </trkpt>
      <trkpt lat="36.7477590" lon="-3.0331440">
        <ele>25.6</ele>
        <time>2022-11-01T11:02:15Z</time>
      </trkpt>
      <trkpt lat="36.7477510" lon="-3.0330630">
        <ele>25.6</ele>
        <time>2022-11-01T11:02:16Z</time>
      </trkpt>
      <trkpt lat="36.7477430" lon="-3.0329780">
        <ele>25.4</ele>
        <time>2022-11-01T11:02:17Z</time>
      </trkpt>
      <trkpt lat="36.7477360" lon="-3.0328940">
        <ele>25.4</ele>
        <time>2022-11-01T11:02:18Z</time>
      </trkpt>
      <trkpt lat="36.7477270" lon="-3.0328100">
        <ele>25.2</ele>
        <time>2022-11-01T11:02:19Z</time>
      </trkpt>
      <trkpt lat="36.7477180" lon="-3.0327260">
        <ele>25.2</ele>
        <time>2022-11-01T11:02:20Z</time>
      </trkpt>
      <trkpt lat="36.7477090" lon="-3.0326420">
        <ele>25.2</ele>
        <time>2022-11-01T11:02:21Z</time>
      </trkpt>
      <trkpt lat="36.7477000" lon="-3.0325560">
        <ele>25.2</ele>
        <time>2022-11-01T11:02:22Z</time>
      </trkpt>
      <trkpt lat="36.7476920" lon="-3.0324710">
        <ele>25.2</ele>
        <time>2022-11-01T11:02:23Z</time>
      </trkpt>
      <trkpt lat="36.7476810" lon="-3.0323860">
        <ele>25.2</ele>
        <time>2022-11-01T11:02:24Z</time>
      </trkpt>
      <trkpt lat="36.7476710" lon="-3.0323000">
        <ele>25.0</ele>
        <time>2022-11-01T11:02:25Z</time>
      </trkpt>
      <trkpt lat="36.7476600" lon="-3.0322120">
        <ele>25.0</ele>
        <time>2022-11-01T11:02:26Z</time>
      </trkpt>
      <trkpt lat="36.7476490" lon="-3.0321240">
        <ele>25.0</ele>
        <time>2022-11-01T11:02:27Z</time>
      </trkpt>
      <trkpt lat="36.7476390" lon="-3.0320380">
        <ele>25.0</ele>
        <time>2022-11-01T11:02:28Z</time>
      </trkpt>
      <trkpt lat="36.7476290" lon="-3.0319530">
        <ele>24.8</ele>
        <time>2022-11-01T11:02:29Z</time>
      </trkpt>
      <trkpt lat="36.7476190" lon="-3.0318680">
        <ele>24.8</ele>
        <time>2022-11-01T11:02:30Z</time>
      </trkpt>
      <trkpt lat="36.7476100" lon="-3.0317830">
        <ele>24.8</ele>
        <time>2022-11-01T11:02:31Z</time>
      </trkpt>
      <trkpt lat="36.7476000" lon="-3.0316990">
        <ele>24.8</ele>
        <time>2022-11-01T11:02:32Z</time>
      </trkpt>
      <trkpt lat="36.7475910" lon="-3.0316150">
        <ele>24.6</ele>
        <time>2022-11-01T11:02:33Z</time>
      </trkpt>
      <trkpt lat="36.7475800" lon="-3.0315300">
        <ele>24.6</ele>
        <time>2022-11-01T11:02:34Z</time>
      </trkpt>
      <trkpt lat="36.7475700" lon="-3.0314440">
        <ele>24.4</ele>
        <time>2022-11-01T11:02:35Z</time>
      </trkpt>
      <trkpt lat="36.7475600" lon="-3.0313580">
        <ele>24.4</ele>
        <time>2022-11-01T11:02:36Z</time>
      </trkpt>
      <trkpt lat="36.7475500" lon="-3.0312720">
        <ele>24.4</ele>
        <time>2022-11-01T11:02:37Z</time>
      </trkpt>
      <trkpt lat="36.7475390" lon="-3.0311870">
        <ele>24.2</ele>
        <time>2022-11-01T11:02:38Z</time>
      </trkpt>
      <trkpt lat="36.7475280" lon="-3.0311010">
        <ele>24.2</ele>
        <time>2022-11-01T11:02:39Z</time>
      </trkpt>
      <trkpt lat="36.7475180" lon="-3.0310170">
        <ele>24.2</ele>
        <time>2022-11-01T11:02:40Z</time>
      </trkpt>
      <trkpt lat="36.7475080" lon="-3.0309330">
        <ele>24.0</ele>
        <time>2022-11-01T11:02:41Z</time>
      </trkpt>
      <trkpt lat="36.7474980" lon="-3.0308500">
        <ele>24.0</ele>
        <time>2022-11-01T11:02:42Z</time>
      </trkpt>
      <trkpt lat="36.7474880" lon="-3.0307690">
        <ele>23.8</ele>
        <time>2022-11-01T11:02:43Z</time>
      </trkpt>
      <trkpt lat="36.7474780" lon="-3.0306880">
        <ele>23.8</ele>
        <time>2022-11-01T11:02:44Z</time>
      </trkpt>
      <trkpt lat="36.7474670" lon="-3.0306010">
        <ele>23.8</ele>
        <time>2022-11-01T11:02:45Z</time>
      </trkpt>
      <trkpt lat="36.7474570" lon="-3.0305130">
        <ele>23.6</ele>
        <time>2022-11-01T11:02:46Z</time>
      </trkpt>
      <trkpt lat="36.7474460" lon="-3.0304230">
        <ele>23.4</ele>
        <time>2022-11-01T11:02:47Z</time>
      </trkpt>
      <trkpt lat="36.7474350" lon="-3.0303290">
        <ele>23.4</ele>
        <time>2022-11-01T11:02:48Z</time>
      </trkpt>
      <trkpt lat="36.7474240" lon="-3.0302340">
        <ele>23.0</ele>
        <time>2022-11-01T11:02:49Z</time>
      </trkpt>
      <trkpt lat="36.7474150" lon="-3.0301390">
        <ele>23.0</ele>
        <time>2022-11-01T11:02:50Z</time>
      </trkpt>
      <trkpt lat="36.7474080" lon="-3.0300470">
        <ele>22.8</ele>
        <time>2022-11-01T11:02:51Z</time>
      </trkpt>
      <trkpt lat="36.7474030" lon="-3.0299550">
        <ele>22.4</ele>
        <time>2022-11-01T11:02:52Z</time>
      </trkpt>
      <trkpt lat="36.7473970" lon="-3.0298600">
        <ele>22.4</ele>
        <time>2022-11-01T11:02:53Z</time>
      </trkpt>
      <trkpt lat="36.7473880" lon="-3.0297640">
        <ele>22.2</ele>
        <time>2022-11-01T11:02:54Z</time>
      </trkpt>
      <trkpt lat="36.7473810" lon="-3.0296660">
        <ele>22.0</ele>
        <time>2022-11-01T11:02:55Z</time>
      </trkpt>
      <trkpt lat="36.7473720" lon="-3.0295680">
        <ele>21.8</ele>
        <time>2022-11-01T11:02:56Z</time>
      </trkpt>
      <trkpt lat="36.7473530" lon="-3.0294750">
        <ele>21.6</ele>
        <time>2022-11-01T11:02:57Z</time>
      </trkpt>
      <trkpt lat="36.7473470" lon="-3.0293770">
        <ele>21.4</ele>
        <time>2022-11-01T11:02:58Z</time>
      </trkpt>
      <trkpt lat="36.7473440" lon="-3.0292800">
        <ele>21.4</ele>
        <time>2022-11-01T11:02:59Z</time>
      </trkpt>
      <trkpt lat="36.7473420" lon="-3.0291890">
        <ele>21.2</ele>
        <time>2022-11-01T11:03:00Z</time>
      </trkpt>
      <trkpt lat="36.7473370" lon="-3.0290970">
        <ele>21.0</ele>
        <time>2022-11-01T11:03:01Z</time>
      </trkpt>
      <trkpt lat="36.7473290" lon="-3.0290040">
        <ele>21.0</ele>
        <time>2022-11-01T11:03:02Z</time>
      </trkpt>
      <trkpt lat="36.7473260" lon="-3.0289060">
        <ele>20.8</ele>
        <time>2022-11-01T11:03:03Z</time>
      </trkpt>
      <trkpt lat="36.7473190" lon="-3.0288160">
        <ele>20.6</ele>
        <time>2022-11-01T11:03:04Z</time>
      </trkpt>
      <trkpt lat="36.7473150" lon="-3.0287270">
        <ele>20.6</ele>
        <time>2022-11-01T11:03:05Z</time>
      </trkpt>
      <trkpt lat="36.7473090" lon="-3.0286370">
        <ele>20.6</ele>
        <time>2022-11-01T11:03:06Z</time>
      </trkpt>
      <trkpt lat="36.7473020" lon="-3.0285450">
        <ele>20.4</ele>
        <time>2022-11-01T11:03:07Z</time>
      </trkpt>
      <trkpt lat="36.7472880" lon="-3.0284610">
        <ele>20.4</ele>
        <time>2022-11-01T11:03:08Z</time>
      </trkpt>
      <trkpt lat="36.7472830" lon="-3.0283720">
        <ele>20.4</ele>
        <time>2022-11-01T11:03:09Z</time>
      </trkpt>
      <trkpt lat="36.7472820" lon="-3.0282830">
        <ele>20.4</ele>
        <time>2022-11-01T11:03:10Z</time>
      </trkpt>
      <trkpt lat="36.7472760" lon="-3.0281960">
        <ele>20.2</ele>
        <time>2022-11-01T11:03:11Z</time>
      </trkpt>
      <trkpt lat="36.7472770" lon="-3.0281080">
        <ele>20.0</ele>
        <time>2022-11-01T11:03:12Z</time>
      </trkpt>
      <trkpt lat="36.7472710" lon="-3.0280220">
        <ele>20.0</ele>
        <time>2022-11-01T11:03:13Z</time>
      </trkpt>
      <trkpt lat="36.7472550" lon="-3.0279450">
        <ele>19.8</ele>
        <time>2022-11-01T11:03:14Z</time>
      </trkpt>
      <trkpt lat="36.7472330" lon="-3.0278910">
        <ele>19.8</ele>
        <time>2022-11-01T11:03:15Z</time>
      </trkpt>
      <trkpt lat="36.7472160" lon="-3.0278330">
        <ele>19.6</ele>
        <time>2022-11-01T11:03:16Z</time>
      </trkpt>
      <trkpt lat="36.7472050" lon="-3.0277680">
        <ele>19.6</ele>
        <time>2022-11-01T11:03:17Z</time>
      </trkpt>
      <trkpt lat="36.7472060" lon="-3.0277040">
        <ele>19.6</ele>
        <time>2022-11-01T11:03:18Z</time>
      </trkpt>
      <trkpt lat="36.7472230" lon="-3.0276430">
        <ele>19.6</ele>
        <time>2022-11-01T11:03:19Z</time>
      </trkpt>
      <trkpt lat="36.7472510" lon="-3.0275910">
        <ele>19.6</ele>
        <time>2022-11-01T11:03:20Z</time>
      </trkpt>
      <trkpt lat="36.7472770" lon="-3.0275450">
        <ele>19.6</ele>
        <time>2022-11-01T11:03:21Z</time>
      </trkpt>
      <trkpt lat="36.7472980" lon="-3.0274870">
        <ele>19.6</ele>
        <time>2022-11-01T11:03:22Z</time>
      </trkpt>
      <trkpt lat="36.7473150" lon="-3.0274250">
        <ele>19.6</ele>
        <time>2022-11-01T11:03:23Z</time>
      </trkpt>
      <trkpt lat="36.7473270" lon="-3.0273630">
        <ele>19.4</ele>
        <time>2022-11-01T11:03:24Z</time>
      </trkpt>
      <trkpt lat="36.7473340" lon="-3.0272940">
        <ele>19.4</ele>
        <time>2022-11-01T11:03:25Z</time>
      </trkpt>
      <trkpt lat="36.7473440" lon="-3.0272240">
        <ele>19.4</ele>
        <time>2022-11-01T11:03:26Z</time>
      </trkpt>
      <trkpt lat="36.7473510" lon="-3.0271510">
        <ele>19.4</ele>
        <time>2022-11-01T11:03:27Z</time>
      </trkpt>
      <trkpt lat="36.7473610" lon="-3.0270750">
        <ele>19.4</ele>
        <time>2022-11-01T11:03:28Z</time>
      </trkpt>
      <trkpt lat="36.7473710" lon="-3.0270010">
        <ele>19.4</ele>
        <time>2022-11-01T11:03:29Z</time>
      </trkpt>
      <trkpt lat="36.7473770" lon="-3.0269250">
        <ele>19.4</ele>
        <time>2022-11-01T11:03:30Z</time>
      </trkpt>
      <trkpt lat="36.7473890" lon="-3.0268450">
        <ele>19.4</ele>
        <time>2022-11-01T11:03:31Z</time>
      </trkpt>
      <trkpt lat="36.7473960" lon="-3.0267660">
        <ele>19.2</ele>
        <time>2022-11-01T11:03:32Z</time>
      </trkpt>
      <trkpt lat="36.7474050" lon="-3.0266890">
        <ele>19.2</ele>
        <time>2022-11-01T11:03:33Z</time>
      </trkpt>
      <trkpt lat="36.7474180" lon="-3.0266070">
        <ele>19.2</ele>
        <time>2022-11-01T11:03:34Z</time>
      </trkpt>
      <trkpt lat="36.7474280" lon="-3.0265260">
        <ele>19.4</ele>
        <time>2022-11-01T11:03:35Z</time>
      </trkpt>
      <trkpt lat="36.7474360" lon="-3.0264460">
        <ele>19.4</ele>
        <time>2022-11-01T11:03:36Z</time>
      </trkpt>
      <trkpt lat="36.7474470" lon="-3.0263680">
        <ele>19.4</ele>
        <time>2022-11-01T11:03:37Z</time>
      </trkpt>
      <trkpt lat="36.7474590" lon="-3.0262870">
        <ele>19.2</ele>
        <time>2022-11-01T11:03:38Z</time>
      </trkpt>
      <trkpt lat="36.7474690" lon="-3.0262080">
        <ele>19.2</ele>
        <time>2022-11-01T11:03:39Z</time>
      </trkpt>
      <trkpt lat="36.7474780" lon="-3.0261310">
        <ele>19.4</ele>
        <time>2022-11-01T11:03:40Z</time>
      </trkpt>
      <trkpt lat="36.7474900" lon="-3.0260530">
        <ele>19.2</ele>
        <time>2022-11-01T11:03:41Z</time>
      </trkpt>
      <trkpt lat="36.7475120" lon="-3.0259730">
        <ele>19.2</ele>
        <time>2022-11-01T11:03:42Z</time>
      </trkpt>
      <trkpt lat="36.7475230" lon="-3.0258940">
        <ele>19.4</ele>
        <time>2022-11-01T11:03:43Z</time>
      </trkpt>
      <trkpt lat="36.7475350" lon="-3.0258160">
        <ele>19.4</ele>
        <time>2022-11-01T11:03:44Z</time>
      </trkpt>
      <trkpt lat="36.7475440" lon="-3.0257390">
        <ele>19.4</ele>
        <time>2022-11-01T11:03:45Z</time>
      </trkpt>
      <trkpt lat="36.7475540" lon="-3.0256610">
        <ele>19.4</ele>
        <time>2022-11-01T11:03:46Z</time>
      </trkpt>
      <trkpt lat="36.7475620" lon="-3.0255850">
        <ele>19.4</ele>
        <time>2022-11-01T11:03:47Z</time>
      </trkpt>
      <trkpt lat="36.7475700" lon="-3.0255100">
        <ele>19.4</ele>
        <time>2022-11-01T11:03:48Z</time>
      </trkpt>
      <trkpt lat="36.7475790" lon="-3.0254390">
        <ele>19.6</ele>
        <time>2022-11-01T11:03:49Z</time>
      </trkpt>
      <trkpt lat="36.7475870" lon="-3.0253670">
        <ele>19.6</ele>
        <time>2022-11-01T11:03:50Z</time>
      </trkpt>
      <trkpt lat="36.7475940" lon="-3.0252920">
        <ele>19.6</ele>
        <time>2022-11-01T11:03:51Z</time>
      </trkpt>
      <trkpt lat="36.7476040" lon="-3.0252180">
        <ele>19.6</ele>
        <time>2022-11-01T11:03:52Z</time>
      </trkpt>
      <trkpt lat="36.7476120" lon="-3.0251470">
        <ele>19.8</ele>
        <time>2022-11-01T11:03:53Z</time>
      </trkpt>
      <trkpt lat="36.7476230" lon="-3.0250760">
        <ele>19.8</ele>
        <time>2022-11-01T11:03:54Z</time>
      </trkpt>
      <trkpt lat="36.7476330" lon="-3.0250070">
        <ele>19.8</ele>
        <time>2022-11-01T11:03:55Z</time>
      </trkpt>
      <trkpt lat="36.7476440" lon="-3.0249390">
        <ele>20.0</ele>
        <time>2022-11-01T11:03:56Z</time>
      </trkpt>
      <trkpt lat="36.7476510" lon="-3.0248720">
        <ele>20.0</ele>
        <time>2022-11-01T11:03:57Z</time>
      </trkpt>
      <trkpt lat="36.7476580" lon="-3.0248060">
        <ele>20.0</ele>
        <time>2022-11-01T11:03:58Z</time>
      </trkpt>
      <trkpt lat="36.7476680" lon="-3.0247380">
        <ele>20.0</ele>
        <time>2022-11-01T11:03:59Z</time>
      </trkpt>
      <trkpt lat="36.7476760" lon="-3.0246700">
        <ele>20.2</ele>
        <time>2022-11-01T11:04:00Z</time>
      </trkpt>
      <trkpt lat="36.7476850" lon="-3.0246020">
        <ele>20.2</ele>
        <time>2022-11-01T11:04:01Z</time>
      </trkpt>
      <trkpt lat="36.7476940" lon="-3.0245360">
        <ele>20.2</ele>
        <time>2022-11-01T11:04:02Z</time>
      </trkpt>
      <trkpt lat="36.7477040" lon="-3.0244760">
        <ele>20.4</ele>
        <time>2022-11-01T11:04:03Z</time>
      </trkpt>
      <trkpt lat="36.7477150" lon="-3.0244170">
        <ele>20.4</ele>
        <time>2022-11-01T11:04:04Z</time>
      </trkpt>
      <trkpt lat="36.7477240" lon="-3.0243560">
        <ele>20.6</ele>
        <time>2022-11-01T11:04:05Z</time>
      </trkpt>
      <trkpt lat="36.7477300" lon="-3.0242950">
        <ele>20.6</ele>
        <time>2022-11-01T11:04:06Z</time>
      </trkpt>
      <trkpt lat="36.7477370" lon="-3.0242370">
        <ele>20.6</ele>
        <time>2022-11-01T11:04:07Z</time>
      </trkpt>
      <trkpt lat="36.7477450" lon="-3.0241840">
        <ele>20.8</ele>
        <time>2022-11-01T11:04:08Z</time>
      </trkpt>
      <trkpt lat="36.7477540" lon="-3.0241290">
        <ele>20.8</ele>
        <time>2022-11-01T11:04:09Z</time>
      </trkpt>
      <trkpt lat="36.7477620" lon="-3.0240690">
        <ele>21.0</ele>
        <time>2022-11-01T11:04:10Z</time>
      </trkpt>
      <trkpt lat="36.7477690" lon="-3.0240100">
        <ele>21.0</ele>
        <time>2022-11-01T11:04:11Z</time>
      </trkpt>
      <trkpt lat="36.7477750" lon="-3.0239520">
        <ele>21.0</ele>
        <time>2022-11-01T11:04:12Z</time>
      </trkpt>
      <trkpt lat="36.7477860" lon="-3.0238940">
        <ele>21.2</ele>
        <time>2022-11-01T11:04:13Z</time>
      </trkpt>
      <trkpt lat="36.7477920" lon="-3.0238400">
        <ele>21.2</ele>
        <time>2022-11-01T11:04:14Z</time>
      </trkpt>
      <trkpt lat="36.7477980" lon="-3.0237840">
        <ele>21.4</ele>
        <time>2022-11-01T11:04:15Z</time>
      </trkpt>
      <trkpt lat="36.7478050" lon="-3.0237270">
        <ele>21.4</ele>
        <time>2022-11-01T11:04:16Z</time>
      </trkpt>
      <trkpt lat="36.7478110" lon="-3.0236690">
        <ele>21.4</ele>
        <time>2022-11-01T11:04:17Z</time>
      </trkpt>
      <trkpt lat="36.7478190" lon="-3.0236110">
        <ele>21.4</ele>
        <time>2022-11-01T11:04:18Z</time>
      </trkpt>
      <trkpt lat="36.7478270" lon="-3.0235530">
        <ele>21.4</ele>
        <time>2022-11-01T11:04:19Z</time>
      </trkpt>
      <trkpt lat="36.7478320" lon="-3.0234950">
        <ele>21.4</ele>
        <time>2022-11-01T11:04:20Z</time>
      </trkpt>
      <trkpt lat="36.7478340" lon="-3.0234390">
        <ele>21.4</ele>
        <time>2022-11-01T11:04:21Z</time>
      </trkpt>
      <trkpt lat="36.7478350" lon="-3.0233810">
        <ele>21.4</ele>
        <time>2022-11-01T11:04:22Z</time>
      </trkpt>
      <trkpt lat="36.7478320" lon="-3.0233220">
        <ele>21.4</ele>
        <time>2022-11-01T11:04:23Z</time>
      </trkpt>
      <trkpt lat="36.7478290" lon="-3.0232620">
        <ele>21.2</ele>
        <time>2022-11-01T11:04:24Z</time>
      </trkpt>
      <trkpt lat="36.7478230" lon="-3.0232110">
        <ele>21.2</ele>
        <time>2022-11-01T11:04:25Z</time>
      </trkpt>
      <trkpt lat="36.7478090" lon="-3.0231700">
        <ele>21.0</ele>
        <time>2022-11-01T11:04:26Z</time>
      </trkpt>
      <trkpt lat="36.7477860" lon="-3.0231220">
        <ele>20.8</ele>
        <time>2022-11-01T11:04:27Z</time>
      </trkpt>
      <trkpt lat="36.7477630" lon="-3.0230710">
        <ele>20.6</ele>
        <time>2022-11-01T11:04:28Z</time>
      </trkpt>
      <trkpt lat="36.7477360" lon="-3.0230190">
        <ele>20.4</ele>
        <time>2022-11-01T11:04:29Z</time>
      </trkpt>
      <trkpt lat="36.7477170" lon="-3.0229830">
        <ele>20.2</ele>
        <time>2022-11-01T11:04:30Z</time>
      </trkpt>
      <trkpt lat="36.7477000" lon="-3.0229480">
        <ele>20.2</ele>
        <time>2022-11-01T11:04:31Z</time>
      </trkpt>
      <trkpt lat="36.7476870" lon="-3.0229150">
        <ele>20.0</ele>
        <time>2022-11-01T11:04:32Z</time>
      </trkpt>
      <trkpt lat="36.7476780" lon="-3.0228910">
        <ele>20.0</ele>
        <time>2022-11-01T11:04:33Z</time>
      </trkpt>
      <trkpt lat="36.7476710" lon="-3.0228740">
        <ele>19.8</ele>
        <time>2022-11-01T11:04:34Z</time>
      </trkpt>
      <trkpt lat="36.7476650" lon="-3.0228570">
        <ele>19.6</ele>
        <time>2022-11-01T11:04:35Z</time>
      </trkpt>
      <trkpt lat="36.7476680" lon="-3.0228490">
        <ele>19.6</ele>
        <time>2022-11-01T11:04:36Z</time>
      </trkpt>
      <trkpt lat="36.7476670" lon="-3.0228370">
        <ele>19.6</ele>
        <time>2022-11-01T11:04:37Z</time>
      </trkpt>
      <trkpt lat="36.7476630" lon="-3.0228250">
        <ele>19.4</ele>
        <time>2022-11-01T11:04:38Z</time>
      </trkpt>
      <trkpt lat="36.7476610" lon="-3.0228160">
        <ele>19.4</ele>
        <time>2022-11-01T11:04:39Z</time>
      </trkpt>
      <trkpt lat="36.7476590" lon="-3.0228050">
        <ele>19.4</ele>
        <time>2022-11-01T11:04:40Z</time>
      </trkpt>
      <trkpt lat="36.7476540" lon="-3.0227960">
        <ele>19.4</ele>
        <time>2022-11-01T11:04:41Z</time>
      </trkpt>
      <trkpt lat="36.7476490" lon="-3.0227860">
        <ele>19.4</ele>
        <time>2022-11-01T11:04:42Z</time>
      </trkpt>
      <trkpt lat="36.7476440" lon="-3.0227630">
        <ele>19.2</ele>
        <time>2022-11-01T11:04:45Z</time>
      </trkpt>
      <trkpt lat="36.7476410" lon="-3.0227590">
        <ele>19.2</ele>
        <time>2022-11-01T11:04:46Z</time>
      </trkpt>
      <trkpt lat="36.7476410" lon="-3.0227560">
        <ele>19.2</ele>
        <time>2022-11-01T11:04:47Z</time>
      </trkpt>
      <trkpt lat="36.7476390" lon="-3.0227510">
        <ele>19.2</ele>
        <time>2022-11-01T11:04:48Z</time>
      </trkpt>
      <trkpt lat="36.7476380" lon="-3.0227490">
        <ele>19.2</ele>
        <time>2022-11-01T11:04:49Z</time>
      </trkpt>
      <trkpt lat="36.7476090" lon="-3.0225910">
        <ele>18.8</ele>
        <time>2022-11-01T11:05:01Z</time>
      </trkpt>
      <trkpt lat="36.7476090" lon="-3.0225910">
        <ele>18.8</ele>
        <time>2022-11-01T11:05:02Z</time>
      </trkpt>
      <trkpt lat="36.7476040" lon="-3.0225490">
        <ele>18.6</ele>
        <time>2022-11-01T11:05:03Z</time>
      </trkpt>
      <trkpt lat="36.7476040" lon="-3.0225050">
        <ele>18.6</ele>
        <time>2022-11-01T11:05:04Z</time>
      </trkpt>
      <trkpt lat="36.7476010" lon="-3.0224550">
        <ele>18.6</ele>
        <time>2022-11-01T11:05:05Z</time>
      </trkpt>
      <trkpt lat="36.7475960" lon="-3.0224000">
        <ele>18.6</ele>
        <time>2022-11-01T11:05:06Z</time>
      </trkpt>
      <trkpt lat="36.7475880" lon="-3.0223590">
        <ele>18.6</ele>
        <time>2022-11-01T11:05:07Z</time>
      </trkpt>
      <trkpt lat="36.7475820" lon="-3.0223230">
        <ele>18.6</ele>
        <time>2022-11-01T11:05:08Z</time>
      </trkpt>
      <trkpt lat="36.7475690" lon="-3.0222570">
        <ele>18.6</ele>
        <time>2022-11-01T11:05:09Z</time>
      </trkpt>
      <trkpt lat="36.7475630" lon="-3.0221940">
        <ele>18.4</ele>
        <time>2022-11-01T11:05:10Z</time>
      </trkpt>
      <trkpt lat="36.7475590" lon="-3.0221350">
        <ele>18.4</ele>
        <time>2022-11-01T11:05:11Z</time>
      </trkpt>
      <trkpt lat="36.7475530" lon="-3.0220740">
        <ele>18.4</ele>
        <time>2022-11-01T11:05:12Z</time>
      </trkpt>
      <trkpt lat="36.7475500" lon="-3.0220010">
        <ele>18.4</ele>
        <time>2022-11-01T11:05:13Z</time>
      </trkpt>
      <trkpt lat="36.7475410" lon="-3.0219250">
        <ele>18.2</ele>
        <time>2022-11-01T11:05:14Z</time>
      </trkpt>
      <trkpt lat="36.7475340" lon="-3.0218510">
        <ele>18.2</ele>
        <time>2022-11-01T11:05:15Z</time>
      </trkpt>
      <trkpt lat="36.7475280" lon="-3.0217780">
        <ele>18.2</ele>
        <time>2022-11-01T11:05:16Z</time>
      </trkpt>
      <trkpt lat="36.7475200" lon="-3.0217020">
        <ele>18.2</ele>
        <time>2022-11-01T11:05:17Z</time>
      </trkpt>
      <trkpt lat="36.7475090" lon="-3.0216300">
        <ele>18.2</ele>
        <time>2022-11-01T11:05:18Z</time>
      </trkpt>
      <trkpt lat="36.7474980" lon="-3.0215530">
        <ele>18.2</ele>
        <time>2022-11-01T11:05:19Z</time>
      </trkpt>
      <trkpt lat="36.7474870" lon="-3.0214840">
        <ele>18.2</ele>
        <time>2022-11-01T11:05:20Z</time>
      </trkpt>
      <trkpt lat="36.7474730" lon="-3.0214120">
        <ele>18.2</ele>
        <time>2022-11-01T11:05:21Z</time>
      </trkpt>
      <trkpt lat="36.7474570" lon="-3.0213390">
        <ele>18.2</ele>
        <time>2022-11-01T11:05:22Z</time>
      </trkpt>
      <trkpt lat="36.7474470" lon="-3.0212840">
        <ele>18.2</ele>
        <time>2022-11-01T11:05:23Z</time>
      </trkpt>
      <trkpt lat="36.7474310" lon="-3.0212310">
        <ele>18.2</ele>
        <time>2022-11-01T11:05:24Z</time>
      </trkpt>
      <trkpt lat="36.7474120" lon="-3.0211670">
        <ele>18.2</ele>
        <time>2022-11-01T11:05:25Z</time>
      </trkpt>
      <trkpt lat="36.7474010" lon="-3.0211070">
        <ele>18.0</ele>
        <time>2022-11-01T11:05:26Z</time>
      </trkpt>
      <trkpt lat="36.7473800" lon="-3.0210410">
        <ele>18.0</ele>
        <time>2022-11-01T11:05:27Z</time>
      </trkpt>
      <trkpt lat="36.7473570" lon="-3.0209710">
        <ele>18.0</ele>
        <time>2022-11-01T11:05:28Z</time>
      </trkpt>
      <trkpt lat="36.7473360" lon="-3.0209060">
        <ele>18.0</ele>
        <time>2022-11-01T11:05:29Z</time>
      </trkpt>
      <trkpt lat="36.7473100" lon="-3.0208360">
        <ele>18.0</ele>
        <time>2022-11-01T11:05:30Z</time>
      </trkpt>
      <trkpt lat="36.7472840" lon="-3.0207620">
        <ele>18.0</ele>
        <time>2022-11-01T11:05:31Z</time>
      </trkpt>
      <trkpt lat="36.7472580" lon="-3.0206890">
        <ele>18.0</ele>
        <time>2022-11-01T11:05:32Z</time>
      </trkpt>
      <trkpt lat="36.7472320" lon="-3.0206200">
        <ele>18.0</ele>
        <time>2022-11-01T11:05:33Z</time>
      </trkpt>
      <trkpt lat="36.7472030" lon="-3.0205530">
        <ele>17.8</ele>
        <time>2022-11-01T11:05:34Z</time>
      </trkpt>
      <trkpt lat="36.7471720" lon="-3.0204870">
        <ele>17.8</ele>
        <time>2022-11-01T11:05:35Z</time>
      </trkpt>
      <trkpt lat="36.7471390" lon="-3.0204220">
        <ele>18.0</ele>
        <time>2022-11-01T11:05:36Z</time>
      </trkpt>
      <trkpt lat="36.7471080" lon="-3.0203630">
        <ele>17.8</ele>
        <time>2022-11-01T11:05:37Z</time>
      </trkpt>
      <trkpt lat="36.7470760" lon="-3.0203040">
        <ele>18.0</ele>
        <time>2022-11-01T11:05:38Z</time>
      </trkpt>
      <trkpt lat="36.7470410" lon="-3.0202390">
        <ele>17.8</ele>
        <time>2022-11-01T11:05:39Z</time>
      </trkpt>
      <trkpt lat="36.7470080" lon="-3.0201770">
        <ele>17.8</ele>
        <time>2022-11-01T11:05:40Z</time>
      </trkpt>
      <trkpt lat="36.7469740" lon="-3.0201170">
        <ele>17.8</ele>
        <time>2022-11-01T11:05:41Z</time>
      </trkpt>
      <trkpt lat="36.7469400" lon="-3.0200570">
        <ele>17.8</ele>
        <time>2022-11-01T11:05:42Z</time>
      </trkpt>
      <trkpt lat="36.7469120" lon="-3.0200120">
        <ele>17.8</ele>
        <time>2022-11-01T11:05:43Z</time>
      </trkpt>
      <trkpt lat="36.7468760" lon="-3.0199490">
        <ele>17.8</ele>
        <time>2022-11-01T11:05:44Z</time>
      </trkpt>
      <trkpt lat="36.7468380" lon="-3.0198850">
        <ele>17.8</ele>
        <time>2022-11-01T11:05:45Z</time>
      </trkpt>
      <trkpt lat="36.7468040" lon="-3.0198270">
        <ele>17.8</ele>
        <time>2022-11-01T11:05:46Z</time>
      </trkpt>
      <trkpt lat="36.7467730" lon="-3.0197740">
        <ele>17.6</ele>
        <time>2022-11-01T11:05:47Z</time>
      </trkpt>
      <trkpt lat="36.7467360" lon="-3.0197070">
        <ele>17.6</ele>
        <time>2022-11-01T11:05:48Z</time>
      </trkpt>
      <trkpt lat="36.7467030" lon="-3.0196440">
        <ele>17.6</ele>
        <time>2022-11-01T11:05:49Z</time>
      </trkpt>
      <trkpt lat="36.7466690" lon="-3.0195780">
        <ele>17.6</ele>
        <time>2022-11-01T11:05:50Z</time>
      </trkpt>
      <trkpt lat="36.7466350" lon="-3.0195140">
        <ele>17.6</ele>
        <time>2022-11-01T11:05:51Z</time>
      </trkpt>
      <trkpt lat="36.7466010" lon="-3.0194490">
        <ele>17.6</ele>
        <time>2022-11-01T11:05:52Z</time>
      </trkpt>
      <trkpt lat="36.7465670" lon="-3.0193820">
        <ele>17.6</ele>
        <time>2022-11-01T11:05:53Z</time>
      </trkpt>
      <trkpt lat="36.7465330" lon="-3.0193170">
        <ele>17.6</ele>
        <time>2022-11-01T11:05:54Z</time>
      </trkpt>
      <trkpt lat="36.7464960" lon="-3.0192480">
        <ele>17.6</ele>
        <time>2022-11-01T11:05:55Z</time>
      </trkpt>
      <trkpt lat="36.7464630" lon="-3.0191820">
        <ele>17.6</ele>
        <time>2022-11-01T11:05:56Z</time>
      </trkpt>
      <trkpt lat="36.7464280" lon="-3.0191160">
        <ele>17.6</ele>
        <time>2022-11-01T11:05:57Z</time>
      </trkpt>
      <trkpt lat="36.7463920" lon="-3.0190480">
        <ele>17.6</ele>
        <time>2022-11-01T11:05:58Z</time>
      </trkpt>
      <trkpt lat="36.7463600" lon="-3.0189850">
        <ele>17.6</ele>
        <time>2022-11-01T11:05:59Z</time>
      </trkpt>
      <trkpt lat="36.7463250" lon="-3.0189200">
        <ele>17.4</ele>
        <time>2022-11-01T11:06:00Z</time>
      </trkpt>
      <trkpt lat="36.7462880" lon="-3.0188510">
        <ele>17.6</ele>
        <time>2022-11-01T11:06:01Z</time>
      </trkpt>
      <trkpt lat="36.7462520" lon="-3.0187830">
        <ele>17.6</ele>
        <time>2022-11-01T11:06:02Z</time>
      </trkpt>
      <trkpt lat="36.7462150" lon="-3.0187130">
        <ele>17.6</ele>
        <time>2022-11-01T11:06:03Z</time>
      </trkpt>
      <trkpt lat="36.7461820" lon="-3.0186460">
        <ele>17.6</ele>
        <time>2022-11-01T11:06:04Z</time>
      </trkpt>
      <trkpt lat="36.7461460" lon="-3.0185800">
        <ele>17.4</ele>
        <time>2022-11-01T11:06:05Z</time>
      </trkpt>
      <trkpt lat="36.7461110" lon="-3.0185150">
        <ele>17.4</ele>
        <time>2022-11-01T11:06:06Z</time>
      </trkpt>
      <trkpt lat="36.7460750" lon="-3.0184470">
        <ele>17.4</ele>
        <time>2022-11-01T11:06:07Z</time>
      </trkpt>
      <trkpt lat="36.7460400" lon="-3.0183800">
        <ele>17.4</ele>
        <time>2022-11-01T11:06:08Z</time>
      </trkpt>
      <trkpt lat="36.7460080" lon="-3.0183190">
        <ele>17.4</ele>
        <time>2022-11-01T11:06:09Z</time>
      </trkpt>
      <trkpt lat="36.7459730" lon="-3.0182510">
        <ele>17.4</ele>
        <time>2022-11-01T11:06:10Z</time>
      </trkpt>
      <trkpt lat="36.7459390" lon="-3.0181850">
        <ele>17.4</ele>
        <time>2022-11-01T11:06:11Z</time>
      </trkpt>
      <trkpt lat="36.7459040" lon="-3.0181170">
        <ele>17.4</ele>
        <time>2022-11-01T11:06:12Z</time>
      </trkpt>
      <trkpt lat="36.7458710" lon="-3.0180530">
        <ele>17.4</ele>
        <time>2022-11-01T11:06:13Z</time>
      </trkpt>
      <trkpt lat="36.7458410" lon="-3.0179920">
        <ele>17.4</ele>
        <time>2022-11-01T11:06:14Z</time>
      </trkpt>
      <trkpt lat="36.7458080" lon="-3.0179280">
        <ele>17.4</ele>
        <time>2022-11-01T11:06:15Z</time>
      </trkpt>
      <trkpt lat="36.7457770" lon="-3.0178680">
        <ele>17.4</ele>
        <time>2022-11-01T11:06:16Z</time>
      </trkpt>
      <trkpt lat="36.7457430" lon="-3.0178020">
        <ele>17.6</ele>
        <time>2022-11-01T11:06:17Z</time>
      </trkpt>
      <trkpt lat="36.7457090" lon="-3.0177370">
        <ele>17.6</ele>
        <time>2022-11-01T11:06:18Z</time>
      </trkpt>
      <trkpt lat="36.7456800" lon="-3.0176830">
        <ele>17.6</ele>
        <time>2022-11-01T11:06:19Z</time>
      </trkpt>
      <trkpt lat="36.7456480" lon="-3.0176230">
        <ele>17.6</ele>
        <time>2022-11-01T11:06:20Z</time>
      </trkpt>
      <trkpt lat="36.7456150" lon="-3.0175640">
        <ele>17.6</ele>
        <time>2022-11-01T11:06:21Z</time>
      </trkpt>
      <trkpt lat="36.7455820" lon="-3.0175020">
        <ele>17.6</ele>
        <time>2022-11-01T11:06:22Z</time>
      </trkpt>
      <trkpt lat="36.7455550" lon="-3.0174380">
        <ele>17.6</ele>
        <time>2022-11-01T11:06:23Z</time>
      </trkpt>
      <trkpt lat="36.7455370" lon="-3.0173730">
        <ele>17.6</ele>
        <time>2022-11-01T11:06:24Z</time>
      </trkpt>
      <trkpt lat="36.7455300" lon="-3.0173080">
        <ele>17.6</ele>
        <time>2022-11-01T11:06:25Z</time>
      </trkpt>
      <trkpt lat="36.7455300" lon="-3.0172350">
        <ele>17.6</ele>
        <time>2022-11-01T11:06:26Z</time>
      </trkpt>
      <trkpt lat="36.7455460" lon="-3.0171710">
        <ele>17.8</ele>
        <time>2022-11-01T11:06:27Z</time>
      </trkpt>
      <trkpt lat="36.7455740" lon="-3.0171150">
        <ele>17.8</ele>
        <time>2022-11-01T11:06:28Z</time>
      </trkpt>
      <trkpt lat="36.7456100" lon="-3.0170700">
        <ele>17.8</ele>
        <time>2022-11-01T11:06:29Z</time>
      </trkpt>
      <trkpt lat="36.7456490" lon="-3.0170270">
        <ele>18.0</ele>
        <time>2022-11-01T11:06:30Z</time>
      </trkpt>
      <trkpt lat="36.7456820" lon="-3.0169810">
        <ele>17.8</ele>
        <time>2022-11-01T11:06:31Z</time>
      </trkpt>
      <trkpt lat="36.7457050" lon="-3.0169310">
        <ele>17.8</ele>
        <time>2022-11-01T11:06:32Z</time>
      </trkpt>
      <trkpt lat="36.7457180" lon="-3.0168880">
        <ele>17.8</ele>
        <time>2022-11-01T11:06:33Z</time>
      </trkpt>
      <trkpt lat="36.7457200" lon="-3.0168310">
        <ele>17.8</ele>
        <time>2022-11-01T11:06:34Z</time>
      </trkpt>
      <trkpt lat="36.7457070" lon="-3.0167660">
        <ele>17.8</ele>
        <time>2022-11-01T11:06:35Z</time>
      </trkpt>
      <trkpt lat="36.7456830" lon="-3.0167080">
        <ele>17.8</ele>
        <time>2022-11-01T11:06:36Z</time>
      </trkpt>
      <trkpt lat="36.7456690" lon="-3.0166530">
        <ele>17.8</ele>
        <time>2022-11-01T11:06:37Z</time>
      </trkpt>
      <trkpt lat="36.7456470" lon="-3.0166080">
        <ele>17.8</ele>
        <time>2022-11-01T11:06:38Z</time>
      </trkpt>
      <trkpt lat="36.7456240" lon="-3.0165540">
        <ele>18.0</ele>
        <time>2022-11-01T11:06:39Z</time>
      </trkpt>
      <trkpt lat="36.7456060" lon="-3.0164930">
        <ele>18.0</ele>
        <time>2022-11-01T11:06:40Z</time>
      </trkpt>
      <trkpt lat="36.7455890" lon="-3.0164280">
        <ele>18.0</ele>
        <time>2022-11-01T11:06:41Z</time>
      </trkpt>
      <trkpt lat="36.7455710" lon="-3.0163610">
        <ele>18.0</ele>
        <time>2022-11-01T11:06:42Z</time>
      </trkpt>
      <trkpt lat="36.7455590" lon="-3.0163000">
        <ele>18.0</ele>
        <time>2022-11-01T11:06:43Z</time>
      </trkpt>
      <trkpt lat="36.7455490" lon="-3.0162480">
        <ele>18.0</ele>
        <time>2022-11-01T11:06:44Z</time>
      </trkpt>
      <trkpt lat="36.7455350" lon="-3.0162060">
        <ele>18.0</ele>
        <time>2022-11-01T11:06:45Z</time>
      </trkpt>
      <trkpt lat="36.7455180" lon="-3.0161680">
        <ele>18.2</ele>
        <time>2022-11-01T11:06:46Z</time>
      </trkpt>
      <trkpt lat="36.7455050" lon="-3.0161340">
        <ele>18.2</ele>
        <time>2022-11-01T11:06:47Z</time>
      </trkpt>
      <trkpt lat="36.7454990" lon="-3.0160920">
        <ele>18.2</ele>
        <time>2022-11-01T11:06:48Z</time>
      </trkpt>
      <trkpt lat="36.7454860" lon="-3.0160520">
        <ele>18.2</ele>
        <time>2022-11-01T11:06:49Z</time>
      </trkpt>
      <trkpt lat="36.7454750" lon="-3.0160140">
        <ele>18.2</ele>
        <time>2022-11-01T11:06:50Z</time>
      </trkpt>
      <trkpt lat="36.7454670" lon="-3.0159720">
        <ele>18.2</ele>
        <time>2022-11-01T11:06:51Z</time>
      </trkpt>
      <trkpt lat="36.7454660" lon="-3.0159290">
        <ele>18.4</ele>
        <time>2022-11-01T11:06:52Z</time>
      </trkpt>
      <trkpt lat="36.7454670" lon="-3.0158890">
        <ele>18.4</ele>
        <time>2022-11-01T11:06:53Z</time>
      </trkpt>
      <trkpt lat="36.7454690" lon="-3.0158440">
        <ele>18.4</ele>
        <time>2022-11-01T11:06:54Z</time>
      </trkpt>
      <trkpt lat="36.7454790" lon="-3.0157970">
        <ele>18.6</ele>
        <time>2022-11-01T11:06:55Z</time>
      </trkpt>
      <trkpt lat="36.7454970" lon="-3.0157500">
        <ele>18.6</ele>
        <time>2022-11-01T11:06:56Z</time>
      </trkpt>
      <trkpt lat="36.7455190" lon="-3.0157090">
        <ele>18.6</ele>
        <time>2022-11-01T11:06:57Z</time>
      </trkpt>
      <trkpt lat="36.7455490" lon="-3.0156790">
        <ele>18.6</ele>
        <time>2022-11-01T11:06:58Z</time>
      </trkpt>
      <trkpt lat="36.7455770" lon="-3.0156350">
        <ele>18.6</ele>
        <time>2022-11-01T11:06:59Z</time>
      </trkpt>
      <trkpt lat="36.7456090" lon="-3.0155950">
        <ele>18.6</ele>
        <time>2022-11-01T11:07:00Z</time>
      </trkpt>
      <trkpt lat="36.7456410" lon="-3.0155550">
        <ele>18.6</ele>
        <time>2022-11-01T11:07:01Z</time>
      </trkpt>
      <trkpt lat="36.7456770" lon="-3.0155160">
        <ele>18.6</ele>
        <time>2022-11-01T11:07:02Z</time>
      </trkpt>
      <trkpt lat="36.7457110" lon="-3.0154790">
        <ele>18.8</ele>
        <time>2022-11-01T11:07:03Z</time>
      </trkpt>
      <trkpt lat="36.7457490" lon="-3.0154360">
        <ele>18.8</ele>
        <time>2022-11-01T11:07:04Z</time>
      </trkpt>
      <trkpt lat="36.7457750" lon="-3.0153910">
        <ele>18.8</ele>
        <time>2022-11-01T11:07:05Z</time>
      </trkpt>
      <trkpt lat="36.7458110" lon="-3.0153450">
        <ele>18.6</ele>
        <time>2022-11-01T11:07:06Z</time>
      </trkpt>
      <trkpt lat="36.7458460" lon="-3.0152990">
        <ele>18.8</ele>
        <time>2022-11-01T11:07:07Z</time>
      </trkpt>
      <trkpt lat="36.7458780" lon="-3.0152600">
        <ele>18.8</ele>
        <time>2022-11-01T11:07:08Z</time>
      </trkpt>
      <trkpt lat="36.7459130" lon="-3.0152190">
        <ele>18.8</ele>
        <time>2022-11-01T11:07:09Z</time>
      </trkpt>
      <trkpt lat="36.7459410" lon="-3.0151760">
        <ele>18.8</ele>
        <time>2022-11-01T11:07:10Z</time>
      </trkpt>
      <trkpt lat="36.7459720" lon="-3.0151350">
        <ele>19.0</ele>
        <time>2022-11-01T11:07:11Z</time>
      </trkpt>
      <trkpt lat="36.7460030" lon="-3.0150890">
        <ele>19.0</ele>
        <time>2022-11-01T11:07:12Z</time>
      </trkpt>
      <trkpt lat="36.7460310" lon="-3.0150420">
        <ele>19.0</ele>
        <time>2022-11-01T11:07:13Z</time>
      </trkpt>
      <trkpt lat="36.7460490" lon="-3.0150020">
        <ele>19.0</ele>
        <time>2022-11-01T11:07:14Z</time>
      </trkpt>
      <trkpt lat="36.7460910" lon="-3.0149760">
        <ele>19.0</ele>
        <time>2022-11-01T11:07:15Z</time>
      </trkpt>
      <trkpt lat="36.7461160" lon="-3.0149290">
        <ele>19.0</ele>
        <time>2022-11-01T11:07:16Z</time>
      </trkpt>
      <trkpt lat="36.7461620" lon="-3.0148920">
        <ele>19.2</ele>
        <time>2022-11-01T11:07:17Z</time>
      </trkpt>
      <trkpt lat="36.7462010" lon="-3.0148490">
        <ele>19.2</ele>
        <time>2022-11-01T11:07:18Z</time>
      </trkpt>
      <trkpt lat="36.7462400" lon="-3.0148110">
        <ele>19.2</ele>
        <time>2022-11-01T11:07:19Z</time>
      </trkpt>
      <trkpt lat="36.7462770" lon="-3.0147700">
        <ele>19.2</ele>
        <time>2022-11-01T11:07:20Z</time>
      </trkpt>
      <trkpt lat="36.7463140" lon="-3.0147340">
        <ele>19.2</ele>
        <time>2022-11-01T11:07:21Z</time>
      </trkpt>
      <trkpt lat="36.7463520" lon="-3.0146940">
        <ele>19.2</ele>
        <time>2022-11-01T11:07:22Z</time>
      </trkpt>
      <trkpt lat="36.7463880" lon="-3.0146560">
        <ele>19.2</ele>
        <time>2022-11-01T11:07:23Z</time>
      </trkpt>
      <trkpt lat="36.7464340" lon="-3.0146150">
        <ele>19.4</ele>
        <time>2022-11-01T11:07:24Z</time>
      </trkpt>
      <trkpt lat="36.7464720" lon="-3.0145750">
        <ele>19.4</ele>
        <time>2022-11-01T11:07:25Z</time>
      </trkpt>
      <trkpt lat="36.7465210" lon="-3.0145290">
        <ele>19.4</ele>
        <time>2022-11-01T11:07:26Z</time>
      </trkpt>
      <trkpt lat="36.7465600" lon="-3.0144860">
        <ele>19.4</ele>
        <time>2022-11-01T11:07:27Z</time>
      </trkpt>
      <trkpt lat="36.7465930" lon="-3.0144380">
        <ele>19.6</ele>
        <time>2022-11-01T11:07:28Z</time>
      </trkpt>
      <trkpt lat="36.7466340" lon="-3.0143960">
        <ele>19.6</ele>
        <time>2022-11-01T11:07:29Z</time>
      </trkpt>
      <trkpt lat="36.7466700" lon="-3.0143520">
        <ele>19.6</ele>
        <time>2022-11-01T11:07:30Z</time>
      </trkpt>
      <trkpt lat="36.7466940" lon="-3.0143010">
        <ele>19.6</ele>
        <time>2022-11-01T11:07:31Z</time>
      </trkpt>
      <trkpt lat="36.7467200" lon="-3.0142510">
        <ele>19.6</ele>
        <time>2022-11-01T11:07:32Z</time>
      </trkpt>
      <trkpt lat="36.7467470" lon="-3.0141960">
        <ele>19.8</ele>
        <time>2022-11-01T11:07:33Z</time>
      </trkpt>
      <trkpt lat="36.7467790" lon="-3.0141440">
        <ele>19.8</ele>
        <time>2022-11-01T11:07:34Z</time>
      </trkpt>
      <trkpt lat="36.7468210" lon="-3.0141030">
        <ele>19.8</ele>
        <time>2022-11-01T11:07:35Z</time>
      </trkpt>
      <trkpt lat="36.7468700" lon="-3.0140700">
        <ele>19.8</ele>
        <time>2022-11-01T11:07:36Z</time>
      </trkpt>
      <trkpt lat="36.7469190" lon="-3.0140360">
        <ele>20.0</ele>
        <time>2022-11-01T11:07:37Z</time>
      </trkpt>
      <trkpt lat="36.7469710" lon="-3.0139980">
        <ele>19.8</ele>
        <time>2022-11-01T11:07:38Z</time>
      </trkpt>
      <trkpt lat="36.7470220" lon="-3.0139600">
        <ele>20.0</ele>
        <time>2022-11-01T11:07:39Z</time>
      </trkpt>
      <trkpt lat="36.7470670" lon="-3.0139140">
        <ele>20.0</ele>
        <time>2022-11-01T11:07:40Z</time>
      </trkpt>
      <trkpt lat="36.7471130" lon="-3.0138740">
        <ele>20.0</ele>
        <time>2022-11-01T11:07:41Z</time>
      </trkpt>
      <trkpt lat="36.7471610" lon="-3.0138320">
        <ele>20.0</ele>
        <time>2022-11-01T11:07:42Z</time>
      </trkpt>
      <trkpt lat="36.7472060" lon="-3.0137870">
        <ele>20.0</ele>
        <time>2022-11-01T11:07:43Z</time>
      </trkpt>
      <trkpt lat="36.7472520" lon="-3.0137480">
        <ele>20.0</ele>
        <time>2022-11-01T11:07:44Z</time>
      </trkpt>
      <trkpt lat="36.7473000" lon="-3.0137070">
        <ele>20.0</ele>
        <time>2022-11-01T11:07:45Z</time>
      </trkpt>
      <trkpt lat="36.7473530" lon="-3.0136670">
        <ele>20.2</ele>
        <time>2022-11-01T11:07:46Z</time>
      </trkpt>
      <trkpt lat="36.7474030" lon="-3.0136240">
        <ele>20.2</ele>
        <time>2022-11-01T11:07:47Z</time>
      </trkpt>
      <trkpt lat="36.7474510" lon="-3.0135790">
        <ele>20.2</ele>
        <time>2022-11-01T11:07:48Z</time>
      </trkpt>
      <trkpt lat="36.7474850" lon="-3.0135370">
        <ele>20.4</ele>
        <time>2022-11-01T11:07:49Z</time>
      </trkpt>
      <trkpt lat="36.7475330" lon="-3.0134900">
        <ele>20.2</ele>
        <time>2022-11-01T11:07:50Z</time>
      </trkpt>
      <trkpt lat="36.7475790" lon="-3.0134430">
        <ele>20.4</ele>
        <time>2022-11-01T11:07:51Z</time>
      </trkpt>
      <trkpt lat="36.7476220" lon="-3.0133970">
        <ele>20.4</ele>
        <time>2022-11-01T11:07:52Z</time>
      </trkpt>
      <trkpt lat="36.7476650" lon="-3.0133510">
        <ele>20.4</ele>
        <time>2022-11-01T11:07:53Z</time>
      </trkpt>
      <trkpt lat="36.7477080" lon="-3.0133060">
        <ele>20.6</ele>
        <time>2022-11-01T11:07:54Z</time>
      </trkpt>
      <trkpt lat="36.7477490" lon="-3.0132630">
        <ele>20.6</ele>
        <time>2022-11-01T11:07:55Z</time>
      </trkpt>
      <trkpt lat="36.7477980" lon="-3.0132300">
        <ele>20.6</ele>
        <time>2022-11-01T11:07:56Z</time>
      </trkpt>
      <trkpt lat="36.7478410" lon="-3.0131910">
        <ele>20.6</ele>
        <time>2022-11-01T11:07:57Z</time>
      </trkpt>
      <trkpt lat="36.7478880" lon="-3.0131430">
        <ele>20.6</ele>
        <time>2022-11-01T11:07:58Z</time>
      </trkpt>
      <trkpt lat="36.7479310" lon="-3.0131010">
        <ele>20.8</ele>
        <time>2022-11-01T11:07:59Z</time>
      </trkpt>
      <trkpt lat="36.7479780" lon="-3.0130630">
        <ele>20.8</ele>
        <time>2022-11-01T11:08:00Z</time>
      </trkpt>
      <trkpt lat="36.7480240" lon="-3.0130260">
        <ele>20.8</ele>
        <time>2022-11-01T11:08:01Z</time>
      </trkpt>
      <trkpt lat="36.7480640" lon="-3.0129960">
        <ele>21.0</ele>
        <time>2022-11-01T11:08:02Z</time>
      </trkpt>
      <trkpt lat="36.7481020" lon="-3.0129730">
        <ele>21.0</ele>
        <time>2022-11-01T11:08:03Z</time>
      </trkpt>
      <trkpt lat="36.7481460" lon="-3.0129440">
        <ele>21.2</ele>
        <time>2022-11-01T11:08:04Z</time>
      </trkpt>
      <trkpt lat="36.7481950" lon="-3.0129220">
        <ele>21.2</ele>
        <time>2022-11-01T11:08:05Z</time>
      </trkpt>
      <trkpt lat="36.7482350" lon="-3.0128840">
        <ele>21.4</ele>
        <time>2022-11-01T11:08:06Z</time>
      </trkpt>
      <trkpt lat="36.7482760" lon="-3.0128380">
        <ele>21.4</ele>
        <time>2022-11-01T11:08:07Z</time>
      </trkpt>
      <trkpt lat="36.7483080" lon="-3.0127890">
        <ele>21.4</ele>
        <time>2022-11-01T11:08:08Z</time>
      </trkpt>
      <trkpt lat="36.7483370" lon="-3.0127440">
        <ele>21.4</ele>
        <time>2022-11-01T11:08:09Z</time>
      </trkpt>
      <trkpt lat="36.7483690" lon="-3.0126940">
        <ele>21.4</ele>
        <time>2022-11-01T11:08:10Z</time>
      </trkpt>
      <trkpt lat="36.7483840" lon="-3.0126660">
        <ele>21.4</ele>
        <time>2022-11-01T11:08:11Z</time>
      </trkpt>
      <trkpt lat="36.7483760" lon="-3.0125970">
        <ele>21.4</ele>
        <time>2022-11-01T11:08:12Z</time>
      </trkpt>
      <trkpt lat="36.7483830" lon="-3.0125450">
        <ele>21.4</ele>
        <time>2022-11-01T11:08:13Z</time>
      </trkpt>
      <trkpt lat="36.7483840" lon="-3.0125030">
        <ele>21.6</ele>
        <time>2022-11-01T11:08:14Z</time>
      </trkpt>
      <trkpt lat="36.7483790" lon="-3.0124510">
        <ele>21.6</ele>
        <time>2022-11-01T11:08:15Z</time>
      </trkpt>
      <trkpt lat="36.7483810" lon="-3.0123830">
        <ele>21.8</ele>
        <time>2022-11-01T11:08:16Z</time>
      </trkpt>
      <trkpt lat="36.7483850" lon="-3.0123150">
        <ele>22.0</ele>
        <time>2022-11-01T11:08:17Z</time>
      </trkpt>
      <trkpt lat="36.7483800" lon="-3.0122430">
        <ele>22.0</ele>
        <time>2022-11-01T11:08:18Z</time>
      </trkpt>
      <trkpt lat="36.7483700" lon="-3.0121690">
        <ele>22.2</ele>
        <time>2022-11-01T11:08:19Z</time>
      </trkpt>
      <trkpt lat="36.7483690" lon="-3.0120960">
        <ele>22.2</ele>
        <time>2022-11-01T11:08:20Z</time>
      </trkpt>
      <trkpt lat="36.7483660" lon="-3.0120240">
        <ele>22.4</ele>
        <time>2022-11-01T11:08:21Z</time>
      </trkpt>
      <trkpt lat="36.7483610" lon="-3.0119530">
        <ele>22.4</ele>
        <time>2022-11-01T11:08:22Z</time>
      </trkpt>
      <trkpt lat="36.7483560" lon="-3.0118820">
        <ele>22.6</ele>
        <time>2022-11-01T11:08:23Z</time>
      </trkpt>
      <trkpt lat="36.7483590" lon="-3.0118160">
        <ele>22.6</ele>
        <time>2022-11-01T11:08:24Z</time>
      </trkpt>
      <trkpt lat="36.7483710" lon="-3.0117520">
        <ele>22.6</ele>
        <time>2022-11-01T11:08:25Z</time>
      </trkpt>
      <trkpt lat="36.7483940" lon="-3.0116930">
        <ele>22.8</ele>
        <time>2022-11-01T11:08:26Z</time>
      </trkpt>
      <trkpt lat="36.7484240" lon="-3.0116400">
        <ele>22.8</ele>
        <time>2022-11-01T11:08:27Z</time>
      </trkpt>
      <trkpt lat="36.7484620" lon="-3.0115980">
        <ele>23.0</ele>
        <time>2022-11-01T11:08:28Z</time>
      </trkpt>
      <trkpt lat="36.7484710" lon="-3.0115570">
        <ele>23.2</ele>
        <time>2022-11-01T11:08:29Z</time>
      </trkpt>
      <trkpt lat="36.7484820" lon="-3.0115070">
        <ele>23.4</ele>
        <time>2022-11-01T11:08:30Z</time>
      </trkpt>
      <trkpt lat="36.7485080" lon="-3.0114590">
        <ele>23.6</ele>
        <time>2022-11-01T11:08:31Z</time>
      </trkpt>
      <trkpt lat="36.7485510" lon="-3.0114280">
        <ele>23.6</ele>
        <time>2022-11-01T11:08:32Z</time>
      </trkpt>
      <trkpt lat="36.7485900" lon="-3.0113990">
        <ele>23.8</ele>
        <time>2022-11-01T11:08:33Z</time>
      </trkpt>
      <trkpt lat="36.7486400" lon="-3.0113690">
        <ele>23.8</ele>
        <time>2022-11-01T11:08:34Z</time>
      </trkpt>
      <trkpt lat="36.7486880" lon="-3.0113360">
        <ele>23.8</ele>
        <time>2022-11-01T11:08:35Z</time>
      </trkpt>
      <trkpt lat="36.7487350" lon="-3.0113110">
        <ele>23.8</ele>
        <time>2022-11-01T11:08:36Z</time>
      </trkpt>
      <trkpt lat="36.7487820" lon="-3.0112900">
        <ele>24.0</ele>
        <time>2022-11-01T11:08:37Z</time>
      </trkpt>
      <trkpt lat="36.7488300" lon="-3.0112730">
        <ele>24.0</ele>
        <time>2022-11-01T11:08:38Z</time>
      </trkpt>
      <trkpt lat="36.7488730" lon="-3.0112520">
        <ele>24.0</ele>
        <time>2022-11-01T11:08:39Z</time>
      </trkpt>
      <trkpt lat="36.7489080" lon="-3.0112110">
        <ele>24.0</ele>
        <time>2022-11-01T11:08:40Z</time>
      </trkpt>
      <trkpt lat="36.7489430" lon="-3.0111690">
        <ele>24.0</ele>
        <time>2022-11-01T11:08:41Z</time>
      </trkpt>
      <trkpt lat="36.7489680" lon="-3.0111270">
        <ele>24.0</ele>
        <time>2022-11-01T11:08:42Z</time>
      </trkpt>
      <trkpt lat="36.7489790" lon="-3.0110650">
        <ele>24.0</ele>
        <time>2022-11-01T11:08:43Z</time>
      </trkpt>
      <trkpt lat="36.7489970" lon="-3.0110000">
        <ele>24.2</ele>
        <time>2022-11-01T11:08:44Z</time>
      </trkpt>
      <trkpt lat="36.7490080" lon="-3.0109340">
        <ele>24.2</ele>
        <time>2022-11-01T11:08:45Z</time>
      </trkpt>
      <trkpt lat="36.7490100" lon="-3.0108660">
        <ele>24.2</ele>
        <time>2022-11-01T11:08:46Z</time>
      </trkpt>
      <trkpt lat="36.7490080" lon="-3.0107980">
        <ele>24.2</ele>
        <time>2022-11-01T11:08:47Z</time>
      </trkpt>
      <trkpt lat="36.7490020" lon="-3.0107300">
        <ele>24.4</ele>
        <time>2022-11-01T11:08:48Z</time>
      </trkpt>
      <trkpt lat="36.7490000" lon="-3.0106610">
        <ele>24.4</ele>
        <time>2022-11-01T11:08:49Z</time>
      </trkpt>
      <trkpt lat="36.7489980" lon="-3.0105910">
        <ele>24.4</ele>
        <time>2022-11-01T11:08:50Z</time>
      </trkpt>
      <trkpt lat="36.7489960" lon="-3.0105210">
        <ele>24.4</ele>
        <time>2022-11-01T11:08:51Z</time>
      </trkpt>
      <trkpt lat="36.7489880" lon="-3.0104550">
        <ele>24.6</ele>
        <time>2022-11-01T11:08:52Z</time>
      </trkpt>
      <trkpt lat="36.7489810" lon="-3.0103890">
        <ele>24.6</ele>
        <time>2022-11-01T11:08:53Z</time>
      </trkpt>
      <trkpt lat="36.7489650" lon="-3.0103200">
        <ele>24.8</ele>
        <time>2022-11-01T11:08:54Z</time>
      </trkpt>
      <trkpt lat="36.7489550" lon="-3.0102530">
        <ele>24.8</ele>
        <time>2022-11-01T11:08:55Z</time>
      </trkpt>
      <trkpt lat="36.7489450" lon="-3.0101850">
        <ele>24.8</ele>
        <time>2022-11-01T11:08:56Z</time>
      </trkpt>
      <trkpt lat="36.7489340" lon="-3.0101150">
        <ele>25.0</ele>
        <time>2022-11-01T11:08:57Z</time>
      </trkpt>
      <trkpt lat="36.7489170" lon="-3.0100470">
        <ele>25.2</ele>
        <time>2022-11-01T11:08:58Z</time>
      </trkpt>
      <trkpt lat="36.7489070" lon="-3.0099800">
        <ele>25.2</ele>
        <time>2022-11-01T11:08:59Z</time>
      </trkpt>
      <trkpt lat="36.7489010" lon="-3.0099090">
        <ele>25.2</ele>
        <time>2022-11-01T11:09:00Z</time>
      </trkpt>
      <trkpt lat="36.7488950" lon="-3.0098400">
        <ele>25.4</ele>
        <time>2022-11-01T11:09:01Z</time>
      </trkpt>
      <trkpt lat="36.7488860" lon="-3.0097700">
        <ele>25.4</ele>
        <time>2022-11-01T11:09:02Z</time>
      </trkpt>
      <trkpt lat="36.7488780" lon="-3.0096980">
        <ele>25.6</ele>
        <time>2022-11-01T11:09:03Z</time>
      </trkpt>
      <trkpt lat="36.7488720" lon="-3.0096270">
        <ele>25.6</ele>
        <time>2022-11-01T11:09:04Z</time>
      </trkpt>
      <trkpt lat="36.7488620" lon="-3.0095550">
        <ele>25.8</ele>
        <time>2022-11-01T11:09:05Z</time>
      </trkpt>
      <trkpt lat="36.7488530" lon="-3.0094850">
        <ele>25.8</ele>
        <time>2022-11-01T11:09:06Z</time>
      </trkpt>
      <trkpt lat="36.7488480" lon="-3.0094170">
        <ele>25.8</ele>
        <time>2022-11-01T11:09:07Z</time>
      </trkpt>
      <trkpt lat="36.7488370" lon="-3.0093460">
        <ele>26.0</ele>
        <time>2022-11-01T11:09:08Z</time>
      </trkpt>
      <trkpt lat="36.7488280" lon="-3.0092750">
        <ele>26.0</ele>
        <time>2022-11-01T11:09:09Z</time>
      </trkpt>
      <trkpt lat="36.7488210" lon="-3.0092040">
        <ele>26.2</ele>
        <time>2022-11-01T11:09:10Z</time>
      </trkpt>
      <trkpt lat="36.7488050" lon="-3.0091350">
        <ele>26.2</ele>
        <time>2022-11-01T11:09:11Z</time>
      </trkpt>
      <trkpt lat="36.7487870" lon="-3.0090740">
        <ele>26.2</ele>
        <time>2022-11-01T11:09:12Z</time>
      </trkpt>
      <trkpt lat="36.7487760" lon="-3.0090060">
        <ele>26.4</ele>
        <time>2022-11-01T11:09:13Z</time>
      </trkpt>
      <trkpt lat="36.7487710" lon="-3.0089390">
        <ele>26.4</ele>
        <time>2022-11-01T11:09:14Z</time>
      </trkpt>
      <trkpt lat="36.7487600" lon="-3.0088730">
        <ele>26.4</ele>
        <time>2022-11-01T11:09:15Z</time>
      </trkpt>
      <trkpt lat="36.7487490" lon="-3.0088020">
        <ele>26.6</ele>
        <time>2022-11-01T11:09:16Z</time>
      </trkpt>
      <trkpt lat="36.7487400" lon="-3.0087290">
        <ele>26.6</ele>
        <time>2022-11-01T11:09:17Z</time>
      </trkpt>
      <trkpt lat="36.7487350" lon="-3.0086550">
        <ele>26.6</ele>
        <time>2022-11-01T11:09:18Z</time>
      </trkpt>
      <trkpt lat="36.7487260" lon="-3.0085820">
        <ele>26.8</ele>
        <time>2022-11-01T11:09:19Z</time>
      </trkpt>
      <trkpt lat="36.7487180" lon="-3.0085090">
        <ele>26.8</ele>
        <time>2022-11-01T11:09:20Z</time>
      </trkpt>
      <trkpt lat="36.7487100" lon="-3.0084360">
        <ele>26.8</ele>
        <time>2022-11-01T11:09:21Z</time>
      </trkpt>
      <trkpt lat="36.7487010" lon="-3.0083670">
        <ele>27.0</ele>
        <time>2022-11-01T11:09:22Z</time>
      </trkpt>
      <trkpt lat="36.7486880" lon="-3.0082980">
        <ele>27.2</ele>
        <time>2022-11-01T11:09:23Z</time>
      </trkpt>
      <trkpt lat="36.7486770" lon="-3.0082260">
        <ele>27.4</ele>
        <time>2022-11-01T11:09:24Z</time>
      </trkpt>
      <trkpt lat="36.7486680" lon="-3.0081540">
        <ele>27.4</ele>
        <time>2022-11-01T11:09:25Z</time>
      </trkpt>
      <trkpt lat="36.7486590" lon="-3.0080820">
        <ele>27.6</ele>
        <time>2022-11-01T11:09:26Z</time>
      </trkpt>
      <trkpt lat="36.7486510" lon="-3.0080110">
        <ele>27.6</ele>
        <time>2022-11-01T11:09:27Z</time>
      </trkpt>
      <trkpt lat="36.7486430" lon="-3.0079410">
        <ele>27.8</ele>
        <time>2022-11-01T11:09:28Z</time>
      </trkpt>
      <trkpt lat="36.7486320" lon="-3.0078710">
        <ele>28.0</ele>
        <time>2022-11-01T11:09:29Z</time>
      </trkpt>
      <trkpt lat="36.7486230" lon="-3.0078050">
        <ele>28.0</ele>
        <time>2022-11-01T11:09:30Z</time>
      </trkpt>
      <trkpt lat="36.7486110" lon="-3.0077410">
        <ele>28.2</ele>
        <time>2022-11-01T11:09:31Z</time>
      </trkpt>
      <trkpt lat="36.7486040" lon="-3.0076770">
        <ele>28.2</ele>
        <time>2022-11-01T11:09:32Z</time>
      </trkpt>
      <trkpt lat="36.7485920" lon="-3.0076240">
        <ele>28.4</ele>
        <time>2022-11-01T11:09:33Z</time>
      </trkpt>
      <trkpt lat="36.7485800" lon="-3.0075710">
        <ele>28.4</ele>
        <time>2022-11-01T11:09:34Z</time>
      </trkpt>
      <trkpt lat="36.7485680" lon="-3.0075210">
        <ele>28.4</ele>
        <time>2022-11-01T11:09:35Z</time>
      </trkpt>
      <trkpt lat="36.7485500" lon="-3.0074640">
        <ele>28.6</ele>
        <time>2022-11-01T11:09:36Z</time>
      </trkpt>
      <trkpt lat="36.7485370" lon="-3.0074030">
        <ele>28.6</ele>
        <time>2022-11-01T11:09:37Z</time>
      </trkpt>
      <trkpt lat="36.7485260" lon="-3.0073390">
        <ele>28.6</ele>
        <time>2022-11-01T11:09:38Z</time>
      </trkpt>
      <trkpt lat="36.7485240" lon="-3.0072690">
        <ele>28.8</ele>
        <time>2022-11-01T11:09:39Z</time>
      </trkpt>
      <trkpt lat="36.7485220" lon="-3.0071990">
        <ele>28.8</ele>
        <time>2022-11-01T11:09:40Z</time>
      </trkpt>
      <trkpt lat="36.7485230" lon="-3.0071310">
        <ele>28.8</ele>
        <time>2022-11-01T11:09:41Z</time>
      </trkpt>
      <trkpt lat="36.7485210" lon="-3.0070610">
        <ele>29.0</ele>
        <time>2022-11-01T11:09:42Z</time>
      </trkpt>
      <trkpt lat="36.7485160" lon="-3.0069890">
        <ele>29.0</ele>
        <time>2022-11-01T11:09:43Z</time>
      </trkpt>
      <trkpt lat="36.7485100" lon="-3.0069170">
        <ele>29.0</ele>
        <time>2022-11-01T11:09:44Z</time>
      </trkpt>
      <trkpt lat="36.7485020" lon="-3.0068450">
        <ele>29.2</ele>
        <time>2022-11-01T11:09:45Z</time>
      </trkpt>
      <trkpt lat="36.7484880" lon="-3.0067750">
        <ele>29.2</ele>
        <time>2022-11-01T11:09:46Z</time>
      </trkpt>
      <trkpt lat="36.7484750" lon="-3.0067040">
        <ele>29.2</ele>
        <time>2022-11-01T11:09:47Z</time>
      </trkpt>
      <trkpt lat="36.7484650" lon="-3.0066300">
        <ele>29.2</ele>
        <time>2022-11-01T11:09:48Z</time>
      </trkpt>
      <trkpt lat="36.7484560" lon="-3.0065560">
        <ele>29.2</ele>
        <time>2022-11-01T11:09:49Z</time>
      </trkpt>
      <trkpt lat="36.7484450" lon="-3.0064810">
        <ele>29.2</ele>
        <time>2022-11-01T11:09:50Z</time>
      </trkpt>
      <trkpt lat="36.7484360" lon="-3.0064060">
        <ele>29.2</ele>
        <time>2022-11-01T11:09:51Z</time>
      </trkpt>
      <trkpt lat="36.7484260" lon="-3.0063310">
        <ele>29.2</ele>
        <time>2022-11-01T11:09:52Z</time>
      </trkpt>
      <trkpt lat="36.7484190" lon="-3.0062560">
        <ele>29.2</ele>
        <time>2022-11-01T11:09:53Z</time>
      </trkpt>
      <trkpt lat="36.7484100" lon="-3.0061800">
        <ele>29.2</ele>
        <time>2022-11-01T11:09:54Z</time>
      </trkpt>
      <trkpt lat="36.7484020" lon="-3.0061030">
        <ele>29.2</ele>
        <time>2022-11-01T11:09:55Z</time>
      </trkpt>
      <trkpt lat="36.7483910" lon="-3.0060270">
        <ele>29.0</ele>
        <time>2022-11-01T11:09:56Z</time>
      </trkpt>
      <trkpt lat="36.7483810" lon="-3.0059510">
        <ele>29.0</ele>
        <time>2022-11-01T11:09:57Z</time>
      </trkpt>
      <trkpt lat="36.7483690" lon="-3.0058750">
        <ele>29.0</ele>
        <time>2022-11-01T11:09:58Z</time>
      </trkpt>
      <trkpt lat="36.7483520" lon="-3.0058070">
        <ele>28.8</ele>
        <time>2022-11-01T11:09:59Z</time>
      </trkpt>
      <trkpt lat="36.7483350" lon="-3.0057370">
        <ele>28.8</ele>
        <time>2022-11-01T11:10:00Z</time>
      </trkpt>
      <trkpt lat="36.7483240" lon="-3.0056640">
        <ele>28.6</ele>
        <time>2022-11-01T11:10:01Z</time>
      </trkpt>
      <trkpt lat="36.7483140" lon="-3.0055920">
        <ele>28.6</ele>
        <time>2022-11-01T11:10:02Z</time>
      </trkpt>
      <trkpt lat="36.7483040" lon="-3.0055180">
        <ele>28.4</ele>
        <time>2022-11-01T11:10:03Z</time>
      </trkpt>
      <trkpt lat="36.7482940" lon="-3.0054420">
        <ele>28.4</ele>
        <time>2022-11-01T11:10:04Z</time>
      </trkpt>
      <trkpt lat="36.7482850" lon="-3.0053660">
        <ele>28.4</ele>
        <time>2022-11-01T11:10:05Z</time>
      </trkpt>
      <trkpt lat="36.7482730" lon="-3.0052880">
        <ele>28.2</ele>
        <time>2022-11-01T11:10:06Z</time>
      </trkpt>
      <trkpt lat="36.7482620" lon="-3.0052110">
        <ele>28.2</ele>
        <time>2022-11-01T11:10:07Z</time>
      </trkpt>
      <trkpt lat="36.7482510" lon="-3.0051330">
        <ele>28.0</ele>
        <time>2022-11-01T11:10:08Z</time>
      </trkpt>
      <trkpt lat="36.7482390" lon="-3.0050550">
        <ele>28.0</ele>
        <time>2022-11-01T11:10:09Z</time>
      </trkpt>
      <trkpt lat="36.7482270" lon="-3.0049750">
        <ele>28.0</ele>
        <time>2022-11-01T11:10:10Z</time>
      </trkpt>
      <trkpt lat="36.7482160" lon="-3.0048940">
        <ele>28.0</ele>
        <time>2022-11-01T11:10:11Z</time>
      </trkpt>
      <trkpt lat="36.7482050" lon="-3.0048150">
        <ele>27.8</ele>
        <time>2022-11-01T11:10:12Z</time>
      </trkpt>
      <trkpt lat="36.7481930" lon="-3.0047370">
        <ele>27.6</ele>
        <time>2022-11-01T11:10:13Z</time>
      </trkpt>
      <trkpt lat="36.7481800" lon="-3.0046560">
        <ele>27.6</ele>
        <time>2022-11-01T11:10:14Z</time>
      </trkpt>
      <trkpt lat="36.7481660" lon="-3.0045790">
        <ele>27.6</ele>
        <time>2022-11-01T11:10:15Z</time>
      </trkpt>
      <trkpt lat="36.7481530" lon="-3.0044990">
        <ele>27.4</ele>
        <time>2022-11-01T11:10:16Z</time>
      </trkpt>
      <trkpt lat="36.7481420" lon="-3.0044150">
        <ele>27.4</ele>
        <time>2022-11-01T11:10:17Z</time>
      </trkpt>
      <trkpt lat="36.7481310" lon="-3.0043320">
        <ele>27.2</ele>
        <time>2022-11-01T11:10:18Z</time>
      </trkpt>
      <trkpt lat="36.7481180" lon="-3.0042490">
        <ele>27.2</ele>
        <time>2022-11-01T11:10:19Z</time>
      </trkpt>
      <trkpt lat="36.7481020" lon="-3.0041640">
        <ele>27.2</ele>
        <time>2022-11-01T11:10:20Z</time>
      </trkpt>
      <trkpt lat="36.7480900" lon="-3.0040790">
        <ele>27.2</ele>
        <time>2022-11-01T11:10:21Z</time>
      </trkpt>
      <trkpt lat="36.7480730" lon="-3.0039950">
        <ele>27.0</ele>
        <time>2022-11-01T11:10:22Z</time>
      </trkpt>
      <trkpt lat="36.7480630" lon="-3.0039060">
        <ele>26.8</ele>
        <time>2022-11-01T11:10:23Z</time>
      </trkpt>
      <trkpt lat="36.7480510" lon="-3.0038180">
        <ele>26.8</ele>
        <time>2022-11-01T11:10:24Z</time>
      </trkpt>
      <trkpt lat="36.7480380" lon="-3.0037300">
        <ele>26.8</ele>
        <time>2022-11-01T11:10:25Z</time>
      </trkpt>
      <trkpt lat="36.7480210" lon="-3.0036440">
        <ele>26.6</ele>
        <time>2022-11-01T11:10:26Z</time>
      </trkpt>
      <trkpt lat="36.7480080" lon="-3.0035650">
        <ele>26.6</ele>
        <time>2022-11-01T11:10:27Z</time>
      </trkpt>
      <trkpt lat="36.7479950" lon="-3.0034770">
        <ele>26.4</ele>
        <time>2022-11-01T11:10:28Z</time>
      </trkpt>
      <trkpt lat="36.7479860" lon="-3.0033880">
        <ele>26.2</ele>
        <time>2022-11-01T11:10:29Z</time>
      </trkpt>
      <trkpt lat="36.7479740" lon="-3.0033020">
        <ele>26.2</ele>
        <time>2022-11-01T11:10:30Z</time>
      </trkpt>
      <trkpt lat="36.7479630" lon="-3.0032110">
        <ele>26.2</ele>
        <time>2022-11-01T11:10:31Z</time>
      </trkpt>
      <trkpt lat="36.7479510" lon="-3.0031240">
        <ele>26.0</ele>
        <time>2022-11-01T11:10:32Z</time>
      </trkpt>
      <trkpt lat="36.7479400" lon="-3.0030380">
        <ele>26.0</ele>
        <time>2022-11-01T11:10:33Z</time>
      </trkpt>
      <trkpt lat="36.7479270" lon="-3.0029530">
        <ele>25.8</ele>
        <time>2022-11-01T11:10:34Z</time>
      </trkpt>
      <trkpt lat="36.7479110" lon="-3.0028720">
        <ele>25.8</ele>
        <time>2022-11-01T11:10:35Z</time>
      </trkpt>
      <trkpt lat="36.7478970" lon="-3.0027900">
        <ele>25.8</ele>
        <time>2022-11-01T11:10:36Z</time>
      </trkpt>
      <trkpt lat="36.7478880" lon="-3.0027030">
        <ele>25.6</ele>
        <time>2022-11-01T11:10:37Z</time>
      </trkpt>
      <trkpt lat="36.7478790" lon="-3.0026190">
        <ele>25.6</ele>
        <time>2022-11-01T11:10:38Z</time>
      </trkpt>
      <trkpt lat="36.7478690" lon="-3.0025360">
        <ele>25.4</ele>
        <time>2022-11-01T11:10:39Z</time>
      </trkpt>
      <trkpt lat="36.7478540" lon="-3.0024560">
        <ele>25.4</ele>
        <time>2022-11-01T11:10:40Z</time>
      </trkpt>
      <trkpt lat="36.7478370" lon="-3.0023780">
        <ele>25.4</ele>
        <time>2022-11-01T11:10:41Z</time>
      </trkpt>
      <trkpt lat="36.7478290" lon="-3.0022950">
        <ele>25.2</ele>
        <time>2022-11-01T11:10:42Z</time>
      </trkpt>
      <trkpt lat="36.7478220" lon="-3.0022100">
        <ele>25.2</ele>
        <time>2022-11-01T11:10:43Z</time>
      </trkpt>
      <trkpt lat="36.7478140" lon="-3.0021390">
        <ele>25.2</ele>
        <time>2022-11-01T11:10:44Z</time>
      </trkpt>
      <trkpt lat="36.7478050" lon="-3.0020750">
        <ele>25.2</ele>
        <time>2022-11-01T11:10:45Z</time>
      </trkpt>
      <trkpt lat="36.7477960" lon="-3.0019870">
        <ele>25.2</ele>
        <time>2022-11-01T11:10:46Z</time>
      </trkpt>
      <trkpt lat="36.7477840" lon="-3.0019010">
        <ele>25.0</ele>
        <time>2022-11-01T11:10:47Z</time>
      </trkpt>
      <trkpt lat="36.7477670" lon="-3.0018180">
        <ele>25.0</ele>
        <time>2022-11-01T11:10:48Z</time>
      </trkpt>
      <trkpt lat="36.7477530" lon="-3.0017350">
        <ele>25.0</ele>
        <time>2022-11-01T11:10:49Z</time>
      </trkpt>
      <trkpt lat="36.7477480" lon="-3.0016470">
        <ele>25.0</ele>
        <time>2022-11-01T11:10:50Z</time>
      </trkpt>
      <trkpt lat="36.7477420" lon="-3.0015630">
        <ele>25.0</ele>
        <time>2022-11-01T11:10:51Z</time>
      </trkpt>
      <trkpt lat="36.7477310" lon="-3.0014820">
        <ele>25.0</ele>
        <time>2022-11-01T11:10:52Z</time>
      </trkpt>
      <trkpt lat="36.7477190" lon="-3.0014010">
        <ele>25.2</ele>
        <time>2022-11-01T11:10:53Z</time>
      </trkpt>
      <trkpt lat="36.7477140" lon="-3.0013190">
        <ele>25.2</ele>
        <time>2022-11-01T11:10:54Z</time>
      </trkpt>
      <trkpt lat="36.7477050" lon="-3.0012400">
        <ele>25.2</ele>
        <time>2022-11-01T11:10:55Z</time>
      </trkpt>
      <trkpt lat="36.7476920" lon="-3.0011580">
        <ele>25.4</ele>
        <time>2022-11-01T11:10:56Z</time>
      </trkpt>
      <trkpt lat="36.7476800" lon="-3.0010770">
        <ele>25.4</ele>
        <time>2022-11-01T11:10:57Z</time>
      </trkpt>
      <trkpt lat="36.7476690" lon="-3.0009980">
        <ele>25.6</ele>
        <time>2022-11-01T11:10:58Z</time>
      </trkpt>
      <trkpt lat="36.7476600" lon="-3.0009190">
        <ele>25.6</ele>
        <time>2022-11-01T11:10:59Z</time>
      </trkpt>
      <trkpt lat="36.7476470" lon="-3.0008400">
        <ele>25.8</ele>
        <time>2022-11-01T11:11:00Z</time>
      </trkpt>
      <trkpt lat="36.7476370" lon="-3.0007620">
        <ele>25.8</ele>
        <time>2022-11-01T11:11:01Z</time>
      </trkpt>
      <trkpt lat="36.7476260" lon="-3.0006860">
        <ele>26.0</ele>
        <time>2022-11-01T11:11:02Z</time>
      </trkpt>
      <trkpt lat="36.7476160" lon="-3.0006110">
        <ele>26.0</ele>
        <time>2022-11-01T11:11:03Z</time>
      </trkpt>
      <trkpt lat="36.7476080" lon="-3.0005340">
        <ele>26.2</ele>
        <time>2022-11-01T11:11:04Z</time>
      </trkpt>
      <trkpt lat="36.7475980" lon="-3.0004610">
        <ele>26.2</ele>
        <time>2022-11-01T11:11:05Z</time>
      </trkpt>
      <trkpt lat="36.7475850" lon="-3.0003870">
        <ele>26.4</ele>
        <time>2022-11-01T11:11:06Z</time>
      </trkpt>
      <trkpt lat="36.7475650" lon="-3.0003190">
        <ele>26.6</ele>
        <time>2022-11-01T11:11:07Z</time>
      </trkpt>
      <trkpt lat="36.7475390" lon="-3.0002540">
        <ele>26.8</ele>
        <time>2022-11-01T11:11:08Z</time>
      </trkpt>
      <trkpt lat="36.7475130" lon="-3.0001930">
        <ele>27.0</ele>
        <time>2022-11-01T11:11:09Z</time>
      </trkpt>
      <trkpt lat="36.7474950" lon="-3.0001270">
        <ele>27.2</ele>
        <time>2022-11-01T11:11:10Z</time>
      </trkpt>
      <trkpt lat="36.7474900" lon="-3.0000570">
        <ele>27.2</ele>
        <time>2022-11-01T11:11:11Z</time>
      </trkpt>
      <trkpt lat="36.7474970" lon="-2.9999890">
        <ele>27.4</ele>
        <time>2022-11-01T11:11:12Z</time>
      </trkpt>
      <trkpt lat="36.7475190" lon="-2.9999190">
        <ele>27.6</ele>
        <time>2022-11-01T11:11:13Z</time>
      </trkpt>
      <trkpt lat="36.7475520" lon="-2.9998530">
        <ele>27.6</ele>
        <time>2022-11-01T11:11:14Z</time>
      </trkpt>
      <trkpt lat="36.7475880" lon="-2.9997900">
        <ele>27.6</ele>
        <time>2022-11-01T11:11:15Z</time>
      </trkpt>
      <trkpt lat="36.7476220" lon="-2.9997300">
        <ele>27.6</ele>
        <time>2022-11-01T11:11:16Z</time>
      </trkpt>
      <trkpt lat="36.7476570" lon="-2.9996690">
        <ele>27.6</ele>
        <time>2022-11-01T11:11:17Z</time>
      </trkpt>
      <trkpt lat="36.7476900" lon="-2.9996040">
        <ele>27.6</ele>
        <time>2022-11-01T11:11:18Z</time>
      </trkpt>
      <trkpt lat="36.7477120" lon="-2.9995340">
        <ele>27.8</ele>
        <time>2022-11-01T11:11:19Z</time>
      </trkpt>
      <trkpt lat="36.7477160" lon="-2.9994600">
        <ele>28.0</ele>
        <time>2022-11-01T11:11:20Z</time>
      </trkpt>
      <trkpt lat="36.7477360" lon="-2.9993880">
        <ele>28.2</ele>
        <time>2022-11-01T11:11:21Z</time>
      </trkpt>
      <trkpt lat="36.7477570" lon="-2.9993190">
        <ele>28.4</ele>
        <time>2022-11-01T11:11:22Z</time>
      </trkpt>
      <trkpt lat="36.7477710" lon="-2.9992550">
        <ele>28.6</ele>
        <time>2022-11-01T11:11:23Z</time>
      </trkpt>
      <trkpt lat="36.7477880" lon="-2.9991920">
        <ele>28.6</ele>
        <time>2022-11-01T11:11:24Z</time>
      </trkpt>
      <trkpt lat="36.7478040" lon="-2.9991280">
        <ele>28.8</ele>
        <time>2022-11-01T11:11:25Z</time>
      </trkpt>
      <trkpt lat="36.7478150" lon="-2.9990660">
        <ele>29.0</ele>
        <time>2022-11-01T11:11:26Z</time>
      </trkpt>
      <trkpt lat="36.7478210" lon="-2.9990100">
        <ele>29.2</ele>
        <time>2022-11-01T11:11:27Z</time>
      </trkpt>
      <trkpt lat="36.7478640" lon="-2.9989540">
        <ele>29.4</ele>
        <time>2022-11-01T11:11:28Z</time>
      </trkpt>
      <trkpt lat="36.7478870" lon="-2.9988990">
        <ele>29.6</ele>
        <time>2022-11-01T11:11:29Z</time>
      </trkpt>
      <trkpt lat="36.7479190" lon="-2.9988420">
        <ele>29.6</ele>
        <time>2022-11-01T11:11:30Z</time>
      </trkpt>
      <trkpt lat="36.7479380" lon="-2.9987880">
        <ele>30.0</ele>
        <time>2022-11-01T11:11:31Z</time>
      </trkpt>
      <trkpt lat="36.7479510" lon="-2.9987220">
        <ele>30.0</ele>
        <time>2022-11-01T11:11:32Z</time>
      </trkpt>
      <trkpt lat="36.7479900" lon="-2.9986570">
        <ele>30.2</ele>
        <time>2022-11-01T11:11:33Z</time>
      </trkpt>
      <trkpt lat="36.7480270" lon="-2.9985950">
        <ele>30.4</ele>
        <time>2022-11-01T11:11:34Z</time>
      </trkpt>
      <trkpt lat="36.7480650" lon="-2.9985340">
        <ele>30.6</ele>
        <time>2022-11-01T11:11:35Z</time>
      </trkpt>
      <trkpt lat="36.7481050" lon="-2.9984740">
        <ele>30.6</ele>
        <time>2022-11-01T11:11:36Z</time>
      </trkpt>
      <trkpt lat="36.7481420" lon="-2.9984170">
        <ele>30.8</ele>
        <time>2022-11-01T11:11:37Z</time>
      </trkpt>
      <trkpt lat="36.7481800" lon="-2.9983600">
        <ele>31.0</ele>
        <time>2022-11-01T11:11:38Z</time>
      </trkpt>
      <trkpt lat="36.7482190" lon="-2.9983010">
        <ele>31.2</ele>
        <time>2022-11-01T11:11:39Z</time>
      </trkpt>
      <trkpt lat="36.7482570" lon="-2.9982420">
        <ele>31.4</ele>
        <time>2022-11-01T11:11:40Z</time>
      </trkpt>
      <trkpt lat="36.7482960" lon="-2.9981850">
        <ele>31.6</ele>
        <time>2022-11-01T11:11:41Z</time>
      </trkpt>
      <trkpt lat="36.7483350" lon="-2.9981270">
        <ele>31.6</ele>
        <time>2022-11-01T11:11:42Z</time>
      </trkpt>
      <trkpt lat="36.7483730" lon="-2.9980700">
        <ele>31.8</ele>
        <time>2022-11-01T11:11:43Z</time>
      </trkpt>
      <trkpt lat="36.7484110" lon="-2.9980130">
        <ele>32.0</ele>
        <time>2022-11-01T11:11:44Z</time>
      </trkpt>
      <trkpt lat="36.7484490" lon="-2.9979570">
        <ele>32.0</ele>
        <time>2022-11-01T11:11:45Z</time>
      </trkpt>
      <trkpt lat="36.7484870" lon="-2.9979010">
        <ele>32.2</ele>
        <time>2022-11-01T11:11:46Z</time>
      </trkpt>
      <trkpt lat="36.7485250" lon="-2.9978460">
        <ele>32.4</ele>
        <time>2022-11-01T11:11:47Z</time>
      </trkpt>
      <trkpt lat="36.7485660" lon="-2.9977890">
        <ele>32.6</ele>
        <time>2022-11-01T11:11:48Z</time>
      </trkpt>
      <trkpt lat="36.7486050" lon="-2.9977320">
        <ele>32.6</ele>
        <time>2022-11-01T11:11:49Z</time>
      </trkpt>
      <trkpt lat="36.7486450" lon="-2.9976730">
        <ele>32.6</ele>
        <time>2022-11-01T11:11:50Z</time>
      </trkpt>
      <trkpt lat="36.7486840" lon="-2.9976140">
        <ele>32.8</ele>
        <time>2022-11-01T11:11:51Z</time>
      </trkpt>
      <trkpt lat="36.7487250" lon="-2.9975540">
        <ele>32.8</ele>
        <time>2022-11-01T11:11:52Z</time>
      </trkpt>
      <trkpt lat="36.7487650" lon="-2.9974970">
        <ele>32.8</ele>
        <time>2022-11-01T11:11:53Z</time>
      </trkpt>
      <trkpt lat="36.7488040" lon="-2.9974400">
        <ele>33.0</ele>
        <time>2022-11-01T11:11:54Z</time>
      </trkpt>
      <trkpt lat="36.7488440" lon="-2.9973830">
        <ele>33.0</ele>
        <time>2022-11-01T11:11:55Z</time>
      </trkpt>
      <trkpt lat="36.7488850" lon="-2.9973260">
        <ele>33.0</ele>
        <time>2022-11-01T11:11:56Z</time>
      </trkpt>
      <trkpt lat="36.7489270" lon="-2.9972650">
        <ele>33.0</ele>
        <time>2022-11-01T11:11:57Z</time>
      </trkpt>
      <trkpt lat="36.7489670" lon="-2.9972070">
        <ele>33.0</ele>
        <time>2022-11-01T11:11:58Z</time>
      </trkpt>
      <trkpt lat="36.7490050" lon="-2.9971530">
        <ele>33.0</ele>
        <time>2022-11-01T11:11:59Z</time>
      </trkpt>
      <trkpt lat="36.7490460" lon="-2.9970950">
        <ele>33.2</ele>
        <time>2022-11-01T11:12:00Z</time>
      </trkpt>
      <trkpt lat="36.7490870" lon="-2.9970360">
        <ele>33.2</ele>
        <time>2022-11-01T11:12:01Z</time>
      </trkpt>
      <trkpt lat="36.7491270" lon="-2.9969760">
        <ele>33.2</ele>
        <time>2022-11-01T11:12:02Z</time>
      </trkpt>
      <trkpt lat="36.7491640" lon="-2.9969150">
        <ele>33.2</ele>
        <time>2022-11-01T11:12:03Z</time>
      </trkpt>
      <trkpt lat="36.7492060" lon="-2.9968510">
        <ele>33.4</ele>
        <time>2022-11-01T11:12:04Z</time>
      </trkpt>
      <trkpt lat="36.7492410" lon="-2.9967910">
        <ele>33.4</ele>
        <time>2022-11-01T11:12:05Z</time>
      </trkpt>
      <trkpt lat="36.7492750" lon="-2.9967320">
        <ele>33.4</ele>
        <time>2022-11-01T11:12:06Z</time>
      </trkpt>
      <trkpt lat="36.7493080" lon="-2.9966720">
        <ele>33.4</ele>
        <time>2022-11-01T11:12:07Z</time>
      </trkpt>
      <trkpt lat="36.7493450" lon="-2.9966130">
        <ele>33.6</ele>
        <time>2022-11-01T11:12:08Z</time>
      </trkpt>
      <trkpt lat="36.7493850" lon="-2.9965540">
        <ele>33.6</ele>
        <time>2022-11-01T11:12:09Z</time>
      </trkpt>
      <trkpt lat="36.7494290" lon="-2.9964900">
        <ele>33.8</ele>
        <time>2022-11-01T11:12:10Z</time>
      </trkpt>
      <trkpt lat="36.7494720" lon="-2.9964270">
        <ele>33.8</ele>
        <time>2022-11-01T11:12:11Z</time>
      </trkpt>
      <trkpt lat="36.7495150" lon="-2.9963620">
        <ele>33.8</ele>
        <time>2022-11-01T11:12:12Z</time>
      </trkpt>
      <trkpt lat="36.7495590" lon="-2.9962970">
        <ele>33.8</ele>
        <time>2022-11-01T11:12:13Z</time>
      </trkpt>
      <trkpt lat="36.7496010" lon="-2.9962370">
        <ele>33.8</ele>
        <time>2022-11-01T11:12:14Z</time>
      </trkpt>
      <trkpt lat="36.7496340" lon="-2.9961760">
        <ele>33.8</ele>
        <time>2022-11-01T11:12:15Z</time>
      </trkpt>
      <trkpt lat="36.7496760" lon="-2.9961180">
        <ele>34.0</ele>
        <time>2022-11-01T11:12:16Z</time>
      </trkpt>
      <trkpt lat="36.7497180" lon="-2.9960610">
        <ele>34.0</ele>
        <time>2022-11-01T11:12:17Z</time>
      </trkpt>
      <trkpt lat="36.7497600" lon="-2.9959990">
        <ele>34.0</ele>
        <time>2022-11-01T11:12:18Z</time>
      </trkpt>
      <trkpt lat="36.7498040" lon="-2.9959350">
        <ele>34.0</ele>
        <time>2022-11-01T11:12:19Z</time>
      </trkpt>
      <trkpt lat="36.7498450" lon="-2.9958690">
        <ele>34.0</ele>
        <time>2022-11-01T11:12:20Z</time>
      </trkpt>
      <trkpt lat="36.7498880" lon="-2.9958030">
        <ele>34.0</ele>
        <time>2022-11-01T11:12:21Z</time>
      </trkpt>
      <trkpt lat="36.7499310" lon="-2.9957380">
        <ele>34.0</ele>
        <time>2022-11-01T11:12:22Z</time>
      </trkpt>
      <trkpt lat="36.7499730" lon="-2.9956740">
        <ele>33.8</ele>
        <time>2022-11-01T11:12:23Z</time>
      </trkpt>
      <trkpt lat="36.7500170" lon="-2.9956090">
        <ele>33.8</ele>
        <time>2022-11-01T11:12:24Z</time>
      </trkpt>
      <trkpt lat="36.7500640" lon="-2.9955410">
        <ele>33.6</ele>
        <time>2022-11-01T11:12:25Z</time>
      </trkpt>
      <trkpt lat="36.7501090" lon="-2.9954740">
        <ele>33.6</ele>
        <time>2022-11-01T11:12:26Z</time>
      </trkpt>
      <trkpt lat="36.7501630" lon="-2.9954050">
        <ele>33.6</ele>
        <time>2022-11-01T11:12:27Z</time>
      </trkpt>
      <trkpt lat="36.7502150" lon="-2.9953360">
        <ele>33.6</ele>
        <time>2022-11-01T11:12:28Z</time>
      </trkpt>
      <trkpt lat="36.7502680" lon="-2.9952700">
        <ele>33.4</ele>
        <time>2022-11-01T11:12:29Z</time>
      </trkpt>
      <trkpt lat="36.7503180" lon="-2.9952030">
        <ele>33.4</ele>
        <time>2022-11-01T11:12:30Z</time>
      </trkpt>
      <trkpt lat="36.7503680" lon="-2.9951330">
        <ele>33.4</ele>
        <time>2022-11-01T11:12:31Z</time>
      </trkpt>
      <trkpt lat="36.7504160" lon="-2.9950630">
        <ele>33.4</ele>
        <time>2022-11-01T11:12:32Z</time>
      </trkpt>
      <trkpt lat="36.7504650" lon="-2.9949910">
        <ele>33.2</ele>
        <time>2022-11-01T11:12:33Z</time>
      </trkpt>
      <trkpt lat="36.7505150" lon="-2.9949150">
        <ele>33.2</ele>
        <time>2022-11-01T11:12:34Z</time>
      </trkpt>
      <trkpt lat="36.7505660" lon="-2.9948390">
        <ele>33.0</ele>
        <time>2022-11-01T11:12:35Z</time>
      </trkpt>
      <trkpt lat="36.7506110" lon="-2.9947630">
        <ele>32.8</ele>
        <time>2022-11-01T11:12:36Z</time>
      </trkpt>
      <trkpt lat="36.7506490" lon="-2.9946810">
        <ele>32.8</ele>
        <time>2022-11-01T11:12:37Z</time>
      </trkpt>
      <trkpt lat="36.7506850" lon="-2.9945960">
        <ele>32.6</ele>
        <time>2022-11-01T11:12:38Z</time>
      </trkpt>
      <trkpt lat="36.7507300" lon="-2.9945150">
        <ele>32.4</ele>
        <time>2022-11-01T11:12:39Z</time>
      </trkpt>
      <trkpt lat="36.7507740" lon="-2.9944360">
        <ele>32.4</ele>
        <time>2022-11-01T11:12:40Z</time>
      </trkpt>
      <trkpt lat="36.7508210" lon="-2.9943590">
        <ele>32.2</ele>
        <time>2022-11-01T11:12:41Z</time>
      </trkpt>
      <trkpt lat="36.7508640" lon="-2.9942830">
        <ele>32.0</ele>
        <time>2022-11-01T11:12:42Z</time>
      </trkpt>
      <trkpt lat="36.7509020" lon="-2.9942070">
        <ele>32.0</ele>
        <time>2022-11-01T11:12:43Z</time>
      </trkpt>
      <trkpt lat="36.7509440" lon="-2.9941300">
        <ele>31.6</ele>
        <time>2022-11-01T11:12:44Z</time>
      </trkpt>
      <trkpt lat="36.7509830" lon="-2.9940510">
        <ele>31.6</ele>
        <time>2022-11-01T11:12:45Z</time>
      </trkpt>
      <trkpt lat="36.7510230" lon="-2.9939690">
        <ele>31.4</ele>
        <time>2022-11-01T11:12:46Z</time>
      </trkpt>
      <trkpt lat="36.7510570" lon="-2.9938810">
        <ele>31.0</ele>
        <time>2022-11-01T11:12:47Z</time>
      </trkpt>
      <trkpt lat="36.7510830" lon="-2.9937860">
        <ele>30.8</ele>
        <time>2022-11-01T11:12:48Z</time>
      </trkpt>
      <trkpt lat="36.7511020" lon="-2.9936870">
        <ele>30.6</ele>
        <time>2022-11-01T11:12:49Z</time>
      </trkpt>
      <trkpt lat="36.7511150" lon="-2.9935880">
        <ele>30.4</ele>
        <time>2022-11-01T11:12:50Z</time>
      </trkpt>
      <trkpt lat="36.7511330" lon="-2.9934920">
        <ele>30.2</ele>
        <time>2022-11-01T11:12:51Z</time>
      </trkpt>
      <trkpt lat="36.7511670" lon="-2.9934030">
        <ele>30.0</ele>
        <time>2022-11-01T11:12:52Z</time>
      </trkpt>
      <trkpt lat="36.7512110" lon="-2.9933230">
        <ele>29.8</ele>
        <time>2022-11-01T11:12:53Z</time>
      </trkpt>
      <trkpt lat="36.7512680" lon="-2.9932510">
        <ele>29.6</ele>
        <time>2022-11-01T11:12:54Z</time>
      </trkpt>
      <trkpt lat="36.7513300" lon="-2.9931820">
        <ele>29.4</ele>
        <time>2022-11-01T11:12:55Z</time>
      </trkpt>
      <trkpt lat="36.7513870" lon="-2.9931110">
        <ele>29.2</ele>
        <time>2022-11-01T11:12:56Z</time>
      </trkpt>
      <trkpt lat="36.7514400" lon="-2.9930370">
        <ele>29.0</ele>
        <time>2022-11-01T11:12:57Z</time>
      </trkpt>
      <trkpt lat="36.7514860" lon="-2.9929550">
        <ele>28.6</ele>
        <time>2022-11-01T11:12:58Z</time>
      </trkpt>
      <trkpt lat="36.7515050" lon="-2.9928690">
        <ele>28.6</ele>
        <time>2022-11-01T11:12:59Z</time>
      </trkpt>
      <trkpt lat="36.7515150" lon="-2.9927860">
        <ele>28.4</ele>
        <time>2022-11-01T11:13:00Z</time>
      </trkpt>
      <trkpt lat="36.7515260" lon="-2.9926970">
        <ele>28.2</ele>
        <time>2022-11-01T11:13:01Z</time>
      </trkpt>
      <trkpt lat="36.7515330" lon="-2.9926050">
        <ele>28.2</ele>
        <time>2022-11-01T11:13:02Z</time>
      </trkpt>
      <trkpt lat="36.7515520" lon="-2.9925150">
        <ele>28.0</ele>
        <time>2022-11-01T11:13:03Z</time>
      </trkpt>
      <trkpt lat="36.7515820" lon="-2.9924270">
        <ele>28.0</ele>
        <time>2022-11-01T11:13:04Z</time>
      </trkpt>
      <trkpt lat="36.7516100" lon="-2.9923480">
        <ele>27.8</ele>
        <time>2022-11-01T11:13:05Z</time>
      </trkpt>
      <trkpt lat="36.7516380" lon="-2.9922710">
        <ele>27.8</ele>
        <time>2022-11-01T11:13:06Z</time>
      </trkpt>
      <trkpt lat="36.7516630" lon="-2.9921880">
        <ele>27.8</ele>
        <time>2022-11-01T11:13:07Z</time>
      </trkpt>
      <trkpt lat="36.7516900" lon="-2.9920980">
        <ele>27.6</ele>
        <time>2022-11-01T11:13:08Z</time>
      </trkpt>
      <trkpt lat="36.7517190" lon="-2.9920150">
        <ele>27.6</ele>
        <time>2022-11-01T11:13:09Z</time>
      </trkpt>
      <trkpt lat="36.7517600" lon="-2.9919320">
        <ele>27.8</ele>
        <time>2022-11-01T11:13:10Z</time>
      </trkpt>
      <trkpt lat="36.7517850" lon="-2.9918580">
        <ele>27.6</ele>
        <time>2022-11-01T11:13:11Z</time>
      </trkpt>
      <trkpt lat="36.7518100" lon="-2.9917770">
        <ele>27.6</ele>
        <time>2022-11-01T11:13:12Z</time>
      </trkpt>
      <trkpt lat="36.7518160" lon="-2.9917030">
        <ele>27.6</ele>
        <time>2022-11-01T11:13:13Z</time>
      </trkpt>
      <trkpt lat="36.7518290" lon="-2.9916180">
        <ele>27.6</ele>
        <time>2022-11-01T11:13:14Z</time>
      </trkpt>
      <trkpt lat="36.7518540" lon="-2.9915310">
        <ele>27.6</ele>
        <time>2022-11-01T11:13:15Z</time>
      </trkpt>
      <trkpt lat="36.7518910" lon="-2.9914370">
        <ele>27.6</ele>
        <time>2022-11-01T11:13:16Z</time>
      </trkpt>
      <trkpt lat="36.7519090" lon="-2.9913450">
        <ele>27.6</ele>
        <time>2022-11-01T11:13:17Z</time>
      </trkpt>
      <trkpt lat="36.7519340" lon="-2.9912560">
        <ele>27.4</ele>
        <time>2022-11-01T11:13:18Z</time>
      </trkpt>
      <trkpt lat="36.7519650" lon="-2.9911670">
        <ele>27.4</ele>
        <time>2022-11-01T11:13:19Z</time>
      </trkpt>
      <trkpt lat="36.7519960" lon="-2.9910800">
        <ele>27.4</ele>
        <time>2022-11-01T11:13:20Z</time>
      </trkpt>
      <trkpt lat="36.7520350" lon="-2.9909880">
        <ele>27.6</ele>
        <time>2022-11-01T11:13:21Z</time>
      </trkpt>
      <trkpt lat="36.7520600" lon="-2.9908990">
        <ele>27.4</ele>
        <time>2022-11-01T11:13:22Z</time>
      </trkpt>
      <trkpt lat="36.7520850" lon="-2.9908060">
        <ele>27.4</ele>
        <time>2022-11-01T11:13:23Z</time>
      </trkpt>
      <trkpt lat="36.7521120" lon="-2.9907150">
        <ele>27.2</ele>
        <time>2022-11-01T11:13:24Z</time>
      </trkpt>
      <trkpt lat="36.7521320" lon="-2.9906340">
        <ele>27.2</ele>
        <time>2022-11-01T11:13:25Z</time>
      </trkpt>
      <trkpt lat="36.7521560" lon="-2.9905490">
        <ele>27.2</ele>
        <time>2022-11-01T11:13:26Z</time>
      </trkpt>
      <trkpt lat="36.7521820" lon="-2.9904610">
        <ele>27.2</ele>
        <time>2022-11-01T11:13:27Z</time>
      </trkpt>
      <trkpt lat="36.7522050" lon="-2.9903750">
        <ele>27.2</ele>
        <time>2022-11-01T11:13:28Z</time>
      </trkpt>
      <trkpt lat="36.7522340" lon="-2.9902870">
        <ele>27.2</ele>
        <time>2022-11-01T11:13:29Z</time>
      </trkpt>
      <trkpt lat="36.7522580" lon="-2.9902030">
        <ele>27.2</ele>
        <time>2022-11-01T11:13:30Z</time>
      </trkpt>
      <trkpt lat="36.7522840" lon="-2.9901220">
        <ele>27.2</ele>
        <time>2022-11-01T11:13:31Z</time>
      </trkpt>
      <trkpt lat="36.7523170" lon="-2.9900480">
        <ele>27.0</ele>
        <time>2022-11-01T11:13:32Z</time>
      </trkpt>
      <trkpt lat="36.7523420" lon="-2.9899820">
        <ele>27.0</ele>
        <time>2022-11-01T11:13:33Z</time>
      </trkpt>
      <trkpt lat="36.7523870" lon="-2.9899080">
        <ele>27.0</ele>
        <time>2022-11-01T11:13:34Z</time>
      </trkpt>
      <trkpt lat="36.7524100" lon="-2.9898320">
        <ele>27.0</ele>
        <time>2022-11-01T11:13:35Z</time>
      </trkpt>
      <trkpt lat="36.7524380" lon="-2.9897690">
        <ele>26.8</ele>
        <time>2022-11-01T11:13:36Z</time>
      </trkpt>
      <trkpt lat="36.7524620" lon="-2.9896980">
        <ele>26.8</ele>
        <time>2022-11-01T11:13:37Z</time>
      </trkpt>
      <trkpt lat="36.7524980" lon="-2.9896290">
        <ele>26.6</ele>
        <time>2022-11-01T11:13:38Z</time>
      </trkpt>
      <trkpt lat="36.7525180" lon="-2.9895700">
        <ele>26.4</ele>
        <time>2022-11-01T11:13:39Z</time>
      </trkpt>
      <trkpt lat="36.7525430" lon="-2.9895160">
        <ele>26.2</ele>
        <time>2022-11-01T11:13:40Z</time>
      </trkpt>
      <trkpt lat="36.7525740" lon="-2.9894500">
        <ele>26.2</ele>
        <time>2022-11-01T11:13:41Z</time>
      </trkpt>
      <trkpt lat="36.7526030" lon="-2.9893790">
        <ele>26.2</ele>
        <time>2022-11-01T11:13:42Z</time>
      </trkpt>
      <trkpt lat="36.7526280" lon="-2.9893120">
        <ele>26.0</ele>
        <time>2022-11-01T11:13:43Z</time>
      </trkpt>
      <trkpt lat="36.7526610" lon="-2.9892400">
        <ele>26.0</ele>
        <time>2022-11-01T11:13:44Z</time>
      </trkpt>
      <trkpt lat="36.7526950" lon="-2.9891550">
        <ele>26.0</ele>
        <time>2022-11-01T11:13:45Z</time>
      </trkpt>
      <trkpt lat="36.7527340" lon="-2.9890760">
        <ele>25.8</ele>
        <time>2022-11-01T11:13:46Z</time>
      </trkpt>
      <trkpt lat="36.7527650" lon="-2.9889970">
        <ele>25.8</ele>
        <time>2022-11-01T11:13:47Z</time>
      </trkpt>
      <trkpt lat="36.7528000" lon="-2.9889180">
        <ele>25.8</ele>
        <time>2022-11-01T11:13:48Z</time>
      </trkpt>
      <trkpt lat="36.7528280" lon="-2.9888390">
        <ele>25.8</ele>
        <time>2022-11-01T11:13:49Z</time>
      </trkpt>
      <trkpt lat="36.7528690" lon="-2.9887580">
        <ele>25.8</ele>
        <time>2022-11-01T11:13:50Z</time>
      </trkpt>
      <trkpt lat="36.7529060" lon="-2.9886760">
        <ele>25.8</ele>
        <time>2022-11-01T11:13:51Z</time>
      </trkpt>
      <trkpt lat="36.7529420" lon="-2.9885950">
        <ele>26.0</ele>
        <time>2022-11-01T11:13:52Z</time>
      </trkpt>
      <trkpt lat="36.7529820" lon="-2.9885160">
        <ele>26.0</ele>
        <time>2022-11-01T11:13:53Z</time>
      </trkpt>
      <trkpt lat="36.7530200" lon="-2.9884490">
        <ele>26.2</ele>
        <time>2022-11-01T11:13:54Z</time>
      </trkpt>
      <trkpt lat="36.7530680" lon="-2.9883790">
        <ele>26.2</ele>
        <time>2022-11-01T11:13:55Z</time>
      </trkpt>
      <trkpt lat="36.7531130" lon="-2.9883130">
        <ele>26.4</ele>
        <time>2022-11-01T11:13:56Z</time>
      </trkpt>
      <trkpt lat="36.7531570" lon="-2.9882490">
        <ele>26.6</ele>
        <time>2022-11-01T11:13:57Z</time>
      </trkpt>
      <trkpt lat="36.7532000" lon="-2.9881890">
        <ele>26.8</ele>
        <time>2022-11-01T11:13:58Z</time>
      </trkpt>
      <trkpt lat="36.7532400" lon="-2.9881290">
        <ele>26.8</ele>
        <time>2022-11-01T11:13:59Z</time>
      </trkpt>
      <trkpt lat="36.7532760" lon="-2.9880620">
        <ele>27.0</ele>
        <time>2022-11-01T11:14:00Z</time>
      </trkpt>
      <trkpt lat="36.7533040" lon="-2.9879930">
        <ele>27.2</ele>
        <time>2022-11-01T11:14:01Z</time>
      </trkpt>
      <trkpt lat="36.7533350" lon="-2.9879240">
        <ele>27.2</ele>
        <time>2022-11-01T11:14:02Z</time>
      </trkpt>
      <trkpt lat="36.7533700" lon="-2.9878610">
        <ele>27.4</ele>
        <time>2022-11-01T11:14:03Z</time>
      </trkpt>
      <trkpt lat="36.7534160" lon="-2.9878070">
        <ele>27.4</ele>
        <time>2022-11-01T11:14:04Z</time>
      </trkpt>
      <trkpt lat="36.7534730" lon="-2.9877700">
        <ele>27.6</ele>
        <time>2022-11-01T11:14:05Z</time>
      </trkpt>
      <trkpt lat="36.7535300" lon="-2.9877520">
        <ele>27.8</ele>
        <time>2022-11-01T11:14:06Z</time>
      </trkpt>
      <trkpt lat="36.7535870" lon="-2.9877460">
        <ele>28.0</ele>
        <time>2022-11-01T11:14:07Z</time>
      </trkpt>
      <trkpt lat="36.7536480" lon="-2.9877470">
        <ele>28.2</ele>
        <time>2022-11-01T11:14:08Z</time>
      </trkpt>
      <trkpt lat="36.7537020" lon="-2.9877500">
        <ele>28.6</ele>
        <time>2022-11-01T11:14:09Z</time>
      </trkpt>
      <trkpt lat="36.7537530" lon="-2.9877520">
        <ele>28.8</ele>
        <time>2022-11-01T11:14:10Z</time>
      </trkpt>
      <trkpt lat="36.7538030" lon="-2.9877530">
        <ele>29.2</ele>
        <time>2022-11-01T11:14:11Z</time>
      </trkpt>
      <trkpt lat="36.7538510" lon="-2.9877520">
        <ele>29.4</ele>
        <time>2022-11-01T11:14:12Z</time>
      </trkpt>
      <trkpt lat="36.7539020" lon="-2.9877490">
        <ele>29.6</ele>
        <time>2022-11-01T11:14:13Z</time>
      </trkpt>
      <trkpt lat="36.7539510" lon="-2.9877450">
        <ele>29.8</ele>
        <time>2022-11-01T11:14:14Z</time>
      </trkpt>
      <trkpt lat="36.7540020" lon="-2.9877380">
        <ele>30.0</ele>
        <time>2022-11-01T11:14:15Z</time>
      </trkpt>
      <trkpt lat="36.7540510" lon="-2.9877330">
        <ele>30.4</ele>
        <time>2022-11-01T11:14:16Z</time>
      </trkpt>
      <trkpt lat="36.7540990" lon="-2.9877260">
        <ele>30.6</ele>
        <time>2022-11-01T11:14:17Z</time>
      </trkpt>
      <trkpt lat="36.7541450" lon="-2.9877190">
        <ele>30.8</ele>
        <time>2022-11-01T11:14:18Z</time>
      </trkpt>
      <trkpt lat="36.7541910" lon="-2.9877130">
        <ele>31.0</ele>
        <time>2022-11-01T11:14:19Z</time>
      </trkpt>
      <trkpt lat="36.7542340" lon="-2.9877080">
        <ele>31.4</ele>
        <time>2022-11-01T11:14:20Z</time>
      </trkpt>
      <trkpt lat="36.7542720" lon="-2.9877040">
        <ele>31.6</ele>
        <time>2022-11-01T11:14:21Z</time>
      </trkpt>
      <trkpt lat="36.7543120" lon="-2.9876980">
        <ele>32.0</ele>
        <time>2022-11-01T11:14:22Z</time>
      </trkpt>
      <trkpt lat="36.7543560" lon="-2.9876890">
        <ele>32.2</ele>
        <time>2022-11-01T11:14:23Z</time>
      </trkpt>
      <trkpt lat="36.7543990" lon="-2.9876800">
        <ele>32.6</ele>
        <time>2022-11-01T11:14:24Z</time>
      </trkpt>
      <trkpt lat="36.7544360" lon="-2.9876770">
        <ele>32.8</ele>
        <time>2022-11-01T11:14:25Z</time>
      </trkpt>
      <trkpt lat="36.7544800" lon="-2.9876730">
        <ele>33.0</ele>
        <time>2022-11-01T11:14:26Z</time>
      </trkpt>
      <trkpt lat="36.7545250" lon="-2.9876690">
        <ele>33.4</ele>
        <time>2022-11-01T11:14:27Z</time>
      </trkpt>
      <trkpt lat="36.7545680" lon="-2.9876640">
        <ele>33.6</ele>
        <time>2022-11-01T11:14:28Z</time>
      </trkpt>
      <trkpt lat="36.7546090" lon="-2.9876560">
        <ele>34.0</ele>
        <time>2022-11-01T11:14:29Z</time>
      </trkpt>
      <trkpt lat="36.7546490" lon="-2.9876480">
        <ele>34.2</ele>
        <time>2022-11-01T11:14:30Z</time>
      </trkpt>
      <trkpt lat="36.7546910" lon="-2.9876390">
        <ele>34.4</ele>
        <time>2022-11-01T11:14:31Z</time>
      </trkpt>
      <trkpt lat="36.7547310" lon="-2.9876320">
        <ele>34.6</ele>
        <time>2022-11-01T11:14:32Z</time>
      </trkpt>
      <trkpt lat="36.7547710" lon="-2.9876260">
        <ele>35.0</ele>
        <time>2022-11-01T11:14:33Z</time>
      </trkpt>
      <trkpt lat="36.7548110" lon="-2.9876210">
        <ele>35.2</ele>
        <time>2022-11-01T11:14:34Z</time>
      </trkpt>
      <trkpt lat="36.7548500" lon="-2.9876160">
        <ele>35.4</ele>
        <time>2022-11-01T11:14:35Z</time>
      </trkpt>
      <trkpt lat="36.7548890" lon="-2.9876090">
        <ele>35.6</ele>
        <time>2022-11-01T11:14:36Z</time>
      </trkpt>
      <trkpt lat="36.7549260" lon="-2.9876020">
        <ele>35.8</ele>
        <time>2022-11-01T11:14:37Z</time>
      </trkpt>
      <trkpt lat="36.7549660" lon="-2.9875960">
        <ele>36.2</ele>
        <time>2022-11-01T11:14:38Z</time>
      </trkpt>
      <trkpt lat="36.7550060" lon="-2.9875900">
        <ele>36.4</ele>
        <time>2022-11-01T11:14:39Z</time>
      </trkpt>
      <trkpt lat="36.7550440" lon="-2.9875850">
        <ele>36.6</ele>
        <time>2022-11-01T11:14:40Z</time>
      </trkpt>
      <trkpt lat="36.7550820" lon="-2.9875810">
        <ele>36.8</ele>
        <time>2022-11-01T11:14:41Z</time>
      </trkpt>
      <trkpt lat="36.7551200" lon="-2.9875730">
        <ele>37.0</ele>
        <time>2022-11-01T11:14:42Z</time>
      </trkpt>
      <trkpt lat="36.7551570" lon="-2.9875660">
        <ele>37.2</ele>
        <time>2022-11-01T11:14:43Z</time>
      </trkpt>
      <trkpt lat="36.7551940" lon="-2.9875580">
        <ele>37.6</ele>
        <time>2022-11-01T11:14:44Z</time>
      </trkpt>
      <trkpt lat="36.7552330" lon="-2.9875520">
        <ele>37.8</ele>
        <time>2022-11-01T11:14:45Z</time>
      </trkpt>
      <trkpt lat="36.7552700" lon="-2.9875470">
        <ele>38.0</ele>
        <time>2022-11-01T11:14:46Z</time>
      </trkpt>
      <trkpt lat="36.7553100" lon="-2.9875410">
        <ele>38.2</ele>
        <time>2022-11-01T11:14:47Z</time>
      </trkpt>
      <trkpt lat="36.7553500" lon="-2.9875340">
        <ele>38.4</ele>
        <time>2022-11-01T11:14:48Z</time>
      </trkpt>
      <trkpt lat="36.7553890" lon="-2.9875280">
        <ele>38.6</ele>
        <time>2022-11-01T11:14:49Z</time>
      </trkpt>
      <trkpt lat="36.7554230" lon="-2.9875210">
        <ele>38.8</ele>
        <time>2022-11-01T11:14:50Z</time>
      </trkpt>
      <trkpt lat="36.7554590" lon="-2.9875140">
        <ele>39.2</ele>
        <time>2022-11-01T11:14:51Z</time>
      </trkpt>
      <trkpt lat="36.7554960" lon="-2.9875090">
        <ele>39.2</ele>
        <time>2022-11-01T11:14:52Z</time>
      </trkpt>
      <trkpt lat="36.7555310" lon="-2.9875020">
        <ele>39.4</ele>
        <time>2022-11-01T11:14:53Z</time>
      </trkpt>
      <trkpt lat="36.7555680" lon="-2.9874950">
        <ele>39.8</ele>
        <time>2022-11-01T11:14:54Z</time>
      </trkpt>
      <trkpt lat="36.7556090" lon="-2.9874890">
        <ele>39.8</ele>
        <time>2022-11-01T11:14:55Z</time>
      </trkpt>
      <trkpt lat="36.7556510" lon="-2.9874810">
        <ele>40.0</ele>
        <time>2022-11-01T11:14:56Z</time>
      </trkpt>
      <trkpt lat="36.7556960" lon="-2.9874740">
        <ele>40.4</ele>
        <time>2022-11-01T11:14:57Z</time>
      </trkpt>
      <trkpt lat="36.7557400" lon="-2.9874690">
        <ele>40.6</ele>
        <time>2022-11-01T11:14:58Z</time>
      </trkpt>
      <trkpt lat="36.7557830" lon="-2.9874620">
        <ele>40.8</ele>
        <time>2022-11-01T11:14:59Z</time>
      </trkpt>
      <trkpt lat="36.7558270" lon="-2.9874540">
        <ele>41.0</ele>
        <time>2022-11-01T11:15:00Z</time>
      </trkpt>
      <trkpt lat="36.7558720" lon="-2.9874470">
        <ele>41.2</ele>
        <time>2022-11-01T11:15:01Z</time>
      </trkpt>
      <trkpt lat="36.7559140" lon="-2.9874390">
        <ele>41.4</ele>
        <time>2022-11-01T11:15:02Z</time>
      </trkpt>
      <trkpt lat="36.7559570" lon="-2.9874330">
        <ele>41.6</ele>
        <time>2022-11-01T11:15:03Z</time>
      </trkpt>
      <trkpt lat="36.7559990" lon="-2.9874290">
        <ele>41.8</ele>
        <time>2022-11-01T11:15:04Z</time>
      </trkpt>
      <trkpt lat="36.7560420" lon="-2.9874250">
        <ele>42.0</ele>
        <time>2022-11-01T11:15:05Z</time>
      </trkpt>
      <trkpt lat="36.7560850" lon="-2.9874190">
        <ele>42.2</ele>
        <time>2022-11-01T11:15:06Z</time>
      </trkpt>
      <trkpt lat="36.7561220" lon="-2.9874120">
        <ele>42.4</ele>
        <time>2022-11-01T11:15:07Z</time>
      </trkpt>
      <trkpt lat="36.7561500" lon="-2.9874010">
        <ele>42.6</ele>
        <time>2022-11-01T11:15:08Z</time>
      </trkpt>
      <trkpt lat="36.7561870" lon="-2.9873940">
        <ele>42.8</ele>
        <time>2022-11-01T11:15:09Z</time>
      </trkpt>
      <trkpt lat="36.7562290" lon="-2.9873890">
        <ele>43.0</ele>
        <time>2022-11-01T11:15:10Z</time>
      </trkpt>
      <trkpt lat="36.7562670" lon="-2.9873820">
        <ele>43.2</ele>
        <time>2022-11-01T11:15:11Z</time>
      </trkpt>
      <trkpt lat="36.7563070" lon="-2.9873750">
        <ele>43.4</ele>
        <time>2022-11-01T11:15:12Z</time>
      </trkpt>
      <trkpt lat="36.7563470" lon="-2.9873680">
        <ele>43.6</ele>
        <time>2022-11-01T11:15:13Z</time>
      </trkpt>
      <trkpt lat="36.7563850" lon="-2.9873610">
        <ele>43.8</ele>
        <time>2022-11-01T11:15:14Z</time>
      </trkpt>
      <trkpt lat="36.7564250" lon="-2.9873550">
        <ele>44.0</ele>
        <time>2022-11-01T11:15:15Z</time>
      </trkpt>
      <trkpt lat="36.7564640" lon="-2.9873470">
        <ele>44.2</ele>
        <time>2022-11-01T11:15:16Z</time>
      </trkpt>
      <trkpt lat="36.7565040" lon="-2.9873390">
        <ele>44.4</ele>
        <time>2022-11-01T11:15:17Z</time>
      </trkpt>
      <trkpt lat="36.7565480" lon="-2.9873340">
        <ele>44.6</ele>
        <time>2022-11-01T11:15:18Z</time>
      </trkpt>
      <trkpt lat="36.7565900" lon="-2.9873280">
        <ele>44.8</ele>
        <time>2022-11-01T11:15:19Z</time>
      </trkpt>
      <trkpt lat="36.7566290" lon="-2.9873190">
        <ele>45.0</ele>
        <time>2022-11-01T11:15:20Z</time>
      </trkpt>
      <trkpt lat="36.7566680" lon="-2.9873110">
        <ele>45.4</ele>
        <time>2022-11-01T11:15:21Z</time>
      </trkpt>
      <trkpt lat="36.7567090" lon="-2.9873040">
        <ele>45.6</ele>
        <time>2022-11-01T11:15:22Z</time>
      </trkpt>
      <trkpt lat="36.7567480" lon="-2.9872990">
        <ele>45.8</ele>
        <time>2022-11-01T11:15:23Z</time>
      </trkpt>
      <trkpt lat="36.7567910" lon="-2.9872970">
        <ele>46.0</ele>
        <time>2022-11-01T11:15:24Z</time>
      </trkpt>
      <trkpt lat="36.7568360" lon="-2.9872910">
        <ele>46.2</ele>
        <time>2022-11-01T11:15:25Z</time>
      </trkpt>
      <trkpt lat="36.7568780" lon="-2.9872840">
        <ele>46.4</ele>
        <time>2022-11-01T11:15:26Z</time>
      </trkpt>
      <trkpt lat="36.7569200" lon="-2.9872780">
        <ele>46.6</ele>
        <time>2022-11-01T11:15:27Z</time>
      </trkpt>
      <trkpt lat="36.7569600" lon="-2.9872720">
        <ele>46.6</ele>
        <time>2022-11-01T11:15:28Z</time>
      </trkpt>
      <trkpt lat="36.7570000" lon="-2.9872650">
        <ele>46.8</ele>
        <time>2022-11-01T11:15:29Z</time>
      </trkpt>
      <trkpt lat="36.7570420" lon="-2.9872580">
        <ele>47.2</ele>
        <time>2022-11-01T11:15:30Z</time>
      </trkpt>
      <trkpt lat="36.7570880" lon="-2.9872500">
        <ele>47.4</ele>
        <time>2022-11-01T11:15:31Z</time>
      </trkpt>
      <trkpt lat="36.7571300" lon="-2.9872440">
        <ele>47.6</ele>
        <time>2022-11-01T11:15:32Z</time>
      </trkpt>
      <trkpt lat="36.7571720" lon="-2.9872380">
        <ele>47.6</ele>
        <time>2022-11-01T11:15:33Z</time>
      </trkpt>
      <trkpt lat="36.7572170" lon="-2.9872320">
        <ele>48.0</ele>
        <time>2022-11-01T11:15:34Z</time>
      </trkpt>
      <trkpt lat="36.7572580" lon="-2.9872260">
        <ele>48.0</ele>
        <time>2022-11-01T11:15:35Z</time>
      </trkpt>
      <trkpt lat="36.7573000" lon="-2.9872230">
        <ele>48.2</ele>
        <time>2022-11-01T11:15:36Z</time>
      </trkpt>
      <trkpt lat="36.7573410" lon="-2.9872250">
        <ele>48.4</ele>
        <time>2022-11-01T11:15:37Z</time>
      </trkpt>
      <trkpt lat="36.7573820" lon="-2.9872230">
        <ele>48.6</ele>
        <time>2022-11-01T11:15:38Z</time>
      </trkpt>
      <trkpt lat="36.7574260" lon="-2.9872210">
        <ele>48.8</ele>
        <time>2022-11-01T11:15:39Z</time>
      </trkpt>
      <trkpt lat="36.7574730" lon="-2.9872160">
        <ele>49.0</ele>
        <time>2022-11-01T11:15:40Z</time>
      </trkpt>
      <trkpt lat="36.7575210" lon="-2.9872060">
        <ele>49.2</ele>
        <time>2022-11-01T11:15:41Z</time>
      </trkpt>
      <trkpt lat="36.7575720" lon="-2.9871900">
        <ele>49.4</ele>
        <time>2022-11-01T11:15:42Z</time>
      </trkpt>
      <trkpt lat="36.7576250" lon="-2.9871660">
        <ele>49.4</ele>
        <time>2022-11-01T11:15:43Z</time>
      </trkpt>
      <trkpt lat="36.7576760" lon="-2.9871330">
        <ele>49.4</ele>
        <time>2022-11-01T11:15:44Z</time>
      </trkpt>
      <trkpt lat="36.7577260" lon="-2.9870960">
        <ele>49.6</ele>
        <time>2022-11-01T11:15:45Z</time>
      </trkpt>
      <trkpt lat="36.7577760" lon="-2.9870600">
        <ele>49.6</ele>
        <time>2022-11-01T11:15:46Z</time>
      </trkpt>
      <trkpt lat="36.7578250" lon="-2.9870240">
        <ele>49.6</ele>
        <time>2022-11-01T11:15:47Z</time>
      </trkpt>
      <trkpt lat="36.7578710" lon="-2.9869860">
        <ele>49.8</ele>
        <time>2022-11-01T11:15:48Z</time>
      </trkpt>
      <trkpt lat="36.7579160" lon="-2.9869430">
        <ele>50.0</ele>
        <time>2022-11-01T11:15:49Z</time>
      </trkpt>
      <trkpt lat="36.7579550" lon="-2.9868980">
        <ele>50.0</ele>
        <time>2022-11-01T11:15:50Z</time>
      </trkpt>
      <trkpt lat="36.7579950" lon="-2.9868490">
        <ele>50.0</ele>
        <time>2022-11-01T11:15:51Z</time>
      </trkpt>
      <trkpt lat="36.7580350" lon="-2.9867940">
        <ele>50.0</ele>
        <time>2022-11-01T11:15:52Z</time>
      </trkpt>
      <trkpt lat="36.7580730" lon="-2.9867340">
        <ele>50.0</ele>
        <time>2022-11-01T11:15:53Z</time>
      </trkpt>
      <trkpt lat="36.7581120" lon="-2.9866730">
        <ele>50.0</ele>
        <time>2022-11-01T11:15:54Z</time>
      </trkpt>
      <trkpt lat="36.7581520" lon="-2.9866120">
        <ele>50.0</ele>
        <time>2022-11-01T11:15:55Z</time>
      </trkpt>
      <trkpt lat="36.7581910" lon="-2.9865510">
        <ele>50.0</ele>
        <time>2022-11-01T11:15:56Z</time>
      </trkpt>
      <trkpt lat="36.7582300" lon="-2.9864920">
        <ele>50.0</ele>
        <time>2022-11-01T11:15:57Z</time>
      </trkpt>
      <trkpt lat="36.7582690" lon="-2.9864320">
        <ele>50.0</ele>
        <time>2022-11-01T11:15:58Z</time>
      </trkpt>
      <trkpt lat="36.7583060" lon="-2.9863720">
        <ele>50.0</ele>
        <time>2022-11-01T11:15:59Z</time>
      </trkpt>
      <trkpt lat="36.7583420" lon="-2.9863140">
        <ele>50.0</ele>
        <time>2022-11-01T11:16:00Z</time>
      </trkpt>
      <trkpt lat="36.7583760" lon="-2.9862610">
        <ele>50.0</ele>
        <time>2022-11-01T11:16:01Z</time>
      </trkpt>
      <trkpt lat="36.7584070" lon="-2.9862080">
        <ele>50.2</ele>
        <time>2022-11-01T11:16:02Z</time>
      </trkpt>
      <trkpt lat="36.7584400" lon="-2.9861580">
        <ele>50.2</ele>
        <time>2022-11-01T11:16:03Z</time>
      </trkpt>
      <trkpt lat="36.7584710" lon="-2.9861070">
        <ele>50.2</ele>
        <time>2022-11-01T11:16:04Z</time>
      </trkpt>
      <trkpt lat="36.7585010" lon="-2.9860550">
        <ele>50.2</ele>
        <time>2022-11-01T11:16:05Z</time>
      </trkpt>
      <trkpt lat="36.7585290" lon="-2.9860020">
        <ele>50.2</ele>
        <time>2022-11-01T11:16:06Z</time>
      </trkpt>
      <trkpt lat="36.7585590" lon="-2.9859480">
        <ele>50.2</ele>
        <time>2022-11-01T11:16:07Z</time>
      </trkpt>
      <trkpt lat="36.7585840" lon="-2.9858960">
        <ele>50.2</ele>
        <time>2022-11-01T11:16:08Z</time>
      </trkpt>
      <trkpt lat="36.7586120" lon="-2.9858390">
        <ele>50.2</ele>
        <time>2022-11-01T11:16:09Z</time>
      </trkpt>
      <trkpt lat="36.7586380" lon="-2.9857780">
        <ele>50.2</ele>
        <time>2022-11-01T11:16:10Z</time>
      </trkpt>
      <trkpt lat="36.7586620" lon="-2.9857160">
        <ele>50.0</ele>
        <time>2022-11-01T11:16:11Z</time>
      </trkpt>
      <trkpt lat="36.7586850" lon="-2.9856490">
        <ele>50.0</ele>
        <time>2022-11-01T11:16:12Z</time>
      </trkpt>
      <trkpt lat="36.7587050" lon="-2.9855830">
        <ele>49.8</ele>
        <time>2022-11-01T11:16:13Z</time>
      </trkpt>
      <trkpt lat="36.7587310" lon="-2.9855130">
        <ele>49.6</ele>
        <time>2022-11-01T11:16:14Z</time>
      </trkpt>
      <trkpt lat="36.7587520" lon="-2.9854430">
        <ele>49.4</ele>
        <time>2022-11-01T11:16:15Z</time>
      </trkpt>
      <trkpt lat="36.7587640" lon="-2.9853720">
        <ele>49.4</ele>
        <time>2022-11-01T11:16:16Z</time>
      </trkpt>
      <trkpt lat="36.7587820" lon="-2.9853000">
        <ele>49.2</ele>
        <time>2022-11-01T11:16:17Z</time>
      </trkpt>
      <trkpt lat="36.7588020" lon="-2.9852330">
        <ele>49.0</ele>
        <time>2022-11-01T11:16:18Z</time>
      </trkpt>
      <trkpt lat="36.7588300" lon="-2.9851620">
        <ele>48.8</ele>
        <time>2022-11-01T11:16:19Z</time>
      </trkpt>
      <trkpt lat="36.7588650" lon="-2.9850880">
        <ele>48.6</ele>
        <time>2022-11-01T11:16:20Z</time>
      </trkpt>
      <trkpt lat="36.7589040" lon="-2.9850200">
        <ele>48.4</ele>
        <time>2022-11-01T11:16:21Z</time>
      </trkpt>
      <trkpt lat="36.7589380" lon="-2.9849520">
        <ele>48.2</ele>
        <time>2022-11-01T11:16:22Z</time>
      </trkpt>
      <trkpt lat="36.7589810" lon="-2.9848770">
        <ele>48.0</ele>
        <time>2022-11-01T11:16:23Z</time>
      </trkpt>
      <trkpt lat="36.7590220" lon="-2.9848000">
        <ele>47.6</ele>
        <time>2022-11-01T11:16:24Z</time>
      </trkpt>
      <trkpt lat="36.7590670" lon="-2.9847220">
        <ele>47.4</ele>
        <time>2022-11-01T11:16:25Z</time>
      </trkpt>
      <trkpt lat="36.7591090" lon="-2.9846430">
        <ele>47.0</ele>
        <time>2022-11-01T11:16:26Z</time>
      </trkpt>
      <trkpt lat="36.7591560" lon="-2.9845620">
        <ele>46.8</ele>
        <time>2022-11-01T11:16:27Z</time>
      </trkpt>
      <trkpt lat="36.7592040" lon="-2.9844810">
        <ele>46.6</ele>
        <time>2022-11-01T11:16:28Z</time>
      </trkpt>
      <trkpt lat="36.7592520" lon="-2.9843980">
        <ele>46.2</ele>
        <time>2022-11-01T11:16:29Z</time>
      </trkpt>
      <trkpt lat="36.7593000" lon="-2.9843170">
        <ele>46.0</ele>
        <time>2022-11-01T11:16:30Z</time>
      </trkpt>
      <trkpt lat="36.7593490" lon="-2.9842330">
        <ele>45.6</ele>
        <time>2022-11-01T11:16:31Z</time>
      </trkpt>
      <trkpt lat="36.7593970" lon="-2.9841510">
        <ele>45.4</ele>
        <time>2022-11-01T11:16:32Z</time>
      </trkpt>
      <trkpt lat="36.7594450" lon="-2.9840690">
        <ele>45.2</ele>
        <time>2022-11-01T11:16:33Z</time>
      </trkpt>
      <trkpt lat="36.7594890" lon="-2.9839870">
        <ele>45.0</ele>
        <time>2022-11-01T11:16:34Z</time>
      </trkpt>
      <trkpt lat="36.7595340" lon="-2.9839030">
        <ele>44.6</ele>
        <time>2022-11-01T11:16:35Z</time>
      </trkpt>
      <trkpt lat="36.7595800" lon="-2.9838180">
        <ele>44.4</ele>
        <time>2022-11-01T11:16:36Z</time>
      </trkpt>
      <trkpt lat="36.7596230" lon="-2.9837300">
        <ele>44.2</ele>
        <time>2022-11-01T11:16:37Z</time>
      </trkpt>
      <trkpt lat="36.7596620" lon="-2.9836390">
        <ele>44.2</ele>
        <time>2022-11-01T11:16:38Z</time>
      </trkpt>
      <trkpt lat="36.7596960" lon="-2.9835440">
        <ele>43.8</ele>
        <time>2022-11-01T11:16:39Z</time>
      </trkpt>
      <trkpt lat="36.7597280" lon="-2.9834480">
        <ele>43.6</ele>
        <time>2022-11-01T11:16:40Z</time>
      </trkpt>
      <trkpt lat="36.7597480" lon="-2.9833510">
        <ele>43.2</ele>
        <time>2022-11-01T11:16:41Z</time>
      </trkpt>
      <trkpt lat="36.7597460" lon="-2.9832530">
        <ele>43.0</ele>
        <time>2022-11-01T11:16:42Z</time>
      </trkpt>
      <trkpt lat="36.7597270" lon="-2.9831570">
        <ele>42.6</ele>
        <time>2022-11-01T11:16:43Z</time>
      </trkpt>
      <trkpt lat="36.7597010" lon="-2.9830640">
        <ele>42.4</ele>
        <time>2022-11-01T11:16:44Z</time>
      </trkpt>
      <trkpt lat="36.7596780" lon="-2.9829700">
        <ele>42.2</ele>
        <time>2022-11-01T11:16:45Z</time>
      </trkpt>
      <trkpt lat="36.7596600" lon="-2.9828730">
        <ele>42.0</ele>
        <time>2022-11-01T11:16:46Z</time>
      </trkpt>
      <trkpt lat="36.7596500" lon="-2.9827730">
        <ele>41.8</ele>
        <time>2022-11-01T11:16:47Z</time>
      </trkpt>
      <trkpt lat="36.7596500" lon="-2.9826720">
        <ele>41.6</ele>
        <time>2022-11-01T11:16:48Z</time>
      </trkpt>
      <trkpt lat="36.7596480" lon="-2.9825680">
        <ele>41.6</ele>
        <time>2022-11-01T11:16:49Z</time>
      </trkpt>
      <trkpt lat="36.7596330" lon="-2.9824660">
        <ele>41.4</ele>
        <time>2022-11-01T11:16:50Z</time>
      </trkpt>
      <trkpt lat="36.7596010" lon="-2.9823680">
        <ele>41.4</ele>
        <time>2022-11-01T11:16:51Z</time>
      </trkpt>
      <trkpt lat="36.7595580" lon="-2.9822760">
        <ele>41.4</ele>
        <time>2022-11-01T11:16:52Z</time>
      </trkpt>
      <trkpt lat="36.7595100" lon="-2.9821950">
        <ele>41.4</ele>
        <time>2022-11-01T11:16:53Z</time>
      </trkpt>
      <trkpt lat="36.7594560" lon="-2.9821180">
        <ele>41.4</ele>
        <time>2022-11-01T11:16:54Z</time>
      </trkpt>
      <trkpt lat="36.7594010" lon="-2.9820460">
        <ele>41.4</ele>
        <time>2022-11-01T11:16:55Z</time>
      </trkpt>
      <trkpt lat="36.7593440" lon="-2.9819750">
        <ele>41.4</ele>
        <time>2022-11-01T11:16:56Z</time>
      </trkpt>
      <trkpt lat="36.7592870" lon="-2.9819060">
        <ele>41.6</ele>
        <time>2022-11-01T11:16:57Z</time>
      </trkpt>
      <trkpt lat="36.7592320" lon="-2.9818400">
        <ele>41.6</ele>
        <time>2022-11-01T11:16:58Z</time>
      </trkpt>
      <trkpt lat="36.7591790" lon="-2.9817800">
        <ele>41.8</ele>
        <time>2022-11-01T11:16:59Z</time>
      </trkpt>
      <trkpt lat="36.7591290" lon="-2.9817220">
        <ele>42.0</ele>
        <time>2022-11-01T11:17:00Z</time>
      </trkpt>
      <trkpt lat="36.7590800" lon="-2.9816660">
        <ele>42.2</ele>
        <time>2022-11-01T11:17:01Z</time>
      </trkpt>
      <trkpt lat="36.7590320" lon="-2.9816120">
        <ele>42.4</ele>
        <time>2022-11-01T11:17:02Z</time>
      </trkpt>
      <trkpt lat="36.7589860" lon="-2.9815590">
        <ele>42.6</ele>
        <time>2022-11-01T11:17:03Z</time>
      </trkpt>
      <trkpt lat="36.7589450" lon="-2.9815080">
        <ele>42.6</ele>
        <time>2022-11-01T11:17:04Z</time>
      </trkpt>
      <trkpt lat="36.7589020" lon="-2.9814520">
        <ele>42.8</ele>
        <time>2022-11-01T11:17:05Z</time>
      </trkpt>
      <trkpt lat="36.7588600" lon="-2.9813940">
        <ele>43.0</ele>
        <time>2022-11-01T11:17:06Z</time>
      </trkpt>
      <trkpt lat="36.7588190" lon="-2.9813350">
        <ele>43.2</ele>
        <time>2022-11-01T11:17:07Z</time>
      </trkpt>
      <trkpt lat="36.7587820" lon="-2.9812750">
        <ele>43.2</ele>
        <time>2022-11-01T11:17:08Z</time>
      </trkpt>
      <trkpt lat="36.7587500" lon="-2.9812140">
        <ele>43.4</ele>
        <time>2022-11-01T11:17:09Z</time>
      </trkpt>
      <trkpt lat="36.7587170" lon="-2.9811480">
        <ele>43.6</ele>
        <time>2022-11-01T11:17:10Z</time>
      </trkpt>
      <trkpt lat="36.7586880" lon="-2.9810800">
        <ele>43.6</ele>
        <time>2022-11-01T11:17:11Z</time>
      </trkpt>
      <trkpt lat="36.7586610" lon="-2.9810090">
        <ele>43.8</ele>
        <time>2022-11-01T11:17:12Z</time>
      </trkpt>
      <trkpt lat="36.7586370" lon="-2.9809390">
        <ele>43.8</ele>
        <time>2022-11-01T11:17:13Z</time>
      </trkpt>
      <trkpt lat="36.7586190" lon="-2.9808700">
        <ele>44.0</ele>
        <time>2022-11-01T11:17:14Z</time>
      </trkpt>
      <trkpt lat="36.7586010" lon="-2.9807970">
        <ele>44.2</ele>
        <time>2022-11-01T11:17:15Z</time>
      </trkpt>
      <trkpt lat="36.7585830" lon="-2.9807210">
        <ele>44.2</ele>
        <time>2022-11-01T11:17:16Z</time>
      </trkpt>
      <trkpt lat="36.7585660" lon="-2.9806450">
        <ele>44.4</ele>
        <time>2022-11-01T11:17:17Z</time>
      </trkpt>
      <trkpt lat="36.7585510" lon="-2.9805680">
        <ele>44.4</ele>
        <time>2022-11-01T11:17:18Z</time>
      </trkpt>
      <trkpt lat="36.7585380" lon="-2.9804880">
        <ele>44.6</ele>
        <time>2022-11-01T11:17:19Z</time>
      </trkpt>
      <trkpt lat="36.7585260" lon="-2.9804070">
        <ele>44.6</ele>
        <time>2022-11-01T11:17:20Z</time>
      </trkpt>
      <trkpt lat="36.7585140" lon="-2.9803260">
        <ele>44.6</ele>
        <time>2022-11-01T11:17:21Z</time>
      </trkpt>
      <trkpt lat="36.7585020" lon="-2.9802460">
        <ele>44.6</ele>
        <time>2022-11-01T11:17:22Z</time>
      </trkpt>
      <trkpt lat="36.7584890" lon="-2.9801670">
        <ele>44.8</ele>
        <time>2022-11-01T11:17:23Z</time>
      </trkpt>
      <trkpt lat="36.7584770" lon="-2.9800890">
        <ele>44.8</ele>
        <time>2022-11-01T11:17:24Z</time>
      </trkpt>
      <trkpt lat="36.7584650" lon="-2.9800130">
        <ele>44.6</ele>
        <time>2022-11-01T11:17:25Z</time>
      </trkpt>
      <trkpt lat="36.7584530" lon="-2.9799330">
        <ele>44.8</ele>
        <time>2022-11-01T11:17:26Z</time>
      </trkpt>
      <trkpt lat="36.7584410" lon="-2.9798530">
        <ele>44.8</ele>
        <time>2022-11-01T11:17:27Z</time>
      </trkpt>
      <trkpt lat="36.7584280" lon="-2.9797740">
        <ele>45.0</ele>
        <time>2022-11-01T11:17:28Z</time>
      </trkpt>
      <trkpt lat="36.7584140" lon="-2.9796940">
        <ele>45.0</ele>
        <time>2022-11-01T11:17:29Z</time>
      </trkpt>
      <trkpt lat="36.7583990" lon="-2.9796140">
        <ele>45.0</ele>
        <time>2022-11-01T11:17:30Z</time>
      </trkpt>
      <trkpt lat="36.7583850" lon="-2.9795380">
        <ele>45.0</ele>
        <time>2022-11-01T11:17:31Z</time>
      </trkpt>
      <trkpt lat="36.7583710" lon="-2.9794620">
        <ele>45.0</ele>
        <time>2022-11-01T11:17:32Z</time>
      </trkpt>
      <trkpt lat="36.7583620" lon="-2.9793880">
        <ele>45.0</ele>
        <time>2022-11-01T11:17:33Z</time>
      </trkpt>
      <trkpt lat="36.7583540" lon="-2.9793070">
        <ele>45.2</ele>
        <time>2022-11-01T11:17:34Z</time>
      </trkpt>
      <trkpt lat="36.7583540" lon="-2.9792240">
        <ele>45.2</ele>
        <time>2022-11-01T11:17:35Z</time>
      </trkpt>
      <trkpt lat="36.7583610" lon="-2.9791380">
        <ele>45.2</ele>
        <time>2022-11-01T11:17:36Z</time>
      </trkpt>
      <trkpt lat="36.7583740" lon="-2.9790560">
        <ele>45.4</ele>
        <time>2022-11-01T11:17:37Z</time>
      </trkpt>
      <trkpt lat="36.7583940" lon="-2.9789790">
        <ele>45.6</ele>
        <time>2022-11-01T11:17:38Z</time>
      </trkpt>
      <trkpt lat="36.7584140" lon="-2.9789030">
        <ele>45.6</ele>
        <time>2022-11-01T11:17:39Z</time>
      </trkpt>
      <trkpt lat="36.7584400" lon="-2.9788270">
        <ele>45.8</ele>
        <time>2022-11-01T11:17:40Z</time>
      </trkpt>
      <trkpt lat="36.7584700" lon="-2.9787520">
        <ele>46.0</ele>
        <time>2022-11-01T11:17:41Z</time>
      </trkpt>
      <trkpt lat="36.7585000" lon="-2.9786750">
        <ele>46.0</ele>
        <time>2022-11-01T11:17:42Z</time>
      </trkpt>
      <trkpt lat="36.7585310" lon="-2.9785980">
        <ele>46.2</ele>
        <time>2022-11-01T11:17:43Z</time>
      </trkpt>
      <trkpt lat="36.7585600" lon="-2.9785210">
        <ele>46.2</ele>
        <time>2022-11-01T11:17:44Z</time>
      </trkpt>
      <trkpt lat="36.7585860" lon="-2.9784440">
        <ele>46.4</ele>
        <time>2022-11-01T11:17:45Z</time>
      </trkpt>
      <trkpt lat="36.7586160" lon="-2.9783690">
        <ele>46.4</ele>
        <time>2022-11-01T11:17:46Z</time>
      </trkpt>
      <trkpt lat="36.7586450" lon="-2.9782950">
        <ele>46.4</ele>
        <time>2022-11-01T11:17:47Z</time>
      </trkpt>
      <trkpt lat="36.7586740" lon="-2.9782160">
        <ele>46.6</ele>
        <time>2022-11-01T11:17:48Z</time>
      </trkpt>
      <trkpt lat="36.7587010" lon="-2.9781380">
        <ele>46.6</ele>
        <time>2022-11-01T11:17:49Z</time>
      </trkpt>
      <trkpt lat="36.7587290" lon="-2.9780600">
        <ele>46.6</ele>
        <time>2022-11-01T11:17:50Z</time>
      </trkpt>
      <trkpt lat="36.7587550" lon="-2.9779840">
        <ele>46.8</ele>
        <time>2022-11-01T11:17:51Z</time>
      </trkpt>
      <trkpt lat="36.7587820" lon="-2.9779060">
        <ele>47.0</ele>
        <time>2022-11-01T11:17:52Z</time>
      </trkpt>
      <trkpt lat="36.7588110" lon="-2.9778300">
        <ele>47.2</ele>
        <time>2022-11-01T11:17:53Z</time>
      </trkpt>
      <trkpt lat="36.7588390" lon="-2.9777520">
        <ele>47.2</ele>
        <time>2022-11-01T11:17:54Z</time>
      </trkpt>
      <trkpt lat="36.7588650" lon="-2.9776760">
        <ele>47.4</ele>
        <time>2022-11-01T11:17:55Z</time>
      </trkpt>
      <trkpt lat="36.7588930" lon="-2.9775980">
        <ele>47.6</ele>
        <time>2022-11-01T11:17:56Z</time>
      </trkpt>
      <trkpt lat="36.7589180" lon="-2.9775190">
        <ele>47.6</ele>
        <time>2022-11-01T11:17:57Z</time>
      </trkpt>
      <trkpt lat="36.7589430" lon="-2.9774400">
        <ele>47.8</ele>
        <time>2022-11-01T11:17:58Z</time>
      </trkpt>
      <trkpt lat="36.7589670" lon="-2.9773610">
        <ele>48.0</ele>
        <time>2022-11-01T11:17:59Z</time>
      </trkpt>
      <trkpt lat="36.7589900" lon="-2.9772810">
        <ele>48.0</ele>
        <time>2022-11-01T11:18:00Z</time>
      </trkpt>
      <trkpt lat="36.7590110" lon="-2.9772020">
        <ele>48.0</ele>
        <time>2022-11-01T11:18:01Z</time>
      </trkpt>
      <trkpt lat="36.7590310" lon="-2.9771230">
        <ele>48.0</ele>
        <time>2022-11-01T11:18:02Z</time>
      </trkpt>
      <trkpt lat="36.7590490" lon="-2.9770450">
        <ele>48.2</ele>
        <time>2022-11-01T11:18:03Z</time>
      </trkpt>
      <trkpt lat="36.7590680" lon="-2.9769660">
        <ele>48.2</ele>
        <time>2022-11-01T11:18:04Z</time>
      </trkpt>
      <trkpt lat="36.7590860" lon="-2.9768860">
        <ele>48.4</ele>
        <time>2022-11-01T11:18:05Z</time>
      </trkpt>
      <trkpt lat="36.7591030" lon="-2.9768060">
        <ele>48.4</ele>
        <time>2022-11-01T11:18:06Z</time>
      </trkpt>
      <trkpt lat="36.7591180" lon="-2.9767240">
        <ele>48.4</ele>
        <time>2022-11-01T11:18:07Z</time>
      </trkpt>
      <trkpt lat="36.7591310" lon="-2.9766410">
        <ele>48.4</ele>
        <time>2022-11-01T11:18:08Z</time>
      </trkpt>
      <trkpt lat="36.7591430" lon="-2.9765580">
        <ele>48.4</ele>
        <time>2022-11-01T11:18:09Z</time>
      </trkpt>
      <trkpt lat="36.7591520" lon="-2.9764760">
        <ele>48.4</ele>
        <time>2022-11-01T11:18:10Z</time>
      </trkpt>
      <trkpt lat="36.7591640" lon="-2.9763920">
        <ele>48.4</ele>
        <time>2022-11-01T11:18:11Z</time>
      </trkpt>
      <trkpt lat="36.7591750" lon="-2.9763070">
        <ele>48.4</ele>
        <time>2022-11-01T11:18:12Z</time>
      </trkpt>
      <trkpt lat="36.7591850" lon="-2.9762230">
        <ele>48.4</ele>
        <time>2022-11-01T11:18:13Z</time>
      </trkpt>
      <trkpt lat="36.7591940" lon="-2.9761380">
        <ele>48.4</ele>
        <time>2022-11-01T11:18:14Z</time>
      </trkpt>
      <trkpt lat="36.7592040" lon="-2.9760530">
        <ele>48.4</ele>
        <time>2022-11-01T11:18:15Z</time>
      </trkpt>
      <trkpt lat="36.7592110" lon="-2.9759670">
        <ele>48.4</ele>
        <time>2022-11-01T11:18:16Z</time>
      </trkpt>
      <trkpt lat="36.7592140" lon="-2.9758820">
        <ele>48.4</ele>
        <time>2022-11-01T11:18:17Z</time>
      </trkpt>
      <trkpt lat="36.7592210" lon="-2.9757970">
        <ele>48.4</ele>
        <time>2022-11-01T11:18:18Z</time>
      </trkpt>
      <trkpt lat="36.7592240" lon="-2.9757130">
        <ele>48.4</ele>
        <time>2022-11-01T11:18:19Z</time>
      </trkpt>
      <trkpt lat="36.7592290" lon="-2.9756280">
        <ele>48.4</ele>
        <time>2022-11-01T11:18:20Z</time>
      </trkpt>
      <trkpt lat="36.7592340" lon="-2.9755420">
        <ele>48.4</ele>
        <time>2022-11-01T11:18:21Z</time>
      </trkpt>
      <trkpt lat="36.7592380" lon="-2.9754570">
        <ele>48.4</ele>
        <time>2022-11-01T11:18:22Z</time>
      </trkpt>
      <trkpt lat="36.7592420" lon="-2.9753730">
        <ele>48.6</ele>
        <time>2022-11-01T11:18:23Z</time>
      </trkpt>
      <trkpt lat="36.7592470" lon="-2.9752890">
        <ele>48.6</ele>
        <time>2022-11-01T11:18:24Z</time>
      </trkpt>
      <trkpt lat="36.7592520" lon="-2.9752070">
        <ele>48.8</ele>
        <time>2022-11-01T11:18:25Z</time>
      </trkpt>
      <trkpt lat="36.7592560" lon="-2.9751260">
        <ele>48.8</ele>
        <time>2022-11-01T11:18:26Z</time>
      </trkpt>
      <trkpt lat="36.7592580" lon="-2.9750410">
        <ele>49.2</ele>
        <time>2022-11-01T11:18:27Z</time>
      </trkpt>
      <trkpt lat="36.7592580" lon="-2.9749400">
        <ele>49.4</ele>
        <time>2022-11-01T11:18:28Z</time>
      </trkpt>
      <trkpt lat="36.7592580" lon="-2.9748520">
        <ele>49.4</ele>
        <time>2022-11-01T11:18:29Z</time>
      </trkpt>
      <trkpt lat="36.7592620" lon="-2.9747710">
        <ele>49.6</ele>
        <time>2022-11-01T11:18:30Z</time>
      </trkpt>
      <trkpt lat="36.7592670" lon="-2.9746910">
        <ele>49.6</ele>
        <time>2022-11-01T11:18:31Z</time>
      </trkpt>
      <trkpt lat="36.7592710" lon="-2.9746110">
        <ele>49.6</ele>
        <time>2022-11-01T11:18:32Z</time>
      </trkpt>
      <trkpt lat="36.7592750" lon="-2.9745310">
        <ele>50.0</ele>
        <time>2022-11-01T11:18:33Z</time>
      </trkpt>
      <trkpt lat="36.7592800" lon="-2.9744500">
        <ele>50.0</ele>
        <time>2022-11-01T11:18:34Z</time>
      </trkpt>
      <trkpt lat="36.7592840" lon="-2.9743670">
        <ele>50.0</ele>
        <time>2022-11-01T11:18:35Z</time>
      </trkpt>
      <trkpt lat="36.7592870" lon="-2.9742840">
        <ele>50.0</ele>
        <time>2022-11-01T11:18:36Z</time>
      </trkpt>
      <trkpt lat="36.7592910" lon="-2.9742030">
        <ele>50.2</ele>
        <time>2022-11-01T11:18:37Z</time>
      </trkpt>
      <trkpt lat="36.7592940" lon="-2.9741220">
        <ele>50.4</ele>
        <time>2022-11-01T11:18:38Z</time>
      </trkpt>
      <trkpt lat="36.7592970" lon="-2.9740400">
        <ele>50.4</ele>
        <time>2022-11-01T11:18:39Z</time>
      </trkpt>
      <trkpt lat="36.7593010" lon="-2.9739590">
        <ele>50.4</ele>
        <time>2022-11-01T11:18:40Z</time>
      </trkpt>
      <trkpt lat="36.7593050" lon="-2.9738770">
        <ele>50.6</ele>
        <time>2022-11-01T11:18:41Z</time>
      </trkpt>
      <trkpt lat="36.7593090" lon="-2.9737960">
        <ele>50.6</ele>
        <time>2022-11-01T11:18:42Z</time>
      </trkpt>
      <trkpt lat="36.7593150" lon="-2.9737140">
        <ele>50.8</ele>
        <time>2022-11-01T11:18:43Z</time>
      </trkpt>
      <trkpt lat="36.7593220" lon="-2.9736340">
        <ele>50.8</ele>
        <time>2022-11-01T11:18:44Z</time>
      </trkpt>
      <trkpt lat="36.7593280" lon="-2.9735570">
        <ele>51.0</ele>
        <time>2022-11-01T11:18:45Z</time>
      </trkpt>
      <trkpt lat="36.7593310" lon="-2.9734830">
        <ele>51.0</ele>
        <time>2022-11-01T11:18:46Z</time>
      </trkpt>
      <trkpt lat="36.7593320" lon="-2.9734050">
        <ele>51.2</ele>
        <time>2022-11-01T11:18:47Z</time>
      </trkpt>
      <trkpt lat="36.7593340" lon="-2.9733260">
        <ele>51.4</ele>
        <time>2022-11-01T11:18:48Z</time>
      </trkpt>
      <trkpt lat="36.7593370" lon="-2.9732480">
        <ele>51.4</ele>
        <time>2022-11-01T11:18:49Z</time>
      </trkpt>
      <trkpt lat="36.7593400" lon="-2.9731720">
        <ele>51.4</ele>
        <time>2022-11-01T11:18:50Z</time>
      </trkpt>
      <trkpt lat="36.7593440" lon="-2.9730960">
        <ele>51.6</ele>
        <time>2022-11-01T11:18:51Z</time>
      </trkpt>
      <trkpt lat="36.7593470" lon="-2.9730220">
        <ele>51.6</ele>
        <time>2022-11-01T11:18:52Z</time>
      </trkpt>
      <trkpt lat="36.7593510" lon="-2.9729480">
        <ele>51.8</ele>
        <time>2022-11-01T11:18:53Z</time>
      </trkpt>
      <trkpt lat="36.7593520" lon="-2.9728760">
        <ele>51.8</ele>
        <time>2022-11-01T11:18:54Z</time>
      </trkpt>
      <trkpt lat="36.7593470" lon="-2.9728060">
        <ele>52.0</ele>
        <time>2022-11-01T11:18:55Z</time>
      </trkpt>
      <trkpt lat="36.7593350" lon="-2.9727390">
        <ele>52.0</ele>
        <time>2022-11-01T11:18:56Z</time>
      </trkpt>
      <trkpt lat="36.7593160" lon="-2.9726810">
        <ele>52.0</ele>
        <time>2022-11-01T11:18:57Z</time>
      </trkpt>
      <trkpt lat="36.7593010" lon="-2.9726290">
        <ele>52.0</ele>
        <time>2022-11-01T11:18:58Z</time>
      </trkpt>
      <trkpt lat="36.7592860" lon="-2.9725590">
        <ele>52.0</ele>
        <time>2022-11-01T11:18:59Z</time>
      </trkpt>
      <trkpt lat="36.7592770" lon="-2.9724850">
        <ele>52.0</ele>
        <time>2022-11-01T11:19:00Z</time>
      </trkpt>
      <trkpt lat="36.7592750" lon="-2.9724090">
        <ele>52.0</ele>
        <time>2022-11-01T11:19:01Z</time>
      </trkpt>
      <trkpt lat="36.7592790" lon="-2.9723350">
        <ele>52.0</ele>
        <time>2022-11-01T11:19:02Z</time>
      </trkpt>
      <trkpt lat="36.7592870" lon="-2.9722640">
        <ele>52.4</ele>
        <time>2022-11-01T11:19:03Z</time>
      </trkpt>
      <trkpt lat="36.7593030" lon="-2.9721960">
        <ele>52.6</ele>
        <time>2022-11-01T11:19:04Z</time>
      </trkpt>
      <trkpt lat="36.7593150" lon="-2.9721270">
        <ele>52.8</ele>
        <time>2022-11-01T11:19:05Z</time>
      </trkpt>
      <trkpt lat="36.7593260" lon="-2.9720550">
        <ele>52.8</ele>
        <time>2022-11-01T11:19:06Z</time>
      </trkpt>
      <trkpt lat="36.7593330" lon="-2.9719810">
        <ele>53.0</ele>
        <time>2022-11-01T11:19:07Z</time>
      </trkpt>
      <trkpt lat="36.7593370" lon="-2.9719060">
        <ele>53.0</ele>
        <time>2022-11-01T11:19:08Z</time>
      </trkpt>
      <trkpt lat="36.7593390" lon="-2.9718300">
        <ele>53.2</ele>
        <time>2022-11-01T11:19:09Z</time>
      </trkpt>
      <trkpt lat="36.7593430" lon="-2.9717540">
        <ele>53.2</ele>
        <time>2022-11-01T11:19:10Z</time>
      </trkpt>
      <trkpt lat="36.7593470" lon="-2.9716750">
        <ele>53.2</ele>
        <time>2022-11-01T11:19:11Z</time>
      </trkpt>
      <trkpt lat="36.7593500" lon="-2.9715960">
        <ele>53.2</ele>
        <time>2022-11-01T11:19:12Z</time>
      </trkpt>
      <trkpt lat="36.7593530" lon="-2.9715200">
        <ele>53.2</ele>
        <time>2022-11-01T11:19:13Z</time>
      </trkpt>
      <trkpt lat="36.7593560" lon="-2.9714440">
        <ele>53.2</ele>
        <time>2022-11-01T11:19:14Z</time>
      </trkpt>
      <trkpt lat="36.7593590" lon="-2.9713650">
        <ele>53.0</ele>
        <time>2022-11-01T11:19:15Z</time>
      </trkpt>
      <trkpt lat="36.7593630" lon="-2.9712890">
        <ele>53.0</ele>
        <time>2022-11-01T11:19:16Z</time>
      </trkpt>
      <trkpt lat="36.7593640" lon="-2.9712140">
        <ele>53.0</ele>
        <time>2022-11-01T11:19:17Z</time>
      </trkpt>
      <trkpt lat="36.7593640" lon="-2.9711370">
        <ele>53.0</ele>
        <time>2022-11-01T11:19:18Z</time>
      </trkpt>
      <trkpt lat="36.7593640" lon="-2.9710610">
        <ele>53.0</ele>
        <time>2022-11-01T11:19:19Z</time>
      </trkpt>
      <trkpt lat="36.7593670" lon="-2.9709810">
        <ele>53.0</ele>
        <time>2022-11-01T11:19:20Z</time>
      </trkpt>
      <trkpt lat="36.7593690" lon="-2.9709010">
        <ele>52.8</ele>
        <time>2022-11-01T11:19:21Z</time>
      </trkpt>
      <trkpt lat="36.7593720" lon="-2.9708210">
        <ele>52.8</ele>
        <time>2022-11-01T11:19:22Z</time>
      </trkpt>
      <trkpt lat="36.7593770" lon="-2.9707430">
        <ele>52.8</ele>
        <time>2022-11-01T11:19:23Z</time>
      </trkpt>
      <trkpt lat="36.7593830" lon="-2.9706650">
        <ele>52.8</ele>
        <time>2022-11-01T11:19:24Z</time>
      </trkpt>
      <trkpt lat="36.7593890" lon="-2.9705890">
        <ele>52.8</ele>
        <time>2022-11-01T11:19:25Z</time>
      </trkpt>
      <trkpt lat="36.7593930" lon="-2.9705170">
        <ele>52.8</ele>
        <time>2022-11-01T11:19:26Z</time>
      </trkpt>
      <trkpt lat="36.7593980" lon="-2.9704420">
        <ele>52.8</ele>
        <time>2022-11-01T11:19:27Z</time>
      </trkpt>
      <trkpt lat="36.7594060" lon="-2.9703700">
        <ele>52.6</ele>
        <time>2022-11-01T11:19:28Z</time>
      </trkpt>
      <trkpt lat="36.7594130" lon="-2.9702970">
        <ele>52.6</ele>
        <time>2022-11-01T11:19:29Z</time>
      </trkpt>
      <trkpt lat="36.7594180" lon="-2.9702230">
        <ele>52.6</ele>
        <time>2022-11-01T11:19:30Z</time>
      </trkpt>
      <trkpt lat="36.7594200" lon="-2.9701490">
        <ele>52.4</ele>
        <time>2022-11-01T11:19:31Z</time>
      </trkpt>
      <trkpt lat="36.7594220" lon="-2.9700790">
        <ele>52.4</ele>
        <time>2022-11-01T11:19:32Z</time>
      </trkpt>
      <trkpt lat="36.7594220" lon="-2.9700240">
        <ele>52.2</ele>
        <time>2022-11-01T11:19:33Z</time>
      </trkpt>
      <trkpt lat="36.7594190" lon="-2.9699790">
        <ele>52.2</ele>
        <time>2022-11-01T11:19:34Z</time>
      </trkpt>
      <trkpt lat="36.7594150" lon="-2.9699430">
        <ele>52.0</ele>
        <time>2022-11-01T11:19:35Z</time>
      </trkpt>
      <trkpt lat="36.7594090" lon="-2.9699160">
        <ele>52.0</ele>
        <time>2022-11-01T11:19:36Z</time>
      </trkpt>
      <trkpt lat="36.7594090" lon="-2.9699000">
        <ele>51.8</ele>
        <time>2022-11-01T11:19:37Z</time>
      </trkpt>
      <trkpt lat="36.7594120" lon="-2.9698890">
        <ele>51.6</ele>
        <time>2022-11-01T11:19:38Z</time>
      </trkpt>
      <trkpt lat="36.7594160" lon="-2.9698730">
        <ele>51.6</ele>
        <time>2022-11-01T11:19:39Z</time>
      </trkpt>
      <trkpt lat="36.7594180" lon="-2.9698530">
        <ele>51.4</ele>
        <time>2022-11-01T11:19:40Z</time>
      </trkpt>
      <trkpt lat="36.7594170" lon="-2.9698400">
        <ele>51.4</ele>
        <time>2022-11-01T11:19:41Z</time>
      </trkpt>
      <trkpt lat="36.7594140" lon="-2.9698250">
        <ele>51.4</ele>
        <time>2022-11-01T11:19:42Z</time>
      </trkpt>
      <trkpt lat="36.7594120" lon="-2.9698160">
        <ele>51.4</ele>
        <time>2022-11-01T11:19:43Z</time>
      </trkpt>
      <trkpt lat="36.7594130" lon="-2.9698140">
        <ele>51.4</ele>
        <time>2022-11-01T11:19:44Z</time>
      </trkpt>
      <trkpt lat="36.7594150" lon="-2.9698110">
        <ele>51.2</ele>
        <time>2022-11-01T11:19:45Z</time>
      </trkpt>
      <trkpt lat="36.7594160" lon="-2.9698090">
        <ele>51.4</ele>
        <time>2022-11-01T11:19:46Z</time>
      </trkpt>
      <trkpt lat="36.7594090" lon="-2.9696650">
        <ele>51.4</ele>
        <time>2022-11-01T11:22:32Z</time>
      </trkpt>
      <trkpt lat="36.7594100" lon="-2.9696630">
        <ele>51.4</ele>
        <time>2022-11-01T11:22:33Z</time>
      </trkpt>
      <trkpt lat="36.7594140" lon="-2.9696590">
        <ele>51.4</ele>
        <time>2022-11-01T11:22:34Z</time>
      </trkpt>
      <trkpt lat="36.7594200" lon="-2.9696490">
        <ele>51.4</ele>
        <time>2022-11-01T11:22:35Z</time>
      </trkpt>
      <trkpt lat="36.7594280" lon="-2.9696340">
        <ele>51.4</ele>
        <time>2022-11-01T11:22:36Z</time>
      </trkpt>
      <trkpt lat="36.7594480" lon="-2.9695830">
        <ele>51.4</ele>
        <time>2022-11-01T11:22:37Z</time>
      </trkpt>
      <trkpt lat="36.7594480" lon="-2.9695830">
        <ele>51.4</ele>
        <time>2022-11-01T11:22:38Z</time>
      </trkpt>
      <trkpt lat="36.7594530" lon="-2.9695440">
        <ele>51.2</ele>
        <time>2022-11-01T11:22:39Z</time>
      </trkpt>
      <trkpt lat="36.7594540" lon="-2.9695030">
        <ele>51.2</ele>
        <time>2022-11-01T11:22:40Z</time>
      </trkpt>
      <trkpt lat="36.7594560" lon="-2.9694550">
        <ele>51.2</ele>
        <time>2022-11-01T11:22:41Z</time>
      </trkpt>
      <trkpt lat="36.7594570" lon="-2.9694050">
        <ele>51.0</ele>
        <time>2022-11-01T11:22:42Z</time>
      </trkpt>
      <trkpt lat="36.7594600" lon="-2.9693550">
        <ele>51.0</ele>
        <time>2022-11-01T11:22:43Z</time>
      </trkpt>
      <trkpt lat="36.7594640" lon="-2.9693060">
        <ele>50.8</ele>
        <time>2022-11-01T11:22:44Z</time>
      </trkpt>
      <trkpt lat="36.7594670" lon="-2.9692570">
        <ele>50.6</ele>
        <time>2022-11-01T11:22:45Z</time>
      </trkpt>
      <trkpt lat="36.7594660" lon="-2.9692130">
        <ele>50.6</ele>
        <time>2022-11-01T11:22:46Z</time>
      </trkpt>
      <trkpt lat="36.7594620" lon="-2.9691820">
        <ele>50.4</ele>
        <time>2022-11-01T11:22:47Z</time>
      </trkpt>
      <trkpt lat="36.7594600" lon="-2.9691690">
        <ele>50.4</ele>
        <time>2022-11-01T11:22:48Z</time>
      </trkpt>
      <trkpt lat="36.7594610" lon="-2.9691660">
        <ele>50.4</ele>
        <time>2022-11-01T11:22:49Z</time>
      </trkpt>
      <trkpt lat="36.7594620" lon="-2.9691660">
        <ele>50.4</ele>
        <time>2022-11-01T11:22:50Z</time>
      </trkpt>
      <trkpt lat="36.7594630" lon="-2.9691660">
        <ele>50.4</ele>
        <time>2022-11-01T11:22:51Z</time>
      </trkpt>
      <trkpt lat="36.7594640" lon="-2.9691590">
        <ele>50.4</ele>
        <time>2022-11-01T11:22:52Z</time>
      </trkpt>
      <trkpt lat="36.7594650" lon="-2.9690940">
        <ele>50.2</ele>
        <time>2022-11-01T11:22:55Z</time>
      </trkpt>
      <trkpt lat="36.7594680" lon="-2.9690580">
        <ele>50.2</ele>
        <time>2022-11-01T11:22:56Z</time>
      </trkpt>
      <trkpt lat="36.7594730" lon="-2.9690170">
        <ele>50.0</ele>
        <time>2022-11-01T11:22:57Z</time>
      </trkpt>
      <trkpt lat="36.7594760" lon="-2.9689700">
        <ele>50.0</ele>
        <time>2022-11-01T11:22:58Z</time>
      </trkpt>
      <trkpt lat="36.7594770" lon="-2.9689210">
        <ele>50.0</ele>
        <time>2022-11-01T11:22:59Z</time>
      </trkpt>
      <trkpt lat="36.7594770" lon="-2.9688780">
        <ele>50.0</ele>
        <time>2022-11-01T11:23:00Z</time>
      </trkpt>
      <trkpt lat="36.7594780" lon="-2.9688410">
        <ele>49.8</ele>
        <time>2022-11-01T11:23:01Z</time>
      </trkpt>
      <trkpt lat="36.7594790" lon="-2.9688100">
        <ele>49.8</ele>
        <time>2022-11-01T11:23:02Z</time>
      </trkpt>
      <trkpt lat="36.7594790" lon="-2.9687860">
        <ele>49.6</ele>
        <time>2022-11-01T11:23:03Z</time>
      </trkpt>
      <trkpt lat="36.7594790" lon="-2.9687630">
        <ele>49.6</ele>
        <time>2022-11-01T11:23:04Z</time>
      </trkpt>
      <trkpt lat="36.7594770" lon="-2.9687450">
        <ele>49.6</ele>
        <time>2022-11-01T11:23:05Z</time>
      </trkpt>
      <trkpt lat="36.7594760" lon="-2.9687290">
        <ele>49.6</ele>
        <time>2022-11-01T11:23:06Z</time>
      </trkpt>
      <trkpt lat="36.7594770" lon="-2.9687140">
        <ele>49.6</ele>
        <time>2022-11-01T11:23:07Z</time>
      </trkpt>
      <trkpt lat="36.7594760" lon="-2.9687000">
        <ele>49.6</ele>
        <time>2022-11-01T11:23:08Z</time>
      </trkpt>
      <trkpt lat="36.7594770" lon="-2.9686930">
        <ele>49.6</ele>
        <time>2022-11-01T11:23:09Z</time>
      </trkpt>
      <trkpt lat="36.7594780" lon="-2.9686890">
        <ele>49.6</ele>
        <time>2022-11-01T11:23:10Z</time>
      </trkpt>
      <trkpt lat="36.7594800" lon="-2.9686740">
        <ele>49.6</ele>
        <time>2022-11-01T11:23:11Z</time>
      </trkpt>
      <trkpt lat="36.7594820" lon="-2.9686550">
        <ele>49.6</ele>
        <time>2022-11-01T11:23:12Z</time>
      </trkpt>
      <trkpt lat="36.7594840" lon="-2.9686360">
        <ele>49.4</ele>
        <time>2022-11-01T11:23:13Z</time>
      </trkpt>
      <trkpt lat="36.7594870" lon="-2.9686150">
        <ele>49.4</ele>
        <time>2022-11-01T11:23:14Z</time>
      </trkpt>
      <trkpt lat="36.7594910" lon="-2.9685890">
        <ele>49.4</ele>
        <time>2022-11-01T11:23:15Z</time>
      </trkpt>
      <trkpt lat="36.7594940" lon="-2.9685530">
        <ele>49.4</ele>
        <time>2022-11-01T11:23:16Z</time>
      </trkpt>
      <trkpt lat="36.7594960" lon="-2.9685100">
        <ele>49.4</ele>
        <time>2022-11-01T11:23:17Z</time>
      </trkpt>
      <trkpt lat="36.7594960" lon="-2.9684660">
        <ele>49.4</ele>
        <time>2022-11-01T11:23:18Z</time>
      </trkpt>
      <trkpt lat="36.7594990" lon="-2.9684130">
        <ele>49.2</ele>
        <time>2022-11-01T11:23:19Z</time>
      </trkpt>
      <trkpt lat="36.7595020" lon="-2.9683530">
        <ele>49.2</ele>
        <time>2022-11-01T11:23:20Z</time>
      </trkpt>
      <trkpt lat="36.7595070" lon="-2.9682910">
        <ele>49.2</ele>
        <time>2022-11-01T11:23:21Z</time>
      </trkpt>
      <trkpt lat="36.7595070" lon="-2.9682270">
        <ele>49.0</ele>
        <time>2022-11-01T11:23:22Z</time>
      </trkpt>
      <trkpt lat="36.7595090" lon="-2.9681580">
        <ele>49.0</ele>
        <time>2022-11-01T11:23:23Z</time>
      </trkpt>
      <trkpt lat="36.7595150" lon="-2.9680840">
        <ele>49.0</ele>
        <time>2022-11-01T11:23:24Z</time>
      </trkpt>
      <trkpt lat="36.7595180" lon="-2.9680080">
        <ele>48.8</ele>
        <time>2022-11-01T11:23:25Z</time>
      </trkpt>
      <trkpt lat="36.7595210" lon="-2.9679320">
        <ele>48.8</ele>
        <time>2022-11-01T11:23:26Z</time>
      </trkpt>
      <trkpt lat="36.7595260" lon="-2.9678540">
        <ele>48.6</ele>
        <time>2022-11-01T11:23:27Z</time>
      </trkpt>
      <trkpt lat="36.7595300" lon="-2.9677760">
        <ele>48.6</ele>
        <time>2022-11-01T11:23:28Z</time>
      </trkpt>
      <trkpt lat="36.7595320" lon="-2.9676940">
        <ele>48.4</ele>
        <time>2022-11-01T11:23:29Z</time>
      </trkpt>
      <trkpt lat="36.7595340" lon="-2.9676100">
        <ele>48.4</ele>
        <time>2022-11-01T11:23:30Z</time>
      </trkpt>
      <trkpt lat="36.7595360" lon="-2.9675220">
        <ele>48.4</ele>
        <time>2022-11-01T11:23:31Z</time>
      </trkpt>
      <trkpt lat="36.7595390" lon="-2.9674330">
        <ele>48.2</ele>
        <time>2022-11-01T11:23:32Z</time>
      </trkpt>
      <trkpt lat="36.7595410" lon="-2.9673420">
        <ele>48.2</ele>
        <time>2022-11-01T11:23:33Z</time>
      </trkpt>
      <trkpt lat="36.7595490" lon="-2.9672480">
        <ele>48.0</ele>
        <time>2022-11-01T11:23:34Z</time>
      </trkpt>
      <trkpt lat="36.7595600" lon="-2.9671550">
        <ele>48.0</ele>
        <time>2022-11-01T11:23:35Z</time>
      </trkpt>
      <trkpt lat="36.7595690" lon="-2.9670670">
        <ele>47.8</ele>
        <time>2022-11-01T11:23:36Z</time>
      </trkpt>
      <trkpt lat="36.7595770" lon="-2.9669710">
        <ele>47.8</ele>
        <time>2022-11-01T11:23:37Z</time>
      </trkpt>
      <trkpt lat="36.7595770" lon="-2.9668740">
        <ele>47.8</ele>
        <time>2022-11-01T11:23:38Z</time>
      </trkpt>
      <trkpt lat="36.7595780" lon="-2.9667820">
        <ele>47.6</ele>
        <time>2022-11-01T11:23:39Z</time>
      </trkpt>
      <trkpt lat="36.7595840" lon="-2.9666860">
        <ele>47.6</ele>
        <time>2022-11-01T11:23:40Z</time>
      </trkpt>
      <trkpt lat="36.7595930" lon="-2.9665890">
        <ele>47.4</ele>
        <time>2022-11-01T11:23:41Z</time>
      </trkpt>
      <trkpt lat="36.7596010" lon="-2.9664900">
        <ele>47.2</ele>
        <time>2022-11-01T11:23:42Z</time>
      </trkpt>
      <trkpt lat="36.7596070" lon="-2.9663890">
        <ele>47.2</ele>
        <time>2022-11-01T11:23:43Z</time>
      </trkpt>
      <trkpt lat="36.7596130" lon="-2.9662880">
        <ele>47.0</ele>
        <time>2022-11-01T11:23:44Z</time>
      </trkpt>
      <trkpt lat="36.7596190" lon="-2.9661860">
        <ele>47.0</ele>
        <time>2022-11-01T11:23:45Z</time>
      </trkpt>
      <trkpt lat="36.7596290" lon="-2.9660930">
        <ele>47.0</ele>
        <time>2022-11-01T11:23:46Z</time>
      </trkpt>
      <trkpt lat="36.7596390" lon="-2.9659950">
        <ele>46.8</ele>
        <time>2022-11-01T11:23:47Z</time>
      </trkpt>
      <trkpt lat="36.7596490" lon="-2.9658940">
        <ele>46.6</ele>
        <time>2022-11-01T11:23:48Z</time>
      </trkpt>
      <trkpt lat="36.7596600" lon="-2.9657960">
        <ele>46.6</ele>
        <time>2022-11-01T11:23:49Z</time>
      </trkpt>
      <trkpt lat="36.7596700" lon="-2.9656940">
        <ele>46.4</ele>
        <time>2022-11-01T11:23:50Z</time>
      </trkpt>
      <trkpt lat="36.7596830" lon="-2.9655880">
        <ele>46.2</ele>
        <time>2022-11-01T11:23:51Z</time>
      </trkpt>
      <trkpt lat="36.7596930" lon="-2.9654800">
        <ele>46.0</ele>
        <time>2022-11-01T11:23:52Z</time>
      </trkpt>
      <trkpt lat="36.7597000" lon="-2.9653690">
        <ele>46.0</ele>
        <time>2022-11-01T11:23:53Z</time>
      </trkpt>
      <trkpt lat="36.7597060" lon="-2.9652560">
        <ele>45.6</ele>
        <time>2022-11-01T11:23:54Z</time>
      </trkpt>
      <trkpt lat="36.7597110" lon="-2.9651410">
        <ele>45.4</ele>
        <time>2022-11-01T11:23:55Z</time>
      </trkpt>
      <trkpt lat="36.7597150" lon="-2.9650240">
        <ele>45.2</ele>
        <time>2022-11-01T11:23:56Z</time>
      </trkpt>
      <trkpt lat="36.7597200" lon="-2.9649060">
        <ele>44.8</ele>
        <time>2022-11-01T11:23:57Z</time>
      </trkpt>
      <trkpt lat="36.7597250" lon="-2.9647860">
        <ele>44.6</ele>
        <time>2022-11-01T11:23:58Z</time>
      </trkpt>
      <trkpt lat="36.7597300" lon="-2.9646640">
        <ele>44.4</ele>
        <time>2022-11-01T11:23:59Z</time>
      </trkpt>
      <trkpt lat="36.7597370" lon="-2.9645410">
        <ele>44.2</ele>
        <time>2022-11-01T11:24:00Z</time>
      </trkpt>
      <trkpt lat="36.7597440" lon="-2.9644170">
        <ele>44.0</ele>
        <time>2022-11-01T11:24:01Z</time>
      </trkpt>
      <trkpt lat="36.7597490" lon="-2.9642920">
        <ele>43.8</ele>
        <time>2022-11-01T11:24:02Z</time>
      </trkpt>
      <trkpt lat="36.7597540" lon="-2.9641650">
        <ele>43.6</ele>
        <time>2022-11-01T11:24:03Z</time>
      </trkpt>
      <trkpt lat="36.7597600" lon="-2.9640380">
        <ele>43.2</ele>
        <time>2022-11-01T11:24:04Z</time>
      </trkpt>
      <trkpt lat="36.7597660" lon="-2.9639110">
        <ele>43.0</ele>
        <time>2022-11-01T11:24:05Z</time>
      </trkpt>
      <trkpt lat="36.7597730" lon="-2.9637840">
        <ele>42.8</ele>
        <time>2022-11-01T11:24:06Z</time>
      </trkpt>
      <trkpt lat="36.7597800" lon="-2.9636570">
        <ele>42.6</ele>
        <time>2022-11-01T11:24:07Z</time>
      </trkpt>
      <trkpt lat="36.7597870" lon="-2.9635290">
        <ele>42.2</ele>
        <time>2022-11-01T11:24:08Z</time>
      </trkpt>
      <trkpt lat="36.7597930" lon="-2.9634020">
        <ele>42.0</ele>
        <time>2022-11-01T11:24:09Z</time>
      </trkpt>
      <trkpt lat="36.7598010" lon="-2.9632740">
        <ele>41.8</ele>
        <time>2022-11-01T11:24:10Z</time>
      </trkpt>
      <trkpt lat="36.7598090" lon="-2.9631440">
        <ele>41.6</ele>
        <time>2022-11-01T11:24:11Z</time>
      </trkpt>
      <trkpt lat="36.7598150" lon="-2.9630160">
        <ele>41.2</ele>
        <time>2022-11-01T11:24:12Z</time>
      </trkpt>
      <trkpt lat="36.7598200" lon="-2.9628870">
        <ele>41.0</ele>
        <time>2022-11-01T11:24:13Z</time>
      </trkpt>
      <trkpt lat="36.7598260" lon="-2.9627570">
        <ele>40.8</ele>
        <time>2022-11-01T11:24:14Z</time>
      </trkpt>
      <trkpt lat="36.7598310" lon="-2.9626270">
        <ele>40.8</ele>
        <time>2022-11-01T11:24:15Z</time>
      </trkpt>
      <trkpt lat="36.7598360" lon="-2.9624960">
        <ele>40.6</ele>
        <time>2022-11-01T11:24:16Z</time>
      </trkpt>
      <trkpt lat="36.7598420" lon="-2.9623630">
        <ele>40.4</ele>
        <time>2022-11-01T11:24:17Z</time>
      </trkpt>
      <trkpt lat="36.7598470" lon="-2.9622300">
        <ele>40.2</ele>
        <time>2022-11-01T11:24:18Z</time>
      </trkpt>
      <trkpt lat="36.7598530" lon="-2.9620960">
        <ele>40.0</ele>
        <time>2022-11-01T11:24:19Z</time>
      </trkpt>
      <trkpt lat="36.7598580" lon="-2.9619630">
        <ele>39.8</ele>
        <time>2022-11-01T11:24:20Z</time>
      </trkpt>
      <trkpt lat="36.7598630" lon="-2.9618290">
        <ele>39.4</ele>
        <time>2022-11-01T11:24:21Z</time>
      </trkpt>
      <trkpt lat="36.7598670" lon="-2.9616960">
        <ele>39.2</ele>
        <time>2022-11-01T11:24:22Z</time>
      </trkpt>
      <trkpt lat="36.7598710" lon="-2.9615620">
        <ele>39.2</ele>
        <time>2022-11-01T11:24:23Z</time>
      </trkpt>
      <trkpt lat="36.7598760" lon="-2.9614290">
        <ele>38.8</ele>
        <time>2022-11-01T11:24:24Z</time>
      </trkpt>
      <trkpt lat="36.7598800" lon="-2.9612950">
        <ele>38.6</ele>
        <time>2022-11-01T11:24:25Z</time>
      </trkpt>
      <trkpt lat="36.7598850" lon="-2.9611620">
        <ele>38.4</ele>
        <time>2022-11-01T11:24:26Z</time>
      </trkpt>
      <trkpt lat="36.7598900" lon="-2.9610300">
        <ele>38.2</ele>
        <time>2022-11-01T11:24:27Z</time>
      </trkpt>
      <trkpt lat="36.7598970" lon="-2.9608980">
        <ele>38.2</ele>
        <time>2022-11-01T11:24:28Z</time>
      </trkpt>
      <trkpt lat="36.7599050" lon="-2.9607680">
        <ele>38.0</ele>
        <time>2022-11-01T11:24:29Z</time>
      </trkpt>
      <trkpt lat="36.7599090" lon="-2.9606390">
        <ele>37.8</ele>
        <time>2022-11-01T11:24:30Z</time>
      </trkpt>
      <trkpt lat="36.7599120" lon="-2.9605090">
        <ele>37.8</ele>
        <time>2022-11-01T11:24:31Z</time>
      </trkpt>
      <trkpt lat="36.7599130" lon="-2.9603800">
        <ele>37.8</ele>
        <time>2022-11-01T11:24:32Z</time>
      </trkpt>
      <trkpt lat="36.7599110" lon="-2.9602540">
        <ele>37.6</ele>
        <time>2022-11-01T11:24:33Z</time>
      </trkpt>
      <trkpt lat="36.7599090" lon="-2.9601260">
        <ele>37.4</ele>
        <time>2022-11-01T11:24:34Z</time>
      </trkpt>
      <trkpt lat="36.7599040" lon="-2.9599990">
        <ele>37.4</ele>
        <time>2022-11-01T11:24:35Z</time>
      </trkpt>
      <trkpt lat="36.7598980" lon="-2.9598720">
        <ele>37.4</ele>
        <time>2022-11-01T11:24:36Z</time>
      </trkpt>
      <trkpt lat="36.7598890" lon="-2.9597470">
        <ele>37.4</ele>
        <time>2022-11-01T11:24:37Z</time>
      </trkpt>
      <trkpt lat="36.7598770" lon="-2.9596230">
        <ele>37.2</ele>
        <time>2022-11-01T11:24:38Z</time>
      </trkpt>
      <trkpt lat="36.7598640" lon="-2.9595000">
        <ele>37.2</ele>
        <time>2022-11-01T11:24:39Z</time>
      </trkpt>
      <trkpt lat="36.7598500" lon="-2.9593790">
        <ele>37.2</ele>
        <time>2022-11-01T11:24:40Z</time>
      </trkpt>
      <trkpt lat="36.7598330" lon="-2.9592590">
        <ele>37.0</ele>
        <time>2022-11-01T11:24:41Z</time>
      </trkpt>
      <trkpt lat="36.7598110" lon="-2.9591410">
        <ele>37.0</ele>
        <time>2022-11-01T11:24:42Z</time>
      </trkpt>
      <trkpt lat="36.7597880" lon="-2.9590240">
        <ele>37.0</ele>
        <time>2022-11-01T11:24:43Z</time>
      </trkpt>
      <trkpt lat="36.7597640" lon="-2.9589090">
        <ele>37.2</ele>
        <time>2022-11-01T11:24:44Z</time>
      </trkpt>
      <trkpt lat="36.7597360" lon="-2.9587940">
        <ele>37.2</ele>
        <time>2022-11-01T11:24:45Z</time>
      </trkpt>
      <trkpt lat="36.7597070" lon="-2.9586830">
        <ele>37.2</ele>
        <time>2022-11-01T11:24:46Z</time>
      </trkpt>
      <trkpt lat="36.7596770" lon="-2.9585710">
        <ele>37.2</ele>
        <time>2022-11-01T11:24:47Z</time>
      </trkpt>
      <trkpt lat="36.7596470" lon="-2.9584600">
        <ele>37.0</ele>
        <time>2022-11-01T11:24:48Z</time>
      </trkpt>
      <trkpt lat="36.7596170" lon="-2.9583480">
        <ele>37.0</ele>
        <time>2022-11-01T11:24:49Z</time>
      </trkpt>
      <trkpt lat="36.7595870" lon="-2.9582390">
        <ele>36.8</ele>
        <time>2022-11-01T11:24:50Z</time>
      </trkpt>
      <trkpt lat="36.7595550" lon="-2.9581300">
        <ele>36.8</ele>
        <time>2022-11-01T11:24:51Z</time>
      </trkpt>
      <trkpt lat="36.7595240" lon="-2.9580210">
        <ele>36.8</ele>
        <time>2022-11-01T11:24:52Z</time>
      </trkpt>
      <trkpt lat="36.7594940" lon="-2.9579140">
        <ele>36.8</ele>
        <time>2022-11-01T11:24:53Z</time>
      </trkpt>
      <trkpt lat="36.7594620" lon="-2.9578050">
        <ele>36.8</ele>
        <time>2022-11-01T11:24:54Z</time>
      </trkpt>
      <trkpt lat="36.7594310" lon="-2.9576960">
        <ele>36.8</ele>
        <time>2022-11-01T11:24:55Z</time>
      </trkpt>
      <trkpt lat="36.7593990" lon="-2.9575870">
        <ele>36.8</ele>
        <time>2022-11-01T11:24:56Z</time>
      </trkpt>
      <trkpt lat="36.7593680" lon="-2.9574780">
        <ele>36.8</ele>
        <time>2022-11-01T11:24:57Z</time>
      </trkpt>
      <trkpt lat="36.7593360" lon="-2.9573680">
        <ele>36.8</ele>
        <time>2022-11-01T11:24:58Z</time>
      </trkpt>
      <trkpt lat="36.7593030" lon="-2.9572620">
        <ele>36.8</ele>
        <time>2022-11-01T11:24:59Z</time>
      </trkpt>
      <trkpt lat="36.7592700" lon="-2.9571570">
        <ele>36.8</ele>
        <time>2022-11-01T11:25:00Z</time>
      </trkpt>
      <trkpt lat="36.7592370" lon="-2.9570510">
        <ele>36.8</ele>
        <time>2022-11-01T11:25:01Z</time>
      </trkpt>
      <trkpt lat="36.7592050" lon="-2.9569450">
        <ele>36.8</ele>
        <time>2022-11-01T11:25:02Z</time>
      </trkpt>
      <trkpt lat="36.7591740" lon="-2.9568390">
        <ele>36.8</ele>
        <time>2022-11-01T11:25:03Z</time>
      </trkpt>
      <trkpt lat="36.7591460" lon="-2.9567340">
        <ele>36.6</ele>
        <time>2022-11-01T11:25:04Z</time>
      </trkpt>
      <trkpt lat="36.7591170" lon="-2.9566280">
        <ele>36.6</ele>
        <time>2022-11-01T11:25:05Z</time>
      </trkpt>
      <trkpt lat="36.7590880" lon="-2.9565220">
        <ele>36.4</ele>
        <time>2022-11-01T11:25:06Z</time>
      </trkpt>
      <trkpt lat="36.7590600" lon="-2.9564150">
        <ele>36.4</ele>
        <time>2022-11-01T11:25:07Z</time>
      </trkpt>
      <trkpt lat="36.7590320" lon="-2.9563100">
        <ele>36.4</ele>
        <time>2022-11-01T11:25:08Z</time>
      </trkpt>
      <trkpt lat="36.7590060" lon="-2.9562030">
        <ele>36.4</ele>
        <time>2022-11-01T11:25:09Z</time>
      </trkpt>
      <trkpt lat="36.7589780" lon="-2.9560940">
        <ele>36.2</ele>
        <time>2022-11-01T11:25:10Z</time>
      </trkpt>
      <trkpt lat="36.7589510" lon="-2.9559860">
        <ele>36.0</ele>
        <time>2022-11-01T11:25:11Z</time>
      </trkpt>
      <trkpt lat="36.7589220" lon="-2.9558780">
        <ele>36.0</ele>
        <time>2022-11-01T11:25:12Z</time>
      </trkpt>
      <trkpt lat="36.7588980" lon="-2.9557670">
        <ele>35.8</ele>
        <time>2022-11-01T11:25:13Z</time>
      </trkpt>
      <trkpt lat="36.7588770" lon="-2.9556560">
        <ele>35.6</ele>
        <time>2022-11-01T11:25:14Z</time>
      </trkpt>
      <trkpt lat="36.7588590" lon="-2.9555420">
        <ele>35.4</ele>
        <time>2022-11-01T11:25:15Z</time>
      </trkpt>
      <trkpt lat="36.7588370" lon="-2.9554280">
        <ele>35.2</ele>
        <time>2022-11-01T11:25:16Z</time>
      </trkpt>
      <trkpt lat="36.7588160" lon="-2.9553150">
        <ele>35.0</ele>
        <time>2022-11-01T11:25:17Z</time>
      </trkpt>
      <trkpt lat="36.7587920" lon="-2.9552010">
        <ele>34.6</ele>
        <time>2022-11-01T11:25:18Z</time>
      </trkpt>
      <trkpt lat="36.7587670" lon="-2.9550840">
        <ele>34.4</ele>
        <time>2022-11-01T11:25:19Z</time>
      </trkpt>
      <trkpt lat="36.7587420" lon="-2.9549650">
        <ele>34.2</ele>
        <time>2022-11-01T11:25:20Z</time>
      </trkpt>
      <trkpt lat="36.7587170" lon="-2.9548430">
        <ele>33.8</ele>
        <time>2022-11-01T11:25:21Z</time>
      </trkpt>
      <trkpt lat="36.7586940" lon="-2.9547220">
        <ele>33.6</ele>
        <time>2022-11-01T11:25:22Z</time>
      </trkpt>
      <trkpt lat="36.7586700" lon="-2.9545970">
        <ele>33.2</ele>
        <time>2022-11-01T11:25:23Z</time>
      </trkpt>
      <trkpt lat="36.7586450" lon="-2.9544710">
        <ele>32.8</ele>
        <time>2022-11-01T11:25:24Z</time>
      </trkpt>
      <trkpt lat="36.7586170" lon="-2.9543440">
        <ele>32.4</ele>
        <time>2022-11-01T11:25:25Z</time>
      </trkpt>
      <trkpt lat="36.7585930" lon="-2.9542140">
        <ele>32.0</ele>
        <time>2022-11-01T11:25:26Z</time>
      </trkpt>
      <trkpt lat="36.7585690" lon="-2.9540820">
        <ele>31.6</ele>
        <time>2022-11-01T11:25:27Z</time>
      </trkpt>
      <trkpt lat="36.7585480" lon="-2.9539510">
        <ele>31.2</ele>
        <time>2022-11-01T11:25:28Z</time>
      </trkpt>
      <trkpt lat="36.7585230" lon="-2.9538190">
        <ele>30.8</ele>
        <time>2022-11-01T11:25:29Z</time>
      </trkpt>
      <trkpt lat="36.7584950" lon="-2.9536850">
        <ele>30.2</ele>
        <time>2022-11-01T11:25:30Z</time>
      </trkpt>
      <trkpt lat="36.7584660" lon="-2.9535540">
        <ele>29.8</ele>
        <time>2022-11-01T11:25:31Z</time>
      </trkpt>
      <trkpt lat="36.7584360" lon="-2.9534180">
        <ele>29.6</ele>
        <time>2022-11-01T11:25:32Z</time>
      </trkpt>
      <trkpt lat="36.7584080" lon="-2.9532800">
        <ele>29.0</ele>
        <time>2022-11-01T11:25:33Z</time>
      </trkpt>
      <trkpt lat="36.7583810" lon="-2.9531410">
        <ele>28.6</ele>
        <time>2022-11-01T11:25:34Z</time>
      </trkpt>
      <trkpt lat="36.7583540" lon="-2.9530010">
        <ele>28.2</ele>
        <time>2022-11-01T11:25:35Z</time>
      </trkpt>
      <trkpt lat="36.7583280" lon="-2.9528630">
        <ele>27.8</ele>
        <time>2022-11-01T11:25:36Z</time>
      </trkpt>
      <trkpt lat="36.7583000" lon="-2.9527220">
        <ele>27.4</ele>
        <time>2022-11-01T11:25:37Z</time>
      </trkpt>
      <trkpt lat="36.7582710" lon="-2.9525820">
        <ele>27.0</ele>
        <time>2022-11-01T11:25:38Z</time>
      </trkpt>
      <trkpt lat="36.7582410" lon="-2.9524420">
        <ele>26.8</ele>
        <time>2022-11-01T11:25:39Z</time>
      </trkpt>
      <trkpt lat="36.7582120" lon="-2.9523020">
        <ele>26.4</ele>
        <time>2022-11-01T11:25:40Z</time>
      </trkpt>
      <trkpt lat="36.7581830" lon="-2.9521620">
        <ele>26.2</ele>
        <time>2022-11-01T11:25:41Z</time>
      </trkpt>
      <trkpt lat="36.7581550" lon="-2.9520250">
        <ele>26.2</ele>
        <time>2022-11-01T11:25:42Z</time>
      </trkpt>
      <trkpt lat="36.7581270" lon="-2.9518880">
        <ele>25.8</ele>
        <time>2022-11-01T11:25:43Z</time>
      </trkpt>
      <trkpt lat="36.7581010" lon="-2.9517500">
        <ele>25.8</ele>
        <time>2022-11-01T11:25:44Z</time>
      </trkpt>
      <trkpt lat="36.7580750" lon="-2.9516150">
        <ele>25.6</ele>
        <time>2022-11-01T11:25:45Z</time>
      </trkpt>
      <trkpt lat="36.7580470" lon="-2.9514830">
        <ele>25.4</ele>
        <time>2022-11-01T11:25:46Z</time>
      </trkpt>
      <trkpt lat="36.7580220" lon="-2.9513520">
        <ele>25.4</ele>
        <time>2022-11-01T11:25:47Z</time>
      </trkpt>
      <trkpt lat="36.7579970" lon="-2.9512220">
        <ele>25.4</ele>
        <time>2022-11-01T11:25:48Z</time>
      </trkpt>
      <trkpt lat="36.7579720" lon="-2.9510950">
        <ele>25.2</ele>
        <time>2022-11-01T11:25:49Z</time>
      </trkpt>
      <trkpt lat="36.7579450" lon="-2.9509710">
        <ele>25.2</ele>
        <time>2022-11-01T11:25:50Z</time>
      </trkpt>
      <trkpt lat="36.7579200" lon="-2.9508470">
        <ele>25.2</ele>
        <time>2022-11-01T11:25:51Z</time>
      </trkpt>
      <trkpt lat="36.7578950" lon="-2.9507270">
        <ele>25.2</ele>
        <time>2022-11-01T11:25:52Z</time>
      </trkpt>
      <trkpt lat="36.7578720" lon="-2.9506150">
        <ele>25.2</ele>
        <time>2022-11-01T11:25:53Z</time>
      </trkpt>
      <trkpt lat="36.7578490" lon="-2.9505060">
        <ele>25.2</ele>
        <time>2022-11-01T11:25:54Z</time>
      </trkpt>
      <trkpt lat="36.7578270" lon="-2.9503990">
        <ele>25.2</ele>
        <time>2022-11-01T11:25:55Z</time>
      </trkpt>
      <trkpt lat="36.7578070" lon="-2.9502920">
        <ele>25.2</ele>
        <time>2022-11-01T11:25:56Z</time>
      </trkpt>
      <trkpt lat="36.7577860" lon="-2.9501850">
        <ele>25.2</ele>
        <time>2022-11-01T11:25:57Z</time>
      </trkpt>
      <trkpt lat="36.7577630" lon="-2.9500770">
        <ele>25.2</ele>
        <time>2022-11-01T11:25:58Z</time>
      </trkpt>
      <trkpt lat="36.7577420" lon="-2.9499680">
        <ele>25.2</ele>
        <time>2022-11-01T11:25:59Z</time>
      </trkpt>
      <trkpt lat="36.7577230" lon="-2.9498620">
        <ele>25.2</ele>
        <time>2022-11-01T11:26:00Z</time>
      </trkpt>
      <trkpt lat="36.7577030" lon="-2.9497560">
        <ele>25.0</ele>
        <time>2022-11-01T11:26:01Z</time>
      </trkpt>
      <trkpt lat="36.7576840" lon="-2.9496510">
        <ele>25.0</ele>
        <time>2022-11-01T11:26:02Z</time>
      </trkpt>
      <trkpt lat="36.7576620" lon="-2.9495490">
        <ele>24.8</ele>
        <time>2022-11-01T11:26:03Z</time>
      </trkpt>
      <trkpt lat="36.7576400" lon="-2.9494480">
        <ele>24.8</ele>
        <time>2022-11-01T11:26:04Z</time>
      </trkpt>
      <trkpt lat="36.7576200" lon="-2.9493480">
        <ele>24.8</ele>
        <time>2022-11-01T11:26:05Z</time>
      </trkpt>
      <trkpt lat="36.7576000" lon="-2.9492510">
        <ele>24.8</ele>
        <time>2022-11-01T11:26:06Z</time>
      </trkpt>
      <trkpt lat="36.7575800" lon="-2.9491530">
        <ele>24.6</ele>
        <time>2022-11-01T11:26:07Z</time>
      </trkpt>
      <trkpt lat="36.7575610" lon="-2.9490560">
        <ele>24.6</ele>
        <time>2022-11-01T11:26:08Z</time>
      </trkpt>
      <trkpt lat="36.7575420" lon="-2.9489580">
        <ele>24.6</ele>
        <time>2022-11-01T11:26:09Z</time>
      </trkpt>
      <trkpt lat="36.7575230" lon="-2.9488590">
        <ele>24.6</ele>
        <time>2022-11-01T11:26:10Z</time>
      </trkpt>
      <trkpt lat="36.7575050" lon="-2.9487590">
        <ele>24.4</ele>
        <time>2022-11-01T11:26:11Z</time>
      </trkpt>
      <trkpt lat="36.7574860" lon="-2.9486580">
        <ele>24.4</ele>
        <time>2022-11-01T11:26:12Z</time>
      </trkpt>
      <trkpt lat="36.7574670" lon="-2.9485570">
        <ele>24.4</ele>
        <time>2022-11-01T11:26:13Z</time>
      </trkpt>
      <trkpt lat="36.7574460" lon="-2.9484550">
        <ele>24.4</ele>
        <time>2022-11-01T11:26:14Z</time>
      </trkpt>
      <trkpt lat="36.7574250" lon="-2.9483550">
        <ele>24.4</ele>
        <time>2022-11-01T11:26:15Z</time>
      </trkpt>
      <trkpt lat="36.7574050" lon="-2.9482540">
        <ele>24.4</ele>
        <time>2022-11-01T11:26:16Z</time>
      </trkpt>
      <trkpt lat="36.7573860" lon="-2.9481520">
        <ele>24.4</ele>
        <time>2022-11-01T11:26:17Z</time>
      </trkpt>
      <trkpt lat="36.7573670" lon="-2.9480500">
        <ele>24.4</ele>
        <time>2022-11-01T11:26:18Z</time>
      </trkpt>
      <trkpt lat="36.7573480" lon="-2.9479480">
        <ele>24.4</ele>
        <time>2022-11-01T11:26:19Z</time>
      </trkpt>
      <trkpt lat="36.7573270" lon="-2.9478480">
        <ele>24.2</ele>
        <time>2022-11-01T11:26:20Z</time>
      </trkpt>
      <trkpt lat="36.7573070" lon="-2.9477480">
        <ele>24.2</ele>
        <time>2022-11-01T11:26:21Z</time>
      </trkpt>
      <trkpt lat="36.7572880" lon="-2.9476490">
        <ele>24.2</ele>
        <time>2022-11-01T11:26:22Z</time>
      </trkpt>
      <trkpt lat="36.7572690" lon="-2.9475500">
        <ele>24.2</ele>
        <time>2022-11-01T11:26:23Z</time>
      </trkpt>
      <trkpt lat="36.7572500" lon="-2.9474520">
        <ele>24.0</ele>
        <time>2022-11-01T11:26:24Z</time>
      </trkpt>
      <trkpt lat="36.7572310" lon="-2.9473530">
        <ele>24.0</ele>
        <time>2022-11-01T11:26:25Z</time>
      </trkpt>
      <trkpt lat="36.7572120" lon="-2.9472560">
        <ele>24.0</ele>
        <time>2022-11-01T11:26:26Z</time>
      </trkpt>
      <trkpt lat="36.7571920" lon="-2.9471610">
        <ele>24.0</ele>
        <time>2022-11-01T11:26:27Z</time>
      </trkpt>
      <trkpt lat="36.7571750" lon="-2.9470670">
        <ele>24.0</ele>
        <time>2022-11-01T11:26:28Z</time>
      </trkpt>
      <trkpt lat="36.7571580" lon="-2.9469760">
        <ele>24.0</ele>
        <time>2022-11-01T11:26:29Z</time>
      </trkpt>
      <trkpt lat="36.7571410" lon="-2.9468890">
        <ele>24.0</ele>
        <time>2022-11-01T11:26:30Z</time>
      </trkpt>
      <trkpt lat="36.7571220" lon="-2.9468020">
        <ele>24.0</ele>
        <time>2022-11-01T11:26:31Z</time>
      </trkpt>
      <trkpt lat="36.7571050" lon="-2.9467130">
        <ele>24.0</ele>
        <time>2022-11-01T11:26:32Z</time>
      </trkpt>
      <trkpt lat="36.7570890" lon="-2.9466220">
        <ele>24.0</ele>
        <time>2022-11-01T11:26:33Z</time>
      </trkpt>
      <trkpt lat="36.7570720" lon="-2.9465280">
        <ele>24.0</ele>
        <time>2022-11-01T11:26:34Z</time>
      </trkpt>
      <trkpt lat="36.7570540" lon="-2.9464320">
        <ele>24.2</ele>
        <time>2022-11-01T11:26:35Z</time>
      </trkpt>
      <trkpt lat="36.7570360" lon="-2.9463350">
        <ele>24.0</ele>
        <time>2022-11-01T11:26:36Z</time>
      </trkpt>
      <trkpt lat="36.7570210" lon="-2.9462390">
        <ele>24.2</ele>
        <time>2022-11-01T11:26:37Z</time>
      </trkpt>
      <trkpt lat="36.7570020" lon="-2.9461400">
        <ele>24.2</ele>
        <time>2022-11-01T11:26:38Z</time>
      </trkpt>
      <trkpt lat="36.7569820" lon="-2.9460410">
        <ele>24.2</ele>
        <time>2022-11-01T11:26:39Z</time>
      </trkpt>
      <trkpt lat="36.7569610" lon="-2.9459440">
        <ele>24.2</ele>
        <time>2022-11-01T11:26:40Z</time>
      </trkpt>
      <trkpt lat="36.7569380" lon="-2.9458440">
        <ele>24.4</ele>
        <time>2022-11-01T11:26:41Z</time>
      </trkpt>
      <trkpt lat="36.7569160" lon="-2.9457450">
        <ele>24.2</ele>
        <time>2022-11-01T11:26:42Z</time>
      </trkpt>
      <trkpt lat="36.7568940" lon="-2.9456480">
        <ele>24.2</ele>
        <time>2022-11-01T11:26:43Z</time>
      </trkpt>
      <trkpt lat="36.7568730" lon="-2.9455520">
        <ele>24.4</ele>
        <time>2022-11-01T11:26:44Z</time>
      </trkpt>
      <trkpt lat="36.7568500" lon="-2.9454570">
        <ele>24.4</ele>
        <time>2022-11-01T11:26:45Z</time>
      </trkpt>
      <trkpt lat="36.7568260" lon="-2.9453620">
        <ele>24.4</ele>
        <time>2022-11-01T11:26:46Z</time>
      </trkpt>
      <trkpt lat="36.7568030" lon="-2.9452690">
        <ele>24.4</ele>
        <time>2022-11-01T11:26:47Z</time>
      </trkpt>
      <trkpt lat="36.7567800" lon="-2.9451760">
        <ele>24.6</ele>
        <time>2022-11-01T11:26:48Z</time>
      </trkpt>
      <trkpt lat="36.7567550" lon="-2.9450840">
        <ele>24.6</ele>
        <time>2022-11-01T11:26:49Z</time>
      </trkpt>
      <trkpt lat="36.7567290" lon="-2.9449930">
        <ele>24.8</ele>
        <time>2022-11-01T11:26:50Z</time>
      </trkpt>
      <trkpt lat="36.7567020" lon="-2.9449040">
        <ele>24.8</ele>
        <time>2022-11-01T11:26:51Z</time>
      </trkpt>
      <trkpt lat="36.7566750" lon="-2.9448150">
        <ele>25.0</ele>
        <time>2022-11-01T11:26:52Z</time>
      </trkpt>
      <trkpt lat="36.7566470" lon="-2.9447280">
        <ele>25.2</ele>
        <time>2022-11-01T11:26:53Z</time>
      </trkpt>
      <trkpt lat="36.7566190" lon="-2.9446410">
        <ele>25.2</ele>
        <time>2022-11-01T11:26:54Z</time>
      </trkpt>
      <trkpt lat="36.7565910" lon="-2.9445560">
        <ele>25.2</ele>
        <time>2022-11-01T11:26:55Z</time>
      </trkpt>
      <trkpt lat="36.7565630" lon="-2.9444720">
        <ele>25.6</ele>
        <time>2022-11-01T11:26:56Z</time>
      </trkpt>
      <trkpt lat="36.7565350" lon="-2.9443880">
        <ele>25.6</ele>
        <time>2022-11-01T11:26:57Z</time>
      </trkpt>
      <trkpt lat="36.7565060" lon="-2.9443060">
        <ele>25.8</ele>
        <time>2022-11-01T11:26:58Z</time>
      </trkpt>
      <trkpt lat="36.7564740" lon="-2.9442230">
        <ele>25.8</ele>
        <time>2022-11-01T11:26:59Z</time>
      </trkpt>
      <trkpt lat="36.7564440" lon="-2.9441400">
        <ele>26.0</ele>
        <time>2022-11-01T11:27:00Z</time>
      </trkpt>
      <trkpt lat="36.7564130" lon="-2.9440560">
        <ele>26.2</ele>
        <time>2022-11-01T11:27:01Z</time>
      </trkpt>
      <trkpt lat="36.7563810" lon="-2.9439760">
        <ele>26.2</ele>
        <time>2022-11-01T11:27:02Z</time>
      </trkpt>
      <trkpt lat="36.7563490" lon="-2.9438970">
        <ele>26.4</ele>
        <time>2022-11-01T11:27:03Z</time>
      </trkpt>
      <trkpt lat="36.7563180" lon="-2.9438170">
        <ele>26.6</ele>
        <time>2022-11-01T11:27:04Z</time>
      </trkpt>
      <trkpt lat="36.7562870" lon="-2.9437370">
        <ele>26.8</ele>
        <time>2022-11-01T11:27:05Z</time>
      </trkpt>
      <trkpt lat="36.7562560" lon="-2.9436570">
        <ele>26.8</ele>
        <time>2022-11-01T11:27:06Z</time>
      </trkpt>
      <trkpt lat="36.7562230" lon="-2.9435770">
        <ele>27.0</ele>
        <time>2022-11-01T11:27:07Z</time>
      </trkpt>
      <trkpt lat="36.7561920" lon="-2.9434980">
        <ele>27.2</ele>
        <time>2022-11-01T11:27:08Z</time>
      </trkpt>
      <trkpt lat="36.7561590" lon="-2.9434200">
        <ele>27.2</ele>
        <time>2022-11-01T11:27:09Z</time>
      </trkpt>
      <trkpt lat="36.7561250" lon="-2.9433440">
        <ele>27.4</ele>
        <time>2022-11-01T11:27:10Z</time>
      </trkpt>
      <trkpt lat="36.7560920" lon="-2.9432690">
        <ele>27.6</ele>
        <time>2022-11-01T11:27:11Z</time>
      </trkpt>
      <trkpt lat="36.7560580" lon="-2.9431940">
        <ele>27.6</ele>
        <time>2022-11-01T11:27:12Z</time>
      </trkpt>
      <trkpt lat="36.7560250" lon="-2.9431210">
        <ele>27.8</ele>
        <time>2022-11-01T11:27:13Z</time>
      </trkpt>
      <trkpt lat="36.7559910" lon="-2.9430490">
        <ele>27.8</ele>
        <time>2022-11-01T11:27:14Z</time>
      </trkpt>
      <trkpt lat="36.7559560" lon="-2.9429780">
        <ele>28.0</ele>
        <time>2022-11-01T11:27:15Z</time>
      </trkpt>
      <trkpt lat="36.7559220" lon="-2.9429060">
        <ele>28.2</ele>
        <time>2022-11-01T11:27:16Z</time>
      </trkpt>
      <trkpt lat="36.7558880" lon="-2.9428360">
        <ele>28.2</ele>
        <time>2022-11-01T11:27:17Z</time>
      </trkpt>
      <trkpt lat="36.7558540" lon="-2.9427660">
        <ele>28.2</ele>
        <time>2022-11-01T11:27:18Z</time>
      </trkpt>
      <trkpt lat="36.7558200" lon="-2.9426990">
        <ele>28.2</ele>
        <time>2022-11-01T11:27:19Z</time>
      </trkpt>
      <trkpt lat="36.7557850" lon="-2.9426310">
        <ele>28.4</ele>
        <time>2022-11-01T11:27:20Z</time>
      </trkpt>
      <trkpt lat="36.7557500" lon="-2.9425640">
        <ele>28.4</ele>
        <time>2022-11-01T11:27:21Z</time>
      </trkpt>
      <trkpt lat="36.7557150" lon="-2.9424970">
        <ele>28.6</ele>
        <time>2022-11-01T11:27:22Z</time>
      </trkpt>
      <trkpt lat="36.7556800" lon="-2.9424330">
        <ele>28.6</ele>
        <time>2022-11-01T11:27:23Z</time>
      </trkpt>
      <trkpt lat="36.7556450" lon="-2.9423690">
        <ele>28.6</ele>
        <time>2022-11-01T11:27:24Z</time>
      </trkpt>
      <trkpt lat="36.7556090" lon="-2.9423040">
        <ele>28.6</ele>
        <time>2022-11-01T11:27:25Z</time>
      </trkpt>
      <trkpt lat="36.7555740" lon="-2.9422410">
        <ele>28.8</ele>
        <time>2022-11-01T11:27:26Z</time>
      </trkpt>
      <trkpt lat="36.7555390" lon="-2.9421780">
        <ele>28.8</ele>
        <time>2022-11-01T11:27:27Z</time>
      </trkpt>
      <trkpt lat="36.7555050" lon="-2.9421150">
        <ele>29.0</ele>
        <time>2022-11-01T11:27:28Z</time>
      </trkpt>
      <trkpt lat="36.7554720" lon="-2.9420530">
        <ele>29.0</ele>
        <time>2022-11-01T11:27:29Z</time>
      </trkpt>
      <trkpt lat="36.7554420" lon="-2.9419890">
        <ele>29.0</ele>
        <time>2022-11-01T11:27:30Z</time>
      </trkpt>
      <trkpt lat="36.7554120" lon="-2.9419260">
        <ele>29.2</ele>
        <time>2022-11-01T11:27:31Z</time>
      </trkpt>
      <trkpt lat="36.7553820" lon="-2.9418620">
        <ele>29.2</ele>
        <time>2022-11-01T11:27:32Z</time>
      </trkpt>
      <trkpt lat="36.7553490" lon="-2.9418000">
        <ele>29.2</ele>
        <time>2022-11-01T11:27:33Z</time>
      </trkpt>
      <trkpt lat="36.7553150" lon="-2.9417390">
        <ele>29.2</ele>
        <time>2022-11-01T11:27:34Z</time>
      </trkpt>
      <trkpt lat="36.7552820" lon="-2.9416760">
        <ele>29.2</ele>
        <time>2022-11-01T11:27:35Z</time>
      </trkpt>
      <trkpt lat="36.7552500" lon="-2.9416140">
        <ele>29.4</ele>
        <time>2022-11-01T11:27:36Z</time>
      </trkpt>
      <trkpt lat="36.7552170" lon="-2.9415500">
        <ele>29.4</ele>
        <time>2022-11-01T11:27:37Z</time>
      </trkpt>
      <trkpt lat="36.7551850" lon="-2.9414850">
        <ele>29.6</ele>
        <time>2022-11-01T11:27:38Z</time>
      </trkpt>
      <trkpt lat="36.7551540" lon="-2.9414210">
        <ele>29.6</ele>
        <time>2022-11-01T11:27:39Z</time>
      </trkpt>
      <trkpt lat="36.7551230" lon="-2.9413560">
        <ele>29.6</ele>
        <time>2022-11-01T11:27:40Z</time>
      </trkpt>
      <trkpt lat="36.7550920" lon="-2.9412910">
        <ele>29.6</ele>
        <time>2022-11-01T11:27:41Z</time>
      </trkpt>
      <trkpt lat="36.7550630" lon="-2.9412250">
        <ele>29.6</ele>
        <time>2022-11-01T11:27:42Z</time>
      </trkpt>
      <trkpt lat="36.7550350" lon="-2.9411600">
        <ele>29.6</ele>
        <time>2022-11-01T11:27:43Z</time>
      </trkpt>
      <trkpt lat="36.7550070" lon="-2.9410940">
        <ele>29.6</ele>
        <time>2022-11-01T11:27:44Z</time>
      </trkpt>
      <trkpt lat="36.7549790" lon="-2.9410290">
        <ele>29.6</ele>
        <time>2022-11-01T11:27:45Z</time>
      </trkpt>
      <trkpt lat="36.7549500" lon="-2.9409630">
        <ele>29.6</ele>
        <time>2022-11-01T11:27:46Z</time>
      </trkpt>
      <trkpt lat="36.7549230" lon="-2.9408960">
        <ele>29.6</ele>
        <time>2022-11-01T11:27:47Z</time>
      </trkpt>
      <trkpt lat="36.7548970" lon="-2.9408270">
        <ele>29.6</ele>
        <time>2022-11-01T11:27:48Z</time>
      </trkpt>
      <trkpt lat="36.7548730" lon="-2.9407620">
        <ele>29.6</ele>
        <time>2022-11-01T11:27:49Z</time>
      </trkpt>
      <trkpt lat="36.7548480" lon="-2.9406950">
        <ele>29.6</ele>
        <time>2022-11-01T11:27:50Z</time>
      </trkpt>
      <trkpt lat="36.7548220" lon="-2.9406270">
        <ele>29.6</ele>
        <time>2022-11-01T11:27:51Z</time>
      </trkpt>
      <trkpt lat="36.7547970" lon="-2.9405600">
        <ele>29.6</ele>
        <time>2022-11-01T11:27:52Z</time>
      </trkpt>
      <trkpt lat="36.7547720" lon="-2.9404930">
        <ele>29.6</ele>
        <time>2022-11-01T11:27:53Z</time>
      </trkpt>
      <trkpt lat="36.7547470" lon="-2.9404220">
        <ele>29.6</ele>
        <time>2022-11-01T11:27:54Z</time>
      </trkpt>
      <trkpt lat="36.7547240" lon="-2.9403560">
        <ele>29.8</ele>
        <time>2022-11-01T11:27:55Z</time>
      </trkpt>
      <trkpt lat="36.7546990" lon="-2.9402870">
        <ele>29.6</ele>
        <time>2022-11-01T11:27:56Z</time>
      </trkpt>
      <trkpt lat="36.7546750" lon="-2.9402180">
        <ele>29.6</ele>
        <time>2022-11-01T11:27:57Z</time>
      </trkpt>
      <trkpt lat="36.7546500" lon="-2.9401490">
        <ele>29.6</ele>
        <time>2022-11-01T11:27:58Z</time>
      </trkpt>
      <trkpt lat="36.7546230" lon="-2.9400790">
        <ele>29.6</ele>
        <time>2022-11-01T11:27:59Z</time>
      </trkpt>
      <trkpt lat="36.7545960" lon="-2.9400090">
        <ele>29.8</ele>
        <time>2022-11-01T11:28:00Z</time>
      </trkpt>
      <trkpt lat="36.7545710" lon="-2.9399380">
        <ele>29.6</ele>
        <time>2022-11-01T11:28:01Z</time>
      </trkpt>
      <trkpt lat="36.7545460" lon="-2.9398670">
        <ele>29.8</ele>
        <time>2022-11-01T11:28:02Z</time>
      </trkpt>
      <trkpt lat="36.7545210" lon="-2.9397960">
        <ele>29.8</ele>
        <time>2022-11-01T11:28:03Z</time>
      </trkpt>
      <trkpt lat="36.7544970" lon="-2.9397250">
        <ele>29.6</ele>
        <time>2022-11-01T11:28:04Z</time>
      </trkpt>
      <trkpt lat="36.7544720" lon="-2.9396560">
        <ele>29.8</ele>
        <time>2022-11-01T11:28:05Z</time>
      </trkpt>
      <trkpt lat="36.7544470" lon="-2.9395860">
        <ele>29.8</ele>
        <time>2022-11-01T11:28:06Z</time>
      </trkpt>
      <trkpt lat="36.7544220" lon="-2.9395150">
        <ele>30.0</ele>
        <time>2022-11-01T11:28:07Z</time>
      </trkpt>
      <trkpt lat="36.7543970" lon="-2.9394440">
        <ele>30.0</ele>
        <time>2022-11-01T11:28:08Z</time>
      </trkpt>
      <trkpt lat="36.7543730" lon="-2.9393710">
        <ele>30.0</ele>
        <time>2022-11-01T11:28:09Z</time>
      </trkpt>
      <trkpt lat="36.7543490" lon="-2.9392990">
        <ele>30.2</ele>
        <time>2022-11-01T11:28:10Z</time>
      </trkpt>
      <trkpt lat="36.7543250" lon="-2.9392270">
        <ele>30.2</ele>
        <time>2022-11-01T11:28:11Z</time>
      </trkpt>
      <trkpt lat="36.7543010" lon="-2.9391550">
        <ele>30.2</ele>
        <time>2022-11-01T11:28:12Z</time>
      </trkpt>
      <trkpt lat="36.7542770" lon="-2.9390830">
        <ele>30.4</ele>
        <time>2022-11-01T11:28:13Z</time>
      </trkpt>
      <trkpt lat="36.7542540" lon="-2.9390120">
        <ele>30.4</ele>
        <time>2022-11-01T11:28:14Z</time>
      </trkpt>
      <trkpt lat="36.7542320" lon="-2.9389410">
        <ele>30.6</ele>
        <time>2022-11-01T11:28:15Z</time>
      </trkpt>
      <trkpt lat="36.7542110" lon="-2.9388670">
        <ele>30.6</ele>
        <time>2022-11-01T11:28:16Z</time>
      </trkpt>
      <trkpt lat="36.7541920" lon="-2.9387920">
        <ele>30.8</ele>
        <time>2022-11-01T11:28:17Z</time>
      </trkpt>
      <trkpt lat="36.7541740" lon="-2.9387190">
        <ele>30.8</ele>
        <time>2022-11-01T11:28:18Z</time>
      </trkpt>
      <trkpt lat="36.7541580" lon="-2.9386450">
        <ele>30.8</ele>
        <time>2022-11-01T11:28:19Z</time>
      </trkpt>
      <trkpt lat="36.7541420" lon="-2.9385700">
        <ele>31.0</ele>
        <time>2022-11-01T11:28:20Z</time>
      </trkpt>
      <trkpt lat="36.7541260" lon="-2.9384940">
        <ele>31.0</ele>
        <time>2022-11-01T11:28:21Z</time>
      </trkpt>
      <trkpt lat="36.7541110" lon="-2.9384180">
        <ele>31.0</ele>
        <time>2022-11-01T11:28:22Z</time>
      </trkpt>
      <trkpt lat="36.7540970" lon="-2.9383430">
        <ele>31.2</ele>
        <time>2022-11-01T11:28:23Z</time>
      </trkpt>
      <trkpt lat="36.7540830" lon="-2.9382680">
        <ele>31.2</ele>
        <time>2022-11-01T11:28:24Z</time>
      </trkpt>
      <trkpt lat="36.7540710" lon="-2.9381920">
        <ele>31.4</ele>
        <time>2022-11-01T11:28:25Z</time>
      </trkpt>
      <trkpt lat="36.7540590" lon="-2.9381140">
        <ele>31.4</ele>
        <time>2022-11-01T11:28:26Z</time>
      </trkpt>
      <trkpt lat="36.7540460" lon="-2.9380370">
        <ele>31.6</ele>
        <time>2022-11-01T11:28:27Z</time>
      </trkpt>
      <trkpt lat="36.7540340" lon="-2.9379600">
        <ele>31.6</ele>
        <time>2022-11-01T11:28:28Z</time>
      </trkpt>
      <trkpt lat="36.7540220" lon="-2.9378840">
        <ele>31.8</ele>
        <time>2022-11-01T11:28:29Z</time>
      </trkpt>
      <trkpt lat="36.7540090" lon="-2.9378080">
        <ele>31.8</ele>
        <time>2022-11-01T11:28:30Z</time>
      </trkpt>
      <trkpt lat="36.7539980" lon="-2.9377350">
        <ele>32.0</ele>
        <time>2022-11-01T11:28:31Z</time>
      </trkpt>
      <trkpt lat="36.7539860" lon="-2.9376620">
        <ele>32.0</ele>
        <time>2022-11-01T11:28:32Z</time>
      </trkpt>
      <trkpt lat="36.7539740" lon="-2.9375880">
        <ele>32.0</ele>
        <time>2022-11-01T11:28:33Z</time>
      </trkpt>
      <trkpt lat="36.7539600" lon="-2.9375150">
        <ele>32.2</ele>
        <time>2022-11-01T11:28:34Z</time>
      </trkpt>
      <trkpt lat="36.7539460" lon="-2.9374410">
        <ele>32.2</ele>
        <time>2022-11-01T11:28:35Z</time>
      </trkpt>
      <trkpt lat="36.7539330" lon="-2.9373690">
        <ele>32.4</ele>
        <time>2022-11-01T11:28:36Z</time>
      </trkpt>
      <trkpt lat="36.7539210" lon="-2.9372960">
        <ele>32.4</ele>
        <time>2022-11-01T11:28:37Z</time>
      </trkpt>
      <trkpt lat="36.7539080" lon="-2.9372240">
        <ele>32.6</ele>
        <time>2022-11-01T11:28:38Z</time>
      </trkpt>
      <trkpt lat="36.7538960" lon="-2.9371520">
        <ele>32.6</ele>
        <time>2022-11-01T11:28:39Z</time>
      </trkpt>
      <trkpt lat="36.7538820" lon="-2.9370830">
        <ele>32.8</ele>
        <time>2022-11-01T11:28:40Z</time>
      </trkpt>
      <trkpt lat="36.7538670" lon="-2.9370120">
        <ele>32.8</ele>
        <time>2022-11-01T11:28:41Z</time>
      </trkpt>
      <trkpt lat="36.7538540" lon="-2.9369400">
        <ele>33.0</ele>
        <time>2022-11-01T11:28:42Z</time>
      </trkpt>
      <trkpt lat="36.7538410" lon="-2.9368690">
        <ele>33.0</ele>
        <time>2022-11-01T11:28:43Z</time>
      </trkpt>
      <trkpt lat="36.7538270" lon="-2.9367980">
        <ele>33.2</ele>
        <time>2022-11-01T11:28:44Z</time>
      </trkpt>
      <trkpt lat="36.7538150" lon="-2.9367260">
        <ele>33.2</ele>
        <time>2022-11-01T11:28:45Z</time>
      </trkpt>
      <trkpt lat="36.7538020" lon="-2.9366540">
        <ele>33.2</ele>
        <time>2022-11-01T11:28:46Z</time>
      </trkpt>
      <trkpt lat="36.7537870" lon="-2.9365830">
        <ele>33.4</ele>
        <time>2022-11-01T11:28:47Z</time>
      </trkpt>
      <trkpt lat="36.7537730" lon="-2.9365120">
        <ele>33.4</ele>
        <time>2022-11-01T11:28:48Z</time>
      </trkpt>
      <trkpt lat="36.7537580" lon="-2.9364420">
        <ele>33.6</ele>
        <time>2022-11-01T11:28:49Z</time>
      </trkpt>
      <trkpt lat="36.7537430" lon="-2.9363710">
        <ele>33.6</ele>
        <time>2022-11-01T11:28:50Z</time>
      </trkpt>
      <trkpt lat="36.7537270" lon="-2.9363020">
        <ele>33.8</ele>
        <time>2022-11-01T11:28:51Z</time>
      </trkpt>
      <trkpt lat="36.7537120" lon="-2.9362310">
        <ele>34.0</ele>
        <time>2022-11-01T11:28:52Z</time>
      </trkpt>
      <trkpt lat="36.7536970" lon="-2.9361610">
        <ele>34.0</ele>
        <time>2022-11-01T11:28:53Z</time>
      </trkpt>
      <trkpt lat="36.7536800" lon="-2.9360920">
        <ele>34.2</ele>
        <time>2022-11-01T11:28:54Z</time>
      </trkpt>
      <trkpt lat="36.7536640" lon="-2.9360230">
        <ele>34.2</ele>
        <time>2022-11-01T11:28:55Z</time>
      </trkpt>
      <trkpt lat="36.7536490" lon="-2.9359520">
        <ele>34.4</ele>
        <time>2022-11-01T11:28:56Z</time>
      </trkpt>
      <trkpt lat="36.7536340" lon="-2.9358830">
        <ele>34.4</ele>
        <time>2022-11-01T11:28:57Z</time>
      </trkpt>
      <trkpt lat="36.7536160" lon="-2.9358140">
        <ele>34.6</ele>
        <time>2022-11-01T11:28:58Z</time>
      </trkpt>
      <trkpt lat="36.7535980" lon="-2.9357450">
        <ele>34.8</ele>
        <time>2022-11-01T11:28:59Z</time>
      </trkpt>
      <trkpt lat="36.7535810" lon="-2.9356760">
        <ele>34.8</ele>
        <time>2022-11-01T11:29:00Z</time>
      </trkpt>
      <trkpt lat="36.7535650" lon="-2.9356070">
        <ele>35.0</ele>
        <time>2022-11-01T11:29:01Z</time>
      </trkpt>
      <trkpt lat="36.7535480" lon="-2.9355400">
        <ele>35.0</ele>
        <time>2022-11-01T11:29:02Z</time>
      </trkpt>
      <trkpt lat="36.7535310" lon="-2.9354700">
        <ele>35.2</ele>
        <time>2022-11-01T11:29:03Z</time>
      </trkpt>
      <trkpt lat="36.7535140" lon="-2.9353990">
        <ele>35.2</ele>
        <time>2022-11-01T11:29:04Z</time>
      </trkpt>
      <trkpt lat="36.7534960" lon="-2.9353270">
        <ele>35.4</ele>
        <time>2022-11-01T11:29:05Z</time>
      </trkpt>
      <trkpt lat="36.7534800" lon="-2.9352540">
        <ele>35.4</ele>
        <time>2022-11-01T11:29:06Z</time>
      </trkpt>
      <trkpt lat="36.7534620" lon="-2.9351800">
        <ele>35.4</ele>
        <time>2022-11-01T11:29:07Z</time>
      </trkpt>
      <trkpt lat="36.7534440" lon="-2.9351060">
        <ele>35.4</ele>
        <time>2022-11-01T11:29:08Z</time>
      </trkpt>
      <trkpt lat="36.7534250" lon="-2.9350310">
        <ele>35.6</ele>
        <time>2022-11-01T11:29:09Z</time>
      </trkpt>
      <trkpt lat="36.7534060" lon="-2.9349560">
        <ele>35.6</ele>
        <time>2022-11-01T11:29:10Z</time>
      </trkpt>
      <trkpt lat="36.7533860" lon="-2.9348800">
        <ele>35.8</ele>
        <time>2022-11-01T11:29:11Z</time>
      </trkpt>
      <trkpt lat="36.7533670" lon="-2.9348020">
        <ele>35.8</ele>
        <time>2022-11-01T11:29:12Z</time>
      </trkpt>
      <trkpt lat="36.7533480" lon="-2.9347250">
        <ele>35.8</ele>
        <time>2022-11-01T11:29:13Z</time>
      </trkpt>
      <trkpt lat="36.7533280" lon="-2.9346470">
        <ele>35.8</ele>
        <time>2022-11-01T11:29:14Z</time>
      </trkpt>
      <trkpt lat="36.7533090" lon="-2.9345690">
        <ele>35.8</ele>
        <time>2022-11-01T11:29:15Z</time>
      </trkpt>
      <trkpt lat="36.7532900" lon="-2.9344900">
        <ele>35.8</ele>
        <time>2022-11-01T11:29:16Z</time>
      </trkpt>
      <trkpt lat="36.7532710" lon="-2.9344130">
        <ele>35.8</ele>
        <time>2022-11-01T11:29:17Z</time>
      </trkpt>
      <trkpt lat="36.7532520" lon="-2.9343350">
        <ele>35.8</ele>
        <time>2022-11-01T11:29:18Z</time>
      </trkpt>
      <trkpt lat="36.7532340" lon="-2.9342570">
        <ele>35.8</ele>
        <time>2022-11-01T11:29:19Z</time>
      </trkpt>
      <trkpt lat="36.7532130" lon="-2.9341770">
        <ele>35.8</ele>
        <time>2022-11-01T11:29:20Z</time>
      </trkpt>
      <trkpt lat="36.7531930" lon="-2.9340980">
        <ele>35.8</ele>
        <time>2022-11-01T11:29:21Z</time>
      </trkpt>
      <trkpt lat="36.7531730" lon="-2.9340190">
        <ele>35.8</ele>
        <time>2022-11-01T11:29:22Z</time>
      </trkpt>
      <trkpt lat="36.7531530" lon="-2.9339380">
        <ele>35.8</ele>
        <time>2022-11-01T11:29:23Z</time>
      </trkpt>
      <trkpt lat="36.7531320" lon="-2.9338570">
        <ele>35.6</ele>
        <time>2022-11-01T11:29:24Z</time>
      </trkpt>
      <trkpt lat="36.7531110" lon="-2.9337770">
        <ele>35.8</ele>
        <time>2022-11-01T11:29:25Z</time>
      </trkpt>
      <trkpt lat="36.7530900" lon="-2.9336950">
        <ele>35.8</ele>
        <time>2022-11-01T11:29:26Z</time>
      </trkpt>
      <trkpt lat="36.7530710" lon="-2.9336140">
        <ele>35.8</ele>
        <time>2022-11-01T11:29:27Z</time>
      </trkpt>
      <trkpt lat="36.7530530" lon="-2.9335330">
        <ele>35.8</ele>
        <time>2022-11-01T11:29:28Z</time>
      </trkpt>
      <trkpt lat="36.7530330" lon="-2.9334520">
        <ele>35.8</ele>
        <time>2022-11-01T11:29:29Z</time>
      </trkpt>
      <trkpt lat="36.7530130" lon="-2.9333690">
        <ele>35.6</ele>
        <time>2022-11-01T11:29:30Z</time>
      </trkpt>
      <trkpt lat="36.7529920" lon="-2.9332860">
        <ele>35.6</ele>
        <time>2022-11-01T11:29:31Z</time>
      </trkpt>
      <trkpt lat="36.7529710" lon="-2.9332030">
        <ele>35.8</ele>
        <time>2022-11-01T11:29:32Z</time>
      </trkpt>
      <trkpt lat="36.7529490" lon="-2.9331190">
        <ele>35.8</ele>
        <time>2022-11-01T11:29:33Z</time>
      </trkpt>
      <trkpt lat="36.7529290" lon="-2.9330330">
        <ele>35.8</ele>
        <time>2022-11-01T11:29:34Z</time>
      </trkpt>
      <trkpt lat="36.7529080" lon="-2.9329480">
        <ele>35.6</ele>
        <time>2022-11-01T11:29:35Z</time>
      </trkpt>
      <trkpt lat="36.7528870" lon="-2.9328610">
        <ele>35.6</ele>
        <time>2022-11-01T11:29:36Z</time>
      </trkpt>
      <trkpt lat="36.7528670" lon="-2.9327730">
        <ele>35.6</ele>
        <time>2022-11-01T11:29:37Z</time>
      </trkpt>
      <trkpt lat="36.7528470" lon="-2.9326860">
        <ele>35.6</ele>
        <time>2022-11-01T11:29:38Z</time>
      </trkpt>
      <trkpt lat="36.7528270" lon="-2.9325990">
        <ele>35.6</ele>
        <time>2022-11-01T11:29:39Z</time>
      </trkpt>
      <trkpt lat="36.7528100" lon="-2.9325100">
        <ele>35.6</ele>
        <time>2022-11-01T11:29:40Z</time>
      </trkpt>
      <trkpt lat="36.7527930" lon="-2.9324220">
        <ele>35.8</ele>
        <time>2022-11-01T11:29:41Z</time>
      </trkpt>
      <trkpt lat="36.7527770" lon="-2.9323320">
        <ele>35.8</ele>
        <time>2022-11-01T11:29:42Z</time>
      </trkpt>
      <trkpt lat="36.7527610" lon="-2.9322440">
        <ele>35.8</ele>
        <time>2022-11-01T11:29:43Z</time>
      </trkpt>
      <trkpt lat="36.7527460" lon="-2.9321550">
        <ele>35.8</ele>
        <time>2022-11-01T11:29:44Z</time>
      </trkpt>
      <trkpt lat="36.7527320" lon="-2.9320670">
        <ele>35.8</ele>
        <time>2022-11-01T11:29:45Z</time>
      </trkpt>
      <trkpt lat="36.7527190" lon="-2.9319780">
        <ele>35.8</ele>
        <time>2022-11-01T11:29:46Z</time>
      </trkpt>
      <trkpt lat="36.7527080" lon="-2.9318890">
        <ele>36.0</ele>
        <time>2022-11-01T11:29:47Z</time>
      </trkpt>
      <trkpt lat="36.7526970" lon="-2.9318000">
        <ele>36.0</ele>
        <time>2022-11-01T11:29:48Z</time>
      </trkpt>
      <trkpt lat="36.7526880" lon="-2.9317100">
        <ele>36.0</ele>
        <time>2022-11-01T11:29:49Z</time>
      </trkpt>
      <trkpt lat="36.7526800" lon="-2.9316200">
        <ele>36.2</ele>
        <time>2022-11-01T11:29:50Z</time>
      </trkpt>
      <trkpt lat="36.7526740" lon="-2.9315310">
        <ele>36.0</ele>
        <time>2022-11-01T11:29:51Z</time>
      </trkpt>
      <trkpt lat="36.7526670" lon="-2.9314420">
        <ele>36.0</ele>
        <time>2022-11-01T11:29:52Z</time>
      </trkpt>
      <trkpt lat="36.7526610" lon="-2.9313540">
        <ele>36.0</ele>
        <time>2022-11-01T11:29:53Z</time>
      </trkpt>
      <trkpt lat="36.7526560" lon="-2.9312660">
        <ele>36.0</ele>
        <time>2022-11-01T11:29:54Z</time>
      </trkpt>
      <trkpt lat="36.7526510" lon="-2.9311770">
        <ele>36.0</ele>
        <time>2022-11-01T11:29:55Z</time>
      </trkpt>
      <trkpt lat="36.7526490" lon="-2.9310880">
        <ele>36.0</ele>
        <time>2022-11-01T11:29:56Z</time>
      </trkpt>
      <trkpt lat="36.7526490" lon="-2.9310000">
        <ele>36.0</ele>
        <time>2022-11-01T11:29:57Z</time>
      </trkpt>
      <trkpt lat="36.7526500" lon="-2.9309120">
        <ele>36.0</ele>
        <time>2022-11-01T11:29:58Z</time>
      </trkpt>
      <trkpt lat="36.7526520" lon="-2.9308240">
        <ele>36.0</ele>
        <time>2022-11-01T11:29:59Z</time>
      </trkpt>
      <trkpt lat="36.7526540" lon="-2.9307360">
        <ele>36.0</ele>
        <time>2022-11-01T11:30:00Z</time>
      </trkpt>
      <trkpt lat="36.7526580" lon="-2.9306490">
        <ele>36.2</ele>
        <time>2022-11-01T11:30:01Z</time>
      </trkpt>
      <trkpt lat="36.7526630" lon="-2.9305610">
        <ele>36.2</ele>
        <time>2022-11-01T11:30:02Z</time>
      </trkpt>
      <trkpt lat="36.7526690" lon="-2.9304730">
        <ele>36.2</ele>
        <time>2022-11-01T11:30:03Z</time>
      </trkpt>
      <trkpt lat="36.7526760" lon="-2.9303850">
        <ele>36.2</ele>
        <time>2022-11-01T11:30:04Z</time>
      </trkpt>
      <trkpt lat="36.7526850" lon="-2.9302960">
        <ele>36.4</ele>
        <time>2022-11-01T11:30:05Z</time>
      </trkpt>
      <trkpt lat="36.7526950" lon="-2.9302070">
        <ele>36.4</ele>
        <time>2022-11-01T11:30:06Z</time>
      </trkpt>
      <trkpt lat="36.7527060" lon="-2.9301170">
        <ele>36.2</ele>
        <time>2022-11-01T11:30:07Z</time>
      </trkpt>
      <trkpt lat="36.7527170" lon="-2.9300270">
        <ele>36.4</ele>
        <time>2022-11-01T11:30:08Z</time>
      </trkpt>
      <trkpt lat="36.7527280" lon="-2.9299380">
        <ele>36.4</ele>
        <time>2022-11-01T11:30:09Z</time>
      </trkpt>
      <trkpt lat="36.7527410" lon="-2.9298470">
        <ele>36.4</ele>
        <time>2022-11-01T11:30:10Z</time>
      </trkpt>
      <trkpt lat="36.7527550" lon="-2.9297570">
        <ele>36.4</ele>
        <time>2022-11-01T11:30:11Z</time>
      </trkpt>
      <trkpt lat="36.7527720" lon="-2.9296680">
        <ele>36.4</ele>
        <time>2022-11-01T11:30:12Z</time>
      </trkpt>
      <trkpt lat="36.7527890" lon="-2.9295790">
        <ele>36.4</ele>
        <time>2022-11-01T11:30:13Z</time>
      </trkpt>
      <trkpt lat="36.7528070" lon="-2.9294910">
        <ele>36.4</ele>
        <time>2022-11-01T11:30:14Z</time>
      </trkpt>
      <trkpt lat="36.7528250" lon="-2.9294030">
        <ele>36.4</ele>
        <time>2022-11-01T11:30:15Z</time>
      </trkpt>
      <trkpt lat="36.7528450" lon="-2.9293160">
        <ele>36.4</ele>
        <time>2022-11-01T11:30:16Z</time>
      </trkpt>
      <trkpt lat="36.7528660" lon="-2.9292300">
        <ele>36.4</ele>
        <time>2022-11-01T11:30:17Z</time>
      </trkpt>
      <trkpt lat="36.7528880" lon="-2.9291430">
        <ele>36.4</ele>
        <time>2022-11-01T11:30:18Z</time>
      </trkpt>
      <trkpt lat="36.7529100" lon="-2.9290570">
        <ele>36.6</ele>
        <time>2022-11-01T11:30:19Z</time>
      </trkpt>
      <trkpt lat="36.7529310" lon="-2.9289710">
        <ele>36.6</ele>
        <time>2022-11-01T11:30:20Z</time>
      </trkpt>
      <trkpt lat="36.7529510" lon="-2.9288850">
        <ele>36.6</ele>
        <time>2022-11-01T11:30:21Z</time>
      </trkpt>
      <trkpt lat="36.7529730" lon="-2.9287990">
        <ele>36.6</ele>
        <time>2022-11-01T11:30:22Z</time>
      </trkpt>
      <trkpt lat="36.7529950" lon="-2.9287130">
        <ele>36.6</ele>
        <time>2022-11-01T11:30:23Z</time>
      </trkpt>
      <trkpt lat="36.7530190" lon="-2.9286280">
        <ele>36.6</ele>
        <time>2022-11-01T11:30:24Z</time>
      </trkpt>
      <trkpt lat="36.7530430" lon="-2.9285430">
        <ele>36.6</ele>
        <time>2022-11-01T11:30:25Z</time>
      </trkpt>
      <trkpt lat="36.7530650" lon="-2.9284580">
        <ele>36.6</ele>
        <time>2022-11-01T11:30:26Z</time>
      </trkpt>
      <trkpt lat="36.7530840" lon="-2.9283740">
        <ele>36.6</ele>
        <time>2022-11-01T11:30:27Z</time>
      </trkpt>
      <trkpt lat="36.7531030" lon="-2.9282920">
        <ele>36.6</ele>
        <time>2022-11-01T11:30:28Z</time>
      </trkpt>
      <trkpt lat="36.7531250" lon="-2.9282080">
        <ele>36.6</ele>
        <time>2022-11-01T11:30:29Z</time>
      </trkpt>
      <trkpt lat="36.7531470" lon="-2.9281240">
        <ele>36.6</ele>
        <time>2022-11-01T11:30:30Z</time>
      </trkpt>
      <trkpt lat="36.7531690" lon="-2.9280390">
        <ele>36.6</ele>
        <time>2022-11-01T11:30:31Z</time>
      </trkpt>
      <trkpt lat="36.7531910" lon="-2.9279520">
        <ele>36.6</ele>
        <time>2022-11-01T11:30:32Z</time>
      </trkpt>
      <trkpt lat="36.7532130" lon="-2.9278640">
        <ele>36.6</ele>
        <time>2022-11-01T11:30:33Z</time>
      </trkpt>
      <trkpt lat="36.7532340" lon="-2.9277760">
        <ele>36.6</ele>
        <time>2022-11-01T11:30:34Z</time>
      </trkpt>
      <trkpt lat="36.7532530" lon="-2.9276860">
        <ele>36.4</ele>
        <time>2022-11-01T11:30:35Z</time>
      </trkpt>
      <trkpt lat="36.7532710" lon="-2.9275950">
        <ele>36.4</ele>
        <time>2022-11-01T11:30:36Z</time>
      </trkpt>
      <trkpt lat="36.7532880" lon="-2.9275030">
        <ele>36.4</ele>
        <time>2022-11-01T11:30:37Z</time>
      </trkpt>
      <trkpt lat="36.7533030" lon="-2.9274100">
        <ele>36.4</ele>
        <time>2022-11-01T11:30:38Z</time>
      </trkpt>
      <trkpt lat="36.7533140" lon="-2.9273160">
        <ele>36.4</ele>
        <time>2022-11-01T11:30:39Z</time>
      </trkpt>
      <trkpt lat="36.7533230" lon="-2.9272220">
        <ele>36.4</ele>
        <time>2022-11-01T11:30:40Z</time>
      </trkpt>
      <trkpt lat="36.7533290" lon="-2.9271270">
        <ele>36.4</ele>
        <time>2022-11-01T11:30:41Z</time>
      </trkpt>
      <trkpt lat="36.7533320" lon="-2.9270330">
        <ele>36.4</ele>
        <time>2022-11-01T11:30:42Z</time>
      </trkpt>
      <trkpt lat="36.7533320" lon="-2.9269370">
        <ele>36.4</ele>
        <time>2022-11-01T11:30:43Z</time>
      </trkpt>
      <trkpt lat="36.7533300" lon="-2.9268410">
        <ele>36.4</ele>
        <time>2022-11-01T11:30:44Z</time>
      </trkpt>
      <trkpt lat="36.7533260" lon="-2.9267460">
        <ele>36.2</ele>
        <time>2022-11-01T11:30:45Z</time>
      </trkpt>
      <trkpt lat="36.7533190" lon="-2.9266520">
        <ele>36.4</ele>
        <time>2022-11-01T11:30:46Z</time>
      </trkpt>
      <trkpt lat="36.7533090" lon="-2.9265600">
        <ele>36.4</ele>
        <time>2022-11-01T11:30:47Z</time>
      </trkpt>
      <trkpt lat="36.7532970" lon="-2.9264660">
        <ele>36.4</ele>
        <time>2022-11-01T11:30:48Z</time>
      </trkpt>
      <trkpt lat="36.7532830" lon="-2.9263720">
        <ele>36.4</ele>
        <time>2022-11-01T11:30:49Z</time>
      </trkpt>
      <trkpt lat="36.7532680" lon="-2.9262780">
        <ele>36.4</ele>
        <time>2022-11-01T11:30:50Z</time>
      </trkpt>
      <trkpt lat="36.7532530" lon="-2.9261850">
        <ele>36.4</ele>
        <time>2022-11-01T11:30:51Z</time>
      </trkpt>
      <trkpt lat="36.7532370" lon="-2.9260910">
        <ele>36.4</ele>
        <time>2022-11-01T11:30:52Z</time>
      </trkpt>
      <trkpt lat="36.7532200" lon="-2.9259990">
        <ele>36.4</ele>
        <time>2022-11-01T11:30:53Z</time>
      </trkpt>
      <trkpt lat="36.7532010" lon="-2.9259060">
        <ele>36.4</ele>
        <time>2022-11-01T11:30:54Z</time>
      </trkpt>
      <trkpt lat="36.7531830" lon="-2.9258130">
        <ele>36.4</ele>
        <time>2022-11-01T11:30:55Z</time>
      </trkpt>
      <trkpt lat="36.7531670" lon="-2.9257200">
        <ele>36.4</ele>
        <time>2022-11-01T11:30:56Z</time>
      </trkpt>
      <trkpt lat="36.7531500" lon="-2.9256300">
        <ele>36.4</ele>
        <time>2022-11-01T11:30:57Z</time>
      </trkpt>
      <trkpt lat="36.7531330" lon="-2.9255400">
        <ele>36.4</ele>
        <time>2022-11-01T11:30:58Z</time>
      </trkpt>
      <trkpt lat="36.7531170" lon="-2.9254500">
        <ele>36.4</ele>
        <time>2022-11-01T11:30:59Z</time>
      </trkpt>
      <trkpt lat="36.7531010" lon="-2.9253600">
        <ele>36.4</ele>
        <time>2022-11-01T11:31:00Z</time>
      </trkpt>
      <trkpt lat="36.7530860" lon="-2.9252710">
        <ele>36.4</ele>
        <time>2022-11-01T11:31:01Z</time>
      </trkpt>
      <trkpt lat="36.7530720" lon="-2.9251840">
        <ele>36.6</ele>
        <time>2022-11-01T11:31:02Z</time>
      </trkpt>
      <trkpt lat="36.7530590" lon="-2.9250960">
        <ele>36.6</ele>
        <time>2022-11-01T11:31:03Z</time>
      </trkpt>
      <trkpt lat="36.7530460" lon="-2.9250070">
        <ele>36.6</ele>
        <time>2022-11-01T11:31:04Z</time>
      </trkpt>
      <trkpt lat="36.7530360" lon="-2.9249170">
        <ele>36.6</ele>
        <time>2022-11-01T11:31:05Z</time>
      </trkpt>
      <trkpt lat="36.7530280" lon="-2.9248280">
        <ele>36.6</ele>
        <time>2022-11-01T11:31:06Z</time>
      </trkpt>
      <trkpt lat="36.7530230" lon="-2.9247380">
        <ele>36.8</ele>
        <time>2022-11-01T11:31:07Z</time>
      </trkpt>
      <trkpt lat="36.7530210" lon="-2.9246480">
        <ele>36.8</ele>
        <time>2022-11-01T11:31:08Z</time>
      </trkpt>
      <trkpt lat="36.7530220" lon="-2.9245580">
        <ele>36.8</ele>
        <time>2022-11-01T11:31:09Z</time>
      </trkpt>
      <trkpt lat="36.7530250" lon="-2.9244670">
        <ele>36.8</ele>
        <time>2022-11-01T11:31:10Z</time>
      </trkpt>
      <trkpt lat="36.7530300" lon="-2.9243760">
        <ele>36.8</ele>
        <time>2022-11-01T11:31:11Z</time>
      </trkpt>
      <trkpt lat="36.7530380" lon="-2.9242860">
        <ele>37.0</ele>
        <time>2022-11-01T11:31:12Z</time>
      </trkpt>
      <trkpt lat="36.7530480" lon="-2.9241950">
        <ele>37.0</ele>
        <time>2022-11-01T11:31:13Z</time>
      </trkpt>
      <trkpt lat="36.7530610" lon="-2.9241040">
        <ele>36.8</ele>
        <time>2022-11-01T11:31:14Z</time>
      </trkpt>
      <trkpt lat="36.7530760" lon="-2.9240130">
        <ele>37.0</ele>
        <time>2022-11-01T11:31:15Z</time>
      </trkpt>
      <trkpt lat="36.7530930" lon="-2.9239220">
        <ele>37.0</ele>
        <time>2022-11-01T11:31:16Z</time>
      </trkpt>
      <trkpt lat="36.7531110" lon="-2.9238320">
        <ele>37.0</ele>
        <time>2022-11-01T11:31:17Z</time>
      </trkpt>
      <trkpt lat="36.7531270" lon="-2.9237410">
        <ele>37.0</ele>
        <time>2022-11-01T11:31:18Z</time>
      </trkpt>
      <trkpt lat="36.7531450" lon="-2.9236520">
        <ele>37.0</ele>
        <time>2022-11-01T11:31:19Z</time>
      </trkpt>
      <trkpt lat="36.7531640" lon="-2.9235620">
        <ele>37.0</ele>
        <time>2022-11-01T11:31:20Z</time>
      </trkpt>
      <trkpt lat="36.7531820" lon="-2.9234720">
        <ele>37.0</ele>
        <time>2022-11-01T11:31:21Z</time>
      </trkpt>
      <trkpt lat="36.7531990" lon="-2.9233820">
        <ele>37.0</ele>
        <time>2022-11-01T11:31:22Z</time>
      </trkpt>
      <trkpt lat="36.7532170" lon="-2.9232920">
        <ele>37.2</ele>
        <time>2022-11-01T11:31:23Z</time>
      </trkpt>
      <trkpt lat="36.7532360" lon="-2.9232030">
        <ele>37.2</ele>
        <time>2022-11-01T11:31:24Z</time>
      </trkpt>
      <trkpt lat="36.7532530" lon="-2.9231150">
        <ele>37.2</ele>
        <time>2022-11-01T11:31:25Z</time>
      </trkpt>
      <trkpt lat="36.7532730" lon="-2.9230260">
        <ele>37.2</ele>
        <time>2022-11-01T11:31:26Z</time>
      </trkpt>
      <trkpt lat="36.7532900" lon="-2.9229370">
        <ele>37.2</ele>
        <time>2022-11-01T11:31:27Z</time>
      </trkpt>
      <trkpt lat="36.7533080" lon="-2.9228480">
        <ele>37.4</ele>
        <time>2022-11-01T11:31:28Z</time>
      </trkpt>
      <trkpt lat="36.7533260" lon="-2.9227610">
        <ele>37.4</ele>
        <time>2022-11-01T11:31:29Z</time>
      </trkpt>
      <trkpt lat="36.7533450" lon="-2.9226720">
        <ele>37.4</ele>
        <time>2022-11-01T11:31:30Z</time>
      </trkpt>
      <trkpt lat="36.7533640" lon="-2.9225840">
        <ele>37.4</ele>
        <time>2022-11-01T11:31:31Z</time>
      </trkpt>
      <trkpt lat="36.7533840" lon="-2.9224960">
        <ele>37.4</ele>
        <time>2022-11-01T11:31:32Z</time>
      </trkpt>
      <trkpt lat="36.7534040" lon="-2.9224090">
        <ele>37.4</ele>
        <time>2022-11-01T11:31:33Z</time>
      </trkpt>
      <trkpt lat="36.7534230" lon="-2.9223220">
        <ele>37.6</ele>
        <time>2022-11-01T11:31:34Z</time>
      </trkpt>
      <trkpt lat="36.7534420" lon="-2.9222350">
        <ele>37.6</ele>
        <time>2022-11-01T11:31:35Z</time>
      </trkpt>
      <trkpt lat="36.7534620" lon="-2.9221480">
        <ele>37.6</ele>
        <time>2022-11-01T11:31:36Z</time>
      </trkpt>
      <trkpt lat="36.7534810" lon="-2.9220620">
        <ele>37.6</ele>
        <time>2022-11-01T11:31:37Z</time>
      </trkpt>
      <trkpt lat="36.7534990" lon="-2.9219760">
        <ele>37.8</ele>
        <time>2022-11-01T11:31:38Z</time>
      </trkpt>
      <trkpt lat="36.7535170" lon="-2.9218890">
        <ele>37.8</ele>
        <time>2022-11-01T11:31:39Z</time>
      </trkpt>
      <trkpt lat="36.7535340" lon="-2.9218030">
        <ele>37.8</ele>
        <time>2022-11-01T11:31:40Z</time>
      </trkpt>
      <trkpt lat="36.7535510" lon="-2.9217180">
        <ele>37.8</ele>
        <time>2022-11-01T11:31:41Z</time>
      </trkpt>
      <trkpt lat="36.7535700" lon="-2.9216330">
        <ele>37.8</ele>
        <time>2022-11-01T11:31:42Z</time>
      </trkpt>
      <trkpt lat="36.7535890" lon="-2.9215490">
        <ele>37.8</ele>
        <time>2022-11-01T11:31:43Z</time>
      </trkpt>
      <trkpt lat="36.7536070" lon="-2.9214650">
        <ele>38.0</ele>
        <time>2022-11-01T11:31:44Z</time>
      </trkpt>
      <trkpt lat="36.7536260" lon="-2.9213790">
        <ele>38.0</ele>
        <time>2022-11-01T11:31:45Z</time>
      </trkpt>
      <trkpt lat="36.7536410" lon="-2.9212940">
        <ele>38.0</ele>
        <time>2022-11-01T11:31:46Z</time>
      </trkpt>
      <trkpt lat="36.7536580" lon="-2.9212070">
        <ele>38.0</ele>
        <time>2022-11-01T11:31:47Z</time>
      </trkpt>
      <trkpt lat="36.7536700" lon="-2.9211210">
        <ele>38.2</ele>
        <time>2022-11-01T11:31:48Z</time>
      </trkpt>
      <trkpt lat="36.7536820" lon="-2.9210340">
        <ele>38.2</ele>
        <time>2022-11-01T11:31:49Z</time>
      </trkpt>
      <trkpt lat="36.7536930" lon="-2.9209470">
        <ele>38.2</ele>
        <time>2022-11-01T11:31:50Z</time>
      </trkpt>
      <trkpt lat="36.7537010" lon="-2.9208610">
        <ele>38.2</ele>
        <time>2022-11-01T11:31:51Z</time>
      </trkpt>
      <trkpt lat="36.7537080" lon="-2.9207750">
        <ele>38.2</ele>
        <time>2022-11-01T11:31:52Z</time>
      </trkpt>
      <trkpt lat="36.7537100" lon="-2.9206860">
        <ele>38.2</ele>
        <time>2022-11-01T11:31:53Z</time>
      </trkpt>
      <trkpt lat="36.7537100" lon="-2.9205980">
        <ele>38.2</ele>
        <time>2022-11-01T11:31:54Z</time>
      </trkpt>
      <trkpt lat="36.7537090" lon="-2.9205080">
        <ele>38.2</ele>
        <time>2022-11-01T11:31:55Z</time>
      </trkpt>
      <trkpt lat="36.7537050" lon="-2.9204190">
        <ele>38.2</ele>
        <time>2022-11-01T11:31:56Z</time>
      </trkpt>
      <trkpt lat="36.7536990" lon="-2.9203310">
        <ele>38.2</ele>
        <time>2022-11-01T11:31:57Z</time>
      </trkpt>
      <trkpt lat="36.7536910" lon="-2.9202430">
        <ele>38.2</ele>
        <time>2022-11-01T11:31:58Z</time>
      </trkpt>
      <trkpt lat="36.7536810" lon="-2.9201560">
        <ele>38.2</ele>
        <time>2022-11-01T11:31:59Z</time>
      </trkpt>
      <trkpt lat="36.7536680" lon="-2.9200720">
        <ele>38.4</ele>
        <time>2022-11-01T11:32:00Z</time>
      </trkpt>
      <trkpt lat="36.7536540" lon="-2.9199850">
        <ele>38.8</ele>
        <time>2022-11-01T11:32:01Z</time>
      </trkpt>
      <trkpt lat="36.7536400" lon="-2.9198990">
        <ele>38.8</ele>
        <time>2022-11-01T11:32:02Z</time>
      </trkpt>
      <trkpt lat="36.7536250" lon="-2.9198150">
        <ele>38.8</ele>
        <time>2022-11-01T11:32:03Z</time>
      </trkpt>
      <trkpt lat="36.7536090" lon="-2.9197300">
        <ele>38.8</ele>
        <time>2022-11-01T11:32:04Z</time>
      </trkpt>
      <trkpt lat="36.7535930" lon="-2.9196460">
        <ele>39.0</ele>
        <time>2022-11-01T11:32:05Z</time>
      </trkpt>
      <trkpt lat="36.7535790" lon="-2.9195640">
        <ele>39.2</ele>
        <time>2022-11-01T11:32:06Z</time>
      </trkpt>
      <trkpt lat="36.7535650" lon="-2.9194820">
        <ele>39.4</ele>
        <time>2022-11-01T11:32:07Z</time>
      </trkpt>
      <trkpt lat="36.7535520" lon="-2.9194000">
        <ele>39.4</ele>
        <time>2022-11-01T11:32:08Z</time>
      </trkpt>
      <trkpt lat="36.7535390" lon="-2.9193190">
        <ele>39.8</ele>
        <time>2022-11-01T11:32:09Z</time>
      </trkpt>
      <trkpt lat="36.7535270" lon="-2.9192400">
        <ele>39.8</ele>
        <time>2022-11-01T11:32:10Z</time>
      </trkpt>
      <trkpt lat="36.7535130" lon="-2.9191590">
        <ele>40.2</ele>
        <time>2022-11-01T11:32:11Z</time>
      </trkpt>
      <trkpt lat="36.7535030" lon="-2.9190800">
        <ele>40.2</ele>
        <time>2022-11-01T11:32:12Z</time>
      </trkpt>
      <trkpt lat="36.7534940" lon="-2.9190030">
        <ele>40.4</ele>
        <time>2022-11-01T11:32:13Z</time>
      </trkpt>
      <trkpt lat="36.7534880" lon="-2.9189270">
        <ele>40.6</ele>
        <time>2022-11-01T11:32:14Z</time>
      </trkpt>
      <trkpt lat="36.7534810" lon="-2.9188510">
        <ele>40.8</ele>
        <time>2022-11-01T11:32:15Z</time>
      </trkpt>
      <trkpt lat="36.7534760" lon="-2.9187750">
        <ele>40.8</ele>
        <time>2022-11-01T11:32:16Z</time>
      </trkpt>
      <trkpt lat="36.7534750" lon="-2.9187000">
        <ele>41.2</ele>
        <time>2022-11-01T11:32:17Z</time>
      </trkpt>
      <trkpt lat="36.7534750" lon="-2.9186270">
        <ele>41.4</ele>
        <time>2022-11-01T11:32:18Z</time>
      </trkpt>
      <trkpt lat="36.7534740" lon="-2.9185540">
        <ele>41.6</ele>
        <time>2022-11-01T11:32:19Z</time>
      </trkpt>
      <trkpt lat="36.7534740" lon="-2.9184800">
        <ele>41.6</ele>
        <time>2022-11-01T11:32:20Z</time>
      </trkpt>
      <trkpt lat="36.7534770" lon="-2.9184070">
        <ele>42.0</ele>
        <time>2022-11-01T11:32:21Z</time>
      </trkpt>
      <trkpt lat="36.7534820" lon="-2.9183350">
        <ele>42.2</ele>
        <time>2022-11-01T11:32:22Z</time>
      </trkpt>
      <trkpt lat="36.7534870" lon="-2.9182620">
        <ele>42.4</ele>
        <time>2022-11-01T11:32:23Z</time>
      </trkpt>
      <trkpt lat="36.7534920" lon="-2.9181910">
        <ele>42.6</ele>
        <time>2022-11-01T11:32:24Z</time>
      </trkpt>
      <trkpt lat="36.7534980" lon="-2.9181200">
        <ele>42.8</ele>
        <time>2022-11-01T11:32:25Z</time>
      </trkpt>
      <trkpt lat="36.7535060" lon="-2.9180500">
        <ele>43.2</ele>
        <time>2022-11-01T11:32:26Z</time>
      </trkpt>
      <trkpt lat="36.7535160" lon="-2.9179790">
        <ele>43.2</ele>
        <time>2022-11-01T11:32:27Z</time>
      </trkpt>
      <trkpt lat="36.7535300" lon="-2.9179100">
        <ele>43.4</ele>
        <time>2022-11-01T11:32:28Z</time>
      </trkpt>
      <trkpt lat="36.7535450" lon="-2.9178410">
        <ele>43.6</ele>
        <time>2022-11-01T11:32:29Z</time>
      </trkpt>
      <trkpt lat="36.7535580" lon="-2.9177710">
        <ele>43.6</ele>
        <time>2022-11-01T11:32:30Z</time>
      </trkpt>
      <trkpt lat="36.7535720" lon="-2.9176990">
        <ele>43.8</ele>
        <time>2022-11-01T11:32:31Z</time>
      </trkpt>
      <trkpt lat="36.7535840" lon="-2.9176280">
        <ele>44.0</ele>
        <time>2022-11-01T11:32:32Z</time>
      </trkpt>
      <trkpt lat="36.7535980" lon="-2.9175580">
        <ele>44.2</ele>
        <time>2022-11-01T11:32:33Z</time>
      </trkpt>
      <trkpt lat="36.7536140" lon="-2.9174900">
        <ele>44.4</ele>
        <time>2022-11-01T11:32:34Z</time>
      </trkpt>
      <trkpt lat="36.7536320" lon="-2.9174210">
        <ele>44.6</ele>
        <time>2022-11-01T11:32:35Z</time>
      </trkpt>
      <trkpt lat="36.7536500" lon="-2.9173520">
        <ele>44.6</ele>
        <time>2022-11-01T11:32:36Z</time>
      </trkpt>
      <trkpt lat="36.7536670" lon="-2.9172840">
        <ele>44.8</ele>
        <time>2022-11-01T11:32:37Z</time>
      </trkpt>
      <trkpt lat="36.7536830" lon="-2.9172150">
        <ele>44.8</ele>
        <time>2022-11-01T11:32:38Z</time>
      </trkpt>
      <trkpt lat="36.7537000" lon="-2.9171470">
        <ele>45.0</ele>
        <time>2022-11-01T11:32:39Z</time>
      </trkpt>
      <trkpt lat="36.7537180" lon="-2.9170780">
        <ele>45.0</ele>
        <time>2022-11-01T11:32:40Z</time>
      </trkpt>
      <trkpt lat="36.7537370" lon="-2.9170090">
        <ele>45.2</ele>
        <time>2022-11-01T11:32:41Z</time>
      </trkpt>
      <trkpt lat="36.7537550" lon="-2.9169390">
        <ele>45.4</ele>
        <time>2022-11-01T11:32:42Z</time>
      </trkpt>
      <trkpt lat="36.7537700" lon="-2.9168680">
        <ele>45.4</ele>
        <time>2022-11-01T11:32:43Z</time>
      </trkpt>
      <trkpt lat="36.7537860" lon="-2.9167960">
        <ele>45.6</ele>
        <time>2022-11-01T11:32:44Z</time>
      </trkpt>
      <trkpt lat="36.7538010" lon="-2.9167240">
        <ele>45.6</ele>
        <time>2022-11-01T11:32:45Z</time>
      </trkpt>
      <trkpt lat="36.7538160" lon="-2.9166500">
        <ele>45.6</ele>
        <time>2022-11-01T11:32:46Z</time>
      </trkpt>
      <trkpt lat="36.7538280" lon="-2.9165750">
        <ele>45.6</ele>
        <time>2022-11-01T11:32:47Z</time>
      </trkpt>
      <trkpt lat="36.7538390" lon="-2.9164980">
        <ele>45.6</ele>
        <time>2022-11-01T11:32:48Z</time>
      </trkpt>
      <trkpt lat="36.7538480" lon="-2.9164200">
        <ele>45.6</ele>
        <time>2022-11-01T11:32:49Z</time>
      </trkpt>
      <trkpt lat="36.7538550" lon="-2.9163400">
        <ele>45.8</ele>
        <time>2022-11-01T11:32:50Z</time>
      </trkpt>
      <trkpt lat="36.7538600" lon="-2.9162610">
        <ele>45.8</ele>
        <time>2022-11-01T11:32:51Z</time>
      </trkpt>
      <trkpt lat="36.7538640" lon="-2.9161810">
        <ele>46.0</ele>
        <time>2022-11-01T11:32:52Z</time>
      </trkpt>
      <trkpt lat="36.7538650" lon="-2.9161020">
        <ele>46.0</ele>
        <time>2022-11-01T11:32:53Z</time>
      </trkpt>
      <trkpt lat="36.7538640" lon="-2.9160230">
        <ele>46.0</ele>
        <time>2022-11-01T11:32:54Z</time>
      </trkpt>
      <trkpt lat="36.7538600" lon="-2.9159430">
        <ele>46.0</ele>
        <time>2022-11-01T11:32:55Z</time>
      </trkpt>
      <trkpt lat="36.7538530" lon="-2.9158620">
        <ele>46.0</ele>
        <time>2022-11-01T11:32:56Z</time>
      </trkpt>
      <trkpt lat="36.7538460" lon="-2.9157800">
        <ele>46.0</ele>
        <time>2022-11-01T11:32:57Z</time>
      </trkpt>
      <trkpt lat="36.7538390" lon="-2.9156970">
        <ele>45.8</ele>
        <time>2022-11-01T11:32:58Z</time>
      </trkpt>
      <trkpt lat="36.7538320" lon="-2.9156130">
        <ele>45.8</ele>
        <time>2022-11-01T11:32:59Z</time>
      </trkpt>
      <trkpt lat="36.7538220" lon="-2.9155310">
        <ele>45.6</ele>
        <time>2022-11-01T11:33:00Z</time>
      </trkpt>
      <trkpt lat="36.7538080" lon="-2.9154510">
        <ele>45.6</ele>
        <time>2022-11-01T11:33:01Z</time>
      </trkpt>
      <trkpt lat="36.7537920" lon="-2.9153710">
        <ele>45.6</ele>
        <time>2022-11-01T11:33:02Z</time>
      </trkpt>
      <trkpt lat="36.7537740" lon="-2.9152920">
        <ele>45.6</ele>
        <time>2022-11-01T11:33:03Z</time>
      </trkpt>
      <trkpt lat="36.7537560" lon="-2.9152210">
        <ele>45.4</ele>
        <time>2022-11-01T11:33:04Z</time>
      </trkpt>
      <trkpt lat="36.7537350" lon="-2.9151470">
        <ele>45.4</ele>
        <time>2022-11-01T11:33:05Z</time>
      </trkpt>
      <trkpt lat="36.7537090" lon="-2.9150710">
        <ele>45.2</ele>
        <time>2022-11-01T11:33:06Z</time>
      </trkpt>
      <trkpt lat="36.7536840" lon="-2.9149930">
        <ele>45.0</ele>
        <time>2022-11-01T11:33:07Z</time>
      </trkpt>
      <trkpt lat="36.7536590" lon="-2.9149170">
        <ele>45.0</ele>
        <time>2022-11-01T11:33:08Z</time>
      </trkpt>
      <trkpt lat="36.7536310" lon="-2.9148400">
        <ele>44.8</ele>
        <time>2022-11-01T11:33:09Z</time>
      </trkpt>
      <trkpt lat="36.7536000" lon="-2.9147630">
        <ele>44.6</ele>
        <time>2022-11-01T11:33:10Z</time>
      </trkpt>
      <trkpt lat="36.7535680" lon="-2.9146860">
        <ele>44.6</ele>
        <time>2022-11-01T11:33:11Z</time>
      </trkpt>
      <trkpt lat="36.7535330" lon="-2.9146110">
        <ele>44.4</ele>
        <time>2022-11-01T11:33:12Z</time>
      </trkpt>
      <trkpt lat="36.7534960" lon="-2.9145380">
        <ele>44.2</ele>
        <time>2022-11-01T11:33:13Z</time>
      </trkpt>
      <trkpt lat="36.7534580" lon="-2.9144610">
        <ele>44.0</ele>
        <time>2022-11-01T11:33:14Z</time>
      </trkpt>
      <trkpt lat="36.7534200" lon="-2.9143810">
        <ele>43.8</ele>
        <time>2022-11-01T11:33:15Z</time>
      </trkpt>
      <trkpt lat="36.7533840" lon="-2.9143010">
        <ele>43.6</ele>
        <time>2022-11-01T11:33:16Z</time>
      </trkpt>
      <trkpt lat="36.7533450" lon="-2.9142190">
        <ele>43.4</ele>
        <time>2022-11-01T11:33:17Z</time>
      </trkpt>
      <trkpt lat="36.7533080" lon="-2.9141370">
        <ele>43.2</ele>
        <time>2022-11-01T11:33:18Z</time>
      </trkpt>
      <trkpt lat="36.7532700" lon="-2.9140570">
        <ele>43.0</ele>
        <time>2022-11-01T11:33:19Z</time>
      </trkpt>
      <trkpt lat="36.7532320" lon="-2.9139750">
        <ele>42.8</ele>
        <time>2022-11-01T11:33:20Z</time>
      </trkpt>
      <trkpt lat="36.7531940" lon="-2.9138940">
        <ele>42.6</ele>
        <time>2022-11-01T11:33:21Z</time>
      </trkpt>
      <trkpt lat="36.7531520" lon="-2.9138110">
        <ele>42.4</ele>
        <time>2022-11-01T11:33:22Z</time>
      </trkpt>
      <trkpt lat="36.7531120" lon="-2.9137290">
        <ele>42.2</ele>
        <time>2022-11-01T11:33:23Z</time>
      </trkpt>
      <trkpt lat="36.7530740" lon="-2.9136430">
        <ele>41.8</ele>
        <time>2022-11-01T11:33:24Z</time>
      </trkpt>
      <trkpt lat="36.7530350" lon="-2.9135560">
        <ele>41.6</ele>
        <time>2022-11-01T11:33:25Z</time>
      </trkpt>
      <trkpt lat="36.7529950" lon="-2.9134690">
        <ele>41.4</ele>
        <time>2022-11-01T11:33:26Z</time>
      </trkpt>
      <trkpt lat="36.7529560" lon="-2.9133840">
        <ele>41.2</ele>
        <time>2022-11-01T11:33:27Z</time>
      </trkpt>
      <trkpt lat="36.7529160" lon="-2.9132950">
        <ele>41.0</ele>
        <time>2022-11-01T11:33:28Z</time>
      </trkpt>
      <trkpt lat="36.7528760" lon="-2.9132090">
        <ele>40.8</ele>
        <time>2022-11-01T11:33:29Z</time>
      </trkpt>
      <trkpt lat="36.7528360" lon="-2.9131250">
        <ele>40.6</ele>
        <time>2022-11-01T11:33:30Z</time>
      </trkpt>
      <trkpt lat="36.7527970" lon="-2.9130420">
        <ele>40.4</ele>
        <time>2022-11-01T11:33:31Z</time>
      </trkpt>
      <trkpt lat="36.7527590" lon="-2.9129580">
        <ele>40.2</ele>
        <time>2022-11-01T11:33:32Z</time>
      </trkpt>
      <trkpt lat="36.7527220" lon="-2.9128740">
        <ele>40.0</ele>
        <time>2022-11-01T11:33:33Z</time>
      </trkpt>
      <trkpt lat="36.7526840" lon="-2.9127900">
        <ele>39.8</ele>
        <time>2022-11-01T11:33:34Z</time>
      </trkpt>
      <trkpt lat="36.7526440" lon="-2.9127020">
        <ele>39.6</ele>
        <time>2022-11-01T11:33:35Z</time>
      </trkpt>
      <trkpt lat="36.7526050" lon="-2.9126160">
        <ele>39.6</ele>
        <time>2022-11-01T11:33:36Z</time>
      </trkpt>
      <trkpt lat="36.7525660" lon="-2.9125310">
        <ele>39.4</ele>
        <time>2022-11-01T11:33:37Z</time>
      </trkpt>
      <trkpt lat="36.7525270" lon="-2.9124470">
        <ele>39.2</ele>
        <time>2022-11-01T11:33:38Z</time>
      </trkpt>
      <trkpt lat="36.7524880" lon="-2.9123620">
        <ele>39.2</ele>
        <time>2022-11-01T11:33:39Z</time>
      </trkpt>
      <trkpt lat="36.7524510" lon="-2.9122810">
        <ele>39.2</ele>
        <time>2022-11-01T11:33:40Z</time>
      </trkpt>
      <trkpt lat="36.7524170" lon="-2.9122040">
        <ele>38.8</ele>
        <time>2022-11-01T11:33:41Z</time>
      </trkpt>
      <trkpt lat="36.7523830" lon="-2.9121260">
        <ele>38.8</ele>
        <time>2022-11-01T11:33:42Z</time>
      </trkpt>
      <trkpt lat="36.7523480" lon="-2.9120510">
        <ele>38.6</ele>
        <time>2022-11-01T11:33:43Z</time>
      </trkpt>
      <trkpt lat="36.7523120" lon="-2.9119760">
        <ele>38.4</ele>
        <time>2022-11-01T11:33:44Z</time>
      </trkpt>
      <trkpt lat="36.7522750" lon="-2.9119000">
        <ele>38.4</ele>
        <time>2022-11-01T11:33:45Z</time>
      </trkpt>
      <trkpt lat="36.7522360" lon="-2.9118220">
        <ele>38.2</ele>
        <time>2022-11-01T11:33:46Z</time>
      </trkpt>
      <trkpt lat="36.7522000" lon="-2.9117440">
        <ele>38.2</ele>
        <time>2022-11-01T11:33:47Z</time>
      </trkpt>
      <trkpt lat="36.7521620" lon="-2.9116640">
        <ele>38.0</ele>
        <time>2022-11-01T11:33:48Z</time>
      </trkpt>
      <trkpt lat="36.7521250" lon="-2.9115850">
        <ele>38.0</ele>
        <time>2022-11-01T11:33:49Z</time>
      </trkpt>
      <trkpt lat="36.7520890" lon="-2.9115070">
        <ele>38.0</ele>
        <time>2022-11-01T11:33:50Z</time>
      </trkpt>
      <trkpt lat="36.7520550" lon="-2.9114300">
        <ele>37.8</ele>
        <time>2022-11-01T11:33:51Z</time>
      </trkpt>
      <trkpt lat="36.7520200" lon="-2.9113530">
        <ele>37.8</ele>
        <time>2022-11-01T11:33:52Z</time>
      </trkpt>
      <trkpt lat="36.7519840" lon="-2.9112760">
        <ele>37.8</ele>
        <time>2022-11-01T11:33:53Z</time>
      </trkpt>
      <trkpt lat="36.7519500" lon="-2.9111990">
        <ele>37.8</ele>
        <time>2022-11-01T11:33:54Z</time>
      </trkpt>
      <trkpt lat="36.7519150" lon="-2.9111220">
        <ele>37.8</ele>
        <time>2022-11-01T11:33:55Z</time>
      </trkpt>
      <trkpt lat="36.7518800" lon="-2.9110440">
        <ele>37.8</ele>
        <time>2022-11-01T11:33:56Z</time>
      </trkpt>
      <trkpt lat="36.7518440" lon="-2.9109660">
        <ele>37.6</ele>
        <time>2022-11-01T11:33:57Z</time>
      </trkpt>
      <trkpt lat="36.7518090" lon="-2.9108880">
        <ele>37.6</ele>
        <time>2022-11-01T11:33:58Z</time>
      </trkpt>
      <trkpt lat="36.7517730" lon="-2.9108130">
        <ele>37.4</ele>
        <time>2022-11-01T11:33:59Z</time>
      </trkpt>
      <trkpt lat="36.7517360" lon="-2.9107480">
        <ele>37.4</ele>
        <time>2022-11-01T11:34:00Z</time>
      </trkpt>
      <trkpt lat="36.7516900" lon="-2.9106870">
        <ele>37.4</ele>
        <time>2022-11-01T11:34:01Z</time>
      </trkpt>
      <trkpt lat="36.7516460" lon="-2.9106230">
        <ele>37.2</ele>
        <time>2022-11-01T11:34:02Z</time>
      </trkpt>
      <trkpt lat="36.7516110" lon="-2.9105500">
        <ele>37.2</ele>
        <time>2022-11-01T11:34:03Z</time>
      </trkpt>
      <trkpt lat="36.7515850" lon="-2.9104710">
        <ele>37.2</ele>
        <time>2022-11-01T11:34:04Z</time>
      </trkpt>
      <trkpt lat="36.7515620" lon="-2.9103870">
        <ele>37.4</ele>
        <time>2022-11-01T11:34:05Z</time>
      </trkpt>
      <trkpt lat="36.7515330" lon="-2.9103070">
        <ele>37.4</ele>
        <time>2022-11-01T11:34:06Z</time>
      </trkpt>
      <trkpt lat="36.7514980" lon="-2.9102280">
        <ele>37.4</ele>
        <time>2022-11-01T11:34:07Z</time>
      </trkpt>
      <trkpt lat="36.7514620" lon="-2.9101470">
        <ele>37.4</ele>
        <time>2022-11-01T11:34:08Z</time>
      </trkpt>
      <trkpt lat="36.7514260" lon="-2.9100690">
        <ele>37.4</ele>
        <time>2022-11-01T11:34:09Z</time>
      </trkpt>
      <trkpt lat="36.7513880" lon="-2.9099910">
        <ele>37.4</ele>
        <time>2022-11-01T11:34:10Z</time>
      </trkpt>
      <trkpt lat="36.7513510" lon="-2.9099130">
        <ele>37.6</ele>
        <time>2022-11-01T11:34:11Z</time>
      </trkpt>
      <trkpt lat="36.7513150" lon="-2.9098340">
        <ele>37.6</ele>
        <time>2022-11-01T11:34:12Z</time>
      </trkpt>
      <trkpt lat="36.7512770" lon="-2.9097550">
        <ele>37.6</ele>
        <time>2022-11-01T11:34:13Z</time>
      </trkpt>
      <trkpt lat="36.7512410" lon="-2.9096780">
        <ele>37.8</ele>
        <time>2022-11-01T11:34:14Z</time>
      </trkpt>
      <trkpt lat="36.7512050" lon="-2.9096030">
        <ele>37.8</ele>
        <time>2022-11-01T11:34:15Z</time>
      </trkpt>
      <trkpt lat="36.7511670" lon="-2.9095270">
        <ele>38.0</ele>
        <time>2022-11-01T11:34:16Z</time>
      </trkpt>
      <trkpt lat="36.7511290" lon="-2.9094510">
        <ele>38.0</ele>
        <time>2022-11-01T11:34:17Z</time>
      </trkpt>
      <trkpt lat="36.7510920" lon="-2.9093740">
        <ele>38.0</ele>
        <time>2022-11-01T11:34:18Z</time>
      </trkpt>
      <trkpt lat="36.7510560" lon="-2.9092960">
        <ele>38.0</ele>
        <time>2022-11-01T11:34:19Z</time>
      </trkpt>
      <trkpt lat="36.7510200" lon="-2.9092210">
        <ele>38.2</ele>
        <time>2022-11-01T11:34:20Z</time>
      </trkpt>
      <trkpt lat="36.7509840" lon="-2.9091470">
        <ele>38.2</ele>
        <time>2022-11-01T11:34:21Z</time>
      </trkpt>
      <trkpt lat="36.7509490" lon="-2.9090720">
        <ele>38.2</ele>
        <time>2022-11-01T11:34:22Z</time>
      </trkpt>
      <trkpt lat="36.7509130" lon="-2.9089990">
        <ele>38.2</ele>
        <time>2022-11-01T11:34:23Z</time>
      </trkpt>
      <trkpt lat="36.7508770" lon="-2.9089280">
        <ele>38.4</ele>
        <time>2022-11-01T11:34:24Z</time>
      </trkpt>
      <trkpt lat="36.7508420" lon="-2.9088560">
        <ele>38.4</ele>
        <time>2022-11-01T11:34:25Z</time>
      </trkpt>
      <trkpt lat="36.7508080" lon="-2.9087830">
        <ele>38.6</ele>
        <time>2022-11-01T11:34:26Z</time>
      </trkpt>
      <trkpt lat="36.7507730" lon="-2.9087130">
        <ele>38.6</ele>
        <time>2022-11-01T11:34:27Z</time>
      </trkpt>
      <trkpt lat="36.7507400" lon="-2.9086430">
        <ele>38.8</ele>
        <time>2022-11-01T11:34:28Z</time>
      </trkpt>
      <trkpt lat="36.7507090" lon="-2.9085750">
        <ele>38.8</ele>
        <time>2022-11-01T11:34:29Z</time>
      </trkpt>
      <trkpt lat="36.7506770" lon="-2.9085080">
        <ele>39.0</ele>
        <time>2022-11-01T11:34:30Z</time>
      </trkpt>
      <trkpt lat="36.7506460" lon="-2.9084440">
        <ele>39.0</ele>
        <time>2022-11-01T11:34:31Z</time>
      </trkpt>
      <trkpt lat="36.7506140" lon="-2.9083760">
        <ele>39.0</ele>
        <time>2022-11-01T11:34:32Z</time>
      </trkpt>
      <trkpt lat="36.7505850" lon="-2.9083150">
        <ele>39.2</ele>
        <time>2022-11-01T11:34:33Z</time>
      </trkpt>
      <trkpt lat="36.7505550" lon="-2.9082480">
        <ele>39.2</ele>
        <time>2022-11-01T11:34:34Z</time>
      </trkpt>
      <trkpt lat="36.7505240" lon="-2.9081840">
        <ele>39.2</ele>
        <time>2022-11-01T11:34:35Z</time>
      </trkpt>
      <trkpt lat="36.7504900" lon="-2.9081160">
        <ele>39.4</ele>
        <time>2022-11-01T11:34:36Z</time>
      </trkpt>
      <trkpt lat="36.7504610" lon="-2.9080550">
        <ele>39.4</ele>
        <time>2022-11-01T11:34:37Z</time>
      </trkpt>
      <trkpt lat="36.7504310" lon="-2.9079880">
        <ele>39.6</ele>
        <time>2022-11-01T11:34:38Z</time>
      </trkpt>
      <trkpt lat="36.7503960" lon="-2.9079180">
        <ele>39.6</ele>
        <time>2022-11-01T11:34:39Z</time>
      </trkpt>
      <trkpt lat="36.7503640" lon="-2.9078480">
        <ele>39.8</ele>
        <time>2022-11-01T11:34:40Z</time>
      </trkpt>
      <trkpt lat="36.7503320" lon="-2.9077780">
        <ele>39.8</ele>
        <time>2022-11-01T11:34:41Z</time>
      </trkpt>
      <trkpt lat="36.7502990" lon="-2.9077050">
        <ele>39.8</ele>
        <time>2022-11-01T11:34:42Z</time>
      </trkpt>
      <trkpt lat="36.7502660" lon="-2.9076340">
        <ele>40.0</ele>
        <time>2022-11-01T11:34:43Z</time>
      </trkpt>
      <trkpt lat="36.7502330" lon="-2.9075640">
        <ele>40.0</ele>
        <time>2022-11-01T11:34:44Z</time>
      </trkpt>
      <trkpt lat="36.7502030" lon="-2.9075000">
        <ele>40.2</ele>
        <time>2022-11-01T11:34:45Z</time>
      </trkpt>
      <trkpt lat="36.7501720" lon="-2.9074340">
        <ele>40.2</ele>
        <time>2022-11-01T11:34:46Z</time>
      </trkpt>
      <trkpt lat="36.7501430" lon="-2.9073700">
        <ele>40.4</ele>
        <time>2022-11-01T11:34:47Z</time>
      </trkpt>
      <trkpt lat="36.7501140" lon="-2.9073100">
        <ele>40.6</ele>
        <time>2022-11-01T11:34:48Z</time>
      </trkpt>
      <trkpt lat="36.7500870" lon="-2.9072530">
        <ele>40.8</ele>
        <time>2022-11-01T11:34:49Z</time>
      </trkpt>
      <trkpt lat="36.7500570" lon="-2.9071910">
        <ele>40.8</ele>
        <time>2022-11-01T11:34:50Z</time>
      </trkpt>
      <trkpt lat="36.7500290" lon="-2.9071280">
        <ele>41.0</ele>
        <time>2022-11-01T11:34:51Z</time>
      </trkpt>
      <trkpt lat="36.7499970" lon="-2.9070610">
        <ele>41.2</ele>
        <time>2022-11-01T11:34:52Z</time>
      </trkpt>
      <trkpt lat="36.7499680" lon="-2.9069990">
        <ele>41.2</ele>
        <time>2022-11-01T11:34:53Z</time>
      </trkpt>
      <trkpt lat="36.7499410" lon="-2.9069380">
        <ele>41.6</ele>
        <time>2022-11-01T11:34:54Z</time>
      </trkpt>
      <trkpt lat="36.7499120" lon="-2.9068780">
        <ele>41.8</ele>
        <time>2022-11-01T11:34:55Z</time>
      </trkpt>
      <trkpt lat="36.7498840" lon="-2.9068160">
        <ele>42.0</ele>
        <time>2022-11-01T11:34:56Z</time>
      </trkpt>
      <trkpt lat="36.7498550" lon="-2.9067510">
        <ele>42.2</ele>
        <time>2022-11-01T11:34:57Z</time>
      </trkpt>
      <trkpt lat="36.7498260" lon="-2.9066870">
        <ele>42.6</ele>
        <time>2022-11-01T11:34:58Z</time>
      </trkpt>
      <trkpt lat="36.7497970" lon="-2.9066230">
        <ele>42.6</ele>
        <time>2022-11-01T11:34:59Z</time>
      </trkpt>
      <trkpt lat="36.7497660" lon="-2.9065600">
        <ele>42.8</ele>
        <time>2022-11-01T11:35:00Z</time>
      </trkpt>
      <trkpt lat="36.7497370" lon="-2.9065000">
        <ele>43.0</ele>
        <time>2022-11-01T11:35:01Z</time>
      </trkpt>
      <trkpt lat="36.7497090" lon="-2.9064420">
        <ele>43.2</ele>
        <time>2022-11-01T11:35:02Z</time>
      </trkpt>
      <trkpt lat="36.7496800" lon="-2.9063810">
        <ele>43.4</ele>
        <time>2022-11-01T11:35:03Z</time>
      </trkpt>
      <trkpt lat="36.7496490" lon="-2.9063190">
        <ele>43.4</ele>
        <time>2022-11-01T11:35:04Z</time>
      </trkpt>
      <trkpt lat="36.7496220" lon="-2.9062570">
        <ele>43.6</ele>
        <time>2022-11-01T11:35:05Z</time>
      </trkpt>
      <trkpt lat="36.7495970" lon="-2.9062010">
        <ele>43.8</ele>
        <time>2022-11-01T11:35:06Z</time>
      </trkpt>
      <trkpt lat="36.7495690" lon="-2.9061430">
        <ele>44.0</ele>
        <time>2022-11-01T11:35:07Z</time>
      </trkpt>
      <trkpt lat="36.7495400" lon="-2.9060840">
        <ele>44.0</ele>
        <time>2022-11-01T11:35:08Z</time>
      </trkpt>
      <trkpt lat="36.7495120" lon="-2.9060260">
        <ele>44.2</ele>
        <time>2022-11-01T11:35:09Z</time>
      </trkpt>
      <trkpt lat="36.7494860" lon="-2.9059660">
        <ele>44.4</ele>
        <time>2022-11-01T11:35:10Z</time>
      </trkpt>
      <trkpt lat="36.7494610" lon="-2.9059080">
        <ele>44.4</ele>
        <time>2022-11-01T11:35:11Z</time>
      </trkpt>
      <trkpt lat="36.7494390" lon="-2.9058610">
        <ele>44.6</ele>
        <time>2022-11-01T11:35:12Z</time>
      </trkpt>
      <trkpt lat="36.7494110" lon="-2.9058050">
        <ele>44.6</ele>
        <time>2022-11-01T11:35:13Z</time>
      </trkpt>
      <trkpt lat="36.7493820" lon="-2.9057450">
        <ele>44.8</ele>
        <time>2022-11-01T11:35:14Z</time>
      </trkpt>
      <trkpt lat="36.7493530" lon="-2.9056860">
        <ele>44.8</ele>
        <time>2022-11-01T11:35:15Z</time>
      </trkpt>
      <trkpt lat="36.7493270" lon="-2.9056310">
        <ele>45.0</ele>
        <time>2022-11-01T11:35:16Z</time>
      </trkpt>
      <trkpt lat="36.7492990" lon="-2.9055800">
        <ele>45.0</ele>
        <time>2022-11-01T11:35:17Z</time>
      </trkpt>
      <trkpt lat="36.7492690" lon="-2.9055410">
        <ele>45.0</ele>
        <time>2022-11-01T11:35:18Z</time>
      </trkpt>
      <trkpt lat="36.7492370" lon="-2.9055130">
        <ele>45.2</ele>
        <time>2022-11-01T11:35:19Z</time>
      </trkpt>
      <trkpt lat="36.7492040" lon="-2.9054860">
        <ele>45.2</ele>
        <time>2022-11-01T11:35:20Z</time>
      </trkpt>
      <trkpt lat="36.7491650" lon="-2.9054540">
        <ele>45.2</ele>
        <time>2022-11-01T11:35:21Z</time>
      </trkpt>
      <trkpt lat="36.7491240" lon="-2.9054250">
        <ele>45.0</ele>
        <time>2022-11-01T11:35:22Z</time>
      </trkpt>
      <trkpt lat="36.7490820" lon="-2.9053830">
        <ele>45.0</ele>
        <time>2022-11-01T11:35:23Z</time>
      </trkpt>
      <trkpt lat="36.7490420" lon="-2.9053310">
        <ele>45.0</ele>
        <time>2022-11-01T11:35:24Z</time>
      </trkpt>
      <trkpt lat="36.7490080" lon="-2.9052720">
        <ele>45.0</ele>
        <time>2022-11-01T11:35:25Z</time>
      </trkpt>
      <trkpt lat="36.7489790" lon="-2.9052060">
        <ele>44.8</ele>
        <time>2022-11-01T11:35:26Z</time>
      </trkpt>
      <trkpt lat="36.7489510" lon="-2.9051400">
        <ele>45.0</ele>
        <time>2022-11-01T11:35:27Z</time>
      </trkpt>
      <trkpt lat="36.7489230" lon="-2.9050790">
        <ele>45.0</ele>
        <time>2022-11-01T11:35:28Z</time>
      </trkpt>
      <trkpt lat="36.7488900" lon="-2.9050180">
        <ele>45.0</ele>
        <time>2022-11-01T11:35:29Z</time>
      </trkpt>
      <trkpt lat="36.7488570" lon="-2.9049550">
        <ele>45.0</ele>
        <time>2022-11-01T11:35:30Z</time>
      </trkpt>
      <trkpt lat="36.7488270" lon="-2.9048910">
        <ele>45.0</ele>
        <time>2022-11-01T11:35:31Z</time>
      </trkpt>
      <trkpt lat="36.7487980" lon="-2.9048270">
        <ele>45.0</ele>
        <time>2022-11-01T11:35:32Z</time>
      </trkpt>
      <trkpt lat="36.7487710" lon="-2.9047600">
        <ele>45.0</ele>
        <time>2022-11-01T11:35:33Z</time>
      </trkpt>
      <trkpt lat="36.7487480" lon="-2.9046890">
        <ele>45.0</ele>
        <time>2022-11-01T11:35:34Z</time>
      </trkpt>
      <trkpt lat="36.7487280" lon="-2.9046150">
        <ele>45.0</ele>
        <time>2022-11-01T11:35:35Z</time>
      </trkpt>
      <trkpt lat="36.7487090" lon="-2.9045420">
        <ele>45.0</ele>
        <time>2022-11-01T11:35:36Z</time>
      </trkpt>
      <trkpt lat="36.7486880" lon="-2.9044690">
        <ele>45.0</ele>
        <time>2022-11-01T11:35:37Z</time>
      </trkpt>
      <trkpt lat="36.7486640" lon="-2.9043960">
        <ele>44.8</ele>
        <time>2022-11-01T11:35:38Z</time>
      </trkpt>
      <trkpt lat="36.7486370" lon="-2.9043250">
        <ele>44.6</ele>
        <time>2022-11-01T11:35:39Z</time>
      </trkpt>
      <trkpt lat="36.7486090" lon="-2.9042490">
        <ele>44.4</ele>
        <time>2022-11-01T11:35:40Z</time>
      </trkpt>
      <trkpt lat="36.7485750" lon="-2.9041730">
        <ele>44.2</ele>
        <time>2022-11-01T11:35:41Z</time>
      </trkpt>
      <trkpt lat="36.7485380" lon="-2.9040960">
        <ele>43.8</ele>
        <time>2022-11-01T11:35:42Z</time>
      </trkpt>
      <trkpt lat="36.7484980" lon="-2.9040210">
        <ele>43.4</ele>
        <time>2022-11-01T11:35:43Z</time>
      </trkpt>
      <trkpt lat="36.7484540" lon="-2.9039430">
        <ele>43.2</ele>
        <time>2022-11-01T11:35:44Z</time>
      </trkpt>
      <trkpt lat="36.7484090" lon="-2.9038660">
        <ele>43.0</ele>
        <time>2022-11-01T11:35:45Z</time>
      </trkpt>
      <trkpt lat="36.7483640" lon="-2.9037880">
        <ele>42.6</ele>
        <time>2022-11-01T11:35:46Z</time>
      </trkpt>
      <trkpt lat="36.7483170" lon="-2.9037070">
        <ele>42.2</ele>
        <time>2022-11-01T11:35:47Z</time>
      </trkpt>
      <trkpt lat="36.7482680" lon="-2.9036260">
        <ele>41.8</ele>
        <time>2022-11-01T11:35:48Z</time>
      </trkpt>
      <trkpt lat="36.7482170" lon="-2.9035430">
        <ele>41.6</ele>
        <time>2022-11-01T11:35:49Z</time>
      </trkpt>
      <trkpt lat="36.7481650" lon="-2.9034570">
        <ele>41.2</ele>
        <time>2022-11-01T11:35:50Z</time>
      </trkpt>
      <trkpt lat="36.7481120" lon="-2.9033690">
        <ele>40.8</ele>
        <time>2022-11-01T11:35:51Z</time>
      </trkpt>
      <trkpt lat="36.7480590" lon="-2.9032820">
        <ele>40.6</ele>
        <time>2022-11-01T11:35:52Z</time>
      </trkpt>
      <trkpt lat="36.7480050" lon="-2.9031930">
        <ele>40.2</ele>
        <time>2022-11-01T11:35:53Z</time>
      </trkpt>
      <trkpt lat="36.7479500" lon="-2.9031030">
        <ele>40.0</ele>
        <time>2022-11-01T11:35:54Z</time>
      </trkpt>
      <trkpt lat="36.7478930" lon="-2.9030140">
        <ele>39.8</ele>
        <time>2022-11-01T11:35:55Z</time>
      </trkpt>
      <trkpt lat="36.7478350" lon="-2.9029250">
        <ele>39.6</ele>
        <time>2022-11-01T11:35:56Z</time>
      </trkpt>
      <trkpt lat="36.7477750" lon="-2.9028390">
        <ele>39.4</ele>
        <time>2022-11-01T11:35:57Z</time>
      </trkpt>
      <trkpt lat="36.7477110" lon="-2.9027550">
        <ele>39.2</ele>
        <time>2022-11-01T11:35:58Z</time>
      </trkpt>
      <trkpt lat="36.7476440" lon="-2.9026760">
        <ele>38.8</ele>
        <time>2022-11-01T11:35:59Z</time>
      </trkpt>
      <trkpt lat="36.7475730" lon="-2.9026050">
        <ele>38.8</ele>
        <time>2022-11-01T11:36:00Z</time>
      </trkpt>
      <trkpt lat="36.7474990" lon="-2.9025440">
        <ele>38.8</ele>
        <time>2022-11-01T11:36:01Z</time>
      </trkpt>
      <trkpt lat="36.7474230" lon="-2.9024970">
        <ele>38.8</ele>
        <time>2022-11-01T11:36:02Z</time>
      </trkpt>
      <trkpt lat="36.7473450" lon="-2.9024620">
        <ele>38.8</ele>
        <time>2022-11-01T11:36:03Z</time>
      </trkpt>
      <trkpt lat="36.7472650" lon="-2.9024390">
        <ele>39.0</ele>
        <time>2022-11-01T11:36:04Z</time>
      </trkpt>
      <trkpt lat="36.7471830" lon="-2.9024200">
        <ele>39.0</ele>
        <time>2022-11-01T11:36:05Z</time>
      </trkpt>
      <trkpt lat="36.7471010" lon="-2.9024020">
        <ele>38.8</ele>
        <time>2022-11-01T11:36:06Z</time>
      </trkpt>
      <trkpt lat="36.7470190" lon="-2.9023830">
        <ele>38.8</ele>
        <time>2022-11-01T11:36:07Z</time>
      </trkpt>
      <trkpt lat="36.7469350" lon="-2.9023650">
        <ele>38.4</ele>
        <time>2022-11-01T11:36:08Z</time>
      </trkpt>
      <trkpt lat="36.7468510" lon="-2.9023480">
        <ele>38.2</ele>
        <time>2022-11-01T11:36:09Z</time>
      </trkpt>
      <trkpt lat="36.7467660" lon="-2.9023270">
        <ele>37.8</ele>
        <time>2022-11-01T11:36:10Z</time>
      </trkpt>
      <trkpt lat="36.7466800" lon="-2.9022980">
        <ele>37.4</ele>
        <time>2022-11-01T11:36:11Z</time>
      </trkpt>
      <trkpt lat="36.7465940" lon="-2.9022630">
        <ele>37.2</ele>
        <time>2022-11-01T11:36:12Z</time>
      </trkpt>
      <trkpt lat="36.7465090" lon="-2.9022240">
        <ele>37.0</ele>
        <time>2022-11-01T11:36:13Z</time>
      </trkpt>
      <trkpt lat="36.7464260" lon="-2.9021830">
        <ele>36.8</ele>
        <time>2022-11-01T11:36:14Z</time>
      </trkpt>
      <trkpt lat="36.7463440" lon="-2.9021400">
        <ele>36.6</ele>
        <time>2022-11-01T11:36:15Z</time>
      </trkpt>
      <trkpt lat="36.7462640" lon="-2.9020980">
        <ele>36.4</ele>
        <time>2022-11-01T11:36:16Z</time>
      </trkpt>
      <trkpt lat="36.7461860" lon="-2.9020560">
        <ele>36.4</ele>
        <time>2022-11-01T11:36:17Z</time>
      </trkpt>
      <trkpt lat="36.7461100" lon="-2.9020160">
        <ele>36.4</ele>
        <time>2022-11-01T11:36:18Z</time>
      </trkpt>
      <trkpt lat="36.7460350" lon="-2.9019760">
        <ele>36.2</ele>
        <time>2022-11-01T11:36:19Z</time>
      </trkpt>
      <trkpt lat="36.7459620" lon="-2.9019380">
        <ele>36.2</ele>
        <time>2022-11-01T11:36:20Z</time>
      </trkpt>
      <trkpt lat="36.7458890" lon="-2.9019030">
        <ele>36.0</ele>
        <time>2022-11-01T11:36:21Z</time>
      </trkpt>
      <trkpt lat="36.7458190" lon="-2.9018670">
        <ele>36.0</ele>
        <time>2022-11-01T11:36:22Z</time>
      </trkpt>
      <trkpt lat="36.7457500" lon="-2.9018290">
        <ele>36.0</ele>
        <time>2022-11-01T11:36:23Z</time>
      </trkpt>
      <trkpt lat="36.7456810" lon="-2.9017930">
        <ele>36.0</ele>
        <time>2022-11-01T11:36:24Z</time>
      </trkpt>
      <trkpt lat="36.7456140" lon="-2.9017610">
        <ele>35.8</ele>
        <time>2022-11-01T11:36:25Z</time>
      </trkpt>
      <trkpt lat="36.7455460" lon="-2.9017270">
        <ele>35.8</ele>
        <time>2022-11-01T11:36:26Z</time>
      </trkpt>
      <trkpt lat="36.7454770" lon="-2.9016910">
        <ele>35.8</ele>
        <time>2022-11-01T11:36:27Z</time>
      </trkpt>
      <trkpt lat="36.7454080" lon="-2.9016560">
        <ele>35.8</ele>
        <time>2022-11-01T11:36:28Z</time>
      </trkpt>
      <trkpt lat="36.7453400" lon="-2.9016210">
        <ele>35.8</ele>
        <time>2022-11-01T11:36:29Z</time>
      </trkpt>
      <trkpt lat="36.7452720" lon="-2.9015870">
        <ele>35.8</ele>
        <time>2022-11-01T11:36:30Z</time>
      </trkpt>
      <trkpt lat="36.7452050" lon="-2.9015530">
        <ele>35.8</ele>
        <time>2022-11-01T11:36:31Z</time>
      </trkpt>
      <trkpt lat="36.7451390" lon="-2.9015190">
        <ele>35.8</ele>
        <time>2022-11-01T11:36:32Z</time>
      </trkpt>
      <trkpt lat="36.7450720" lon="-2.9014840">
        <ele>35.8</ele>
        <time>2022-11-01T11:36:33Z</time>
      </trkpt>
      <trkpt lat="36.7450040" lon="-2.9014460">
        <ele>35.8</ele>
        <time>2022-11-01T11:36:34Z</time>
      </trkpt>
      <trkpt lat="36.7449350" lon="-2.9014090">
        <ele>35.8</ele>
        <time>2022-11-01T11:36:35Z</time>
      </trkpt>
      <trkpt lat="36.7448670" lon="-2.9013720">
        <ele>35.8</ele>
        <time>2022-11-01T11:36:36Z</time>
      </trkpt>
      <trkpt lat="36.7448000" lon="-2.9013340">
        <ele>35.8</ele>
        <time>2022-11-01T11:36:37Z</time>
      </trkpt>
      <trkpt lat="36.7447350" lon="-2.9012980">
        <ele>35.8</ele>
        <time>2022-11-01T11:36:38Z</time>
      </trkpt>
      <trkpt lat="36.7446690" lon="-2.9012610">
        <ele>35.8</ele>
        <time>2022-11-01T11:36:39Z</time>
      </trkpt>
      <trkpt lat="36.7446060" lon="-2.9012230">
        <ele>35.8</ele>
        <time>2022-11-01T11:36:40Z</time>
      </trkpt>
      <trkpt lat="36.7445420" lon="-2.9011840">
        <ele>35.8</ele>
        <time>2022-11-01T11:36:41Z</time>
      </trkpt>
      <trkpt lat="36.7444790" lon="-2.9011450">
        <ele>35.8</ele>
        <time>2022-11-01T11:36:42Z</time>
      </trkpt>
      <trkpt lat="36.7444150" lon="-2.9011040">
        <ele>35.8</ele>
        <time>2022-11-01T11:36:43Z</time>
      </trkpt>
      <trkpt lat="36.7443520" lon="-2.9010660">
        <ele>35.8</ele>
        <time>2022-11-01T11:36:44Z</time>
      </trkpt>
      <trkpt lat="36.7442890" lon="-2.9010280">
        <ele>35.8</ele>
        <time>2022-11-01T11:36:45Z</time>
      </trkpt>
      <trkpt lat="36.7442270" lon="-2.9009910">
        <ele>35.8</ele>
        <time>2022-11-01T11:36:46Z</time>
      </trkpt>
      <trkpt lat="36.7441650" lon="-2.9009550">
        <ele>35.8</ele>
        <time>2022-11-01T11:36:47Z</time>
      </trkpt>
      <trkpt lat="36.7441020" lon="-2.9009180">
        <ele>35.8</ele>
        <time>2022-11-01T11:36:48Z</time>
      </trkpt>
      <trkpt lat="36.7440380" lon="-2.9008820">
        <ele>35.6</ele>
        <time>2022-11-01T11:36:49Z</time>
      </trkpt>
      <trkpt lat="36.7439740" lon="-2.9008450">
        <ele>35.6</ele>
        <time>2022-11-01T11:36:50Z</time>
      </trkpt>
      <trkpt lat="36.7439080" lon="-2.9008040">
        <ele>35.6</ele>
        <time>2022-11-01T11:36:51Z</time>
      </trkpt>
      <trkpt lat="36.7438430" lon="-2.9007680">
        <ele>35.6</ele>
        <time>2022-11-01T11:36:52Z</time>
      </trkpt>
      <trkpt lat="36.7437760" lon="-2.9007300">
        <ele>35.6</ele>
        <time>2022-11-01T11:36:53Z</time>
      </trkpt>
      <trkpt lat="36.7437150" lon="-2.9006950">
        <ele>35.4</ele>
        <time>2022-11-01T11:36:54Z</time>
      </trkpt>
      <trkpt lat="36.7436580" lon="-2.9006620">
        <ele>35.4</ele>
        <time>2022-11-01T11:36:55Z</time>
      </trkpt>
      <trkpt lat="36.7435960" lon="-2.9006220">
        <ele>35.4</ele>
        <time>2022-11-01T11:36:56Z</time>
      </trkpt>
      <trkpt lat="36.7435330" lon="-2.9005820">
        <ele>35.4</ele>
        <time>2022-11-01T11:36:57Z</time>
      </trkpt>
      <trkpt lat="36.7434700" lon="-2.9005400">
        <ele>35.2</ele>
        <time>2022-11-01T11:36:58Z</time>
      </trkpt>
      <trkpt lat="36.7434040" lon="-2.9004890">
        <ele>35.0</ele>
        <time>2022-11-01T11:36:59Z</time>
      </trkpt>
      <trkpt lat="36.7433380" lon="-2.9004370">
        <ele>35.0</ele>
        <time>2022-11-01T11:37:00Z</time>
      </trkpt>
      <trkpt lat="36.7432700" lon="-2.9003860">
        <ele>34.8</ele>
        <time>2022-11-01T11:37:01Z</time>
      </trkpt>
      <trkpt lat="36.7432020" lon="-2.9003330">
        <ele>34.6</ele>
        <time>2022-11-01T11:37:02Z</time>
      </trkpt>
      <trkpt lat="36.7431370" lon="-2.9002840">
        <ele>34.6</ele>
        <time>2022-11-01T11:37:03Z</time>
      </trkpt>
      <trkpt lat="36.7430710" lon="-2.9002320">
        <ele>34.4</ele>
        <time>2022-11-01T11:37:04Z</time>
      </trkpt>
      <trkpt lat="36.7430050" lon="-2.9001760">
        <ele>34.2</ele>
        <time>2022-11-01T11:37:05Z</time>
      </trkpt>
      <trkpt lat="36.7429390" lon="-2.9001230">
        <ele>34.2</ele>
        <time>2022-11-01T11:37:06Z</time>
      </trkpt>
      <trkpt lat="36.7428730" lon="-2.9000720">
        <ele>34.0</ele>
        <time>2022-11-01T11:37:07Z</time>
      </trkpt>
      <trkpt lat="36.7428090" lon="-2.9000210">
        <ele>33.8</ele>
        <time>2022-11-01T11:37:08Z</time>
      </trkpt>
      <trkpt lat="36.7427450" lon="-2.8999700">
        <ele>33.6</ele>
        <time>2022-11-01T11:37:09Z</time>
      </trkpt>
      <trkpt lat="36.7426820" lon="-2.8999230">
        <ele>33.6</ele>
        <time>2022-11-01T11:37:10Z</time>
      </trkpt>
      <trkpt lat="36.7426180" lon="-2.8998870">
        <ele>33.4</ele>
        <time>2022-11-01T11:37:11Z</time>
      </trkpt>
      <trkpt lat="36.7425560" lon="-2.8998490">
        <ele>33.4</ele>
        <time>2022-11-01T11:37:12Z</time>
      </trkpt>
      <trkpt lat="36.7424920" lon="-2.8998070">
        <ele>33.2</ele>
        <time>2022-11-01T11:37:13Z</time>
      </trkpt>
      <trkpt lat="36.7424270" lon="-2.8997640">
        <ele>33.2</ele>
        <time>2022-11-01T11:37:14Z</time>
      </trkpt>
      <trkpt lat="36.7423590" lon="-2.8997170">
        <ele>33.0</ele>
        <time>2022-11-01T11:37:15Z</time>
      </trkpt>
      <trkpt lat="36.7422890" lon="-2.8996660">
        <ele>32.6</ele>
        <time>2022-11-01T11:37:16Z</time>
      </trkpt>
      <trkpt lat="36.7422170" lon="-2.8996120">
        <ele>32.6</ele>
        <time>2022-11-01T11:37:17Z</time>
      </trkpt>
      <trkpt lat="36.7421430" lon="-2.8995570">
        <ele>32.4</ele>
        <time>2022-11-01T11:37:18Z</time>
      </trkpt>
      <trkpt lat="36.7420690" lon="-2.8995000">
        <ele>32.0</ele>
        <time>2022-11-01T11:37:19Z</time>
      </trkpt>
      <trkpt lat="36.7419950" lon="-2.8994430">
        <ele>31.8</ele>
        <time>2022-11-01T11:37:20Z</time>
      </trkpt>
      <trkpt lat="36.7419200" lon="-2.8993830">
        <ele>31.6</ele>
        <time>2022-11-01T11:37:21Z</time>
      </trkpt>
      <trkpt lat="36.7418460" lon="-2.8993250">
        <ele>31.4</ele>
        <time>2022-11-01T11:37:22Z</time>
      </trkpt>
      <trkpt lat="36.7417710" lon="-2.8992660">
        <ele>31.2</ele>
        <time>2022-11-01T11:37:23Z</time>
      </trkpt>
      <trkpt lat="36.7416960" lon="-2.8992080">
        <ele>31.0</ele>
        <time>2022-11-01T11:37:24Z</time>
      </trkpt>
      <trkpt lat="36.7416200" lon="-2.8991480">
        <ele>30.8</ele>
        <time>2022-11-01T11:37:25Z</time>
      </trkpt>
      <trkpt lat="36.7415440" lon="-2.8990880">
        <ele>30.6</ele>
        <time>2022-11-01T11:37:26Z</time>
      </trkpt>
      <trkpt lat="36.7414670" lon="-2.8990300">
        <ele>30.4</ele>
        <time>2022-11-01T11:37:27Z</time>
      </trkpt>
      <trkpt lat="36.7413900" lon="-2.8989700">
        <ele>30.4</ele>
        <time>2022-11-01T11:37:28Z</time>
      </trkpt>
      <trkpt lat="36.7413120" lon="-2.8989070">
        <ele>30.0</ele>
        <time>2022-11-01T11:37:29Z</time>
      </trkpt>
      <trkpt lat="36.7412360" lon="-2.8988450">
        <ele>29.8</ele>
        <time>2022-11-01T11:37:30Z</time>
      </trkpt>
      <trkpt lat="36.7411610" lon="-2.8987840">
        <ele>29.6</ele>
        <time>2022-11-01T11:37:31Z</time>
      </trkpt>
      <trkpt lat="36.7410860" lon="-2.8987200">
        <ele>29.4</ele>
        <time>2022-11-01T11:37:32Z</time>
      </trkpt>
      <trkpt lat="36.7410130" lon="-2.8986550">
        <ele>29.2</ele>
        <time>2022-11-01T11:37:33Z</time>
      </trkpt>
      <trkpt lat="36.7409390" lon="-2.8985910">
        <ele>28.6</ele>
        <time>2022-11-01T11:37:34Z</time>
      </trkpt>
      <trkpt lat="36.7408640" lon="-2.8985260">
        <ele>28.8</ele>
        <time>2022-11-01T11:37:35Z</time>
      </trkpt>
      <trkpt lat="36.7407900" lon="-2.8984610">
        <ele>28.6</ele>
        <time>2022-11-01T11:37:36Z</time>
      </trkpt>
      <trkpt lat="36.7407140" lon="-2.8983930">
        <ele>28.4</ele>
        <time>2022-11-01T11:37:37Z</time>
      </trkpt>
      <trkpt lat="36.7406400" lon="-2.8983290">
        <ele>28.2</ele>
        <time>2022-11-01T11:37:38Z</time>
      </trkpt>
      <trkpt lat="36.7405640" lon="-2.8982640">
        <ele>28.0</ele>
        <time>2022-11-01T11:37:39Z</time>
      </trkpt>
      <trkpt lat="36.7404890" lon="-2.8981980">
        <ele>27.6</ele>
        <time>2022-11-01T11:37:40Z</time>
      </trkpt>
      <trkpt lat="36.7404160" lon="-2.8981350">
        <ele>27.4</ele>
        <time>2022-11-01T11:37:41Z</time>
      </trkpt>
      <trkpt lat="36.7403410" lon="-2.8980720">
        <ele>27.2</ele>
        <time>2022-11-01T11:37:42Z</time>
      </trkpt>
      <trkpt lat="36.7402620" lon="-2.8980030">
        <ele>27.2</ele>
        <time>2022-11-01T11:37:43Z</time>
      </trkpt>
      <trkpt lat="36.7401840" lon="-2.8979350">
        <ele>26.8</ele>
        <time>2022-11-01T11:37:44Z</time>
      </trkpt>
      <trkpt lat="36.7401050" lon="-2.8978670">
        <ele>26.6</ele>
        <time>2022-11-01T11:37:45Z</time>
      </trkpt>
      <trkpt lat="36.7400250" lon="-2.8977990">
        <ele>26.2</ele>
        <time>2022-11-01T11:37:46Z</time>
      </trkpt>
      <trkpt lat="36.7399450" lon="-2.8977300">
        <ele>25.8</ele>
        <time>2022-11-01T11:37:47Z</time>
      </trkpt>
      <trkpt lat="36.7398650" lon="-2.8976610">
        <ele>25.6</ele>
        <time>2022-11-01T11:37:48Z</time>
      </trkpt>
      <trkpt lat="36.7397840" lon="-2.8975910">
        <ele>25.2</ele>
        <time>2022-11-01T11:37:49Z</time>
      </trkpt>
      <trkpt lat="36.7397030" lon="-2.8975220">
        <ele>24.8</ele>
        <time>2022-11-01T11:37:50Z</time>
      </trkpt>
      <trkpt lat="36.7396220" lon="-2.8974520">
        <ele>24.6</ele>
        <time>2022-11-01T11:37:51Z</time>
      </trkpt>
      <trkpt lat="36.7395410" lon="-2.8973830">
        <ele>24.4</ele>
        <time>2022-11-01T11:37:52Z</time>
      </trkpt>
      <trkpt lat="36.7394590" lon="-2.8973120">
        <ele>24.0</ele>
        <time>2022-11-01T11:37:53Z</time>
      </trkpt>
      <trkpt lat="36.7393770" lon="-2.8972410">
        <ele>23.6</ele>
        <time>2022-11-01T11:37:54Z</time>
      </trkpt>
      <trkpt lat="36.7392940" lon="-2.8971700">
        <ele>23.4</ele>
        <time>2022-11-01T11:37:55Z</time>
      </trkpt>
      <trkpt lat="36.7392100" lon="-2.8970980">
        <ele>23.2</ele>
        <time>2022-11-01T11:37:56Z</time>
      </trkpt>
      <trkpt lat="36.7391280" lon="-2.8970280">
        <ele>22.8</ele>
        <time>2022-11-01T11:37:57Z</time>
      </trkpt>
      <trkpt lat="36.7390450" lon="-2.8969560">
        <ele>22.6</ele>
        <time>2022-11-01T11:37:58Z</time>
      </trkpt>
      <trkpt lat="36.7389630" lon="-2.8968860">
        <ele>22.4</ele>
        <time>2022-11-01T11:37:59Z</time>
      </trkpt>
      <trkpt lat="36.7388810" lon="-2.8968150">
        <ele>22.0</ele>
        <time>2022-11-01T11:38:00Z</time>
      </trkpt>
      <trkpt lat="36.7387990" lon="-2.8967430">
        <ele>21.6</ele>
        <time>2022-11-01T11:38:01Z</time>
      </trkpt>
      <trkpt lat="36.7387170" lon="-2.8966710">
        <ele>21.4</ele>
        <time>2022-11-01T11:38:02Z</time>
      </trkpt>
      <trkpt lat="36.7386350" lon="-2.8966000">
        <ele>21.0</ele>
        <time>2022-11-01T11:38:03Z</time>
      </trkpt>
      <trkpt lat="36.7385530" lon="-2.8965280">
        <ele>20.8</ele>
        <time>2022-11-01T11:38:04Z</time>
      </trkpt>
      <trkpt lat="36.7384720" lon="-2.8964590">
        <ele>20.6</ele>
        <time>2022-11-01T11:38:05Z</time>
      </trkpt>
      <trkpt lat="36.7383930" lon="-2.8963890">
        <ele>20.4</ele>
        <time>2022-11-01T11:38:06Z</time>
      </trkpt>
      <trkpt lat="36.7383150" lon="-2.8963210">
        <ele>20.2</ele>
        <time>2022-11-01T11:38:07Z</time>
      </trkpt>
      <trkpt lat="36.7382390" lon="-2.8962530">
        <ele>20.2</ele>
        <time>2022-11-01T11:38:08Z</time>
      </trkpt>
      <trkpt lat="36.7381620" lon="-2.8961840">
        <ele>20.2</ele>
        <time>2022-11-01T11:38:09Z</time>
      </trkpt>
      <trkpt lat="36.7380850" lon="-2.8961160">
        <ele>20.2</ele>
        <time>2022-11-01T11:38:10Z</time>
      </trkpt>
      <trkpt lat="36.7380100" lon="-2.8960500">
        <ele>20.0</ele>
        <time>2022-11-01T11:38:11Z</time>
      </trkpt>
      <trkpt lat="36.7379380" lon="-2.8959830">
        <ele>20.2</ele>
        <time>2022-11-01T11:38:12Z</time>
      </trkpt>
      <trkpt lat="36.7378680" lon="-2.8959170">
        <ele>20.2</ele>
        <time>2022-11-01T11:38:13Z</time>
      </trkpt>
      <trkpt lat="36.7378000" lon="-2.8958530">
        <ele>20.2</ele>
        <time>2022-11-01T11:38:14Z</time>
      </trkpt>
      <trkpt lat="36.7377330" lon="-2.8957900">
        <ele>20.2</ele>
        <time>2022-11-01T11:38:15Z</time>
      </trkpt>
      <trkpt lat="36.7376680" lon="-2.8957280">
        <ele>20.2</ele>
        <time>2022-11-01T11:38:16Z</time>
      </trkpt>
      <trkpt lat="36.7376020" lon="-2.8956690">
        <ele>20.2</ele>
        <time>2022-11-01T11:38:17Z</time>
      </trkpt>
      <trkpt lat="36.7375350" lon="-2.8956090">
        <ele>20.2</ele>
        <time>2022-11-01T11:38:18Z</time>
      </trkpt>
      <trkpt lat="36.7374710" lon="-2.8955490">
        <ele>20.2</ele>
        <time>2022-11-01T11:38:19Z</time>
      </trkpt>
      <trkpt lat="36.7374060" lon="-2.8954870">
        <ele>20.0</ele>
        <time>2022-11-01T11:38:20Z</time>
      </trkpt>
      <trkpt lat="36.7373430" lon="-2.8954280">
        <ele>20.2</ele>
        <time>2022-11-01T11:38:21Z</time>
      </trkpt>
      <trkpt lat="36.7372810" lon="-2.8953680">
        <ele>20.2</ele>
        <time>2022-11-01T11:38:22Z</time>
      </trkpt>
      <trkpt lat="36.7372210" lon="-2.8953110">
        <ele>20.2</ele>
        <time>2022-11-01T11:38:23Z</time>
      </trkpt>
      <trkpt lat="36.7371600" lon="-2.8952540">
        <ele>20.2</ele>
        <time>2022-11-01T11:38:24Z</time>
      </trkpt>
      <trkpt lat="36.7371010" lon="-2.8951980">
        <ele>20.2</ele>
        <time>2022-11-01T11:38:25Z</time>
      </trkpt>
      <trkpt lat="36.7370430" lon="-2.8951430">
        <ele>20.2</ele>
        <time>2022-11-01T11:38:26Z</time>
      </trkpt>
      <trkpt lat="36.7369840" lon="-2.8950880">
        <ele>20.2</ele>
        <time>2022-11-01T11:38:27Z</time>
      </trkpt>
      <trkpt lat="36.7369240" lon="-2.8950320">
        <ele>20.2</ele>
        <time>2022-11-01T11:38:28Z</time>
      </trkpt>
      <trkpt lat="36.7368640" lon="-2.8949760">
        <ele>20.2</ele>
        <time>2022-11-01T11:38:29Z</time>
      </trkpt>
      <trkpt lat="36.7368040" lon="-2.8949200">
        <ele>20.2</ele>
        <time>2022-11-01T11:38:30Z</time>
      </trkpt>
      <trkpt lat="36.7367450" lon="-2.8948640">
        <ele>20.2</ele>
        <time>2022-11-01T11:38:31Z</time>
      </trkpt>
      <trkpt lat="36.7366860" lon="-2.8948090">
        <ele>20.2</ele>
        <time>2022-11-01T11:38:32Z</time>
      </trkpt>
      <trkpt lat="36.7366270" lon="-2.8947520">
        <ele>20.0</ele>
        <time>2022-11-01T11:38:33Z</time>
      </trkpt>
      <trkpt lat="36.7365690" lon="-2.8946960">
        <ele>20.0</ele>
        <time>2022-11-01T11:38:34Z</time>
      </trkpt>
      <trkpt lat="36.7365140" lon="-2.8946410">
        <ele>20.0</ele>
        <time>2022-11-01T11:38:35Z</time>
      </trkpt>
      <trkpt lat="36.7364610" lon="-2.8945860">
        <ele>20.0</ele>
        <time>2022-11-01T11:38:36Z</time>
      </trkpt>
      <trkpt lat="36.7364070" lon="-2.8945320">
        <ele>20.0</ele>
        <time>2022-11-01T11:38:37Z</time>
      </trkpt>
      <trkpt lat="36.7363530" lon="-2.8944800">
        <ele>20.0</ele>
        <time>2022-11-01T11:38:38Z</time>
      </trkpt>
      <trkpt lat="36.7362980" lon="-2.8944270">
        <ele>20.0</ele>
        <time>2022-11-01T11:38:39Z</time>
      </trkpt>
      <trkpt lat="36.7362440" lon="-2.8943730">
        <ele>20.0</ele>
        <time>2022-11-01T11:38:40Z</time>
      </trkpt>
      <trkpt lat="36.7361900" lon="-2.8943190">
        <ele>20.0</ele>
        <time>2022-11-01T11:38:41Z</time>
      </trkpt>
      <trkpt lat="36.7361370" lon="-2.8942660">
        <ele>20.0</ele>
        <time>2022-11-01T11:38:42Z</time>
      </trkpt>
      <trkpt lat="36.7360840" lon="-2.8942120">
        <ele>20.0</ele>
        <time>2022-11-01T11:38:43Z</time>
      </trkpt>
      <trkpt lat="36.7360310" lon="-2.8941590">
        <ele>20.0</ele>
        <time>2022-11-01T11:38:44Z</time>
      </trkpt>
      <trkpt lat="36.7359780" lon="-2.8941080">
        <ele>20.0</ele>
        <time>2022-11-01T11:38:45Z</time>
      </trkpt>
      <trkpt lat="36.7359300" lon="-2.8940630">
        <ele>20.0</ele>
        <time>2022-11-01T11:38:46Z</time>
      </trkpt>
      <trkpt lat="36.7358800" lon="-2.8940160">
        <ele>20.0</ele>
        <time>2022-11-01T11:38:47Z</time>
      </trkpt>
      <trkpt lat="36.7358310" lon="-2.8939680">
        <ele>20.0</ele>
        <time>2022-11-01T11:38:48Z</time>
      </trkpt>
      <trkpt lat="36.7357810" lon="-2.8939210">
        <ele>20.0</ele>
        <time>2022-11-01T11:38:49Z</time>
      </trkpt>
      <trkpt lat="36.7357330" lon="-2.8938730">
        <ele>20.0</ele>
        <time>2022-11-01T11:38:50Z</time>
      </trkpt>
      <trkpt lat="36.7356840" lon="-2.8938220">
        <ele>20.0</ele>
        <time>2022-11-01T11:38:51Z</time>
      </trkpt>
      <trkpt lat="36.7356350" lon="-2.8937710">
        <ele>20.0</ele>
        <time>2022-11-01T11:38:52Z</time>
      </trkpt>
      <trkpt lat="36.7355850" lon="-2.8937200">
        <ele>20.0</ele>
        <time>2022-11-01T11:38:53Z</time>
      </trkpt>
      <trkpt lat="36.7355340" lon="-2.8936660">
        <ele>20.0</ele>
        <time>2022-11-01T11:38:54Z</time>
      </trkpt>
      <trkpt lat="36.7354830" lon="-2.8936130">
        <ele>20.0</ele>
        <time>2022-11-01T11:38:55Z</time>
      </trkpt>
      <trkpt lat="36.7354290" lon="-2.8935600">
        <ele>20.0</ele>
        <time>2022-11-01T11:38:56Z</time>
      </trkpt>
      <trkpt lat="36.7353760" lon="-2.8935070">
        <ele>20.0</ele>
        <time>2022-11-01T11:38:57Z</time>
      </trkpt>
      <trkpt lat="36.7353240" lon="-2.8934530">
        <ele>20.0</ele>
        <time>2022-11-01T11:38:58Z</time>
      </trkpt>
      <trkpt lat="36.7352740" lon="-2.8934030">
        <ele>20.0</ele>
        <time>2022-11-01T11:38:59Z</time>
      </trkpt>
      <trkpt lat="36.7352250" lon="-2.8933550">
        <ele>20.0</ele>
        <time>2022-11-01T11:39:00Z</time>
      </trkpt>
      <trkpt lat="36.7351750" lon="-2.8933040">
        <ele>20.0</ele>
        <time>2022-11-01T11:39:01Z</time>
      </trkpt>
      <trkpt lat="36.7351220" lon="-2.8932510">
        <ele>20.0</ele>
        <time>2022-11-01T11:39:02Z</time>
      </trkpt>
      <trkpt lat="36.7350680" lon="-2.8932010">
        <ele>20.0</ele>
        <time>2022-11-01T11:39:03Z</time>
      </trkpt>
      <trkpt lat="36.7350140" lon="-2.8931480">
        <ele>20.0</ele>
        <time>2022-11-01T11:39:04Z</time>
      </trkpt>
      <trkpt lat="36.7349600" lon="-2.8930940">
        <ele>20.0</ele>
        <time>2022-11-01T11:39:05Z</time>
      </trkpt>
      <trkpt lat="36.7349060" lon="-2.8930390">
        <ele>20.0</ele>
        <time>2022-11-01T11:39:06Z</time>
      </trkpt>
      <trkpt lat="36.7348550" lon="-2.8929870">
        <ele>20.0</ele>
        <time>2022-11-01T11:39:07Z</time>
      </trkpt>
      <trkpt lat="36.7348040" lon="-2.8929350">
        <ele>19.8</ele>
        <time>2022-11-01T11:39:08Z</time>
      </trkpt>
      <trkpt lat="36.7347510" lon="-2.8928810">
        <ele>20.0</ele>
        <time>2022-11-01T11:39:09Z</time>
      </trkpt>
      <trkpt lat="36.7347000" lon="-2.8928290">
        <ele>20.0</ele>
        <time>2022-11-01T11:39:10Z</time>
      </trkpt>
      <trkpt lat="36.7346490" lon="-2.8927760">
        <ele>20.0</ele>
        <time>2022-11-01T11:39:11Z</time>
      </trkpt>
      <trkpt lat="36.7345970" lon="-2.8927210">
        <ele>20.0</ele>
        <time>2022-11-01T11:39:12Z</time>
      </trkpt>
      <trkpt lat="36.7345450" lon="-2.8926680">
        <ele>20.0</ele>
        <time>2022-11-01T11:39:13Z</time>
      </trkpt>
      <trkpt lat="36.7344930" lon="-2.8926120">
        <ele>20.0</ele>
        <time>2022-11-01T11:39:14Z</time>
      </trkpt>
      <trkpt lat="36.7344410" lon="-2.8925610">
        <ele>20.0</ele>
        <time>2022-11-01T11:39:15Z</time>
      </trkpt>
      <trkpt lat="36.7343880" lon="-2.8925090">
        <ele>20.0</ele>
        <time>2022-11-01T11:39:16Z</time>
      </trkpt>
      <trkpt lat="36.7343370" lon="-2.8924570">
        <ele>20.0</ele>
        <time>2022-11-01T11:39:17Z</time>
      </trkpt>
      <trkpt lat="36.7342870" lon="-2.8924080">
        <ele>20.0</ele>
        <time>2022-11-01T11:39:18Z</time>
      </trkpt>
      <trkpt lat="36.7342340" lon="-2.8923540">
        <ele>20.0</ele>
        <time>2022-11-01T11:39:19Z</time>
      </trkpt>
      <trkpt lat="36.7341800" lon="-2.8923000">
        <ele>19.8</ele>
        <time>2022-11-01T11:39:20Z</time>
      </trkpt>
      <trkpt lat="36.7341270" lon="-2.8922480">
        <ele>19.8</ele>
        <time>2022-11-01T11:39:21Z</time>
      </trkpt>
      <trkpt lat="36.7340750" lon="-2.8921950">
        <ele>19.8</ele>
        <time>2022-11-01T11:39:22Z</time>
      </trkpt>
      <trkpt lat="36.7340240" lon="-2.8921430">
        <ele>19.8</ele>
        <time>2022-11-01T11:39:23Z</time>
      </trkpt>
      <trkpt lat="36.7339730" lon="-2.8920910">
        <ele>19.8</ele>
        <time>2022-11-01T11:39:24Z</time>
      </trkpt>
      <trkpt lat="36.7339220" lon="-2.8920390">
        <ele>19.8</ele>
        <time>2022-11-01T11:39:25Z</time>
      </trkpt>
      <trkpt lat="36.7338730" lon="-2.8919900">
        <ele>19.8</ele>
        <time>2022-11-01T11:39:26Z</time>
      </trkpt>
      <trkpt lat="36.7338200" lon="-2.8919390">
        <ele>19.8</ele>
        <time>2022-11-01T11:39:27Z</time>
      </trkpt>
      <trkpt lat="36.7337670" lon="-2.8918880">
        <ele>19.8</ele>
        <time>2022-11-01T11:39:28Z</time>
      </trkpt>
      <trkpt lat="36.7337140" lon="-2.8918360">
        <ele>19.6</ele>
        <time>2022-11-01T11:39:29Z</time>
      </trkpt>
      <trkpt lat="36.7336610" lon="-2.8917810">
        <ele>19.6</ele>
        <time>2022-11-01T11:39:30Z</time>
      </trkpt>
      <trkpt lat="36.7336070" lon="-2.8917290">
        <ele>19.6</ele>
        <time>2022-11-01T11:39:31Z</time>
      </trkpt>
      <trkpt lat="36.7335550" lon="-2.8916770">
        <ele>19.6</ele>
        <time>2022-11-01T11:39:32Z</time>
      </trkpt>
      <trkpt lat="36.7335030" lon="-2.8916260">
        <ele>19.6</ele>
        <time>2022-11-01T11:39:33Z</time>
      </trkpt>
      <trkpt lat="36.7334510" lon="-2.8915730">
        <ele>19.6</ele>
        <time>2022-11-01T11:39:34Z</time>
      </trkpt>
      <trkpt lat="36.7333980" lon="-2.8915200">
        <ele>19.6</ele>
        <time>2022-11-01T11:39:35Z</time>
      </trkpt>
      <trkpt lat="36.7333460" lon="-2.8914670">
        <ele>19.6</ele>
        <time>2022-11-01T11:39:36Z</time>
      </trkpt>
      <trkpt lat="36.7332950" lon="-2.8914130">
        <ele>19.6</ele>
        <time>2022-11-01T11:39:37Z</time>
      </trkpt>
      <trkpt lat="36.7332450" lon="-2.8913630">
        <ele>19.6</ele>
        <time>2022-11-01T11:39:38Z</time>
      </trkpt>
      <trkpt lat="36.7331940" lon="-2.8913140">
        <ele>19.6</ele>
        <time>2022-11-01T11:39:39Z</time>
      </trkpt>
      <trkpt lat="36.7331450" lon="-2.8912650">
        <ele>19.6</ele>
        <time>2022-11-01T11:39:40Z</time>
      </trkpt>
      <trkpt lat="36.7330990" lon="-2.8912160">
        <ele>19.6</ele>
        <time>2022-11-01T11:39:41Z</time>
      </trkpt>
      <trkpt lat="36.7330520" lon="-2.8911690">
        <ele>19.6</ele>
        <time>2022-11-01T11:39:42Z</time>
      </trkpt>
      <trkpt lat="36.7330040" lon="-2.8911210">
        <ele>19.6</ele>
        <time>2022-11-01T11:39:43Z</time>
      </trkpt>
      <trkpt lat="36.7329580" lon="-2.8910750">
        <ele>19.6</ele>
        <time>2022-11-01T11:39:44Z</time>
      </trkpt>
      <trkpt lat="36.7329150" lon="-2.8910330">
        <ele>19.8</ele>
        <time>2022-11-01T11:39:45Z</time>
      </trkpt>
      <trkpt lat="36.7328740" lon="-2.8909890">
        <ele>19.8</ele>
        <time>2022-11-01T11:39:46Z</time>
      </trkpt>
      <trkpt lat="36.7328350" lon="-2.8909430">
        <ele>19.8</ele>
        <time>2022-11-01T11:39:47Z</time>
      </trkpt>
      <trkpt lat="36.7327970" lon="-2.8909020">
        <ele>19.8</ele>
        <time>2022-11-01T11:39:48Z</time>
      </trkpt>
      <trkpt lat="36.7327580" lon="-2.8908560">
        <ele>19.8</ele>
        <time>2022-11-01T11:39:49Z</time>
      </trkpt>
      <trkpt lat="36.7327220" lon="-2.8908100">
        <ele>20.0</ele>
        <time>2022-11-01T11:39:50Z</time>
      </trkpt>
      <trkpt lat="36.7326880" lon="-2.8907630">
        <ele>20.0</ele>
        <time>2022-11-01T11:39:51Z</time>
      </trkpt>
      <trkpt lat="36.7326530" lon="-2.8907210">
        <ele>20.0</ele>
        <time>2022-11-01T11:39:52Z</time>
      </trkpt>
      <trkpt lat="36.7326170" lon="-2.8906770">
        <ele>20.0</ele>
        <time>2022-11-01T11:39:53Z</time>
      </trkpt>
      <trkpt lat="36.7325790" lon="-2.8906330">
        <ele>20.0</ele>
        <time>2022-11-01T11:39:54Z</time>
      </trkpt>
      <trkpt lat="36.7325440" lon="-2.8905870">
        <ele>19.8</ele>
        <time>2022-11-01T11:39:55Z</time>
      </trkpt>
      <trkpt lat="36.7325140" lon="-2.8905360">
        <ele>20.0</ele>
        <time>2022-11-01T11:39:56Z</time>
      </trkpt>
      <trkpt lat="36.7324900" lon="-2.8904750">
        <ele>20.0</ele>
        <time>2022-11-01T11:39:57Z</time>
      </trkpt>
      <trkpt lat="36.7324840" lon="-2.8904110">
        <ele>20.0</ele>
        <time>2022-11-01T11:39:58Z</time>
      </trkpt>
      <trkpt lat="36.7324920" lon="-2.8903580">
        <ele>20.0</ele>
        <time>2022-11-01T11:39:59Z</time>
      </trkpt>
      <trkpt lat="36.7325140" lon="-2.8903160">
        <ele>20.0</ele>
        <time>2022-11-01T11:40:00Z</time>
      </trkpt>
      <trkpt lat="36.7325340" lon="-2.8902860">
        <ele>20.0</ele>
        <time>2022-11-01T11:40:01Z</time>
      </trkpt>
      <trkpt lat="36.7325470" lon="-2.8902710">
        <ele>20.0</ele>
        <time>2022-11-01T11:40:02Z</time>
      </trkpt>
      <trkpt lat="36.7325510" lon="-2.8902640">
        <ele>20.0</ele>
        <time>2022-11-01T11:40:03Z</time>
      </trkpt>
      <trkpt lat="36.7325460" lon="-2.8902570">
        <ele>20.0</ele>
        <time>2022-11-01T11:40:04Z</time>
      </trkpt>
      <trkpt lat="36.7325420" lon="-2.8902490">
        <ele>20.2</ele>
        <time>2022-11-01T11:40:05Z</time>
      </trkpt>
      <trkpt lat="36.7305320" lon="-2.8885140">
        <ele>23.2</ele>
        <time>2022-11-01T11:52:43Z</time>
      </trkpt>
      <trkpt lat="36.7305320" lon="-2.8885140">
        <ele>23.2</ele>
        <time>2022-11-01T11:52:44Z</time>
      </trkpt>
      <trkpt lat="36.7305020" lon="-2.8884880">
        <ele>23.2</ele>
        <time>2022-11-01T11:52:45Z</time>
      </trkpt>
      <trkpt lat="36.7304710" lon="-2.8884610">
        <ele>23.4</ele>
        <time>2022-11-01T11:52:46Z</time>
      </trkpt>
      <trkpt lat="36.7304390" lon="-2.8884390">
        <ele>23.4</ele>
        <time>2022-11-01T11:52:47Z</time>
      </trkpt>
      <trkpt lat="36.7304130" lon="-2.8884180">
        <ele>23.4</ele>
        <time>2022-11-01T11:52:48Z</time>
      </trkpt>
      <trkpt lat="36.7303760" lon="-2.8883790">
        <ele>23.4</ele>
        <time>2022-11-01T11:52:49Z</time>
      </trkpt>
      <trkpt lat="36.7303390" lon="-2.8883470">
        <ele>23.4</ele>
        <time>2022-11-01T11:52:50Z</time>
      </trkpt>
      <trkpt lat="36.7303040" lon="-2.8883230">
        <ele>23.4</ele>
        <time>2022-11-01T11:52:51Z</time>
      </trkpt>
      <trkpt lat="36.7302630" lon="-2.8882890">
        <ele>23.6</ele>
        <time>2022-11-01T11:52:52Z</time>
      </trkpt>
      <trkpt lat="36.7302170" lon="-2.8882490">
        <ele>23.6</ele>
        <time>2022-11-01T11:52:53Z</time>
      </trkpt>
      <trkpt lat="36.7301800" lon="-2.8882110">
        <ele>23.8</ele>
        <time>2022-11-01T11:52:54Z</time>
      </trkpt>
      <trkpt lat="36.7301420" lon="-2.8881800">
        <ele>23.8</ele>
        <time>2022-11-01T11:52:55Z</time>
      </trkpt>
      <trkpt lat="36.7301050" lon="-2.8881530">
        <ele>23.8</ele>
        <time>2022-11-01T11:52:56Z</time>
      </trkpt>
      <trkpt lat="36.7300700" lon="-2.8881290">
        <ele>23.8</ele>
        <time>2022-11-01T11:52:57Z</time>
      </trkpt>
      <trkpt lat="36.7300290" lon="-2.8880980">
        <ele>24.0</ele>
        <time>2022-11-01T11:52:58Z</time>
      </trkpt>
      <trkpt lat="36.7300000" lon="-2.8880690">
        <ele>24.0</ele>
        <time>2022-11-01T11:52:59Z</time>
      </trkpt>
      <trkpt lat="36.7299880" lon="-2.8880360">
        <ele>24.2</ele>
        <time>2022-11-01T11:53:00Z</time>
      </trkpt>
      <trkpt lat="36.7299840" lon="-2.8879910">
        <ele>24.2</ele>
        <time>2022-11-01T11:53:01Z</time>
      </trkpt>
      <trkpt lat="36.7299890" lon="-2.8879450">
        <ele>24.2</ele>
        <time>2022-11-01T11:53:02Z</time>
      </trkpt>
      <trkpt lat="36.7300020" lon="-2.8878980">
        <ele>24.2</ele>
        <time>2022-11-01T11:53:03Z</time>
      </trkpt>
      <trkpt lat="36.7300120" lon="-2.8878510">
        <ele>24.2</ele>
        <time>2022-11-01T11:53:04Z</time>
      </trkpt>
      <trkpt lat="36.7300300" lon="-2.8877980">
        <ele>24.0</ele>
        <time>2022-11-01T11:53:05Z</time>
      </trkpt>
      <trkpt lat="36.7300520" lon="-2.8877460">
        <ele>24.0</ele>
        <time>2022-11-01T11:53:06Z</time>
      </trkpt>
      <trkpt lat="36.7300650" lon="-2.8876920">
        <ele>24.0</ele>
        <time>2022-11-01T11:53:07Z</time>
      </trkpt>
      <trkpt lat="36.7300820" lon="-2.8876350">
        <ele>23.8</ele>
        <time>2022-11-01T11:53:08Z</time>
      </trkpt>
      <trkpt lat="36.7301010" lon="-2.8875800">
        <ele>23.8</ele>
        <time>2022-11-01T11:53:09Z</time>
      </trkpt>
      <trkpt lat="36.7301200" lon="-2.8875200">
        <ele>23.8</ele>
        <time>2022-11-01T11:53:10Z</time>
      </trkpt>
      <trkpt lat="36.7301360" lon="-2.8874620">
        <ele>23.6</ele>
        <time>2022-11-01T11:53:11Z</time>
      </trkpt>
      <trkpt lat="36.7301560" lon="-2.8874030">
        <ele>23.6</ele>
        <time>2022-11-01T11:53:12Z</time>
      </trkpt>
      <trkpt lat="36.7301770" lon="-2.8873440">
        <ele>23.4</ele>
        <time>2022-11-01T11:53:13Z</time>
      </trkpt>
      <trkpt lat="36.7302000" lon="-2.8872830">
        <ele>23.4</ele>
        <time>2022-11-01T11:53:14Z</time>
      </trkpt>
      <trkpt lat="36.7302280" lon="-2.8872220">
        <ele>23.2</ele>
        <time>2022-11-01T11:53:15Z</time>
      </trkpt>
      <trkpt lat="36.7302580" lon="-2.8871620">
        <ele>23.2</ele>
        <time>2022-11-01T11:53:16Z</time>
      </trkpt>
      <trkpt lat="36.7302810" lon="-2.8871020">
        <ele>23.0</ele>
        <time>2022-11-01T11:53:17Z</time>
      </trkpt>
      <trkpt lat="36.7303080" lon="-2.8870450">
        <ele>23.0</ele>
        <time>2022-11-01T11:53:18Z</time>
      </trkpt>
      <trkpt lat="36.7303360" lon="-2.8869860">
        <ele>23.0</ele>
        <time>2022-11-01T11:53:19Z</time>
      </trkpt>
      <trkpt lat="36.7303640" lon="-2.8869290">
        <ele>22.8</ele>
        <time>2022-11-01T11:53:20Z</time>
      </trkpt>
      <trkpt lat="36.7303910" lon="-2.8868720">
        <ele>22.8</ele>
        <time>2022-11-01T11:53:21Z</time>
      </trkpt>
      <trkpt lat="36.7304160" lon="-2.8868170">
        <ele>22.8</ele>
        <time>2022-11-01T11:53:22Z</time>
      </trkpt>
      <trkpt lat="36.7304360" lon="-2.8867690">
        <ele>22.8</ele>
        <time>2022-11-01T11:53:23Z</time>
      </trkpt>
      <trkpt lat="36.7304420" lon="-2.8867360">
        <ele>22.8</ele>
        <time>2022-11-01T11:53:24Z</time>
      </trkpt>
      <trkpt lat="36.7304400" lon="-2.8867130">
        <ele>22.6</ele>
        <time>2022-11-01T11:53:25Z</time>
      </trkpt>
      <trkpt lat="36.7304410" lon="-2.8866970">
        <ele>22.6</ele>
        <time>2022-11-01T11:53:26Z</time>
      </trkpt>
      <trkpt lat="36.7304280" lon="-2.8866740">
        <ele>22.4</ele>
        <time>2022-11-01T11:53:27Z</time>
      </trkpt>
      <trkpt lat="36.7304080" lon="-2.8866460">
        <ele>22.4</ele>
        <time>2022-11-01T11:53:28Z</time>
      </trkpt>
      <trkpt lat="36.7303790" lon="-2.8866160">
        <ele>22.4</ele>
        <time>2022-11-01T11:53:29Z</time>
      </trkpt>
      <trkpt lat="36.7303420" lon="-2.8865860">
        <ele>22.6</ele>
        <time>2022-11-01T11:53:30Z</time>
      </trkpt>
      <trkpt lat="36.7303080" lon="-2.8865590">
        <ele>22.6</ele>
        <time>2022-11-01T11:53:31Z</time>
      </trkpt>
      <trkpt lat="36.7302850" lon="-2.8865450">
        <ele>22.6</ele>
        <time>2022-11-01T11:53:32Z</time>
      </trkpt>
      <trkpt lat="36.7302550" lon="-2.8865190">
        <ele>22.6</ele>
        <time>2022-11-01T11:53:33Z</time>
      </trkpt>
      <trkpt lat="36.7302370" lon="-2.8865140">
        <ele>22.6</ele>
        <time>2022-11-01T11:53:34Z</time>
      </trkpt>
      <trkpt lat="36.7302100" lon="-2.8864990">
        <ele>22.6</ele>
        <time>2022-11-01T11:53:35Z</time>
      </trkpt>
      <trkpt lat="36.7301900" lon="-2.8864830">
        <ele>22.8</ele>
        <time>2022-11-01T11:53:36Z</time>
      </trkpt>
      <trkpt lat="36.7301730" lon="-2.8864770">
        <ele>22.8</ele>
        <time>2022-11-01T11:53:37Z</time>
      </trkpt>
      <trkpt lat="36.7301550" lon="-2.8864680">
        <ele>22.8</ele>
        <time>2022-11-01T11:53:38Z</time>
      </trkpt>
      <trkpt lat="36.7301340" lon="-2.8864600">
        <ele>22.8</ele>
        <time>2022-11-01T11:53:39Z</time>
      </trkpt>
      <trkpt lat="36.7301170" lon="-2.8864290">
        <ele>22.8</ele>
        <time>2022-11-01T11:53:40Z</time>
      </trkpt>
      <trkpt lat="36.7300850" lon="-2.8864150">
        <ele>22.8</ele>
        <time>2022-11-01T11:53:41Z</time>
      </trkpt>
      <trkpt lat="36.7300560" lon="-2.8864080">
        <ele>22.8</ele>
        <time>2022-11-01T11:53:42Z</time>
      </trkpt>
      <trkpt lat="36.7300350" lon="-2.8864020">
        <ele>22.6</ele>
        <time>2022-11-01T11:53:43Z</time>
      </trkpt>
      <trkpt lat="36.7300160" lon="-2.8863860">
        <ele>22.6</ele>
        <time>2022-11-01T11:53:44Z</time>
      </trkpt>
      <trkpt lat="36.7299800" lon="-2.8863560">
        <ele>22.6</ele>
        <time>2022-11-01T11:53:45Z</time>
      </trkpt>
      <trkpt lat="36.7299400" lon="-2.8863300">
        <ele>22.8</ele>
        <time>2022-11-01T11:53:46Z</time>
      </trkpt>
      <trkpt lat="36.7299000" lon="-2.8863040">
        <ele>22.8</ele>
        <time>2022-11-01T11:53:47Z</time>
      </trkpt>
      <trkpt lat="36.7298600" lon="-2.8862800">
        <ele>22.8</ele>
        <time>2022-11-01T11:53:48Z</time>
      </trkpt>
      <trkpt lat="36.7298190" lon="-2.8862580">
        <ele>22.8</ele>
        <time>2022-11-01T11:53:49Z</time>
      </trkpt>
      <trkpt lat="36.7297770" lon="-2.8862350">
        <ele>22.8</ele>
        <time>2022-11-01T11:53:50Z</time>
      </trkpt>
      <trkpt lat="36.7297330" lon="-2.8862030">
        <ele>22.8</ele>
        <time>2022-11-01T11:53:51Z</time>
      </trkpt>
      <trkpt lat="36.7294990" lon="-2.8858830">
        <ele>23.0</ele>
        <time>2022-11-01T11:53:52Z</time>
      </trkpt>
      <trkpt lat="36.7294280" lon="-2.8857950">
        <ele>22.8</ele>
        <time>2022-11-01T11:53:53Z</time>
      </trkpt>
      <trkpt lat="36.7293800" lon="-2.8858000">
        <ele>22.8</ele>
        <time>2022-11-01T11:53:54Z</time>
      </trkpt>
      <trkpt lat="36.7293320" lon="-2.8857830">
        <ele>22.8</ele>
        <time>2022-11-01T11:53:55Z</time>
      </trkpt>
      <trkpt lat="36.7293100" lon="-2.8857700">
        <ele>22.8</ele>
        <time>2022-11-01T11:53:56Z</time>
      </trkpt>
      <trkpt lat="36.7292780" lon="-2.8857420">
        <ele>22.8</ele>
        <time>2022-11-01T11:53:57Z</time>
      </trkpt>
      <trkpt lat="36.7292310" lon="-2.8857120">
        <ele>23.0</ele>
        <time>2022-11-01T11:53:58Z</time>
      </trkpt>
      <trkpt lat="36.7291740" lon="-2.8856800">
        <ele>23.0</ele>
        <time>2022-11-01T11:53:59Z</time>
      </trkpt>
      <trkpt lat="36.7291360" lon="-2.8856540">
        <ele>23.0</ele>
        <time>2022-11-01T11:54:00Z</time>
      </trkpt>
      <trkpt lat="36.7291000" lon="-2.8856230">
        <ele>23.0</ele>
        <time>2022-11-01T11:54:01Z</time>
      </trkpt>
      <trkpt lat="36.7290610" lon="-2.8855910">
        <ele>23.0</ele>
        <time>2022-11-01T11:54:02Z</time>
      </trkpt>
      <trkpt lat="36.7290280" lon="-2.8855440">
        <ele>23.0</ele>
        <time>2022-11-01T11:54:03Z</time>
      </trkpt>
      <trkpt lat="36.7289790" lon="-2.8855120">
        <ele>23.0</ele>
        <time>2022-11-01T11:54:04Z</time>
      </trkpt>
      <trkpt lat="36.7289260" lon="-2.8854840">
        <ele>23.0</ele>
        <time>2022-11-01T11:54:05Z</time>
      </trkpt>
      <trkpt lat="36.7288690" lon="-2.8854470">
        <ele>23.0</ele>
        <time>2022-11-01T11:54:06Z</time>
      </trkpt>
      <trkpt lat="36.7288210" lon="-2.8854060">
        <ele>23.2</ele>
        <time>2022-11-01T11:54:07Z</time>
      </trkpt>
      <trkpt lat="36.7287830" lon="-2.8853780">
        <ele>23.2</ele>
        <time>2022-11-01T11:54:08Z</time>
      </trkpt>
      <trkpt lat="36.7287560" lon="-2.8853510">
        <ele>23.0</ele>
        <time>2022-11-01T11:54:09Z</time>
      </trkpt>
      <trkpt lat="36.7287340" lon="-2.8853260">
        <ele>23.0</ele>
        <time>2022-11-01T11:54:10Z</time>
      </trkpt>
      <trkpt lat="36.7287090" lon="-2.8852850">
        <ele>23.0</ele>
        <time>2022-11-01T11:54:11Z</time>
      </trkpt>
      <trkpt lat="36.7286760" lon="-2.8852440">
        <ele>23.0</ele>
        <time>2022-11-01T11:54:12Z</time>
      </trkpt>
      <trkpt lat="36.7286540" lon="-2.8852130">
        <ele>23.0</ele>
        <time>2022-11-01T11:54:13Z</time>
      </trkpt>
      <trkpt lat="36.7286190" lon="-2.8851680">
        <ele>22.8</ele>
        <time>2022-11-01T11:54:14Z</time>
      </trkpt>
      <trkpt lat="36.7285900" lon="-2.8851400">
        <ele>22.8</ele>
        <time>2022-11-01T11:54:15Z</time>
      </trkpt>
      <trkpt lat="36.7285630" lon="-2.8851170">
        <ele>23.0</ele>
        <time>2022-11-01T11:54:16Z</time>
      </trkpt>
      <trkpt lat="36.7285360" lon="-2.8850830">
        <ele>23.0</ele>
        <time>2022-11-01T11:54:17Z</time>
      </trkpt>
      <trkpt lat="36.7284900" lon="-2.8850620">
        <ele>23.0</ele>
        <time>2022-11-01T11:54:18Z</time>
      </trkpt>
      <trkpt lat="36.7284430" lon="-2.8850290">
        <ele>23.0</ele>
        <time>2022-11-01T11:54:19Z</time>
      </trkpt>
      <trkpt lat="36.7283900" lon="-2.8849920">
        <ele>23.0</ele>
        <time>2022-11-01T11:54:20Z</time>
      </trkpt>
      <trkpt lat="36.7283430" lon="-2.8849480">
        <ele>23.0</ele>
        <time>2022-11-01T11:54:21Z</time>
      </trkpt>
      <trkpt lat="36.7282990" lon="-2.8849100">
        <ele>23.0</ele>
        <time>2022-11-01T11:54:22Z</time>
      </trkpt>
      <trkpt lat="36.7282610" lon="-2.8848850">
        <ele>23.0</ele>
        <time>2022-11-01T11:54:23Z</time>
      </trkpt>
      <trkpt lat="36.7282210" lon="-2.8848560">
        <ele>23.0</ele>
        <time>2022-11-01T11:54:24Z</time>
      </trkpt>
      <trkpt lat="36.7281790" lon="-2.8848150">
        <ele>23.0</ele>
        <time>2022-11-01T11:54:25Z</time>
      </trkpt>
      <trkpt lat="36.7281270" lon="-2.8847690">
        <ele>23.0</ele>
        <time>2022-11-01T11:54:26Z</time>
      </trkpt>
      <trkpt lat="36.7280800" lon="-2.8847240">
        <ele>23.0</ele>
        <time>2022-11-01T11:54:27Z</time>
      </trkpt>
      <trkpt lat="36.7280300" lon="-2.8846760">
        <ele>22.8</ele>
        <time>2022-11-01T11:54:28Z</time>
      </trkpt>
      <trkpt lat="36.7279880" lon="-2.8846310">
        <ele>23.0</ele>
        <time>2022-11-01T11:54:29Z</time>
      </trkpt>
      <trkpt lat="36.7279440" lon="-2.8845880">
        <ele>22.8</ele>
        <time>2022-11-01T11:54:30Z</time>
      </trkpt>
      <trkpt lat="36.7278960" lon="-2.8845490">
        <ele>22.8</ele>
        <time>2022-11-01T11:54:31Z</time>
      </trkpt>
      <trkpt lat="36.7278480" lon="-2.8845010">
        <ele>22.8</ele>
        <time>2022-11-01T11:54:32Z</time>
      </trkpt>
      <trkpt lat="36.7277980" lon="-2.8844560">
        <ele>22.8</ele>
        <time>2022-11-01T11:54:33Z</time>
      </trkpt>
      <trkpt lat="36.7277490" lon="-2.8844150">
        <ele>22.8</ele>
        <time>2022-11-01T11:54:34Z</time>
      </trkpt>
      <trkpt lat="36.7276960" lon="-2.8843760">
        <ele>22.8</ele>
        <time>2022-11-01T11:54:35Z</time>
      </trkpt>
      <trkpt lat="36.7276520" lon="-2.8843360">
        <ele>22.6</ele>
        <time>2022-11-01T11:54:36Z</time>
      </trkpt>
      <trkpt lat="36.7275930" lon="-2.8842760">
        <ele>22.6</ele>
        <time>2022-11-01T11:54:37Z</time>
      </trkpt>
      <trkpt lat="36.7275450" lon="-2.8842360">
        <ele>22.6</ele>
        <time>2022-11-01T11:54:38Z</time>
      </trkpt>
      <trkpt lat="36.7275000" lon="-2.8842000">
        <ele>22.6</ele>
        <time>2022-11-01T11:54:39Z</time>
      </trkpt>
      <trkpt lat="36.7274560" lon="-2.8841500">
        <ele>22.6</ele>
        <time>2022-11-01T11:54:40Z</time>
      </trkpt>
      <trkpt lat="36.7274090" lon="-2.8841030">
        <ele>22.4</ele>
        <time>2022-11-01T11:54:41Z</time>
      </trkpt>
      <trkpt lat="36.7273650" lon="-2.8840630">
        <ele>22.4</ele>
        <time>2022-11-01T11:54:42Z</time>
      </trkpt>
      <trkpt lat="36.7273170" lon="-2.8840180">
        <ele>22.4</ele>
        <time>2022-11-01T11:54:43Z</time>
      </trkpt>
      <trkpt lat="36.7272670" lon="-2.8839630">
        <ele>22.4</ele>
        <time>2022-11-01T11:54:44Z</time>
      </trkpt>
      <trkpt lat="36.7272100" lon="-2.8839090">
        <ele>22.4</ele>
        <time>2022-11-01T11:54:45Z</time>
      </trkpt>
      <trkpt lat="36.7271550" lon="-2.8838650">
        <ele>22.2</ele>
        <time>2022-11-01T11:54:46Z</time>
      </trkpt>
      <trkpt lat="36.7271010" lon="-2.8838130">
        <ele>22.4</ele>
        <time>2022-11-01T11:54:47Z</time>
      </trkpt>
      <trkpt lat="36.7270530" lon="-2.8837610">
        <ele>22.4</ele>
        <time>2022-11-01T11:54:48Z</time>
      </trkpt>
      <trkpt lat="36.7270050" lon="-2.8837090">
        <ele>22.8</ele>
        <time>2022-11-01T11:54:49Z</time>
      </trkpt>
      <trkpt lat="36.7269590" lon="-2.8836600">
        <ele>23.0</ele>
        <time>2022-11-01T11:54:50Z</time>
      </trkpt>
      <trkpt lat="36.7269200" lon="-2.8836150">
        <ele>23.4</ele>
        <time>2022-11-01T11:54:51Z</time>
      </trkpt>
      <trkpt lat="36.7268830" lon="-2.8835750">
        <ele>23.6</ele>
        <time>2022-11-01T11:54:52Z</time>
      </trkpt>
      <trkpt lat="36.7268450" lon="-2.8835330">
        <ele>23.8</ele>
        <time>2022-11-01T11:54:53Z</time>
      </trkpt>
      <trkpt lat="36.7268070" lon="-2.8834900">
        <ele>24.0</ele>
        <time>2022-11-01T11:54:54Z</time>
      </trkpt>
      <trkpt lat="36.7267680" lon="-2.8834450">
        <ele>24.2</ele>
        <time>2022-11-01T11:54:55Z</time>
      </trkpt>
      <trkpt lat="36.7267280" lon="-2.8834000">
        <ele>24.2</ele>
        <time>2022-11-01T11:54:56Z</time>
      </trkpt>
      <trkpt lat="36.7266850" lon="-2.8833540">
        <ele>24.0</ele>
        <time>2022-11-01T11:54:57Z</time>
      </trkpt>
      <trkpt lat="36.7266400" lon="-2.8833060">
        <ele>23.8</ele>
        <time>2022-11-01T11:54:58Z</time>
      </trkpt>
      <trkpt lat="36.7265920" lon="-2.8832550">
        <ele>23.4</ele>
        <time>2022-11-01T11:54:59Z</time>
      </trkpt>
      <trkpt lat="36.7265380" lon="-2.8831960">
        <ele>23.2</ele>
        <time>2022-11-01T11:55:00Z</time>
      </trkpt>
      <trkpt lat="36.7264810" lon="-2.8831420">
        <ele>22.8</ele>
        <time>2022-11-01T11:55:01Z</time>
      </trkpt>
      <trkpt lat="36.7264290" lon="-2.8830890">
        <ele>22.6</ele>
        <time>2022-11-01T11:55:02Z</time>
      </trkpt>
      <trkpt lat="36.7263770" lon="-2.8830350">
        <ele>22.6</ele>
        <time>2022-11-01T11:55:03Z</time>
      </trkpt>
      <trkpt lat="36.7263250" lon="-2.8829790">
        <ele>22.4</ele>
        <time>2022-11-01T11:55:04Z</time>
      </trkpt>
      <trkpt lat="36.7262720" lon="-2.8829190">
        <ele>22.4</ele>
        <time>2022-11-01T11:55:05Z</time>
      </trkpt>
      <trkpt lat="36.7262220" lon="-2.8828590">
        <ele>22.4</ele>
        <time>2022-11-01T11:55:06Z</time>
      </trkpt>
      <trkpt lat="36.7261690" lon="-2.8827960">
        <ele>22.4</ele>
        <time>2022-11-01T11:55:07Z</time>
      </trkpt>
      <trkpt lat="36.7261150" lon="-2.8827340">
        <ele>22.4</ele>
        <time>2022-11-01T11:55:08Z</time>
      </trkpt>
      <trkpt lat="36.7260600" lon="-2.8826700">
        <ele>22.4</ele>
        <time>2022-11-01T11:55:09Z</time>
      </trkpt>
      <trkpt lat="36.7260080" lon="-2.8826100">
        <ele>22.4</ele>
        <time>2022-11-01T11:55:10Z</time>
      </trkpt>
      <trkpt lat="36.7259550" lon="-2.8825490">
        <ele>22.4</ele>
        <time>2022-11-01T11:55:11Z</time>
      </trkpt>
      <trkpt lat="36.7259000" lon="-2.8824900">
        <ele>22.4</ele>
        <time>2022-11-01T11:55:12Z</time>
      </trkpt>
      <trkpt lat="36.7258500" lon="-2.8824340">
        <ele>22.4</ele>
        <time>2022-11-01T11:55:13Z</time>
      </trkpt>
      <trkpt lat="36.7257960" lon="-2.8823760">
        <ele>22.4</ele>
        <time>2022-11-01T11:55:14Z</time>
      </trkpt>
      <trkpt lat="36.7257410" lon="-2.8823160">
        <ele>22.4</ele>
        <time>2022-11-01T11:55:15Z</time>
      </trkpt>
      <trkpt lat="36.7256860" lon="-2.8822570">
        <ele>22.4</ele>
        <time>2022-11-01T11:55:16Z</time>
      </trkpt>
      <trkpt lat="36.7256320" lon="-2.8821980">
        <ele>22.4</ele>
        <time>2022-11-01T11:55:17Z</time>
      </trkpt>
      <trkpt lat="36.7255780" lon="-2.8821400">
        <ele>22.4</ele>
        <time>2022-11-01T11:55:18Z</time>
      </trkpt>
      <trkpt lat="36.7255250" lon="-2.8820810">
        <ele>22.4</ele>
        <time>2022-11-01T11:55:19Z</time>
      </trkpt>
      <trkpt lat="36.7254700" lon="-2.8820220">
        <ele>22.4</ele>
        <time>2022-11-01T11:55:20Z</time>
      </trkpt>
      <trkpt lat="36.7254170" lon="-2.8819640">
        <ele>22.4</ele>
        <time>2022-11-01T11:55:21Z</time>
      </trkpt>
      <trkpt lat="36.7253650" lon="-2.8819070">
        <ele>22.4</ele>
        <time>2022-11-01T11:55:22Z</time>
      </trkpt>
      <trkpt lat="36.7253130" lon="-2.8818510">
        <ele>22.4</ele>
        <time>2022-11-01T11:55:23Z</time>
      </trkpt>
      <trkpt lat="36.7252620" lon="-2.8817940">
        <ele>22.4</ele>
        <time>2022-11-01T11:55:24Z</time>
      </trkpt>
      <trkpt lat="36.7252110" lon="-2.8817390">
        <ele>22.4</ele>
        <time>2022-11-01T11:55:25Z</time>
      </trkpt>
      <trkpt lat="36.7251620" lon="-2.8816840">
        <ele>22.4</ele>
        <time>2022-11-01T11:55:26Z</time>
      </trkpt>
      <trkpt lat="36.7251110" lon="-2.8816270">
        <ele>22.4</ele>
        <time>2022-11-01T11:55:27Z</time>
      </trkpt>
      <trkpt lat="36.7250610" lon="-2.8815740">
        <ele>22.4</ele>
        <time>2022-11-01T11:55:28Z</time>
      </trkpt>
      <trkpt lat="36.7250080" lon="-2.8815180">
        <ele>22.4</ele>
        <time>2022-11-01T11:55:29Z</time>
      </trkpt>
      <trkpt lat="36.7249550" lon="-2.8814620">
        <ele>22.4</ele>
        <time>2022-11-01T11:55:30Z</time>
      </trkpt>
      <trkpt lat="36.7249020" lon="-2.8814050">
        <ele>22.4</ele>
        <time>2022-11-01T11:55:31Z</time>
      </trkpt>
      <trkpt lat="36.7248500" lon="-2.8813480">
        <ele>22.4</ele>
        <time>2022-11-01T11:55:32Z</time>
      </trkpt>
      <trkpt lat="36.7248000" lon="-2.8812950">
        <ele>22.2</ele>
        <time>2022-11-01T11:55:33Z</time>
      </trkpt>
      <trkpt lat="36.7247530" lon="-2.8812440">
        <ele>22.2</ele>
        <time>2022-11-01T11:55:34Z</time>
      </trkpt>
      <trkpt lat="36.7247040" lon="-2.8811920">
        <ele>22.2</ele>
        <time>2022-11-01T11:55:35Z</time>
      </trkpt>
      <trkpt lat="36.7246580" lon="-2.8811420">
        <ele>22.2</ele>
        <time>2022-11-01T11:55:36Z</time>
      </trkpt>
      <trkpt lat="36.7246120" lon="-2.8810910">
        <ele>22.0</ele>
        <time>2022-11-01T11:55:37Z</time>
      </trkpt>
      <trkpt lat="36.7245610" lon="-2.8810340">
        <ele>22.0</ele>
        <time>2022-11-01T11:55:38Z</time>
      </trkpt>
      <trkpt lat="36.7245090" lon="-2.8809780">
        <ele>22.0</ele>
        <time>2022-11-01T11:55:39Z</time>
      </trkpt>
      <trkpt lat="36.7244570" lon="-2.8809240">
        <ele>22.0</ele>
        <time>2022-11-01T11:55:40Z</time>
      </trkpt>
      <trkpt lat="36.7244050" lon="-2.8808670">
        <ele>22.2</ele>
        <time>2022-11-01T11:55:41Z</time>
      </trkpt>
      <trkpt lat="36.7243530" lon="-2.8808100">
        <ele>22.2</ele>
        <time>2022-11-01T11:55:42Z</time>
      </trkpt>
      <trkpt lat="36.7243020" lon="-2.8807520">
        <ele>22.0</ele>
        <time>2022-11-01T11:55:43Z</time>
      </trkpt>
      <trkpt lat="36.7242510" lon="-2.8806980">
        <ele>22.0</ele>
        <time>2022-11-01T11:55:44Z</time>
      </trkpt>
      <trkpt lat="36.7242000" lon="-2.8806420">
        <ele>22.0</ele>
        <time>2022-11-01T11:55:45Z</time>
      </trkpt>
      <trkpt lat="36.7241490" lon="-2.8805860">
        <ele>22.0</ele>
        <time>2022-11-01T11:55:46Z</time>
      </trkpt>
      <trkpt lat="36.7240980" lon="-2.8805300">
        <ele>22.0</ele>
        <time>2022-11-01T11:55:47Z</time>
      </trkpt>
      <trkpt lat="36.7240470" lon="-2.8804730">
        <ele>22.2</ele>
        <time>2022-11-01T11:55:48Z</time>
      </trkpt>
      <trkpt lat="36.7239950" lon="-2.8804170">
        <ele>22.2</ele>
        <time>2022-11-01T11:55:49Z</time>
      </trkpt>
      <trkpt lat="36.7239430" lon="-2.8803600">
        <ele>22.0</ele>
        <time>2022-11-01T11:55:50Z</time>
      </trkpt>
      <trkpt lat="36.7238920" lon="-2.8803030">
        <ele>22.2</ele>
        <time>2022-11-01T11:55:51Z</time>
      </trkpt>
      <trkpt lat="36.7238400" lon="-2.8802470">
        <ele>22.0</ele>
        <time>2022-11-01T11:55:52Z</time>
      </trkpt>
      <trkpt lat="36.7237900" lon="-2.8801910">
        <ele>22.2</ele>
        <time>2022-11-01T11:55:53Z</time>
      </trkpt>
      <trkpt lat="36.7237390" lon="-2.8801370">
        <ele>22.2</ele>
        <time>2022-11-01T11:55:54Z</time>
      </trkpt>
      <trkpt lat="36.7236880" lon="-2.8800820">
        <ele>22.0</ele>
        <time>2022-11-01T11:55:55Z</time>
      </trkpt>
      <trkpt lat="36.7236380" lon="-2.8800260">
        <ele>22.0</ele>
        <time>2022-11-01T11:55:56Z</time>
      </trkpt>
      <trkpt lat="36.7235880" lon="-2.8799720">
        <ele>22.0</ele>
        <time>2022-11-01T11:55:57Z</time>
      </trkpt>
      <trkpt lat="36.7235360" lon="-2.8799180">
        <ele>22.0</ele>
        <time>2022-11-01T11:55:58Z</time>
      </trkpt>
      <trkpt lat="36.7234840" lon="-2.8798620">
        <ele>22.0</ele>
        <time>2022-11-01T11:55:59Z</time>
      </trkpt>
      <trkpt lat="36.7234310" lon="-2.8798070">
        <ele>22.0</ele>
        <time>2022-11-01T11:56:00Z</time>
      </trkpt>
      <trkpt lat="36.7233770" lon="-2.8797520">
        <ele>22.0</ele>
        <time>2022-11-01T11:56:01Z</time>
      </trkpt>
      <trkpt lat="36.7233240" lon="-2.8796970">
        <ele>22.0</ele>
        <time>2022-11-01T11:56:02Z</time>
      </trkpt>
      <trkpt lat="36.7232690" lon="-2.8796430">
        <ele>22.0</ele>
        <time>2022-11-01T11:56:03Z</time>
      </trkpt>
      <trkpt lat="36.7232140" lon="-2.8795910">
        <ele>22.0</ele>
        <time>2022-11-01T11:56:04Z</time>
      </trkpt>
      <trkpt lat="36.7231600" lon="-2.8795390">
        <ele>22.0</ele>
        <time>2022-11-01T11:56:05Z</time>
      </trkpt>
      <trkpt lat="36.7231050" lon="-2.8794880">
        <ele>22.0</ele>
        <time>2022-11-01T11:56:06Z</time>
      </trkpt>
      <trkpt lat="36.7230500" lon="-2.8794360">
        <ele>22.2</ele>
        <time>2022-11-01T11:56:07Z</time>
      </trkpt>
      <trkpt lat="36.7229950" lon="-2.8793850">
        <ele>22.2</ele>
        <time>2022-11-01T11:56:08Z</time>
      </trkpt>
      <trkpt lat="36.7229400" lon="-2.8793330">
        <ele>22.2</ele>
        <time>2022-11-01T11:56:09Z</time>
      </trkpt>
      <trkpt lat="36.7228850" lon="-2.8792830">
        <ele>22.2</ele>
        <time>2022-11-01T11:56:10Z</time>
      </trkpt>
      <trkpt lat="36.7228300" lon="-2.8792340">
        <ele>22.2</ele>
        <time>2022-11-01T11:56:11Z</time>
      </trkpt>
      <trkpt lat="36.7227740" lon="-2.8791830">
        <ele>22.2</ele>
        <time>2022-11-01T11:56:12Z</time>
      </trkpt>
      <trkpt lat="36.7227190" lon="-2.8791330">
        <ele>22.0</ele>
        <time>2022-11-01T11:56:13Z</time>
      </trkpt>
      <trkpt lat="36.7226630" lon="-2.8790810">
        <ele>22.2</ele>
        <time>2022-11-01T11:56:14Z</time>
      </trkpt>
      <trkpt lat="36.7226070" lon="-2.8790290">
        <ele>22.2</ele>
        <time>2022-11-01T11:56:15Z</time>
      </trkpt>
      <trkpt lat="36.7225520" lon="-2.8789770">
        <ele>22.0</ele>
        <time>2022-11-01T11:56:16Z</time>
      </trkpt>
      <trkpt lat="36.7224970" lon="-2.8789250">
        <ele>22.0</ele>
        <time>2022-11-01T11:56:17Z</time>
      </trkpt>
      <trkpt lat="36.7224420" lon="-2.8788730">
        <ele>22.0</ele>
        <time>2022-11-01T11:56:18Z</time>
      </trkpt>
      <trkpt lat="36.7223870" lon="-2.8788220">
        <ele>22.2</ele>
        <time>2022-11-01T11:56:19Z</time>
      </trkpt>
      <trkpt lat="36.7223310" lon="-2.8787710">
        <ele>22.2</ele>
        <time>2022-11-01T11:56:20Z</time>
      </trkpt>
      <trkpt lat="36.7222750" lon="-2.8787200">
        <ele>22.0</ele>
        <time>2022-11-01T11:56:21Z</time>
      </trkpt>
      <trkpt lat="36.7222190" lon="-2.8786700">
        <ele>22.0</ele>
        <time>2022-11-01T11:56:22Z</time>
      </trkpt>
      <trkpt lat="36.7221630" lon="-2.8786190">
        <ele>22.0</ele>
        <time>2022-11-01T11:56:23Z</time>
      </trkpt>
      <trkpt lat="36.7221080" lon="-2.8785670">
        <ele>22.0</ele>
        <time>2022-11-01T11:56:24Z</time>
      </trkpt>
      <trkpt lat="36.7220540" lon="-2.8785160">
        <ele>22.0</ele>
        <time>2022-11-01T11:56:25Z</time>
      </trkpt>
      <trkpt lat="36.7220000" lon="-2.8784640">
        <ele>22.0</ele>
        <time>2022-11-01T11:56:26Z</time>
      </trkpt>
      <trkpt lat="36.7219460" lon="-2.8784130">
        <ele>22.0</ele>
        <time>2022-11-01T11:56:27Z</time>
      </trkpt>
      <trkpt lat="36.7218910" lon="-2.8783640">
        <ele>22.0</ele>
        <time>2022-11-01T11:56:28Z</time>
      </trkpt>
      <trkpt lat="36.7218360" lon="-2.8783130">
        <ele>22.0</ele>
        <time>2022-11-01T11:56:29Z</time>
      </trkpt>
      <trkpt lat="36.7217800" lon="-2.8782630">
        <ele>22.0</ele>
        <time>2022-11-01T11:56:30Z</time>
      </trkpt>
      <trkpt lat="36.7217250" lon="-2.8782130">
        <ele>22.0</ele>
        <time>2022-11-01T11:56:31Z</time>
      </trkpt>
      <trkpt lat="36.7216700" lon="-2.8781630">
        <ele>22.0</ele>
        <time>2022-11-01T11:56:32Z</time>
      </trkpt>
      <trkpt lat="36.7216140" lon="-2.8781140">
        <ele>22.0</ele>
        <time>2022-11-01T11:56:33Z</time>
      </trkpt>
      <trkpt lat="36.7215600" lon="-2.8780630">
        <ele>22.0</ele>
        <time>2022-11-01T11:56:34Z</time>
      </trkpt>
      <trkpt lat="36.7215050" lon="-2.8780110">
        <ele>22.0</ele>
        <time>2022-11-01T11:56:35Z</time>
      </trkpt>
      <trkpt lat="36.7214510" lon="-2.8779600">
        <ele>22.0</ele>
        <time>2022-11-01T11:56:36Z</time>
      </trkpt>
      <trkpt lat="36.7213960" lon="-2.8779080">
        <ele>22.0</ele>
        <time>2022-11-01T11:56:37Z</time>
      </trkpt>
      <trkpt lat="36.7213410" lon="-2.8778560">
        <ele>22.0</ele>
        <time>2022-11-01T11:56:38Z</time>
      </trkpt>
      <trkpt lat="36.7212860" lon="-2.8778040">
        <ele>22.0</ele>
        <time>2022-11-01T11:56:39Z</time>
      </trkpt>
      <trkpt lat="36.7212310" lon="-2.8777520">
        <ele>22.0</ele>
        <time>2022-11-01T11:56:40Z</time>
      </trkpt>
      <trkpt lat="36.7211760" lon="-2.8777020">
        <ele>22.0</ele>
        <time>2022-11-01T11:56:41Z</time>
      </trkpt>
      <trkpt lat="36.7211220" lon="-2.8776500">
        <ele>22.0</ele>
        <time>2022-11-01T11:56:42Z</time>
      </trkpt>
      <trkpt lat="36.7210680" lon="-2.8776000">
        <ele>22.0</ele>
        <time>2022-11-01T11:56:43Z</time>
      </trkpt>
      <trkpt lat="36.7210130" lon="-2.8775500">
        <ele>22.0</ele>
        <time>2022-11-01T11:56:44Z</time>
      </trkpt>
      <trkpt lat="36.7209570" lon="-2.8774990">
        <ele>22.0</ele>
        <time>2022-11-01T11:56:45Z</time>
      </trkpt>
      <trkpt lat="36.7209010" lon="-2.8774500">
        <ele>22.0</ele>
        <time>2022-11-01T11:56:46Z</time>
      </trkpt>
      <trkpt lat="36.7208450" lon="-2.8773990">
        <ele>22.0</ele>
        <time>2022-11-01T11:56:47Z</time>
      </trkpt>
      <trkpt lat="36.7207900" lon="-2.8773480">
        <ele>22.2</ele>
        <time>2022-11-01T11:56:48Z</time>
      </trkpt>
      <trkpt lat="36.7207340" lon="-2.8772970">
        <ele>22.2</ele>
        <time>2022-11-01T11:56:49Z</time>
      </trkpt>
      <trkpt lat="36.7206770" lon="-2.8772450">
        <ele>22.0</ele>
        <time>2022-11-01T11:56:50Z</time>
      </trkpt>
      <trkpt lat="36.7206200" lon="-2.8771920">
        <ele>22.2</ele>
        <time>2022-11-01T11:56:51Z</time>
      </trkpt>
      <trkpt lat="36.7205640" lon="-2.8771390">
        <ele>22.0</ele>
        <time>2022-11-01T11:56:52Z</time>
      </trkpt>
      <trkpt lat="36.7205080" lon="-2.8770840">
        <ele>22.0</ele>
        <time>2022-11-01T11:56:53Z</time>
      </trkpt>
      <trkpt lat="36.7204510" lon="-2.8770310">
        <ele>22.0</ele>
        <time>2022-11-01T11:56:54Z</time>
      </trkpt>
      <trkpt lat="36.7203940" lon="-2.8769790">
        <ele>22.0</ele>
        <time>2022-11-01T11:56:55Z</time>
      </trkpt>
      <trkpt lat="36.7203370" lon="-2.8769260">
        <ele>22.0</ele>
        <time>2022-11-01T11:56:56Z</time>
      </trkpt>
      <trkpt lat="36.7202810" lon="-2.8768740">
        <ele>22.0</ele>
        <time>2022-11-01T11:56:57Z</time>
      </trkpt>
      <trkpt lat="36.7202240" lon="-2.8768240">
        <ele>22.0</ele>
        <time>2022-11-01T11:56:58Z</time>
      </trkpt>
      <trkpt lat="36.7201670" lon="-2.8767740">
        <ele>22.0</ele>
        <time>2022-11-01T11:56:59Z</time>
      </trkpt>
      <trkpt lat="36.7201110" lon="-2.8767240">
        <ele>22.0</ele>
        <time>2022-11-01T11:57:00Z</time>
      </trkpt>
      <trkpt lat="36.7200550" lon="-2.8766730">
        <ele>22.0</ele>
        <time>2022-11-01T11:57:01Z</time>
      </trkpt>
      <trkpt lat="36.7200000" lon="-2.8766210">
        <ele>22.0</ele>
        <time>2022-11-01T11:57:02Z</time>
      </trkpt>
      <trkpt lat="36.7199450" lon="-2.8765700">
        <ele>22.0</ele>
        <time>2022-11-01T11:57:03Z</time>
      </trkpt>
      <trkpt lat="36.7198910" lon="-2.8765200">
        <ele>22.0</ele>
        <time>2022-11-01T11:57:04Z</time>
      </trkpt>
      <trkpt lat="36.7198360" lon="-2.8764690">
        <ele>22.0</ele>
        <time>2022-11-01T11:57:05Z</time>
      </trkpt>
      <trkpt lat="36.7197820" lon="-2.8764180">
        <ele>22.0</ele>
        <time>2022-11-01T11:57:06Z</time>
      </trkpt>
      <trkpt lat="36.7197270" lon="-2.8763670">
        <ele>22.0</ele>
        <time>2022-11-01T11:57:07Z</time>
      </trkpt>
      <trkpt lat="36.7196730" lon="-2.8763170">
        <ele>22.0</ele>
        <time>2022-11-01T11:57:08Z</time>
      </trkpt>
      <trkpt lat="36.7196170" lon="-2.8762670">
        <ele>22.0</ele>
        <time>2022-11-01T11:57:09Z</time>
      </trkpt>
      <trkpt lat="36.7195620" lon="-2.8762170">
        <ele>22.0</ele>
        <time>2022-11-01T11:57:10Z</time>
      </trkpt>
      <trkpt lat="36.7195070" lon="-2.8761670">
        <ele>22.0</ele>
        <time>2022-11-01T11:57:11Z</time>
      </trkpt>
      <trkpt lat="36.7194520" lon="-2.8761170">
        <ele>22.0</ele>
        <time>2022-11-01T11:57:12Z</time>
      </trkpt>
      <trkpt lat="36.7193980" lon="-2.8760660">
        <ele>22.2</ele>
        <time>2022-11-01T11:57:13Z</time>
      </trkpt>
      <trkpt lat="36.7193420" lon="-2.8760160">
        <ele>22.2</ele>
        <time>2022-11-01T11:57:14Z</time>
      </trkpt>
      <trkpt lat="36.7192880" lon="-2.8759660">
        <ele>22.2</ele>
        <time>2022-11-01T11:57:15Z</time>
      </trkpt>
      <trkpt lat="36.7192330" lon="-2.8759160">
        <ele>22.2</ele>
        <time>2022-11-01T11:57:16Z</time>
      </trkpt>
      <trkpt lat="36.7191790" lon="-2.8758670">
        <ele>22.2</ele>
        <time>2022-11-01T11:57:17Z</time>
      </trkpt>
      <trkpt lat="36.7191240" lon="-2.8758170">
        <ele>22.2</ele>
        <time>2022-11-01T11:57:18Z</time>
      </trkpt>
      <trkpt lat="36.7190690" lon="-2.8757670">
        <ele>22.2</ele>
        <time>2022-11-01T11:57:19Z</time>
      </trkpt>
      <trkpt lat="36.7190140" lon="-2.8757170">
        <ele>22.2</ele>
        <time>2022-11-01T11:57:20Z</time>
      </trkpt>
      <trkpt lat="36.7189600" lon="-2.8756670">
        <ele>22.2</ele>
        <time>2022-11-01T11:57:21Z</time>
      </trkpt>
      <trkpt lat="36.7189050" lon="-2.8756160">
        <ele>22.2</ele>
        <time>2022-11-01T11:57:22Z</time>
      </trkpt>
      <trkpt lat="36.7188500" lon="-2.8755660">
        <ele>22.2</ele>
        <time>2022-11-01T11:57:23Z</time>
      </trkpt>
      <trkpt lat="36.7187950" lon="-2.8755160">
        <ele>22.0</ele>
        <time>2022-11-01T11:57:24Z</time>
      </trkpt>
      <trkpt lat="36.7187400" lon="-2.8754670">
        <ele>22.0</ele>
        <time>2022-11-01T11:57:25Z</time>
      </trkpt>
      <trkpt lat="36.7186850" lon="-2.8754170">
        <ele>22.0</ele>
        <time>2022-11-01T11:57:26Z</time>
      </trkpt>
      <trkpt lat="36.7186300" lon="-2.8753670">
        <ele>22.0</ele>
        <time>2022-11-01T11:57:27Z</time>
      </trkpt>
      <trkpt lat="36.7185750" lon="-2.8753160">
        <ele>22.0</ele>
        <time>2022-11-01T11:57:28Z</time>
      </trkpt>
      <trkpt lat="36.7185200" lon="-2.8752660">
        <ele>22.0</ele>
        <time>2022-11-01T11:57:29Z</time>
      </trkpt>
      <trkpt lat="36.7184650" lon="-2.8752160">
        <ele>22.0</ele>
        <time>2022-11-01T11:57:30Z</time>
      </trkpt>
      <trkpt lat="36.7184100" lon="-2.8751670">
        <ele>22.0</ele>
        <time>2022-11-01T11:57:31Z</time>
      </trkpt>
      <trkpt lat="36.7183540" lon="-2.8751160">
        <ele>22.0</ele>
        <time>2022-11-01T11:57:32Z</time>
      </trkpt>
      <trkpt lat="36.7182980" lon="-2.8750660">
        <ele>22.0</ele>
        <time>2022-11-01T11:57:33Z</time>
      </trkpt>
      <trkpt lat="36.7182420" lon="-2.8750160">
        <ele>22.0</ele>
        <time>2022-11-01T11:57:34Z</time>
      </trkpt>
      <trkpt lat="36.7181870" lon="-2.8749650">
        <ele>22.0</ele>
        <time>2022-11-01T11:57:35Z</time>
      </trkpt>
      <trkpt lat="36.7181310" lon="-2.8749160">
        <ele>22.0</ele>
        <time>2022-11-01T11:57:36Z</time>
      </trkpt>
      <trkpt lat="36.7180760" lon="-2.8748660">
        <ele>22.0</ele>
        <time>2022-11-01T11:57:37Z</time>
      </trkpt>
      <trkpt lat="36.7180210" lon="-2.8748160">
        <ele>22.0</ele>
        <time>2022-11-01T11:57:38Z</time>
      </trkpt>
      <trkpt lat="36.7179660" lon="-2.8747660">
        <ele>22.0</ele>
        <time>2022-11-01T11:57:39Z</time>
      </trkpt>
      <trkpt lat="36.7179120" lon="-2.8747160">
        <ele>22.0</ele>
        <time>2022-11-01T11:57:40Z</time>
      </trkpt>
      <trkpt lat="36.7178570" lon="-2.8746660">
        <ele>22.0</ele>
        <time>2022-11-01T11:57:41Z</time>
      </trkpt>
      <trkpt lat="36.7178020" lon="-2.8746150">
        <ele>22.0</ele>
        <time>2022-11-01T11:57:42Z</time>
      </trkpt>
      <trkpt lat="36.7177480" lon="-2.8745640">
        <ele>22.0</ele>
        <time>2022-11-01T11:57:43Z</time>
      </trkpt>
      <trkpt lat="36.7176930" lon="-2.8745140">
        <ele>22.0</ele>
        <time>2022-11-01T11:57:44Z</time>
      </trkpt>
      <trkpt lat="36.7176380" lon="-2.8744650">
        <ele>22.0</ele>
        <time>2022-11-01T11:57:45Z</time>
      </trkpt>
      <trkpt lat="36.7175810" lon="-2.8744160">
        <ele>22.0</ele>
        <time>2022-11-01T11:57:46Z</time>
      </trkpt>
      <trkpt lat="36.7175260" lon="-2.8743660">
        <ele>22.0</ele>
        <time>2022-11-01T11:57:47Z</time>
      </trkpt>
      <trkpt lat="36.7174710" lon="-2.8743140">
        <ele>22.0</ele>
        <time>2022-11-01T11:57:48Z</time>
      </trkpt>
      <trkpt lat="36.7174160" lon="-2.8742630">
        <ele>22.0</ele>
        <time>2022-11-01T11:57:49Z</time>
      </trkpt>
      <trkpt lat="36.7173610" lon="-2.8742130">
        <ele>22.0</ele>
        <time>2022-11-01T11:57:50Z</time>
      </trkpt>
      <trkpt lat="36.7173060" lon="-2.8741640">
        <ele>22.0</ele>
        <time>2022-11-01T11:57:51Z</time>
      </trkpt>
      <trkpt lat="36.7172500" lon="-2.8741130">
        <ele>22.0</ele>
        <time>2022-11-01T11:57:52Z</time>
      </trkpt>
      <trkpt lat="36.7171950" lon="-2.8740630">
        <ele>22.0</ele>
        <time>2022-11-01T11:57:53Z</time>
      </trkpt>
      <trkpt lat="36.7171400" lon="-2.8740120">
        <ele>22.0</ele>
        <time>2022-11-01T11:57:54Z</time>
      </trkpt>
      <trkpt lat="36.7170850" lon="-2.8739620">
        <ele>22.0</ele>
        <time>2022-11-01T11:57:55Z</time>
      </trkpt>
      <trkpt lat="36.7170300" lon="-2.8739110">
        <ele>22.0</ele>
        <time>2022-11-01T11:57:56Z</time>
      </trkpt>
      <trkpt lat="36.7169750" lon="-2.8738600">
        <ele>22.0</ele>
        <time>2022-11-01T11:57:57Z</time>
      </trkpt>
      <trkpt lat="36.7169200" lon="-2.8738100">
        <ele>22.0</ele>
        <time>2022-11-01T11:57:58Z</time>
      </trkpt>
      <trkpt lat="36.7168650" lon="-2.8737590">
        <ele>22.0</ele>
        <time>2022-11-01T11:57:59Z</time>
      </trkpt>
      <trkpt lat="36.7168090" lon="-2.8737090">
        <ele>22.0</ele>
        <time>2022-11-01T11:58:00Z</time>
      </trkpt>
      <trkpt lat="36.7167530" lon="-2.8736580">
        <ele>22.0</ele>
        <time>2022-11-01T11:58:01Z</time>
      </trkpt>
      <trkpt lat="36.7166970" lon="-2.8736070">
        <ele>22.0</ele>
        <time>2022-11-01T11:58:02Z</time>
      </trkpt>
      <trkpt lat="36.7166420" lon="-2.8735560">
        <ele>22.0</ele>
        <time>2022-11-01T11:58:03Z</time>
      </trkpt>
      <trkpt lat="36.7165850" lon="-2.8735050">
        <ele>22.0</ele>
        <time>2022-11-01T11:58:04Z</time>
      </trkpt>
      <trkpt lat="36.7165280" lon="-2.8734540">
        <ele>22.0</ele>
        <time>2022-11-01T11:58:05Z</time>
      </trkpt>
      <trkpt lat="36.7164720" lon="-2.8734030">
        <ele>22.0</ele>
        <time>2022-11-01T11:58:06Z</time>
      </trkpt>
      <trkpt lat="36.7164150" lon="-2.8733510">
        <ele>22.0</ele>
        <time>2022-11-01T11:58:07Z</time>
      </trkpt>
      <trkpt lat="36.7163590" lon="-2.8732990">
        <ele>22.0</ele>
        <time>2022-11-01T11:58:08Z</time>
      </trkpt>
      <trkpt lat="36.7163030" lon="-2.8732480">
        <ele>22.0</ele>
        <time>2022-11-01T11:58:09Z</time>
      </trkpt>
      <trkpt lat="36.7162470" lon="-2.8731970">
        <ele>22.0</ele>
        <time>2022-11-01T11:58:10Z</time>
      </trkpt>
      <trkpt lat="36.7161900" lon="-2.8731460">
        <ele>22.0</ele>
        <time>2022-11-01T11:58:11Z</time>
      </trkpt>
      <trkpt lat="36.7161330" lon="-2.8730950">
        <ele>22.0</ele>
        <time>2022-11-01T11:58:12Z</time>
      </trkpt>
      <trkpt lat="36.7160790" lon="-2.8730480">
        <ele>22.0</ele>
        <time>2022-11-01T11:58:13Z</time>
      </trkpt>
      <trkpt lat="36.7160230" lon="-2.8729980">
        <ele>22.0</ele>
        <time>2022-11-01T11:58:14Z</time>
      </trkpt>
      <trkpt lat="36.7159680" lon="-2.8729470">
        <ele>22.0</ele>
        <time>2022-11-01T11:58:15Z</time>
      </trkpt>
      <trkpt lat="36.7159120" lon="-2.8728950">
        <ele>22.0</ele>
        <time>2022-11-01T11:58:16Z</time>
      </trkpt>
      <trkpt lat="36.7158560" lon="-2.8728430">
        <ele>22.0</ele>
        <time>2022-11-01T11:58:17Z</time>
      </trkpt>
      <trkpt lat="36.7158000" lon="-2.8727930">
        <ele>22.2</ele>
        <time>2022-11-01T11:58:18Z</time>
      </trkpt>
      <trkpt lat="36.7157440" lon="-2.8727420">
        <ele>22.2</ele>
        <time>2022-11-01T11:58:19Z</time>
      </trkpt>
      <trkpt lat="36.7156880" lon="-2.8726910">
        <ele>22.2</ele>
        <time>2022-11-01T11:58:20Z</time>
      </trkpt>
      <trkpt lat="36.7156310" lon="-2.8726410">
        <ele>22.2</ele>
        <time>2022-11-01T11:58:21Z</time>
      </trkpt>
      <trkpt lat="36.7155750" lon="-2.8725900">
        <ele>22.2</ele>
        <time>2022-11-01T11:58:22Z</time>
      </trkpt>
      <trkpt lat="36.7155190" lon="-2.8725400">
        <ele>22.2</ele>
        <time>2022-11-01T11:58:23Z</time>
      </trkpt>
      <trkpt lat="36.7154630" lon="-2.8724910">
        <ele>22.2</ele>
        <time>2022-11-01T11:58:24Z</time>
      </trkpt>
      <trkpt lat="36.7154080" lon="-2.8724420">
        <ele>22.2</ele>
        <time>2022-11-01T11:58:25Z</time>
      </trkpt>
      <trkpt lat="36.7153530" lon="-2.8723910">
        <ele>22.2</ele>
        <time>2022-11-01T11:58:26Z</time>
      </trkpt>
      <trkpt lat="36.7152980" lon="-2.8723390">
        <ele>22.2</ele>
        <time>2022-11-01T11:58:27Z</time>
      </trkpt>
      <trkpt lat="36.7152430" lon="-2.8722890">
        <ele>22.2</ele>
        <time>2022-11-01T11:58:28Z</time>
      </trkpt>
      <trkpt lat="36.7151870" lon="-2.8722400">
        <ele>22.4</ele>
        <time>2022-11-01T11:58:29Z</time>
      </trkpt>
      <trkpt lat="36.7151300" lon="-2.8721910">
        <ele>22.4</ele>
        <time>2022-11-01T11:58:30Z</time>
      </trkpt>
      <trkpt lat="36.7150730" lon="-2.8721420">
        <ele>22.4</ele>
        <time>2022-11-01T11:58:31Z</time>
      </trkpt>
      <trkpt lat="36.7150170" lon="-2.8720910">
        <ele>22.2</ele>
        <time>2022-11-01T11:58:32Z</time>
      </trkpt>
      <trkpt lat="36.7149610" lon="-2.8720400">
        <ele>22.4</ele>
        <time>2022-11-01T11:58:33Z</time>
      </trkpt>
      <trkpt lat="36.7149050" lon="-2.8719900">
        <ele>22.4</ele>
        <time>2022-11-01T11:58:34Z</time>
      </trkpt>
      <trkpt lat="36.7148490" lon="-2.8719390">
        <ele>22.4</ele>
        <time>2022-11-01T11:58:35Z</time>
      </trkpt>
      <trkpt lat="36.7147930" lon="-2.8718880">
        <ele>22.4</ele>
        <time>2022-11-01T11:58:36Z</time>
      </trkpt>
      <trkpt lat="36.7147350" lon="-2.8718370">
        <ele>22.4</ele>
        <time>2022-11-01T11:58:37Z</time>
      </trkpt>
      <trkpt lat="36.7146790" lon="-2.8717850">
        <ele>22.2</ele>
        <time>2022-11-01T11:58:38Z</time>
      </trkpt>
      <trkpt lat="36.7146230" lon="-2.8717340">
        <ele>22.4</ele>
        <time>2022-11-01T11:58:39Z</time>
      </trkpt>
      <trkpt lat="36.7145660" lon="-2.8716840">
        <ele>22.4</ele>
        <time>2022-11-01T11:58:40Z</time>
      </trkpt>
      <trkpt lat="36.7145090" lon="-2.8716340">
        <ele>22.4</ele>
        <time>2022-11-01T11:58:41Z</time>
      </trkpt>
      <trkpt lat="36.7144520" lon="-2.8715840">
        <ele>22.2</ele>
        <time>2022-11-01T11:58:42Z</time>
      </trkpt>
      <trkpt lat="36.7143960" lon="-2.8715340">
        <ele>22.2</ele>
        <time>2022-11-01T11:58:43Z</time>
      </trkpt>
      <trkpt lat="36.7143400" lon="-2.8714830">
        <ele>22.4</ele>
        <time>2022-11-01T11:58:44Z</time>
      </trkpt>
      <trkpt lat="36.7142840" lon="-2.8714330">
        <ele>22.4</ele>
        <time>2022-11-01T11:58:45Z</time>
      </trkpt>
      <trkpt lat="36.7142280" lon="-2.8713820">
        <ele>22.2</ele>
        <time>2022-11-01T11:58:46Z</time>
      </trkpt>
      <trkpt lat="36.7141720" lon="-2.8713310">
        <ele>22.2</ele>
        <time>2022-11-01T11:58:47Z</time>
      </trkpt>
      <trkpt lat="36.7141160" lon="-2.8712800">
        <ele>22.2</ele>
        <time>2022-11-01T11:58:48Z</time>
      </trkpt>
      <trkpt lat="36.7140590" lon="-2.8712280">
        <ele>22.4</ele>
        <time>2022-11-01T11:58:49Z</time>
      </trkpt>
      <trkpt lat="36.7140020" lon="-2.8711780">
        <ele>22.4</ele>
        <time>2022-11-01T11:58:50Z</time>
      </trkpt>
      <trkpt lat="36.7139450" lon="-2.8711270">
        <ele>22.4</ele>
        <time>2022-11-01T11:58:51Z</time>
      </trkpt>
      <trkpt lat="36.7138880" lon="-2.8710760">
        <ele>22.4</ele>
        <time>2022-11-01T11:58:52Z</time>
      </trkpt>
      <trkpt lat="36.7138310" lon="-2.8710240">
        <ele>22.4</ele>
        <time>2022-11-01T11:58:53Z</time>
      </trkpt>
      <trkpt lat="36.7137730" lon="-2.8709730">
        <ele>22.4</ele>
        <time>2022-11-01T11:58:54Z</time>
      </trkpt>
      <trkpt lat="36.7137160" lon="-2.8709220">
        <ele>22.4</ele>
        <time>2022-11-01T11:58:55Z</time>
      </trkpt>
      <trkpt lat="36.7136580" lon="-2.8708700">
        <ele>22.4</ele>
        <time>2022-11-01T11:58:56Z</time>
      </trkpt>
      <trkpt lat="36.7136010" lon="-2.8708180">
        <ele>22.4</ele>
        <time>2022-11-01T11:58:57Z</time>
      </trkpt>
      <trkpt lat="36.7135430" lon="-2.8707660">
        <ele>22.4</ele>
        <time>2022-11-01T11:58:58Z</time>
      </trkpt>
      <trkpt lat="36.7134850" lon="-2.8707150">
        <ele>22.2</ele>
        <time>2022-11-01T11:58:59Z</time>
      </trkpt>
      <trkpt lat="36.7134270" lon="-2.8706650">
        <ele>22.2</ele>
        <time>2022-11-01T11:59:00Z</time>
      </trkpt>
      <trkpt lat="36.7133700" lon="-2.8706150">
        <ele>22.2</ele>
        <time>2022-11-01T11:59:01Z</time>
      </trkpt>
      <trkpt lat="36.7133130" lon="-2.8705650">
        <ele>22.2</ele>
        <time>2022-11-01T11:59:02Z</time>
      </trkpt>
      <trkpt lat="36.7132560" lon="-2.8705150">
        <ele>22.2</ele>
        <time>2022-11-01T11:59:03Z</time>
      </trkpt>
      <trkpt lat="36.7131990" lon="-2.8704640">
        <ele>22.2</ele>
        <time>2022-11-01T11:59:04Z</time>
      </trkpt>
      <trkpt lat="36.7131430" lon="-2.8704130">
        <ele>22.2</ele>
        <time>2022-11-01T11:59:05Z</time>
      </trkpt>
      <trkpt lat="36.7130860" lon="-2.8703630">
        <ele>22.2</ele>
        <time>2022-11-01T11:59:06Z</time>
      </trkpt>
      <trkpt lat="36.7130290" lon="-2.8703120">
        <ele>22.2</ele>
        <time>2022-11-01T11:59:07Z</time>
      </trkpt>
      <trkpt lat="36.7129720" lon="-2.8702610">
        <ele>22.2</ele>
        <time>2022-11-01T11:59:08Z</time>
      </trkpt>
      <trkpt lat="36.7129150" lon="-2.8702110">
        <ele>22.2</ele>
        <time>2022-11-01T11:59:09Z</time>
      </trkpt>
      <trkpt lat="36.7128590" lon="-2.8701620">
        <ele>22.4</ele>
        <time>2022-11-01T11:59:10Z</time>
      </trkpt>
      <trkpt lat="36.7128020" lon="-2.8701110">
        <ele>22.4</ele>
        <time>2022-11-01T11:59:11Z</time>
      </trkpt>
      <trkpt lat="36.7127460" lon="-2.8700620">
        <ele>22.2</ele>
        <time>2022-11-01T11:59:12Z</time>
      </trkpt>
      <trkpt lat="36.7126890" lon="-2.8700120">
        <ele>22.4</ele>
        <time>2022-11-01T11:59:13Z</time>
      </trkpt>
      <trkpt lat="36.7126330" lon="-2.8699620">
        <ele>22.4</ele>
        <time>2022-11-01T11:59:14Z</time>
      </trkpt>
      <trkpt lat="36.7125770" lon="-2.8699110">
        <ele>22.2</ele>
        <time>2022-11-01T11:59:15Z</time>
      </trkpt>
      <trkpt lat="36.7125200" lon="-2.8698600">
        <ele>22.2</ele>
        <time>2022-11-01T11:59:16Z</time>
      </trkpt>
      <trkpt lat="36.7124620" lon="-2.8698080">
        <ele>22.2</ele>
        <time>2022-11-01T11:59:17Z</time>
      </trkpt>
      <trkpt lat="36.7124040" lon="-2.8697550">
        <ele>22.2</ele>
        <time>2022-11-01T11:59:18Z</time>
      </trkpt>
      <trkpt lat="36.7123450" lon="-2.8697040">
        <ele>22.2</ele>
        <time>2022-11-01T11:59:19Z</time>
      </trkpt>
      <trkpt lat="36.7122870" lon="-2.8696530">
        <ele>22.4</ele>
        <time>2022-11-01T11:59:20Z</time>
      </trkpt>
      <trkpt lat="36.7122290" lon="-2.8696000">
        <ele>22.2</ele>
        <time>2022-11-01T11:59:21Z</time>
      </trkpt>
      <trkpt lat="36.7121720" lon="-2.8695470">
        <ele>22.4</ele>
        <time>2022-11-01T11:59:22Z</time>
      </trkpt>
      <trkpt lat="36.7121150" lon="-2.8694940">
        <ele>22.4</ele>
        <time>2022-11-01T11:59:23Z</time>
      </trkpt>
      <trkpt lat="36.7120570" lon="-2.8694410">
        <ele>22.2</ele>
        <time>2022-11-01T11:59:24Z</time>
      </trkpt>
      <trkpt lat="36.7119990" lon="-2.8693880">
        <ele>22.2</ele>
        <time>2022-11-01T11:59:25Z</time>
      </trkpt>
      <trkpt lat="36.7119410" lon="-2.8693350">
        <ele>22.2</ele>
        <time>2022-11-01T11:59:26Z</time>
      </trkpt>
      <trkpt lat="36.7118820" lon="-2.8692830">
        <ele>22.2</ele>
        <time>2022-11-01T11:59:27Z</time>
      </trkpt>
      <trkpt lat="36.7118240" lon="-2.8692300">
        <ele>22.2</ele>
        <time>2022-11-01T11:59:28Z</time>
      </trkpt>
      <trkpt lat="36.7117650" lon="-2.8691770">
        <ele>22.2</ele>
        <time>2022-11-01T11:59:29Z</time>
      </trkpt>
      <trkpt lat="36.7117070" lon="-2.8691250">
        <ele>22.2</ele>
        <time>2022-11-01T11:59:30Z</time>
      </trkpt>
      <trkpt lat="36.7116480" lon="-2.8690730">
        <ele>22.2</ele>
        <time>2022-11-01T11:59:31Z</time>
      </trkpt>
      <trkpt lat="36.7115890" lon="-2.8690200">
        <ele>22.2</ele>
        <time>2022-11-01T11:59:32Z</time>
      </trkpt>
      <trkpt lat="36.7115310" lon="-2.8689670">
        <ele>22.2</ele>
        <time>2022-11-01T11:59:33Z</time>
      </trkpt>
      <trkpt lat="36.7114730" lon="-2.8689150">
        <ele>22.2</ele>
        <time>2022-11-01T11:59:34Z</time>
      </trkpt>
      <trkpt lat="36.7114140" lon="-2.8688610">
        <ele>22.2</ele>
        <time>2022-11-01T11:59:35Z</time>
      </trkpt>
      <trkpt lat="36.7113550" lon="-2.8688070">
        <ele>22.2</ele>
        <time>2022-11-01T11:59:36Z</time>
      </trkpt>
      <trkpt lat="36.7112960" lon="-2.8687530">
        <ele>22.2</ele>
        <time>2022-11-01T11:59:37Z</time>
      </trkpt>
      <trkpt lat="36.7112380" lon="-2.8687000">
        <ele>22.2</ele>
        <time>2022-11-01T11:59:38Z</time>
      </trkpt>
      <trkpt lat="36.7111780" lon="-2.8686470">
        <ele>22.2</ele>
        <time>2022-11-01T11:59:39Z</time>
      </trkpt>
      <trkpt lat="36.7111180" lon="-2.8685940">
        <ele>22.2</ele>
        <time>2022-11-01T11:59:40Z</time>
      </trkpt>
      <trkpt lat="36.7110590" lon="-2.8685400">
        <ele>22.2</ele>
        <time>2022-11-01T11:59:41Z</time>
      </trkpt>
      <trkpt lat="36.7110000" lon="-2.8684850">
        <ele>22.2</ele>
        <time>2022-11-01T11:59:42Z</time>
      </trkpt>
      <trkpt lat="36.7109410" lon="-2.8684300">
        <ele>22.4</ele>
        <time>2022-11-01T11:59:43Z</time>
      </trkpt>
      <trkpt lat="36.7108820" lon="-2.8683760">
        <ele>22.4</ele>
        <time>2022-11-01T11:59:44Z</time>
      </trkpt>
      <trkpt lat="36.7108220" lon="-2.8683220">
        <ele>22.4</ele>
        <time>2022-11-01T11:59:45Z</time>
      </trkpt>
      <trkpt lat="36.7107620" lon="-2.8682690">
        <ele>22.4</ele>
        <time>2022-11-01T11:59:46Z</time>
      </trkpt>
      <trkpt lat="36.7107030" lon="-2.8682140">
        <ele>22.4</ele>
        <time>2022-11-01T11:59:47Z</time>
      </trkpt>
      <trkpt lat="36.7106430" lon="-2.8681610">
        <ele>22.4</ele>
        <time>2022-11-01T11:59:48Z</time>
      </trkpt>
      <trkpt lat="36.7105820" lon="-2.8681070">
        <ele>22.4</ele>
        <time>2022-11-01T11:59:49Z</time>
      </trkpt>
      <trkpt lat="36.7105210" lon="-2.8680520">
        <ele>22.4</ele>
        <time>2022-11-01T11:59:50Z</time>
      </trkpt>
      <trkpt lat="36.7104610" lon="-2.8679980">
        <ele>22.4</ele>
        <time>2022-11-01T11:59:51Z</time>
      </trkpt>
      <trkpt lat="36.7104010" lon="-2.8679450">
        <ele>22.4</ele>
        <time>2022-11-01T11:59:52Z</time>
      </trkpt>
      <trkpt lat="36.7103400" lon="-2.8678900">
        <ele>22.4</ele>
        <time>2022-11-01T11:59:53Z</time>
      </trkpt>
      <trkpt lat="36.7102800" lon="-2.8678360">
        <ele>22.4</ele>
        <time>2022-11-01T11:59:54Z</time>
      </trkpt>
      <trkpt lat="36.7102210" lon="-2.8677820">
        <ele>22.4</ele>
        <time>2022-11-01T11:59:55Z</time>
      </trkpt>
      <trkpt lat="36.7101610" lon="-2.8677270">
        <ele>22.4</ele>
        <time>2022-11-01T11:59:56Z</time>
      </trkpt>
      <trkpt lat="36.7101000" lon="-2.8676730">
        <ele>22.4</ele>
        <time>2022-11-01T11:59:57Z</time>
      </trkpt>
      <trkpt lat="36.7100400" lon="-2.8676200">
        <ele>22.4</ele>
        <time>2022-11-01T11:59:58Z</time>
      </trkpt>
      <trkpt lat="36.7099790" lon="-2.8675660">
        <ele>22.4</ele>
        <time>2022-11-01T11:59:59Z</time>
      </trkpt>
      <trkpt lat="36.7099180" lon="-2.8675100">
        <ele>22.4</ele>
        <time>2022-11-01T12:00:00Z</time>
      </trkpt>
      <trkpt lat="36.7098560" lon="-2.8674550">
        <ele>22.4</ele>
        <time>2022-11-01T12:00:01Z</time>
      </trkpt>
      <trkpt lat="36.7097940" lon="-2.8673980">
        <ele>22.4</ele>
        <time>2022-11-01T12:00:02Z</time>
      </trkpt>
      <trkpt lat="36.7097310" lon="-2.8673420">
        <ele>22.4</ele>
        <time>2022-11-01T12:00:03Z</time>
      </trkpt>
      <trkpt lat="36.7096670" lon="-2.8672860">
        <ele>22.4</ele>
        <time>2022-11-01T12:00:04Z</time>
      </trkpt>
      <trkpt lat="36.7096040" lon="-2.8672290">
        <ele>22.4</ele>
        <time>2022-11-01T12:00:05Z</time>
      </trkpt>
      <trkpt lat="36.7095410" lon="-2.8671730">
        <ele>22.4</ele>
        <time>2022-11-01T12:00:06Z</time>
      </trkpt>
      <trkpt lat="36.7094780" lon="-2.8671170">
        <ele>22.4</ele>
        <time>2022-11-01T12:00:07Z</time>
      </trkpt>
      <trkpt lat="36.7094170" lon="-2.8670600">
        <ele>22.4</ele>
        <time>2022-11-01T12:00:08Z</time>
      </trkpt>
      <trkpt lat="36.7093570" lon="-2.8670050">
        <ele>22.4</ele>
        <time>2022-11-01T12:00:09Z</time>
      </trkpt>
      <trkpt lat="36.7092960" lon="-2.8669500">
        <ele>22.4</ele>
        <time>2022-11-01T12:00:10Z</time>
      </trkpt>
      <trkpt lat="36.7092350" lon="-2.8668980">
        <ele>22.6</ele>
        <time>2022-11-01T12:00:11Z</time>
      </trkpt>
      <trkpt lat="36.7091750" lon="-2.8668450">
        <ele>22.6</ele>
        <time>2022-11-01T12:00:12Z</time>
      </trkpt>
      <trkpt lat="36.7091140" lon="-2.8667930">
        <ele>22.6</ele>
        <time>2022-11-01T12:00:13Z</time>
      </trkpt>
      <trkpt lat="36.7090540" lon="-2.8667390">
        <ele>22.6</ele>
        <time>2022-11-01T12:00:14Z</time>
      </trkpt>
      <trkpt lat="36.7089950" lon="-2.8666850">
        <ele>22.6</ele>
        <time>2022-11-01T12:00:15Z</time>
      </trkpt>
      <trkpt lat="36.7089370" lon="-2.8666330">
        <ele>22.6</ele>
        <time>2022-11-01T12:00:16Z</time>
      </trkpt>
      <trkpt lat="36.7088790" lon="-2.8665800">
        <ele>22.6</ele>
        <time>2022-11-01T12:00:17Z</time>
      </trkpt>
      <trkpt lat="36.7088210" lon="-2.8665270">
        <ele>22.6</ele>
        <time>2022-11-01T12:00:18Z</time>
      </trkpt>
      <trkpt lat="36.7087620" lon="-2.8664740">
        <ele>22.6</ele>
        <time>2022-11-01T12:00:19Z</time>
      </trkpt>
      <trkpt lat="36.7087050" lon="-2.8664220">
        <ele>22.6</ele>
        <time>2022-11-01T12:00:20Z</time>
      </trkpt>
      <trkpt lat="36.7086470" lon="-2.8663710">
        <ele>22.6</ele>
        <time>2022-11-01T12:00:21Z</time>
      </trkpt>
      <trkpt lat="36.7085890" lon="-2.8663190">
        <ele>22.6</ele>
        <time>2022-11-01T12:00:22Z</time>
      </trkpt>
      <trkpt lat="36.7085310" lon="-2.8662660">
        <ele>22.6</ele>
        <time>2022-11-01T12:00:23Z</time>
      </trkpt>
      <trkpt lat="36.7084730" lon="-2.8662140">
        <ele>22.6</ele>
        <time>2022-11-01T12:00:24Z</time>
      </trkpt>
      <trkpt lat="36.7084150" lon="-2.8661610">
        <ele>22.6</ele>
        <time>2022-11-01T12:00:25Z</time>
      </trkpt>
      <trkpt lat="36.7083570" lon="-2.8661080">
        <ele>22.8</ele>
        <time>2022-11-01T12:00:26Z</time>
      </trkpt>
      <trkpt lat="36.7082990" lon="-2.8660560">
        <ele>22.8</ele>
        <time>2022-11-01T12:00:27Z</time>
      </trkpt>
      <trkpt lat="36.7082400" lon="-2.8660040">
        <ele>22.8</ele>
        <time>2022-11-01T12:00:28Z</time>
      </trkpt>
      <trkpt lat="36.7081820" lon="-2.8659530">
        <ele>22.8</ele>
        <time>2022-11-01T12:00:29Z</time>
      </trkpt>
      <trkpt lat="36.7081250" lon="-2.8659010">
        <ele>22.8</ele>
        <time>2022-11-01T12:00:30Z</time>
      </trkpt>
      <trkpt lat="36.7080680" lon="-2.8658480">
        <ele>22.8</ele>
        <time>2022-11-01T12:00:31Z</time>
      </trkpt>
      <trkpt lat="36.7080120" lon="-2.8657970">
        <ele>22.8</ele>
        <time>2022-11-01T12:00:32Z</time>
      </trkpt>
      <trkpt lat="36.7079540" lon="-2.8657460">
        <ele>22.8</ele>
        <time>2022-11-01T12:00:33Z</time>
      </trkpt>
      <trkpt lat="36.7078960" lon="-2.8656950">
        <ele>22.8</ele>
        <time>2022-11-01T12:00:34Z</time>
      </trkpt>
      <trkpt lat="36.7078390" lon="-2.8656440">
        <ele>22.8</ele>
        <time>2022-11-01T12:00:35Z</time>
      </trkpt>
      <trkpt lat="36.7077830" lon="-2.8655920">
        <ele>22.8</ele>
        <time>2022-11-01T12:00:36Z</time>
      </trkpt>
      <trkpt lat="36.7077260" lon="-2.8655390">
        <ele>22.8</ele>
        <time>2022-11-01T12:00:37Z</time>
      </trkpt>
      <trkpt lat="36.7076690" lon="-2.8654880">
        <ele>22.8</ele>
        <time>2022-11-01T12:00:38Z</time>
      </trkpt>
      <trkpt lat="36.7076110" lon="-2.8654370">
        <ele>22.8</ele>
        <time>2022-11-01T12:00:39Z</time>
      </trkpt>
      <trkpt lat="36.7075530" lon="-2.8653850">
        <ele>22.8</ele>
        <time>2022-11-01T12:00:40Z</time>
      </trkpt>
      <trkpt lat="36.7074950" lon="-2.8653330">
        <ele>22.8</ele>
        <time>2022-11-01T12:00:41Z</time>
      </trkpt>
      <trkpt lat="36.7074380" lon="-2.8652810">
        <ele>22.8</ele>
        <time>2022-11-01T12:00:42Z</time>
      </trkpt>
      <trkpt lat="36.7073810" lon="-2.8652280">
        <ele>22.8</ele>
        <time>2022-11-01T12:00:43Z</time>
      </trkpt>
      <trkpt lat="36.7073250" lon="-2.8651760">
        <ele>22.8</ele>
        <time>2022-11-01T12:00:44Z</time>
      </trkpt>
      <trkpt lat="36.7072680" lon="-2.8651240">
        <ele>23.0</ele>
        <time>2022-11-01T12:00:45Z</time>
      </trkpt>
      <trkpt lat="36.7072110" lon="-2.8650720">
        <ele>22.8</ele>
        <time>2022-11-01T12:00:46Z</time>
      </trkpt>
      <trkpt lat="36.7071550" lon="-2.8650190">
        <ele>22.8</ele>
        <time>2022-11-01T12:00:47Z</time>
      </trkpt>
      <trkpt lat="36.7071000" lon="-2.8649650">
        <ele>22.8</ele>
        <time>2022-11-01T12:00:48Z</time>
      </trkpt>
      <trkpt lat="36.7070440" lon="-2.8649110">
        <ele>22.8</ele>
        <time>2022-11-01T12:00:49Z</time>
      </trkpt>
      <trkpt lat="36.7069880" lon="-2.8648580">
        <ele>22.8</ele>
        <time>2022-11-01T12:00:50Z</time>
      </trkpt>
      <trkpt lat="36.7069320" lon="-2.8648030">
        <ele>23.0</ele>
        <time>2022-11-01T12:00:51Z</time>
      </trkpt>
      <trkpt lat="36.7068750" lon="-2.8647490">
        <ele>23.0</ele>
        <time>2022-11-01T12:00:52Z</time>
      </trkpt>
      <trkpt lat="36.7068190" lon="-2.8646940">
        <ele>23.0</ele>
        <time>2022-11-01T12:00:53Z</time>
      </trkpt>
      <trkpt lat="36.7067620" lon="-2.8646400">
        <ele>23.0</ele>
        <time>2022-11-01T12:00:54Z</time>
      </trkpt>
      <trkpt lat="36.7067070" lon="-2.8645850">
        <ele>23.0</ele>
        <time>2022-11-01T12:00:55Z</time>
      </trkpt>
      <trkpt lat="36.7066500" lon="-2.8645300">
        <ele>23.0</ele>
        <time>2022-11-01T12:00:56Z</time>
      </trkpt>
      <trkpt lat="36.7065940" lon="-2.8644770">
        <ele>23.0</ele>
        <time>2022-11-01T12:00:57Z</time>
      </trkpt>
      <trkpt lat="36.7065380" lon="-2.8644240">
        <ele>23.0</ele>
        <time>2022-11-01T12:00:58Z</time>
      </trkpt>
      <trkpt lat="36.7064820" lon="-2.8643700">
        <ele>23.0</ele>
        <time>2022-11-01T12:00:59Z</time>
      </trkpt>
      <trkpt lat="36.7064260" lon="-2.8643150">
        <ele>23.0</ele>
        <time>2022-11-01T12:01:00Z</time>
      </trkpt>
      <trkpt lat="36.7063700" lon="-2.8642600">
        <ele>23.0</ele>
        <time>2022-11-01T12:01:01Z</time>
      </trkpt>
      <trkpt lat="36.7063130" lon="-2.8642060">
        <ele>23.0</ele>
        <time>2022-11-01T12:01:02Z</time>
      </trkpt>
      <trkpt lat="36.7062570" lon="-2.8641520">
        <ele>23.0</ele>
        <time>2022-11-01T12:01:03Z</time>
      </trkpt>
      <trkpt lat="36.7062000" lon="-2.8640970">
        <ele>23.0</ele>
        <time>2022-11-01T12:01:04Z</time>
      </trkpt>
      <trkpt lat="36.7061430" lon="-2.8640410">
        <ele>22.8</ele>
        <time>2022-11-01T12:01:05Z</time>
      </trkpt>
      <trkpt lat="36.7060860" lon="-2.8639850">
        <ele>22.8</ele>
        <time>2022-11-01T12:01:06Z</time>
      </trkpt>
      <trkpt lat="36.7060280" lon="-2.8639280">
        <ele>22.8</ele>
        <time>2022-11-01T12:01:07Z</time>
      </trkpt>
      <trkpt lat="36.7059700" lon="-2.8638710">
        <ele>22.8</ele>
        <time>2022-11-01T12:01:08Z</time>
      </trkpt>
      <trkpt lat="36.7059120" lon="-2.8638140">
        <ele>22.8</ele>
        <time>2022-11-01T12:01:09Z</time>
      </trkpt>
      <trkpt lat="36.7058540" lon="-2.8637560">
        <ele>22.8</ele>
        <time>2022-11-01T12:01:10Z</time>
      </trkpt>
      <trkpt lat="36.7057940" lon="-2.8636970">
        <ele>22.8</ele>
        <time>2022-11-01T12:01:11Z</time>
      </trkpt>
      <trkpt lat="36.7057330" lon="-2.8636390">
        <ele>22.8</ele>
        <time>2022-11-01T12:01:12Z</time>
      </trkpt>
      <trkpt lat="36.7056710" lon="-2.8635800">
        <ele>22.8</ele>
        <time>2022-11-01T12:01:13Z</time>
      </trkpt>
      <trkpt lat="36.7056100" lon="-2.8635200">
        <ele>22.6</ele>
        <time>2022-11-01T12:01:14Z</time>
      </trkpt>
      <trkpt lat="36.7055500" lon="-2.8634610">
        <ele>22.8</ele>
        <time>2022-11-01T12:01:15Z</time>
      </trkpt>
      <trkpt lat="36.7054890" lon="-2.8634010">
        <ele>22.8</ele>
        <time>2022-11-01T12:01:16Z</time>
      </trkpt>
      <trkpt lat="36.7054300" lon="-2.8633420">
        <ele>22.8</ele>
        <time>2022-11-01T12:01:17Z</time>
      </trkpt>
      <trkpt lat="36.7053700" lon="-2.8632840">
        <ele>22.8</ele>
        <time>2022-11-01T12:01:18Z</time>
      </trkpt>
      <trkpt lat="36.7053110" lon="-2.8632270">
        <ele>22.8</ele>
        <time>2022-11-01T12:01:19Z</time>
      </trkpt>
      <trkpt lat="36.7052510" lon="-2.8631690">
        <ele>22.8</ele>
        <time>2022-11-01T12:01:20Z</time>
      </trkpt>
      <trkpt lat="36.7051920" lon="-2.8631120">
        <ele>22.8</ele>
        <time>2022-11-01T12:01:21Z</time>
      </trkpt>
      <trkpt lat="36.7051330" lon="-2.8630540">
        <ele>22.8</ele>
        <time>2022-11-01T12:01:22Z</time>
      </trkpt>
      <trkpt lat="36.7050740" lon="-2.8629950">
        <ele>22.8</ele>
        <time>2022-11-01T12:01:23Z</time>
      </trkpt>
      <trkpt lat="36.7050150" lon="-2.8629380">
        <ele>22.8</ele>
        <time>2022-11-01T12:01:24Z</time>
      </trkpt>
      <trkpt lat="36.7049550" lon="-2.8628800">
        <ele>22.8</ele>
        <time>2022-11-01T12:01:25Z</time>
      </trkpt>
      <trkpt lat="36.7048960" lon="-2.8628230">
        <ele>22.8</ele>
        <time>2022-11-01T12:01:26Z</time>
      </trkpt>
      <trkpt lat="36.7048380" lon="-2.8627650">
        <ele>22.8</ele>
        <time>2022-11-01T12:01:27Z</time>
      </trkpt>
      <trkpt lat="36.7047790" lon="-2.8627090">
        <ele>22.8</ele>
        <time>2022-11-01T12:01:28Z</time>
      </trkpt>
      <trkpt lat="36.7047190" lon="-2.8626530">
        <ele>22.8</ele>
        <time>2022-11-01T12:01:29Z</time>
      </trkpt>
      <trkpt lat="36.7046590" lon="-2.8625940">
        <ele>22.8</ele>
        <time>2022-11-01T12:01:30Z</time>
      </trkpt>
      <trkpt lat="36.7046000" lon="-2.8625350">
        <ele>22.6</ele>
        <time>2022-11-01T12:01:31Z</time>
      </trkpt>
      <trkpt lat="36.7045410" lon="-2.8624760">
        <ele>22.6</ele>
        <time>2022-11-01T12:01:32Z</time>
      </trkpt>
      <trkpt lat="36.7044820" lon="-2.8624190">
        <ele>22.6</ele>
        <time>2022-11-01T12:01:33Z</time>
      </trkpt>
      <trkpt lat="36.7044240" lon="-2.8623620">
        <ele>22.6</ele>
        <time>2022-11-01T12:01:34Z</time>
      </trkpt>
      <trkpt lat="36.7043650" lon="-2.8623040">
        <ele>22.6</ele>
        <time>2022-11-01T12:01:35Z</time>
      </trkpt>
      <trkpt lat="36.7043060" lon="-2.8622470">
        <ele>22.6</ele>
        <time>2022-11-01T12:01:36Z</time>
      </trkpt>
      <trkpt lat="36.7042470" lon="-2.8621890">
        <ele>22.6</ele>
        <time>2022-11-01T12:01:37Z</time>
      </trkpt>
      <trkpt lat="36.7041870" lon="-2.8621310">
        <ele>22.6</ele>
        <time>2022-11-01T12:01:38Z</time>
      </trkpt>
      <trkpt lat="36.7041270" lon="-2.8620730">
        <ele>22.6</ele>
        <time>2022-11-01T12:01:39Z</time>
      </trkpt>
      <trkpt lat="36.7040680" lon="-2.8620160">
        <ele>22.6</ele>
        <time>2022-11-01T12:01:40Z</time>
      </trkpt>
      <trkpt lat="36.7040090" lon="-2.8619580">
        <ele>22.6</ele>
        <time>2022-11-01T12:01:41Z</time>
      </trkpt>
      <trkpt lat="36.7039510" lon="-2.8619000">
        <ele>22.6</ele>
        <time>2022-11-01T12:01:42Z</time>
      </trkpt>
      <trkpt lat="36.7038920" lon="-2.8618410">
        <ele>22.6</ele>
        <time>2022-11-01T12:01:43Z</time>
      </trkpt>
      <trkpt lat="36.7038320" lon="-2.8617830">
        <ele>22.4</ele>
        <time>2022-11-01T12:01:44Z</time>
      </trkpt>
      <trkpt lat="36.7037740" lon="-2.8617230">
        <ele>22.4</ele>
        <time>2022-11-01T12:01:45Z</time>
      </trkpt>
      <trkpt lat="36.7037150" lon="-2.8616640">
        <ele>22.4</ele>
        <time>2022-11-01T12:01:46Z</time>
      </trkpt>
      <trkpt lat="36.7036570" lon="-2.8616050">
        <ele>22.4</ele>
        <time>2022-11-01T12:01:47Z</time>
      </trkpt>
      <trkpt lat="36.7036000" lon="-2.8615450">
        <ele>22.4</ele>
        <time>2022-11-01T12:01:48Z</time>
      </trkpt>
      <trkpt lat="36.7035440" lon="-2.8614860">
        <ele>22.4</ele>
        <time>2022-11-01T12:01:49Z</time>
      </trkpt>
      <trkpt lat="36.7034870" lon="-2.8614250">
        <ele>22.4</ele>
        <time>2022-11-01T12:01:50Z</time>
      </trkpt>
      <trkpt lat="36.7034290" lon="-2.8613650">
        <ele>22.4</ele>
        <time>2022-11-01T12:01:51Z</time>
      </trkpt>
      <trkpt lat="36.7033710" lon="-2.8613040">
        <ele>22.4</ele>
        <time>2022-11-01T12:01:52Z</time>
      </trkpt>
      <trkpt lat="36.7033140" lon="-2.8612420">
        <ele>22.4</ele>
        <time>2022-11-01T12:01:53Z</time>
      </trkpt>
      <trkpt lat="36.7032560" lon="-2.8611810">
        <ele>22.4</ele>
        <time>2022-11-01T12:01:54Z</time>
      </trkpt>
      <trkpt lat="36.7031980" lon="-2.8611190">
        <ele>22.4</ele>
        <time>2022-11-01T12:01:55Z</time>
      </trkpt>
      <trkpt lat="36.7031400" lon="-2.8610580">
        <ele>22.4</ele>
        <time>2022-11-01T12:01:56Z</time>
      </trkpt>
      <trkpt lat="36.7030820" lon="-2.8609980">
        <ele>22.4</ele>
        <time>2022-11-01T12:01:57Z</time>
      </trkpt>
      <trkpt lat="36.7030240" lon="-2.8609380">
        <ele>22.4</ele>
        <time>2022-11-01T12:01:58Z</time>
      </trkpt>
      <trkpt lat="36.7029660" lon="-2.8608770">
        <ele>22.4</ele>
        <time>2022-11-01T12:01:59Z</time>
      </trkpt>
      <trkpt lat="36.7029080" lon="-2.8608160">
        <ele>22.4</ele>
        <time>2022-11-01T12:02:00Z</time>
      </trkpt>
      <trkpt lat="36.7028510" lon="-2.8607560">
        <ele>22.4</ele>
        <time>2022-11-01T12:02:01Z</time>
      </trkpt>
      <trkpt lat="36.7027940" lon="-2.8606950">
        <ele>22.4</ele>
        <time>2022-11-01T12:02:02Z</time>
      </trkpt>
      <trkpt lat="36.7027360" lon="-2.8606360">
        <ele>22.2</ele>
        <time>2022-11-01T12:02:03Z</time>
      </trkpt>
      <trkpt lat="36.7026790" lon="-2.8605770">
        <ele>22.2</ele>
        <time>2022-11-01T12:02:04Z</time>
      </trkpt>
      <trkpt lat="36.7026220" lon="-2.8605180">
        <ele>22.2</ele>
        <time>2022-11-01T12:02:05Z</time>
      </trkpt>
      <trkpt lat="36.7025670" lon="-2.8604580">
        <ele>22.2</ele>
        <time>2022-11-01T12:02:06Z</time>
      </trkpt>
      <trkpt lat="36.7025110" lon="-2.8603970">
        <ele>22.2</ele>
        <time>2022-11-01T12:02:07Z</time>
      </trkpt>
      <trkpt lat="36.7024540" lon="-2.8603370">
        <ele>22.2</ele>
        <time>2022-11-01T12:02:08Z</time>
      </trkpt>
      <trkpt lat="36.7023980" lon="-2.8602770">
        <ele>22.2</ele>
        <time>2022-11-01T12:02:09Z</time>
      </trkpt>
      <trkpt lat="36.7023410" lon="-2.8602160">
        <ele>22.2</ele>
        <time>2022-11-01T12:02:10Z</time>
      </trkpt>
      <trkpt lat="36.7022840" lon="-2.8601550">
        <ele>22.2</ele>
        <time>2022-11-01T12:02:11Z</time>
      </trkpt>
      <trkpt lat="36.7022270" lon="-2.8600940">
        <ele>22.0</ele>
        <time>2022-11-01T12:02:12Z</time>
      </trkpt>
      <trkpt lat="36.7021690" lon="-2.8600330">
        <ele>22.0</ele>
        <time>2022-11-01T12:02:13Z</time>
      </trkpt>
      <trkpt lat="36.7021120" lon="-2.8599720">
        <ele>22.0</ele>
        <time>2022-11-01T12:02:14Z</time>
      </trkpt>
      <trkpt lat="36.7020550" lon="-2.8599100">
        <ele>22.0</ele>
        <time>2022-11-01T12:02:15Z</time>
      </trkpt>
      <trkpt lat="36.7020000" lon="-2.8598480">
        <ele>22.0</ele>
        <time>2022-11-01T12:02:16Z</time>
      </trkpt>
      <trkpt lat="36.7019440" lon="-2.8597870">
        <ele>22.0</ele>
        <time>2022-11-01T12:02:17Z</time>
      </trkpt>
      <trkpt lat="36.7018890" lon="-2.8597250">
        <ele>22.0</ele>
        <time>2022-11-01T12:02:18Z</time>
      </trkpt>
      <trkpt lat="36.7018340" lon="-2.8596620">
        <ele>22.0</ele>
        <time>2022-11-01T12:02:19Z</time>
      </trkpt>
      <trkpt lat="36.7017790" lon="-2.8595970">
        <ele>22.0</ele>
        <time>2022-11-01T12:02:20Z</time>
      </trkpt>
      <trkpt lat="36.7017240" lon="-2.8595330">
        <ele>22.0</ele>
        <time>2022-11-01T12:02:21Z</time>
      </trkpt>
      <trkpt lat="36.7016690" lon="-2.8594690">
        <ele>22.0</ele>
        <time>2022-11-01T12:02:22Z</time>
      </trkpt>
      <trkpt lat="36.7016160" lon="-2.8594060">
        <ele>22.0</ele>
        <time>2022-11-01T12:02:23Z</time>
      </trkpt>
      <trkpt lat="36.7015620" lon="-2.8593410">
        <ele>22.0</ele>
        <time>2022-11-01T12:02:24Z</time>
      </trkpt>
      <trkpt lat="36.7015100" lon="-2.8592760">
        <ele>22.0</ele>
        <time>2022-11-01T12:02:25Z</time>
      </trkpt>
      <trkpt lat="36.7014580" lon="-2.8592080">
        <ele>21.8</ele>
        <time>2022-11-01T12:02:26Z</time>
      </trkpt>
      <trkpt lat="36.7014060" lon="-2.8591390">
        <ele>21.8</ele>
        <time>2022-11-01T12:02:27Z</time>
      </trkpt>
      <trkpt lat="36.7013560" lon="-2.8590690">
        <ele>21.8</ele>
        <time>2022-11-01T12:02:28Z</time>
      </trkpt>
      <trkpt lat="36.7013050" lon="-2.8589980">
        <ele>21.8</ele>
        <time>2022-11-01T12:02:29Z</time>
      </trkpt>
      <trkpt lat="36.7012550" lon="-2.8589270">
        <ele>21.8</ele>
        <time>2022-11-01T12:02:30Z</time>
      </trkpt>
      <trkpt lat="36.7012060" lon="-2.8588530">
        <ele>21.8</ele>
        <time>2022-11-01T12:02:31Z</time>
      </trkpt>
      <trkpt lat="36.7011570" lon="-2.8587810">
        <ele>21.8</ele>
        <time>2022-11-01T12:02:32Z</time>
      </trkpt>
      <trkpt lat="36.7011090" lon="-2.8587060">
        <ele>21.8</ele>
        <time>2022-11-01T12:02:33Z</time>
      </trkpt>
      <trkpt lat="36.7010610" lon="-2.8586310">
        <ele>21.8</ele>
        <time>2022-11-01T12:02:34Z</time>
      </trkpt>
      <trkpt lat="36.7010140" lon="-2.8585560">
        <ele>21.8</ele>
        <time>2022-11-01T12:02:35Z</time>
      </trkpt>
      <trkpt lat="36.7009690" lon="-2.8584810">
        <ele>21.6</ele>
        <time>2022-11-01T12:02:36Z</time>
      </trkpt>
      <trkpt lat="36.7009260" lon="-2.8584030">
        <ele>21.8</ele>
        <time>2022-11-01T12:02:37Z</time>
      </trkpt>
      <trkpt lat="36.7008830" lon="-2.8583250">
        <ele>21.8</ele>
        <time>2022-11-01T12:02:38Z</time>
      </trkpt>
      <trkpt lat="36.7008410" lon="-2.8582460">
        <ele>21.6</ele>
        <time>2022-11-01T12:02:39Z</time>
      </trkpt>
      <trkpt lat="36.7008000" lon="-2.8581660">
        <ele>21.8</ele>
        <time>2022-11-01T12:02:40Z</time>
      </trkpt>
      <trkpt lat="36.7007600" lon="-2.8580860">
        <ele>21.8</ele>
        <time>2022-11-01T12:02:41Z</time>
      </trkpt>
      <trkpt lat="36.7007210" lon="-2.8580050">
        <ele>21.8</ele>
        <time>2022-11-01T12:02:42Z</time>
      </trkpt>
      <trkpt lat="36.7006810" lon="-2.8579240">
        <ele>21.8</ele>
        <time>2022-11-01T12:02:43Z</time>
      </trkpt>
      <trkpt lat="36.7006420" lon="-2.8578430">
        <ele>21.6</ele>
        <time>2022-11-01T12:02:44Z</time>
      </trkpt>
      <trkpt lat="36.7006040" lon="-2.8577600">
        <ele>21.6</ele>
        <time>2022-11-01T12:02:45Z</time>
      </trkpt>
      <trkpt lat="36.7005670" lon="-2.8576770">
        <ele>21.6</ele>
        <time>2022-11-01T12:02:46Z</time>
      </trkpt>
      <trkpt lat="36.7005310" lon="-2.8575930">
        <ele>21.6</ele>
        <time>2022-11-01T12:02:47Z</time>
      </trkpt>
      <trkpt lat="36.7004960" lon="-2.8575090">
        <ele>21.6</ele>
        <time>2022-11-01T12:02:48Z</time>
      </trkpt>
      <trkpt lat="36.7004620" lon="-2.8574240">
        <ele>21.6</ele>
        <time>2022-11-01T12:02:49Z</time>
      </trkpt>
      <trkpt lat="36.7004290" lon="-2.8573380">
        <ele>21.6</ele>
        <time>2022-11-01T12:02:50Z</time>
      </trkpt>
      <trkpt lat="36.7003970" lon="-2.8572530">
        <ele>21.6</ele>
        <time>2022-11-01T12:02:51Z</time>
      </trkpt>
      <trkpt lat="36.7003660" lon="-2.8571670">
        <ele>21.6</ele>
        <time>2022-11-01T12:02:52Z</time>
      </trkpt>
      <trkpt lat="36.7003360" lon="-2.8570810">
        <ele>21.6</ele>
        <time>2022-11-01T12:02:53Z</time>
      </trkpt>
      <trkpt lat="36.7003060" lon="-2.8569950">
        <ele>21.6</ele>
        <time>2022-11-01T12:02:54Z</time>
      </trkpt>
      <trkpt lat="36.7002770" lon="-2.8569080">
        <ele>21.6</ele>
        <time>2022-11-01T12:02:55Z</time>
      </trkpt>
      <trkpt lat="36.7002470" lon="-2.8568210">
        <ele>21.6</ele>
        <time>2022-11-01T12:02:56Z</time>
      </trkpt>
      <trkpt lat="36.7002190" lon="-2.8567320">
        <ele>21.8</ele>
        <time>2022-11-01T12:02:57Z</time>
      </trkpt>
      <trkpt lat="36.7001930" lon="-2.8566440">
        <ele>21.8</ele>
        <time>2022-11-01T12:02:58Z</time>
      </trkpt>
      <trkpt lat="36.7001670" lon="-2.8565550">
        <ele>21.8</ele>
        <time>2022-11-01T12:02:59Z</time>
      </trkpt>
      <trkpt lat="36.7001410" lon="-2.8564650">
        <ele>21.8</ele>
        <time>2022-11-01T12:03:00Z</time>
      </trkpt>
      <trkpt lat="36.7001170" lon="-2.8563750">
        <ele>21.8</ele>
        <time>2022-11-01T12:03:01Z</time>
      </trkpt>
      <trkpt lat="36.7000950" lon="-2.8562850">
        <ele>21.8</ele>
        <time>2022-11-01T12:03:02Z</time>
      </trkpt>
      <trkpt lat="36.7000730" lon="-2.8561950">
        <ele>21.8</ele>
        <time>2022-11-01T12:03:03Z</time>
      </trkpt>
      <trkpt lat="36.7000520" lon="-2.8561080">
        <ele>21.8</ele>
        <time>2022-11-01T12:03:04Z</time>
      </trkpt>
      <trkpt lat="36.7000330" lon="-2.8560190">
        <ele>22.0</ele>
        <time>2022-11-01T12:03:05Z</time>
      </trkpt>
      <trkpt lat="36.7000160" lon="-2.8559310">
        <ele>22.0</ele>
        <time>2022-11-01T12:03:06Z</time>
      </trkpt>
      <trkpt lat="36.6999990" lon="-2.8558430">
        <ele>22.0</ele>
        <time>2022-11-01T12:03:07Z</time>
      </trkpt>
      <trkpt lat="36.6999830" lon="-2.8557540">
        <ele>22.0</ele>
        <time>2022-11-01T12:03:08Z</time>
      </trkpt>
      <trkpt lat="36.6999680" lon="-2.8556640">
        <ele>22.0</ele>
        <time>2022-11-01T12:03:09Z</time>
      </trkpt>
      <trkpt lat="36.6999540" lon="-2.8555740">
        <ele>22.2</ele>
        <time>2022-11-01T12:03:10Z</time>
      </trkpt>
      <trkpt lat="36.6999410" lon="-2.8554840">
        <ele>22.4</ele>
        <time>2022-11-01T12:03:11Z</time>
      </trkpt>
      <trkpt lat="36.6999280" lon="-2.8553950">
        <ele>22.4</ele>
        <time>2022-11-01T12:03:12Z</time>
      </trkpt>
      <trkpt lat="36.6999160" lon="-2.8553060">
        <ele>22.4</ele>
        <time>2022-11-01T12:03:13Z</time>
      </trkpt>
      <trkpt lat="36.6999040" lon="-2.8552180">
        <ele>22.6</ele>
        <time>2022-11-01T12:03:14Z</time>
      </trkpt>
      <trkpt lat="36.6998940" lon="-2.8551310">
        <ele>22.8</ele>
        <time>2022-11-01T12:03:15Z</time>
      </trkpt>
      <trkpt lat="36.6998850" lon="-2.8550440">
        <ele>23.0</ele>
        <time>2022-11-01T12:03:16Z</time>
      </trkpt>
      <trkpt lat="36.6998780" lon="-2.8549580">
        <ele>23.2</ele>
        <time>2022-11-01T12:03:17Z</time>
      </trkpt>
      <trkpt lat="36.6998700" lon="-2.8548740">
        <ele>23.4</ele>
        <time>2022-11-01T12:03:18Z</time>
      </trkpt>
      <trkpt lat="36.6998630" lon="-2.8547920">
        <ele>23.6</ele>
        <time>2022-11-01T12:03:19Z</time>
      </trkpt>
      <trkpt lat="36.6998570" lon="-2.8547140">
        <ele>23.8</ele>
        <time>2022-11-01T12:03:20Z</time>
      </trkpt>
      <trkpt lat="36.6998510" lon="-2.8546360">
        <ele>24.0</ele>
        <time>2022-11-01T12:03:21Z</time>
      </trkpt>
      <trkpt lat="36.6998450" lon="-2.8545580">
        <ele>24.4</ele>
        <time>2022-11-01T12:03:22Z</time>
      </trkpt>
      <trkpt lat="36.6998410" lon="-2.8544800">
        <ele>24.4</ele>
        <time>2022-11-01T12:03:23Z</time>
      </trkpt>
      <trkpt lat="36.6998350" lon="-2.8544020">
        <ele>24.8</ele>
        <time>2022-11-01T12:03:24Z</time>
      </trkpt>
      <trkpt lat="36.6998300" lon="-2.8543250">
        <ele>24.8</ele>
        <time>2022-11-01T12:03:25Z</time>
      </trkpt>
      <trkpt lat="36.6998250" lon="-2.8542480">
        <ele>25.0</ele>
        <time>2022-11-01T12:03:26Z</time>
      </trkpt>
      <trkpt lat="36.6998220" lon="-2.8541710">
        <ele>25.2</ele>
        <time>2022-11-01T12:03:27Z</time>
      </trkpt>
      <trkpt lat="36.6998180" lon="-2.8540950">
        <ele>25.4</ele>
        <time>2022-11-01T12:03:28Z</time>
      </trkpt>
      <trkpt lat="36.6998140" lon="-2.8540190">
        <ele>25.6</ele>
        <time>2022-11-01T12:03:29Z</time>
      </trkpt>
      <trkpt lat="36.6998080" lon="-2.8539430">
        <ele>25.8</ele>
        <time>2022-11-01T12:03:30Z</time>
      </trkpt>
      <trkpt lat="36.6998050" lon="-2.8538670">
        <ele>26.0</ele>
        <time>2022-11-01T12:03:31Z</time>
      </trkpt>
      <trkpt lat="36.6998010" lon="-2.8537900">
        <ele>26.2</ele>
        <time>2022-11-01T12:03:32Z</time>
      </trkpt>
      <trkpt lat="36.6997950" lon="-2.8537120">
        <ele>26.4</ele>
        <time>2022-11-01T12:03:33Z</time>
      </trkpt>
      <trkpt lat="36.6997900" lon="-2.8536340">
        <ele>26.6</ele>
        <time>2022-11-01T12:03:34Z</time>
      </trkpt>
      <trkpt lat="36.6997830" lon="-2.8535560">
        <ele>26.8</ele>
        <time>2022-11-01T12:03:35Z</time>
      </trkpt>
      <trkpt lat="36.6997750" lon="-2.8534790">
        <ele>27.0</ele>
        <time>2022-11-01T12:03:36Z</time>
      </trkpt>
      <trkpt lat="36.6997650" lon="-2.8534040">
        <ele>27.2</ele>
        <time>2022-11-01T12:03:37Z</time>
      </trkpt>
      <trkpt lat="36.6997560" lon="-2.8533290">
        <ele>27.2</ele>
        <time>2022-11-01T12:03:38Z</time>
      </trkpt>
      <trkpt lat="36.6997430" lon="-2.8532550">
        <ele>27.4</ele>
        <time>2022-11-01T12:03:39Z</time>
      </trkpt>
      <trkpt lat="36.6997250" lon="-2.8531830">
        <ele>27.6</ele>
        <time>2022-11-01T12:03:40Z</time>
      </trkpt>
      <trkpt lat="36.6997010" lon="-2.8531120">
        <ele>27.8</ele>
        <time>2022-11-01T12:03:41Z</time>
      </trkpt>
      <trkpt lat="36.6996720" lon="-2.8530440">
        <ele>27.8</ele>
        <time>2022-11-01T12:03:42Z</time>
      </trkpt>
      <trkpt lat="36.6996390" lon="-2.8529770">
        <ele>28.0</ele>
        <time>2022-11-01T12:03:43Z</time>
      </trkpt>
      <trkpt lat="36.6996030" lon="-2.8529130">
        <ele>28.2</ele>
        <time>2022-11-01T12:03:44Z</time>
      </trkpt>
      <trkpt lat="36.6995660" lon="-2.8528490">
        <ele>28.2</ele>
        <time>2022-11-01T12:03:45Z</time>
      </trkpt>
      <trkpt lat="36.6995290" lon="-2.8527860">
        <ele>28.4</ele>
        <time>2022-11-01T12:03:46Z</time>
      </trkpt>
      <trkpt lat="36.6994910" lon="-2.8527210">
        <ele>28.6</ele>
        <time>2022-11-01T12:03:47Z</time>
      </trkpt>
      <trkpt lat="36.6994510" lon="-2.8526590">
        <ele>28.6</ele>
        <time>2022-11-01T12:03:48Z</time>
      </trkpt>
      <trkpt lat="36.6994100" lon="-2.8525990">
        <ele>28.6</ele>
        <time>2022-11-01T12:03:49Z</time>
      </trkpt>
      <trkpt lat="36.6993710" lon="-2.8525410">
        <ele>28.8</ele>
        <time>2022-11-01T12:03:50Z</time>
      </trkpt>
      <trkpt lat="36.6993330" lon="-2.8524820">
        <ele>29.0</ele>
        <time>2022-11-01T12:03:51Z</time>
      </trkpt>
      <trkpt lat="36.6993000" lon="-2.8524220">
        <ele>29.2</ele>
        <time>2022-11-01T12:03:52Z</time>
      </trkpt>
      <trkpt lat="36.6992700" lon="-2.8523590">
        <ele>29.2</ele>
        <time>2022-11-01T12:03:53Z</time>
      </trkpt>
      <trkpt lat="36.6992420" lon="-2.8522940">
        <ele>29.2</ele>
        <time>2022-11-01T12:03:54Z</time>
      </trkpt>
      <trkpt lat="36.6992160" lon="-2.8522250">
        <ele>29.2</ele>
        <time>2022-11-01T12:03:55Z</time>
      </trkpt>
      <trkpt lat="36.6991950" lon="-2.8521510">
        <ele>29.2</ele>
        <time>2022-11-01T12:03:56Z</time>
      </trkpt>
      <trkpt lat="36.6991800" lon="-2.8520760">
        <ele>29.2</ele>
        <time>2022-11-01T12:03:57Z</time>
      </trkpt>
      <trkpt lat="36.6991700" lon="-2.8519980">
        <ele>29.0</ele>
        <time>2022-11-01T12:03:58Z</time>
      </trkpt>
      <trkpt lat="36.6991610" lon="-2.8519160">
        <ele>28.8</ele>
        <time>2022-11-01T12:03:59Z</time>
      </trkpt>
      <trkpt lat="36.6991570" lon="-2.8518320">
        <ele>28.8</ele>
        <time>2022-11-01T12:04:00Z</time>
      </trkpt>
      <trkpt lat="36.6991570" lon="-2.8517460">
        <ele>28.6</ele>
        <time>2022-11-01T12:04:01Z</time>
      </trkpt>
      <trkpt lat="36.6991620" lon="-2.8516570">
        <ele>28.4</ele>
        <time>2022-11-01T12:04:02Z</time>
      </trkpt>
      <trkpt lat="36.6991720" lon="-2.8515670">
        <ele>28.2</ele>
        <time>2022-11-01T12:04:03Z</time>
      </trkpt>
      <trkpt lat="36.6991890" lon="-2.8514750">
        <ele>27.8</ele>
        <time>2022-11-01T12:04:04Z</time>
      </trkpt>
      <trkpt lat="36.6992120" lon="-2.8513830">
        <ele>27.6</ele>
        <time>2022-11-01T12:04:05Z</time>
      </trkpt>
      <trkpt lat="36.6992410" lon="-2.8512890">
        <ele>27.2</ele>
        <time>2022-11-01T12:04:06Z</time>
      </trkpt>
      <trkpt lat="36.6992740" lon="-2.8511930">
        <ele>26.8</ele>
        <time>2022-11-01T12:04:07Z</time>
      </trkpt>
      <trkpt lat="36.6993100" lon="-2.8510960">
        <ele>26.4</ele>
        <time>2022-11-01T12:04:08Z</time>
      </trkpt>
      <trkpt lat="36.6993460" lon="-2.8509970">
        <ele>26.0</ele>
        <time>2022-11-01T12:04:09Z</time>
      </trkpt>
      <trkpt lat="36.6993820" lon="-2.8508950">
        <ele>25.6</ele>
        <time>2022-11-01T12:04:10Z</time>
      </trkpt>
      <trkpt lat="36.6994190" lon="-2.8507940">
        <ele>25.2</ele>
        <time>2022-11-01T12:04:11Z</time>
      </trkpt>
      <trkpt lat="36.6994570" lon="-2.8506910">
        <ele>25.0</ele>
        <time>2022-11-01T12:04:12Z</time>
      </trkpt>
      <trkpt lat="36.6994960" lon="-2.8505880">
        <ele>24.6</ele>
        <time>2022-11-01T12:04:13Z</time>
      </trkpt>
      <trkpt lat="36.6995350" lon="-2.8504860">
        <ele>24.4</ele>
        <time>2022-11-01T12:04:14Z</time>
      </trkpt>
      <trkpt lat="36.6995730" lon="-2.8503820">
        <ele>24.2</ele>
        <time>2022-11-01T12:04:15Z</time>
      </trkpt>
      <trkpt lat="36.6996110" lon="-2.8502800">
        <ele>24.0</ele>
        <time>2022-11-01T12:04:16Z</time>
      </trkpt>
      <trkpt lat="36.6996490" lon="-2.8501770">
        <ele>23.8</ele>
        <time>2022-11-01T12:04:17Z</time>
      </trkpt>
      <trkpt lat="36.6996860" lon="-2.8500750">
        <ele>23.8</ele>
        <time>2022-11-01T12:04:18Z</time>
      </trkpt>
      <trkpt lat="36.6997230" lon="-2.8499740">
        <ele>23.6</ele>
        <time>2022-11-01T12:04:19Z</time>
      </trkpt>
      <trkpt lat="36.6997590" lon="-2.8498740">
        <ele>23.6</ele>
        <time>2022-11-01T12:04:20Z</time>
      </trkpt>
      <trkpt lat="36.6997950" lon="-2.8497760">
        <ele>23.6</ele>
        <time>2022-11-01T12:04:21Z</time>
      </trkpt>
      <trkpt lat="36.6998300" lon="-2.8496800">
        <ele>23.6</ele>
        <time>2022-11-01T12:04:22Z</time>
      </trkpt>
      <trkpt lat="36.6998650" lon="-2.8495850">
        <ele>23.4</ele>
        <time>2022-11-01T12:04:23Z</time>
      </trkpt>
      <trkpt lat="36.6998980" lon="-2.8494920">
        <ele>23.4</ele>
        <time>2022-11-01T12:04:24Z</time>
      </trkpt>
      <trkpt lat="36.6999290" lon="-2.8494030">
        <ele>23.6</ele>
        <time>2022-11-01T12:04:25Z</time>
      </trkpt>
      <trkpt lat="36.6999630" lon="-2.8493140">
        <ele>23.6</ele>
        <time>2022-11-01T12:04:26Z</time>
      </trkpt>
      <trkpt lat="36.6999950" lon="-2.8492270">
        <ele>23.6</ele>
        <time>2022-11-01T12:04:27Z</time>
      </trkpt>
      <trkpt lat="36.7000240" lon="-2.8491380">
        <ele>23.8</ele>
        <time>2022-11-01T12:04:28Z</time>
      </trkpt>
      <trkpt lat="36.7000540" lon="-2.8490490">
        <ele>23.8</ele>
        <time>2022-11-01T12:04:29Z</time>
      </trkpt>
      <trkpt lat="36.7000850" lon="-2.8489620">
        <ele>23.8</ele>
        <time>2022-11-01T12:04:30Z</time>
      </trkpt>
      <trkpt lat="36.7001160" lon="-2.8488740">
        <ele>23.8</ele>
        <time>2022-11-01T12:04:31Z</time>
      </trkpt>
      <trkpt lat="36.7001480" lon="-2.8487870">
        <ele>23.8</ele>
        <time>2022-11-01T12:04:32Z</time>
      </trkpt>
      <trkpt lat="36.7001760" lon="-2.8487030">
        <ele>23.8</ele>
        <time>2022-11-01T12:04:33Z</time>
      </trkpt>
      <trkpt lat="36.7002110" lon="-2.8486160">
        <ele>23.8</ele>
        <time>2022-11-01T12:04:34Z</time>
      </trkpt>
      <trkpt lat="36.7002430" lon="-2.8485320">
        <ele>23.8</ele>
        <time>2022-11-01T12:04:35Z</time>
      </trkpt>
      <trkpt lat="36.7002750" lon="-2.8484480">
        <ele>23.8</ele>
        <time>2022-11-01T12:04:36Z</time>
      </trkpt>
      <trkpt lat="36.7003080" lon="-2.8483630">
        <ele>23.8</ele>
        <time>2022-11-01T12:04:37Z</time>
      </trkpt>
      <trkpt lat="36.7003410" lon="-2.8482830">
        <ele>23.8</ele>
        <time>2022-11-01T12:04:38Z</time>
      </trkpt>
      <trkpt lat="36.7003740" lon="-2.8482010">
        <ele>24.0</ele>
        <time>2022-11-01T12:04:39Z</time>
      </trkpt>
      <trkpt lat="36.7004040" lon="-2.8481180">
        <ele>24.0</ele>
        <time>2022-11-01T12:04:40Z</time>
      </trkpt>
      <trkpt lat="36.7004370" lon="-2.8480350">
        <ele>24.0</ele>
        <time>2022-11-01T12:04:41Z</time>
      </trkpt>
      <trkpt lat="36.7004690" lon="-2.8479520">
        <ele>24.2</ele>
        <time>2022-11-01T12:04:42Z</time>
      </trkpt>
      <trkpt lat="36.7005030" lon="-2.8478690">
        <ele>24.2</ele>
        <time>2022-11-01T12:04:43Z</time>
      </trkpt>
      <trkpt lat="36.7005360" lon="-2.8477890">
        <ele>24.2</ele>
        <time>2022-11-01T12:04:44Z</time>
      </trkpt>
      <trkpt lat="36.7005670" lon="-2.8477070">
        <ele>24.4</ele>
        <time>2022-11-01T12:04:45Z</time>
      </trkpt>
      <trkpt lat="36.7005980" lon="-2.8476250">
        <ele>24.4</ele>
        <time>2022-11-01T12:04:46Z</time>
      </trkpt>
      <trkpt lat="36.7006290" lon="-2.8475430">
        <ele>24.4</ele>
        <time>2022-11-01T12:04:47Z</time>
      </trkpt>
      <trkpt lat="36.7006570" lon="-2.8474610">
        <ele>24.4</ele>
        <time>2022-11-01T12:04:48Z</time>
      </trkpt>
      <trkpt lat="36.7006860" lon="-2.8473810">
        <ele>24.4</ele>
        <time>2022-11-01T12:04:49Z</time>
      </trkpt>
      <trkpt lat="36.7007160" lon="-2.8472990">
        <ele>24.4</ele>
        <time>2022-11-01T12:04:50Z</time>
      </trkpt>
      <trkpt lat="36.7007450" lon="-2.8472170">
        <ele>24.4</ele>
        <time>2022-11-01T12:04:51Z</time>
      </trkpt>
      <trkpt lat="36.7007750" lon="-2.8471340">
        <ele>24.4</ele>
        <time>2022-11-01T12:04:52Z</time>
      </trkpt>
      <trkpt lat="36.7008060" lon="-2.8470520">
        <ele>24.6</ele>
        <time>2022-11-01T12:04:53Z</time>
      </trkpt>
      <trkpt lat="36.7008370" lon="-2.8469680">
        <ele>24.6</ele>
        <time>2022-11-01T12:04:54Z</time>
      </trkpt>
      <trkpt lat="36.7008670" lon="-2.8468860">
        <ele>24.6</ele>
        <time>2022-11-01T12:04:55Z</time>
      </trkpt>
      <trkpt lat="36.7008970" lon="-2.8468030">
        <ele>24.6</ele>
        <time>2022-11-01T12:04:56Z</time>
      </trkpt>
      <trkpt lat="36.7009280" lon="-2.8467210">
        <ele>24.6</ele>
        <time>2022-11-01T12:04:57Z</time>
      </trkpt>
      <trkpt lat="36.7009580" lon="-2.8466400">
        <ele>24.6</ele>
        <time>2022-11-01T12:04:58Z</time>
      </trkpt>
      <trkpt lat="36.7009890" lon="-2.8465590">
        <ele>24.8</ele>
        <time>2022-11-01T12:04:59Z</time>
      </trkpt>
      <trkpt lat="36.7010200" lon="-2.8464780">
        <ele>24.8</ele>
        <time>2022-11-01T12:05:00Z</time>
      </trkpt>
      <trkpt lat="36.7010480" lon="-2.8463990">
        <ele>24.8</ele>
        <time>2022-11-01T12:05:01Z</time>
      </trkpt>
      <trkpt lat="36.7010770" lon="-2.8463190">
        <ele>24.8</ele>
        <time>2022-11-01T12:05:02Z</time>
      </trkpt>
      <trkpt lat="36.7011060" lon="-2.8462390">
        <ele>24.8</ele>
        <time>2022-11-01T12:05:03Z</time>
      </trkpt>
      <trkpt lat="36.7011360" lon="-2.8461590">
        <ele>25.0</ele>
        <time>2022-11-01T12:05:04Z</time>
      </trkpt>
      <trkpt lat="36.7011660" lon="-2.8460810">
        <ele>25.0</ele>
        <time>2022-11-01T12:05:05Z</time>
      </trkpt>
      <trkpt lat="36.7011960" lon="-2.8460040">
        <ele>25.2</ele>
        <time>2022-11-01T12:05:06Z</time>
      </trkpt>
      <trkpt lat="36.7012280" lon="-2.8459300">
        <ele>25.2</ele>
        <time>2022-11-01T12:05:07Z</time>
      </trkpt>
      <trkpt lat="36.7012600" lon="-2.8458600">
        <ele>25.4</ele>
        <time>2022-11-01T12:05:08Z</time>
      </trkpt>
      <trkpt lat="36.7012930" lon="-2.8457910">
        <ele>25.6</ele>
        <time>2022-11-01T12:05:09Z</time>
      </trkpt>
      <trkpt lat="36.7013260" lon="-2.8457250">
        <ele>25.8</ele>
        <time>2022-11-01T12:05:10Z</time>
      </trkpt>
      <trkpt lat="36.7013610" lon="-2.8456570">
        <ele>25.8</ele>
        <time>2022-11-01T12:05:11Z</time>
      </trkpt>
      <trkpt lat="36.7013970" lon="-2.8455880">
        <ele>25.8</ele>
        <time>2022-11-01T12:05:12Z</time>
      </trkpt>
      <trkpt lat="36.7014330" lon="-2.8455200">
        <ele>26.0</ele>
        <time>2022-11-01T12:05:13Z</time>
      </trkpt>
      <trkpt lat="36.7014690" lon="-2.8454500">
        <ele>26.2</ele>
        <time>2022-11-01T12:05:14Z</time>
      </trkpt>
      <trkpt lat="36.7015030" lon="-2.8453820">
        <ele>26.2</ele>
        <time>2022-11-01T12:05:15Z</time>
      </trkpt>
      <trkpt lat="36.7015340" lon="-2.8453130">
        <ele>26.2</ele>
        <time>2022-11-01T12:05:16Z</time>
      </trkpt>
      <trkpt lat="36.7015680" lon="-2.8452450">
        <ele>26.4</ele>
        <time>2022-11-01T12:05:17Z</time>
      </trkpt>
      <trkpt lat="36.7015980" lon="-2.8451780">
        <ele>26.6</ele>
        <time>2022-11-01T12:05:18Z</time>
      </trkpt>
      <trkpt lat="36.7016290" lon="-2.8451110">
        <ele>26.8</ele>
        <time>2022-11-01T12:05:19Z</time>
      </trkpt>
      <trkpt lat="36.7016600" lon="-2.8450450">
        <ele>27.0</ele>
        <time>2022-11-01T12:05:20Z</time>
      </trkpt>
      <trkpt lat="36.7016890" lon="-2.8449780">
        <ele>27.2</ele>
        <time>2022-11-01T12:05:21Z</time>
      </trkpt>
      <trkpt lat="36.7017150" lon="-2.8449150">
        <ele>27.2</ele>
        <time>2022-11-01T12:05:22Z</time>
      </trkpt>
      <trkpt lat="36.7017510" lon="-2.8448570">
        <ele>27.4</ele>
        <time>2022-11-01T12:05:23Z</time>
      </trkpt>
      <trkpt lat="36.7017810" lon="-2.8447960">
        <ele>27.6</ele>
        <time>2022-11-01T12:05:24Z</time>
      </trkpt>
      <trkpt lat="36.7018030" lon="-2.8447310">
        <ele>27.8</ele>
        <time>2022-11-01T12:05:25Z</time>
      </trkpt>
      <trkpt lat="36.7018210" lon="-2.8446670">
        <ele>28.0</ele>
        <time>2022-11-01T12:05:26Z</time>
      </trkpt>
      <trkpt lat="36.7018380" lon="-2.8446040">
        <ele>28.2</ele>
        <time>2022-11-01T12:05:27Z</time>
      </trkpt>
      <trkpt lat="36.7018550" lon="-2.8445420">
        <ele>28.4</ele>
        <time>2022-11-01T12:05:28Z</time>
      </trkpt>
      <trkpt lat="36.7018680" lon="-2.8444780">
        <ele>28.6</ele>
        <time>2022-11-01T12:05:29Z</time>
      </trkpt>
      <trkpt lat="36.7018740" lon="-2.8444130">
        <ele>28.6</ele>
        <time>2022-11-01T12:05:30Z</time>
      </trkpt>
      <trkpt lat="36.7018820" lon="-2.8443420">
        <ele>28.8</ele>
        <time>2022-11-01T12:05:31Z</time>
      </trkpt>
      <trkpt lat="36.7018920" lon="-2.8442690">
        <ele>28.8</ele>
        <time>2022-11-01T12:05:32Z</time>
      </trkpt>
      <trkpt lat="36.7019000" lon="-2.8441980">
        <ele>29.0</ele>
        <time>2022-11-01T12:05:33Z</time>
      </trkpt>
      <trkpt lat="36.7019120" lon="-2.8441270">
        <ele>29.2</ele>
        <time>2022-11-01T12:05:34Z</time>
      </trkpt>
      <trkpt lat="36.7019280" lon="-2.8440560">
        <ele>29.2</ele>
        <time>2022-11-01T12:05:35Z</time>
      </trkpt>
      <trkpt lat="36.7019440" lon="-2.8439880">
        <ele>29.2</ele>
        <time>2022-11-01T12:05:36Z</time>
      </trkpt>
      <trkpt lat="36.7019550" lon="-2.8439250">
        <ele>29.2</ele>
        <time>2022-11-01T12:05:37Z</time>
      </trkpt>
      <trkpt lat="36.7019630" lon="-2.8438620">
        <ele>29.4</ele>
        <time>2022-11-01T12:05:38Z</time>
      </trkpt>
      <trkpt lat="36.7019710" lon="-2.8438040">
        <ele>29.4</ele>
        <time>2022-11-01T12:05:39Z</time>
      </trkpt>
      <trkpt lat="36.7019820" lon="-2.8437460">
        <ele>29.4</ele>
        <time>2022-11-01T12:05:40Z</time>
      </trkpt>
      <trkpt lat="36.7020080" lon="-2.8436940">
        <ele>29.6</ele>
        <time>2022-11-01T12:05:41Z</time>
      </trkpt>
      <trkpt lat="36.7020380" lon="-2.8436590">
        <ele>29.6</ele>
        <time>2022-11-01T12:05:42Z</time>
      </trkpt>
      <trkpt lat="36.7020820" lon="-2.8436430">
        <ele>29.8</ele>
        <time>2022-11-01T12:05:43Z</time>
      </trkpt>
      <trkpt lat="36.7021290" lon="-2.8436460">
        <ele>30.0</ele>
        <time>2022-11-01T12:05:44Z</time>
      </trkpt>
      <trkpt lat="36.7021760" lon="-2.8436590">
        <ele>30.2</ele>
        <time>2022-11-01T12:05:45Z</time>
      </trkpt>
      <trkpt lat="36.7022220" lon="-2.8436730">
        <ele>30.4</ele>
        <time>2022-11-01T12:05:46Z</time>
      </trkpt>
      <trkpt lat="36.7022680" lon="-2.8436860">
        <ele>30.6</ele>
        <time>2022-11-01T12:05:47Z</time>
      </trkpt>
      <trkpt lat="36.7023140" lon="-2.8436990">
        <ele>30.8</ele>
        <time>2022-11-01T12:05:48Z</time>
      </trkpt>
      <trkpt lat="36.7023600" lon="-2.8437130">
        <ele>31.0</ele>
        <time>2022-11-01T12:05:49Z</time>
      </trkpt>
      <trkpt lat="36.7024070" lon="-2.8437300">
        <ele>31.2</ele>
        <time>2022-11-01T12:05:50Z</time>
      </trkpt>
      <trkpt lat="36.7024540" lon="-2.8437470">
        <ele>31.4</ele>
        <time>2022-11-01T12:05:51Z</time>
      </trkpt>
      <trkpt lat="36.7025000" lon="-2.8437640">
        <ele>31.6</ele>
        <time>2022-11-01T12:05:52Z</time>
      </trkpt>
      <trkpt lat="36.7025470" lon="-2.8437810">
        <ele>31.8</ele>
        <time>2022-11-01T12:05:53Z</time>
      </trkpt>
      <trkpt lat="36.7025940" lon="-2.8437980">
        <ele>32.0</ele>
        <time>2022-11-01T12:05:54Z</time>
      </trkpt>
      <trkpt lat="36.7026410" lon="-2.8438160">
        <ele>32.2</ele>
        <time>2022-11-01T12:05:55Z</time>
      </trkpt>
      <trkpt lat="36.7026880" lon="-2.8438340">
        <ele>32.4</ele>
        <time>2022-11-01T12:05:56Z</time>
      </trkpt>
      <trkpt lat="36.7027350" lon="-2.8438520">
        <ele>32.6</ele>
        <time>2022-11-01T12:05:57Z</time>
      </trkpt>
      <trkpt lat="36.7027840" lon="-2.8438700">
        <ele>32.6</ele>
        <time>2022-11-01T12:05:58Z</time>
      </trkpt>
      <trkpt lat="36.7028340" lon="-2.8438900">
        <ele>32.8</ele>
        <time>2022-11-01T12:05:59Z</time>
      </trkpt>
      <trkpt lat="36.7028850" lon="-2.8439110">
        <ele>33.0</ele>
        <time>2022-11-01T12:06:00Z</time>
      </trkpt>
      <trkpt lat="36.7029380" lon="-2.8439330">
        <ele>33.2</ele>
        <time>2022-11-01T12:06:01Z</time>
      </trkpt>
      <trkpt lat="36.7029920" lon="-2.8439570">
        <ele>33.4</ele>
        <time>2022-11-01T12:06:02Z</time>
      </trkpt>
      <trkpt lat="36.7030470" lon="-2.8439810">
        <ele>33.6</ele>
        <time>2022-11-01T12:06:03Z</time>
      </trkpt>
      <trkpt lat="36.7031010" lon="-2.8440090">
        <ele>34.0</ele>
        <time>2022-11-01T12:06:04Z</time>
      </trkpt>
      <trkpt lat="36.7031570" lon="-2.8440390">
        <ele>34.0</ele>
        <time>2022-11-01T12:06:05Z</time>
      </trkpt>
      <trkpt lat="36.7032150" lon="-2.8440720">
        <ele>34.0</ele>
        <time>2022-11-01T12:06:06Z</time>
      </trkpt>
      <trkpt lat="36.7032750" lon="-2.8441040">
        <ele>34.0</ele>
        <time>2022-11-01T12:06:07Z</time>
      </trkpt>
      <trkpt lat="36.7033370" lon="-2.8441390">
        <ele>34.0</ele>
        <time>2022-11-01T12:06:08Z</time>
      </trkpt>
      <trkpt lat="36.7034020" lon="-2.8441730">
        <ele>34.0</ele>
        <time>2022-11-01T12:06:09Z</time>
      </trkpt>
      <trkpt lat="36.7034670" lon="-2.8442080">
        <ele>34.2</ele>
        <time>2022-11-01T12:06:10Z</time>
      </trkpt>
      <trkpt lat="36.7035320" lon="-2.8442460">
        <ele>34.2</ele>
        <time>2022-11-01T12:06:11Z</time>
      </trkpt>
      <trkpt lat="36.7035970" lon="-2.8442830">
        <ele>34.2</ele>
        <time>2022-11-01T12:06:12Z</time>
      </trkpt>
      <trkpt lat="36.7036630" lon="-2.8443190">
        <ele>34.4</ele>
        <time>2022-11-01T12:06:13Z</time>
      </trkpt>
      <trkpt lat="36.7037300" lon="-2.8443550">
        <ele>34.4</ele>
        <time>2022-11-01T12:06:14Z</time>
      </trkpt>
      <trkpt lat="36.7038000" lon="-2.8443860">
        <ele>34.0</ele>
        <time>2022-11-01T12:06:15Z</time>
      </trkpt>
      <trkpt lat="36.7038700" lon="-2.8444150">
        <ele>34.0</ele>
        <time>2022-11-01T12:06:16Z</time>
      </trkpt>
      <trkpt lat="36.7039410" lon="-2.8444410">
        <ele>34.2</ele>
        <time>2022-11-01T12:06:17Z</time>
      </trkpt>
      <trkpt lat="36.7040130" lon="-2.8444650">
        <ele>34.2</ele>
        <time>2022-11-01T12:06:18Z</time>
      </trkpt>
      <trkpt lat="36.7040860" lon="-2.8444850">
        <ele>34.2</ele>
        <time>2022-11-01T12:06:19Z</time>
      </trkpt>
      <trkpt lat="36.7041570" lon="-2.8445050">
        <ele>34.2</ele>
        <time>2022-11-01T12:06:20Z</time>
      </trkpt>
      <trkpt lat="36.7042280" lon="-2.8445220">
        <ele>34.4</ele>
        <time>2022-11-01T12:06:21Z</time>
      </trkpt>
      <trkpt lat="36.7042980" lon="-2.8445380">
        <ele>34.4</ele>
        <time>2022-11-01T12:06:22Z</time>
      </trkpt>
      <trkpt lat="36.7043680" lon="-2.8445500">
        <ele>34.4</ele>
        <time>2022-11-01T12:06:23Z</time>
      </trkpt>
      <trkpt lat="36.7044380" lon="-2.8445600">
        <ele>34.4</ele>
        <time>2022-11-01T12:06:24Z</time>
      </trkpt>
      <trkpt lat="36.7045070" lon="-2.8445670">
        <ele>34.4</ele>
        <time>2022-11-01T12:06:25Z</time>
      </trkpt>
      <trkpt lat="36.7045740" lon="-2.8445750">
        <ele>34.6</ele>
        <time>2022-11-01T12:06:26Z</time>
      </trkpt>
      <trkpt lat="36.7046410" lon="-2.8445810">
        <ele>34.8</ele>
        <time>2022-11-01T12:06:27Z</time>
      </trkpt>
      <trkpt lat="36.7047070" lon="-2.8445850">
        <ele>35.0</ele>
        <time>2022-11-01T12:06:28Z</time>
      </trkpt>
      <trkpt lat="36.7047730" lon="-2.8445870">
        <ele>35.0</ele>
        <time>2022-11-01T12:06:29Z</time>
      </trkpt>
      <trkpt lat="36.7048380" lon="-2.8445900">
        <ele>35.0</ele>
        <time>2022-11-01T12:06:30Z</time>
      </trkpt>
      <trkpt lat="36.7049050" lon="-2.8445930">
        <ele>35.0</ele>
        <time>2022-11-01T12:06:31Z</time>
      </trkpt>
      <trkpt lat="36.7049740" lon="-2.8445960">
        <ele>35.0</ele>
        <time>2022-11-01T12:06:32Z</time>
      </trkpt>
      <trkpt lat="36.7050410" lon="-2.8445990">
        <ele>35.0</ele>
        <time>2022-11-01T12:06:33Z</time>
      </trkpt>
      <trkpt lat="36.7051090" lon="-2.8446020">
        <ele>35.0</ele>
        <time>2022-11-01T12:06:34Z</time>
      </trkpt>
      <trkpt lat="36.7051750" lon="-2.8446030">
        <ele>35.2</ele>
        <time>2022-11-01T12:06:35Z</time>
      </trkpt>
      <trkpt lat="36.7052420" lon="-2.8446050">
        <ele>35.4</ele>
        <time>2022-11-01T12:06:36Z</time>
      </trkpt>
      <trkpt lat="36.7053080" lon="-2.8446050">
        <ele>35.4</ele>
        <time>2022-11-01T12:06:37Z</time>
      </trkpt>
      <trkpt lat="36.7053720" lon="-2.8446070">
        <ele>35.4</ele>
        <time>2022-11-01T12:06:38Z</time>
      </trkpt>
      <trkpt lat="36.7054360" lon="-2.8446080">
        <ele>35.6</ele>
        <time>2022-11-01T12:06:39Z</time>
      </trkpt>
      <trkpt lat="36.7055010" lon="-2.8446080">
        <ele>35.6</ele>
        <time>2022-11-01T12:06:40Z</time>
      </trkpt>
      <trkpt lat="36.7055660" lon="-2.8446070">
        <ele>35.8</ele>
        <time>2022-11-01T12:06:41Z</time>
      </trkpt>
      <trkpt lat="36.7056310" lon="-2.8446040">
        <ele>35.8</ele>
        <time>2022-11-01T12:06:42Z</time>
      </trkpt>
      <trkpt lat="36.7056970" lon="-2.8445990">
        <ele>35.8</ele>
        <time>2022-11-01T12:06:43Z</time>
      </trkpt>
      <trkpt lat="36.7057640" lon="-2.8445910">
        <ele>35.8</ele>
        <time>2022-11-01T12:06:44Z</time>
      </trkpt>
      <trkpt lat="36.7058280" lon="-2.8445800">
        <ele>35.8</ele>
        <time>2022-11-01T12:06:45Z</time>
      </trkpt>
      <trkpt lat="36.7058940" lon="-2.8445690">
        <ele>35.8</ele>
        <time>2022-11-01T12:06:46Z</time>
      </trkpt>
      <trkpt lat="36.7059620" lon="-2.8445580">
        <ele>35.6</ele>
        <time>2022-11-01T12:06:47Z</time>
      </trkpt>
      <trkpt lat="36.7060290" lon="-2.8445480">
        <ele>35.6</ele>
        <time>2022-11-01T12:06:48Z</time>
      </trkpt>
      <trkpt lat="36.7060970" lon="-2.8445360">
        <ele>35.6</ele>
        <time>2022-11-01T12:06:49Z</time>
      </trkpt>
      <trkpt lat="36.7061650" lon="-2.8445260">
        <ele>35.6</ele>
        <time>2022-11-01T12:06:50Z</time>
      </trkpt>
      <trkpt lat="36.7062320" lon="-2.8445140">
        <ele>35.4</ele>
        <time>2022-11-01T12:06:51Z</time>
      </trkpt>
      <trkpt lat="36.7063000" lon="-2.8445030">
        <ele>35.4</ele>
        <time>2022-11-01T12:06:52Z</time>
      </trkpt>
      <trkpt lat="36.7063680" lon="-2.8444920">
        <ele>35.4</ele>
        <time>2022-11-01T12:06:53Z</time>
      </trkpt>
      <trkpt lat="36.7064370" lon="-2.8444790">
        <ele>35.2</ele>
        <time>2022-11-01T12:06:54Z</time>
      </trkpt>
      <trkpt lat="36.7065070" lon="-2.8444670">
        <ele>35.2</ele>
        <time>2022-11-01T12:06:55Z</time>
      </trkpt>
      <trkpt lat="36.7065770" lon="-2.8444550">
        <ele>35.0</ele>
        <time>2022-11-01T12:06:56Z</time>
      </trkpt>
      <trkpt lat="36.7066480" lon="-2.8444430">
        <ele>35.0</ele>
        <time>2022-11-01T12:06:57Z</time>
      </trkpt>
      <trkpt lat="36.7067180" lon="-2.8444300">
        <ele>35.0</ele>
        <time>2022-11-01T12:06:58Z</time>
      </trkpt>
      <trkpt lat="36.7067890" lon="-2.8444160">
        <ele>34.8</ele>
        <time>2022-11-01T12:06:59Z</time>
      </trkpt>
      <trkpt lat="36.7068610" lon="-2.8444010">
        <ele>34.6</ele>
        <time>2022-11-01T12:07:00Z</time>
      </trkpt>
      <trkpt lat="36.7069350" lon="-2.8443870">
        <ele>34.6</ele>
        <time>2022-11-01T12:07:01Z</time>
      </trkpt>
      <trkpt lat="36.7070110" lon="-2.8443730">
        <ele>34.4</ele>
        <time>2022-11-01T12:07:02Z</time>
      </trkpt>
      <trkpt lat="36.7070870" lon="-2.8443590">
        <ele>34.4</ele>
        <time>2022-11-01T12:07:03Z</time>
      </trkpt>
      <trkpt lat="36.7071630" lon="-2.8443450">
        <ele>34.4</ele>
        <time>2022-11-01T12:07:04Z</time>
      </trkpt>
      <trkpt lat="36.7072390" lon="-2.8443290">
        <ele>34.2</ele>
        <time>2022-11-01T12:07:05Z</time>
      </trkpt>
      <trkpt lat="36.7073150" lon="-2.8443140">
        <ele>34.2</ele>
        <time>2022-11-01T12:07:06Z</time>
      </trkpt>
      <trkpt lat="36.7073890" lon="-2.8443010">
        <ele>34.0</ele>
        <time>2022-11-01T12:07:07Z</time>
      </trkpt>
      <trkpt lat="36.7074640" lon="-2.8442870">
        <ele>33.8</ele>
        <time>2022-11-01T12:07:08Z</time>
      </trkpt>
      <trkpt lat="36.7075380" lon="-2.8442700">
        <ele>33.8</ele>
        <time>2022-11-01T12:07:09Z</time>
      </trkpt>
      <trkpt lat="36.7076120" lon="-2.8442540">
        <ele>33.6</ele>
        <time>2022-11-01T12:07:10Z</time>
      </trkpt>
      <trkpt lat="36.7076860" lon="-2.8442390">
        <ele>33.6</ele>
        <time>2022-11-01T12:07:11Z</time>
      </trkpt>
      <trkpt lat="36.7077600" lon="-2.8442230">
        <ele>33.6</ele>
        <time>2022-11-01T12:07:12Z</time>
      </trkpt>
      <trkpt lat="36.7078350" lon="-2.8442070">
        <ele>33.6</ele>
        <time>2022-11-01T12:07:13Z</time>
      </trkpt>
      <trkpt lat="36.7079130" lon="-2.8441920">
        <ele>33.4</ele>
        <time>2022-11-01T12:07:14Z</time>
      </trkpt>
      <trkpt lat="36.7079900" lon="-2.8441760">
        <ele>33.4</ele>
        <time>2022-11-01T12:07:15Z</time>
      </trkpt>
      <trkpt lat="36.7080680" lon="-2.8441580">
        <ele>33.2</ele>
        <time>2022-11-01T12:07:16Z</time>
      </trkpt>
      <trkpt lat="36.7081470" lon="-2.8441390">
        <ele>33.2</ele>
        <time>2022-11-01T12:07:17Z</time>
      </trkpt>
      <trkpt lat="36.7082260" lon="-2.8441190">
        <ele>33.0</ele>
        <time>2022-11-01T12:07:18Z</time>
      </trkpt>
      <trkpt lat="36.7083050" lon="-2.8441010">
        <ele>33.0</ele>
        <time>2022-11-01T12:07:19Z</time>
      </trkpt>
      <trkpt lat="36.7083820" lon="-2.8440840">
        <ele>33.0</ele>
        <time>2022-11-01T12:07:20Z</time>
      </trkpt>
      <trkpt lat="36.7084580" lon="-2.8440660">
        <ele>33.0</ele>
        <time>2022-11-01T12:07:21Z</time>
      </trkpt>
      <trkpt lat="36.7085340" lon="-2.8440490">
        <ele>33.2</ele>
        <time>2022-11-01T12:07:22Z</time>
      </trkpt>
      <trkpt lat="36.7086080" lon="-2.8440290">
        <ele>33.4</ele>
        <time>2022-11-01T12:07:23Z</time>
      </trkpt>
      <trkpt lat="36.7086820" lon="-2.8440090">
        <ele>33.4</ele>
        <time>2022-11-01T12:07:24Z</time>
      </trkpt>
      <trkpt lat="36.7087540" lon="-2.8439890">
        <ele>33.6</ele>
        <time>2022-11-01T12:07:25Z</time>
      </trkpt>
      <trkpt lat="36.7088240" lon="-2.8439680">
        <ele>33.6</ele>
        <time>2022-11-01T12:07:26Z</time>
      </trkpt>
      <trkpt lat="36.7088890" lon="-2.8439450">
        <ele>33.6</ele>
        <time>2022-11-01T12:07:27Z</time>
      </trkpt>
      <trkpt lat="36.7089550" lon="-2.8439210">
        <ele>33.8</ele>
        <time>2022-11-01T12:07:28Z</time>
      </trkpt>
      <trkpt lat="36.7090220" lon="-2.8438950">
        <ele>33.8</ele>
        <time>2022-11-01T12:07:29Z</time>
      </trkpt>
      <trkpt lat="36.7090870" lon="-2.8438700">
        <ele>34.0</ele>
        <time>2022-11-01T12:07:30Z</time>
      </trkpt>
      <trkpt lat="36.7091520" lon="-2.8438430">
        <ele>34.0</ele>
        <time>2022-11-01T12:07:31Z</time>
      </trkpt>
      <trkpt lat="36.7092150" lon="-2.8438180">
        <ele>34.2</ele>
        <time>2022-11-01T12:07:32Z</time>
      </trkpt>
      <trkpt lat="36.7092800" lon="-2.8437930">
        <ele>34.2</ele>
        <time>2022-11-01T12:07:33Z</time>
      </trkpt>
      <trkpt lat="36.7093450" lon="-2.8437670">
        <ele>34.2</ele>
        <time>2022-11-01T12:07:34Z</time>
      </trkpt>
      <trkpt lat="36.7094130" lon="-2.8437400">
        <ele>34.4</ele>
        <time>2022-11-01T12:07:35Z</time>
      </trkpt>
      <trkpt lat="36.7094790" lon="-2.8437120">
        <ele>34.4</ele>
        <time>2022-11-01T12:07:36Z</time>
      </trkpt>
      <trkpt lat="36.7095460" lon="-2.8436850">
        <ele>34.4</ele>
        <time>2022-11-01T12:07:37Z</time>
      </trkpt>
      <trkpt lat="36.7096150" lon="-2.8436580">
        <ele>34.4</ele>
        <time>2022-11-01T12:07:38Z</time>
      </trkpt>
      <trkpt lat="36.7096840" lon="-2.8436300">
        <ele>34.4</ele>
        <time>2022-11-01T12:07:39Z</time>
      </trkpt>
      <trkpt lat="36.7097530" lon="-2.8436030">
        <ele>34.4</ele>
        <time>2022-11-01T12:07:40Z</time>
      </trkpt>
      <trkpt lat="36.7098230" lon="-2.8435770">
        <ele>34.6</ele>
        <time>2022-11-01T12:07:41Z</time>
      </trkpt>
      <trkpt lat="36.7098940" lon="-2.8435500">
        <ele>34.6</ele>
        <time>2022-11-01T12:07:42Z</time>
      </trkpt>
      <trkpt lat="36.7099660" lon="-2.8435210">
        <ele>34.6</ele>
        <time>2022-11-01T12:07:43Z</time>
      </trkpt>
      <trkpt lat="36.7100390" lon="-2.8434920">
        <ele>34.6</ele>
        <time>2022-11-01T12:07:44Z</time>
      </trkpt>
      <trkpt lat="36.7101120" lon="-2.8434620">
        <ele>34.6</ele>
        <time>2022-11-01T12:07:45Z</time>
      </trkpt>
      <trkpt lat="36.7101830" lon="-2.8434320">
        <ele>34.8</ele>
        <time>2022-11-01T12:07:46Z</time>
      </trkpt>
      <trkpt lat="36.7102550" lon="-2.8434020">
        <ele>34.8</ele>
        <time>2022-11-01T12:07:47Z</time>
      </trkpt>
      <trkpt lat="36.7103260" lon="-2.8433740">
        <ele>34.8</ele>
        <time>2022-11-01T12:07:48Z</time>
      </trkpt>
      <trkpt lat="36.7103960" lon="-2.8433440">
        <ele>34.8</ele>
        <time>2022-11-01T12:07:49Z</time>
      </trkpt>
      <trkpt lat="36.7104640" lon="-2.8433150">
        <ele>35.0</ele>
        <time>2022-11-01T12:07:50Z</time>
      </trkpt>
      <trkpt lat="36.7105330" lon="-2.8432860">
        <ele>35.0</ele>
        <time>2022-11-01T12:07:51Z</time>
      </trkpt>
      <trkpt lat="36.7106010" lon="-2.8432570">
        <ele>35.0</ele>
        <time>2022-11-01T12:07:52Z</time>
      </trkpt>
      <trkpt lat="36.7106710" lon="-2.8432310">
        <ele>35.2</ele>
        <time>2022-11-01T12:07:53Z</time>
      </trkpt>
      <trkpt lat="36.7107420" lon="-2.8432050">
        <ele>35.2</ele>
        <time>2022-11-01T12:07:54Z</time>
      </trkpt>
      <trkpt lat="36.7108120" lon="-2.8431750">
        <ele>35.4</ele>
        <time>2022-11-01T12:07:55Z</time>
      </trkpt>
      <trkpt lat="36.7108810" lon="-2.8431450">
        <ele>35.4</ele>
        <time>2022-11-01T12:07:56Z</time>
      </trkpt>
      <trkpt lat="36.7109520" lon="-2.8431160">
        <ele>35.6</ele>
        <time>2022-11-01T12:07:57Z</time>
      </trkpt>
      <trkpt lat="36.7110210" lon="-2.8430880">
        <ele>35.6</ele>
        <time>2022-11-01T12:07:58Z</time>
      </trkpt>
      <trkpt lat="36.7110910" lon="-2.8430600">
        <ele>35.6</ele>
        <time>2022-11-01T12:07:59Z</time>
      </trkpt>
      <trkpt lat="36.7111600" lon="-2.8430330">
        <ele>35.6</ele>
        <time>2022-11-01T12:08:00Z</time>
      </trkpt>
      <trkpt lat="36.7112300" lon="-2.8430040">
        <ele>35.6</ele>
        <time>2022-11-01T12:08:01Z</time>
      </trkpt>
      <trkpt lat="36.7112990" lon="-2.8429750">
        <ele>35.8</ele>
        <time>2022-11-01T12:08:02Z</time>
      </trkpt>
      <trkpt lat="36.7113680" lon="-2.8429460">
        <ele>35.8</ele>
        <time>2022-11-01T12:08:03Z</time>
      </trkpt>
      <trkpt lat="36.7114360" lon="-2.8429170">
        <ele>36.0</ele>
        <time>2022-11-01T12:08:04Z</time>
      </trkpt>
      <trkpt lat="36.7115050" lon="-2.8428890">
        <ele>36.0</ele>
        <time>2022-11-01T12:08:05Z</time>
      </trkpt>
      <trkpt lat="36.7115720" lon="-2.8428600">
        <ele>36.2</ele>
        <time>2022-11-01T12:08:06Z</time>
      </trkpt>
      <trkpt lat="36.7116390" lon="-2.8428310">
        <ele>36.4</ele>
        <time>2022-11-01T12:08:07Z</time>
      </trkpt>
      <trkpt lat="36.7117060" lon="-2.8428020">
        <ele>36.4</ele>
        <time>2022-11-01T12:08:08Z</time>
      </trkpt>
      <trkpt lat="36.7117740" lon="-2.8427740">
        <ele>36.4</ele>
        <time>2022-11-01T12:08:09Z</time>
      </trkpt>
      <trkpt lat="36.7118410" lon="-2.8427460">
        <ele>36.6</ele>
        <time>2022-11-01T12:08:10Z</time>
      </trkpt>
      <trkpt lat="36.7119090" lon="-2.8427190">
        <ele>36.6</ele>
        <time>2022-11-01T12:08:11Z</time>
      </trkpt>
      <trkpt lat="36.7119770" lon="-2.8426940">
        <ele>36.6</ele>
        <time>2022-11-01T12:08:12Z</time>
      </trkpt>
      <trkpt lat="36.7120450" lon="-2.8426670">
        <ele>36.8</ele>
        <time>2022-11-01T12:08:13Z</time>
      </trkpt>
      <trkpt lat="36.7121130" lon="-2.8426400">
        <ele>36.8</ele>
        <time>2022-11-01T12:08:14Z</time>
      </trkpt>
      <trkpt lat="36.7121800" lon="-2.8426150">
        <ele>36.8</ele>
        <time>2022-11-01T12:08:15Z</time>
      </trkpt>
      <trkpt lat="36.7122470" lon="-2.8425930">
        <ele>36.8</ele>
        <time>2022-11-01T12:08:16Z</time>
      </trkpt>
      <trkpt lat="36.7123140" lon="-2.8425710">
        <ele>37.0</ele>
        <time>2022-11-01T12:08:17Z</time>
      </trkpt>
      <trkpt lat="36.7123810" lon="-2.8425520">
        <ele>37.0</ele>
        <time>2022-11-01T12:08:18Z</time>
      </trkpt>
      <trkpt lat="36.7124490" lon="-2.8425360">
        <ele>37.0</ele>
        <time>2022-11-01T12:08:19Z</time>
      </trkpt>
      <trkpt lat="36.7125180" lon="-2.8425250">
        <ele>37.0</ele>
        <time>2022-11-01T12:08:20Z</time>
      </trkpt>
      <trkpt lat="36.7125870" lon="-2.8425150">
        <ele>36.8</ele>
        <time>2022-11-01T12:08:21Z</time>
      </trkpt>
      <trkpt lat="36.7126580" lon="-2.8425060">
        <ele>36.8</ele>
        <time>2022-11-01T12:08:22Z</time>
      </trkpt>
      <trkpt lat="36.7127290" lon="-2.8425000">
        <ele>36.8</ele>
        <time>2022-11-01T12:08:23Z</time>
      </trkpt>
      <trkpt lat="36.7128040" lon="-2.8424960">
        <ele>36.6</ele>
        <time>2022-11-01T12:08:24Z</time>
      </trkpt>
      <trkpt lat="36.7128790" lon="-2.8424950">
        <ele>36.4</ele>
        <time>2022-11-01T12:08:25Z</time>
      </trkpt>
      <trkpt lat="36.7129540" lon="-2.8424970">
        <ele>36.4</ele>
        <time>2022-11-01T12:08:26Z</time>
      </trkpt>
      <trkpt lat="36.7130300" lon="-2.8425000">
        <ele>36.2</ele>
        <time>2022-11-01T12:08:27Z</time>
      </trkpt>
      <trkpt lat="36.7131070" lon="-2.8425060">
        <ele>36.0</ele>
        <time>2022-11-01T12:08:28Z</time>
      </trkpt>
      <trkpt lat="36.7131840" lon="-2.8425140">
        <ele>36.0</ele>
        <time>2022-11-01T12:08:29Z</time>
      </trkpt>
      <trkpt lat="36.7132630" lon="-2.8425260">
        <ele>35.8</ele>
        <time>2022-11-01T12:08:30Z</time>
      </trkpt>
      <trkpt lat="36.7133400" lon="-2.8425400">
        <ele>35.8</ele>
        <time>2022-11-01T12:08:31Z</time>
      </trkpt>
      <trkpt lat="36.7134170" lon="-2.8425560">
        <ele>35.6</ele>
        <time>2022-11-01T12:08:32Z</time>
      </trkpt>
      <trkpt lat="36.7134930" lon="-2.8425710">
        <ele>35.6</ele>
        <time>2022-11-01T12:08:33Z</time>
      </trkpt>
      <trkpt lat="36.7135670" lon="-2.8425860">
        <ele>35.6</ele>
        <time>2022-11-01T12:08:34Z</time>
      </trkpt>
      <trkpt lat="36.7136400" lon="-2.8426010">
        <ele>35.4</ele>
        <time>2022-11-01T12:08:35Z</time>
      </trkpt>
      <trkpt lat="36.7137120" lon="-2.8426180">
        <ele>35.4</ele>
        <time>2022-11-01T12:08:36Z</time>
      </trkpt>
      <trkpt lat="36.7137840" lon="-2.8426360">
        <ele>35.4</ele>
        <time>2022-11-01T12:08:37Z</time>
      </trkpt>
      <trkpt lat="36.7138570" lon="-2.8426520">
        <ele>35.4</ele>
        <time>2022-11-01T12:08:38Z</time>
      </trkpt>
      <trkpt lat="36.7139300" lon="-2.8426680">
        <ele>35.4</ele>
        <time>2022-11-01T12:08:39Z</time>
      </trkpt>
      <trkpt lat="36.7140040" lon="-2.8426820">
        <ele>35.4</ele>
        <time>2022-11-01T12:08:40Z</time>
      </trkpt>
      <trkpt lat="36.7140770" lon="-2.8426950">
        <ele>35.4</ele>
        <time>2022-11-01T12:08:41Z</time>
      </trkpt>
      <trkpt lat="36.7141500" lon="-2.8427060">
        <ele>35.4</ele>
        <time>2022-11-01T12:08:42Z</time>
      </trkpt>
      <trkpt lat="36.7142250" lon="-2.8427140">
        <ele>35.4</ele>
        <time>2022-11-01T12:08:43Z</time>
      </trkpt>
      <trkpt lat="36.7142990" lon="-2.8427210">
        <ele>35.4</ele>
        <time>2022-11-01T12:08:44Z</time>
      </trkpt>
      <trkpt lat="36.7143730" lon="-2.8427250">
        <ele>35.4</ele>
        <time>2022-11-01T12:08:45Z</time>
      </trkpt>
      <trkpt lat="36.7144490" lon="-2.8427260">
        <ele>35.4</ele>
        <time>2022-11-01T12:08:46Z</time>
      </trkpt>
      <trkpt lat="36.7145250" lon="-2.8427250">
        <ele>35.4</ele>
        <time>2022-11-01T12:08:47Z</time>
      </trkpt>
      <trkpt lat="36.7146000" lon="-2.8427200">
        <ele>35.4</ele>
        <time>2022-11-01T12:08:48Z</time>
      </trkpt>
      <trkpt lat="36.7146760" lon="-2.8427140">
        <ele>35.4</ele>
        <time>2022-11-01T12:08:49Z</time>
      </trkpt>
      <trkpt lat="36.7147500" lon="-2.8427070">
        <ele>35.4</ele>
        <time>2022-11-01T12:08:50Z</time>
      </trkpt>
      <trkpt lat="36.7148220" lon="-2.8426950">
        <ele>35.4</ele>
        <time>2022-11-01T12:08:51Z</time>
      </trkpt>
      <trkpt lat="36.7148950" lon="-2.8426830">
        <ele>35.4</ele>
        <time>2022-11-01T12:08:52Z</time>
      </trkpt>
      <trkpt lat="36.7149660" lon="-2.8426690">
        <ele>35.6</ele>
        <time>2022-11-01T12:08:53Z</time>
      </trkpt>
      <trkpt lat="36.7150360" lon="-2.8426550">
        <ele>35.6</ele>
        <time>2022-11-01T12:08:54Z</time>
      </trkpt>
      <trkpt lat="36.7151060" lon="-2.8426410">
        <ele>35.8</ele>
        <time>2022-11-01T12:08:55Z</time>
      </trkpt>
      <trkpt lat="36.7151760" lon="-2.8426260">
        <ele>35.8</ele>
        <time>2022-11-01T12:08:56Z</time>
      </trkpt>
      <trkpt lat="36.7152450" lon="-2.8426080">
        <ele>35.8</ele>
        <time>2022-11-01T12:08:57Z</time>
      </trkpt>
      <trkpt lat="36.7153120" lon="-2.8425900">
        <ele>35.8</ele>
        <time>2022-11-01T12:08:58Z</time>
      </trkpt>
      <trkpt lat="36.7153790" lon="-2.8425720">
        <ele>36.0</ele>
        <time>2022-11-01T12:08:59Z</time>
      </trkpt>
      <trkpt lat="36.7154450" lon="-2.8425540">
        <ele>36.2</ele>
        <time>2022-11-01T12:09:00Z</time>
      </trkpt>
      <trkpt lat="36.7155090" lon="-2.8425360">
        <ele>36.4</ele>
        <time>2022-11-01T12:09:01Z</time>
      </trkpt>
      <trkpt lat="36.7155720" lon="-2.8425180">
        <ele>36.4</ele>
        <time>2022-11-01T12:09:02Z</time>
      </trkpt>
      <trkpt lat="36.7156350" lon="-2.8425000">
        <ele>36.8</ele>
        <time>2022-11-01T12:09:03Z</time>
      </trkpt>
      <trkpt lat="36.7156980" lon="-2.8424810">
        <ele>36.8</ele>
        <time>2022-11-01T12:09:04Z</time>
      </trkpt>
      <trkpt lat="36.7157620" lon="-2.8424630">
        <ele>37.0</ele>
        <time>2022-11-01T12:09:05Z</time>
      </trkpt>
      <trkpt lat="36.7158240" lon="-2.8424430">
        <ele>37.2</ele>
        <time>2022-11-01T12:09:06Z</time>
      </trkpt>
      <trkpt lat="36.7158850" lon="-2.8424230">
        <ele>37.4</ele>
        <time>2022-11-01T12:09:07Z</time>
      </trkpt>
      <trkpt lat="36.7159460" lon="-2.8424050">
        <ele>37.6</ele>
        <time>2022-11-01T12:09:08Z</time>
      </trkpt>
      <trkpt lat="36.7160050" lon="-2.8423870">
        <ele>37.6</ele>
        <time>2022-11-01T12:09:09Z</time>
      </trkpt>
      <trkpt lat="36.7160660" lon="-2.8423700">
        <ele>37.8</ele>
        <time>2022-11-01T12:09:10Z</time>
      </trkpt>
      <trkpt lat="36.7161260" lon="-2.8423540">
        <ele>37.8</ele>
        <time>2022-11-01T12:09:11Z</time>
      </trkpt>
      <trkpt lat="36.7161850" lon="-2.8423360">
        <ele>38.0</ele>
        <time>2022-11-01T12:09:12Z</time>
      </trkpt>
      <trkpt lat="36.7162430" lon="-2.8423170">
        <ele>38.0</ele>
        <time>2022-11-01T12:09:13Z</time>
      </trkpt>
      <trkpt lat="36.7162980" lon="-2.8422980">
        <ele>38.2</ele>
        <time>2022-11-01T12:09:14Z</time>
      </trkpt>
      <trkpt lat="36.7163560" lon="-2.8422790">
        <ele>38.2</ele>
        <time>2022-11-01T12:09:15Z</time>
      </trkpt>
      <trkpt lat="36.7164170" lon="-2.8422620">
        <ele>38.2</ele>
        <time>2022-11-01T12:09:16Z</time>
      </trkpt>
      <trkpt lat="36.7164790" lon="-2.8422450">
        <ele>38.4</ele>
        <time>2022-11-01T12:09:17Z</time>
      </trkpt>
      <trkpt lat="36.7165390" lon="-2.8422260">
        <ele>38.4</ele>
        <time>2022-11-01T12:09:18Z</time>
      </trkpt>
      <trkpt lat="36.7165980" lon="-2.8422060">
        <ele>38.6</ele>
        <time>2022-11-01T12:09:19Z</time>
      </trkpt>
      <trkpt lat="36.7166590" lon="-2.8421860">
        <ele>38.6</ele>
        <time>2022-11-01T12:09:20Z</time>
      </trkpt>
      <trkpt lat="36.7167200" lon="-2.8421660">
        <ele>38.8</ele>
        <time>2022-11-01T12:09:21Z</time>
      </trkpt>
      <trkpt lat="36.7167830" lon="-2.8421490">
        <ele>38.8</ele>
        <time>2022-11-01T12:09:22Z</time>
      </trkpt>
      <trkpt lat="36.7168460" lon="-2.8421340">
        <ele>38.8</ele>
        <time>2022-11-01T12:09:23Z</time>
      </trkpt>
      <trkpt lat="36.7169100" lon="-2.8421200">
        <ele>39.0</ele>
        <time>2022-11-01T12:09:24Z</time>
      </trkpt>
      <trkpt lat="36.7169720" lon="-2.8421040">
        <ele>39.0</ele>
        <time>2022-11-01T12:09:25Z</time>
      </trkpt>
      <trkpt lat="36.7170350" lon="-2.8420890">
        <ele>39.2</ele>
        <time>2022-11-01T12:09:26Z</time>
      </trkpt>
      <trkpt lat="36.7170980" lon="-2.8420760">
        <ele>39.0</ele>
        <time>2022-11-01T12:09:27Z</time>
      </trkpt>
      <trkpt lat="36.7171600" lon="-2.8420640">
        <ele>39.2</ele>
        <time>2022-11-01T12:09:28Z</time>
      </trkpt>
      <trkpt lat="36.7172220" lon="-2.8420560">
        <ele>39.2</ele>
        <time>2022-11-01T12:09:29Z</time>
      </trkpt>
      <trkpt lat="36.7172850" lon="-2.8420500">
        <ele>39.4</ele>
        <time>2022-11-01T12:09:30Z</time>
      </trkpt>
      <trkpt lat="36.7173460" lon="-2.8420440">
        <ele>39.6</ele>
        <time>2022-11-01T12:09:31Z</time>
      </trkpt>
      <trkpt lat="36.7174080" lon="-2.8420400">
        <ele>39.6</ele>
        <time>2022-11-01T12:09:32Z</time>
      </trkpt>
      <trkpt lat="36.7174680" lon="-2.8420370">
        <ele>39.8</ele>
        <time>2022-11-01T12:09:33Z</time>
      </trkpt>
      <trkpt lat="36.7175280" lon="-2.8420340">
        <ele>40.0</ele>
        <time>2022-11-01T12:09:34Z</time>
      </trkpt>
      <trkpt lat="36.7175890" lon="-2.8420320">
        <ele>40.2</ele>
        <time>2022-11-01T12:09:35Z</time>
      </trkpt>
      <trkpt lat="36.7176490" lon="-2.8420290">
        <ele>40.2</ele>
        <time>2022-11-01T12:09:36Z</time>
      </trkpt>
      <trkpt lat="36.7177090" lon="-2.8420270">
        <ele>40.4</ele>
        <time>2022-11-01T12:09:37Z</time>
      </trkpt>
      <trkpt lat="36.7177700" lon="-2.8420260">
        <ele>40.6</ele>
        <time>2022-11-01T12:09:38Z</time>
      </trkpt>
      <trkpt lat="36.7178290" lon="-2.8420230">
        <ele>40.8</ele>
        <time>2022-11-01T12:09:39Z</time>
      </trkpt>
      <trkpt lat="36.7178890" lon="-2.8420200">
        <ele>41.0</ele>
        <time>2022-11-01T12:09:40Z</time>
      </trkpt>
      <trkpt lat="36.7179480" lon="-2.8420180">
        <ele>41.0</ele>
        <time>2022-11-01T12:09:41Z</time>
      </trkpt>
      <trkpt lat="36.7180050" lon="-2.8420140">
        <ele>41.2</ele>
        <time>2022-11-01T12:09:42Z</time>
      </trkpt>
      <trkpt lat="36.7180630" lon="-2.8420090">
        <ele>41.4</ele>
        <time>2022-11-01T12:09:43Z</time>
      </trkpt>
      <trkpt lat="36.7181200" lon="-2.8420040">
        <ele>41.6</ele>
        <time>2022-11-01T12:09:44Z</time>
      </trkpt>
      <trkpt lat="36.7181760" lon="-2.8419980">
        <ele>41.6</ele>
        <time>2022-11-01T12:09:45Z</time>
      </trkpt>
      <trkpt lat="36.7182320" lon="-2.8419900">
        <ele>41.8</ele>
        <time>2022-11-01T12:09:46Z</time>
      </trkpt>
      <trkpt lat="36.7182880" lon="-2.8419820">
        <ele>41.8</ele>
        <time>2022-11-01T12:09:47Z</time>
      </trkpt>
      <trkpt lat="36.7183430" lon="-2.8419730">
        <ele>42.0</ele>
        <time>2022-11-01T12:09:48Z</time>
      </trkpt>
      <trkpt lat="36.7183980" lon="-2.8419620">
        <ele>42.2</ele>
        <time>2022-11-01T12:09:49Z</time>
      </trkpt>
      <trkpt lat="36.7184550" lon="-2.8419500">
        <ele>42.2</ele>
        <time>2022-11-01T12:09:50Z</time>
      </trkpt>
      <trkpt lat="36.7185110" lon="-2.8419380">
        <ele>42.4</ele>
        <time>2022-11-01T12:09:51Z</time>
      </trkpt>
      <trkpt lat="36.7185660" lon="-2.8419260">
        <ele>42.4</ele>
        <time>2022-11-01T12:09:52Z</time>
      </trkpt>
      <trkpt lat="36.7186220" lon="-2.8419160">
        <ele>42.6</ele>
        <time>2022-11-01T12:09:53Z</time>
      </trkpt>
      <trkpt lat="36.7186770" lon="-2.8419050">
        <ele>42.6</ele>
        <time>2022-11-01T12:09:54Z</time>
      </trkpt>
      <trkpt lat="36.7187330" lon="-2.8418930">
        <ele>42.6</ele>
        <time>2022-11-01T12:09:55Z</time>
      </trkpt>
      <trkpt lat="36.7187890" lon="-2.8418790">
        <ele>42.8</ele>
        <time>2022-11-01T12:09:56Z</time>
      </trkpt>
      <trkpt lat="36.7188450" lon="-2.8418670">
        <ele>43.0</ele>
        <time>2022-11-01T12:09:57Z</time>
      </trkpt>
      <trkpt lat="36.7189020" lon="-2.8418560">
        <ele>43.2</ele>
        <time>2022-11-01T12:09:58Z</time>
      </trkpt>
      <trkpt lat="36.7189580" lon="-2.8418460">
        <ele>43.4</ele>
        <time>2022-11-01T12:09:59Z</time>
      </trkpt>
      <trkpt lat="36.7190150" lon="-2.8418340">
        <ele>43.6</ele>
        <time>2022-11-01T12:10:00Z</time>
      </trkpt>
      <trkpt lat="36.7190720" lon="-2.8418220">
        <ele>43.6</ele>
        <time>2022-11-01T12:10:01Z</time>
      </trkpt>
      <trkpt lat="36.7191290" lon="-2.8418110">
        <ele>43.8</ele>
        <time>2022-11-01T12:10:02Z</time>
      </trkpt>
      <trkpt lat="36.7191830" lon="-2.8418000">
        <ele>44.0</ele>
        <time>2022-11-01T12:10:03Z</time>
      </trkpt>
      <trkpt lat="36.7192380" lon="-2.8417880">
        <ele>44.2</ele>
        <time>2022-11-01T12:10:04Z</time>
      </trkpt>
      <trkpt lat="36.7192920" lon="-2.8417770">
        <ele>44.4</ele>
        <time>2022-11-01T12:10:05Z</time>
      </trkpt>
      <trkpt lat="36.7193460" lon="-2.8417660">
        <ele>44.6</ele>
        <time>2022-11-01T12:10:06Z</time>
      </trkpt>
      <trkpt lat="36.7194000" lon="-2.8417560">
        <ele>44.8</ele>
        <time>2022-11-01T12:10:07Z</time>
      </trkpt>
      <trkpt lat="36.7194530" lon="-2.8417460">
        <ele>45.2</ele>
        <time>2022-11-01T12:10:08Z</time>
      </trkpt>
      <trkpt lat="36.7195070" lon="-2.8417370">
        <ele>45.2</ele>
        <time>2022-11-01T12:10:09Z</time>
      </trkpt>
      <trkpt lat="36.7195590" lon="-2.8417300">
        <ele>45.6</ele>
        <time>2022-11-01T12:10:10Z</time>
      </trkpt>
      <trkpt lat="36.7196120" lon="-2.8417180">
        <ele>45.8</ele>
        <time>2022-11-01T12:10:11Z</time>
      </trkpt>
      <trkpt lat="36.7196650" lon="-2.8417090">
        <ele>46.0</ele>
        <time>2022-11-01T12:10:12Z</time>
      </trkpt>
      <trkpt lat="36.7197200" lon="-2.8417020">
        <ele>46.2</ele>
        <time>2022-11-01T12:10:13Z</time>
      </trkpt>
      <trkpt lat="36.7197740" lon="-2.8416940">
        <ele>46.4</ele>
        <time>2022-11-01T12:10:14Z</time>
      </trkpt>
      <trkpt lat="36.7198260" lon="-2.8416870">
        <ele>46.8</ele>
        <time>2022-11-01T12:10:15Z</time>
      </trkpt>
      <trkpt lat="36.7198770" lon="-2.8416820">
        <ele>47.0</ele>
        <time>2022-11-01T12:10:16Z</time>
      </trkpt>
      <trkpt lat="36.7199290" lon="-2.8416770">
        <ele>47.2</ele>
        <time>2022-11-01T12:10:17Z</time>
      </trkpt>
      <trkpt lat="36.7199770" lon="-2.8416720">
        <ele>47.6</ele>
        <time>2022-11-01T12:10:18Z</time>
      </trkpt>
      <trkpt lat="36.7200250" lon="-2.8416670">
        <ele>47.8</ele>
        <time>2022-11-01T12:10:19Z</time>
      </trkpt>
      <trkpt lat="36.7200750" lon="-2.8416630">
        <ele>48.0</ele>
        <time>2022-11-01T12:10:20Z</time>
      </trkpt>
      <trkpt lat="36.7201240" lon="-2.8416600">
        <ele>48.2</ele>
        <time>2022-11-01T12:10:21Z</time>
      </trkpt>
      <trkpt lat="36.7201730" lon="-2.8416570">
        <ele>48.4</ele>
        <time>2022-11-01T12:10:22Z</time>
      </trkpt>
      <trkpt lat="36.7202230" lon="-2.8416550">
        <ele>48.6</ele>
        <time>2022-11-01T12:10:23Z</time>
      </trkpt>
      <trkpt lat="36.7202730" lon="-2.8416540">
        <ele>48.8</ele>
        <time>2022-11-01T12:10:24Z</time>
      </trkpt>
      <trkpt lat="36.7203220" lon="-2.8416530">
        <ele>49.0</ele>
        <time>2022-11-01T12:10:25Z</time>
      </trkpt>
      <trkpt lat="36.7203720" lon="-2.8416520">
        <ele>49.2</ele>
        <time>2022-11-01T12:10:26Z</time>
      </trkpt>
      <trkpt lat="36.7204200" lon="-2.8416510">
        <ele>49.4</ele>
        <time>2022-11-01T12:10:27Z</time>
      </trkpt>
      <trkpt lat="36.7204700" lon="-2.8416540">
        <ele>49.6</ele>
        <time>2022-11-01T12:10:28Z</time>
      </trkpt>
      <trkpt lat="36.7205180" lon="-2.8416560">
        <ele>49.8</ele>
        <time>2022-11-01T12:10:29Z</time>
      </trkpt>
      <trkpt lat="36.7205670" lon="-2.8416580">
        <ele>50.0</ele>
        <time>2022-11-01T12:10:30Z</time>
      </trkpt>
      <trkpt lat="36.7206140" lon="-2.8416620">
        <ele>50.2</ele>
        <time>2022-11-01T12:10:31Z</time>
      </trkpt>
      <trkpt lat="36.7206600" lon="-2.8416680">
        <ele>50.4</ele>
        <time>2022-11-01T12:10:32Z</time>
      </trkpt>
      <trkpt lat="36.7207060" lon="-2.8416760">
        <ele>50.6</ele>
        <time>2022-11-01T12:10:33Z</time>
      </trkpt>
      <trkpt lat="36.7207540" lon="-2.8416830">
        <ele>50.8</ele>
        <time>2022-11-01T12:10:34Z</time>
      </trkpt>
      <trkpt lat="36.7208010" lon="-2.8416900">
        <ele>50.8</ele>
        <time>2022-11-01T12:10:35Z</time>
      </trkpt>
      <trkpt lat="36.7208490" lon="-2.8417000">
        <ele>50.8</ele>
        <time>2022-11-01T12:10:36Z</time>
      </trkpt>
      <trkpt lat="36.7208990" lon="-2.8417080">
        <ele>51.0</ele>
        <time>2022-11-01T12:10:37Z</time>
      </trkpt>
      <trkpt lat="36.7209490" lon="-2.8417130">
        <ele>51.0</ele>
        <time>2022-11-01T12:10:38Z</time>
      </trkpt>
      <trkpt lat="36.7210010" lon="-2.8417110">
        <ele>51.0</ele>
        <time>2022-11-01T12:10:39Z</time>
      </trkpt>
      <trkpt lat="36.7210510" lon="-2.8417010">
        <ele>51.0</ele>
        <time>2022-11-01T12:10:40Z</time>
      </trkpt>
      <trkpt lat="36.7211000" lon="-2.8416860">
        <ele>51.0</ele>
        <time>2022-11-01T12:10:41Z</time>
      </trkpt>
      <trkpt lat="36.7211490" lon="-2.8416660">
        <ele>51.2</ele>
        <time>2022-11-01T12:10:42Z</time>
      </trkpt>
      <trkpt lat="36.7211970" lon="-2.8416410">
        <ele>51.2</ele>
        <time>2022-11-01T12:10:43Z</time>
      </trkpt>
      <trkpt lat="36.7212450" lon="-2.8416150">
        <ele>51.2</ele>
        <time>2022-11-01T12:10:44Z</time>
      </trkpt>
      <trkpt lat="36.7212960" lon="-2.8415990">
        <ele>51.4</ele>
        <time>2022-11-01T12:10:45Z</time>
      </trkpt>
      <trkpt lat="36.7213520" lon="-2.8415960">
        <ele>51.4</ele>
        <time>2022-11-01T12:10:46Z</time>
      </trkpt>
      <trkpt lat="36.7214070" lon="-2.8416080">
        <ele>51.4</ele>
        <time>2022-11-01T12:10:47Z</time>
      </trkpt>
      <trkpt lat="36.7214590" lon="-2.8416310">
        <ele>51.4</ele>
        <time>2022-11-01T12:10:48Z</time>
      </trkpt>
      <trkpt lat="36.7215080" lon="-2.8416590">
        <ele>51.6</ele>
        <time>2022-11-01T12:10:49Z</time>
      </trkpt>
      <trkpt lat="36.7215530" lon="-2.8416910">
        <ele>51.8</ele>
        <time>2022-11-01T12:10:50Z</time>
      </trkpt>
      <trkpt lat="36.7215970" lon="-2.8417210">
        <ele>52.0</ele>
        <time>2022-11-01T12:10:51Z</time>
      </trkpt>
      <trkpt lat="36.7216400" lon="-2.8417510">
        <ele>52.2</ele>
        <time>2022-11-01T12:10:52Z</time>
      </trkpt>
      <trkpt lat="36.7216820" lon="-2.8417750">
        <ele>52.6</ele>
        <time>2022-11-01T12:10:53Z</time>
      </trkpt>
      <trkpt lat="36.7217260" lon="-2.8417910">
        <ele>52.8</ele>
        <time>2022-11-01T12:10:54Z</time>
      </trkpt>
      <trkpt lat="36.7217710" lon="-2.8418060">
        <ele>53.0</ele>
        <time>2022-11-01T12:10:55Z</time>
      </trkpt>
      <trkpt lat="36.7218140" lon="-2.8418200">
        <ele>53.4</ele>
        <time>2022-11-01T12:10:56Z</time>
      </trkpt>
      <trkpt lat="36.7218570" lon="-2.8418340">
        <ele>53.6</ele>
        <time>2022-11-01T12:10:57Z</time>
      </trkpt>
      <trkpt lat="36.7218990" lon="-2.8418470">
        <ele>53.8</ele>
        <time>2022-11-01T12:10:58Z</time>
      </trkpt>
      <trkpt lat="36.7219400" lon="-2.8418570">
        <ele>54.2</ele>
        <time>2022-11-01T12:10:59Z</time>
      </trkpt>
      <trkpt lat="36.7219850" lon="-2.8418660">
        <ele>54.4</ele>
        <time>2022-11-01T12:11:00Z</time>
      </trkpt>
      <trkpt lat="36.7220300" lon="-2.8418760">
        <ele>54.8</ele>
        <time>2022-11-01T12:11:01Z</time>
      </trkpt>
      <trkpt lat="36.7220730" lon="-2.8418850">
        <ele>55.0</ele>
        <time>2022-11-01T12:11:02Z</time>
      </trkpt>
      <trkpt lat="36.7221150" lon="-2.8418920">
        <ele>55.2</ele>
        <time>2022-11-01T12:11:03Z</time>
      </trkpt>
      <trkpt lat="36.7221580" lon="-2.8418980">
        <ele>55.4</ele>
        <time>2022-11-01T12:11:04Z</time>
      </trkpt>
      <trkpt lat="36.7222030" lon="-2.8419060">
        <ele>55.8</ele>
        <time>2022-11-01T12:11:05Z</time>
      </trkpt>
      <trkpt lat="36.7222470" lon="-2.8419140">
        <ele>56.0</ele>
        <time>2022-11-01T12:11:06Z</time>
      </trkpt>
      <trkpt lat="36.7222900" lon="-2.8419220">
        <ele>56.2</ele>
        <time>2022-11-01T12:11:07Z</time>
      </trkpt>
      <trkpt lat="36.7223340" lon="-2.8419320">
        <ele>56.4</ele>
        <time>2022-11-01T12:11:08Z</time>
      </trkpt>
      <trkpt lat="36.7223770" lon="-2.8419420">
        <ele>56.6</ele>
        <time>2022-11-01T12:11:09Z</time>
      </trkpt>
      <trkpt lat="36.7224220" lon="-2.8419520">
        <ele>56.8</ele>
        <time>2022-11-01T12:11:10Z</time>
      </trkpt>
      <trkpt lat="36.7224630" lon="-2.8419610">
        <ele>57.0</ele>
        <time>2022-11-01T12:11:11Z</time>
      </trkpt>
      <trkpt lat="36.7225030" lon="-2.8419700">
        <ele>57.2</ele>
        <time>2022-11-01T12:11:12Z</time>
      </trkpt>
      <trkpt lat="36.7225490" lon="-2.8419820">
        <ele>57.6</ele>
        <time>2022-11-01T12:11:13Z</time>
      </trkpt>
      <trkpt lat="36.7225940" lon="-2.8419900">
        <ele>57.8</ele>
        <time>2022-11-01T12:11:14Z</time>
      </trkpt>
      <trkpt lat="36.7226400" lon="-2.8419940">
        <ele>58.2</ele>
        <time>2022-11-01T12:11:15Z</time>
      </trkpt>
      <trkpt lat="36.7226870" lon="-2.8419970">
        <ele>58.4</ele>
        <time>2022-11-01T12:11:16Z</time>
      </trkpt>
      <trkpt lat="36.7227360" lon="-2.8420000">
        <ele>58.8</ele>
        <time>2022-11-01T12:11:17Z</time>
      </trkpt>
      <trkpt lat="36.7227840" lon="-2.8419970">
        <ele>59.0</ele>
        <time>2022-11-01T12:11:18Z</time>
      </trkpt>
      <trkpt lat="36.7228330" lon="-2.8419910">
        <ele>59.2</ele>
        <time>2022-11-01T12:11:19Z</time>
      </trkpt>
      <trkpt lat="36.7228830" lon="-2.8419860">
        <ele>59.4</ele>
        <time>2022-11-01T12:11:20Z</time>
      </trkpt>
      <trkpt lat="36.7229350" lon="-2.8419810">
        <ele>59.6</ele>
        <time>2022-11-01T12:11:21Z</time>
      </trkpt>
      <trkpt lat="36.7229900" lon="-2.8419790">
        <ele>59.6</ele>
        <time>2022-11-01T12:11:22Z</time>
      </trkpt>
      <trkpt lat="36.7230420" lon="-2.8419780">
        <ele>59.8</ele>
        <time>2022-11-01T12:11:23Z</time>
      </trkpt>
      <trkpt lat="36.7230950" lon="-2.8419770">
        <ele>60.0</ele>
        <time>2022-11-01T12:11:24Z</time>
      </trkpt>
      <trkpt lat="36.7231460" lon="-2.8419750">
        <ele>60.2</ele>
        <time>2022-11-01T12:11:25Z</time>
      </trkpt>
      <trkpt lat="36.7231970" lon="-2.8419730">
        <ele>60.4</ele>
        <time>2022-11-01T12:11:26Z</time>
      </trkpt>
      <trkpt lat="36.7232460" lon="-2.8419720">
        <ele>60.4</ele>
        <time>2022-11-01T12:11:27Z</time>
      </trkpt>
      <trkpt lat="36.7232950" lon="-2.8419720">
        <ele>60.6</ele>
        <time>2022-11-01T12:11:28Z</time>
      </trkpt>
      <trkpt lat="36.7233450" lon="-2.8419710">
        <ele>60.8</ele>
        <time>2022-11-01T12:11:29Z</time>
      </trkpt>
      <trkpt lat="36.7233940" lon="-2.8419710">
        <ele>61.0</ele>
        <time>2022-11-01T12:11:30Z</time>
      </trkpt>
      <trkpt lat="36.7234410" lon="-2.8419700">
        <ele>61.0</ele>
        <time>2022-11-01T12:11:31Z</time>
      </trkpt>
      <trkpt lat="36.7234890" lon="-2.8419710">
        <ele>61.2</ele>
        <time>2022-11-01T12:11:32Z</time>
      </trkpt>
      <trkpt lat="36.7235370" lon="-2.8419740">
        <ele>61.2</ele>
        <time>2022-11-01T12:11:33Z</time>
      </trkpt>
      <trkpt lat="36.7235850" lon="-2.8419790">
        <ele>61.4</ele>
        <time>2022-11-01T12:11:34Z</time>
      </trkpt>
      <trkpt lat="36.7236340" lon="-2.8419820">
        <ele>61.4</ele>
        <time>2022-11-01T12:11:35Z</time>
      </trkpt>
      <trkpt lat="36.7236820" lon="-2.8419830">
        <ele>61.6</ele>
        <time>2022-11-01T12:11:36Z</time>
      </trkpt>
      <trkpt lat="36.7237270" lon="-2.8419780">
        <ele>61.6</ele>
        <time>2022-11-01T12:11:37Z</time>
      </trkpt>
      <trkpt lat="36.7237730" lon="-2.8419710">
        <ele>61.6</ele>
        <time>2022-11-01T12:11:38Z</time>
      </trkpt>
      <trkpt lat="36.7238190" lon="-2.8419630">
        <ele>61.8</ele>
        <time>2022-11-01T12:11:39Z</time>
      </trkpt>
      <trkpt lat="36.7238670" lon="-2.8419560">
        <ele>62.0</ele>
        <time>2022-11-01T12:11:40Z</time>
      </trkpt>
      <trkpt lat="36.7239140" lon="-2.8419500">
        <ele>62.0</ele>
        <time>2022-11-01T12:11:41Z</time>
      </trkpt>
      <trkpt lat="36.7239630" lon="-2.8419430">
        <ele>62.0</ele>
        <time>2022-11-01T12:11:42Z</time>
      </trkpt>
      <trkpt lat="36.7240140" lon="-2.8419370">
        <ele>62.0</ele>
        <time>2022-11-01T12:11:43Z</time>
      </trkpt>
      <trkpt lat="36.7240680" lon="-2.8419300">
        <ele>62.0</ele>
        <time>2022-11-01T12:11:44Z</time>
      </trkpt>
      <trkpt lat="36.7241200" lon="-2.8419230">
        <ele>62.0</ele>
        <time>2022-11-01T12:11:45Z</time>
      </trkpt>
      <trkpt lat="36.7241720" lon="-2.8419180">
        <ele>62.2</ele>
        <time>2022-11-01T12:11:46Z</time>
      </trkpt>
      <trkpt lat="36.7242230" lon="-2.8419140">
        <ele>62.2</ele>
        <time>2022-11-01T12:11:47Z</time>
      </trkpt>
      <trkpt lat="36.7242730" lon="-2.8419110">
        <ele>62.2</ele>
        <time>2022-11-01T12:11:48Z</time>
      </trkpt>
      <trkpt lat="36.7243220" lon="-2.8419100">
        <ele>62.4</ele>
        <time>2022-11-01T12:11:49Z</time>
      </trkpt>
      <trkpt lat="36.7243710" lon="-2.8419120">
        <ele>62.6</ele>
        <time>2022-11-01T12:11:50Z</time>
      </trkpt>
      <trkpt lat="36.7244210" lon="-2.8419160">
        <ele>62.6</ele>
        <time>2022-11-01T12:11:51Z</time>
      </trkpt>
      <trkpt lat="36.7244670" lon="-2.8419210">
        <ele>62.8</ele>
        <time>2022-11-01T12:11:52Z</time>
      </trkpt>
      <trkpt lat="36.7245150" lon="-2.8419290">
        <ele>63.0</ele>
        <time>2022-11-01T12:11:53Z</time>
      </trkpt>
      <trkpt lat="36.7245590" lon="-2.8419360">
        <ele>63.2</ele>
        <time>2022-11-01T12:11:54Z</time>
      </trkpt>
      <trkpt lat="36.7246020" lon="-2.8419450">
        <ele>63.2</ele>
        <time>2022-11-01T12:11:55Z</time>
      </trkpt>
      <trkpt lat="36.7246450" lon="-2.8419570">
        <ele>63.4</ele>
        <time>2022-11-01T12:11:56Z</time>
      </trkpt>
      <trkpt lat="36.7246840" lon="-2.8419680">
        <ele>63.6</ele>
        <time>2022-11-01T12:11:57Z</time>
      </trkpt>
      <trkpt lat="36.7247260" lon="-2.8419840">
        <ele>63.6</ele>
        <time>2022-11-01T12:11:58Z</time>
      </trkpt>
      <trkpt lat="36.7247700" lon="-2.8419990">
        <ele>63.8</ele>
        <time>2022-11-01T12:11:59Z</time>
      </trkpt>
      <trkpt lat="36.7248140" lon="-2.8420050">
        <ele>64.2</ele>
        <time>2022-11-01T12:12:00Z</time>
      </trkpt>
      <trkpt lat="36.7248510" lon="-2.8420000">
        <ele>64.4</ele>
        <time>2022-11-01T12:12:01Z</time>
      </trkpt>
      <trkpt lat="36.7248800" lon="-2.8419880">
        <ele>64.6</ele>
        <time>2022-11-01T12:12:02Z</time>
      </trkpt>
      <trkpt lat="36.7249030" lon="-2.8419740">
        <ele>65.0</ele>
        <time>2022-11-01T12:12:03Z</time>
      </trkpt>
      <trkpt lat="36.7249270" lon="-2.8419470">
        <ele>65.2</ele>
        <time>2022-11-01T12:12:04Z</time>
      </trkpt>
      <trkpt lat="36.7249470" lon="-2.8419110">
        <ele>65.2</ele>
        <time>2022-11-01T12:12:05Z</time>
      </trkpt>
      <trkpt lat="36.7249490" lon="-2.8418670">
        <ele>65.4</ele>
        <time>2022-11-01T12:12:06Z</time>
      </trkpt>
      <trkpt lat="36.7249450" lon="-2.8418210">
        <ele>65.4</ele>
        <time>2022-11-01T12:12:07Z</time>
      </trkpt>
      <trkpt lat="36.7249370" lon="-2.8417800">
        <ele>65.4</ele>
        <time>2022-11-01T12:12:08Z</time>
      </trkpt>
      <trkpt lat="36.7249320" lon="-2.8417380">
        <ele>65.6</ele>
        <time>2022-11-01T12:12:09Z</time>
      </trkpt>
      <trkpt lat="36.7249210" lon="-2.8416870">
        <ele>65.6</ele>
        <time>2022-11-01T12:12:10Z</time>
      </trkpt>
      <trkpt lat="36.7249090" lon="-2.8416320">
        <ele>65.6</ele>
        <time>2022-11-01T12:12:11Z</time>
      </trkpt>
      <trkpt lat="36.7249060" lon="-2.8415900">
        <ele>65.6</ele>
        <time>2022-11-01T12:12:12Z</time>
      </trkpt>
      <trkpt lat="36.7249040" lon="-2.8415540">
        <ele>65.6</ele>
        <time>2022-11-01T12:12:13Z</time>
      </trkpt>
      <trkpt lat="36.7248990" lon="-2.8415020">
        <ele>65.6</ele>
        <time>2022-11-01T12:12:14Z</time>
      </trkpt>
      <trkpt lat="36.7248900" lon="-2.8414510">
        <ele>65.8</ele>
        <time>2022-11-01T12:12:15Z</time>
      </trkpt>
      <trkpt lat="36.7248740" lon="-2.8413850">
        <ele>65.8</ele>
        <time>2022-11-01T12:12:16Z</time>
      </trkpt>
      <trkpt lat="36.7248580" lon="-2.8413230">
        <ele>65.8</ele>
        <time>2022-11-01T12:12:17Z</time>
      </trkpt>
      <trkpt lat="36.7248470" lon="-2.8412610">
        <ele>65.8</ele>
        <time>2022-11-01T12:12:18Z</time>
      </trkpt>
      <trkpt lat="36.7248340" lon="-2.8411970">
        <ele>65.8</ele>
        <time>2022-11-01T12:12:19Z</time>
      </trkpt>
      <trkpt lat="36.7248220" lon="-2.8411360">
        <ele>65.8</ele>
        <time>2022-11-01T12:12:20Z</time>
      </trkpt>
      <trkpt lat="36.7248100" lon="-2.8410770">
        <ele>65.8</ele>
        <time>2022-11-01T12:12:21Z</time>
      </trkpt>
      <trkpt lat="36.7247930" lon="-2.8410140">
        <ele>65.8</ele>
        <time>2022-11-01T12:12:22Z</time>
      </trkpt>
      <trkpt lat="36.7247800" lon="-2.8409560">
        <ele>66.0</ele>
        <time>2022-11-01T12:12:23Z</time>
      </trkpt>
      <trkpt lat="36.7247720" lon="-2.8408960">
        <ele>66.0</ele>
        <time>2022-11-01T12:12:24Z</time>
      </trkpt>
      <trkpt lat="36.7247560" lon="-2.8408410">
        <ele>66.0</ele>
        <time>2022-11-01T12:12:25Z</time>
      </trkpt>
      <trkpt lat="36.7247430" lon="-2.8407830">
        <ele>66.2</ele>
        <time>2022-11-01T12:12:26Z</time>
      </trkpt>
      <trkpt lat="36.7247220" lon="-2.8407200">
        <ele>66.2</ele>
        <time>2022-11-01T12:12:27Z</time>
      </trkpt>
      <trkpt lat="36.7247050" lon="-2.8406580">
        <ele>66.4</ele>
        <time>2022-11-01T12:12:28Z</time>
      </trkpt>
      <trkpt lat="36.7246980" lon="-2.8405950">
        <ele>66.4</ele>
        <time>2022-11-01T12:12:29Z</time>
      </trkpt>
      <trkpt lat="36.7246850" lon="-2.8405340">
        <ele>66.6</ele>
        <time>2022-11-01T12:12:30Z</time>
      </trkpt>
      <trkpt lat="36.7246750" lon="-2.8404740">
        <ele>66.6</ele>
        <time>2022-11-01T12:12:31Z</time>
      </trkpt>
      <trkpt lat="36.7246630" lon="-2.8404150">
        <ele>66.6</ele>
        <time>2022-11-01T12:12:32Z</time>
      </trkpt>
      <trkpt lat="36.7246550" lon="-2.8403530">
        <ele>66.8</ele>
        <time>2022-11-01T12:12:33Z</time>
      </trkpt>
      <trkpt lat="36.7246460" lon="-2.8402920">
        <ele>67.0</ele>
        <time>2022-11-01T12:12:34Z</time>
      </trkpt>
      <trkpt lat="36.7246350" lon="-2.8402290">
        <ele>67.0</ele>
        <time>2022-11-01T12:12:35Z</time>
      </trkpt>
      <trkpt lat="36.7246250" lon="-2.8401650">
        <ele>67.0</ele>
        <time>2022-11-01T12:12:36Z</time>
      </trkpt>
      <trkpt lat="36.7246130" lon="-2.8401020">
        <ele>67.2</ele>
        <time>2022-11-01T12:12:37Z</time>
      </trkpt>
      <trkpt lat="36.7246010" lon="-2.8400390">
        <ele>67.2</ele>
        <time>2022-11-01T12:12:38Z</time>
      </trkpt>
      <trkpt lat="36.7245910" lon="-2.8399760">
        <ele>67.4</ele>
        <time>2022-11-01T12:12:39Z</time>
      </trkpt>
      <trkpt lat="36.7245800" lon="-2.8399120">
        <ele>67.4</ele>
        <time>2022-11-01T12:12:40Z</time>
      </trkpt>
      <trkpt lat="36.7245670" lon="-2.8398510">
        <ele>67.6</ele>
        <time>2022-11-01T12:12:41Z</time>
      </trkpt>
      <trkpt lat="36.7245510" lon="-2.8397910">
        <ele>67.8</ele>
        <time>2022-11-01T12:12:42Z</time>
      </trkpt>
      <trkpt lat="36.7245360" lon="-2.8397300">
        <ele>67.8</ele>
        <time>2022-11-01T12:12:43Z</time>
      </trkpt>
      <trkpt lat="36.7245260" lon="-2.8396710">
        <ele>68.0</ele>
        <time>2022-11-01T12:12:44Z</time>
      </trkpt>
      <trkpt lat="36.7245130" lon="-2.8396130">
        <ele>68.0</ele>
        <time>2022-11-01T12:12:45Z</time>
      </trkpt>
      <trkpt lat="36.7245010" lon="-2.8395550">
        <ele>68.2</ele>
        <time>2022-11-01T12:12:46Z</time>
      </trkpt>
      <trkpt lat="36.7244880" lon="-2.8394960">
        <ele>68.4</ele>
        <time>2022-11-01T12:12:47Z</time>
      </trkpt>
      <trkpt lat="36.7244750" lon="-2.8394320">
        <ele>68.6</ele>
        <time>2022-11-01T12:12:48Z</time>
      </trkpt>
      <trkpt lat="36.7244670" lon="-2.8393740">
        <ele>68.6</ele>
        <time>2022-11-01T12:12:49Z</time>
      </trkpt>
      <trkpt lat="36.7244580" lon="-2.8393130">
        <ele>68.8</ele>
        <time>2022-11-01T12:12:50Z</time>
      </trkpt>
      <trkpt lat="36.7244490" lon="-2.8392500">
        <ele>68.8</ele>
        <time>2022-11-01T12:12:51Z</time>
      </trkpt>
      <trkpt lat="36.7244370" lon="-2.8391890">
        <ele>69.0</ele>
        <time>2022-11-01T12:12:52Z</time>
      </trkpt>
      <trkpt lat="36.7244250" lon="-2.8391320">
        <ele>69.0</ele>
        <time>2022-11-01T12:12:53Z</time>
      </trkpt>
      <trkpt lat="36.7244150" lon="-2.8390710">
        <ele>69.2</ele>
        <time>2022-11-01T12:12:54Z</time>
      </trkpt>
      <trkpt lat="36.7244030" lon="-2.8390080">
        <ele>69.4</ele>
        <time>2022-11-01T12:12:55Z</time>
      </trkpt>
      <trkpt lat="36.7243920" lon="-2.8389480">
        <ele>69.6</ele>
        <time>2022-11-01T12:12:56Z</time>
      </trkpt>
      <trkpt lat="36.7243840" lon="-2.8388840">
        <ele>69.6</ele>
        <time>2022-11-01T12:12:57Z</time>
      </trkpt>
      <trkpt lat="36.7243760" lon="-2.8388170">
        <ele>69.6</ele>
        <time>2022-11-01T12:12:58Z</time>
      </trkpt>
      <trkpt lat="36.7243710" lon="-2.8387520">
        <ele>69.8</ele>
        <time>2022-11-01T12:12:59Z</time>
      </trkpt>
      <trkpt lat="36.7243700" lon="-2.8386950">
        <ele>70.0</ele>
        <time>2022-11-01T12:13:00Z</time>
      </trkpt>
      <trkpt lat="36.7243670" lon="-2.8386280">
        <ele>70.0</ele>
        <time>2022-11-01T12:13:01Z</time>
      </trkpt>
      <trkpt lat="36.7243640" lon="-2.8385570">
        <ele>70.0</ele>
        <time>2022-11-01T12:13:02Z</time>
      </trkpt>
      <trkpt lat="36.7243640" lon="-2.8384940">
        <ele>70.0</ele>
        <time>2022-11-01T12:13:03Z</time>
      </trkpt>
      <trkpt lat="36.7243640" lon="-2.8384240">
        <ele>70.2</ele>
        <time>2022-11-01T12:13:04Z</time>
      </trkpt>
      <trkpt lat="36.7243670" lon="-2.8383510">
        <ele>70.2</ele>
        <time>2022-11-01T12:13:05Z</time>
      </trkpt>
      <trkpt lat="36.7243710" lon="-2.8382780">
        <ele>70.2</ele>
        <time>2022-11-01T12:13:06Z</time>
      </trkpt>
      <trkpt lat="36.7243740" lon="-2.8381980">
        <ele>70.2</ele>
        <time>2022-11-01T12:13:07Z</time>
      </trkpt>
      <trkpt lat="36.7243780" lon="-2.8381160">
        <ele>70.2</ele>
        <time>2022-11-01T12:13:08Z</time>
      </trkpt>
      <trkpt lat="36.7243820" lon="-2.8380330">
        <ele>70.2</ele>
        <time>2022-11-01T12:13:09Z</time>
      </trkpt>
      <trkpt lat="36.7243850" lon="-2.8379520">
        <ele>70.2</ele>
        <time>2022-11-01T12:13:10Z</time>
      </trkpt>
      <trkpt lat="36.7243880" lon="-2.8378730">
        <ele>70.2</ele>
        <time>2022-11-01T12:13:11Z</time>
      </trkpt>
      <trkpt lat="36.7243900" lon="-2.8377950">
        <ele>70.4</ele>
        <time>2022-11-01T12:13:12Z</time>
      </trkpt>
      <trkpt lat="36.7243920" lon="-2.8377180">
        <ele>70.6</ele>
        <time>2022-11-01T12:13:13Z</time>
      </trkpt>
      <trkpt lat="36.7243950" lon="-2.8376450">
        <ele>70.6</ele>
        <time>2022-11-01T12:13:14Z</time>
      </trkpt>
      <trkpt lat="36.7243980" lon="-2.8375690">
        <ele>70.8</ele>
        <time>2022-11-01T12:13:15Z</time>
      </trkpt>
      <trkpt lat="36.7244010" lon="-2.8374970">
        <ele>71.0</ele>
        <time>2022-11-01T12:13:16Z</time>
      </trkpt>
      <trkpt lat="36.7244020" lon="-2.8374240">
        <ele>71.2</ele>
        <time>2022-11-01T12:13:17Z</time>
      </trkpt>
      <trkpt lat="36.7244050" lon="-2.8373550">
        <ele>71.4</ele>
        <time>2022-11-01T12:13:18Z</time>
      </trkpt>
      <trkpt lat="36.7244080" lon="-2.8372880">
        <ele>71.6</ele>
        <time>2022-11-01T12:13:19Z</time>
      </trkpt>
      <trkpt lat="36.7244090" lon="-2.8372220">
        <ele>71.8</ele>
        <time>2022-11-01T12:13:20Z</time>
      </trkpt>
      <trkpt lat="36.7244100" lon="-2.8371510">
        <ele>72.0</ele>
        <time>2022-11-01T12:13:21Z</time>
      </trkpt>
      <trkpt lat="36.7244150" lon="-2.8370790">
        <ele>72.0</ele>
        <time>2022-11-01T12:13:22Z</time>
      </trkpt>
      <trkpt lat="36.7244180" lon="-2.8370060">
        <ele>72.2</ele>
        <time>2022-11-01T12:13:23Z</time>
      </trkpt>
      <trkpt lat="36.7244200" lon="-2.8369340">
        <ele>72.4</ele>
        <time>2022-11-01T12:13:24Z</time>
      </trkpt>
      <trkpt lat="36.7244220" lon="-2.8368610">
        <ele>72.6</ele>
        <time>2022-11-01T12:13:25Z</time>
      </trkpt>
      <trkpt lat="36.7244250" lon="-2.8367880">
        <ele>72.8</ele>
        <time>2022-11-01T12:13:26Z</time>
      </trkpt>
      <trkpt lat="36.7244270" lon="-2.8367140">
        <ele>73.0</ele>
        <time>2022-11-01T12:13:27Z</time>
      </trkpt>
      <trkpt lat="36.7244270" lon="-2.8366400">
        <ele>73.2</ele>
        <time>2022-11-01T12:13:28Z</time>
      </trkpt>
      <trkpt lat="36.7244290" lon="-2.8365660">
        <ele>73.4</ele>
        <time>2022-11-01T12:13:29Z</time>
      </trkpt>
      <trkpt lat="36.7244340" lon="-2.8364970">
        <ele>73.6</ele>
        <time>2022-11-01T12:13:30Z</time>
      </trkpt>
      <trkpt lat="36.7244390" lon="-2.8364290">
        <ele>73.6</ele>
        <time>2022-11-01T12:13:31Z</time>
      </trkpt>
      <trkpt lat="36.7244400" lon="-2.8363580">
        <ele>73.8</ele>
        <time>2022-11-01T12:13:32Z</time>
      </trkpt>
      <trkpt lat="36.7244420" lon="-2.8362860">
        <ele>74.0</ele>
        <time>2022-11-01T12:13:33Z</time>
      </trkpt>
      <trkpt lat="36.7244450" lon="-2.8362150">
        <ele>74.2</ele>
        <time>2022-11-01T12:13:34Z</time>
      </trkpt>
      <trkpt lat="36.7244470" lon="-2.8361430">
        <ele>74.2</ele>
        <time>2022-11-01T12:13:35Z</time>
      </trkpt>
      <trkpt lat="36.7244490" lon="-2.8360700">
        <ele>74.4</ele>
        <time>2022-11-01T12:13:36Z</time>
      </trkpt>
      <trkpt lat="36.7244510" lon="-2.8359960">
        <ele>74.4</ele>
        <time>2022-11-01T12:13:37Z</time>
      </trkpt>
      <trkpt lat="36.7244530" lon="-2.8359200">
        <ele>74.6</ele>
        <time>2022-11-01T12:13:38Z</time>
      </trkpt>
      <trkpt lat="36.7244570" lon="-2.8358450">
        <ele>74.6</ele>
        <time>2022-11-01T12:13:39Z</time>
      </trkpt>
      <trkpt lat="36.7244610" lon="-2.8357700">
        <ele>74.8</ele>
        <time>2022-11-01T12:13:40Z</time>
      </trkpt>
      <trkpt lat="36.7244640" lon="-2.8356950">
        <ele>74.8</ele>
        <time>2022-11-01T12:13:41Z</time>
      </trkpt>
      <trkpt lat="36.7244640" lon="-2.8356250">
        <ele>75.0</ele>
        <time>2022-11-01T12:13:42Z</time>
      </trkpt>
      <trkpt lat="36.7244640" lon="-2.8355520">
        <ele>75.0</ele>
        <time>2022-11-01T12:13:43Z</time>
      </trkpt>
      <trkpt lat="36.7244650" lon="-2.8354780">
        <ele>75.2</ele>
        <time>2022-11-01T12:13:44Z</time>
      </trkpt>
      <trkpt lat="36.7244660" lon="-2.8354060">
        <ele>75.4</ele>
        <time>2022-11-01T12:13:45Z</time>
      </trkpt>
      <trkpt lat="36.7244680" lon="-2.8353350">
        <ele>75.6</ele>
        <time>2022-11-01T12:13:46Z</time>
      </trkpt>
      <trkpt lat="36.7244690" lon="-2.8352650">
        <ele>76.0</ele>
        <time>2022-11-01T12:13:47Z</time>
      </trkpt>
      <trkpt lat="36.7244710" lon="-2.8351930">
        <ele>76.2</ele>
        <time>2022-11-01T12:13:48Z</time>
      </trkpt>
      <trkpt lat="36.7244730" lon="-2.8351200">
        <ele>76.4</ele>
        <time>2022-11-01T12:13:49Z</time>
      </trkpt>
      <trkpt lat="36.7244770" lon="-2.8350470">
        <ele>76.4</ele>
        <time>2022-11-01T12:13:50Z</time>
      </trkpt>
      <trkpt lat="36.7244790" lon="-2.8349750">
        <ele>76.6</ele>
        <time>2022-11-01T12:13:51Z</time>
      </trkpt>
      <trkpt lat="36.7244810" lon="-2.8349020">
        <ele>76.8</ele>
        <time>2022-11-01T12:13:52Z</time>
      </trkpt>
      <trkpt lat="36.7244810" lon="-2.8348290">
        <ele>77.0</ele>
        <time>2022-11-01T12:13:53Z</time>
      </trkpt>
      <trkpt lat="36.7244820" lon="-2.8347540">
        <ele>77.0</ele>
        <time>2022-11-01T12:13:54Z</time>
      </trkpt>
      <trkpt lat="36.7244850" lon="-2.8346780">
        <ele>77.2</ele>
        <time>2022-11-01T12:13:55Z</time>
      </trkpt>
      <trkpt lat="36.7244890" lon="-2.8346020">
        <ele>77.2</ele>
        <time>2022-11-01T12:13:56Z</time>
      </trkpt>
      <trkpt lat="36.7244930" lon="-2.8345270">
        <ele>77.2</ele>
        <time>2022-11-01T12:13:57Z</time>
      </trkpt>
      <trkpt lat="36.7244950" lon="-2.8344510">
        <ele>77.4</ele>
        <time>2022-11-01T12:13:58Z</time>
      </trkpt>
      <trkpt lat="36.7244950" lon="-2.8343750">
        <ele>77.4</ele>
        <time>2022-11-01T12:13:59Z</time>
      </trkpt>
      <trkpt lat="36.7244960" lon="-2.8343000">
        <ele>77.4</ele>
        <time>2022-11-01T12:14:00Z</time>
      </trkpt>
      <trkpt lat="36.7244970" lon="-2.8342240">
        <ele>77.4</ele>
        <time>2022-11-01T12:14:01Z</time>
      </trkpt>
      <trkpt lat="36.7244980" lon="-2.8341460">
        <ele>77.4</ele>
        <time>2022-11-01T12:14:02Z</time>
      </trkpt>
      <trkpt lat="36.7244980" lon="-2.8340690">
        <ele>77.4</ele>
        <time>2022-11-01T12:14:03Z</time>
      </trkpt>
      <trkpt lat="36.7244970" lon="-2.8339920">
        <ele>77.4</ele>
        <time>2022-11-01T12:14:04Z</time>
      </trkpt>
      <trkpt lat="36.7244960" lon="-2.8339150">
        <ele>77.4</ele>
        <time>2022-11-01T12:14:05Z</time>
      </trkpt>
      <trkpt lat="36.7244950" lon="-2.8338380">
        <ele>77.4</ele>
        <time>2022-11-01T12:14:06Z</time>
      </trkpt>
      <trkpt lat="36.7244920" lon="-2.8337620">
        <ele>77.6</ele>
        <time>2022-11-01T12:14:07Z</time>
      </trkpt>
      <trkpt lat="36.7244880" lon="-2.8336860">
        <ele>77.6</ele>
        <time>2022-11-01T12:14:08Z</time>
      </trkpt>
      <trkpt lat="36.7244840" lon="-2.8336080">
        <ele>77.6</ele>
        <time>2022-11-01T12:14:09Z</time>
      </trkpt>
      <trkpt lat="36.7244800" lon="-2.8335290">
        <ele>77.6</ele>
        <time>2022-11-01T12:14:10Z</time>
      </trkpt>
      <trkpt lat="36.7244760" lon="-2.8334520">
        <ele>77.6</ele>
        <time>2022-11-01T12:14:11Z</time>
      </trkpt>
      <trkpt lat="36.7244710" lon="-2.8333750">
        <ele>77.6</ele>
        <time>2022-11-01T12:14:12Z</time>
      </trkpt>
      <trkpt lat="36.7244650" lon="-2.8332950">
        <ele>77.6</ele>
        <time>2022-11-01T12:14:13Z</time>
      </trkpt>
      <trkpt lat="36.7244610" lon="-2.8332150">
        <ele>77.6</ele>
        <time>2022-11-01T12:14:14Z</time>
      </trkpt>
      <trkpt lat="36.7244570" lon="-2.8331360">
        <ele>77.6</ele>
        <time>2022-11-01T12:14:15Z</time>
      </trkpt>
      <trkpt lat="36.7244530" lon="-2.8330570">
        <ele>77.8</ele>
        <time>2022-11-01T12:14:16Z</time>
      </trkpt>
      <trkpt lat="36.7244480" lon="-2.8329790">
        <ele>77.8</ele>
        <time>2022-11-01T12:14:17Z</time>
      </trkpt>
      <trkpt lat="36.7244410" lon="-2.8329000">
        <ele>77.8</ele>
        <time>2022-11-01T12:14:18Z</time>
      </trkpt>
      <trkpt lat="36.7244350" lon="-2.8328210">
        <ele>78.0</ele>
        <time>2022-11-01T12:14:19Z</time>
      </trkpt>
      <trkpt lat="36.7244310" lon="-2.8327410">
        <ele>78.0</ele>
        <time>2022-11-01T12:14:20Z</time>
      </trkpt>
      <trkpt lat="36.7244250" lon="-2.8326610">
        <ele>78.0</ele>
        <time>2022-11-01T12:14:21Z</time>
      </trkpt>
      <trkpt lat="36.7244200" lon="-2.8325800">
        <ele>78.0</ele>
        <time>2022-11-01T12:14:22Z</time>
      </trkpt>
      <trkpt lat="36.7244160" lon="-2.8324980">
        <ele>78.0</ele>
        <time>2022-11-01T12:14:23Z</time>
      </trkpt>
      <trkpt lat="36.7244110" lon="-2.8324160">
        <ele>78.0</ele>
        <time>2022-11-01T12:14:24Z</time>
      </trkpt>
      <trkpt lat="36.7244050" lon="-2.8323330">
        <ele>78.0</ele>
        <time>2022-11-01T12:14:25Z</time>
      </trkpt>
      <trkpt lat="36.7244000" lon="-2.8322510">
        <ele>78.0</ele>
        <time>2022-11-01T12:14:26Z</time>
      </trkpt>
      <trkpt lat="36.7243940" lon="-2.8321700">
        <ele>78.0</ele>
        <time>2022-11-01T12:14:27Z</time>
      </trkpt>
      <trkpt lat="36.7243870" lon="-2.8320870">
        <ele>78.0</ele>
        <time>2022-11-01T12:14:28Z</time>
      </trkpt>
      <trkpt lat="36.7243820" lon="-2.8320040">
        <ele>78.2</ele>
        <time>2022-11-01T12:14:29Z</time>
      </trkpt>
      <trkpt lat="36.7243760" lon="-2.8319210">
        <ele>78.2</ele>
        <time>2022-11-01T12:14:30Z</time>
      </trkpt>
      <trkpt lat="36.7243690" lon="-2.8318350">
        <ele>78.4</ele>
        <time>2022-11-01T12:14:31Z</time>
      </trkpt>
      <trkpt lat="36.7243640" lon="-2.8317520">
        <ele>78.4</ele>
        <time>2022-11-01T12:14:32Z</time>
      </trkpt>
      <trkpt lat="36.7243590" lon="-2.8316690">
        <ele>78.6</ele>
        <time>2022-11-01T12:14:33Z</time>
      </trkpt>
      <trkpt lat="36.7243530" lon="-2.8315870">
        <ele>78.8</ele>
        <time>2022-11-01T12:14:34Z</time>
      </trkpt>
      <trkpt lat="36.7243490" lon="-2.8315060">
        <ele>78.8</ele>
        <time>2022-11-01T12:14:35Z</time>
      </trkpt>
      <trkpt lat="36.7243440" lon="-2.8314240">
        <ele>79.0</ele>
        <time>2022-11-01T12:14:36Z</time>
      </trkpt>
      <trkpt lat="36.7243390" lon="-2.8313440">
        <ele>79.2</ele>
        <time>2022-11-01T12:14:37Z</time>
      </trkpt>
      <trkpt lat="36.7243310" lon="-2.8312660">
        <ele>79.4</ele>
        <time>2022-11-01T12:14:38Z</time>
      </trkpt>
      <trkpt lat="36.7243250" lon="-2.8311880">
        <ele>79.6</ele>
        <time>2022-11-01T12:14:39Z</time>
      </trkpt>
      <trkpt lat="36.7243200" lon="-2.8311090">
        <ele>79.8</ele>
        <time>2022-11-01T12:14:40Z</time>
      </trkpt>
      <trkpt lat="36.7243140" lon="-2.8310270">
        <ele>79.8</ele>
        <time>2022-11-01T12:14:41Z</time>
      </trkpt>
      <trkpt lat="36.7243090" lon="-2.8309440">
        <ele>79.8</ele>
        <time>2022-11-01T12:14:42Z</time>
      </trkpt>
      <trkpt lat="36.7243040" lon="-2.8308590">
        <ele>80.0</ele>
        <time>2022-11-01T12:14:43Z</time>
      </trkpt>
      <trkpt lat="36.7242970" lon="-2.8307750">
        <ele>80.2</ele>
        <time>2022-11-01T12:14:44Z</time>
      </trkpt>
      <trkpt lat="36.7242910" lon="-2.8306890">
        <ele>80.4</ele>
        <time>2022-11-01T12:14:45Z</time>
      </trkpt>
      <trkpt lat="36.7242850" lon="-2.8306050">
        <ele>80.4</ele>
        <time>2022-11-01T12:14:46Z</time>
      </trkpt>
      <trkpt lat="36.7242800" lon="-2.8305230">
        <ele>80.6</ele>
        <time>2022-11-01T12:14:47Z</time>
      </trkpt>
      <trkpt lat="36.7242760" lon="-2.8304470">
        <ele>80.6</ele>
        <time>2022-11-01T12:14:48Z</time>
      </trkpt>
      <trkpt lat="36.7242700" lon="-2.8303690">
        <ele>80.8</ele>
        <time>2022-11-01T12:14:49Z</time>
      </trkpt>
      <trkpt lat="36.7242650" lon="-2.8302910">
        <ele>80.8</ele>
        <time>2022-11-01T12:14:50Z</time>
      </trkpt>
      <trkpt lat="36.7242580" lon="-2.8302140">
        <ele>81.0</ele>
        <time>2022-11-01T12:14:51Z</time>
      </trkpt>
      <trkpt lat="36.7242510" lon="-2.8301340">
        <ele>81.2</ele>
        <time>2022-11-01T12:14:52Z</time>
      </trkpt>
      <trkpt lat="36.7242470" lon="-2.8300550">
        <ele>81.4</ele>
        <time>2022-11-01T12:14:53Z</time>
      </trkpt>
      <trkpt lat="36.7242410" lon="-2.8299770">
        <ele>81.4</ele>
        <time>2022-11-01T12:14:54Z</time>
      </trkpt>
      <trkpt lat="36.7242350" lon="-2.8298960">
        <ele>81.6</ele>
        <time>2022-11-01T12:14:55Z</time>
      </trkpt>
      <trkpt lat="36.7242280" lon="-2.8298160">
        <ele>81.8</ele>
        <time>2022-11-01T12:14:56Z</time>
      </trkpt>
      <trkpt lat="36.7242230" lon="-2.8297360">
        <ele>81.8</ele>
        <time>2022-11-01T12:14:57Z</time>
      </trkpt>
      <trkpt lat="36.7242180" lon="-2.8296560">
        <ele>82.0</ele>
        <time>2022-11-01T12:14:58Z</time>
      </trkpt>
      <trkpt lat="36.7242130" lon="-2.8295770">
        <ele>82.2</ele>
        <time>2022-11-01T12:14:59Z</time>
      </trkpt>
      <trkpt lat="36.7242060" lon="-2.8294970">
        <ele>82.4</ele>
        <time>2022-11-01T12:15:00Z</time>
      </trkpt>
      <trkpt lat="36.7242010" lon="-2.8294190">
        <ele>82.4</ele>
        <time>2022-11-01T12:15:01Z</time>
      </trkpt>
      <trkpt lat="36.7241950" lon="-2.8293410">
        <ele>82.6</ele>
        <time>2022-11-01T12:15:02Z</time>
      </trkpt>
      <trkpt lat="36.7241910" lon="-2.8292640">
        <ele>82.8</ele>
        <time>2022-11-01T12:15:03Z</time>
      </trkpt>
      <trkpt lat="36.7241870" lon="-2.8291860">
        <ele>82.8</ele>
        <time>2022-11-01T12:15:04Z</time>
      </trkpt>
      <trkpt lat="36.7241830" lon="-2.8291080">
        <ele>83.0</ele>
        <time>2022-11-01T12:15:05Z</time>
      </trkpt>
      <trkpt lat="36.7241810" lon="-2.8290290">
        <ele>83.0</ele>
        <time>2022-11-01T12:15:06Z</time>
      </trkpt>
      <trkpt lat="36.7241790" lon="-2.8289500">
        <ele>83.2</ele>
        <time>2022-11-01T12:15:07Z</time>
      </trkpt>
      <trkpt lat="36.7241780" lon="-2.8288690">
        <ele>83.2</ele>
        <time>2022-11-01T12:15:08Z</time>
      </trkpt>
      <trkpt lat="36.7241780" lon="-2.8287870">
        <ele>83.2</ele>
        <time>2022-11-01T12:15:09Z</time>
      </trkpt>
      <trkpt lat="36.7241780" lon="-2.8287050">
        <ele>83.4</ele>
        <time>2022-11-01T12:15:10Z</time>
      </trkpt>
      <trkpt lat="36.7241790" lon="-2.8286220">
        <ele>83.4</ele>
        <time>2022-11-01T12:15:11Z</time>
      </trkpt>
      <trkpt lat="36.7241820" lon="-2.8285370">
        <ele>83.4</ele>
        <time>2022-11-01T12:15:12Z</time>
      </trkpt>
      <trkpt lat="36.7241860" lon="-2.8284530">
        <ele>83.4</ele>
        <time>2022-11-01T12:15:13Z</time>
      </trkpt>
      <trkpt lat="36.7241890" lon="-2.8283680">
        <ele>83.4</ele>
        <time>2022-11-01T12:15:14Z</time>
      </trkpt>
      <trkpt lat="36.7241930" lon="-2.8282830">
        <ele>83.4</ele>
        <time>2022-11-01T12:15:15Z</time>
      </trkpt>
      <trkpt lat="36.7241970" lon="-2.8281990">
        <ele>83.4</ele>
        <time>2022-11-01T12:15:16Z</time>
      </trkpt>
      <trkpt lat="36.7242000" lon="-2.8281150">
        <ele>83.4</ele>
        <time>2022-11-01T12:15:17Z</time>
      </trkpt>
      <trkpt lat="36.7242030" lon="-2.8280310">
        <ele>83.4</ele>
        <time>2022-11-01T12:15:18Z</time>
      </trkpt>
      <trkpt lat="36.7242070" lon="-2.8279500">
        <ele>83.4</ele>
        <time>2022-11-01T12:15:19Z</time>
      </trkpt>
      <trkpt lat="36.7242120" lon="-2.8278690">
        <ele>83.6</ele>
        <time>2022-11-01T12:15:20Z</time>
      </trkpt>
      <trkpt lat="36.7242180" lon="-2.8277870">
        <ele>83.8</ele>
        <time>2022-11-01T12:15:21Z</time>
      </trkpt>
      <trkpt lat="36.7242220" lon="-2.8277060">
        <ele>83.8</ele>
        <time>2022-11-01T12:15:22Z</time>
      </trkpt>
      <trkpt lat="36.7242260" lon="-2.8276260">
        <ele>83.8</ele>
        <time>2022-11-01T12:15:23Z</time>
      </trkpt>
      <trkpt lat="36.7242300" lon="-2.8275460">
        <ele>83.8</ele>
        <time>2022-11-01T12:15:24Z</time>
      </trkpt>
      <trkpt lat="36.7242340" lon="-2.8274650">
        <ele>83.8</ele>
        <time>2022-11-01T12:15:25Z</time>
      </trkpt>
      <trkpt lat="36.7242380" lon="-2.8273840">
        <ele>84.0</ele>
        <time>2022-11-01T12:15:26Z</time>
      </trkpt>
      <trkpt lat="36.7242430" lon="-2.8273000">
        <ele>84.0</ele>
        <time>2022-11-01T12:15:27Z</time>
      </trkpt>
      <trkpt lat="36.7242470" lon="-2.8272160">
        <ele>84.0</ele>
        <time>2022-11-01T12:15:28Z</time>
      </trkpt>
      <trkpt lat="36.7242510" lon="-2.8271320">
        <ele>84.0</ele>
        <time>2022-11-01T12:15:29Z</time>
      </trkpt>
      <trkpt lat="36.7242540" lon="-2.8270480">
        <ele>84.2</ele>
        <time>2022-11-01T12:15:30Z</time>
      </trkpt>
      <trkpt lat="36.7242570" lon="-2.8269650">
        <ele>84.2</ele>
        <time>2022-11-01T12:15:31Z</time>
      </trkpt>
      <trkpt lat="36.7242610" lon="-2.8268810">
        <ele>84.2</ele>
        <time>2022-11-01T12:15:32Z</time>
      </trkpt>
      <trkpt lat="36.7242650" lon="-2.8267960">
        <ele>84.2</ele>
        <time>2022-11-01T12:15:33Z</time>
      </trkpt>
      <trkpt lat="36.7242720" lon="-2.8267080">
        <ele>84.2</ele>
        <time>2022-11-01T12:15:34Z</time>
      </trkpt>
      <trkpt lat="36.7242770" lon="-2.8266190">
        <ele>84.2</ele>
        <time>2022-11-01T12:15:35Z</time>
      </trkpt>
      <trkpt lat="36.7242810" lon="-2.8265300">
        <ele>84.0</ele>
        <time>2022-11-01T12:15:36Z</time>
      </trkpt>
      <trkpt lat="36.7242840" lon="-2.8264400">
        <ele>84.0</ele>
        <time>2022-11-01T12:15:37Z</time>
      </trkpt>
      <trkpt lat="36.7242890" lon="-2.8263500">
        <ele>83.8</ele>
        <time>2022-11-01T12:15:38Z</time>
      </trkpt>
      <trkpt lat="36.7242920" lon="-2.8262580">
        <ele>83.6</ele>
        <time>2022-11-01T12:15:39Z</time>
      </trkpt>
      <trkpt lat="36.7242950" lon="-2.8261650">
        <ele>83.6</ele>
        <time>2022-11-01T12:15:40Z</time>
      </trkpt>
      <trkpt lat="36.7243000" lon="-2.8260720">
        <ele>83.4</ele>
        <time>2022-11-01T12:15:41Z</time>
      </trkpt>
      <trkpt lat="36.7243050" lon="-2.8259790">
        <ele>83.4</ele>
        <time>2022-11-01T12:15:42Z</time>
      </trkpt>
      <trkpt lat="36.7243100" lon="-2.8258860">
        <ele>83.0</ele>
        <time>2022-11-01T12:15:43Z</time>
      </trkpt>
      <trkpt lat="36.7243130" lon="-2.8257920">
        <ele>82.8</ele>
        <time>2022-11-01T12:15:44Z</time>
      </trkpt>
      <trkpt lat="36.7243170" lon="-2.8256980">
        <ele>82.8</ele>
        <time>2022-11-01T12:15:45Z</time>
      </trkpt>
      <trkpt lat="36.7243210" lon="-2.8256040">
        <ele>82.6</ele>
        <time>2022-11-01T12:15:46Z</time>
      </trkpt>
      <trkpt lat="36.7243260" lon="-2.8255100">
        <ele>82.4</ele>
        <time>2022-11-01T12:15:47Z</time>
      </trkpt>
      <trkpt lat="36.7243300" lon="-2.8254150">
        <ele>82.2</ele>
        <time>2022-11-01T12:15:48Z</time>
      </trkpt>
      <trkpt lat="36.7243350" lon="-2.8253190">
        <ele>82.0</ele>
        <time>2022-11-01T12:15:49Z</time>
      </trkpt>
      <trkpt lat="36.7243410" lon="-2.8252200">
        <ele>81.8</ele>
        <time>2022-11-01T12:15:50Z</time>
      </trkpt>
      <trkpt lat="36.7243450" lon="-2.8251180">
        <ele>81.6</ele>
        <time>2022-11-01T12:15:51Z</time>
      </trkpt>
      <trkpt lat="36.7243500" lon="-2.8250140">
        <ele>81.4</ele>
        <time>2022-11-01T12:15:52Z</time>
      </trkpt>
      <trkpt lat="36.7243570" lon="-2.8249080">
        <ele>81.2</ele>
        <time>2022-11-01T12:15:53Z</time>
      </trkpt>
      <trkpt lat="36.7243640" lon="-2.8248010">
        <ele>80.8</ele>
        <time>2022-11-01T12:15:54Z</time>
      </trkpt>
      <trkpt lat="36.7243710" lon="-2.8246930">
        <ele>80.6</ele>
        <time>2022-11-01T12:15:55Z</time>
      </trkpt>
      <trkpt lat="36.7243780" lon="-2.8245840">
        <ele>80.4</ele>
        <time>2022-11-01T12:15:56Z</time>
      </trkpt>
      <trkpt lat="36.7243840" lon="-2.8244750">
        <ele>80.2</ele>
        <time>2022-11-01T12:15:57Z</time>
      </trkpt>
      <trkpt lat="36.7243900" lon="-2.8243660">
        <ele>79.8</ele>
        <time>2022-11-01T12:15:58Z</time>
      </trkpt>
      <trkpt lat="36.7243950" lon="-2.8242570">
        <ele>79.6</ele>
        <time>2022-11-01T12:15:59Z</time>
      </trkpt>
      <trkpt lat="36.7244020" lon="-2.8241480">
        <ele>79.4</ele>
        <time>2022-11-01T12:16:00Z</time>
      </trkpt>
      <trkpt lat="36.7244100" lon="-2.8240390">
        <ele>79.2</ele>
        <time>2022-11-01T12:16:01Z</time>
      </trkpt>
      <trkpt lat="36.7244180" lon="-2.8239300">
        <ele>79.0</ele>
        <time>2022-11-01T12:16:02Z</time>
      </trkpt>
      <trkpt lat="36.7244250" lon="-2.8238210">
        <ele>78.8</ele>
        <time>2022-11-01T12:16:03Z</time>
      </trkpt>
      <trkpt lat="36.7244320" lon="-2.8237110">
        <ele>78.4</ele>
        <time>2022-11-01T12:16:04Z</time>
      </trkpt>
      <trkpt lat="36.7244380" lon="-2.8236000">
        <ele>78.2</ele>
        <time>2022-11-01T12:16:05Z</time>
      </trkpt>
      <trkpt lat="36.7244430" lon="-2.8234870">
        <ele>77.8</ele>
        <time>2022-11-01T12:16:06Z</time>
      </trkpt>
      <trkpt lat="36.7244490" lon="-2.8233740">
        <ele>77.6</ele>
        <time>2022-11-01T12:16:07Z</time>
      </trkpt>
      <trkpt lat="36.7244550" lon="-2.8232610">
        <ele>77.2</ele>
        <time>2022-11-01T12:16:08Z</time>
      </trkpt>
      <trkpt lat="36.7244610" lon="-2.8231480">
        <ele>77.0</ele>
        <time>2022-11-01T12:16:09Z</time>
      </trkpt>
      <trkpt lat="36.7244660" lon="-2.8230350">
        <ele>77.0</ele>
        <time>2022-11-01T12:16:10Z</time>
      </trkpt>
      <trkpt lat="36.7244720" lon="-2.8229220">
        <ele>76.8</ele>
        <time>2022-11-01T12:16:11Z</time>
      </trkpt>
      <trkpt lat="36.7244760" lon="-2.8228090">
        <ele>76.8</ele>
        <time>2022-11-01T12:16:12Z</time>
      </trkpt>
      <trkpt lat="36.7244820" lon="-2.8226960">
        <ele>76.8</ele>
        <time>2022-11-01T12:16:13Z</time>
      </trkpt>
      <trkpt lat="36.7244880" lon="-2.8225830">
        <ele>76.8</ele>
        <time>2022-11-01T12:16:14Z</time>
      </trkpt>
      <trkpt lat="36.7244920" lon="-2.8224740">
        <ele>76.8</ele>
        <time>2022-11-01T12:16:15Z</time>
      </trkpt>
      <trkpt lat="36.7244980" lon="-2.8223650">
        <ele>76.8</ele>
        <time>2022-11-01T12:16:16Z</time>
      </trkpt>
      <trkpt lat="36.7245020" lon="-2.8222570">
        <ele>77.0</ele>
        <time>2022-11-01T12:16:17Z</time>
      </trkpt>
      <trkpt lat="36.7245060" lon="-2.8221490">
        <ele>77.0</ele>
        <time>2022-11-01T12:16:18Z</time>
      </trkpt>
      <trkpt lat="36.7245110" lon="-2.8220420">
        <ele>77.0</ele>
        <time>2022-11-01T12:16:19Z</time>
      </trkpt>
      <trkpt lat="36.7245130" lon="-2.8219370">
        <ele>77.0</ele>
        <time>2022-11-01T12:16:20Z</time>
      </trkpt>
      <trkpt lat="36.7245110" lon="-2.8218340">
        <ele>77.0</ele>
        <time>2022-11-01T12:16:21Z</time>
      </trkpt>
      <trkpt lat="36.7245080" lon="-2.8217310">
        <ele>77.0</ele>
        <time>2022-11-01T12:16:22Z</time>
      </trkpt>
      <trkpt lat="36.7245010" lon="-2.8216290">
        <ele>77.0</ele>
        <time>2022-11-01T12:16:23Z</time>
      </trkpt>
      <trkpt lat="36.7244920" lon="-2.8215300">
        <ele>77.2</ele>
        <time>2022-11-01T12:16:24Z</time>
      </trkpt>
      <trkpt lat="36.7244780" lon="-2.8214320">
        <ele>77.2</ele>
        <time>2022-11-01T12:16:25Z</time>
      </trkpt>
      <trkpt lat="36.7244600" lon="-2.8213380">
        <ele>77.2</ele>
        <time>2022-11-01T12:16:26Z</time>
      </trkpt>
      <trkpt lat="36.7244380" lon="-2.8212460">
        <ele>77.4</ele>
        <time>2022-11-01T12:16:27Z</time>
      </trkpt>
      <trkpt lat="36.7244120" lon="-2.8211560">
        <ele>77.4</ele>
        <time>2022-11-01T12:16:28Z</time>
      </trkpt>
      <trkpt lat="36.7243880" lon="-2.8210680">
        <ele>77.6</ele>
        <time>2022-11-01T12:16:29Z</time>
      </trkpt>
      <trkpt lat="36.7243660" lon="-2.8209840">
        <ele>77.8</ele>
        <time>2022-11-01T12:16:30Z</time>
      </trkpt>
      <trkpt lat="36.7243450" lon="-2.8209010">
        <ele>78.0</ele>
        <time>2022-11-01T12:16:31Z</time>
      </trkpt>
      <trkpt lat="36.7243260" lon="-2.8208170">
        <ele>78.0</ele>
        <time>2022-11-01T12:16:32Z</time>
      </trkpt>
      <trkpt lat="36.7243080" lon="-2.8207300">
        <ele>78.2</ele>
        <time>2022-11-01T12:16:33Z</time>
      </trkpt>
      <trkpt lat="36.7242870" lon="-2.8206430">
        <ele>78.4</ele>
        <time>2022-11-01T12:16:34Z</time>
      </trkpt>
      <trkpt lat="36.7242630" lon="-2.8205540">
        <ele>78.4</ele>
        <time>2022-11-01T12:16:35Z</time>
      </trkpt>
      <trkpt lat="36.7242400" lon="-2.8204650">
        <ele>78.8</ele>
        <time>2022-11-01T12:16:36Z</time>
      </trkpt>
      <trkpt lat="36.7242170" lon="-2.8203760">
        <ele>78.8</ele>
        <time>2022-11-01T12:16:37Z</time>
      </trkpt>
      <trkpt lat="36.7241940" lon="-2.8202880">
        <ele>79.0</ele>
        <time>2022-11-01T12:16:38Z</time>
      </trkpt>
      <trkpt lat="36.7241700" lon="-2.8202000">
        <ele>79.2</ele>
        <time>2022-11-01T12:16:39Z</time>
      </trkpt>
      <trkpt lat="36.7241470" lon="-2.8201120">
        <ele>79.2</ele>
        <time>2022-11-01T12:16:40Z</time>
      </trkpt>
      <trkpt lat="36.7241230" lon="-2.8200260">
        <ele>79.4</ele>
        <time>2022-11-01T12:16:41Z</time>
      </trkpt>
      <trkpt lat="36.7241000" lon="-2.8199400">
        <ele>79.4</ele>
        <time>2022-11-01T12:16:42Z</time>
      </trkpt>
      <trkpt lat="36.7240770" lon="-2.8198540">
        <ele>79.6</ele>
        <time>2022-11-01T12:16:43Z</time>
      </trkpt>
      <trkpt lat="36.7240550" lon="-2.8197700">
        <ele>79.8</ele>
        <time>2022-11-01T12:16:44Z</time>
      </trkpt>
      <trkpt lat="36.7240330" lon="-2.8196860">
        <ele>79.8</ele>
        <time>2022-11-01T12:16:45Z</time>
      </trkpt>
      <trkpt lat="36.7240110" lon="-2.8196020">
        <ele>80.2</ele>
        <time>2022-11-01T12:16:46Z</time>
      </trkpt>
      <trkpt lat="36.7239890" lon="-2.8195180">
        <ele>80.4</ele>
        <time>2022-11-01T12:16:47Z</time>
      </trkpt>
      <trkpt lat="36.7239670" lon="-2.8194340">
        <ele>80.8</ele>
        <time>2022-11-01T12:16:48Z</time>
      </trkpt>
      <trkpt lat="36.7239450" lon="-2.8193510">
        <ele>81.0</ele>
        <time>2022-11-01T12:16:49Z</time>
      </trkpt>
      <trkpt lat="36.7239230" lon="-2.8192700">
        <ele>81.4</ele>
        <time>2022-11-01T12:16:50Z</time>
      </trkpt>
      <trkpt lat="36.7239030" lon="-2.8191900">
        <ele>81.6</ele>
        <time>2022-11-01T12:16:51Z</time>
      </trkpt>
      <trkpt lat="36.7238830" lon="-2.8191110">
        <ele>81.8</ele>
        <time>2022-11-01T12:16:52Z</time>
      </trkpt>
      <trkpt lat="36.7238640" lon="-2.8190330">
        <ele>82.2</ele>
        <time>2022-11-01T12:16:53Z</time>
      </trkpt>
      <trkpt lat="36.7238440" lon="-2.8189540">
        <ele>82.4</ele>
        <time>2022-11-01T12:16:54Z</time>
      </trkpt>
      <trkpt lat="36.7238220" lon="-2.8188760">
        <ele>82.4</ele>
        <time>2022-11-01T12:16:55Z</time>
      </trkpt>
      <trkpt lat="36.7238000" lon="-2.8187960">
        <ele>82.4</ele>
        <time>2022-11-01T12:16:56Z</time>
      </trkpt>
      <trkpt lat="36.7237780" lon="-2.8187150">
        <ele>82.4</ele>
        <time>2022-11-01T12:16:57Z</time>
      </trkpt>
      <trkpt lat="36.7237570" lon="-2.8186340">
        <ele>82.6</ele>
        <time>2022-11-01T12:16:58Z</time>
      </trkpt>
      <trkpt lat="36.7237370" lon="-2.8185520">
        <ele>82.6</ele>
        <time>2022-11-01T12:16:59Z</time>
      </trkpt>
      <trkpt lat="36.7237180" lon="-2.8184690">
        <ele>82.8</ele>
        <time>2022-11-01T12:17:00Z</time>
      </trkpt>
      <trkpt lat="36.7236970" lon="-2.8183860">
        <ele>83.0</ele>
        <time>2022-11-01T12:17:01Z</time>
      </trkpt>
      <trkpt lat="36.7236770" lon="-2.8183030">
        <ele>83.0</ele>
        <time>2022-11-01T12:17:02Z</time>
      </trkpt>
      <trkpt lat="36.7236560" lon="-2.8182210">
        <ele>83.2</ele>
        <time>2022-11-01T12:17:03Z</time>
      </trkpt>
      <trkpt lat="36.7236350" lon="-2.8181390">
        <ele>83.2</ele>
        <time>2022-11-01T12:17:04Z</time>
      </trkpt>
      <trkpt lat="36.7236150" lon="-2.8180580">
        <ele>83.2</ele>
        <time>2022-11-01T12:17:05Z</time>
      </trkpt>
      <trkpt lat="36.7235950" lon="-2.8179780">
        <ele>83.4</ele>
        <time>2022-11-01T12:17:06Z</time>
      </trkpt>
      <trkpt lat="36.7235750" lon="-2.8178980">
        <ele>83.4</ele>
        <time>2022-11-01T12:17:07Z</time>
      </trkpt>
      <trkpt lat="36.7235540" lon="-2.8178200">
        <ele>83.4</ele>
        <time>2022-11-01T12:17:08Z</time>
      </trkpt>
      <trkpt lat="36.7235340" lon="-2.8177400">
        <ele>83.4</ele>
        <time>2022-11-01T12:17:09Z</time>
      </trkpt>
      <trkpt lat="36.7235140" lon="-2.8176610">
        <ele>83.4</ele>
        <time>2022-11-01T12:17:10Z</time>
      </trkpt>
      <trkpt lat="36.7234940" lon="-2.8175820">
        <ele>83.4</ele>
        <time>2022-11-01T12:17:11Z</time>
      </trkpt>
      <trkpt lat="36.7234730" lon="-2.8175030">
        <ele>83.6</ele>
        <time>2022-11-01T12:17:12Z</time>
      </trkpt>
      <trkpt lat="36.7234510" lon="-2.8174240">
        <ele>83.4</ele>
        <time>2022-11-01T12:17:13Z</time>
      </trkpt>
      <trkpt lat="36.7234310" lon="-2.8173470">
        <ele>83.6</ele>
        <time>2022-11-01T12:17:14Z</time>
      </trkpt>
      <trkpt lat="36.7234110" lon="-2.8172690">
        <ele>83.8</ele>
        <time>2022-11-01T12:17:15Z</time>
      </trkpt>
      <trkpt lat="36.7233920" lon="-2.8171910">
        <ele>83.8</ele>
        <time>2022-11-01T12:17:16Z</time>
      </trkpt>
      <trkpt lat="36.7233740" lon="-2.8171140">
        <ele>83.8</ele>
        <time>2022-11-01T12:17:17Z</time>
      </trkpt>
      <trkpt lat="36.7233550" lon="-2.8170370">
        <ele>83.8</ele>
        <time>2022-11-01T12:17:18Z</time>
      </trkpt>
      <trkpt lat="36.7233370" lon="-2.8169610">
        <ele>84.0</ele>
        <time>2022-11-01T12:17:19Z</time>
      </trkpt>
      <trkpt lat="36.7233180" lon="-2.8168860">
        <ele>84.2</ele>
        <time>2022-11-01T12:17:20Z</time>
      </trkpt>
      <trkpt lat="36.7232990" lon="-2.8168110">
        <ele>84.2</ele>
        <time>2022-11-01T12:17:21Z</time>
      </trkpt>
      <trkpt lat="36.7232800" lon="-2.8167350">
        <ele>84.4</ele>
        <time>2022-11-01T12:17:22Z</time>
      </trkpt>
      <trkpt lat="36.7232630" lon="-2.8166590">
        <ele>84.4</ele>
        <time>2022-11-01T12:17:23Z</time>
      </trkpt>
      <trkpt lat="36.7232440" lon="-2.8165830">
        <ele>84.6</ele>
        <time>2022-11-01T12:17:24Z</time>
      </trkpt>
      <trkpt lat="36.7232250" lon="-2.8165050">
        <ele>84.6</ele>
        <time>2022-11-01T12:17:25Z</time>
      </trkpt>
      <trkpt lat="36.7232070" lon="-2.8164260">
        <ele>84.6</ele>
        <time>2022-11-01T12:17:26Z</time>
      </trkpt>
      <trkpt lat="36.7231890" lon="-2.8163460">
        <ele>84.6</ele>
        <time>2022-11-01T12:17:27Z</time>
      </trkpt>
      <trkpt lat="36.7231680" lon="-2.8162640">
        <ele>84.8</ele>
        <time>2022-11-01T12:17:28Z</time>
      </trkpt>
      <trkpt lat="36.7231460" lon="-2.8161850">
        <ele>84.8</ele>
        <time>2022-11-01T12:17:29Z</time>
      </trkpt>
      <trkpt lat="36.7231240" lon="-2.8161030">
        <ele>84.8</ele>
        <time>2022-11-01T12:17:30Z</time>
      </trkpt>
      <trkpt lat="36.7231040" lon="-2.8160200">
        <ele>84.8</ele>
        <time>2022-11-01T12:17:31Z</time>
      </trkpt>
      <trkpt lat="36.7230840" lon="-2.8159360">
        <ele>84.8</ele>
        <time>2022-11-01T12:17:32Z</time>
      </trkpt>
      <trkpt lat="36.7230640" lon="-2.8158510">
        <ele>84.8</ele>
        <time>2022-11-01T12:17:33Z</time>
      </trkpt>
      <trkpt lat="36.7230420" lon="-2.8157650">
        <ele>84.8</ele>
        <time>2022-11-01T12:17:34Z</time>
      </trkpt>
      <trkpt lat="36.7230200" lon="-2.8156790">
        <ele>84.6</ele>
        <time>2022-11-01T12:17:35Z</time>
      </trkpt>
      <trkpt lat="36.7229980" lon="-2.8155910">
        <ele>84.6</ele>
        <time>2022-11-01T12:17:36Z</time>
      </trkpt>
      <trkpt lat="36.7229770" lon="-2.8155030">
        <ele>84.6</ele>
        <time>2022-11-01T12:17:37Z</time>
      </trkpt>
      <trkpt lat="36.7229540" lon="-2.8154150">
        <ele>84.6</ele>
        <time>2022-11-01T12:17:38Z</time>
      </trkpt>
      <trkpt lat="36.7229310" lon="-2.8153280">
        <ele>84.6</ele>
        <time>2022-11-01T12:17:39Z</time>
      </trkpt>
      <trkpt lat="36.7229090" lon="-2.8152390">
        <ele>84.6</ele>
        <time>2022-11-01T12:17:40Z</time>
      </trkpt>
      <trkpt lat="36.7228860" lon="-2.8151500">
        <ele>84.6</ele>
        <time>2022-11-01T12:17:41Z</time>
      </trkpt>
      <trkpt lat="36.7228640" lon="-2.8150630">
        <ele>84.6</ele>
        <time>2022-11-01T12:17:42Z</time>
      </trkpt>
      <trkpt lat="36.7228420" lon="-2.8149770">
        <ele>84.8</ele>
        <time>2022-11-01T12:17:43Z</time>
      </trkpt>
      <trkpt lat="36.7228210" lon="-2.8148920">
        <ele>84.8</ele>
        <time>2022-11-01T12:17:44Z</time>
      </trkpt>
      <trkpt lat="36.7228000" lon="-2.8148070">
        <ele>85.0</ele>
        <time>2022-11-01T12:17:45Z</time>
      </trkpt>
      <trkpt lat="36.7227800" lon="-2.8147220">
        <ele>85.2</ele>
        <time>2022-11-01T12:17:46Z</time>
      </trkpt>
      <trkpt lat="36.7227590" lon="-2.8146380">
        <ele>85.2</ele>
        <time>2022-11-01T12:17:47Z</time>
      </trkpt>
      <trkpt lat="36.7227380" lon="-2.8145550">
        <ele>85.4</ele>
        <time>2022-11-01T12:17:48Z</time>
      </trkpt>
      <trkpt lat="36.7227200" lon="-2.8144730">
        <ele>85.4</ele>
        <time>2022-11-01T12:17:49Z</time>
      </trkpt>
      <trkpt lat="36.7227010" lon="-2.8143910">
        <ele>85.6</ele>
        <time>2022-11-01T12:17:50Z</time>
      </trkpt>
      <trkpt lat="36.7226820" lon="-2.8143070">
        <ele>85.8</ele>
        <time>2022-11-01T12:17:51Z</time>
      </trkpt>
      <trkpt lat="36.7226620" lon="-2.8142260">
        <ele>86.0</ele>
        <time>2022-11-01T12:17:52Z</time>
      </trkpt>
      <trkpt lat="36.7226420" lon="-2.8141480">
        <ele>86.2</ele>
        <time>2022-11-01T12:17:53Z</time>
      </trkpt>
      <trkpt lat="36.7226210" lon="-2.8140690">
        <ele>86.4</ele>
        <time>2022-11-01T12:17:54Z</time>
      </trkpt>
      <trkpt lat="36.7226010" lon="-2.8139910">
        <ele>86.6</ele>
        <time>2022-11-01T12:17:55Z</time>
      </trkpt>
      <trkpt lat="36.7225820" lon="-2.8139150">
        <ele>86.8</ele>
        <time>2022-11-01T12:17:56Z</time>
      </trkpt>
      <trkpt lat="36.7225630" lon="-2.8138390">
        <ele>87.0</ele>
        <time>2022-11-01T12:17:57Z</time>
      </trkpt>
      <trkpt lat="36.7225450" lon="-2.8137640">
        <ele>87.2</ele>
        <time>2022-11-01T12:17:58Z</time>
      </trkpt>
      <trkpt lat="36.7225270" lon="-2.8136910">
        <ele>87.2</ele>
        <time>2022-11-01T12:17:59Z</time>
      </trkpt>
      <trkpt lat="36.7225100" lon="-2.8136190">
        <ele>87.6</ele>
        <time>2022-11-01T12:18:00Z</time>
      </trkpt>
      <trkpt lat="36.7224930" lon="-2.8135490">
        <ele>87.8</ele>
        <time>2022-11-01T12:18:01Z</time>
      </trkpt>
      <trkpt lat="36.7224750" lon="-2.8134770">
        <ele>87.8</ele>
        <time>2022-11-01T12:18:02Z</time>
      </trkpt>
      <trkpt lat="36.7224590" lon="-2.8134070">
        <ele>88.0</ele>
        <time>2022-11-01T12:18:03Z</time>
      </trkpt>
      <trkpt lat="36.7224420" lon="-2.8133370">
        <ele>88.2</ele>
        <time>2022-11-01T12:18:04Z</time>
      </trkpt>
      <trkpt lat="36.7224250" lon="-2.8132660">
        <ele>88.2</ele>
        <time>2022-11-01T12:18:05Z</time>
      </trkpt>
      <trkpt lat="36.7224070" lon="-2.8131940">
        <ele>88.4</ele>
        <time>2022-11-01T12:18:06Z</time>
      </trkpt>
      <trkpt lat="36.7223880" lon="-2.8131240">
        <ele>88.6</ele>
        <time>2022-11-01T12:18:07Z</time>
      </trkpt>
      <trkpt lat="36.7223710" lon="-2.8130530">
        <ele>88.8</ele>
        <time>2022-11-01T12:18:08Z</time>
      </trkpt>
      <trkpt lat="36.7223530" lon="-2.8129820">
        <ele>88.8</ele>
        <time>2022-11-01T12:18:09Z</time>
      </trkpt>
      <trkpt lat="36.7223350" lon="-2.8129130">
        <ele>89.0</ele>
        <time>2022-11-01T12:18:10Z</time>
      </trkpt>
      <trkpt lat="36.7223150" lon="-2.8128470">
        <ele>89.0</ele>
        <time>2022-11-01T12:18:11Z</time>
      </trkpt>
      <trkpt lat="36.7222980" lon="-2.8127810">
        <ele>89.0</ele>
        <time>2022-11-01T12:18:12Z</time>
      </trkpt>
      <trkpt lat="36.7222840" lon="-2.8127090">
        <ele>89.6</ele>
        <time>2022-11-01T12:18:13Z</time>
      </trkpt>
      <trkpt lat="36.7222710" lon="-2.8126450">
        <ele>89.6</ele>
        <time>2022-11-01T12:18:14Z</time>
      </trkpt>
      <trkpt lat="36.7222560" lon="-2.8125780">
        <ele>89.8</ele>
        <time>2022-11-01T12:18:15Z</time>
      </trkpt>
      <trkpt lat="36.7222390" lon="-2.8125100">
        <ele>89.8</ele>
        <time>2022-11-01T12:18:16Z</time>
      </trkpt>
      <trkpt lat="36.7222220" lon="-2.8124440">
        <ele>90.0</ele>
        <time>2022-11-01T12:18:17Z</time>
      </trkpt>
      <trkpt lat="36.7222070" lon="-2.8123770">
        <ele>90.2</ele>
        <time>2022-11-01T12:18:18Z</time>
      </trkpt>
      <trkpt lat="36.7221920" lon="-2.8123090">
        <ele>90.4</ele>
        <time>2022-11-01T12:18:19Z</time>
      </trkpt>
      <trkpt lat="36.7221760" lon="-2.8122410">
        <ele>90.6</ele>
        <time>2022-11-01T12:18:20Z</time>
      </trkpt>
      <trkpt lat="36.7221590" lon="-2.8121710">
        <ele>90.8</ele>
        <time>2022-11-01T12:18:21Z</time>
      </trkpt>
      <trkpt lat="36.7221420" lon="-2.8121020">
        <ele>90.8</ele>
        <time>2022-11-01T12:18:22Z</time>
      </trkpt>
      <trkpt lat="36.7221240" lon="-2.8120320">
        <ele>90.8</ele>
        <time>2022-11-01T12:18:23Z</time>
      </trkpt>
      <trkpt lat="36.7221040" lon="-2.8119600">
        <ele>91.0</ele>
        <time>2022-11-01T12:18:24Z</time>
      </trkpt>
      <trkpt lat="36.7220840" lon="-2.8118880">
        <ele>91.0</ele>
        <time>2022-11-01T12:18:25Z</time>
      </trkpt>
      <trkpt lat="36.7220660" lon="-2.8118170">
        <ele>91.2</ele>
        <time>2022-11-01T12:18:26Z</time>
      </trkpt>
      <trkpt lat="36.7220470" lon="-2.8117470">
        <ele>91.2</ele>
        <time>2022-11-01T12:18:27Z</time>
      </trkpt>
      <trkpt lat="36.7220300" lon="-2.8116750">
        <ele>91.2</ele>
        <time>2022-11-01T12:18:28Z</time>
      </trkpt>
      <trkpt lat="36.7220120" lon="-2.8116010">
        <ele>91.4</ele>
        <time>2022-11-01T12:18:29Z</time>
      </trkpt>
      <trkpt lat="36.7219940" lon="-2.8115290">
        <ele>91.4</ele>
        <time>2022-11-01T12:18:30Z</time>
      </trkpt>
      <trkpt lat="36.7219740" lon="-2.8114580">
        <ele>91.4</ele>
        <time>2022-11-01T12:18:31Z</time>
      </trkpt>
      <trkpt lat="36.7219540" lon="-2.8113910">
        <ele>91.6</ele>
        <time>2022-11-01T12:18:32Z</time>
      </trkpt>
      <trkpt lat="36.7219350" lon="-2.8113220">
        <ele>91.6</ele>
        <time>2022-11-01T12:18:33Z</time>
      </trkpt>
      <trkpt lat="36.7219150" lon="-2.8112490">
        <ele>91.8</ele>
        <time>2022-11-01T12:18:34Z</time>
      </trkpt>
      <trkpt lat="36.7218960" lon="-2.8111750">
        <ele>91.8</ele>
        <time>2022-11-01T12:18:35Z</time>
      </trkpt>
      <trkpt lat="36.7218770" lon="-2.8111010">
        <ele>91.8</ele>
        <time>2022-11-01T12:18:36Z</time>
      </trkpt>
      <trkpt lat="36.7218600" lon="-2.8110270">
        <ele>92.0</ele>
        <time>2022-11-01T12:18:37Z</time>
      </trkpt>
      <trkpt lat="36.7218430" lon="-2.8109540">
        <ele>92.2</ele>
        <time>2022-11-01T12:18:38Z</time>
      </trkpt>
      <trkpt lat="36.7218260" lon="-2.8108810">
        <ele>92.2</ele>
        <time>2022-11-01T12:18:39Z</time>
      </trkpt>
      <trkpt lat="36.7218080" lon="-2.8108090">
        <ele>92.4</ele>
        <time>2022-11-01T12:18:40Z</time>
      </trkpt>
      <trkpt lat="36.7217900" lon="-2.8107360">
        <ele>92.6</ele>
        <time>2022-11-01T12:18:41Z</time>
      </trkpt>
      <trkpt lat="36.7217730" lon="-2.8106630">
        <ele>92.6</ele>
        <time>2022-11-01T12:18:42Z</time>
      </trkpt>
      <trkpt lat="36.7217560" lon="-2.8105900">
        <ele>92.8</ele>
        <time>2022-11-01T12:18:43Z</time>
      </trkpt>
      <trkpt lat="36.7217400" lon="-2.8105160">
        <ele>92.8</ele>
        <time>2022-11-01T12:18:44Z</time>
      </trkpt>
      <trkpt lat="36.7217240" lon="-2.8104420">
        <ele>93.0</ele>
        <time>2022-11-01T12:18:45Z</time>
      </trkpt>
      <trkpt lat="36.7217100" lon="-2.8103720">
        <ele>93.2</ele>
        <time>2022-11-01T12:18:46Z</time>
      </trkpt>
      <trkpt lat="36.7216980" lon="-2.8102970">
        <ele>93.2</ele>
        <time>2022-11-01T12:18:47Z</time>
      </trkpt>
      <trkpt lat="36.7216930" lon="-2.8102250">
        <ele>93.4</ele>
        <time>2022-11-01T12:18:48Z</time>
      </trkpt>
      <trkpt lat="36.7216920" lon="-2.8101540">
        <ele>93.6</ele>
        <time>2022-11-01T12:18:49Z</time>
      </trkpt>
      <trkpt lat="36.7216920" lon="-2.8100810">
        <ele>93.8</ele>
        <time>2022-11-01T12:18:50Z</time>
      </trkpt>
      <trkpt lat="36.7216960" lon="-2.8100080">
        <ele>94.0</ele>
        <time>2022-11-01T12:18:51Z</time>
      </trkpt>
      <trkpt lat="36.7217020" lon="-2.8099400">
        <ele>94.2</ele>
        <time>2022-11-01T12:18:52Z</time>
      </trkpt>
      <trkpt lat="36.7217090" lon="-2.8098770">
        <ele>94.6</ele>
        <time>2022-11-01T12:18:53Z</time>
      </trkpt>
      <trkpt lat="36.7217160" lon="-2.8098170">
        <ele>94.8</ele>
        <time>2022-11-01T12:18:54Z</time>
      </trkpt>
      <trkpt lat="36.7217210" lon="-2.8097610">
        <ele>95.2</ele>
        <time>2022-11-01T12:18:55Z</time>
      </trkpt>
      <trkpt lat="36.7217260" lon="-2.8097070">
        <ele>95.6</ele>
        <time>2022-11-01T12:18:56Z</time>
      </trkpt>
      <trkpt lat="36.7217340" lon="-2.8096550">
        <ele>95.8</ele>
        <time>2022-11-01T12:18:57Z</time>
      </trkpt>
      <trkpt lat="36.7217430" lon="-2.8096040">
        <ele>96.2</ele>
        <time>2022-11-01T12:18:58Z</time>
      </trkpt>
      <trkpt lat="36.7217520" lon="-2.8095540">
        <ele>96.4</ele>
        <time>2022-11-01T12:18:59Z</time>
      </trkpt>
      <trkpt lat="36.7217600" lon="-2.8095050">
        <ele>96.8</ele>
        <time>2022-11-01T12:19:00Z</time>
      </trkpt>
      <trkpt lat="36.7217680" lon="-2.8094570">
        <ele>97.0</ele>
        <time>2022-11-01T12:19:01Z</time>
      </trkpt>
      <trkpt lat="36.7217750" lon="-2.8094090">
        <ele>97.4</ele>
        <time>2022-11-01T12:19:02Z</time>
      </trkpt>
      <trkpt lat="36.7217820" lon="-2.8093610">
        <ele>97.6</ele>
        <time>2022-11-01T12:19:03Z</time>
      </trkpt>
      <trkpt lat="36.7217900" lon="-2.8093120">
        <ele>97.8</ele>
        <time>2022-11-01T12:19:04Z</time>
      </trkpt>
      <trkpt lat="36.7217970" lon="-2.8092650">
        <ele>98.2</ele>
        <time>2022-11-01T12:19:05Z</time>
      </trkpt>
      <trkpt lat="36.7218060" lon="-2.8092180">
        <ele>98.4</ele>
        <time>2022-11-01T12:19:06Z</time>
      </trkpt>
      <trkpt lat="36.7218140" lon="-2.8091700">
        <ele>98.8</ele>
        <time>2022-11-01T12:19:07Z</time>
      </trkpt>
      <trkpt lat="36.7218230" lon="-2.8091210">
        <ele>99.0</ele>
        <time>2022-11-01T12:19:08Z</time>
      </trkpt>
      <trkpt lat="36.7218320" lon="-2.8090690">
        <ele>99.2</ele>
        <time>2022-11-01T12:19:09Z</time>
      </trkpt>
      <trkpt lat="36.7218420" lon="-2.8090140">
        <ele>99.6</ele>
        <time>2022-11-01T12:19:10Z</time>
      </trkpt>
      <trkpt lat="36.7218510" lon="-2.8089570">
        <ele>100.0</ele>
        <time>2022-11-01T12:19:11Z</time>
      </trkpt>
      <trkpt lat="36.7218610" lon="-2.8088990">
        <ele>100.2</ele>
        <time>2022-11-01T12:19:12Z</time>
      </trkpt>
      <trkpt lat="36.7218700" lon="-2.8088410">
        <ele>100.6</ele>
        <time>2022-11-01T12:19:13Z</time>
      </trkpt>
      <trkpt lat="36.7218800" lon="-2.8087830">
        <ele>101.0</ele>
        <time>2022-11-01T12:19:14Z</time>
      </trkpt>
      <trkpt lat="36.7218910" lon="-2.8087230">
        <ele>101.4</ele>
        <time>2022-11-01T12:19:15Z</time>
      </trkpt>
      <trkpt lat="36.7218980" lon="-2.8086660">
        <ele>101.8</ele>
        <time>2022-11-01T12:19:16Z</time>
      </trkpt>
      <trkpt lat="36.7219050" lon="-2.8086090">
        <ele>102.4</ele>
        <time>2022-11-01T12:19:17Z</time>
      </trkpt>
      <trkpt lat="36.7219110" lon="-2.8085510">
        <ele>102.8</ele>
        <time>2022-11-01T12:19:18Z</time>
      </trkpt>
      <trkpt lat="36.7219140" lon="-2.8084930">
        <ele>103.4</ele>
        <time>2022-11-01T12:19:19Z</time>
      </trkpt>
      <trkpt lat="36.7219150" lon="-2.8084370">
        <ele>103.8</ele>
        <time>2022-11-01T12:19:20Z</time>
      </trkpt>
      <trkpt lat="36.7219140" lon="-2.8083850">
        <ele>104.2</ele>
        <time>2022-11-01T12:19:21Z</time>
      </trkpt>
      <trkpt lat="36.7219110" lon="-2.8083300">
        <ele>104.4</ele>
        <time>2022-11-01T12:19:22Z</time>
      </trkpt>
      <trkpt lat="36.7219060" lon="-2.8082730">
        <ele>104.8</ele>
        <time>2022-11-01T12:19:23Z</time>
      </trkpt>
      <trkpt lat="36.7219010" lon="-2.8082120">
        <ele>104.8</ele>
        <time>2022-11-01T12:19:24Z</time>
      </trkpt>
      <trkpt lat="36.7218930" lon="-2.8081520">
        <ele>105.0</ele>
        <time>2022-11-01T12:19:25Z</time>
      </trkpt>
      <trkpt lat="36.7218810" lon="-2.8080870">
        <ele>105.2</ele>
        <time>2022-11-01T12:19:26Z</time>
      </trkpt>
      <trkpt lat="36.7218630" lon="-2.8080230">
        <ele>105.4</ele>
        <time>2022-11-01T12:19:27Z</time>
      </trkpt>
      <trkpt lat="36.7218440" lon="-2.8079600">
        <ele>105.6</ele>
        <time>2022-11-01T12:19:28Z</time>
      </trkpt>
      <trkpt lat="36.7218250" lon="-2.8079000">
        <ele>105.8</ele>
        <time>2022-11-01T12:19:29Z</time>
      </trkpt>
      <trkpt lat="36.7218060" lon="-2.8078400">
        <ele>105.8</ele>
        <time>2022-11-01T12:19:30Z</time>
      </trkpt>
      <trkpt lat="36.7217840" lon="-2.8077830">
        <ele>106.0</ele>
        <time>2022-11-01T12:19:31Z</time>
      </trkpt>
      <trkpt lat="36.7217600" lon="-2.8077280">
        <ele>106.2</ele>
        <time>2022-11-01T12:19:32Z</time>
      </trkpt>
      <trkpt lat="36.7217340" lon="-2.8076740">
        <ele>106.2</ele>
        <time>2022-11-01T12:19:33Z</time>
      </trkpt>
      <trkpt lat="36.7217100" lon="-2.8076180">
        <ele>106.4</ele>
        <time>2022-11-01T12:19:34Z</time>
      </trkpt>
      <trkpt lat="36.7216890" lon="-2.8075600">
        <ele>106.4</ele>
        <time>2022-11-01T12:19:35Z</time>
      </trkpt>
      <trkpt lat="36.7216660" lon="-2.8075030">
        <ele>106.4</ele>
        <time>2022-11-01T12:19:36Z</time>
      </trkpt>
      <trkpt lat="36.7216450" lon="-2.8074450">
        <ele>106.6</ele>
        <time>2022-11-01T12:19:37Z</time>
      </trkpt>
      <trkpt lat="36.7216230" lon="-2.8073900">
        <ele>106.6</ele>
        <time>2022-11-01T12:19:38Z</time>
      </trkpt>
      <trkpt lat="36.7216000" lon="-2.8073350">
        <ele>106.8</ele>
        <time>2022-11-01T12:19:39Z</time>
      </trkpt>
      <trkpt lat="36.7215780" lon="-2.8072790">
        <ele>106.8</ele>
        <time>2022-11-01T12:19:40Z</time>
      </trkpt>
      <trkpt lat="36.7215550" lon="-2.8072240">
        <ele>106.8</ele>
        <time>2022-11-01T12:19:41Z</time>
      </trkpt>
      <trkpt lat="36.7215320" lon="-2.8071680">
        <ele>106.8</ele>
        <time>2022-11-01T12:19:42Z</time>
      </trkpt>
      <trkpt lat="36.7215100" lon="-2.8071100">
        <ele>106.8</ele>
        <time>2022-11-01T12:19:43Z</time>
      </trkpt>
      <trkpt lat="36.7214870" lon="-2.8070520">
        <ele>106.8</ele>
        <time>2022-11-01T12:19:44Z</time>
      </trkpt>
      <trkpt lat="36.7214630" lon="-2.8069950">
        <ele>106.8</ele>
        <time>2022-11-01T12:19:45Z</time>
      </trkpt>
      <trkpt lat="36.7214390" lon="-2.8069360">
        <ele>106.8</ele>
        <time>2022-11-01T12:19:46Z</time>
      </trkpt>
      <trkpt lat="36.7214150" lon="-2.8068760">
        <ele>106.8</ele>
        <time>2022-11-01T12:19:47Z</time>
      </trkpt>
      <trkpt lat="36.7213900" lon="-2.8068160">
        <ele>106.8</ele>
        <time>2022-11-01T12:19:48Z</time>
      </trkpt>
      <trkpt lat="36.7213650" lon="-2.8067540">
        <ele>106.8</ele>
        <time>2022-11-01T12:19:49Z</time>
      </trkpt>
      <trkpt lat="36.7213400" lon="-2.8066890">
        <ele>106.8</ele>
        <time>2022-11-01T12:19:50Z</time>
      </trkpt>
      <trkpt lat="36.7213140" lon="-2.8066230">
        <ele>106.8</ele>
        <time>2022-11-01T12:19:51Z</time>
      </trkpt>
      <trkpt lat="36.7212880" lon="-2.8065560">
        <ele>106.8</ele>
        <time>2022-11-01T12:19:52Z</time>
      </trkpt>
      <trkpt lat="36.7212620" lon="-2.8064880">
        <ele>106.8</ele>
        <time>2022-11-01T12:19:53Z</time>
      </trkpt>
      <trkpt lat="36.7212350" lon="-2.8064210">
        <ele>106.8</ele>
        <time>2022-11-01T12:19:54Z</time>
      </trkpt>
      <trkpt lat="36.7212090" lon="-2.8063560">
        <ele>106.8</ele>
        <time>2022-11-01T12:19:55Z</time>
      </trkpt>
      <trkpt lat="36.7211830" lon="-2.8062910">
        <ele>106.8</ele>
        <time>2022-11-01T12:19:56Z</time>
      </trkpt>
      <trkpt lat="36.7211570" lon="-2.8062250">
        <ele>106.8</ele>
        <time>2022-11-01T12:19:57Z</time>
      </trkpt>
      <trkpt lat="36.7211290" lon="-2.8061580">
        <ele>106.8</ele>
        <time>2022-11-01T12:19:58Z</time>
      </trkpt>
      <trkpt lat="36.7211030" lon="-2.8060890">
        <ele>106.8</ele>
        <time>2022-11-01T12:19:59Z</time>
      </trkpt>
      <trkpt lat="36.7210760" lon="-2.8060190">
        <ele>106.8</ele>
        <time>2022-11-01T12:20:00Z</time>
      </trkpt>
      <trkpt lat="36.7210480" lon="-2.8059480">
        <ele>106.8</ele>
        <time>2022-11-01T12:20:01Z</time>
      </trkpt>
      <trkpt lat="36.7210190" lon="-2.8058750">
        <ele>106.6</ele>
        <time>2022-11-01T12:20:02Z</time>
      </trkpt>
      <trkpt lat="36.7209890" lon="-2.8058020">
        <ele>106.6</ele>
        <time>2022-11-01T12:20:03Z</time>
      </trkpt>
      <trkpt lat="36.7209590" lon="-2.8057270">
        <ele>106.6</ele>
        <time>2022-11-01T12:20:04Z</time>
      </trkpt>
      <trkpt lat="36.7209290" lon="-2.8056520">
        <ele>106.6</ele>
        <time>2022-11-01T12:20:05Z</time>
      </trkpt>
      <trkpt lat="36.7209000" lon="-2.8055760">
        <ele>106.4</ele>
        <time>2022-11-01T12:20:06Z</time>
      </trkpt>
      <trkpt lat="36.7208700" lon="-2.8054990">
        <ele>106.4</ele>
        <time>2022-11-01T12:20:07Z</time>
      </trkpt>
      <trkpt lat="36.7208380" lon="-2.8054210">
        <ele>106.4</ele>
        <time>2022-11-01T12:20:08Z</time>
      </trkpt>
      <trkpt lat="36.7208080" lon="-2.8053410">
        <ele>106.2</ele>
        <time>2022-11-01T12:20:09Z</time>
      </trkpt>
      <trkpt lat="36.7207760" lon="-2.8052610">
        <ele>106.2</ele>
        <time>2022-11-01T12:20:10Z</time>
      </trkpt>
      <trkpt lat="36.7207430" lon="-2.8051830">
        <ele>106.2</ele>
        <time>2022-11-01T12:20:11Z</time>
      </trkpt>
      <trkpt lat="36.7207120" lon="-2.8051040">
        <ele>106.2</ele>
        <time>2022-11-01T12:20:12Z</time>
      </trkpt>
      <trkpt lat="36.7206800" lon="-2.8050240">
        <ele>106.2</ele>
        <time>2022-11-01T12:20:13Z</time>
      </trkpt>
      <trkpt lat="36.7206480" lon="-2.8049440">
        <ele>106.0</ele>
        <time>2022-11-01T12:20:14Z</time>
      </trkpt>
      <trkpt lat="36.7206160" lon="-2.8048650">
        <ele>106.0</ele>
        <time>2022-11-01T12:20:15Z</time>
      </trkpt>
      <trkpt lat="36.7205830" lon="-2.8047860">
        <ele>106.0</ele>
        <time>2022-11-01T12:20:16Z</time>
      </trkpt>
      <trkpt lat="36.7205530" lon="-2.8047070">
        <ele>106.0</ele>
        <time>2022-11-01T12:20:17Z</time>
      </trkpt>
      <trkpt lat="36.7205240" lon="-2.8046300">
        <ele>106.0</ele>
        <time>2022-11-01T12:20:18Z</time>
      </trkpt>
      <trkpt lat="36.7204940" lon="-2.8045540">
        <ele>106.0</ele>
        <time>2022-11-01T12:20:19Z</time>
      </trkpt>
      <trkpt lat="36.7204640" lon="-2.8044790">
        <ele>106.0</ele>
        <time>2022-11-01T12:20:20Z</time>
      </trkpt>
      <trkpt lat="36.7204340" lon="-2.8044050">
        <ele>106.0</ele>
        <time>2022-11-01T12:20:21Z</time>
      </trkpt>
      <trkpt lat="36.7204030" lon="-2.8043300">
        <ele>106.0</ele>
        <time>2022-11-01T12:20:22Z</time>
      </trkpt>
      <trkpt lat="36.7203730" lon="-2.8042540">
        <ele>106.0</ele>
        <time>2022-11-01T12:20:23Z</time>
      </trkpt>
      <trkpt lat="36.7203430" lon="-2.8041770">
        <ele>105.8</ele>
        <time>2022-11-01T12:20:24Z</time>
      </trkpt>
      <trkpt lat="36.7203150" lon="-2.8040980">
        <ele>105.8</ele>
        <time>2022-11-01T12:20:25Z</time>
      </trkpt>
      <trkpt lat="36.7202870" lon="-2.8040200">
        <ele>105.8</ele>
        <time>2022-11-01T12:20:26Z</time>
      </trkpt>
      <trkpt lat="36.7202580" lon="-2.8039470">
        <ele>105.6</ele>
        <time>2022-11-01T12:20:27Z</time>
      </trkpt>
      <trkpt lat="36.7202270" lon="-2.8038760">
        <ele>105.6</ele>
        <time>2022-11-01T12:20:28Z</time>
      </trkpt>
      <trkpt lat="36.7201980" lon="-2.8038040">
        <ele>105.6</ele>
        <time>2022-11-01T12:20:29Z</time>
      </trkpt>
      <trkpt lat="36.7201690" lon="-2.8037330">
        <ele>105.4</ele>
        <time>2022-11-01T12:20:30Z</time>
      </trkpt>
      <trkpt lat="36.7201400" lon="-2.8036610">
        <ele>105.4</ele>
        <time>2022-11-01T12:20:31Z</time>
      </trkpt>
      <trkpt lat="36.7201110" lon="-2.8035890">
        <ele>105.4</ele>
        <time>2022-11-01T12:20:32Z</time>
      </trkpt>
      <trkpt lat="36.7200810" lon="-2.8035160">
        <ele>105.4</ele>
        <time>2022-11-01T12:20:33Z</time>
      </trkpt>
      <trkpt lat="36.7200530" lon="-2.8034440">
        <ele>105.4</ele>
        <time>2022-11-01T12:20:34Z</time>
      </trkpt>
      <trkpt lat="36.7200250" lon="-2.8033720">
        <ele>105.4</ele>
        <time>2022-11-01T12:20:35Z</time>
      </trkpt>
      <trkpt lat="36.7199970" lon="-2.8033020">
        <ele>105.4</ele>
        <time>2022-11-01T12:20:36Z</time>
      </trkpt>
      <trkpt lat="36.7199700" lon="-2.8032340">
        <ele>105.4</ele>
        <time>2022-11-01T12:20:37Z</time>
      </trkpt>
      <trkpt lat="36.7199430" lon="-2.8031690">
        <ele>105.4</ele>
        <time>2022-11-01T12:20:38Z</time>
      </trkpt>
      <trkpt lat="36.7199160" lon="-2.8031000">
        <ele>105.4</ele>
        <time>2022-11-01T12:20:39Z</time>
      </trkpt>
      <trkpt lat="36.7198900" lon="-2.8030290">
        <ele>105.4</ele>
        <time>2022-11-01T12:20:40Z</time>
      </trkpt>
      <trkpt lat="36.7198630" lon="-2.8029570">
        <ele>105.2</ele>
        <time>2022-11-01T12:20:41Z</time>
      </trkpt>
      <trkpt lat="36.7198370" lon="-2.8028870">
        <ele>105.4</ele>
        <time>2022-11-01T12:20:42Z</time>
      </trkpt>
      <trkpt lat="36.7198110" lon="-2.8028160">
        <ele>105.2</ele>
        <time>2022-11-01T12:20:43Z</time>
      </trkpt>
      <trkpt lat="36.7197840" lon="-2.8027450">
        <ele>105.2</ele>
        <time>2022-11-01T12:20:44Z</time>
      </trkpt>
      <trkpt lat="36.7197540" lon="-2.8026710">
        <ele>105.0</ele>
        <time>2022-11-01T12:20:45Z</time>
      </trkpt>
      <trkpt lat="36.7197250" lon="-2.8025960">
        <ele>105.0</ele>
        <time>2022-11-01T12:20:46Z</time>
      </trkpt>
      <trkpt lat="36.7196920" lon="-2.8025190">
        <ele>104.8</ele>
        <time>2022-11-01T12:20:47Z</time>
      </trkpt>
      <trkpt lat="36.7196600" lon="-2.8024430">
        <ele>104.8</ele>
        <time>2022-11-01T12:20:48Z</time>
      </trkpt>
      <trkpt lat="36.7196280" lon="-2.8023650">
        <ele>104.6</ele>
        <time>2022-11-01T12:20:49Z</time>
      </trkpt>
      <trkpt lat="36.7195950" lon="-2.8022860">
        <ele>104.4</ele>
        <time>2022-11-01T12:20:50Z</time>
      </trkpt>
      <trkpt lat="36.7195620" lon="-2.8022080">
        <ele>104.2</ele>
        <time>2022-11-01T12:20:51Z</time>
      </trkpt>
      <trkpt lat="36.7195280" lon="-2.8021300">
        <ele>104.0</ele>
        <time>2022-11-01T12:20:52Z</time>
      </trkpt>
      <trkpt lat="36.7194940" lon="-2.8020510">
        <ele>103.8</ele>
        <time>2022-11-01T12:20:53Z</time>
      </trkpt>
      <trkpt lat="36.7194600" lon="-2.8019710">
        <ele>103.8</ele>
        <time>2022-11-01T12:20:54Z</time>
      </trkpt>
      <trkpt lat="36.7194250" lon="-2.8018920">
        <ele>103.6</ele>
        <time>2022-11-01T12:20:55Z</time>
      </trkpt>
      <trkpt lat="36.7193890" lon="-2.8018120">
        <ele>103.2</ele>
        <time>2022-11-01T12:20:56Z</time>
      </trkpt>
      <trkpt lat="36.7193510" lon="-2.8017320">
        <ele>103.2</ele>
        <time>2022-11-01T12:20:57Z</time>
      </trkpt>
      <trkpt lat="36.7193120" lon="-2.8016540">
        <ele>102.8</ele>
        <time>2022-11-01T12:20:58Z</time>
      </trkpt>
      <trkpt lat="36.7192750" lon="-2.8015760">
        <ele>102.8</ele>
        <time>2022-11-01T12:20:59Z</time>
      </trkpt>
      <trkpt lat="36.7192350" lon="-2.8014950">
        <ele>102.6</ele>
        <time>2022-11-01T12:21:00Z</time>
      </trkpt>
      <trkpt lat="36.7191940" lon="-2.8014160">
        <ele>102.4</ele>
        <time>2022-11-01T12:21:01Z</time>
      </trkpt>
      <trkpt lat="36.7191530" lon="-2.8013360">
        <ele>102.2</ele>
        <time>2022-11-01T12:21:02Z</time>
      </trkpt>
      <trkpt lat="36.7191160" lon="-2.8012580">
        <ele>102.0</ele>
        <time>2022-11-01T12:21:03Z</time>
      </trkpt>
      <trkpt lat="36.7190830" lon="-2.8011900">
        <ele>101.8</ele>
        <time>2022-11-01T12:21:04Z</time>
      </trkpt>
      <trkpt lat="36.7190530" lon="-2.8011190">
        <ele>101.4</ele>
        <time>2022-11-01T12:21:05Z</time>
      </trkpt>
      <trkpt lat="36.7190210" lon="-2.8010480">
        <ele>101.4</ele>
        <time>2022-11-01T12:21:06Z</time>
      </trkpt>
      <trkpt lat="36.7189930" lon="-2.8009890">
        <ele>101.2</ele>
        <time>2022-11-01T12:21:07Z</time>
      </trkpt>
      <trkpt lat="36.7189650" lon="-2.8009370">
        <ele>101.0</ele>
        <time>2022-11-01T12:21:08Z</time>
      </trkpt>
      <trkpt lat="36.7189300" lon="-2.8008880">
        <ele>101.0</ele>
        <time>2022-11-01T12:21:09Z</time>
      </trkpt>
      <trkpt lat="36.7188900" lon="-2.8008360">
        <ele>101.0</ele>
        <time>2022-11-01T12:21:10Z</time>
      </trkpt>
      <trkpt lat="36.7188500" lon="-2.8007870">
        <ele>100.8</ele>
        <time>2022-11-01T12:21:11Z</time>
      </trkpt>
      <trkpt lat="36.7188140" lon="-2.8007280">
        <ele>100.8</ele>
        <time>2022-11-01T12:21:12Z</time>
      </trkpt>
      <trkpt lat="36.7187830" lon="-2.8006590">
        <ele>100.8</ele>
        <time>2022-11-01T12:21:13Z</time>
      </trkpt>
      <trkpt lat="36.7187630" lon="-2.8005820">
        <ele>100.8</ele>
        <time>2022-11-01T12:21:14Z</time>
      </trkpt>
      <trkpt lat="36.7187570" lon="-2.8005000">
        <ele>100.8</ele>
        <time>2022-11-01T12:21:15Z</time>
      </trkpt>
      <trkpt lat="36.7187650" lon="-2.8004170">
        <ele>100.8</ele>
        <time>2022-11-01T12:21:16Z</time>
      </trkpt>
      <trkpt lat="36.7187880" lon="-2.8003380">
        <ele>100.8</ele>
        <time>2022-11-01T12:21:17Z</time>
      </trkpt>
      <trkpt lat="36.7188170" lon="-2.8002640">
        <ele>100.8</ele>
        <time>2022-11-01T12:21:18Z</time>
      </trkpt>
      <trkpt lat="36.7188460" lon="-2.8001890">
        <ele>100.8</ele>
        <time>2022-11-01T12:21:19Z</time>
      </trkpt>
      <trkpt lat="36.7188610" lon="-2.8001100">
        <ele>100.8</ele>
        <time>2022-11-01T12:21:20Z</time>
      </trkpt>
      <trkpt lat="36.7188570" lon="-2.8000300">
        <ele>100.8</ele>
        <time>2022-11-01T12:21:21Z</time>
      </trkpt>
      <trkpt lat="36.7188360" lon="-2.7999510">
        <ele>101.0</ele>
        <time>2022-11-01T12:21:22Z</time>
      </trkpt>
      <trkpt lat="36.7188060" lon="-2.7998750">
        <ele>101.2</ele>
        <time>2022-11-01T12:21:23Z</time>
      </trkpt>
      <trkpt lat="36.7187680" lon="-2.7998080">
        <ele>101.2</ele>
        <time>2022-11-01T12:21:24Z</time>
      </trkpt>
      <trkpt lat="36.7187300" lon="-2.7997400">
        <ele>101.2</ele>
        <time>2022-11-01T12:21:25Z</time>
      </trkpt>
      <trkpt lat="36.7186890" lon="-2.7996740">
        <ele>101.4</ele>
        <time>2022-11-01T12:21:26Z</time>
      </trkpt>
      <trkpt lat="36.7186510" lon="-2.7996120">
        <ele>101.6</ele>
        <time>2022-11-01T12:21:27Z</time>
      </trkpt>
      <trkpt lat="36.7186140" lon="-2.7995500">
        <ele>101.8</ele>
        <time>2022-11-01T12:21:28Z</time>
      </trkpt>
      <trkpt lat="36.7185790" lon="-2.7994870">
        <ele>102.0</ele>
        <time>2022-11-01T12:21:29Z</time>
      </trkpt>
      <trkpt lat="36.7185450" lon="-2.7994240">
        <ele>102.2</ele>
        <time>2022-11-01T12:21:30Z</time>
      </trkpt>
      <trkpt lat="36.7185130" lon="-2.7993610">
        <ele>102.2</ele>
        <time>2022-11-01T12:21:31Z</time>
      </trkpt>
      <trkpt lat="36.7184810" lon="-2.7992990">
        <ele>102.6</ele>
        <time>2022-11-01T12:21:32Z</time>
      </trkpt>
      <trkpt lat="36.7184490" lon="-2.7992390">
        <ele>102.8</ele>
        <time>2022-11-01T12:21:33Z</time>
      </trkpt>
      <trkpt lat="36.7184170" lon="-2.7991810">
        <ele>103.0</ele>
        <time>2022-11-01T12:21:34Z</time>
      </trkpt>
      <trkpt lat="36.7183860" lon="-2.7991240">
        <ele>103.0</ele>
        <time>2022-11-01T12:21:35Z</time>
      </trkpt>
      <trkpt lat="36.7183570" lon="-2.7990650">
        <ele>103.2</ele>
        <time>2022-11-01T12:21:36Z</time>
      </trkpt>
      <trkpt lat="36.7183300" lon="-2.7990080">
        <ele>103.4</ele>
        <time>2022-11-01T12:21:37Z</time>
      </trkpt>
      <trkpt lat="36.7183030" lon="-2.7989500">
        <ele>103.6</ele>
        <time>2022-11-01T12:21:38Z</time>
      </trkpt>
      <trkpt lat="36.7182760" lon="-2.7988940">
        <ele>103.8</ele>
        <time>2022-11-01T12:21:39Z</time>
      </trkpt>
      <trkpt lat="36.7182480" lon="-2.7988390">
        <ele>103.8</ele>
        <time>2022-11-01T12:21:40Z</time>
      </trkpt>
      <trkpt lat="36.7182190" lon="-2.7987890">
        <ele>104.0</ele>
        <time>2022-11-01T12:21:41Z</time>
      </trkpt>
      <trkpt lat="36.7181930" lon="-2.7987380">
        <ele>104.0</ele>
        <time>2022-11-01T12:21:42Z</time>
      </trkpt>
      <trkpt lat="36.7181650" lon="-2.7986910">
        <ele>104.2</ele>
        <time>2022-11-01T12:21:43Z</time>
      </trkpt>
      <trkpt lat="36.7181340" lon="-2.7986450">
        <ele>104.2</ele>
        <time>2022-11-01T12:21:44Z</time>
      </trkpt>
      <trkpt lat="36.7181030" lon="-2.7986010">
        <ele>104.2</ele>
        <time>2022-11-01T12:21:45Z</time>
      </trkpt>
      <trkpt lat="36.7180740" lon="-2.7985530">
        <ele>104.2</ele>
        <time>2022-11-01T12:21:46Z</time>
      </trkpt>
      <trkpt lat="36.7180490" lon="-2.7985030">
        <ele>104.2</ele>
        <time>2022-11-01T12:21:47Z</time>
      </trkpt>
      <trkpt lat="36.7180290" lon="-2.7984500">
        <ele>104.4</ele>
        <time>2022-11-01T12:21:48Z</time>
      </trkpt>
      <trkpt lat="36.7180100" lon="-2.7983950">
        <ele>104.4</ele>
        <time>2022-11-01T12:21:49Z</time>
      </trkpt>
      <trkpt lat="36.7179880" lon="-2.7983420">
        <ele>104.4</ele>
        <time>2022-11-01T12:21:50Z</time>
      </trkpt>
      <trkpt lat="36.7179640" lon="-2.7982890">
        <ele>104.4</ele>
        <time>2022-11-01T12:21:51Z</time>
      </trkpt>
      <trkpt lat="36.7179410" lon="-2.7982360">
        <ele>104.6</ele>
        <time>2022-11-01T12:21:52Z</time>
      </trkpt>
      <trkpt lat="36.7179190" lon="-2.7981820">
        <ele>104.6</ele>
        <time>2022-11-01T12:21:53Z</time>
      </trkpt>
      <trkpt lat="36.7178970" lon="-2.7981270">
        <ele>104.8</ele>
        <time>2022-11-01T12:21:54Z</time>
      </trkpt>
      <trkpt lat="36.7178760" lon="-2.7980740">
        <ele>104.8</ele>
        <time>2022-11-01T12:21:55Z</time>
      </trkpt>
      <trkpt lat="36.7178540" lon="-2.7980230">
        <ele>104.8</ele>
        <time>2022-11-01T12:21:56Z</time>
      </trkpt>
      <trkpt lat="36.7178340" lon="-2.7979710">
        <ele>104.8</ele>
        <time>2022-11-01T12:21:57Z</time>
      </trkpt>
      <trkpt lat="36.7178110" lon="-2.7979180">
        <ele>104.8</ele>
        <time>2022-11-01T12:21:58Z</time>
      </trkpt>
      <trkpt lat="36.7177880" lon="-2.7978670">
        <ele>104.8</ele>
        <time>2022-11-01T12:21:59Z</time>
      </trkpt>
      <trkpt lat="36.7177640" lon="-2.7978180">
        <ele>105.0</ele>
        <time>2022-11-01T12:22:00Z</time>
      </trkpt>
      <trkpt lat="36.7177400" lon="-2.7977670">
        <ele>105.0</ele>
        <time>2022-11-01T12:22:01Z</time>
      </trkpt>
      <trkpt lat="36.7177170" lon="-2.7977180">
        <ele>105.0</ele>
        <time>2022-11-01T12:22:02Z</time>
      </trkpt>
      <trkpt lat="36.7176920" lon="-2.7976700">
        <ele>105.0</ele>
        <time>2022-11-01T12:22:03Z</time>
      </trkpt>
      <trkpt lat="36.7176680" lon="-2.7976250">
        <ele>105.0</ele>
        <time>2022-11-01T12:22:04Z</time>
      </trkpt>
      <trkpt lat="36.7176400" lon="-2.7975790">
        <ele>104.8</ele>
        <time>2022-11-01T12:22:05Z</time>
      </trkpt>
      <trkpt lat="36.7176090" lon="-2.7975360">
        <ele>104.8</ele>
        <time>2022-11-01T12:22:06Z</time>
      </trkpt>
      <trkpt lat="36.7175750" lon="-2.7974970">
        <ele>104.8</ele>
        <time>2022-11-01T12:22:07Z</time>
      </trkpt>
      <trkpt lat="36.7175410" lon="-2.7974630">
        <ele>104.8</ele>
        <time>2022-11-01T12:22:08Z</time>
      </trkpt>
      <trkpt lat="36.7175050" lon="-2.7974360">
        <ele>104.8</ele>
        <time>2022-11-01T12:22:09Z</time>
      </trkpt>
      <trkpt lat="36.7174660" lon="-2.7974110">
        <ele>104.8</ele>
        <time>2022-11-01T12:22:10Z</time>
      </trkpt>
      <trkpt lat="36.7174260" lon="-2.7973930">
        <ele>104.8</ele>
        <time>2022-11-01T12:22:11Z</time>
      </trkpt>
      <trkpt lat="36.7173850" lon="-2.7973780">
        <ele>104.8</ele>
        <time>2022-11-01T12:22:12Z</time>
      </trkpt>
      <trkpt lat="36.7173430" lon="-2.7973670">
        <ele>104.8</ele>
        <time>2022-11-01T12:22:13Z</time>
      </trkpt>
      <trkpt lat="36.7173000" lon="-2.7973570">
        <ele>104.8</ele>
        <time>2022-11-01T12:22:14Z</time>
      </trkpt>
      <trkpt lat="36.7172570" lon="-2.7973470">
        <ele>104.8</ele>
        <time>2022-11-01T12:22:15Z</time>
      </trkpt>
      <trkpt lat="36.7172130" lon="-2.7973400">
        <ele>104.6</ele>
        <time>2022-11-01T12:22:16Z</time>
      </trkpt>
      <trkpt lat="36.7171710" lon="-2.7973320">
        <ele>104.6</ele>
        <time>2022-11-01T12:22:17Z</time>
      </trkpt>
      <trkpt lat="36.7171270" lon="-2.7973230">
        <ele>104.4</ele>
        <time>2022-11-01T12:22:18Z</time>
      </trkpt>
      <trkpt lat="36.7170830" lon="-2.7973160">
        <ele>104.2</ele>
        <time>2022-11-01T12:22:19Z</time>
      </trkpt>
      <trkpt lat="36.7170380" lon="-2.7973090">
        <ele>104.0</ele>
        <time>2022-11-01T12:22:20Z</time>
      </trkpt>
      <trkpt lat="36.7169920" lon="-2.7973030">
        <ele>104.0</ele>
        <time>2022-11-01T12:22:21Z</time>
      </trkpt>
      <trkpt lat="36.7169480" lon="-2.7972970">
        <ele>103.8</ele>
        <time>2022-11-01T12:22:22Z</time>
      </trkpt>
      <trkpt lat="36.7169040" lon="-2.7972910">
        <ele>103.8</ele>
        <time>2022-11-01T12:22:23Z</time>
      </trkpt>
      <trkpt lat="36.7168610" lon="-2.7972840">
        <ele>103.8</ele>
        <time>2022-11-01T12:22:24Z</time>
      </trkpt>
      <trkpt lat="36.7168150" lon="-2.7972770">
        <ele>103.6</ele>
        <time>2022-11-01T12:22:25Z</time>
      </trkpt>
      <trkpt lat="36.7167690" lon="-2.7972700">
        <ele>103.4</ele>
        <time>2022-11-01T12:22:26Z</time>
      </trkpt>
      <trkpt lat="36.7167210" lon="-2.7972640">
        <ele>103.4</ele>
        <time>2022-11-01T12:22:27Z</time>
      </trkpt>
      <trkpt lat="36.7166710" lon="-2.7972560">
        <ele>103.2</ele>
        <time>2022-11-01T12:22:28Z</time>
      </trkpt>
      <trkpt lat="36.7166190" lon="-2.7972480">
        <ele>103.0</ele>
        <time>2022-11-01T12:22:29Z</time>
      </trkpt>
      <trkpt lat="36.7165670" lon="-2.7972410">
        <ele>102.8</ele>
        <time>2022-11-01T12:22:30Z</time>
      </trkpt>
      <trkpt lat="36.7165130" lon="-2.7972340">
        <ele>102.6</ele>
        <time>2022-11-01T12:22:31Z</time>
      </trkpt>
      <trkpt lat="36.7164590" lon="-2.7972260">
        <ele>102.4</ele>
        <time>2022-11-01T12:22:32Z</time>
      </trkpt>
      <trkpt lat="36.7164050" lon="-2.7972150">
        <ele>102.4</ele>
        <time>2022-11-01T12:22:33Z</time>
      </trkpt>
      <trkpt lat="36.7163510" lon="-2.7972050">
        <ele>102.2</ele>
        <time>2022-11-01T12:22:34Z</time>
      </trkpt>
      <trkpt lat="36.7162940" lon="-2.7971990">
        <ele>102.0</ele>
        <time>2022-11-01T12:22:35Z</time>
      </trkpt>
      <trkpt lat="36.7162360" lon="-2.7971940">
        <ele>101.8</ele>
        <time>2022-11-01T12:22:36Z</time>
      </trkpt>
      <trkpt lat="36.7161710" lon="-2.7971870">
        <ele>101.6</ele>
        <time>2022-11-01T12:22:37Z</time>
      </trkpt>
      <trkpt lat="36.7161030" lon="-2.7971760">
        <ele>101.2</ele>
        <time>2022-11-01T12:22:38Z</time>
      </trkpt>
      <trkpt lat="36.7160310" lon="-2.7971650">
        <ele>101.2</ele>
        <time>2022-11-01T12:22:39Z</time>
      </trkpt>
      <trkpt lat="36.7159610" lon="-2.7971540">
        <ele>101.2</ele>
        <time>2022-11-01T12:22:40Z</time>
      </trkpt>
      <trkpt lat="36.7158920" lon="-2.7971450">
        <ele>101.2</ele>
        <time>2022-11-01T12:22:41Z</time>
      </trkpt>
      <trkpt lat="36.7158220" lon="-2.7971350">
        <ele>101.2</ele>
        <time>2022-11-01T12:22:42Z</time>
      </trkpt>
      <trkpt lat="36.7157550" lon="-2.7971270">
        <ele>101.2</ele>
        <time>2022-11-01T12:22:43Z</time>
      </trkpt>
      <trkpt lat="36.7156940" lon="-2.7971200">
        <ele>101.0</ele>
        <time>2022-11-01T12:22:44Z</time>
      </trkpt>
      <trkpt lat="36.7156360" lon="-2.7971140">
        <ele>101.0</ele>
        <time>2022-11-01T12:22:45Z</time>
      </trkpt>
      <trkpt lat="36.7155790" lon="-2.7971070">
        <ele>101.0</ele>
        <time>2022-11-01T12:22:46Z</time>
      </trkpt>
      <trkpt lat="36.7155220" lon="-2.7970980">
        <ele>101.0</ele>
        <time>2022-11-01T12:22:47Z</time>
      </trkpt>
      <trkpt lat="36.7154640" lon="-2.7970900">
        <ele>100.8</ele>
        <time>2022-11-01T12:22:48Z</time>
      </trkpt>
      <trkpt lat="36.7154060" lon="-2.7970840">
        <ele>100.8</ele>
        <time>2022-11-01T12:22:49Z</time>
      </trkpt>
      <trkpt lat="36.7153470" lon="-2.7970770">
        <ele>100.8</ele>
        <time>2022-11-01T12:22:50Z</time>
      </trkpt>
      <trkpt lat="36.7152870" lon="-2.7970700">
        <ele>100.6</ele>
        <time>2022-11-01T12:22:51Z</time>
      </trkpt>
      <trkpt lat="36.7152260" lon="-2.7970610">
        <ele>100.6</ele>
        <time>2022-11-01T12:22:52Z</time>
      </trkpt>
      <trkpt lat="36.7151630" lon="-2.7970540">
        <ele>100.8</ele>
        <time>2022-11-01T12:22:53Z</time>
      </trkpt>
      <trkpt lat="36.7151000" lon="-2.7970480">
        <ele>100.8</ele>
        <time>2022-11-01T12:22:54Z</time>
      </trkpt>
      <trkpt lat="36.7150370" lon="-2.7970420">
        <ele>100.8</ele>
        <time>2022-11-01T12:22:55Z</time>
      </trkpt>
      <trkpt lat="36.7149740" lon="-2.7970350">
        <ele>100.8</ele>
        <time>2022-11-01T12:22:56Z</time>
      </trkpt>
      <trkpt lat="36.7149110" lon="-2.7970260">
        <ele>100.8</ele>
        <time>2022-11-01T12:22:57Z</time>
      </trkpt>
      <trkpt lat="36.7148500" lon="-2.7970180">
        <ele>100.8</ele>
        <time>2022-11-01T12:22:58Z</time>
      </trkpt>
      <trkpt lat="36.7147880" lon="-2.7970100">
        <ele>100.8</ele>
        <time>2022-11-01T12:22:59Z</time>
      </trkpt>
      <trkpt lat="36.7147270" lon="-2.7970020">
        <ele>100.8</ele>
        <time>2022-11-01T12:23:00Z</time>
      </trkpt>
      <trkpt lat="36.7146650" lon="-2.7969940">
        <ele>100.8</ele>
        <time>2022-11-01T12:23:01Z</time>
      </trkpt>
      <trkpt lat="36.7146020" lon="-2.7969860">
        <ele>100.8</ele>
        <time>2022-11-01T12:23:02Z</time>
      </trkpt>
      <trkpt lat="36.7145400" lon="-2.7969750">
        <ele>100.8</ele>
        <time>2022-11-01T12:23:03Z</time>
      </trkpt>
      <trkpt lat="36.7144760" lon="-2.7969630">
        <ele>100.8</ele>
        <time>2022-11-01T12:23:04Z</time>
      </trkpt>
      <trkpt lat="36.7144100" lon="-2.7969490">
        <ele>100.8</ele>
        <time>2022-11-01T12:23:05Z</time>
      </trkpt>
      <trkpt lat="36.7143460" lon="-2.7969320">
        <ele>101.0</ele>
        <time>2022-11-01T12:23:06Z</time>
      </trkpt>
      <trkpt lat="36.7142830" lon="-2.7969060">
        <ele>101.2</ele>
        <time>2022-11-01T12:23:07Z</time>
      </trkpt>
      <trkpt lat="36.7142250" lon="-2.7968710">
        <ele>101.6</ele>
        <time>2022-11-01T12:23:08Z</time>
      </trkpt>
      <trkpt lat="36.7141730" lon="-2.7968270">
        <ele>101.8</ele>
        <time>2022-11-01T12:23:09Z</time>
      </trkpt>
      <trkpt lat="36.7141270" lon="-2.7967780">
        <ele>101.8</ele>
        <time>2022-11-01T12:23:10Z</time>
      </trkpt>
      <trkpt lat="36.7140820" lon="-2.7967230">
        <ele>102.0</ele>
        <time>2022-11-01T12:23:11Z</time>
      </trkpt>
      <trkpt lat="36.7140360" lon="-2.7966620">
        <ele>101.8</ele>
        <time>2022-11-01T12:23:12Z</time>
      </trkpt>
      <trkpt lat="36.7139890" lon="-2.7966000">
        <ele>102.0</ele>
        <time>2022-11-01T12:23:13Z</time>
      </trkpt>
      <trkpt lat="36.7139420" lon="-2.7965400">
        <ele>102.2</ele>
        <time>2022-11-01T12:23:14Z</time>
      </trkpt>
      <trkpt lat="36.7138950" lon="-2.7964820">
        <ele>102.2</ele>
        <time>2022-11-01T12:23:15Z</time>
      </trkpt>
      <trkpt lat="36.7138490" lon="-2.7964220">
        <ele>102.0</ele>
        <time>2022-11-01T12:23:16Z</time>
      </trkpt>
      <trkpt lat="36.7138030" lon="-2.7963620">
        <ele>102.0</ele>
        <time>2022-11-01T12:23:17Z</time>
      </trkpt>
      <trkpt lat="36.7137580" lon="-2.7963030">
        <ele>102.0</ele>
        <time>2022-11-01T12:23:18Z</time>
      </trkpt>
      <trkpt lat="36.7137140" lon="-2.7962410">
        <ele>101.8</ele>
        <time>2022-11-01T12:23:19Z</time>
      </trkpt>
      <trkpt lat="36.7136680" lon="-2.7961790">
        <ele>101.8</ele>
        <time>2022-11-01T12:23:20Z</time>
      </trkpt>
      <trkpt lat="36.7136220" lon="-2.7961170">
        <ele>101.6</ele>
        <time>2022-11-01T12:23:21Z</time>
      </trkpt>
      <trkpt lat="36.7135770" lon="-2.7960530">
        <ele>101.4</ele>
        <time>2022-11-01T12:23:22Z</time>
      </trkpt>
      <trkpt lat="36.7135330" lon="-2.7959910">
        <ele>101.4</ele>
        <time>2022-11-01T12:23:23Z</time>
      </trkpt>
      <trkpt lat="36.7134880" lon="-2.7959290">
        <ele>101.2</ele>
        <time>2022-11-01T12:23:24Z</time>
      </trkpt>
      <trkpt lat="36.7134430" lon="-2.7958660">
        <ele>101.2</ele>
        <time>2022-11-01T12:23:25Z</time>
      </trkpt>
      <trkpt lat="36.7133970" lon="-2.7958030">
        <ele>101.0</ele>
        <time>2022-11-01T12:23:26Z</time>
      </trkpt>
      <trkpt lat="36.7133510" lon="-2.7957400">
        <ele>101.0</ele>
        <time>2022-11-01T12:23:27Z</time>
      </trkpt>
      <trkpt lat="36.7133060" lon="-2.7956760">
        <ele>100.8</ele>
        <time>2022-11-01T12:23:28Z</time>
      </trkpt>
      <trkpt lat="36.7132610" lon="-2.7956130">
        <ele>100.8</ele>
        <time>2022-11-01T12:23:29Z</time>
      </trkpt>
      <trkpt lat="36.7132160" lon="-2.7955520">
        <ele>100.8</ele>
        <time>2022-11-01T12:23:30Z</time>
      </trkpt>
      <trkpt lat="36.7131720" lon="-2.7954900">
        <ele>100.8</ele>
        <time>2022-11-01T12:23:31Z</time>
      </trkpt>
      <trkpt lat="36.7131250" lon="-2.7954290">
        <ele>100.6</ele>
        <time>2022-11-01T12:23:32Z</time>
      </trkpt>
      <trkpt lat="36.7130790" lon="-2.7953660">
        <ele>100.4</ele>
        <time>2022-11-01T12:23:33Z</time>
      </trkpt>
      <trkpt lat="36.7130340" lon="-2.7953020">
        <ele>100.2</ele>
        <time>2022-11-01T12:23:34Z</time>
      </trkpt>
      <trkpt lat="36.7129880" lon="-2.7952390">
        <ele>100.2</ele>
        <time>2022-11-01T12:23:35Z</time>
      </trkpt>
      <trkpt lat="36.7129420" lon="-2.7951750">
        <ele>100.0</ele>
        <time>2022-11-01T12:23:36Z</time>
      </trkpt>
      <trkpt lat="36.7128940" lon="-2.7951110">
        <ele>100.0</ele>
        <time>2022-11-01T12:23:37Z</time>
      </trkpt>
      <trkpt lat="36.7128470" lon="-2.7950450">
        <ele>99.8</ele>
        <time>2022-11-01T12:23:38Z</time>
      </trkpt>
      <trkpt lat="36.7128000" lon="-2.7949810">
        <ele>99.6</ele>
        <time>2022-11-01T12:23:39Z</time>
      </trkpt>
      <trkpt lat="36.7127520" lon="-2.7949160">
        <ele>99.4</ele>
        <time>2022-11-01T12:23:40Z</time>
      </trkpt>
      <trkpt lat="36.7127050" lon="-2.7948510">
        <ele>99.2</ele>
        <time>2022-11-01T12:23:41Z</time>
      </trkpt>
      <trkpt lat="36.7126590" lon="-2.7947850">
        <ele>99.2</ele>
        <time>2022-11-01T12:23:42Z</time>
      </trkpt>
      <trkpt lat="36.7126110" lon="-2.7947190">
        <ele>99.0</ele>
        <time>2022-11-01T12:23:43Z</time>
      </trkpt>
      <trkpt lat="36.7125610" lon="-2.7946520">
        <ele>98.8</ele>
        <time>2022-11-01T12:23:44Z</time>
      </trkpt>
      <trkpt lat="36.7125110" lon="-2.7945820">
        <ele>98.6</ele>
        <time>2022-11-01T12:23:45Z</time>
      </trkpt>
      <trkpt lat="36.7124600" lon="-2.7945100">
        <ele>98.2</ele>
        <time>2022-11-01T12:23:46Z</time>
      </trkpt>
      <trkpt lat="36.7124070" lon="-2.7944380">
        <ele>98.0</ele>
        <time>2022-11-01T12:23:47Z</time>
      </trkpt>
      <trkpt lat="36.7123550" lon="-2.7943650">
        <ele>97.6</ele>
        <time>2022-11-01T12:23:48Z</time>
      </trkpt>
      <trkpt lat="36.7123010" lon="-2.7942920">
        <ele>97.4</ele>
        <time>2022-11-01T12:23:49Z</time>
      </trkpt>
      <trkpt lat="36.7122470" lon="-2.7942180">
        <ele>97.2</ele>
        <time>2022-11-01T12:23:50Z</time>
      </trkpt>
      <trkpt lat="36.7121930" lon="-2.7941430">
        <ele>97.0</ele>
        <time>2022-11-01T12:23:51Z</time>
      </trkpt>
      <trkpt lat="36.7121390" lon="-2.7940680">
        <ele>96.8</ele>
        <time>2022-11-01T12:23:52Z</time>
      </trkpt>
      <trkpt lat="36.7120860" lon="-2.7939940">
        <ele>96.4</ele>
        <time>2022-11-01T12:23:53Z</time>
      </trkpt>
      <trkpt lat="36.7120320" lon="-2.7939190">
        <ele>96.2</ele>
        <time>2022-11-01T12:23:54Z</time>
      </trkpt>
      <trkpt lat="36.7119790" lon="-2.7938450">
        <ele>96.0</ele>
        <time>2022-11-01T12:23:55Z</time>
      </trkpt>
      <trkpt lat="36.7119270" lon="-2.7937710">
        <ele>95.8</ele>
        <time>2022-11-01T12:23:56Z</time>
      </trkpt>
      <trkpt lat="36.7118750" lon="-2.7936980">
        <ele>95.8</ele>
        <time>2022-11-01T12:23:57Z</time>
      </trkpt>
      <trkpt lat="36.7118220" lon="-2.7936280">
        <ele>95.6</ele>
        <time>2022-11-01T12:23:58Z</time>
      </trkpt>
      <trkpt lat="36.7117700" lon="-2.7935580">
        <ele>95.6</ele>
        <time>2022-11-01T12:23:59Z</time>
      </trkpt>
      <trkpt lat="36.7117180" lon="-2.7934890">
        <ele>95.6</ele>
        <time>2022-11-01T12:24:00Z</time>
      </trkpt>
      <trkpt lat="36.7116680" lon="-2.7934190">
        <ele>95.4</ele>
        <time>2022-11-01T12:24:01Z</time>
      </trkpt>
      <trkpt lat="36.7116170" lon="-2.7933500">
        <ele>95.4</ele>
        <time>2022-11-01T12:24:02Z</time>
      </trkpt>
      <trkpt lat="36.7115660" lon="-2.7932830">
        <ele>95.4</ele>
        <time>2022-11-01T12:24:03Z</time>
      </trkpt>
      <trkpt lat="36.7115160" lon="-2.7932130">
        <ele>95.4</ele>
        <time>2022-11-01T12:24:04Z</time>
      </trkpt>
      <trkpt lat="36.7114650" lon="-2.7931450">
        <ele>95.4</ele>
        <time>2022-11-01T12:24:05Z</time>
      </trkpt>
      <trkpt lat="36.7114140" lon="-2.7930770">
        <ele>95.4</ele>
        <time>2022-11-01T12:24:06Z</time>
      </trkpt>
      <trkpt lat="36.7113660" lon="-2.7930080">
        <ele>95.4</ele>
        <time>2022-11-01T12:24:07Z</time>
      </trkpt>
      <trkpt lat="36.7113170" lon="-2.7929420">
        <ele>95.4</ele>
        <time>2022-11-01T12:24:08Z</time>
      </trkpt>
      <trkpt lat="36.7112700" lon="-2.7928750">
        <ele>95.4</ele>
        <time>2022-11-01T12:24:09Z</time>
      </trkpt>
      <trkpt lat="36.7112220" lon="-2.7928080">
        <ele>95.6</ele>
        <time>2022-11-01T12:24:10Z</time>
      </trkpt>
      <trkpt lat="36.7111740" lon="-2.7927410">
        <ele>95.6</ele>
        <time>2022-11-01T12:24:11Z</time>
      </trkpt>
      <trkpt lat="36.7111270" lon="-2.7926760">
        <ele>95.8</ele>
        <time>2022-11-01T12:24:12Z</time>
      </trkpt>
      <trkpt lat="36.7110800" lon="-2.7926110">
        <ele>95.8</ele>
        <time>2022-11-01T12:24:13Z</time>
      </trkpt>
      <trkpt lat="36.7110330" lon="-2.7925470">
        <ele>95.8</ele>
        <time>2022-11-01T12:24:14Z</time>
      </trkpt>
      <trkpt lat="36.7109880" lon="-2.7924830">
        <ele>95.8</ele>
        <time>2022-11-01T12:24:15Z</time>
      </trkpt>
      <trkpt lat="36.7109420" lon="-2.7924190">
        <ele>95.8</ele>
        <time>2022-11-01T12:24:16Z</time>
      </trkpt>
      <trkpt lat="36.7108960" lon="-2.7923550">
        <ele>95.8</ele>
        <time>2022-11-01T12:24:17Z</time>
      </trkpt>
      <trkpt lat="36.7108500" lon="-2.7922920">
        <ele>95.8</ele>
        <time>2022-11-01T12:24:18Z</time>
      </trkpt>
      <trkpt lat="36.7108040" lon="-2.7922290">
        <ele>95.8</ele>
        <time>2022-11-01T12:24:19Z</time>
      </trkpt>
      <trkpt lat="36.7107590" lon="-2.7921660">
        <ele>95.8</ele>
        <time>2022-11-01T12:24:20Z</time>
      </trkpt>
      <trkpt lat="36.7107140" lon="-2.7921020">
        <ele>95.8</ele>
        <time>2022-11-01T12:24:21Z</time>
      </trkpt>
      <trkpt lat="36.7106690" lon="-2.7920390">
        <ele>95.8</ele>
        <time>2022-11-01T12:24:22Z</time>
      </trkpt>
      <trkpt lat="36.7106230" lon="-2.7919760">
        <ele>96.0</ele>
        <time>2022-11-01T12:24:23Z</time>
      </trkpt>
      <trkpt lat="36.7105770" lon="-2.7919140">
        <ele>96.0</ele>
        <time>2022-11-01T12:24:24Z</time>
      </trkpt>
      <trkpt lat="36.7105320" lon="-2.7918520">
        <ele>96.0</ele>
        <time>2022-11-01T12:24:25Z</time>
      </trkpt>
      <trkpt lat="36.7104870" lon="-2.7917900">
        <ele>96.0</ele>
        <time>2022-11-01T12:24:26Z</time>
      </trkpt>
      <trkpt lat="36.7104430" lon="-2.7917300">
        <ele>96.0</ele>
        <time>2022-11-01T12:24:27Z</time>
      </trkpt>
      <trkpt lat="36.7103990" lon="-2.7916690">
        <ele>96.2</ele>
        <time>2022-11-01T12:24:28Z</time>
      </trkpt>
      <trkpt lat="36.7103560" lon="-2.7916100">
        <ele>96.2</ele>
        <time>2022-11-01T12:24:29Z</time>
      </trkpt>
      <trkpt lat="36.7103130" lon="-2.7915530">
        <ele>96.4</ele>
        <time>2022-11-01T12:24:30Z</time>
      </trkpt>
      <trkpt lat="36.7102710" lon="-2.7914940">
        <ele>96.6</ele>
        <time>2022-11-01T12:24:31Z</time>
      </trkpt>
      <trkpt lat="36.7102300" lon="-2.7914340">
        <ele>96.8</ele>
        <time>2022-11-01T12:24:32Z</time>
      </trkpt>
      <trkpt lat="36.7101880" lon="-2.7913740">
        <ele>96.8</ele>
        <time>2022-11-01T12:24:33Z</time>
      </trkpt>
      <trkpt lat="36.7101450" lon="-2.7913140">
        <ele>96.8</ele>
        <time>2022-11-01T12:24:34Z</time>
      </trkpt>
      <trkpt lat="36.7100990" lon="-2.7912570">
        <ele>97.0</ele>
        <time>2022-11-01T12:24:35Z</time>
      </trkpt>
      <trkpt lat="36.7100510" lon="-2.7911990">
        <ele>97.2</ele>
        <time>2022-11-01T12:24:36Z</time>
      </trkpt>
      <trkpt lat="36.7100070" lon="-2.7911380">
        <ele>97.4</ele>
        <time>2022-11-01T12:24:37Z</time>
      </trkpt>
      <trkpt lat="36.7099650" lon="-2.7910740">
        <ele>97.8</ele>
        <time>2022-11-01T12:24:38Z</time>
      </trkpt>
      <trkpt lat="36.7099240" lon="-2.7910100">
        <ele>98.0</ele>
        <time>2022-11-01T12:24:39Z</time>
      </trkpt>
      <trkpt lat="36.7098780" lon="-2.7909490">
        <ele>98.2</ele>
        <time>2022-11-01T12:24:40Z</time>
      </trkpt>
      <trkpt lat="36.7098310" lon="-2.7908900">
        <ele>98.2</ele>
        <time>2022-11-01T12:24:41Z</time>
      </trkpt>
      <trkpt lat="36.7097820" lon="-2.7908280">
        <ele>98.6</ele>
        <time>2022-11-01T12:24:42Z</time>
      </trkpt>
      <trkpt lat="36.7097360" lon="-2.7907630">
        <ele>98.8</ele>
        <time>2022-11-01T12:24:43Z</time>
      </trkpt>
      <trkpt lat="36.7096910" lon="-2.7906980">
        <ele>99.2</ele>
        <time>2022-11-01T12:24:44Z</time>
      </trkpt>
      <trkpt lat="36.7096460" lon="-2.7906340">
        <ele>99.2</ele>
        <time>2022-11-01T12:24:45Z</time>
      </trkpt>
      <trkpt lat="36.7096020" lon="-2.7905700">
        <ele>99.4</ele>
        <time>2022-11-01T12:24:46Z</time>
      </trkpt>
      <trkpt lat="36.7095570" lon="-2.7905100">
        <ele>99.6</ele>
        <time>2022-11-01T12:24:47Z</time>
      </trkpt>
      <trkpt lat="36.7095130" lon="-2.7904510">
        <ele>99.6</ele>
        <time>2022-11-01T12:24:48Z</time>
      </trkpt>
      <trkpt lat="36.7094700" lon="-2.7903920">
        <ele>99.6</ele>
        <time>2022-11-01T12:24:49Z</time>
      </trkpt>
      <trkpt lat="36.7094270" lon="-2.7903320">
        <ele>99.6</ele>
        <time>2022-11-01T12:24:50Z</time>
      </trkpt>
      <trkpt lat="36.7093860" lon="-2.7902730">
        <ele>99.8</ele>
        <time>2022-11-01T12:24:51Z</time>
      </trkpt>
      <trkpt lat="36.7093450" lon="-2.7902140">
        <ele>99.8</ele>
        <time>2022-11-01T12:24:52Z</time>
      </trkpt>
      <trkpt lat="36.7093040" lon="-2.7901570">
        <ele>99.8</ele>
        <time>2022-11-01T12:24:53Z</time>
      </trkpt>
      <trkpt lat="36.7092620" lon="-2.7901000">
        <ele>99.8</ele>
        <time>2022-11-01T12:24:54Z</time>
      </trkpt>
      <trkpt lat="36.7092200" lon="-2.7900430">
        <ele>99.8</ele>
        <time>2022-11-01T12:24:55Z</time>
      </trkpt>
      <trkpt lat="36.7091790" lon="-2.7899860">
        <ele>99.8</ele>
        <time>2022-11-01T12:24:56Z</time>
      </trkpt>
      <trkpt lat="36.7091380" lon="-2.7899290">
        <ele>99.8</ele>
        <time>2022-11-01T12:24:57Z</time>
      </trkpt>
      <trkpt lat="36.7090980" lon="-2.7898720">
        <ele>100.0</ele>
        <time>2022-11-01T12:24:58Z</time>
      </trkpt>
      <trkpt lat="36.7090560" lon="-2.7898170">
        <ele>100.0</ele>
        <time>2022-11-01T12:24:59Z</time>
      </trkpt>
      <trkpt lat="36.7090150" lon="-2.7897620">
        <ele>100.0</ele>
        <time>2022-11-01T12:25:00Z</time>
      </trkpt>
      <trkpt lat="36.7089740" lon="-2.7897070">
        <ele>100.2</ele>
        <time>2022-11-01T12:25:01Z</time>
      </trkpt>
      <trkpt lat="36.7089340" lon="-2.7896510">
        <ele>100.2</ele>
        <time>2022-11-01T12:25:02Z</time>
      </trkpt>
      <trkpt lat="36.7088930" lon="-2.7895950">
        <ele>100.2</ele>
        <time>2022-11-01T12:25:03Z</time>
      </trkpt>
      <trkpt lat="36.7088520" lon="-2.7895400">
        <ele>100.2</ele>
        <time>2022-11-01T12:25:04Z</time>
      </trkpt>
      <trkpt lat="36.7088120" lon="-2.7894840">
        <ele>100.4</ele>
        <time>2022-11-01T12:25:05Z</time>
      </trkpt>
      <trkpt lat="36.7087700" lon="-2.7894270">
        <ele>100.2</ele>
        <time>2022-11-01T12:25:06Z</time>
      </trkpt>
      <trkpt lat="36.7087280" lon="-2.7893710">
        <ele>100.4</ele>
        <time>2022-11-01T12:25:07Z</time>
      </trkpt>
      <trkpt lat="36.7086870" lon="-2.7893140">
        <ele>100.2</ele>
        <time>2022-11-01T12:25:08Z</time>
      </trkpt>
      <trkpt lat="36.7086440" lon="-2.7892560">
        <ele>100.2</ele>
        <time>2022-11-01T12:25:09Z</time>
      </trkpt>
      <trkpt lat="36.7086000" lon="-2.7891980">
        <ele>100.2</ele>
        <time>2022-11-01T12:25:10Z</time>
      </trkpt>
      <trkpt lat="36.7085560" lon="-2.7891390">
        <ele>100.2</ele>
        <time>2022-11-01T12:25:11Z</time>
      </trkpt>
      <trkpt lat="36.7085110" lon="-2.7890810">
        <ele>100.2</ele>
        <time>2022-11-01T12:25:12Z</time>
      </trkpt>
      <trkpt lat="36.7084650" lon="-2.7890220">
        <ele>100.0</ele>
        <time>2022-11-01T12:25:13Z</time>
      </trkpt>
      <trkpt lat="36.7084180" lon="-2.7889630">
        <ele>100.0</ele>
        <time>2022-11-01T12:25:14Z</time>
      </trkpt>
      <trkpt lat="36.7083690" lon="-2.7889020">
        <ele>99.8</ele>
        <time>2022-11-01T12:25:15Z</time>
      </trkpt>
      <trkpt lat="36.7083190" lon="-2.7888390">
        <ele>99.8</ele>
        <time>2022-11-01T12:25:16Z</time>
      </trkpt>
      <trkpt lat="36.7082670" lon="-2.7887760">
        <ele>99.6</ele>
        <time>2022-11-01T12:25:17Z</time>
      </trkpt>
      <trkpt lat="36.7082130" lon="-2.7887140">
        <ele>99.6</ele>
        <time>2022-11-01T12:25:18Z</time>
      </trkpt>
      <trkpt lat="36.7081580" lon="-2.7886530">
        <ele>99.2</ele>
        <time>2022-11-01T12:25:19Z</time>
      </trkpt>
      <trkpt lat="36.7081030" lon="-2.7885910">
        <ele>99.0</ele>
        <time>2022-11-01T12:25:20Z</time>
      </trkpt>
      <trkpt lat="36.7080480" lon="-2.7885290">
        <ele>98.8</ele>
        <time>2022-11-01T12:25:21Z</time>
      </trkpt>
      <trkpt lat="36.7079920" lon="-2.7884680">
        <ele>98.8</ele>
        <time>2022-11-01T12:25:22Z</time>
      </trkpt>
      <trkpt lat="36.7079360" lon="-2.7884060">
        <ele>98.6</ele>
        <time>2022-11-01T12:25:23Z</time>
      </trkpt>
      <trkpt lat="36.7078810" lon="-2.7883440">
        <ele>98.6</ele>
        <time>2022-11-01T12:25:24Z</time>
      </trkpt>
      <trkpt lat="36.7078250" lon="-2.7882820">
        <ele>98.2</ele>
        <time>2022-11-01T12:25:25Z</time>
      </trkpt>
      <trkpt lat="36.7077690" lon="-2.7882190">
        <ele>98.2</ele>
        <time>2022-11-01T12:25:26Z</time>
      </trkpt>
      <trkpt lat="36.7077120" lon="-2.7881560">
        <ele>98.0</ele>
        <time>2022-11-01T12:25:27Z</time>
      </trkpt>
      <trkpt lat="36.7076560" lon="-2.7880930">
        <ele>97.8</ele>
        <time>2022-11-01T12:25:28Z</time>
      </trkpt>
      <trkpt lat="36.7075980" lon="-2.7880300">
        <ele>97.8</ele>
        <time>2022-11-01T12:25:29Z</time>
      </trkpt>
      <trkpt lat="36.7075410" lon="-2.7879660">
        <ele>97.8</ele>
        <time>2022-11-01T12:25:30Z</time>
      </trkpt>
      <trkpt lat="36.7074830" lon="-2.7879010">
        <ele>97.6</ele>
        <time>2022-11-01T12:25:31Z</time>
      </trkpt>
      <trkpt lat="36.7074250" lon="-2.7878360">
        <ele>97.4</ele>
        <time>2022-11-01T12:25:32Z</time>
      </trkpt>
      <trkpt lat="36.7073660" lon="-2.7877720">
        <ele>97.2</ele>
        <time>2022-11-01T12:25:33Z</time>
      </trkpt>
      <trkpt lat="36.7073070" lon="-2.7877070">
        <ele>97.0</ele>
        <time>2022-11-01T12:25:34Z</time>
      </trkpt>
      <trkpt lat="36.7072470" lon="-2.7876430">
        <ele>96.8</ele>
        <time>2022-11-01T12:25:35Z</time>
      </trkpt>
      <trkpt lat="36.7071890" lon="-2.7875760">
        <ele>96.8</ele>
        <time>2022-11-01T12:25:36Z</time>
      </trkpt>
      <trkpt lat="36.7071300" lon="-2.7875100">
        <ele>96.6</ele>
        <time>2022-11-01T12:25:37Z</time>
      </trkpt>
      <trkpt lat="36.7070720" lon="-2.7874450">
        <ele>96.6</ele>
        <time>2022-11-01T12:25:38Z</time>
      </trkpt>
      <trkpt lat="36.7070140" lon="-2.7873810">
        <ele>96.6</ele>
        <time>2022-11-01T12:25:39Z</time>
      </trkpt>
      <trkpt lat="36.7069560" lon="-2.7873180">
        <ele>96.4</ele>
        <time>2022-11-01T12:25:40Z</time>
      </trkpt>
      <trkpt lat="36.7068990" lon="-2.7872550">
        <ele>96.4</ele>
        <time>2022-11-01T12:25:41Z</time>
      </trkpt>
      <trkpt lat="36.7068430" lon="-2.7871940">
        <ele>96.4</ele>
        <time>2022-11-01T12:25:42Z</time>
      </trkpt>
      <trkpt lat="36.7067880" lon="-2.7871330">
        <ele>96.2</ele>
        <time>2022-11-01T12:25:43Z</time>
      </trkpt>
      <trkpt lat="36.7067320" lon="-2.7870720">
        <ele>96.2</ele>
        <time>2022-11-01T12:25:44Z</time>
      </trkpt>
      <trkpt lat="36.7066780" lon="-2.7870110">
        <ele>96.2</ele>
        <time>2022-11-01T12:25:45Z</time>
      </trkpt>
      <trkpt lat="36.7066230" lon="-2.7869510">
        <ele>96.4</ele>
        <time>2022-11-01T12:25:46Z</time>
      </trkpt>
      <trkpt lat="36.7065670" lon="-2.7868920">
        <ele>96.2</ele>
        <time>2022-11-01T12:25:47Z</time>
      </trkpt>
      <trkpt lat="36.7065120" lon="-2.7868320">
        <ele>96.4</ele>
        <time>2022-11-01T12:25:48Z</time>
      </trkpt>
      <trkpt lat="36.7064570" lon="-2.7867730">
        <ele>96.4</ele>
        <time>2022-11-01T12:25:49Z</time>
      </trkpt>
      <trkpt lat="36.7064010" lon="-2.7867160">
        <ele>96.4</ele>
        <time>2022-11-01T12:25:50Z</time>
      </trkpt>
      <trkpt lat="36.7063450" lon="-2.7866600">
        <ele>96.6</ele>
        <time>2022-11-01T12:25:51Z</time>
      </trkpt>
      <trkpt lat="36.7062900" lon="-2.7866040">
        <ele>96.8</ele>
        <time>2022-11-01T12:25:52Z</time>
      </trkpt>
      <trkpt lat="36.7062350" lon="-2.7865490">
        <ele>96.8</ele>
        <time>2022-11-01T12:25:53Z</time>
      </trkpt>
      <trkpt lat="36.7061790" lon="-2.7864980">
        <ele>96.8</ele>
        <time>2022-11-01T12:25:54Z</time>
      </trkpt>
      <trkpt lat="36.7061240" lon="-2.7864460">
        <ele>96.8</ele>
        <time>2022-11-01T12:25:55Z</time>
      </trkpt>
      <trkpt lat="36.7060690" lon="-2.7863920">
        <ele>96.8</ele>
        <time>2022-11-01T12:25:56Z</time>
      </trkpt>
      <trkpt lat="36.7060130" lon="-2.7863400">
        <ele>96.8</ele>
        <time>2022-11-01T12:25:57Z</time>
      </trkpt>
      <trkpt lat="36.7059560" lon="-2.7862850">
        <ele>96.8</ele>
        <time>2022-11-01T12:25:58Z</time>
      </trkpt>
      <trkpt lat="36.7058960" lon="-2.7862330">
        <ele>96.8</ele>
        <time>2022-11-01T12:25:59Z</time>
      </trkpt>
      <trkpt lat="36.7058390" lon="-2.7861820">
        <ele>96.6</ele>
        <time>2022-11-01T12:26:00Z</time>
      </trkpt>
      <trkpt lat="36.7057800" lon="-2.7861300">
        <ele>96.4</ele>
        <time>2022-11-01T12:26:01Z</time>
      </trkpt>
      <trkpt lat="36.7057210" lon="-2.7860720">
        <ele>96.2</ele>
        <time>2022-11-01T12:26:02Z</time>
      </trkpt>
      <trkpt lat="36.7056630" lon="-2.7860180">
        <ele>96.0</ele>
        <time>2022-11-01T12:26:03Z</time>
      </trkpt>
      <trkpt lat="36.7056040" lon="-2.7859640">
        <ele>95.8</ele>
        <time>2022-11-01T12:26:04Z</time>
      </trkpt>
      <trkpt lat="36.7055430" lon="-2.7859080">
        <ele>95.8</ele>
        <time>2022-11-01T12:26:05Z</time>
      </trkpt>
      <trkpt lat="36.7054820" lon="-2.7858550">
        <ele>95.4</ele>
        <time>2022-11-01T12:26:06Z</time>
      </trkpt>
      <trkpt lat="36.7054220" lon="-2.7857960">
        <ele>95.2</ele>
        <time>2022-11-01T12:26:07Z</time>
      </trkpt>
      <trkpt lat="36.7053630" lon="-2.7857380">
        <ele>95.2</ele>
        <time>2022-11-01T12:26:08Z</time>
      </trkpt>
      <trkpt lat="36.7053040" lon="-2.7856810">
        <ele>95.0</ele>
        <time>2022-11-01T12:26:09Z</time>
      </trkpt>
      <trkpt lat="36.7052420" lon="-2.7856160">
        <ele>94.8</ele>
        <time>2022-11-01T12:26:10Z</time>
      </trkpt>
      <trkpt lat="36.7051800" lon="-2.7855510">
        <ele>94.8</ele>
        <time>2022-11-01T12:26:11Z</time>
      </trkpt>
      <trkpt lat="36.7051170" lon="-2.7854830">
        <ele>94.4</ele>
        <time>2022-11-01T12:26:12Z</time>
      </trkpt>
      <trkpt lat="36.7050540" lon="-2.7854130">
        <ele>94.2</ele>
        <time>2022-11-01T12:26:13Z</time>
      </trkpt>
      <trkpt lat="36.7049920" lon="-2.7853460">
        <ele>94.2</ele>
        <time>2022-11-01T12:26:14Z</time>
      </trkpt>
      <trkpt lat="36.7049310" lon="-2.7852760">
        <ele>93.8</ele>
        <time>2022-11-01T12:26:15Z</time>
      </trkpt>
      <trkpt lat="36.7048690" lon="-2.7852070">
        <ele>93.4</ele>
        <time>2022-11-01T12:26:16Z</time>
      </trkpt>
      <trkpt lat="36.7048060" lon="-2.7851370">
        <ele>93.8</ele>
        <time>2022-11-01T12:26:17Z</time>
      </trkpt>
      <trkpt lat="36.7047450" lon="-2.7850650">
        <ele>93.4</ele>
        <time>2022-11-01T12:26:18Z</time>
      </trkpt>
      <trkpt lat="36.7046840" lon="-2.7849910">
        <ele>93.2</ele>
        <time>2022-11-01T12:26:19Z</time>
      </trkpt>
      <trkpt lat="36.7046250" lon="-2.7849170">
        <ele>92.8</ele>
        <time>2022-11-01T12:26:20Z</time>
      </trkpt>
      <trkpt lat="36.7045650" lon="-2.7848440">
        <ele>92.8</ele>
        <time>2022-11-01T12:26:21Z</time>
      </trkpt>
      <trkpt lat="36.7045030" lon="-2.7847710">
        <ele>92.8</ele>
        <time>2022-11-01T12:26:22Z</time>
      </trkpt>
      <trkpt lat="36.7044410" lon="-2.7846980">
        <ele>92.6</ele>
        <time>2022-11-01T12:26:23Z</time>
      </trkpt>
      <trkpt lat="36.7043780" lon="-2.7846240">
        <ele>92.4</ele>
        <time>2022-11-01T12:26:24Z</time>
      </trkpt>
      <trkpt lat="36.7043160" lon="-2.7845500">
        <ele>92.2</ele>
        <time>2022-11-01T12:26:25Z</time>
      </trkpt>
      <trkpt lat="36.7042540" lon="-2.7844770">
        <ele>92.0</ele>
        <time>2022-11-01T12:26:26Z</time>
      </trkpt>
      <trkpt lat="36.7041920" lon="-2.7844020">
        <ele>91.8</ele>
        <time>2022-11-01T12:26:27Z</time>
      </trkpt>
      <trkpt lat="36.7041320" lon="-2.7843270">
        <ele>91.6</ele>
        <time>2022-11-01T12:26:28Z</time>
      </trkpt>
      <trkpt lat="36.7040710" lon="-2.7842550">
        <ele>91.4</ele>
        <time>2022-11-01T12:26:29Z</time>
      </trkpt>
      <trkpt lat="36.7040110" lon="-2.7841820">
        <ele>91.2</ele>
        <time>2022-11-01T12:26:30Z</time>
      </trkpt>
      <trkpt lat="36.7039520" lon="-2.7841080">
        <ele>91.2</ele>
        <time>2022-11-01T12:26:31Z</time>
      </trkpt>
      <trkpt lat="36.7038920" lon="-2.7840370">
        <ele>91.0</ele>
        <time>2022-11-01T12:26:32Z</time>
      </trkpt>
      <trkpt lat="36.7038320" lon="-2.7839660">
        <ele>91.0</ele>
        <time>2022-11-01T12:26:33Z</time>
      </trkpt>
      <trkpt lat="36.7037720" lon="-2.7838930">
        <ele>90.8</ele>
        <time>2022-11-01T12:26:34Z</time>
      </trkpt>
      <trkpt lat="36.7037130" lon="-2.7838220">
        <ele>90.8</ele>
        <time>2022-11-01T12:26:35Z</time>
      </trkpt>
      <trkpt lat="36.7036550" lon="-2.7837490">
        <ele>90.6</ele>
        <time>2022-11-01T12:26:36Z</time>
      </trkpt>
      <trkpt lat="36.7035950" lon="-2.7836740">
        <ele>90.4</ele>
        <time>2022-11-01T12:26:37Z</time>
      </trkpt>
      <trkpt lat="36.7035350" lon="-2.7836020">
        <ele>90.2</ele>
        <time>2022-11-01T12:26:38Z</time>
      </trkpt>
      <trkpt lat="36.7034740" lon="-2.7835280">
        <ele>90.2</ele>
        <time>2022-11-01T12:26:39Z</time>
      </trkpt>
      <trkpt lat="36.7034140" lon="-2.7834540">
        <ele>90.2</ele>
        <time>2022-11-01T12:26:40Z</time>
      </trkpt>
      <trkpt lat="36.7033540" lon="-2.7833820">
        <ele>90.0</ele>
        <time>2022-11-01T12:26:41Z</time>
      </trkpt>
      <trkpt lat="36.7032950" lon="-2.7833080">
        <ele>90.0</ele>
        <time>2022-11-01T12:26:42Z</time>
      </trkpt>
      <trkpt lat="36.7032350" lon="-2.7832370">
        <ele>89.8</ele>
        <time>2022-11-01T12:26:43Z</time>
      </trkpt>
      <trkpt lat="36.7031770" lon="-2.7831630">
        <ele>89.8</ele>
        <time>2022-11-01T12:26:44Z</time>
      </trkpt>
      <trkpt lat="36.7031190" lon="-2.7830890">
        <ele>89.4</ele>
        <time>2022-11-01T12:26:45Z</time>
      </trkpt>
      <trkpt lat="36.7030610" lon="-2.7830150">
        <ele>89.2</ele>
        <time>2022-11-01T12:26:46Z</time>
      </trkpt>
      <trkpt lat="36.7030050" lon="-2.7829450">
        <ele>89.0</ele>
        <time>2022-11-01T12:26:47Z</time>
      </trkpt>
      <trkpt lat="36.7029480" lon="-2.7828730">
        <ele>89.0</ele>
        <time>2022-11-01T12:26:48Z</time>
      </trkpt>
      <trkpt lat="36.7028920" lon="-2.7828010">
        <ele>88.8</ele>
        <time>2022-11-01T12:26:49Z</time>
      </trkpt>
      <trkpt lat="36.7028370" lon="-2.7827300">
        <ele>88.6</ele>
        <time>2022-11-01T12:26:50Z</time>
      </trkpt>
      <trkpt lat="36.7027820" lon="-2.7826600">
        <ele>88.6</ele>
        <time>2022-11-01T12:26:51Z</time>
      </trkpt>
      <trkpt lat="36.7027290" lon="-2.7825910">
        <ele>88.2</ele>
        <time>2022-11-01T12:26:52Z</time>
      </trkpt>
      <trkpt lat="36.7026760" lon="-2.7825200">
        <ele>88.2</ele>
        <time>2022-11-01T12:26:53Z</time>
      </trkpt>
      <trkpt lat="36.7026220" lon="-2.7824490">
        <ele>88.2</ele>
        <time>2022-11-01T12:26:54Z</time>
      </trkpt>
      <trkpt lat="36.7025680" lon="-2.7823780">
        <ele>87.8</ele>
        <time>2022-11-01T12:26:55Z</time>
      </trkpt>
      <trkpt lat="36.7025150" lon="-2.7823050">
        <ele>87.8</ele>
        <time>2022-11-01T12:26:56Z</time>
      </trkpt>
      <trkpt lat="36.7024600" lon="-2.7822320">
        <ele>87.4</ele>
        <time>2022-11-01T12:26:57Z</time>
      </trkpt>
      <trkpt lat="36.7024060" lon="-2.7821580">
        <ele>87.2</ele>
        <time>2022-11-01T12:26:58Z</time>
      </trkpt>
      <trkpt lat="36.7023490" lon="-2.7820830">
        <ele>87.0</ele>
        <time>2022-11-01T12:26:59Z</time>
      </trkpt>
      <trkpt lat="36.7022920" lon="-2.7820090">
        <ele>86.8</ele>
        <time>2022-11-01T12:27:00Z</time>
      </trkpt>
      <trkpt lat="36.7022340" lon="-2.7819350">
        <ele>86.4</ele>
        <time>2022-11-01T12:27:01Z</time>
      </trkpt>
      <trkpt lat="36.7021790" lon="-2.7818560">
        <ele>86.4</ele>
        <time>2022-11-01T12:27:02Z</time>
      </trkpt>
      <trkpt lat="36.7021230" lon="-2.7817790">
        <ele>86.2</ele>
        <time>2022-11-01T12:27:03Z</time>
      </trkpt>
      <trkpt lat="36.7020640" lon="-2.7817020">
        <ele>85.8</ele>
        <time>2022-11-01T12:27:04Z</time>
      </trkpt>
      <trkpt lat="36.7020050" lon="-2.7816220">
        <ele>85.6</ele>
        <time>2022-11-01T12:27:05Z</time>
      </trkpt>
      <trkpt lat="36.7019440" lon="-2.7815370">
        <ele>85.2</ele>
        <time>2022-11-01T12:27:06Z</time>
      </trkpt>
      <trkpt lat="36.7018800" lon="-2.7814530">
        <ele>85.0</ele>
        <time>2022-11-01T12:27:07Z</time>
      </trkpt>
      <trkpt lat="36.7018180" lon="-2.7813740">
        <ele>84.6</ele>
        <time>2022-11-01T12:27:08Z</time>
      </trkpt>
      <trkpt lat="36.7017550" lon="-2.7812910">
        <ele>84.4</ele>
        <time>2022-11-01T12:27:09Z</time>
      </trkpt>
      <trkpt lat="36.7016910" lon="-2.7812050">
        <ele>84.0</ele>
        <time>2022-11-01T12:27:10Z</time>
      </trkpt>
      <trkpt lat="36.7016260" lon="-2.7811200">
        <ele>83.8</ele>
        <time>2022-11-01T12:27:11Z</time>
      </trkpt>
      <trkpt lat="36.7015600" lon="-2.7810320">
        <ele>83.4</ele>
        <time>2022-11-01T12:27:12Z</time>
      </trkpt>
      <trkpt lat="36.7014960" lon="-2.7809440">
        <ele>83.2</ele>
        <time>2022-11-01T12:27:13Z</time>
      </trkpt>
      <trkpt lat="36.7014320" lon="-2.7808580">
        <ele>82.8</ele>
        <time>2022-11-01T12:27:14Z</time>
      </trkpt>
      <trkpt lat="36.7013690" lon="-2.7807720">
        <ele>82.6</ele>
        <time>2022-11-01T12:27:15Z</time>
      </trkpt>
      <trkpt lat="36.7013070" lon="-2.7806860">
        <ele>82.6</ele>
        <time>2022-11-01T12:27:16Z</time>
      </trkpt>
      <trkpt lat="36.7012470" lon="-2.7805980">
        <ele>82.4</ele>
        <time>2022-11-01T12:27:17Z</time>
      </trkpt>
      <trkpt lat="36.7011900" lon="-2.7805090">
        <ele>82.2</ele>
        <time>2022-11-01T12:27:18Z</time>
      </trkpt>
      <trkpt lat="36.7011380" lon="-2.7804140">
        <ele>82.2</ele>
        <time>2022-11-01T12:27:19Z</time>
      </trkpt>
      <trkpt lat="36.7010900" lon="-2.7803180">
        <ele>82.0</ele>
        <time>2022-11-01T12:27:20Z</time>
      </trkpt>
      <trkpt lat="36.7010470" lon="-2.7802180">
        <ele>82.0</ele>
        <time>2022-11-01T12:27:21Z</time>
      </trkpt>
      <trkpt lat="36.7010070" lon="-2.7801170">
        <ele>81.8</ele>
        <time>2022-11-01T12:27:22Z</time>
      </trkpt>
      <trkpt lat="36.7009700" lon="-2.7800150">
        <ele>81.8</ele>
        <time>2022-11-01T12:27:23Z</time>
      </trkpt>
      <trkpt lat="36.7009360" lon="-2.7799100">
        <ele>81.8</ele>
        <time>2022-11-01T12:27:24Z</time>
      </trkpt>
      <trkpt lat="36.7009030" lon="-2.7798050">
        <ele>81.6</ele>
        <time>2022-11-01T12:27:25Z</time>
      </trkpt>
      <trkpt lat="36.7008700" lon="-2.7797020">
        <ele>81.6</ele>
        <time>2022-11-01T12:27:26Z</time>
      </trkpt>
      <trkpt lat="36.7008360" lon="-2.7796010">
        <ele>81.6</ele>
        <time>2022-11-01T12:27:27Z</time>
      </trkpt>
      <trkpt lat="36.7008020" lon="-2.7795000">
        <ele>81.4</ele>
        <time>2022-11-01T12:27:28Z</time>
      </trkpt>
      <trkpt lat="36.7007700" lon="-2.7793990">
        <ele>81.4</ele>
        <time>2022-11-01T12:27:29Z</time>
      </trkpt>
      <trkpt lat="36.7007390" lon="-2.7793010">
        <ele>81.4</ele>
        <time>2022-11-01T12:27:30Z</time>
      </trkpt>
      <trkpt lat="36.7007070" lon="-2.7792030">
        <ele>81.4</ele>
        <time>2022-11-01T12:27:31Z</time>
      </trkpt>
      <trkpt lat="36.7006770" lon="-2.7791050">
        <ele>81.4</ele>
        <time>2022-11-01T12:27:32Z</time>
      </trkpt>
      <trkpt lat="36.7006480" lon="-2.7790080">
        <ele>81.4</ele>
        <time>2022-11-01T12:27:33Z</time>
      </trkpt>
      <trkpt lat="36.7006150" lon="-2.7789130">
        <ele>81.4</ele>
        <time>2022-11-01T12:27:34Z</time>
      </trkpt>
      <trkpt lat="36.7005840" lon="-2.7788190">
        <ele>81.4</ele>
        <time>2022-11-01T12:27:35Z</time>
      </trkpt>
      <trkpt lat="36.7005530" lon="-2.7787220">
        <ele>81.4</ele>
        <time>2022-11-01T12:27:36Z</time>
      </trkpt>
      <trkpt lat="36.7005230" lon="-2.7786290">
        <ele>81.2</ele>
        <time>2022-11-01T12:27:37Z</time>
      </trkpt>
      <trkpt lat="36.7004920" lon="-2.7785350">
        <ele>81.2</ele>
        <time>2022-11-01T12:27:38Z</time>
      </trkpt>
      <trkpt lat="36.7004620" lon="-2.7784400">
        <ele>81.2</ele>
        <time>2022-11-01T12:27:39Z</time>
      </trkpt>
      <trkpt lat="36.7004310" lon="-2.7783470">
        <ele>81.2</ele>
        <time>2022-11-01T12:27:40Z</time>
      </trkpt>
      <trkpt lat="36.7004000" lon="-2.7782550">
        <ele>81.0</ele>
        <time>2022-11-01T12:27:41Z</time>
      </trkpt>
      <trkpt lat="36.7003700" lon="-2.7781590">
        <ele>81.0</ele>
        <time>2022-11-01T12:27:42Z</time>
      </trkpt>
      <trkpt lat="36.7003400" lon="-2.7780630">
        <ele>80.8</ele>
        <time>2022-11-01T12:27:43Z</time>
      </trkpt>
      <trkpt lat="36.7003100" lon="-2.7779680">
        <ele>80.8</ele>
        <time>2022-11-01T12:27:44Z</time>
      </trkpt>
      <trkpt lat="36.7002810" lon="-2.7778720">
        <ele>80.8</ele>
        <time>2022-11-01T12:27:45Z</time>
      </trkpt>
      <trkpt lat="36.7002510" lon="-2.7777770">
        <ele>80.8</ele>
        <time>2022-11-01T12:27:46Z</time>
      </trkpt>
      <trkpt lat="36.7002210" lon="-2.7776820">
        <ele>80.8</ele>
        <time>2022-11-01T12:27:47Z</time>
      </trkpt>
      <trkpt lat="36.7001900" lon="-2.7775860">
        <ele>80.6</ele>
        <time>2022-11-01T12:27:48Z</time>
      </trkpt>
      <trkpt lat="36.7001590" lon="-2.7774920">
        <ele>80.6</ele>
        <time>2022-11-01T12:27:49Z</time>
      </trkpt>
      <trkpt lat="36.7001290" lon="-2.7773950">
        <ele>80.4</ele>
        <time>2022-11-01T12:27:50Z</time>
      </trkpt>
      <trkpt lat="36.7000990" lon="-2.7772990">
        <ele>80.4</ele>
        <time>2022-11-01T12:27:51Z</time>
      </trkpt>
      <trkpt lat="36.7000700" lon="-2.7772010">
        <ele>80.4</ele>
        <time>2022-11-01T12:27:52Z</time>
      </trkpt>
      <trkpt lat="36.7000470" lon="-2.7771000">
        <ele>80.4</ele>
        <time>2022-11-01T12:27:53Z</time>
      </trkpt>
      <trkpt lat="36.7000260" lon="-2.7770010">
        <ele>80.4</ele>
        <time>2022-11-01T12:27:54Z</time>
      </trkpt>
      <trkpt lat="36.7000070" lon="-2.7769020">
        <ele>80.4</ele>
        <time>2022-11-01T12:27:55Z</time>
      </trkpt>
      <trkpt lat="36.6999890" lon="-2.7768010">
        <ele>80.2</ele>
        <time>2022-11-01T12:27:56Z</time>
      </trkpt>
      <trkpt lat="36.6999710" lon="-2.7767010">
        <ele>80.2</ele>
        <time>2022-11-01T12:27:57Z</time>
      </trkpt>
      <trkpt lat="36.6999540" lon="-2.7766010">
        <ele>80.2</ele>
        <time>2022-11-01T12:27:58Z</time>
      </trkpt>
      <trkpt lat="36.6999370" lon="-2.7764990">
        <ele>80.2</ele>
        <time>2022-11-01T12:27:59Z</time>
      </trkpt>
      <trkpt lat="36.6999210" lon="-2.7763950">
        <ele>80.0</ele>
        <time>2022-11-01T12:28:00Z</time>
      </trkpt>
      <trkpt lat="36.6999060" lon="-2.7762920">
        <ele>80.0</ele>
        <time>2022-11-01T12:28:01Z</time>
      </trkpt>
      <trkpt lat="36.6998910" lon="-2.7761900">
        <ele>80.0</ele>
        <time>2022-11-01T12:28:02Z</time>
      </trkpt>
      <trkpt lat="36.6998750" lon="-2.7760860">
        <ele>79.8</ele>
        <time>2022-11-01T12:28:03Z</time>
      </trkpt>
      <trkpt lat="36.6998580" lon="-2.7759820">
        <ele>79.8</ele>
        <time>2022-11-01T12:28:04Z</time>
      </trkpt>
      <trkpt lat="36.6998430" lon="-2.7758820">
        <ele>79.8</ele>
        <time>2022-11-01T12:28:05Z</time>
      </trkpt>
      <trkpt lat="36.6998260" lon="-2.7757870">
        <ele>79.8</ele>
        <time>2022-11-01T12:28:06Z</time>
      </trkpt>
      <trkpt lat="36.6998090" lon="-2.7756870">
        <ele>79.8</ele>
        <time>2022-11-01T12:28:07Z</time>
      </trkpt>
      <trkpt lat="36.6997930" lon="-2.7755850">
        <ele>79.6</ele>
        <time>2022-11-01T12:28:08Z</time>
      </trkpt>
      <trkpt lat="36.6997780" lon="-2.7754830">
        <ele>79.6</ele>
        <time>2022-11-01T12:28:09Z</time>
      </trkpt>
      <trkpt lat="36.6997630" lon="-2.7753800">
        <ele>79.4</ele>
        <time>2022-11-01T12:28:10Z</time>
      </trkpt>
      <trkpt lat="36.6997460" lon="-2.7752780">
        <ele>79.4</ele>
        <time>2022-11-01T12:28:11Z</time>
      </trkpt>
      <trkpt lat="36.6997290" lon="-2.7751750">
        <ele>79.4</ele>
        <time>2022-11-01T12:28:12Z</time>
      </trkpt>
      <trkpt lat="36.6997130" lon="-2.7750710">
        <ele>79.2</ele>
        <time>2022-11-01T12:28:13Z</time>
      </trkpt>
      <trkpt lat="36.6996960" lon="-2.7749660">
        <ele>79.2</ele>
        <time>2022-11-01T12:28:14Z</time>
      </trkpt>
      <trkpt lat="36.6996790" lon="-2.7748620">
        <ele>79.2</ele>
        <time>2022-11-01T12:28:15Z</time>
      </trkpt>
      <trkpt lat="36.6996620" lon="-2.7747570">
        <ele>79.2</ele>
        <time>2022-11-01T12:28:16Z</time>
      </trkpt>
      <trkpt lat="36.6996440" lon="-2.7746530">
        <ele>79.2</ele>
        <time>2022-11-01T12:28:17Z</time>
      </trkpt>
      <trkpt lat="36.6996260" lon="-2.7745480">
        <ele>79.0</ele>
        <time>2022-11-01T12:28:18Z</time>
      </trkpt>
      <trkpt lat="36.6996080" lon="-2.7744420">
        <ele>79.0</ele>
        <time>2022-11-01T12:28:19Z</time>
      </trkpt>
      <trkpt lat="36.6995900" lon="-2.7743370">
        <ele>78.8</ele>
        <time>2022-11-01T12:28:20Z</time>
      </trkpt>
      <trkpt lat="36.6995730" lon="-2.7742310">
        <ele>78.6</ele>
        <time>2022-11-01T12:28:21Z</time>
      </trkpt>
      <trkpt lat="36.6995560" lon="-2.7741260">
        <ele>78.6</ele>
        <time>2022-11-01T12:28:22Z</time>
      </trkpt>
      <trkpt lat="36.6995390" lon="-2.7740200">
        <ele>78.4</ele>
        <time>2022-11-01T12:28:23Z</time>
      </trkpt>
      <trkpt lat="36.6995230" lon="-2.7739150">
        <ele>78.4</ele>
        <time>2022-11-01T12:28:24Z</time>
      </trkpt>
      <trkpt lat="36.6995080" lon="-2.7738100">
        <ele>78.4</ele>
        <time>2022-11-01T12:28:25Z</time>
      </trkpt>
      <trkpt lat="36.6994930" lon="-2.7737070">
        <ele>78.4</ele>
        <time>2022-11-01T12:28:26Z</time>
      </trkpt>
      <trkpt lat="36.6994760" lon="-2.7736040">
        <ele>78.4</ele>
        <time>2022-11-01T12:28:27Z</time>
      </trkpt>
      <trkpt lat="36.6994590" lon="-2.7734980">
        <ele>78.4</ele>
        <time>2022-11-01T12:28:28Z</time>
      </trkpt>
      <trkpt lat="36.6994410" lon="-2.7733930">
        <ele>78.4</ele>
        <time>2022-11-01T12:28:29Z</time>
      </trkpt>
      <trkpt lat="36.6994230" lon="-2.7732890">
        <ele>78.4</ele>
        <time>2022-11-01T12:28:30Z</time>
      </trkpt>
      <trkpt lat="36.6994060" lon="-2.7731830">
        <ele>78.2</ele>
        <time>2022-11-01T12:28:31Z</time>
      </trkpt>
      <trkpt lat="36.6993890" lon="-2.7730780">
        <ele>78.2</ele>
        <time>2022-11-01T12:28:32Z</time>
      </trkpt>
      <trkpt lat="36.6993720" lon="-2.7729720">
        <ele>78.2</ele>
        <time>2022-11-01T12:28:33Z</time>
      </trkpt>
      <trkpt lat="36.6993550" lon="-2.7728710">
        <ele>78.4</ele>
        <time>2022-11-01T12:28:34Z</time>
      </trkpt>
      <trkpt lat="36.6993370" lon="-2.7727670">
        <ele>78.2</ele>
        <time>2022-11-01T12:28:35Z</time>
      </trkpt>
      <trkpt lat="36.6993190" lon="-2.7726630">
        <ele>78.2</ele>
        <time>2022-11-01T12:28:36Z</time>
      </trkpt>
      <trkpt lat="36.6993020" lon="-2.7725590">
        <ele>78.0</ele>
        <time>2022-11-01T12:28:37Z</time>
      </trkpt>
      <trkpt lat="36.6992840" lon="-2.7724560">
        <ele>78.0</ele>
        <time>2022-11-01T12:28:38Z</time>
      </trkpt>
      <trkpt lat="36.6992640" lon="-2.7723530">
        <ele>78.0</ele>
        <time>2022-11-01T12:28:39Z</time>
      </trkpt>
      <trkpt lat="36.6992460" lon="-2.7722520">
        <ele>78.0</ele>
        <time>2022-11-01T12:28:40Z</time>
      </trkpt>
      <trkpt lat="36.6992300" lon="-2.7721510">
        <ele>78.0</ele>
        <time>2022-11-01T12:28:41Z</time>
      </trkpt>
      <trkpt lat="36.6992140" lon="-2.7720490">
        <ele>78.0</ele>
        <time>2022-11-01T12:28:42Z</time>
      </trkpt>
      <trkpt lat="36.6991970" lon="-2.7719460">
        <ele>78.0</ele>
        <time>2022-11-01T12:28:43Z</time>
      </trkpt>
      <trkpt lat="36.6991810" lon="-2.7718430">
        <ele>78.0</ele>
        <time>2022-11-01T12:28:44Z</time>
      </trkpt>
      <trkpt lat="36.6991640" lon="-2.7717400">
        <ele>78.0</ele>
        <time>2022-11-01T12:28:45Z</time>
      </trkpt>
      <trkpt lat="36.6991480" lon="-2.7716370">
        <ele>78.0</ele>
        <time>2022-11-01T12:28:46Z</time>
      </trkpt>
      <trkpt lat="36.6991310" lon="-2.7715310">
        <ele>78.0</ele>
        <time>2022-11-01T12:28:47Z</time>
      </trkpt>
      <trkpt lat="36.6991160" lon="-2.7714250">
        <ele>78.0</ele>
        <time>2022-11-01T12:28:48Z</time>
      </trkpt>
      <trkpt lat="36.6990990" lon="-2.7713200">
        <ele>78.0</ele>
        <time>2022-11-01T12:28:49Z</time>
      </trkpt>
      <trkpt lat="36.6990810" lon="-2.7712170">
        <ele>78.0</ele>
        <time>2022-11-01T12:28:50Z</time>
      </trkpt>
      <trkpt lat="36.6990650" lon="-2.7711120">
        <ele>78.0</ele>
        <time>2022-11-01T12:28:51Z</time>
      </trkpt>
      <trkpt lat="36.6990490" lon="-2.7710100">
        <ele>78.0</ele>
        <time>2022-11-01T12:28:52Z</time>
      </trkpt>
      <trkpt lat="36.6990310" lon="-2.7709070">
        <ele>78.0</ele>
        <time>2022-11-01T12:28:53Z</time>
      </trkpt>
      <trkpt lat="36.6990140" lon="-2.7708080">
        <ele>78.0</ele>
        <time>2022-11-01T12:28:54Z</time>
      </trkpt>
      <trkpt lat="36.6989980" lon="-2.7707060">
        <ele>78.0</ele>
        <time>2022-11-01T12:28:55Z</time>
      </trkpt>
      <trkpt lat="36.6989820" lon="-2.7706030">
        <ele>78.0</ele>
        <time>2022-11-01T12:28:56Z</time>
      </trkpt>
      <trkpt lat="36.6989650" lon="-2.7705010">
        <ele>78.0</ele>
        <time>2022-11-01T12:28:57Z</time>
      </trkpt>
      <trkpt lat="36.6989480" lon="-2.7704000">
        <ele>78.2</ele>
        <time>2022-11-01T12:28:58Z</time>
      </trkpt>
      <trkpt lat="36.6989320" lon="-2.7703000">
        <ele>78.2</ele>
        <time>2022-11-01T12:28:59Z</time>
      </trkpt>
      <trkpt lat="36.6989140" lon="-2.7702000">
        <ele>78.2</ele>
        <time>2022-11-01T12:29:00Z</time>
      </trkpt>
      <trkpt lat="36.6988970" lon="-2.7701000">
        <ele>78.2</ele>
        <time>2022-11-01T12:29:01Z</time>
      </trkpt>
      <trkpt lat="36.6988820" lon="-2.7700000">
        <ele>78.2</ele>
        <time>2022-11-01T12:29:02Z</time>
      </trkpt>
      <trkpt lat="36.6988640" lon="-2.7699030">
        <ele>78.2</ele>
        <time>2022-11-01T12:29:03Z</time>
      </trkpt>
      <trkpt lat="36.6988490" lon="-2.7698070">
        <ele>78.2</ele>
        <time>2022-11-01T12:29:04Z</time>
      </trkpt>
      <trkpt lat="36.6988350" lon="-2.7697120">
        <ele>78.2</ele>
        <time>2022-11-01T12:29:05Z</time>
      </trkpt>
      <trkpt lat="36.6988210" lon="-2.7696210">
        <ele>78.2</ele>
        <time>2022-11-01T12:29:06Z</time>
      </trkpt>
      <trkpt lat="36.6988080" lon="-2.7695310">
        <ele>78.2</ele>
        <time>2022-11-01T12:29:07Z</time>
      </trkpt>
      <trkpt lat="36.6987960" lon="-2.7694430">
        <ele>78.0</ele>
        <time>2022-11-01T12:29:08Z</time>
      </trkpt>
      <trkpt lat="36.6987820" lon="-2.7693570">
        <ele>78.0</ele>
        <time>2022-11-01T12:29:09Z</time>
      </trkpt>
      <trkpt lat="36.6987690" lon="-2.7692710">
        <ele>77.8</ele>
        <time>2022-11-01T12:29:10Z</time>
      </trkpt>
      <trkpt lat="36.6987570" lon="-2.7691850">
        <ele>77.8</ele>
        <time>2022-11-01T12:29:11Z</time>
      </trkpt>
      <trkpt lat="36.6987460" lon="-2.7690990">
        <ele>77.8</ele>
        <time>2022-11-01T12:29:12Z</time>
      </trkpt>
      <trkpt lat="36.6987340" lon="-2.7690130">
        <ele>77.8</ele>
        <time>2022-11-01T12:29:13Z</time>
      </trkpt>
      <trkpt lat="36.6987210" lon="-2.7689270">
        <ele>77.8</ele>
        <time>2022-11-01T12:29:14Z</time>
      </trkpt>
      <trkpt lat="36.6987070" lon="-2.7688430">
        <ele>77.6</ele>
        <time>2022-11-01T12:29:15Z</time>
      </trkpt>
      <trkpt lat="36.6986930" lon="-2.7687620">
        <ele>77.4</ele>
        <time>2022-11-01T12:29:16Z</time>
      </trkpt>
      <trkpt lat="36.6986810" lon="-2.7686840">
        <ele>77.4</ele>
        <time>2022-11-01T12:29:17Z</time>
      </trkpt>
      <trkpt lat="36.6986720" lon="-2.7686090">
        <ele>77.2</ele>
        <time>2022-11-01T12:29:18Z</time>
      </trkpt>
      <trkpt lat="36.6986610" lon="-2.7685360">
        <ele>77.2</ele>
        <time>2022-11-01T12:29:19Z</time>
      </trkpt>
      <trkpt lat="36.6986500" lon="-2.7684640">
        <ele>77.0</ele>
        <time>2022-11-01T12:29:20Z</time>
      </trkpt>
      <trkpt lat="36.6986380" lon="-2.7683930">
        <ele>77.0</ele>
        <time>2022-11-01T12:29:21Z</time>
      </trkpt>
      <trkpt lat="36.6986280" lon="-2.7683260">
        <ele>77.0</ele>
        <time>2022-11-01T12:29:22Z</time>
      </trkpt>
      <trkpt lat="36.6986220" lon="-2.7682600">
        <ele>76.8</ele>
        <time>2022-11-01T12:29:23Z</time>
      </trkpt>
      <trkpt lat="36.6986190" lon="-2.7681930">
        <ele>76.8</ele>
        <time>2022-11-01T12:29:24Z</time>
      </trkpt>
      <trkpt lat="36.6986110" lon="-2.7681280">
        <ele>76.6</ele>
        <time>2022-11-01T12:29:25Z</time>
      </trkpt>
      <trkpt lat="36.6985970" lon="-2.7680630">
        <ele>76.6</ele>
        <time>2022-11-01T12:29:26Z</time>
      </trkpt>
      <trkpt lat="36.6985800" lon="-2.7679940">
        <ele>76.4</ele>
        <time>2022-11-01T12:29:27Z</time>
      </trkpt>
      <trkpt lat="36.6985680" lon="-2.7679200">
        <ele>76.4</ele>
        <time>2022-11-01T12:29:28Z</time>
      </trkpt>
      <trkpt lat="36.6985560" lon="-2.7678430">
        <ele>76.2</ele>
        <time>2022-11-01T12:29:29Z</time>
      </trkpt>
      <trkpt lat="36.6985430" lon="-2.7677660">
        <ele>76.2</ele>
        <time>2022-11-01T12:29:30Z</time>
      </trkpt>
      <trkpt lat="36.6985310" lon="-2.7676840">
        <ele>76.2</ele>
        <time>2022-11-01T12:29:31Z</time>
      </trkpt>
      <trkpt lat="36.6985200" lon="-2.7676000">
        <ele>76.0</ele>
        <time>2022-11-01T12:29:32Z</time>
      </trkpt>
      <trkpt lat="36.6985070" lon="-2.7675140">
        <ele>76.0</ele>
        <time>2022-11-01T12:29:33Z</time>
      </trkpt>
      <trkpt lat="36.6984940" lon="-2.7674280">
        <ele>76.0</ele>
        <time>2022-11-01T12:29:34Z</time>
      </trkpt>
      <trkpt lat="36.6984790" lon="-2.7673410">
        <ele>76.0</ele>
        <time>2022-11-01T12:29:35Z</time>
      </trkpt>
      <trkpt lat="36.6984660" lon="-2.7672530">
        <ele>76.0</ele>
        <time>2022-11-01T12:29:36Z</time>
      </trkpt>
      <trkpt lat="36.6984520" lon="-2.7671640">
        <ele>76.0</ele>
        <time>2022-11-01T12:29:37Z</time>
      </trkpt>
      <trkpt lat="36.6984380" lon="-2.7670730">
        <ele>76.0</ele>
        <time>2022-11-01T12:29:38Z</time>
      </trkpt>
      <trkpt lat="36.6984260" lon="-2.7669790">
        <ele>75.8</ele>
        <time>2022-11-01T12:29:39Z</time>
      </trkpt>
      <trkpt lat="36.6984110" lon="-2.7668850">
        <ele>75.6</ele>
        <time>2022-11-01T12:29:40Z</time>
      </trkpt>
      <trkpt lat="36.6983980" lon="-2.7667890">
        <ele>75.4</ele>
        <time>2022-11-01T12:29:41Z</time>
      </trkpt>
      <trkpt lat="36.6983840" lon="-2.7666930">
        <ele>75.4</ele>
        <time>2022-11-01T12:29:42Z</time>
      </trkpt>
      <trkpt lat="36.6983710" lon="-2.7665950">
        <ele>75.4</ele>
        <time>2022-11-01T12:29:43Z</time>
      </trkpt>
      <trkpt lat="36.6983560" lon="-2.7664970">
        <ele>75.4</ele>
        <time>2022-11-01T12:29:44Z</time>
      </trkpt>
      <trkpt lat="36.6983410" lon="-2.7663980">
        <ele>75.4</ele>
        <time>2022-11-01T12:29:45Z</time>
      </trkpt>
      <trkpt lat="36.6983270" lon="-2.7662990">
        <ele>75.2</ele>
        <time>2022-11-01T12:29:46Z</time>
      </trkpt>
      <trkpt lat="36.6983120" lon="-2.7661990">
        <ele>75.2</ele>
        <time>2022-11-01T12:29:47Z</time>
      </trkpt>
      <trkpt lat="36.6982960" lon="-2.7661000">
        <ele>75.2</ele>
        <time>2022-11-01T12:29:48Z</time>
      </trkpt>
      <trkpt lat="36.6982830" lon="-2.7659990">
        <ele>75.2</ele>
        <time>2022-11-01T12:29:49Z</time>
      </trkpt>
      <trkpt lat="36.6982670" lon="-2.7659000">
        <ele>75.2</ele>
        <time>2022-11-01T12:29:50Z</time>
      </trkpt>
      <trkpt lat="36.6982520" lon="-2.7658010">
        <ele>75.2</ele>
        <time>2022-11-01T12:29:51Z</time>
      </trkpt>
      <trkpt lat="36.6982360" lon="-2.7657040">
        <ele>75.2</ele>
        <time>2022-11-01T12:29:52Z</time>
      </trkpt>
      <trkpt lat="36.6982220" lon="-2.7656090">
        <ele>75.4</ele>
        <time>2022-11-01T12:29:53Z</time>
      </trkpt>
      <trkpt lat="36.6982110" lon="-2.7655120">
        <ele>75.4</ele>
        <time>2022-11-01T12:29:54Z</time>
      </trkpt>
      <trkpt lat="36.6981980" lon="-2.7654160">
        <ele>75.4</ele>
        <time>2022-11-01T12:29:55Z</time>
      </trkpt>
      <trkpt lat="36.6981830" lon="-2.7653200">
        <ele>75.2</ele>
        <time>2022-11-01T12:29:56Z</time>
      </trkpt>
      <trkpt lat="36.6981670" lon="-2.7652240">
        <ele>75.2</ele>
        <time>2022-11-01T12:29:57Z</time>
      </trkpt>
      <trkpt lat="36.6981530" lon="-2.7651280">
        <ele>75.2</ele>
        <time>2022-11-01T12:29:58Z</time>
      </trkpt>
      <trkpt lat="36.6981400" lon="-2.7650330">
        <ele>75.0</ele>
        <time>2022-11-01T12:29:59Z</time>
      </trkpt>
      <trkpt lat="36.6981250" lon="-2.7649390">
        <ele>74.8</ele>
        <time>2022-11-01T12:30:00Z</time>
      </trkpt>
      <trkpt lat="36.6981110" lon="-2.7648430">
        <ele>74.6</ele>
        <time>2022-11-01T12:30:01Z</time>
      </trkpt>
      <trkpt lat="36.6980960" lon="-2.7647460">
        <ele>74.4</ele>
        <time>2022-11-01T12:30:02Z</time>
      </trkpt>
      <trkpt lat="36.6980810" lon="-2.7646470">
        <ele>74.0</ele>
        <time>2022-11-01T12:30:03Z</time>
      </trkpt>
      <trkpt lat="36.6980680" lon="-2.7645490">
        <ele>73.8</ele>
        <time>2022-11-01T12:30:04Z</time>
      </trkpt>
      <trkpt lat="36.6980530" lon="-2.7644510">
        <ele>73.6</ele>
        <time>2022-11-01T12:30:05Z</time>
      </trkpt>
      <trkpt lat="36.6980390" lon="-2.7643520">
        <ele>73.4</ele>
        <time>2022-11-01T12:30:06Z</time>
      </trkpt>
      <trkpt lat="36.6980240" lon="-2.7642530">
        <ele>73.2</ele>
        <time>2022-11-01T12:30:07Z</time>
      </trkpt>
      <trkpt lat="36.6980100" lon="-2.7641550">
        <ele>73.0</ele>
        <time>2022-11-01T12:30:08Z</time>
      </trkpt>
      <trkpt lat="36.6979960" lon="-2.7640550">
        <ele>73.0</ele>
        <time>2022-11-01T12:30:09Z</time>
      </trkpt>
      <trkpt lat="36.6979800" lon="-2.7639520">
        <ele>72.6</ele>
        <time>2022-11-01T12:30:10Z</time>
      </trkpt>
      <trkpt lat="36.6979640" lon="-2.7638480">
        <ele>72.6</ele>
        <time>2022-11-01T12:30:11Z</time>
      </trkpt>
      <trkpt lat="36.6979470" lon="-2.7637420">
        <ele>72.4</ele>
        <time>2022-11-01T12:30:12Z</time>
      </trkpt>
      <trkpt lat="36.6979310" lon="-2.7636340">
        <ele>72.2</ele>
        <time>2022-11-01T12:30:13Z</time>
      </trkpt>
      <trkpt lat="36.6979160" lon="-2.7635250">
        <ele>72.0</ele>
        <time>2022-11-01T12:30:14Z</time>
      </trkpt>
      <trkpt lat="36.6979010" lon="-2.7634140">
        <ele>71.8</ele>
        <time>2022-11-01T12:30:15Z</time>
      </trkpt>
      <trkpt lat="36.6978840" lon="-2.7633040">
        <ele>71.6</ele>
        <time>2022-11-01T12:30:16Z</time>
      </trkpt>
      <trkpt lat="36.6978660" lon="-2.7631950">
        <ele>71.4</ele>
        <time>2022-11-01T12:30:17Z</time>
      </trkpt>
      <trkpt lat="36.6978500" lon="-2.7630870">
        <ele>71.2</ele>
        <time>2022-11-01T12:30:18Z</time>
      </trkpt>
      <trkpt lat="36.6978370" lon="-2.7629800">
        <ele>71.2</ele>
        <time>2022-11-01T12:30:19Z</time>
      </trkpt>
      <trkpt lat="36.6978200" lon="-2.7628740">
        <ele>71.0</ele>
        <time>2022-11-01T12:30:20Z</time>
      </trkpt>
      <trkpt lat="36.6978030" lon="-2.7627680">
        <ele>70.6</ele>
        <time>2022-11-01T12:30:21Z</time>
      </trkpt>
      <trkpt lat="36.6977860" lon="-2.7626620">
        <ele>70.6</ele>
        <time>2022-11-01T12:30:22Z</time>
      </trkpt>
      <trkpt lat="36.6977690" lon="-2.7625570">
        <ele>70.4</ele>
        <time>2022-11-01T12:30:23Z</time>
      </trkpt>
      <trkpt lat="36.6977550" lon="-2.7624500">
        <ele>70.2</ele>
        <time>2022-11-01T12:30:24Z</time>
      </trkpt>
      <trkpt lat="36.6977400" lon="-2.7623430">
        <ele>70.0</ele>
        <time>2022-11-01T12:30:25Z</time>
      </trkpt>
      <trkpt lat="36.6977240" lon="-2.7622330">
        <ele>69.8</ele>
        <time>2022-11-01T12:30:26Z</time>
      </trkpt>
      <trkpt lat="36.6977070" lon="-2.7621220">
        <ele>69.6</ele>
        <time>2022-11-01T12:30:27Z</time>
      </trkpt>
      <trkpt lat="36.6976900" lon="-2.7620100">
        <ele>69.4</ele>
        <time>2022-11-01T12:30:28Z</time>
      </trkpt>
      <trkpt lat="36.6976730" lon="-2.7618950">
        <ele>69.2</ele>
        <time>2022-11-01T12:30:29Z</time>
      </trkpt>
      <trkpt lat="36.6976560" lon="-2.7617800">
        <ele>69.0</ele>
        <time>2022-11-01T12:30:30Z</time>
      </trkpt>
      <trkpt lat="36.6976400" lon="-2.7616650">
        <ele>68.8</ele>
        <time>2022-11-01T12:30:31Z</time>
      </trkpt>
      <trkpt lat="36.6976250" lon="-2.7615520">
        <ele>68.6</ele>
        <time>2022-11-01T12:30:32Z</time>
      </trkpt>
      <trkpt lat="36.6976090" lon="-2.7614390">
        <ele>68.6</ele>
        <time>2022-11-01T12:30:33Z</time>
      </trkpt>
      <trkpt lat="36.6975910" lon="-2.7613260">
        <ele>68.4</ele>
        <time>2022-11-01T12:30:34Z</time>
      </trkpt>
      <trkpt lat="36.6975740" lon="-2.7612110">
        <ele>68.2</ele>
        <time>2022-11-01T12:30:35Z</time>
      </trkpt>
      <trkpt lat="36.6975580" lon="-2.7610970">
        <ele>68.0</ele>
        <time>2022-11-01T12:30:36Z</time>
      </trkpt>
      <trkpt lat="36.6975420" lon="-2.7609820">
        <ele>68.0</ele>
        <time>2022-11-01T12:30:37Z</time>
      </trkpt>
      <trkpt lat="36.6975260" lon="-2.7608690">
        <ele>68.0</ele>
        <time>2022-11-01T12:30:38Z</time>
      </trkpt>
      <trkpt lat="36.6975080" lon="-2.7607580">
        <ele>67.8</ele>
        <time>2022-11-01T12:30:39Z</time>
      </trkpt>
      <trkpt lat="36.6974930" lon="-2.7606510">
        <ele>67.8</ele>
        <time>2022-11-01T12:30:40Z</time>
      </trkpt>
      <trkpt lat="36.6974790" lon="-2.7605420">
        <ele>67.8</ele>
        <time>2022-11-01T12:30:41Z</time>
      </trkpt>
      <trkpt lat="36.6974680" lon="-2.7604340">
        <ele>67.8</ele>
        <time>2022-11-01T12:30:42Z</time>
      </trkpt>
      <trkpt lat="36.6974630" lon="-2.7603280">
        <ele>67.8</ele>
        <time>2022-11-01T12:30:43Z</time>
      </trkpt>
      <trkpt lat="36.6974620" lon="-2.7602230">
        <ele>67.6</ele>
        <time>2022-11-01T12:30:44Z</time>
      </trkpt>
      <trkpt lat="36.6974640" lon="-2.7601180">
        <ele>67.6</ele>
        <time>2022-11-01T12:30:45Z</time>
      </trkpt>
      <trkpt lat="36.6974680" lon="-2.7600140">
        <ele>67.6</ele>
        <time>2022-11-01T12:30:46Z</time>
      </trkpt>
      <trkpt lat="36.6974730" lon="-2.7599150">
        <ele>67.6</ele>
        <time>2022-11-01T12:30:47Z</time>
      </trkpt>
      <trkpt lat="36.6974810" lon="-2.7598140">
        <ele>67.6</ele>
        <time>2022-11-01T12:30:48Z</time>
      </trkpt>
      <trkpt lat="36.6974860" lon="-2.7597130">
        <ele>67.4</ele>
        <time>2022-11-01T12:30:49Z</time>
      </trkpt>
      <trkpt lat="36.6974920" lon="-2.7596160">
        <ele>67.4</ele>
        <time>2022-11-01T12:30:50Z</time>
      </trkpt>
      <trkpt lat="36.6975010" lon="-2.7595140">
        <ele>67.2</ele>
        <time>2022-11-01T12:30:51Z</time>
      </trkpt>
      <trkpt lat="36.6975070" lon="-2.7594120">
        <ele>67.0</ele>
        <time>2022-11-01T12:30:52Z</time>
      </trkpt>
      <trkpt lat="36.6975120" lon="-2.7593100">
        <ele>66.8</ele>
        <time>2022-11-01T12:30:53Z</time>
      </trkpt>
      <trkpt lat="36.6975160" lon="-2.7592070">
        <ele>66.8</ele>
        <time>2022-11-01T12:30:54Z</time>
      </trkpt>
      <trkpt lat="36.6975230" lon="-2.7591040">
        <ele>66.6</ele>
        <time>2022-11-01T12:30:55Z</time>
      </trkpt>
      <trkpt lat="36.6975290" lon="-2.7590000">
        <ele>66.4</ele>
        <time>2022-11-01T12:30:56Z</time>
      </trkpt>
      <trkpt lat="36.6975360" lon="-2.7588940">
        <ele>66.2</ele>
        <time>2022-11-01T12:30:57Z</time>
      </trkpt>
      <trkpt lat="36.6975420" lon="-2.7587890">
        <ele>66.0</ele>
        <time>2022-11-01T12:30:58Z</time>
      </trkpt>
      <trkpt lat="36.6975470" lon="-2.7586810">
        <ele>66.0</ele>
        <time>2022-11-01T12:30:59Z</time>
      </trkpt>
      <trkpt lat="36.6975540" lon="-2.7585700">
        <ele>65.8</ele>
        <time>2022-11-01T12:31:00Z</time>
      </trkpt>
      <trkpt lat="36.6975620" lon="-2.7584580">
        <ele>65.8</ele>
        <time>2022-11-01T12:31:01Z</time>
      </trkpt>
      <trkpt lat="36.6975680" lon="-2.7583490">
        <ele>65.8</ele>
        <time>2022-11-01T12:31:02Z</time>
      </trkpt>
      <trkpt lat="36.6975730" lon="-2.7582440">
        <ele>65.6</ele>
        <time>2022-11-01T12:31:03Z</time>
      </trkpt>
      <trkpt lat="36.6975840" lon="-2.7581340">
        <ele>65.6</ele>
        <time>2022-11-01T12:31:04Z</time>
      </trkpt>
      <trkpt lat="36.6975910" lon="-2.7580240">
        <ele>65.4</ele>
        <time>2022-11-01T12:31:05Z</time>
      </trkpt>
      <trkpt lat="36.6975990" lon="-2.7579090">
        <ele>65.2</ele>
        <time>2022-11-01T12:31:06Z</time>
      </trkpt>
      <trkpt lat="36.6976080" lon="-2.7577920">
        <ele>65.0</ele>
        <time>2022-11-01T12:31:07Z</time>
      </trkpt>
      <trkpt lat="36.6976130" lon="-2.7576730">
        <ele>64.6</ele>
        <time>2022-11-01T12:31:08Z</time>
      </trkpt>
      <trkpt lat="36.6976210" lon="-2.7575550">
        <ele>64.4</ele>
        <time>2022-11-01T12:31:09Z</time>
      </trkpt>
      <trkpt lat="36.6976330" lon="-2.7574380">
        <ele>64.2</ele>
        <time>2022-11-01T12:31:10Z</time>
      </trkpt>
      <trkpt lat="36.6976410" lon="-2.7573200">
        <ele>63.8</ele>
        <time>2022-11-01T12:31:11Z</time>
      </trkpt>
      <trkpt lat="36.6976470" lon="-2.7572010">
        <ele>63.6</ele>
        <time>2022-11-01T12:31:12Z</time>
      </trkpt>
      <trkpt lat="36.6976550" lon="-2.7570840">
        <ele>63.4</ele>
        <time>2022-11-01T12:31:13Z</time>
      </trkpt>
      <trkpt lat="36.6976620" lon="-2.7569650">
        <ele>63.2</ele>
        <time>2022-11-01T12:31:14Z</time>
      </trkpt>
      <trkpt lat="36.6976710" lon="-2.7568460">
        <ele>63.0</ele>
        <time>2022-11-01T12:31:15Z</time>
      </trkpt>
      <trkpt lat="36.6976790" lon="-2.7567280">
        <ele>62.8</ele>
        <time>2022-11-01T12:31:16Z</time>
      </trkpt>
      <trkpt lat="36.6976880" lon="-2.7566080">
        <ele>62.6</ele>
        <time>2022-11-01T12:31:17Z</time>
      </trkpt>
      <trkpt lat="36.6976950" lon="-2.7564910">
        <ele>62.6</ele>
        <time>2022-11-01T12:31:18Z</time>
      </trkpt>
      <trkpt lat="36.6977010" lon="-2.7563750">
        <ele>62.4</ele>
        <time>2022-11-01T12:31:19Z</time>
      </trkpt>
      <trkpt lat="36.6977060" lon="-2.7562590">
        <ele>62.4</ele>
        <time>2022-11-01T12:31:20Z</time>
      </trkpt>
      <trkpt lat="36.6977130" lon="-2.7561460">
        <ele>62.2</ele>
        <time>2022-11-01T12:31:21Z</time>
      </trkpt>
      <trkpt lat="36.6977210" lon="-2.7560390">
        <ele>62.2</ele>
        <time>2022-11-01T12:31:22Z</time>
      </trkpt>
      <trkpt lat="36.6977290" lon="-2.7559370">
        <ele>62.2</ele>
        <time>2022-11-01T12:31:23Z</time>
      </trkpt>
      <trkpt lat="36.6977380" lon="-2.7558370">
        <ele>62.0</ele>
        <time>2022-11-01T12:31:24Z</time>
      </trkpt>
      <trkpt lat="36.6977450" lon="-2.7557380">
        <ele>61.8</ele>
        <time>2022-11-01T12:31:25Z</time>
      </trkpt>
      <trkpt lat="36.6977530" lon="-2.7556440">
        <ele>61.8</ele>
        <time>2022-11-01T12:31:26Z</time>
      </trkpt>
      <trkpt lat="36.6977610" lon="-2.7555490">
        <ele>61.6</ele>
        <time>2022-11-01T12:31:27Z</time>
      </trkpt>
      <trkpt lat="36.6977690" lon="-2.7554540">
        <ele>61.6</ele>
        <time>2022-11-01T12:31:28Z</time>
      </trkpt>
      <trkpt lat="36.6977740" lon="-2.7553610">
        <ele>61.6</ele>
        <time>2022-11-01T12:31:29Z</time>
      </trkpt>
      <trkpt lat="36.6977810" lon="-2.7552700">
        <ele>61.6</ele>
        <time>2022-11-01T12:31:30Z</time>
      </trkpt>
      <trkpt lat="36.6977890" lon="-2.7551800">
        <ele>61.4</ele>
        <time>2022-11-01T12:31:31Z</time>
      </trkpt>
      <trkpt lat="36.6977940" lon="-2.7550910">
        <ele>61.4</ele>
        <time>2022-11-01T12:31:32Z</time>
      </trkpt>
      <trkpt lat="36.6978000" lon="-2.7550060">
        <ele>61.4</ele>
        <time>2022-11-01T12:31:33Z</time>
      </trkpt>
      <trkpt lat="36.6978070" lon="-2.7549240">
        <ele>61.4</ele>
        <time>2022-11-01T12:31:34Z</time>
      </trkpt>
      <trkpt lat="36.6978150" lon="-2.7548390">
        <ele>61.4</ele>
        <time>2022-11-01T12:31:35Z</time>
      </trkpt>
      <trkpt lat="36.6978260" lon="-2.7547580">
        <ele>61.4</ele>
        <time>2022-11-01T12:31:36Z</time>
      </trkpt>
      <trkpt lat="36.6978330" lon="-2.7546710">
        <ele>61.4</ele>
        <time>2022-11-01T12:31:37Z</time>
      </trkpt>
      <trkpt lat="36.6978360" lon="-2.7545900">
        <ele>61.4</ele>
        <time>2022-11-01T12:31:38Z</time>
      </trkpt>
      <trkpt lat="36.6978390" lon="-2.7545040">
        <ele>61.4</ele>
        <time>2022-11-01T12:31:39Z</time>
      </trkpt>
      <trkpt lat="36.6978420" lon="-2.7544180">
        <ele>61.4</ele>
        <time>2022-11-01T12:31:40Z</time>
      </trkpt>
      <trkpt lat="36.6978460" lon="-2.7543310">
        <ele>61.4</ele>
        <time>2022-11-01T12:31:41Z</time>
      </trkpt>
      <trkpt lat="36.6978490" lon="-2.7542480">
        <ele>61.4</ele>
        <time>2022-11-01T12:31:42Z</time>
      </trkpt>
      <trkpt lat="36.6978520" lon="-2.7541690">
        <ele>61.4</ele>
        <time>2022-11-01T12:31:43Z</time>
      </trkpt>
      <trkpt lat="36.6978520" lon="-2.7540870">
        <ele>61.2</ele>
        <time>2022-11-01T12:31:44Z</time>
      </trkpt>
      <trkpt lat="36.6978520" lon="-2.7540050">
        <ele>61.2</ele>
        <time>2022-11-01T12:31:45Z</time>
      </trkpt>
      <trkpt lat="36.6978540" lon="-2.7539200">
        <ele>61.2</ele>
        <time>2022-11-01T12:31:46Z</time>
      </trkpt>
      <trkpt lat="36.6978560" lon="-2.7538360">
        <ele>61.0</ele>
        <time>2022-11-01T12:31:47Z</time>
      </trkpt>
      <trkpt lat="36.6978570" lon="-2.7537520">
        <ele>61.0</ele>
        <time>2022-11-01T12:31:48Z</time>
      </trkpt>
      <trkpt lat="36.6978600" lon="-2.7536680">
        <ele>60.8</ele>
        <time>2022-11-01T12:31:49Z</time>
      </trkpt>
      <trkpt lat="36.6978650" lon="-2.7535830">
        <ele>60.8</ele>
        <time>2022-11-01T12:31:50Z</time>
      </trkpt>
      <trkpt lat="36.6978700" lon="-2.7534960">
        <ele>60.6</ele>
        <time>2022-11-01T12:31:51Z</time>
      </trkpt>
      <trkpt lat="36.6978730" lon="-2.7534080">
        <ele>60.6</ele>
        <time>2022-11-01T12:31:52Z</time>
      </trkpt>
      <trkpt lat="36.6978790" lon="-2.7533200">
        <ele>60.4</ele>
        <time>2022-11-01T12:31:53Z</time>
      </trkpt>
      <trkpt lat="36.6978830" lon="-2.7532330">
        <ele>60.4</ele>
        <time>2022-11-01T12:31:54Z</time>
      </trkpt>
      <trkpt lat="36.6978880" lon="-2.7531470">
        <ele>60.4</ele>
        <time>2022-11-01T12:31:55Z</time>
      </trkpt>
      <trkpt lat="36.6978950" lon="-2.7530600">
        <ele>60.2</ele>
        <time>2022-11-01T12:31:56Z</time>
      </trkpt>
      <trkpt lat="36.6979020" lon="-2.7529690">
        <ele>60.2</ele>
        <time>2022-11-01T12:31:57Z</time>
      </trkpt>
      <trkpt lat="36.6979080" lon="-2.7528790">
        <ele>60.2</ele>
        <time>2022-11-01T12:31:58Z</time>
      </trkpt>
      <trkpt lat="36.6979160" lon="-2.7527890">
        <ele>60.0</ele>
        <time>2022-11-01T12:31:59Z</time>
      </trkpt>
      <trkpt lat="36.6979240" lon="-2.7526980">
        <ele>60.0</ele>
        <time>2022-11-01T12:32:00Z</time>
      </trkpt>
      <trkpt lat="36.6979310" lon="-2.7526090">
        <ele>60.0</ele>
        <time>2022-11-01T12:32:01Z</time>
      </trkpt>
      <trkpt lat="36.6979370" lon="-2.7525240">
        <ele>59.8</ele>
        <time>2022-11-01T12:32:02Z</time>
      </trkpt>
      <trkpt lat="36.6979410" lon="-2.7524370">
        <ele>59.8</ele>
        <time>2022-11-01T12:32:03Z</time>
      </trkpt>
      <trkpt lat="36.6979470" lon="-2.7523450">
        <ele>59.8</ele>
        <time>2022-11-01T12:32:04Z</time>
      </trkpt>
      <trkpt lat="36.6979500" lon="-2.7522540">
        <ele>59.8</ele>
        <time>2022-11-01T12:32:05Z</time>
      </trkpt>
      <trkpt lat="36.6979570" lon="-2.7521620">
        <ele>59.8</ele>
        <time>2022-11-01T12:32:06Z</time>
      </trkpt>
      <trkpt lat="36.6979640" lon="-2.7520680">
        <ele>59.6</ele>
        <time>2022-11-01T12:32:07Z</time>
      </trkpt>
      <trkpt lat="36.6979710" lon="-2.7519760">
        <ele>59.6</ele>
        <time>2022-11-01T12:32:08Z</time>
      </trkpt>
      <trkpt lat="36.6979760" lon="-2.7518860">
        <ele>59.6</ele>
        <time>2022-11-01T12:32:09Z</time>
      </trkpt>
      <trkpt lat="36.6979830" lon="-2.7517950">
        <ele>59.4</ele>
        <time>2022-11-01T12:32:10Z</time>
      </trkpt>
      <trkpt lat="36.6979900" lon="-2.7517050">
        <ele>59.4</ele>
        <time>2022-11-01T12:32:11Z</time>
      </trkpt>
      <trkpt lat="36.6979980" lon="-2.7516160">
        <ele>59.4</ele>
        <time>2022-11-01T12:32:12Z</time>
      </trkpt>
      <trkpt lat="36.6980020" lon="-2.7515280">
        <ele>59.2</ele>
        <time>2022-11-01T12:32:13Z</time>
      </trkpt>
      <trkpt lat="36.6980090" lon="-2.7514380">
        <ele>59.2</ele>
        <time>2022-11-01T12:32:14Z</time>
      </trkpt>
      <trkpt lat="36.6980140" lon="-2.7513480">
        <ele>59.2</ele>
        <time>2022-11-01T12:32:15Z</time>
      </trkpt>
      <trkpt lat="36.6980200" lon="-2.7512570">
        <ele>59.0</ele>
        <time>2022-11-01T12:32:16Z</time>
      </trkpt>
      <trkpt lat="36.6980260" lon="-2.7511640">
        <ele>59.0</ele>
        <time>2022-11-01T12:32:17Z</time>
      </trkpt>
      <trkpt lat="36.6980330" lon="-2.7510710">
        <ele>58.8</ele>
        <time>2022-11-01T12:32:18Z</time>
      </trkpt>
      <trkpt lat="36.6980400" lon="-2.7509760">
        <ele>58.6</ele>
        <time>2022-11-01T12:32:19Z</time>
      </trkpt>
      <trkpt lat="36.6980460" lon="-2.7508780">
        <ele>58.8</ele>
        <time>2022-11-01T12:32:20Z</time>
      </trkpt>
      <trkpt lat="36.6980530" lon="-2.7507800">
        <ele>58.6</ele>
        <time>2022-11-01T12:32:21Z</time>
      </trkpt>
      <trkpt lat="36.6980580" lon="-2.7506820">
        <ele>58.4</ele>
        <time>2022-11-01T12:32:22Z</time>
      </trkpt>
      <trkpt lat="36.6980640" lon="-2.7505860">
        <ele>58.4</ele>
        <time>2022-11-01T12:32:23Z</time>
      </trkpt>
      <trkpt lat="36.6980700" lon="-2.7504890">
        <ele>58.4</ele>
        <time>2022-11-01T12:32:24Z</time>
      </trkpt>
      <trkpt lat="36.6980750" lon="-2.7503940">
        <ele>58.2</ele>
        <time>2022-11-01T12:32:25Z</time>
      </trkpt>
      <trkpt lat="36.6980810" lon="-2.7502980">
        <ele>58.2</ele>
        <time>2022-11-01T12:32:26Z</time>
      </trkpt>
      <trkpt lat="36.6980890" lon="-2.7502030">
        <ele>58.2</ele>
        <time>2022-11-01T12:32:27Z</time>
      </trkpt>
      <trkpt lat="36.6980970" lon="-2.7501100">
        <ele>58.0</ele>
        <time>2022-11-01T12:32:28Z</time>
      </trkpt>
      <trkpt lat="36.6981010" lon="-2.7500140">
        <ele>58.0</ele>
        <time>2022-11-01T12:32:29Z</time>
      </trkpt>
      <trkpt lat="36.6981050" lon="-2.7499180">
        <ele>58.0</ele>
        <time>2022-11-01T12:32:30Z</time>
      </trkpt>
      <trkpt lat="36.6981100" lon="-2.7498240">
        <ele>58.2</ele>
        <time>2022-11-01T12:32:31Z</time>
      </trkpt>
      <trkpt lat="36.6981150" lon="-2.7497290">
        <ele>58.2</ele>
        <time>2022-11-01T12:32:32Z</time>
      </trkpt>
      <trkpt lat="36.6981210" lon="-2.7496370">
        <ele>58.0</ele>
        <time>2022-11-01T12:32:33Z</time>
      </trkpt>
      <trkpt lat="36.6981280" lon="-2.7495440">
        <ele>58.2</ele>
        <time>2022-11-01T12:32:34Z</time>
      </trkpt>
      <trkpt lat="36.6981350" lon="-2.7494520">
        <ele>58.2</ele>
        <time>2022-11-01T12:32:35Z</time>
      </trkpt>
      <trkpt lat="36.6981420" lon="-2.7493590">
        <ele>58.2</ele>
        <time>2022-11-01T12:32:36Z</time>
      </trkpt>
      <trkpt lat="36.6981470" lon="-2.7492680">
        <ele>58.2</ele>
        <time>2022-11-01T12:32:37Z</time>
      </trkpt>
      <trkpt lat="36.6981510" lon="-2.7491770">
        <ele>58.2</ele>
        <time>2022-11-01T12:32:38Z</time>
      </trkpt>
      <trkpt lat="36.6981580" lon="-2.7490850">
        <ele>58.2</ele>
        <time>2022-11-01T12:32:39Z</time>
      </trkpt>
      <trkpt lat="36.6981650" lon="-2.7489940">
        <ele>58.2</ele>
        <time>2022-11-01T12:32:40Z</time>
      </trkpt>
      <trkpt lat="36.6981690" lon="-2.7489020">
        <ele>58.2</ele>
        <time>2022-11-01T12:32:41Z</time>
      </trkpt>
      <trkpt lat="36.6981740" lon="-2.7488110">
        <ele>58.2</ele>
        <time>2022-11-01T12:32:42Z</time>
      </trkpt>
      <trkpt lat="36.6981800" lon="-2.7487250">
        <ele>58.0</ele>
        <time>2022-11-01T12:32:43Z</time>
      </trkpt>
      <trkpt lat="36.6981860" lon="-2.7486350">
        <ele>58.0</ele>
        <time>2022-11-01T12:32:44Z</time>
      </trkpt>
      <trkpt lat="36.6981930" lon="-2.7485430">
        <ele>58.0</ele>
        <time>2022-11-01T12:32:45Z</time>
      </trkpt>
      <trkpt lat="36.6982000" lon="-2.7484520">
        <ele>57.8</ele>
        <time>2022-11-01T12:32:46Z</time>
      </trkpt>
      <trkpt lat="36.6982090" lon="-2.7483620">
        <ele>57.8</ele>
        <time>2022-11-01T12:32:47Z</time>
      </trkpt>
      <trkpt lat="36.6982160" lon="-2.7482710">
        <ele>57.8</ele>
        <time>2022-11-01T12:32:48Z</time>
      </trkpt>
      <trkpt lat="36.6982230" lon="-2.7481760">
        <ele>57.6</ele>
        <time>2022-11-01T12:32:49Z</time>
      </trkpt>
      <trkpt lat="36.6982280" lon="-2.7480870">
        <ele>57.6</ele>
        <time>2022-11-01T12:32:50Z</time>
      </trkpt>
      <trkpt lat="36.6982330" lon="-2.7479910">
        <ele>57.4</ele>
        <time>2022-11-01T12:32:51Z</time>
      </trkpt>
      <trkpt lat="36.6982400" lon="-2.7478920">
        <ele>57.2</ele>
        <time>2022-11-01T12:32:52Z</time>
      </trkpt>
      <trkpt lat="36.6982500" lon="-2.7477950">
        <ele>56.8</ele>
        <time>2022-11-01T12:32:53Z</time>
      </trkpt>
      <trkpt lat="36.6982620" lon="-2.7476930">
        <ele>56.4</ele>
        <time>2022-11-01T12:32:54Z</time>
      </trkpt>
      <trkpt lat="36.6982710" lon="-2.7475880">
        <ele>56.2</ele>
        <time>2022-11-01T12:32:55Z</time>
      </trkpt>
      <trkpt lat="36.6982790" lon="-2.7474790">
        <ele>55.8</ele>
        <time>2022-11-01T12:32:56Z</time>
      </trkpt>
      <trkpt lat="36.6982890" lon="-2.7473680">
        <ele>55.4</ele>
        <time>2022-11-01T12:32:57Z</time>
      </trkpt>
      <trkpt lat="36.6982970" lon="-2.7472570">
        <ele>55.0</ele>
        <time>2022-11-01T12:32:58Z</time>
      </trkpt>
      <trkpt lat="36.6983050" lon="-2.7471480">
        <ele>54.8</ele>
        <time>2022-11-01T12:32:59Z</time>
      </trkpt>
      <trkpt lat="36.6983110" lon="-2.7470370">
        <ele>54.4</ele>
        <time>2022-11-01T12:33:00Z</time>
      </trkpt>
      <trkpt lat="36.6983180" lon="-2.7469250">
        <ele>54.4</ele>
        <time>2022-11-01T12:33:01Z</time>
      </trkpt>
      <trkpt lat="36.6983220" lon="-2.7468190">
        <ele>54.0</ele>
        <time>2022-11-01T12:33:02Z</time>
      </trkpt>
      <trkpt lat="36.6983280" lon="-2.7467120">
        <ele>54.0</ele>
        <time>2022-11-01T12:33:03Z</time>
      </trkpt>
      <trkpt lat="36.6983340" lon="-2.7466060">
        <ele>53.8</ele>
        <time>2022-11-01T12:33:04Z</time>
      </trkpt>
      <trkpt lat="36.6983420" lon="-2.7465020">
        <ele>53.8</ele>
        <time>2022-11-01T12:33:05Z</time>
      </trkpt>
      <trkpt lat="36.6983490" lon="-2.7463980">
        <ele>53.8</ele>
        <time>2022-11-01T12:33:06Z</time>
      </trkpt>
      <trkpt lat="36.6983530" lon="-2.7462960">
        <ele>54.0</ele>
        <time>2022-11-01T12:33:07Z</time>
      </trkpt>
      <trkpt lat="36.6983570" lon="-2.7461970">
        <ele>54.0</ele>
        <time>2022-11-01T12:33:08Z</time>
      </trkpt>
      <trkpt lat="36.6983610" lon="-2.7460980">
        <ele>54.0</ele>
        <time>2022-11-01T12:33:09Z</time>
      </trkpt>
      <trkpt lat="36.6983660" lon="-2.7459990">
        <ele>54.0</ele>
        <time>2022-11-01T12:33:10Z</time>
      </trkpt>
      <trkpt lat="36.6983700" lon="-2.7459050">
        <ele>54.0</ele>
        <time>2022-11-01T12:33:11Z</time>
      </trkpt>
      <trkpt lat="36.6983730" lon="-2.7458120">
        <ele>54.2</ele>
        <time>2022-11-01T12:33:12Z</time>
      </trkpt>
      <trkpt lat="36.6983790" lon="-2.7457170">
        <ele>54.2</ele>
        <time>2022-11-01T12:33:13Z</time>
      </trkpt>
      <trkpt lat="36.6983830" lon="-2.7456300">
        <ele>54.2</ele>
        <time>2022-11-01T12:33:14Z</time>
      </trkpt>
      <trkpt lat="36.6983900" lon="-2.7455390">
        <ele>54.2</ele>
        <time>2022-11-01T12:33:15Z</time>
      </trkpt>
      <trkpt lat="36.6983980" lon="-2.7454590">
        <ele>54.2</ele>
        <time>2022-11-01T12:33:16Z</time>
      </trkpt>
      <trkpt lat="36.6984050" lon="-2.7453770">
        <ele>54.2</ele>
        <time>2022-11-01T12:33:17Z</time>
      </trkpt>
      <trkpt lat="36.6984160" lon="-2.7453040">
        <ele>54.2</ele>
        <time>2022-11-01T12:33:18Z</time>
      </trkpt>
      <trkpt lat="36.6984220" lon="-2.7452230">
        <ele>54.2</ele>
        <time>2022-11-01T12:33:19Z</time>
      </trkpt>
      <trkpt lat="36.6984220" lon="-2.7451550">
        <ele>54.2</ele>
        <time>2022-11-01T12:33:20Z</time>
      </trkpt>
      <trkpt lat="36.6984210" lon="-2.7450940">
        <ele>54.2</ele>
        <time>2022-11-01T12:33:21Z</time>
      </trkpt>
      <trkpt lat="36.6984250" lon="-2.7450110">
        <ele>54.2</ele>
        <time>2022-11-01T12:33:22Z</time>
      </trkpt>
      <trkpt lat="36.6984300" lon="-2.7449220">
        <ele>54.2</ele>
        <time>2022-11-01T12:33:23Z</time>
      </trkpt>
      <trkpt lat="36.6984360" lon="-2.7448390">
        <ele>54.2</ele>
        <time>2022-11-01T12:33:24Z</time>
      </trkpt>
      <trkpt lat="36.6984420" lon="-2.7447570">
        <ele>54.2</ele>
        <time>2022-11-01T12:33:25Z</time>
      </trkpt>
      <trkpt lat="36.6984500" lon="-2.7446750">
        <ele>54.2</ele>
        <time>2022-11-01T12:33:26Z</time>
      </trkpt>
      <trkpt lat="36.6984570" lon="-2.7445920">
        <ele>54.2</ele>
        <time>2022-11-01T12:33:27Z</time>
      </trkpt>
      <trkpt lat="36.6984610" lon="-2.7445040">
        <ele>54.2</ele>
        <time>2022-11-01T12:33:28Z</time>
      </trkpt>
      <trkpt lat="36.6984680" lon="-2.7444190">
        <ele>54.4</ele>
        <time>2022-11-01T12:33:29Z</time>
      </trkpt>
      <trkpt lat="36.6984730" lon="-2.7443310">
        <ele>54.4</ele>
        <time>2022-11-01T12:33:30Z</time>
      </trkpt>
      <trkpt lat="36.6984770" lon="-2.7442390">
        <ele>54.4</ele>
        <time>2022-11-01T12:33:31Z</time>
      </trkpt>
      <trkpt lat="36.6984790" lon="-2.7441460">
        <ele>54.4</ele>
        <time>2022-11-01T12:33:32Z</time>
      </trkpt>
      <trkpt lat="36.6984800" lon="-2.7440600">
        <ele>54.4</ele>
        <time>2022-11-01T12:33:33Z</time>
      </trkpt>
      <trkpt lat="36.6984810" lon="-2.7439740">
        <ele>54.4</ele>
        <time>2022-11-01T12:33:34Z</time>
      </trkpt>
      <trkpt lat="36.6984850" lon="-2.7438900">
        <ele>54.2</ele>
        <time>2022-11-01T12:33:35Z</time>
      </trkpt>
      <trkpt lat="36.6984900" lon="-2.7438070">
        <ele>54.2</ele>
        <time>2022-11-01T12:33:36Z</time>
      </trkpt>
      <trkpt lat="36.6984970" lon="-2.7437240">
        <ele>54.2</ele>
        <time>2022-11-01T12:33:37Z</time>
      </trkpt>
      <trkpt lat="36.6985040" lon="-2.7436440">
        <ele>54.2</ele>
        <time>2022-11-01T12:33:38Z</time>
      </trkpt>
      <trkpt lat="36.6985070" lon="-2.7435620">
        <ele>54.2</ele>
        <time>2022-11-01T12:33:39Z</time>
      </trkpt>
      <trkpt lat="36.6985100" lon="-2.7434820">
        <ele>54.2</ele>
        <time>2022-11-01T12:33:40Z</time>
      </trkpt>
      <trkpt lat="36.6985130" lon="-2.7434020">
        <ele>54.2</ele>
        <time>2022-11-01T12:33:41Z</time>
      </trkpt>
      <trkpt lat="36.6985180" lon="-2.7433210">
        <ele>54.4</ele>
        <time>2022-11-01T12:33:42Z</time>
      </trkpt>
      <trkpt lat="36.6985220" lon="-2.7432390">
        <ele>54.4</ele>
        <time>2022-11-01T12:33:43Z</time>
      </trkpt>
      <trkpt lat="36.6985260" lon="-2.7431590">
        <ele>54.4</ele>
        <time>2022-11-01T12:33:44Z</time>
      </trkpt>
      <trkpt lat="36.6985310" lon="-2.7430790">
        <ele>54.4</ele>
        <time>2022-11-01T12:33:45Z</time>
      </trkpt>
      <trkpt lat="36.6985360" lon="-2.7429970">
        <ele>54.4</ele>
        <time>2022-11-01T12:33:46Z</time>
      </trkpt>
      <trkpt lat="36.6985410" lon="-2.7429170">
        <ele>54.4</ele>
        <time>2022-11-01T12:33:47Z</time>
      </trkpt>
      <trkpt lat="36.6985440" lon="-2.7428390">
        <ele>54.4</ele>
        <time>2022-11-01T12:33:48Z</time>
      </trkpt>
      <trkpt lat="36.6985480" lon="-2.7427610">
        <ele>54.4</ele>
        <time>2022-11-01T12:33:49Z</time>
      </trkpt>
      <trkpt lat="36.6985530" lon="-2.7426840">
        <ele>54.4</ele>
        <time>2022-11-01T12:33:50Z</time>
      </trkpt>
      <trkpt lat="36.6985590" lon="-2.7426080">
        <ele>54.6</ele>
        <time>2022-11-01T12:33:51Z</time>
      </trkpt>
      <trkpt lat="36.6985630" lon="-2.7425300">
        <ele>54.6</ele>
        <time>2022-11-01T12:33:52Z</time>
      </trkpt>
      <trkpt lat="36.6985650" lon="-2.7424490">
        <ele>54.6</ele>
        <time>2022-11-01T12:33:53Z</time>
      </trkpt>
      <trkpt lat="36.6985690" lon="-2.7423680">
        <ele>54.6</ele>
        <time>2022-11-01T12:33:54Z</time>
      </trkpt>
      <trkpt lat="36.6985690" lon="-2.7422880">
        <ele>54.6</ele>
        <time>2022-11-01T12:33:55Z</time>
      </trkpt>
      <trkpt lat="36.6985720" lon="-2.7422080">
        <ele>54.6</ele>
        <time>2022-11-01T12:33:56Z</time>
      </trkpt>
      <trkpt lat="36.6985770" lon="-2.7421240">
        <ele>54.6</ele>
        <time>2022-11-01T12:33:57Z</time>
      </trkpt>
      <trkpt lat="36.6985830" lon="-2.7420430">
        <ele>54.4</ele>
        <time>2022-11-01T12:33:58Z</time>
      </trkpt>
      <trkpt lat="36.6985900" lon="-2.7419650">
        <ele>54.6</ele>
        <time>2022-11-01T12:33:59Z</time>
      </trkpt>
      <trkpt lat="36.6985990" lon="-2.7418860">
        <ele>54.6</ele>
        <time>2022-11-01T12:34:00Z</time>
      </trkpt>
      <trkpt lat="36.6986060" lon="-2.7418090">
        <ele>54.4</ele>
        <time>2022-11-01T12:34:01Z</time>
      </trkpt>
      <trkpt lat="36.6986130" lon="-2.7417320">
        <ele>54.6</ele>
        <time>2022-11-01T12:34:02Z</time>
      </trkpt>
      <trkpt lat="36.6986180" lon="-2.7416550">
        <ele>54.6</ele>
        <time>2022-11-01T12:34:03Z</time>
      </trkpt>
      <trkpt lat="36.6986230" lon="-2.7415780">
        <ele>54.6</ele>
        <time>2022-11-01T12:34:04Z</time>
      </trkpt>
      <trkpt lat="36.6986270" lon="-2.7415020">
        <ele>54.6</ele>
        <time>2022-11-01T12:34:05Z</time>
      </trkpt>
      <trkpt lat="36.6986320" lon="-2.7414260">
        <ele>54.6</ele>
        <time>2022-11-01T12:34:06Z</time>
      </trkpt>
      <trkpt lat="36.6986400" lon="-2.7413490">
        <ele>54.6</ele>
        <time>2022-11-01T12:34:07Z</time>
      </trkpt>
      <trkpt lat="36.6986480" lon="-2.7412730">
        <ele>54.6</ele>
        <time>2022-11-01T12:34:08Z</time>
      </trkpt>
      <trkpt lat="36.6986530" lon="-2.7411970">
        <ele>54.6</ele>
        <time>2022-11-01T12:34:09Z</time>
      </trkpt>
      <trkpt lat="36.6986600" lon="-2.7411200">
        <ele>54.6</ele>
        <time>2022-11-01T12:34:10Z</time>
      </trkpt>
      <trkpt lat="36.6986670" lon="-2.7410420">
        <ele>54.6</ele>
        <time>2022-11-01T12:34:11Z</time>
      </trkpt>
      <trkpt lat="36.6986740" lon="-2.7409630">
        <ele>54.6</ele>
        <time>2022-11-01T12:34:12Z</time>
      </trkpt>
      <trkpt lat="36.6986810" lon="-2.7408830">
        <ele>54.6</ele>
        <time>2022-11-01T12:34:13Z</time>
      </trkpt>
      <trkpt lat="36.6986890" lon="-2.7408030">
        <ele>54.6</ele>
        <time>2022-11-01T12:34:14Z</time>
      </trkpt>
      <trkpt lat="36.6986970" lon="-2.7407230">
        <ele>54.6</ele>
        <time>2022-11-01T12:34:15Z</time>
      </trkpt>
      <trkpt lat="36.6987060" lon="-2.7406420">
        <ele>54.6</ele>
        <time>2022-11-01T12:34:16Z</time>
      </trkpt>
      <trkpt lat="36.6987140" lon="-2.7405600">
        <ele>54.6</ele>
        <time>2022-11-01T12:34:17Z</time>
      </trkpt>
      <trkpt lat="36.6987210" lon="-2.7404780">
        <ele>54.6</ele>
        <time>2022-11-01T12:34:18Z</time>
      </trkpt>
      <trkpt lat="36.6987270" lon="-2.7403950">
        <ele>54.4</ele>
        <time>2022-11-01T12:34:19Z</time>
      </trkpt>
      <trkpt lat="36.6987360" lon="-2.7403110">
        <ele>54.4</ele>
        <time>2022-11-01T12:34:20Z</time>
      </trkpt>
      <trkpt lat="36.6987450" lon="-2.7402270">
        <ele>54.4</ele>
        <time>2022-11-01T12:34:21Z</time>
      </trkpt>
      <trkpt lat="36.6987550" lon="-2.7401430">
        <ele>54.4</ele>
        <time>2022-11-01T12:34:22Z</time>
      </trkpt>
      <trkpt lat="36.6987650" lon="-2.7400600">
        <ele>54.4</ele>
        <time>2022-11-01T12:34:23Z</time>
      </trkpt>
      <trkpt lat="36.6987720" lon="-2.7399760">
        <ele>54.4</ele>
        <time>2022-11-01T12:34:24Z</time>
      </trkpt>
      <trkpt lat="36.6987780" lon="-2.7398910">
        <ele>54.4</ele>
        <time>2022-11-01T12:34:25Z</time>
      </trkpt>
      <trkpt lat="36.6987870" lon="-2.7398050">
        <ele>54.4</ele>
        <time>2022-11-01T12:34:26Z</time>
      </trkpt>
      <trkpt lat="36.6987950" lon="-2.7397200">
        <ele>54.4</ele>
        <time>2022-11-01T12:34:27Z</time>
      </trkpt>
      <trkpt lat="36.6988060" lon="-2.7396350">
        <ele>54.4</ele>
        <time>2022-11-01T12:34:28Z</time>
      </trkpt>
      <trkpt lat="36.6988180" lon="-2.7395510">
        <ele>54.2</ele>
        <time>2022-11-01T12:34:29Z</time>
      </trkpt>
      <trkpt lat="36.6988290" lon="-2.7394660">
        <ele>54.2</ele>
        <time>2022-11-01T12:34:30Z</time>
      </trkpt>
      <trkpt lat="36.6988380" lon="-2.7393800">
        <ele>54.2</ele>
        <time>2022-11-01T12:34:31Z</time>
      </trkpt>
      <trkpt lat="36.6988480" lon="-2.7392960">
        <ele>54.0</ele>
        <time>2022-11-01T12:34:32Z</time>
      </trkpt>
      <trkpt lat="36.6988540" lon="-2.7392140">
        <ele>54.2</ele>
        <time>2022-11-01T12:34:33Z</time>
      </trkpt>
      <trkpt lat="36.6988620" lon="-2.7391310">
        <ele>54.0</ele>
        <time>2022-11-01T12:34:34Z</time>
      </trkpt>
      <trkpt lat="36.6988730" lon="-2.7390460">
        <ele>54.0</ele>
        <time>2022-11-01T12:34:35Z</time>
      </trkpt>
      <trkpt lat="36.6988850" lon="-2.7389600">
        <ele>54.0</ele>
        <time>2022-11-01T12:34:36Z</time>
      </trkpt>
      <trkpt lat="36.6988970" lon="-2.7388740">
        <ele>53.8</ele>
        <time>2022-11-01T12:34:37Z</time>
      </trkpt>
      <trkpt lat="36.6989070" lon="-2.7387860">
        <ele>53.8</ele>
        <time>2022-11-01T12:34:38Z</time>
      </trkpt>
      <trkpt lat="36.6989170" lon="-2.7386990">
        <ele>53.8</ele>
        <time>2022-11-01T12:34:39Z</time>
      </trkpt>
      <trkpt lat="36.6989280" lon="-2.7386100">
        <ele>53.8</ele>
        <time>2022-11-01T12:34:40Z</time>
      </trkpt>
      <trkpt lat="36.6989390" lon="-2.7385220">
        <ele>53.6</ele>
        <time>2022-11-01T12:34:41Z</time>
      </trkpt>
      <trkpt lat="36.6989500" lon="-2.7384340">
        <ele>53.6</ele>
        <time>2022-11-01T12:34:42Z</time>
      </trkpt>
      <trkpt lat="36.6989600" lon="-2.7383470">
        <ele>53.4</ele>
        <time>2022-11-01T12:34:43Z</time>
      </trkpt>
      <trkpt lat="36.6989720" lon="-2.7382600">
        <ele>53.4</ele>
        <time>2022-11-01T12:34:44Z</time>
      </trkpt>
      <trkpt lat="36.6989820" lon="-2.7381730">
        <ele>53.4</ele>
        <time>2022-11-01T12:34:45Z</time>
      </trkpt>
      <trkpt lat="36.6989930" lon="-2.7380860">
        <ele>53.4</ele>
        <time>2022-11-01T12:34:46Z</time>
      </trkpt>
      <trkpt lat="36.6990040" lon="-2.7379980">
        <ele>53.4</ele>
        <time>2022-11-01T12:34:47Z</time>
      </trkpt>
      <trkpt lat="36.6990140" lon="-2.7379110">
        <ele>53.2</ele>
        <time>2022-11-01T12:34:48Z</time>
      </trkpt>
      <trkpt lat="36.6990230" lon="-2.7378240">
        <ele>53.2</ele>
        <time>2022-11-01T12:34:49Z</time>
      </trkpt>
      <trkpt lat="36.6990330" lon="-2.7377360">
        <ele>53.2</ele>
        <time>2022-11-01T12:34:50Z</time>
      </trkpt>
      <trkpt lat="36.6990430" lon="-2.7376480">
        <ele>53.2</ele>
        <time>2022-11-01T12:34:51Z</time>
      </trkpt>
      <trkpt lat="36.6990530" lon="-2.7375590">
        <ele>53.0</ele>
        <time>2022-11-01T12:34:52Z</time>
      </trkpt>
      <trkpt lat="36.6990640" lon="-2.7374700">
        <ele>53.0</ele>
        <time>2022-11-01T12:34:53Z</time>
      </trkpt>
      <trkpt lat="36.6990740" lon="-2.7373800">
        <ele>53.0</ele>
        <time>2022-11-01T12:34:54Z</time>
      </trkpt>
      <trkpt lat="36.6990830" lon="-2.7372900">
        <ele>52.8</ele>
        <time>2022-11-01T12:34:55Z</time>
      </trkpt>
      <trkpt lat="36.6990950" lon="-2.7372010">
        <ele>52.8</ele>
        <time>2022-11-01T12:34:56Z</time>
      </trkpt>
      <trkpt lat="36.6991060" lon="-2.7371100">
        <ele>52.6</ele>
        <time>2022-11-01T12:34:57Z</time>
      </trkpt>
      <trkpt lat="36.6991170" lon="-2.7370180">
        <ele>52.6</ele>
        <time>2022-11-01T12:34:58Z</time>
      </trkpt>
      <trkpt lat="36.6991280" lon="-2.7369270">
        <ele>52.6</ele>
        <time>2022-11-01T12:34:59Z</time>
      </trkpt>
      <trkpt lat="36.6991370" lon="-2.7368350">
        <ele>52.6</ele>
        <time>2022-11-01T12:35:00Z</time>
      </trkpt>
      <trkpt lat="36.6991470" lon="-2.7367430">
        <ele>52.6</ele>
        <time>2022-11-01T12:35:01Z</time>
      </trkpt>
      <trkpt lat="36.6991580" lon="-2.7366500">
        <ele>52.6</ele>
        <time>2022-11-01T12:35:02Z</time>
      </trkpt>
      <trkpt lat="36.6991680" lon="-2.7365570">
        <ele>52.6</ele>
        <time>2022-11-01T12:35:03Z</time>
      </trkpt>
      <trkpt lat="36.6991790" lon="-2.7364640">
        <ele>52.4</ele>
        <time>2022-11-01T12:35:04Z</time>
      </trkpt>
      <trkpt lat="36.6991900" lon="-2.7363700">
        <ele>52.4</ele>
        <time>2022-11-01T12:35:05Z</time>
      </trkpt>
      <trkpt lat="36.6992010" lon="-2.7362760">
        <ele>52.4</ele>
        <time>2022-11-01T12:35:06Z</time>
      </trkpt>
      <trkpt lat="36.6992120" lon="-2.7361820">
        <ele>52.4</ele>
        <time>2022-11-01T12:35:07Z</time>
      </trkpt>
      <trkpt lat="36.6992220" lon="-2.7360870">
        <ele>52.2</ele>
        <time>2022-11-01T12:35:08Z</time>
      </trkpt>
      <trkpt lat="36.6992330" lon="-2.7359930">
        <ele>52.0</ele>
        <time>2022-11-01T12:35:09Z</time>
      </trkpt>
      <trkpt lat="36.6992450" lon="-2.7358980">
        <ele>52.0</ele>
        <time>2022-11-01T12:35:10Z</time>
      </trkpt>
      <trkpt lat="36.6992550" lon="-2.7358060">
        <ele>52.0</ele>
        <time>2022-11-01T12:35:11Z</time>
      </trkpt>
      <trkpt lat="36.6992630" lon="-2.7357130">
        <ele>52.0</ele>
        <time>2022-11-01T12:35:12Z</time>
      </trkpt>
      <trkpt lat="36.6992720" lon="-2.7356230">
        <ele>52.0</ele>
        <time>2022-11-01T12:35:13Z</time>
      </trkpt>
      <trkpt lat="36.6992810" lon="-2.7355320">
        <ele>52.0</ele>
        <time>2022-11-01T12:35:14Z</time>
      </trkpt>
      <trkpt lat="36.6992910" lon="-2.7354430">
        <ele>51.8</ele>
        <time>2022-11-01T12:35:15Z</time>
      </trkpt>
      <trkpt lat="36.6993020" lon="-2.7353550">
        <ele>52.0</ele>
        <time>2022-11-01T12:35:16Z</time>
      </trkpt>
      <trkpt lat="36.6993130" lon="-2.7352690">
        <ele>51.8</ele>
        <time>2022-11-01T12:35:17Z</time>
      </trkpt>
      <trkpt lat="36.6993220" lon="-2.7351830">
        <ele>52.0</ele>
        <time>2022-11-01T12:35:18Z</time>
      </trkpt>
      <trkpt lat="36.6993310" lon="-2.7350980">
        <ele>51.8</ele>
        <time>2022-11-01T12:35:19Z</time>
      </trkpt>
      <trkpt lat="36.6993400" lon="-2.7350130">
        <ele>51.8</ele>
        <time>2022-11-01T12:35:20Z</time>
      </trkpt>
      <trkpt lat="36.6993480" lon="-2.7349280">
        <ele>52.0</ele>
        <time>2022-11-01T12:35:21Z</time>
      </trkpt>
      <trkpt lat="36.6993560" lon="-2.7348420">
        <ele>52.0</ele>
        <time>2022-11-01T12:35:22Z</time>
      </trkpt>
      <trkpt lat="36.6993650" lon="-2.7347560">
        <ele>51.8</ele>
        <time>2022-11-01T12:35:23Z</time>
      </trkpt>
      <trkpt lat="36.6993750" lon="-2.7346710">
        <ele>51.8</ele>
        <time>2022-11-01T12:35:24Z</time>
      </trkpt>
      <trkpt lat="36.6993840" lon="-2.7345860">
        <ele>51.8</ele>
        <time>2022-11-01T12:35:25Z</time>
      </trkpt>
      <trkpt lat="36.6993920" lon="-2.7345020">
        <ele>51.8</ele>
        <time>2022-11-01T12:35:26Z</time>
      </trkpt>
      <trkpt lat="36.6994010" lon="-2.7344190">
        <ele>51.8</ele>
        <time>2022-11-01T12:35:27Z</time>
      </trkpt>
      <trkpt lat="36.6994100" lon="-2.7343370">
        <ele>51.8</ele>
        <time>2022-11-01T12:35:28Z</time>
      </trkpt>
      <trkpt lat="36.6994200" lon="-2.7342540">
        <ele>52.0</ele>
        <time>2022-11-01T12:35:29Z</time>
      </trkpt>
      <trkpt lat="36.6994280" lon="-2.7341710">
        <ele>52.0</ele>
        <time>2022-11-01T12:35:30Z</time>
      </trkpt>
      <trkpt lat="36.6994360" lon="-2.7340890">
        <ele>52.0</ele>
        <time>2022-11-01T12:35:31Z</time>
      </trkpt>
      <trkpt lat="36.6994440" lon="-2.7340070">
        <ele>52.0</ele>
        <time>2022-11-01T12:35:32Z</time>
      </trkpt>
      <trkpt lat="36.6994530" lon="-2.7339260">
        <ele>52.0</ele>
        <time>2022-11-01T12:35:33Z</time>
      </trkpt>
      <trkpt lat="36.6994630" lon="-2.7338450">
        <ele>52.0</ele>
        <time>2022-11-01T12:35:34Z</time>
      </trkpt>
      <trkpt lat="36.6994730" lon="-2.7337660">
        <ele>52.2</ele>
        <time>2022-11-01T12:35:35Z</time>
      </trkpt>
      <trkpt lat="36.6994820" lon="-2.7336890">
        <ele>52.2</ele>
        <time>2022-11-01T12:35:36Z</time>
      </trkpt>
      <trkpt lat="36.6994870" lon="-2.7336120">
        <ele>52.2</ele>
        <time>2022-11-01T12:35:37Z</time>
      </trkpt>
      <trkpt lat="36.6994940" lon="-2.7335360">
        <ele>52.4</ele>
        <time>2022-11-01T12:35:38Z</time>
      </trkpt>
      <trkpt lat="36.6995020" lon="-2.7334590">
        <ele>52.4</ele>
        <time>2022-11-01T12:35:39Z</time>
      </trkpt>
      <trkpt lat="36.6995110" lon="-2.7333820">
        <ele>52.4</ele>
        <time>2022-11-01T12:35:40Z</time>
      </trkpt>
      <trkpt lat="36.6995200" lon="-2.7333050">
        <ele>52.6</ele>
        <time>2022-11-01T12:35:41Z</time>
      </trkpt>
      <trkpt lat="36.6995290" lon="-2.7332270">
        <ele>52.8</ele>
        <time>2022-11-01T12:35:42Z</time>
      </trkpt>
      <trkpt lat="36.6995370" lon="-2.7331500">
        <ele>52.8</ele>
        <time>2022-11-01T12:35:43Z</time>
      </trkpt>
      <trkpt lat="36.6995470" lon="-2.7330740">
        <ele>52.8</ele>
        <time>2022-11-01T12:35:44Z</time>
      </trkpt>
      <trkpt lat="36.6995550" lon="-2.7329980">
        <ele>53.0</ele>
        <time>2022-11-01T12:35:45Z</time>
      </trkpt>
      <trkpt lat="36.6995640" lon="-2.7329210">
        <ele>53.0</ele>
        <time>2022-11-01T12:35:46Z</time>
      </trkpt>
      <trkpt lat="36.6995740" lon="-2.7328450">
        <ele>53.2</ele>
        <time>2022-11-01T12:35:47Z</time>
      </trkpt>
      <trkpt lat="36.6995850" lon="-2.7327690">
        <ele>53.2</ele>
        <time>2022-11-01T12:35:48Z</time>
      </trkpt>
      <trkpt lat="36.6995960" lon="-2.7326960">
        <ele>53.2</ele>
        <time>2022-11-01T12:35:49Z</time>
      </trkpt>
      <trkpt lat="36.6996060" lon="-2.7326220">
        <ele>53.2</ele>
        <time>2022-11-01T12:35:50Z</time>
      </trkpt>
      <trkpt lat="36.6996140" lon="-2.7325480">
        <ele>53.2</ele>
        <time>2022-11-01T12:35:51Z</time>
      </trkpt>
      <trkpt lat="36.6996220" lon="-2.7324730">
        <ele>53.4</ele>
        <time>2022-11-01T12:35:52Z</time>
      </trkpt>
      <trkpt lat="36.6996310" lon="-2.7323990">
        <ele>53.2</ele>
        <time>2022-11-01T12:35:53Z</time>
      </trkpt>
      <trkpt lat="36.6996410" lon="-2.7323240">
        <ele>53.2</ele>
        <time>2022-11-01T12:35:54Z</time>
      </trkpt>
      <trkpt lat="36.6996510" lon="-2.7322500">
        <ele>53.4</ele>
        <time>2022-11-01T12:35:55Z</time>
      </trkpt>
      <trkpt lat="36.6996620" lon="-2.7321740">
        <ele>53.4</ele>
        <time>2022-11-01T12:35:56Z</time>
      </trkpt>
      <trkpt lat="36.6996720" lon="-2.7320970">
        <ele>53.4</ele>
        <time>2022-11-01T12:35:57Z</time>
      </trkpt>
      <trkpt lat="36.6996820" lon="-2.7320180">
        <ele>53.2</ele>
        <time>2022-11-01T12:35:58Z</time>
      </trkpt>
      <trkpt lat="36.6996940" lon="-2.7319390">
        <ele>53.2</ele>
        <time>2022-11-01T12:35:59Z</time>
      </trkpt>
      <trkpt lat="36.6997060" lon="-2.7318610">
        <ele>53.2</ele>
        <time>2022-11-01T12:36:00Z</time>
      </trkpt>
      <trkpt lat="36.6997180" lon="-2.7317830">
        <ele>53.2</ele>
        <time>2022-11-01T12:36:01Z</time>
      </trkpt>
      <trkpt lat="36.6997280" lon="-2.7317050">
        <ele>53.2</ele>
        <time>2022-11-01T12:36:02Z</time>
      </trkpt>
      <trkpt lat="36.6997390" lon="-2.7316270">
        <ele>53.2</ele>
        <time>2022-11-01T12:36:03Z</time>
      </trkpt>
      <trkpt lat="36.6997490" lon="-2.7315520">
        <ele>53.2</ele>
        <time>2022-11-01T12:36:04Z</time>
      </trkpt>
      <trkpt lat="36.6997600" lon="-2.7314760">
        <ele>53.2</ele>
        <time>2022-11-01T12:36:05Z</time>
      </trkpt>
      <trkpt lat="36.6997690" lon="-2.7314000">
        <ele>53.2</ele>
        <time>2022-11-01T12:36:06Z</time>
      </trkpt>
      <trkpt lat="36.6997770" lon="-2.7313240">
        <ele>53.0</ele>
        <time>2022-11-01T12:36:07Z</time>
      </trkpt>
      <trkpt lat="36.6997870" lon="-2.7312460">
        <ele>53.0</ele>
        <time>2022-11-01T12:36:08Z</time>
      </trkpt>
      <trkpt lat="36.6997970" lon="-2.7311670">
        <ele>53.0</ele>
        <time>2022-11-01T12:36:09Z</time>
      </trkpt>
      <trkpt lat="36.6998080" lon="-2.7310870">
        <ele>52.8</ele>
        <time>2022-11-01T12:36:10Z</time>
      </trkpt>
      <trkpt lat="36.6998210" lon="-2.7310080">
        <ele>52.8</ele>
        <time>2022-11-01T12:36:11Z</time>
      </trkpt>
      <trkpt lat="36.6998350" lon="-2.7309300">
        <ele>52.8</ele>
        <time>2022-11-01T12:36:12Z</time>
      </trkpt>
      <trkpt lat="36.6998460" lon="-2.7308520">
        <ele>52.8</ele>
        <time>2022-11-01T12:36:13Z</time>
      </trkpt>
      <trkpt lat="36.6998540" lon="-2.7307730">
        <ele>52.8</ele>
        <time>2022-11-01T12:36:14Z</time>
      </trkpt>
      <trkpt lat="36.6998650" lon="-2.7306940">
        <ele>52.8</ele>
        <time>2022-11-01T12:36:15Z</time>
      </trkpt>
      <trkpt lat="36.6998750" lon="-2.7306170">
        <ele>52.8</ele>
        <time>2022-11-01T12:36:16Z</time>
      </trkpt>
      <trkpt lat="36.6998860" lon="-2.7305390">
        <ele>52.8</ele>
        <time>2022-11-01T12:36:17Z</time>
      </trkpt>
      <trkpt lat="36.6998950" lon="-2.7304620">
        <ele>52.8</ele>
        <time>2022-11-01T12:36:18Z</time>
      </trkpt>
      <trkpt lat="36.6999050" lon="-2.7303860">
        <ele>52.6</ele>
        <time>2022-11-01T12:36:19Z</time>
      </trkpt>
      <trkpt lat="36.6999170" lon="-2.7303110">
        <ele>52.6</ele>
        <time>2022-11-01T12:36:20Z</time>
      </trkpt>
      <trkpt lat="36.6999300" lon="-2.7302350">
        <ele>52.6</ele>
        <time>2022-11-01T12:36:21Z</time>
      </trkpt>
      <trkpt lat="36.6999430" lon="-2.7301580">
        <ele>52.6</ele>
        <time>2022-11-01T12:36:22Z</time>
      </trkpt>
      <trkpt lat="36.6999530" lon="-2.7300790">
        <ele>52.4</ele>
        <time>2022-11-01T12:36:23Z</time>
      </trkpt>
      <trkpt lat="36.6999620" lon="-2.7299970">
        <ele>52.4</ele>
        <time>2022-11-01T12:36:24Z</time>
      </trkpt>
      <trkpt lat="36.6999730" lon="-2.7299150">
        <ele>52.4</ele>
        <time>2022-11-01T12:36:25Z</time>
      </trkpt>
      <trkpt lat="36.6999860" lon="-2.7298320">
        <ele>52.4</ele>
        <time>2022-11-01T12:36:26Z</time>
      </trkpt>
      <trkpt lat="36.6999990" lon="-2.7297480">
        <ele>52.2</ele>
        <time>2022-11-01T12:36:27Z</time>
      </trkpt>
      <trkpt lat="36.7000110" lon="-2.7296650">
        <ele>52.2</ele>
        <time>2022-11-01T12:36:28Z</time>
      </trkpt>
      <trkpt lat="36.7000220" lon="-2.7295800">
        <ele>52.2</ele>
        <time>2022-11-01T12:36:29Z</time>
      </trkpt>
      <trkpt lat="36.7000340" lon="-2.7294950">
        <ele>52.2</ele>
        <time>2022-11-01T12:36:30Z</time>
      </trkpt>
      <trkpt lat="36.7000480" lon="-2.7294090">
        <ele>52.2</ele>
        <time>2022-11-01T12:36:31Z</time>
      </trkpt>
      <trkpt lat="36.7000600" lon="-2.7293240">
        <ele>52.2</ele>
        <time>2022-11-01T12:36:32Z</time>
      </trkpt>
      <trkpt lat="36.7000740" lon="-2.7292380">
        <ele>52.0</ele>
        <time>2022-11-01T12:36:33Z</time>
      </trkpt>
      <trkpt lat="36.7000870" lon="-2.7291520">
        <ele>52.0</ele>
        <time>2022-11-01T12:36:34Z</time>
      </trkpt>
      <trkpt lat="36.7001010" lon="-2.7290660">
        <ele>52.0</ele>
        <time>2022-11-01T12:36:35Z</time>
      </trkpt>
      <trkpt lat="36.7001150" lon="-2.7289830">
        <ele>52.0</ele>
        <time>2022-11-01T12:36:36Z</time>
      </trkpt>
      <trkpt lat="36.7001270" lon="-2.7288990">
        <ele>51.8</ele>
        <time>2022-11-01T12:36:37Z</time>
      </trkpt>
      <trkpt lat="36.7001400" lon="-2.7288150">
        <ele>51.8</ele>
        <time>2022-11-01T12:36:38Z</time>
      </trkpt>
      <trkpt lat="36.7001530" lon="-2.7287300">
        <ele>51.8</ele>
        <time>2022-11-01T12:36:39Z</time>
      </trkpt>
      <trkpt lat="36.7001650" lon="-2.7286440">
        <ele>51.6</ele>
        <time>2022-11-01T12:36:40Z</time>
      </trkpt>
      <trkpt lat="36.7001770" lon="-2.7285580">
        <ele>51.6</ele>
        <time>2022-11-01T12:36:41Z</time>
      </trkpt>
      <trkpt lat="36.7001900" lon="-2.7284730">
        <ele>51.4</ele>
        <time>2022-11-01T12:36:42Z</time>
      </trkpt>
      <trkpt lat="36.7002000" lon="-2.7283880">
        <ele>51.4</ele>
        <time>2022-11-01T12:36:43Z</time>
      </trkpt>
      <trkpt lat="36.7002090" lon="-2.7283040">
        <ele>51.4</ele>
        <time>2022-11-01T12:36:44Z</time>
      </trkpt>
      <trkpt lat="36.7002200" lon="-2.7282220">
        <ele>51.4</ele>
        <time>2022-11-01T12:36:45Z</time>
      </trkpt>
      <trkpt lat="36.7002320" lon="-2.7281400">
        <ele>51.4</ele>
        <time>2022-11-01T12:36:46Z</time>
      </trkpt>
      <trkpt lat="36.7002440" lon="-2.7280560">
        <ele>51.2</ele>
        <time>2022-11-01T12:36:47Z</time>
      </trkpt>
      <trkpt lat="36.7002560" lon="-2.7279740">
        <ele>51.2</ele>
        <time>2022-11-01T12:36:48Z</time>
      </trkpt>
      <trkpt lat="36.7002680" lon="-2.7278950">
        <ele>51.2</ele>
        <time>2022-11-01T12:36:49Z</time>
      </trkpt>
      <trkpt lat="36.7002780" lon="-2.7278150">
        <ele>51.0</ele>
        <time>2022-11-01T12:36:50Z</time>
      </trkpt>
      <trkpt lat="36.7002890" lon="-2.7277360">
        <ele>51.0</ele>
        <time>2022-11-01T12:36:51Z</time>
      </trkpt>
      <trkpt lat="36.7003010" lon="-2.7276580">
        <ele>51.0</ele>
        <time>2022-11-01T12:36:52Z</time>
      </trkpt>
      <trkpt lat="36.7003110" lon="-2.7275790">
        <ele>51.0</ele>
        <time>2022-11-01T12:36:53Z</time>
      </trkpt>
      <trkpt lat="36.7003210" lon="-2.7275010">
        <ele>51.0</ele>
        <time>2022-11-01T12:36:54Z</time>
      </trkpt>
      <trkpt lat="36.7003320" lon="-2.7274240">
        <ele>51.0</ele>
        <time>2022-11-01T12:36:55Z</time>
      </trkpt>
      <trkpt lat="36.7003420" lon="-2.7273450">
        <ele>51.0</ele>
        <time>2022-11-01T12:36:56Z</time>
      </trkpt>
      <trkpt lat="36.7003530" lon="-2.7272650">
        <ele>50.8</ele>
        <time>2022-11-01T12:36:57Z</time>
      </trkpt>
      <trkpt lat="36.7003660" lon="-2.7271850">
        <ele>50.6</ele>
        <time>2022-11-01T12:36:58Z</time>
      </trkpt>
      <trkpt lat="36.7003770" lon="-2.7271050">
        <ele>50.6</ele>
        <time>2022-11-01T12:36:59Z</time>
      </trkpt>
      <trkpt lat="36.7003880" lon="-2.7270250">
        <ele>50.4</ele>
        <time>2022-11-01T12:37:00Z</time>
      </trkpt>
      <trkpt lat="36.7003990" lon="-2.7269450">
        <ele>50.2</ele>
        <time>2022-11-01T12:37:01Z</time>
      </trkpt>
      <trkpt lat="36.7004110" lon="-2.7268650">
        <ele>50.2</ele>
        <time>2022-11-01T12:37:02Z</time>
      </trkpt>
      <trkpt lat="36.7004250" lon="-2.7267870">
        <ele>50.0</ele>
        <time>2022-11-01T12:37:03Z</time>
      </trkpt>
      <trkpt lat="36.7004360" lon="-2.7267080">
        <ele>50.0</ele>
        <time>2022-11-01T12:37:04Z</time>
      </trkpt>
      <trkpt lat="36.7004470" lon="-2.7266280">
        <ele>49.8</ele>
        <time>2022-11-01T12:37:05Z</time>
      </trkpt>
      <trkpt lat="36.7004590" lon="-2.7265480">
        <ele>49.8</ele>
        <time>2022-11-01T12:37:06Z</time>
      </trkpt>
      <trkpt lat="36.7004710" lon="-2.7264680">
        <ele>49.6</ele>
        <time>2022-11-01T12:37:07Z</time>
      </trkpt>
      <trkpt lat="36.7004820" lon="-2.7263870">
        <ele>49.6</ele>
        <time>2022-11-01T12:37:08Z</time>
      </trkpt>
      <trkpt lat="36.7004940" lon="-2.7263050">
        <ele>49.4</ele>
        <time>2022-11-01T12:37:09Z</time>
      </trkpt>
      <trkpt lat="36.7005060" lon="-2.7262210">
        <ele>49.4</ele>
        <time>2022-11-01T12:37:10Z</time>
      </trkpt>
      <trkpt lat="36.7005180" lon="-2.7261370">
        <ele>49.2</ele>
        <time>2022-11-01T12:37:11Z</time>
      </trkpt>
      <trkpt lat="36.7005300" lon="-2.7260530">
        <ele>49.2</ele>
        <time>2022-11-01T12:37:12Z</time>
      </trkpt>
      <trkpt lat="36.7005420" lon="-2.7259680">
        <ele>49.2</ele>
        <time>2022-11-01T12:37:13Z</time>
      </trkpt>
      <trkpt lat="36.7005540" lon="-2.7258840">
        <ele>49.2</ele>
        <time>2022-11-01T12:37:14Z</time>
      </trkpt>
      <trkpt lat="36.7005640" lon="-2.7257990">
        <ele>49.2</ele>
        <time>2022-11-01T12:37:15Z</time>
      </trkpt>
      <trkpt lat="36.7005760" lon="-2.7257130">
        <ele>49.2</ele>
        <time>2022-11-01T12:37:16Z</time>
      </trkpt>
      <trkpt lat="36.7005890" lon="-2.7256270">
        <ele>49.2</ele>
        <time>2022-11-01T12:37:17Z</time>
      </trkpt>
      <trkpt lat="36.7006010" lon="-2.7255440">
        <ele>49.2</ele>
        <time>2022-11-01T12:37:18Z</time>
      </trkpt>
      <trkpt lat="36.7006130" lon="-2.7254610">
        <ele>49.2</ele>
        <time>2022-11-01T12:37:19Z</time>
      </trkpt>
      <trkpt lat="36.7006240" lon="-2.7253790">
        <ele>49.4</ele>
        <time>2022-11-01T12:37:20Z</time>
      </trkpt>
      <trkpt lat="36.7006340" lon="-2.7252990">
        <ele>49.4</ele>
        <time>2022-11-01T12:37:21Z</time>
      </trkpt>
      <trkpt lat="36.7006450" lon="-2.7252190">
        <ele>49.4</ele>
        <time>2022-11-01T12:37:22Z</time>
      </trkpt>
      <trkpt lat="36.7006560" lon="-2.7251390">
        <ele>49.4</ele>
        <time>2022-11-01T12:37:23Z</time>
      </trkpt>
      <trkpt lat="36.7006650" lon="-2.7250600">
        <ele>49.6</ele>
        <time>2022-11-01T12:37:24Z</time>
      </trkpt>
      <trkpt lat="36.7006750" lon="-2.7249820">
        <ele>49.6</ele>
        <time>2022-11-01T12:37:25Z</time>
      </trkpt>
      <trkpt lat="36.7006860" lon="-2.7249040">
        <ele>49.8</ele>
        <time>2022-11-01T12:37:26Z</time>
      </trkpt>
      <trkpt lat="36.7006970" lon="-2.7248260">
        <ele>49.8</ele>
        <time>2022-11-01T12:37:27Z</time>
      </trkpt>
      <trkpt lat="36.7007070" lon="-2.7247480">
        <ele>50.0</ele>
        <time>2022-11-01T12:37:28Z</time>
      </trkpt>
      <trkpt lat="36.7007170" lon="-2.7246710">
        <ele>50.0</ele>
        <time>2022-11-01T12:37:29Z</time>
      </trkpt>
      <trkpt lat="36.7007270" lon="-2.7245940">
        <ele>50.0</ele>
        <time>2022-11-01T12:37:30Z</time>
      </trkpt>
      <trkpt lat="36.7007370" lon="-2.7245170">
        <ele>50.0</ele>
        <time>2022-11-01T12:37:31Z</time>
      </trkpt>
      <trkpt lat="36.7007470" lon="-2.7244400">
        <ele>50.0</ele>
        <time>2022-11-01T12:37:32Z</time>
      </trkpt>
      <trkpt lat="36.7007580" lon="-2.7243620">
        <ele>50.0</ele>
        <time>2022-11-01T12:37:33Z</time>
      </trkpt>
      <trkpt lat="36.7007700" lon="-2.7242860">
        <ele>50.2</ele>
        <time>2022-11-01T12:37:34Z</time>
      </trkpt>
      <trkpt lat="36.7007810" lon="-2.7242120">
        <ele>50.2</ele>
        <time>2022-11-01T12:37:35Z</time>
      </trkpt>
      <trkpt lat="36.7007930" lon="-2.7241400">
        <ele>50.2</ele>
        <time>2022-11-01T12:37:36Z</time>
      </trkpt>
      <trkpt lat="36.7008040" lon="-2.7240700">
        <ele>50.0</ele>
        <time>2022-11-01T12:37:37Z</time>
      </trkpt>
      <trkpt lat="36.7008140" lon="-2.7239980">
        <ele>50.0</ele>
        <time>2022-11-01T12:37:38Z</time>
      </trkpt>
      <trkpt lat="36.7008230" lon="-2.7239260">
        <ele>49.8</ele>
        <time>2022-11-01T12:37:39Z</time>
      </trkpt>
      <trkpt lat="36.7008320" lon="-2.7238540">
        <ele>49.8</ele>
        <time>2022-11-01T12:37:40Z</time>
      </trkpt>
      <trkpt lat="36.7008400" lon="-2.7237820">
        <ele>49.6</ele>
        <time>2022-11-01T12:37:41Z</time>
      </trkpt>
      <trkpt lat="36.7008460" lon="-2.7237100">
        <ele>49.4</ele>
        <time>2022-11-01T12:37:42Z</time>
      </trkpt>
      <trkpt lat="36.7008530" lon="-2.7236350">
        <ele>49.4</ele>
        <time>2022-11-01T12:37:43Z</time>
      </trkpt>
      <trkpt lat="36.7008630" lon="-2.7235620">
        <ele>49.4</ele>
        <time>2022-11-01T12:37:44Z</time>
      </trkpt>
      <trkpt lat="36.7008760" lon="-2.7234860">
        <ele>49.4</ele>
        <time>2022-11-01T12:37:45Z</time>
      </trkpt>
      <trkpt lat="36.7008870" lon="-2.7234080">
        <ele>49.2</ele>
        <time>2022-11-01T12:37:46Z</time>
      </trkpt>
      <trkpt lat="36.7008980" lon="-2.7233290">
        <ele>49.2</ele>
        <time>2022-11-01T12:37:47Z</time>
      </trkpt>
      <trkpt lat="36.7009100" lon="-2.7232470">
        <ele>49.2</ele>
        <time>2022-11-01T12:37:48Z</time>
      </trkpt>
      <trkpt lat="36.7009230" lon="-2.7231650">
        <ele>49.2</ele>
        <time>2022-11-01T12:37:49Z</time>
      </trkpt>
      <trkpt lat="36.7009350" lon="-2.7230820">
        <ele>49.2</ele>
        <time>2022-11-01T12:37:50Z</time>
      </trkpt>
      <trkpt lat="36.7009480" lon="-2.7229990">
        <ele>49.2</ele>
        <time>2022-11-01T12:37:51Z</time>
      </trkpt>
      <trkpt lat="36.7009620" lon="-2.7229160">
        <ele>49.2</ele>
        <time>2022-11-01T12:37:52Z</time>
      </trkpt>
      <trkpt lat="36.7009760" lon="-2.7228310">
        <ele>49.2</ele>
        <time>2022-11-01T12:37:53Z</time>
      </trkpt>
      <trkpt lat="36.7009890" lon="-2.7227450">
        <ele>49.2</ele>
        <time>2022-11-01T12:37:54Z</time>
      </trkpt>
      <trkpt lat="36.7010030" lon="-2.7226590">
        <ele>49.2</ele>
        <time>2022-11-01T12:37:55Z</time>
      </trkpt>
      <trkpt lat="36.7010170" lon="-2.7225740">
        <ele>49.2</ele>
        <time>2022-11-01T12:37:56Z</time>
      </trkpt>
      <trkpt lat="36.7010280" lon="-2.7224910">
        <ele>49.0</ele>
        <time>2022-11-01T12:37:57Z</time>
      </trkpt>
      <trkpt lat="36.7010390" lon="-2.7224060">
        <ele>49.2</ele>
        <time>2022-11-01T12:37:58Z</time>
      </trkpt>
      <trkpt lat="36.7010490" lon="-2.7223220">
        <ele>49.2</ele>
        <time>2022-11-01T12:37:59Z</time>
      </trkpt>
      <trkpt lat="36.7010600" lon="-2.7222360">
        <ele>49.2</ele>
        <time>2022-11-01T12:38:00Z</time>
      </trkpt>
      <trkpt lat="36.7010720" lon="-2.7221510">
        <ele>49.0</ele>
        <time>2022-11-01T12:38:01Z</time>
      </trkpt>
      <trkpt lat="36.7010830" lon="-2.7220670">
        <ele>49.0</ele>
        <time>2022-11-01T12:38:02Z</time>
      </trkpt>
      <trkpt lat="36.7010930" lon="-2.7219830">
        <ele>49.0</ele>
        <time>2022-11-01T12:38:03Z</time>
      </trkpt>
      <trkpt lat="36.7011040" lon="-2.7218980">
        <ele>49.0</ele>
        <time>2022-11-01T12:38:04Z</time>
      </trkpt>
      <trkpt lat="36.7011150" lon="-2.7218130">
        <ele>49.0</ele>
        <time>2022-11-01T12:38:05Z</time>
      </trkpt>
      <trkpt lat="36.7011260" lon="-2.7217280">
        <ele>49.0</ele>
        <time>2022-11-01T12:38:06Z</time>
      </trkpt>
      <trkpt lat="36.7011370" lon="-2.7216420">
        <ele>49.0</ele>
        <time>2022-11-01T12:38:07Z</time>
      </trkpt>
      <trkpt lat="36.7011470" lon="-2.7215570">
        <ele>49.0</ele>
        <time>2022-11-01T12:38:08Z</time>
      </trkpt>
      <trkpt lat="36.7011580" lon="-2.7214730">
        <ele>49.0</ele>
        <time>2022-11-01T12:38:09Z</time>
      </trkpt>
      <trkpt lat="36.7011690" lon="-2.7213880">
        <ele>49.0</ele>
        <time>2022-11-01T12:38:10Z</time>
      </trkpt>
      <trkpt lat="36.7011800" lon="-2.7213030">
        <ele>49.0</ele>
        <time>2022-11-01T12:38:11Z</time>
      </trkpt>
      <trkpt lat="36.7011910" lon="-2.7212190">
        <ele>48.8</ele>
        <time>2022-11-01T12:38:12Z</time>
      </trkpt>
      <trkpt lat="36.7012000" lon="-2.7211350">
        <ele>48.8</ele>
        <time>2022-11-01T12:38:13Z</time>
      </trkpt>
      <trkpt lat="36.7012100" lon="-2.7210500">
        <ele>48.8</ele>
        <time>2022-11-01T12:38:14Z</time>
      </trkpt>
      <trkpt lat="36.7012200" lon="-2.7209660">
        <ele>48.8</ele>
        <time>2022-11-01T12:38:15Z</time>
      </trkpt>
      <trkpt lat="36.7012310" lon="-2.7208830">
        <ele>48.6</ele>
        <time>2022-11-01T12:38:16Z</time>
      </trkpt>
      <trkpt lat="36.7012420" lon="-2.7208020">
        <ele>48.8</ele>
        <time>2022-11-01T12:38:17Z</time>
      </trkpt>
      <trkpt lat="36.7012530" lon="-2.7207210">
        <ele>48.8</ele>
        <time>2022-11-01T12:38:18Z</time>
      </trkpt>
      <trkpt lat="36.7012660" lon="-2.7206400">
        <ele>49.0</ele>
        <time>2022-11-01T12:38:19Z</time>
      </trkpt>
      <trkpt lat="36.7012780" lon="-2.7205580">
        <ele>49.0</ele>
        <time>2022-11-01T12:38:20Z</time>
      </trkpt>
      <trkpt lat="36.7012880" lon="-2.7204770">
        <ele>49.0</ele>
        <time>2022-11-01T12:38:21Z</time>
      </trkpt>
      <trkpt lat="36.7012980" lon="-2.7203950">
        <ele>49.0</ele>
        <time>2022-11-01T12:38:22Z</time>
      </trkpt>
      <trkpt lat="36.7013100" lon="-2.7203120">
        <ele>49.0</ele>
        <time>2022-11-01T12:38:23Z</time>
      </trkpt>
      <trkpt lat="36.7013230" lon="-2.7202310">
        <ele>49.0</ele>
        <time>2022-11-01T12:38:24Z</time>
      </trkpt>
      <trkpt lat="36.7013350" lon="-2.7201490">
        <ele>49.0</ele>
        <time>2022-11-01T12:38:25Z</time>
      </trkpt>
      <trkpt lat="36.7013460" lon="-2.7200690">
        <ele>49.0</ele>
        <time>2022-11-01T12:38:26Z</time>
      </trkpt>
      <trkpt lat="36.7013570" lon="-2.7199890">
        <ele>49.0</ele>
        <time>2022-11-01T12:38:27Z</time>
      </trkpt>
      <trkpt lat="36.7013680" lon="-2.7199100">
        <ele>49.0</ele>
        <time>2022-11-01T12:38:28Z</time>
      </trkpt>
      <trkpt lat="36.7013780" lon="-2.7198320">
        <ele>49.2</ele>
        <time>2022-11-01T12:38:29Z</time>
      </trkpt>
      <trkpt lat="36.7013870" lon="-2.7197520">
        <ele>49.2</ele>
        <time>2022-11-01T12:38:30Z</time>
      </trkpt>
      <trkpt lat="36.7013980" lon="-2.7196730">
        <ele>49.2</ele>
        <time>2022-11-01T12:38:31Z</time>
      </trkpt>
      <trkpt lat="36.7014090" lon="-2.7195950">
        <ele>49.2</ele>
        <time>2022-11-01T12:38:32Z</time>
      </trkpt>
      <trkpt lat="36.7014210" lon="-2.7195150">
        <ele>49.2</ele>
        <time>2022-11-01T12:38:33Z</time>
      </trkpt>
      <trkpt lat="36.7014310" lon="-2.7194360">
        <ele>49.2</ele>
        <time>2022-11-01T12:38:34Z</time>
      </trkpt>
      <trkpt lat="36.7014410" lon="-2.7193550">
        <ele>49.4</ele>
        <time>2022-11-01T12:38:35Z</time>
      </trkpt>
      <trkpt lat="36.7014530" lon="-2.7192750">
        <ele>49.4</ele>
        <time>2022-11-01T12:38:36Z</time>
      </trkpt>
      <trkpt lat="36.7014650" lon="-2.7191940">
        <ele>49.4</ele>
        <time>2022-11-01T12:38:37Z</time>
      </trkpt>
      <trkpt lat="36.7014770" lon="-2.7191130">
        <ele>49.4</ele>
        <time>2022-11-01T12:38:38Z</time>
      </trkpt>
      <trkpt lat="36.7014880" lon="-2.7190330">
        <ele>49.4</ele>
        <time>2022-11-01T12:38:39Z</time>
      </trkpt>
      <trkpt lat="36.7014990" lon="-2.7189520">
        <ele>49.4</ele>
        <time>2022-11-01T12:38:40Z</time>
      </trkpt>
      <trkpt lat="36.7015090" lon="-2.7188720">
        <ele>49.4</ele>
        <time>2022-11-01T12:38:41Z</time>
      </trkpt>
      <trkpt lat="36.7015190" lon="-2.7187890">
        <ele>49.4</ele>
        <time>2022-11-01T12:38:42Z</time>
      </trkpt>
      <trkpt lat="36.7015300" lon="-2.7187070">
        <ele>49.4</ele>
        <time>2022-11-01T12:38:43Z</time>
      </trkpt>
      <trkpt lat="36.7015400" lon="-2.7186240">
        <ele>49.4</ele>
        <time>2022-11-01T12:38:44Z</time>
      </trkpt>
      <trkpt lat="36.7015510" lon="-2.7185430">
        <ele>49.4</ele>
        <time>2022-11-01T12:38:45Z</time>
      </trkpt>
      <trkpt lat="36.7015620" lon="-2.7184620">
        <ele>49.4</ele>
        <time>2022-11-01T12:38:46Z</time>
      </trkpt>
      <trkpt lat="36.7015720" lon="-2.7183820">
        <ele>49.6</ele>
        <time>2022-11-01T12:38:47Z</time>
      </trkpt>
      <trkpt lat="36.7015840" lon="-2.7183010">
        <ele>49.6</ele>
        <time>2022-11-01T12:38:48Z</time>
      </trkpt>
      <trkpt lat="36.7015950" lon="-2.7182210">
        <ele>49.6</ele>
        <time>2022-11-01T12:38:49Z</time>
      </trkpt>
      <trkpt lat="36.7016050" lon="-2.7181400">
        <ele>49.6</ele>
        <time>2022-11-01T12:38:50Z</time>
      </trkpt>
      <trkpt lat="36.7016160" lon="-2.7180590">
        <ele>49.6</ele>
        <time>2022-11-01T12:38:51Z</time>
      </trkpt>
      <trkpt lat="36.7016270" lon="-2.7179780">
        <ele>49.8</ele>
        <time>2022-11-01T12:38:52Z</time>
      </trkpt>
      <trkpt lat="36.7016390" lon="-2.7178980">
        <ele>49.8</ele>
        <time>2022-11-01T12:38:53Z</time>
      </trkpt>
      <trkpt lat="36.7016510" lon="-2.7178190">
        <ele>49.8</ele>
        <time>2022-11-01T12:38:54Z</time>
      </trkpt>
      <trkpt lat="36.7016630" lon="-2.7177390">
        <ele>49.8</ele>
        <time>2022-11-01T12:38:55Z</time>
      </trkpt>
      <trkpt lat="36.7016740" lon="-2.7176590">
        <ele>49.8</ele>
        <time>2022-11-01T12:38:56Z</time>
      </trkpt>
      <trkpt lat="36.7016850" lon="-2.7175790">
        <ele>50.0</ele>
        <time>2022-11-01T12:38:57Z</time>
      </trkpt>
      <trkpt lat="36.7016960" lon="-2.7174990">
        <ele>50.0</ele>
        <time>2022-11-01T12:38:58Z</time>
      </trkpt>
      <trkpt lat="36.7017080" lon="-2.7174190">
        <ele>50.0</ele>
        <time>2022-11-01T12:38:59Z</time>
      </trkpt>
      <trkpt lat="36.7017200" lon="-2.7173400">
        <ele>50.0</ele>
        <time>2022-11-01T12:39:00Z</time>
      </trkpt>
      <trkpt lat="36.7017320" lon="-2.7172610">
        <ele>50.0</ele>
        <time>2022-11-01T12:39:01Z</time>
      </trkpt>
      <trkpt lat="36.7017420" lon="-2.7171820">
        <ele>50.0</ele>
        <time>2022-11-01T12:39:02Z</time>
      </trkpt>
      <trkpt lat="36.7017510" lon="-2.7171030">
        <ele>50.2</ele>
        <time>2022-11-01T12:39:03Z</time>
      </trkpt>
      <trkpt lat="36.7017610" lon="-2.7170250">
        <ele>50.2</ele>
        <time>2022-11-01T12:39:04Z</time>
      </trkpt>
      <trkpt lat="36.7017720" lon="-2.7169490">
        <ele>50.2</ele>
        <time>2022-11-01T12:39:05Z</time>
      </trkpt>
      <trkpt lat="36.7017830" lon="-2.7168740">
        <ele>50.2</ele>
        <time>2022-11-01T12:39:06Z</time>
      </trkpt>
      <trkpt lat="36.7017940" lon="-2.7168000">
        <ele>50.4</ele>
        <time>2022-11-01T12:39:07Z</time>
      </trkpt>
      <trkpt lat="36.7018050" lon="-2.7167270">
        <ele>50.4</ele>
        <time>2022-11-01T12:39:08Z</time>
      </trkpt>
      <trkpt lat="36.7018140" lon="-2.7166540">
        <ele>50.6</ele>
        <time>2022-11-01T12:39:09Z</time>
      </trkpt>
      <trkpt lat="36.7018230" lon="-2.7165820">
        <ele>50.6</ele>
        <time>2022-11-01T12:39:10Z</time>
      </trkpt>
      <trkpt lat="36.7018330" lon="-2.7165110">
        <ele>50.6</ele>
        <time>2022-11-01T12:39:11Z</time>
      </trkpt>
      <trkpt lat="36.7018410" lon="-2.7164390">
        <ele>50.8</ele>
        <time>2022-11-01T12:39:12Z</time>
      </trkpt>
      <trkpt lat="36.7018500" lon="-2.7163680">
        <ele>50.8</ele>
        <time>2022-11-01T12:39:13Z</time>
      </trkpt>
      <trkpt lat="36.7018590" lon="-2.7162970">
        <ele>50.8</ele>
        <time>2022-11-01T12:39:14Z</time>
      </trkpt>
      <trkpt lat="36.7018690" lon="-2.7162280">
        <ele>51.0</ele>
        <time>2022-11-01T12:39:15Z</time>
      </trkpt>
      <trkpt lat="36.7018780" lon="-2.7161590">
        <ele>51.0</ele>
        <time>2022-11-01T12:39:16Z</time>
      </trkpt>
      <trkpt lat="36.7018890" lon="-2.7160900">
        <ele>51.2</ele>
        <time>2022-11-01T12:39:17Z</time>
      </trkpt>
      <trkpt lat="36.7019030" lon="-2.7160240">
        <ele>51.2</ele>
        <time>2022-11-01T12:39:18Z</time>
      </trkpt>
      <trkpt lat="36.7019130" lon="-2.7159570">
        <ele>51.4</ele>
        <time>2022-11-01T12:39:19Z</time>
      </trkpt>
      <trkpt lat="36.7019220" lon="-2.7158880">
        <ele>51.4</ele>
        <time>2022-11-01T12:39:20Z</time>
      </trkpt>
      <trkpt lat="36.7019310" lon="-2.7158200">
        <ele>51.6</ele>
        <time>2022-11-01T12:39:21Z</time>
      </trkpt>
      <trkpt lat="36.7019400" lon="-2.7157530">
        <ele>51.6</ele>
        <time>2022-11-01T12:39:22Z</time>
      </trkpt>
      <trkpt lat="36.7019520" lon="-2.7156890">
        <ele>51.6</ele>
        <time>2022-11-01T12:39:23Z</time>
      </trkpt>
      <trkpt lat="36.7019640" lon="-2.7156260">
        <ele>51.8</ele>
        <time>2022-11-01T12:39:24Z</time>
      </trkpt>
      <trkpt lat="36.7019740" lon="-2.7155620">
        <ele>52.0</ele>
        <time>2022-11-01T12:39:25Z</time>
      </trkpt>
      <trkpt lat="36.7019820" lon="-2.7154970">
        <ele>52.0</ele>
        <time>2022-11-01T12:39:26Z</time>
      </trkpt>
      <trkpt lat="36.7019890" lon="-2.7154340">
        <ele>52.0</ele>
        <time>2022-11-01T12:39:27Z</time>
      </trkpt>
      <trkpt lat="36.7019980" lon="-2.7153720">
        <ele>52.0</ele>
        <time>2022-11-01T12:39:28Z</time>
      </trkpt>
      <trkpt lat="36.7020080" lon="-2.7153100">
        <ele>52.0</ele>
        <time>2022-11-01T12:39:29Z</time>
      </trkpt>
      <trkpt lat="36.7020150" lon="-2.7152500">
        <ele>52.0</ele>
        <time>2022-11-01T12:39:30Z</time>
      </trkpt>
      <trkpt lat="36.7020230" lon="-2.7151900">
        <ele>52.0</ele>
        <time>2022-11-01T12:39:31Z</time>
      </trkpt>
      <trkpt lat="36.7020300" lon="-2.7151310">
        <ele>52.2</ele>
        <time>2022-11-01T12:39:32Z</time>
      </trkpt>
      <trkpt lat="36.7020390" lon="-2.7150700">
        <ele>52.4</ele>
        <time>2022-11-01T12:39:33Z</time>
      </trkpt>
      <trkpt lat="36.7020500" lon="-2.7150100">
        <ele>52.4</ele>
        <time>2022-11-01T12:39:34Z</time>
      </trkpt>
      <trkpt lat="36.7020600" lon="-2.7149500">
        <ele>52.4</ele>
        <time>2022-11-01T12:39:35Z</time>
      </trkpt>
      <trkpt lat="36.7020680" lon="-2.7148910">
        <ele>52.4</ele>
        <time>2022-11-01T12:39:36Z</time>
      </trkpt>
      <trkpt lat="36.7020770" lon="-2.7148340">
        <ele>52.4</ele>
        <time>2022-11-01T12:39:37Z</time>
      </trkpt>
      <trkpt lat="36.7020850" lon="-2.7147770">
        <ele>52.4</ele>
        <time>2022-11-01T12:39:38Z</time>
      </trkpt>
      <trkpt lat="36.7020920" lon="-2.7147220">
        <ele>52.4</ele>
        <time>2022-11-01T12:39:39Z</time>
      </trkpt>
      <trkpt lat="36.7020990" lon="-2.7146730">
        <ele>52.4</ele>
        <time>2022-11-01T12:39:40Z</time>
      </trkpt>
      <trkpt lat="36.7021040" lon="-2.7146350">
        <ele>52.4</ele>
        <time>2022-11-01T12:39:41Z</time>
      </trkpt>
      <trkpt lat="36.7021050" lon="-2.7146060">
        <ele>52.4</ele>
        <time>2022-11-01T12:39:42Z</time>
      </trkpt>
      <trkpt lat="36.7021040" lon="-2.7145860">
        <ele>52.4</ele>
        <time>2022-11-01T12:39:43Z</time>
      </trkpt>
      <trkpt lat="36.7021010" lon="-2.7145820">
        <ele>52.4</ele>
        <time>2022-11-01T12:39:44Z</time>
      </trkpt>
      <trkpt lat="36.7021000" lon="-2.7145810">
        <ele>52.4</ele>
        <time>2022-11-01T12:39:45Z</time>
      </trkpt>
      <trkpt lat="36.7021000" lon="-2.7145800">
        <ele>52.4</ele>
        <time>2022-11-01T12:39:46Z</time>
      </trkpt>
      <trkpt lat="36.7021000" lon="-2.7145800">
        <ele>52.4</ele>
        <time>2022-11-01T12:39:47Z</time>
      </trkpt>
      <trkpt lat="36.7021010" lon="-2.7145770">
        <ele>52.4</ele>
        <time>2022-11-01T12:39:48Z</time>
      </trkpt>
      <trkpt lat="36.7020920" lon="-2.7144300">
        <ele>53.0</ele>
        <time>2022-11-01T12:41:27Z</time>
      </trkpt>
      <trkpt lat="36.7020920" lon="-2.7144300">
        <ele>53.0</ele>
        <time>2022-11-01T12:41:28Z</time>
      </trkpt>
      <trkpt lat="36.7020810" lon="-2.7144020">
        <ele>52.8</ele>
        <time>2022-11-01T12:41:29Z</time>
      </trkpt>
      <trkpt lat="36.7020640" lon="-2.7143750">
        <ele>53.0</ele>
        <time>2022-11-01T12:41:30Z</time>
      </trkpt>
      <trkpt lat="36.7020420" lon="-2.7143550">
        <ele>53.0</ele>
        <time>2022-11-01T12:41:31Z</time>
      </trkpt>
      <trkpt lat="36.7020210" lon="-2.7143380">
        <ele>53.0</ele>
        <time>2022-11-01T12:41:32Z</time>
      </trkpt>
      <trkpt lat="36.7019970" lon="-2.7143220">
        <ele>53.0</ele>
        <time>2022-11-01T12:41:33Z</time>
      </trkpt>
      <trkpt lat="36.7019710" lon="-2.7143060">
        <ele>53.0</ele>
        <time>2022-11-01T12:41:34Z</time>
      </trkpt>
      <trkpt lat="36.7019400" lon="-2.7142900">
        <ele>53.0</ele>
        <time>2022-11-01T12:41:35Z</time>
      </trkpt>
      <trkpt lat="36.7019060" lon="-2.7142680">
        <ele>53.0</ele>
        <time>2022-11-01T12:41:36Z</time>
      </trkpt>
      <trkpt lat="36.7018670" lon="-2.7142430">
        <ele>53.0</ele>
        <time>2022-11-01T12:41:37Z</time>
      </trkpt>
      <trkpt lat="36.7018240" lon="-2.7142160">
        <ele>53.0</ele>
        <time>2022-11-01T12:41:38Z</time>
      </trkpt>
      <trkpt lat="36.7017780" lon="-2.7141870">
        <ele>52.8</ele>
        <time>2022-11-01T12:41:39Z</time>
      </trkpt>
      <trkpt lat="36.7017290" lon="-2.7141530">
        <ele>52.8</ele>
        <time>2022-11-01T12:41:40Z</time>
      </trkpt>
      <trkpt lat="36.7016780" lon="-2.7141200">
        <ele>52.6</ele>
        <time>2022-11-01T12:41:41Z</time>
      </trkpt>
      <trkpt lat="36.7016250" lon="-2.7140860">
        <ele>52.4</ele>
        <time>2022-11-01T12:41:42Z</time>
      </trkpt>
      <trkpt lat="36.7015720" lon="-2.7140550">
        <ele>52.4</ele>
        <time>2022-11-01T12:41:43Z</time>
      </trkpt>
      <trkpt lat="36.7015170" lon="-2.7140230">
        <ele>52.2</ele>
        <time>2022-11-01T12:41:44Z</time>
      </trkpt>
      <trkpt lat="36.7014600" lon="-2.7139870">
        <ele>52.0</ele>
        <time>2022-11-01T12:41:45Z</time>
      </trkpt>
      <trkpt lat="36.7014040" lon="-2.7139480">
        <ele>51.6</ele>
        <time>2022-11-01T12:41:46Z</time>
      </trkpt>
      <trkpt lat="36.7013430" lon="-2.7139140">
        <ele>51.4</ele>
        <time>2022-11-01T12:41:47Z</time>
      </trkpt>
      <trkpt lat="36.7012870" lon="-2.7138790">
        <ele>51.2</ele>
        <time>2022-11-01T12:41:48Z</time>
      </trkpt>
      <trkpt lat="36.7012290" lon="-2.7138430">
        <ele>51.0</ele>
        <time>2022-11-01T12:41:49Z</time>
      </trkpt>
      <trkpt lat="36.7011720" lon="-2.7138080">
        <ele>50.6</ele>
        <time>2022-11-01T12:41:50Z</time>
      </trkpt>
      <trkpt lat="36.7011160" lon="-2.7137700">
        <ele>50.4</ele>
        <time>2022-11-01T12:41:51Z</time>
      </trkpt>
      <trkpt lat="36.7010570" lon="-2.7137350">
        <ele>50.0</ele>
        <time>2022-11-01T12:41:52Z</time>
      </trkpt>
      <trkpt lat="36.7009990" lon="-2.7136990">
        <ele>49.8</ele>
        <time>2022-11-01T12:41:53Z</time>
      </trkpt>
      <trkpt lat="36.7009390" lon="-2.7136630">
        <ele>49.4</ele>
        <time>2022-11-01T12:41:54Z</time>
      </trkpt>
      <trkpt lat="36.7008780" lon="-2.7136250">
        <ele>49.2</ele>
        <time>2022-11-01T12:41:55Z</time>
      </trkpt>
      <trkpt lat="36.7008140" lon="-2.7135850">
        <ele>48.8</ele>
        <time>2022-11-01T12:41:56Z</time>
      </trkpt>
      <trkpt lat="36.7007480" lon="-2.7135460">
        <ele>48.4</ele>
        <time>2022-11-01T12:41:57Z</time>
      </trkpt>
      <trkpt lat="36.7006800" lon="-2.7135070">
        <ele>47.8</ele>
        <time>2022-11-01T12:41:58Z</time>
      </trkpt>
      <trkpt lat="36.7006100" lon="-2.7134670">
        <ele>47.4</ele>
        <time>2022-11-01T12:41:59Z</time>
      </trkpt>
      <trkpt lat="36.7005360" lon="-2.7134220">
        <ele>46.8</ele>
        <time>2022-11-01T12:42:00Z</time>
      </trkpt>
      <trkpt lat="36.7004600" lon="-2.7133780">
        <ele>46.2</ele>
        <time>2022-11-01T12:42:01Z</time>
      </trkpt>
      <trkpt lat="36.7003810" lon="-2.7133340">
        <ele>45.8</ele>
        <time>2022-11-01T12:42:02Z</time>
      </trkpt>
      <trkpt lat="36.7003010" lon="-2.7132920">
        <ele>45.4</ele>
        <time>2022-11-01T12:42:03Z</time>
      </trkpt>
      <trkpt lat="36.7002200" lon="-2.7132490">
        <ele>44.8</ele>
        <time>2022-11-01T12:42:04Z</time>
      </trkpt>
      <trkpt lat="36.7001380" lon="-2.7132060">
        <ele>44.4</ele>
        <time>2022-11-01T12:42:05Z</time>
      </trkpt>
      <trkpt lat="36.7000550" lon="-2.7131640">
        <ele>43.8</ele>
        <time>2022-11-01T12:42:06Z</time>
      </trkpt>
      <trkpt lat="36.6999720" lon="-2.7131230">
        <ele>43.6</ele>
        <time>2022-11-01T12:42:07Z</time>
      </trkpt>
      <trkpt lat="36.6998890" lon="-2.7130840">
        <ele>43.2</ele>
        <time>2022-11-01T12:42:08Z</time>
      </trkpt>
      <trkpt lat="36.6998050" lon="-2.7130440">
        <ele>42.8</ele>
        <time>2022-11-01T12:42:09Z</time>
      </trkpt>
      <trkpt lat="36.6997210" lon="-2.7130040">
        <ele>42.4</ele>
        <time>2022-11-01T12:42:10Z</time>
      </trkpt>
      <trkpt lat="36.6996360" lon="-2.7129650">
        <ele>42.0</ele>
        <time>2022-11-01T12:42:11Z</time>
      </trkpt>
      <trkpt lat="36.6995510" lon="-2.7129260">
        <ele>41.6</ele>
        <time>2022-11-01T12:42:12Z</time>
      </trkpt>
      <trkpt lat="36.6994660" lon="-2.7128870">
        <ele>41.4</ele>
        <time>2022-11-01T12:42:13Z</time>
      </trkpt>
      <trkpt lat="36.6993800" lon="-2.7128500">
        <ele>41.2</ele>
        <time>2022-11-01T12:42:14Z</time>
      </trkpt>
      <trkpt lat="36.6992970" lon="-2.7128120">
        <ele>40.8</ele>
        <time>2022-11-01T12:42:15Z</time>
      </trkpt>
      <trkpt lat="36.6992140" lon="-2.7127750">
        <ele>40.6</ele>
        <time>2022-11-01T12:42:16Z</time>
      </trkpt>
      <trkpt lat="36.6991320" lon="-2.7127380">
        <ele>40.4</ele>
        <time>2022-11-01T12:42:17Z</time>
      </trkpt>
      <trkpt lat="36.6990500" lon="-2.7127000">
        <ele>40.2</ele>
        <time>2022-11-01T12:42:18Z</time>
      </trkpt>
      <trkpt lat="36.6989690" lon="-2.7126610">
        <ele>40.2</ele>
        <time>2022-11-01T12:42:19Z</time>
      </trkpt>
      <trkpt lat="36.6988890" lon="-2.7126240">
        <ele>40.0</ele>
        <time>2022-11-01T12:42:20Z</time>
      </trkpt>
      <trkpt lat="36.6988130" lon="-2.7125870">
        <ele>39.8</ele>
        <time>2022-11-01T12:42:21Z</time>
      </trkpt>
      <trkpt lat="36.6987370" lon="-2.7125520">
        <ele>39.8</ele>
        <time>2022-11-01T12:42:22Z</time>
      </trkpt>
      <trkpt lat="36.6986630" lon="-2.7125190">
        <ele>39.8</ele>
        <time>2022-11-01T12:42:23Z</time>
      </trkpt>
      <trkpt lat="36.6985860" lon="-2.7124860">
        <ele>39.6</ele>
        <time>2022-11-01T12:42:24Z</time>
      </trkpt>
      <trkpt lat="36.6985100" lon="-2.7124510">
        <ele>39.4</ele>
        <time>2022-11-01T12:42:25Z</time>
      </trkpt>
      <trkpt lat="36.6984350" lon="-2.7124150">
        <ele>39.2</ele>
        <time>2022-11-01T12:42:26Z</time>
      </trkpt>
      <trkpt lat="36.6983580" lon="-2.7123800">
        <ele>39.0</ele>
        <time>2022-11-01T12:42:27Z</time>
      </trkpt>
      <trkpt lat="36.6982800" lon="-2.7123470">
        <ele>38.8</ele>
        <time>2022-11-01T12:42:28Z</time>
      </trkpt>
      <trkpt lat="36.6982030" lon="-2.7123120">
        <ele>38.6</ele>
        <time>2022-11-01T12:42:29Z</time>
      </trkpt>
      <trkpt lat="36.6981300" lon="-2.7122770">
        <ele>38.4</ele>
        <time>2022-11-01T12:42:30Z</time>
      </trkpt>
      <trkpt lat="36.6980600" lon="-2.7122430">
        <ele>38.2</ele>
        <time>2022-11-01T12:42:31Z</time>
      </trkpt>
      <trkpt lat="36.6979920" lon="-2.7122060">
        <ele>38.0</ele>
        <time>2022-11-01T12:42:32Z</time>
      </trkpt>
      <trkpt lat="36.6979250" lon="-2.7121680">
        <ele>37.8</ele>
        <time>2022-11-01T12:42:33Z</time>
      </trkpt>
      <trkpt lat="36.6978560" lon="-2.7121280">
        <ele>37.6</ele>
        <time>2022-11-01T12:42:34Z</time>
      </trkpt>
      <trkpt lat="36.6977880" lon="-2.7120910">
        <ele>37.4</ele>
        <time>2022-11-01T12:42:35Z</time>
      </trkpt>
      <trkpt lat="36.6977220" lon="-2.7120540">
        <ele>37.4</ele>
        <time>2022-11-01T12:42:36Z</time>
      </trkpt>
      <trkpt lat="36.6976560" lon="-2.7120140">
        <ele>37.2</ele>
        <time>2022-11-01T12:42:37Z</time>
      </trkpt>
      <trkpt lat="36.6975920" lon="-2.7119740">
        <ele>36.8</ele>
        <time>2022-11-01T12:42:38Z</time>
      </trkpt>
      <trkpt lat="36.6975280" lon="-2.7119330">
        <ele>36.6</ele>
        <time>2022-11-01T12:42:39Z</time>
      </trkpt>
      <trkpt lat="36.6974620" lon="-2.7118920">
        <ele>36.4</ele>
        <time>2022-11-01T12:42:40Z</time>
      </trkpt>
      <trkpt lat="36.6973930" lon="-2.7118560">
        <ele>36.2</ele>
        <time>2022-11-01T12:42:41Z</time>
      </trkpt>
      <trkpt lat="36.6973260" lon="-2.7118150">
        <ele>36.0</ele>
        <time>2022-11-01T12:42:42Z</time>
      </trkpt>
      <trkpt lat="36.6972590" lon="-2.7117730">
        <ele>35.8</ele>
        <time>2022-11-01T12:42:43Z</time>
      </trkpt>
      <trkpt lat="36.6971950" lon="-2.7117320">
        <ele>35.8</ele>
        <time>2022-11-01T12:42:44Z</time>
      </trkpt>
      <trkpt lat="36.6971300" lon="-2.7116930">
        <ele>35.6</ele>
        <time>2022-11-01T12:42:45Z</time>
      </trkpt>
      <trkpt lat="36.6970650" lon="-2.7116540">
        <ele>35.4</ele>
        <time>2022-11-01T12:42:46Z</time>
      </trkpt>
      <trkpt lat="36.6970020" lon="-2.7116150">
        <ele>35.4</ele>
        <time>2022-11-01T12:42:47Z</time>
      </trkpt>
      <trkpt lat="36.6969400" lon="-2.7115760">
        <ele>35.4</ele>
        <time>2022-11-01T12:42:48Z</time>
      </trkpt>
      <trkpt lat="36.6968800" lon="-2.7115370">
        <ele>35.2</ele>
        <time>2022-11-01T12:42:49Z</time>
      </trkpt>
      <trkpt lat="36.6968220" lon="-2.7115000">
        <ele>35.2</ele>
        <time>2022-11-01T12:42:50Z</time>
      </trkpt>
      <trkpt lat="36.6967640" lon="-2.7114620">
        <ele>35.0</ele>
        <time>2022-11-01T12:42:51Z</time>
      </trkpt>
      <trkpt lat="36.6967060" lon="-2.7114240">
        <ele>35.0</ele>
        <time>2022-11-01T12:42:52Z</time>
      </trkpt>
      <trkpt lat="36.6966480" lon="-2.7113890">
        <ele>35.0</ele>
        <time>2022-11-01T12:42:53Z</time>
      </trkpt>
      <trkpt lat="36.6965910" lon="-2.7113530">
        <ele>35.0</ele>
        <time>2022-11-01T12:42:54Z</time>
      </trkpt>
      <trkpt lat="36.6965320" lon="-2.7113170">
        <ele>34.8</ele>
        <time>2022-11-01T12:42:55Z</time>
      </trkpt>
      <trkpt lat="36.6964790" lon="-2.7112790">
        <ele>34.8</ele>
        <time>2022-11-01T12:42:56Z</time>
      </trkpt>
      <trkpt lat="36.6964230" lon="-2.7112440">
        <ele>34.8</ele>
        <time>2022-11-01T12:42:57Z</time>
      </trkpt>
      <trkpt lat="36.6963690" lon="-2.7112090">
        <ele>34.6</ele>
        <time>2022-11-01T12:42:58Z</time>
      </trkpt>
      <trkpt lat="36.6963160" lon="-2.7111740">
        <ele>34.6</ele>
        <time>2022-11-01T12:42:59Z</time>
      </trkpt>
      <trkpt lat="36.6962610" lon="-2.7111390">
        <ele>34.4</ele>
        <time>2022-11-01T12:43:00Z</time>
      </trkpt>
      <trkpt lat="36.6962050" lon="-2.7111020">
        <ele>34.4</ele>
        <time>2022-11-01T12:43:01Z</time>
      </trkpt>
      <trkpt lat="36.6961490" lon="-2.7110620">
        <ele>34.2</ele>
        <time>2022-11-01T12:43:02Z</time>
      </trkpt>
      <trkpt lat="36.6960920" lon="-2.7110240">
        <ele>34.2</ele>
        <time>2022-11-01T12:43:03Z</time>
      </trkpt>
      <trkpt lat="36.6960360" lon="-2.7109880">
        <ele>34.0</ele>
        <time>2022-11-01T12:43:04Z</time>
      </trkpt>
      <trkpt lat="36.6959780" lon="-2.7109550">
        <ele>34.0</ele>
        <time>2022-11-01T12:43:05Z</time>
      </trkpt>
      <trkpt lat="36.6959210" lon="-2.7109190">
        <ele>34.0</ele>
        <time>2022-11-01T12:43:06Z</time>
      </trkpt>
      <trkpt lat="36.6958630" lon="-2.7108810">
        <ele>33.8</ele>
        <time>2022-11-01T12:43:07Z</time>
      </trkpt>
      <trkpt lat="36.6958020" lon="-2.7108420">
        <ele>33.8</ele>
        <time>2022-11-01T12:43:08Z</time>
      </trkpt>
      <trkpt lat="36.6957410" lon="-2.7108020">
        <ele>33.6</ele>
        <time>2022-11-01T12:43:09Z</time>
      </trkpt>
      <trkpt lat="36.6956770" lon="-2.7107610">
        <ele>33.6</ele>
        <time>2022-11-01T12:43:10Z</time>
      </trkpt>
      <trkpt lat="36.6956140" lon="-2.7107210">
        <ele>33.6</ele>
        <time>2022-11-01T12:43:11Z</time>
      </trkpt>
      <trkpt lat="36.6955520" lon="-2.7106820">
        <ele>33.4</ele>
        <time>2022-11-01T12:43:12Z</time>
      </trkpt>
      <trkpt lat="36.6954920" lon="-2.7106450">
        <ele>33.4</ele>
        <time>2022-11-01T12:43:13Z</time>
      </trkpt>
      <trkpt lat="36.6954330" lon="-2.7106070">
        <ele>33.2</ele>
        <time>2022-11-01T12:43:14Z</time>
      </trkpt>
      <trkpt lat="36.6953700" lon="-2.7105670">
        <ele>33.2</ele>
        <time>2022-11-01T12:43:15Z</time>
      </trkpt>
      <trkpt lat="36.6953080" lon="-2.7105260">
        <ele>33.0</ele>
        <time>2022-11-01T12:43:16Z</time>
      </trkpt>
      <trkpt lat="36.6952460" lon="-2.7104850">
        <ele>33.0</ele>
        <time>2022-11-01T12:43:17Z</time>
      </trkpt>
      <trkpt lat="36.6951860" lon="-2.7104470">
        <ele>32.8</ele>
        <time>2022-11-01T12:43:18Z</time>
      </trkpt>
      <trkpt lat="36.6951280" lon="-2.7104100">
        <ele>32.6</ele>
        <time>2022-11-01T12:43:19Z</time>
      </trkpt>
      <trkpt lat="36.6950710" lon="-2.7103730">
        <ele>32.4</ele>
        <time>2022-11-01T12:43:20Z</time>
      </trkpt>
      <trkpt lat="36.6950130" lon="-2.7103340">
        <ele>32.4</ele>
        <time>2022-11-01T12:43:21Z</time>
      </trkpt>
      <trkpt lat="36.6949540" lon="-2.7102960">
        <ele>32.4</ele>
        <time>2022-11-01T12:43:22Z</time>
      </trkpt>
      <trkpt lat="36.6948960" lon="-2.7102600">
        <ele>32.2</ele>
        <time>2022-11-01T12:43:23Z</time>
      </trkpt>
      <trkpt lat="36.6948410" lon="-2.7102230">
        <ele>32.0</ele>
        <time>2022-11-01T12:43:24Z</time>
      </trkpt>
      <trkpt lat="36.6947860" lon="-2.7101860">
        <ele>32.0</ele>
        <time>2022-11-01T12:43:25Z</time>
      </trkpt>
      <trkpt lat="36.6947330" lon="-2.7101510">
        <ele>32.0</ele>
        <time>2022-11-01T12:43:26Z</time>
      </trkpt>
      <trkpt lat="36.6946790" lon="-2.7101160">
        <ele>31.8</ele>
        <time>2022-11-01T12:43:27Z</time>
      </trkpt>
      <trkpt lat="36.6946260" lon="-2.7100800">
        <ele>31.6</ele>
        <time>2022-11-01T12:43:28Z</time>
      </trkpt>
      <trkpt lat="36.6945710" lon="-2.7100440">
        <ele>31.6</ele>
        <time>2022-11-01T12:43:29Z</time>
      </trkpt>
      <trkpt lat="36.6945150" lon="-2.7100080">
        <ele>31.4</ele>
        <time>2022-11-01T12:43:30Z</time>
      </trkpt>
      <trkpt lat="36.6944620" lon="-2.7099740">
        <ele>31.2</ele>
        <time>2022-11-01T12:43:31Z</time>
      </trkpt>
      <trkpt lat="36.6944070" lon="-2.7099370">
        <ele>31.2</ele>
        <time>2022-11-01T12:43:32Z</time>
      </trkpt>
      <trkpt lat="36.6943510" lon="-2.7098980">
        <ele>31.2</ele>
        <time>2022-11-01T12:43:33Z</time>
      </trkpt>
      <trkpt lat="36.6942940" lon="-2.7098570">
        <ele>31.0</ele>
        <time>2022-11-01T12:43:34Z</time>
      </trkpt>
      <trkpt lat="36.6942340" lon="-2.7098170">
        <ele>31.0</ele>
        <time>2022-11-01T12:43:35Z</time>
      </trkpt>
      <trkpt lat="36.6941740" lon="-2.7097770">
        <ele>30.8</ele>
        <time>2022-11-01T12:43:36Z</time>
      </trkpt>
      <trkpt lat="36.6941130" lon="-2.7097350">
        <ele>30.6</ele>
        <time>2022-11-01T12:43:37Z</time>
      </trkpt>
      <trkpt lat="36.6940520" lon="-2.7096960">
        <ele>30.6</ele>
        <time>2022-11-01T12:43:38Z</time>
      </trkpt>
      <trkpt lat="36.6939910" lon="-2.7096560">
        <ele>30.6</ele>
        <time>2022-11-01T12:43:39Z</time>
      </trkpt>
      <trkpt lat="36.6939330" lon="-2.7096140">
        <ele>30.4</ele>
        <time>2022-11-01T12:43:40Z</time>
      </trkpt>
      <trkpt lat="36.6938730" lon="-2.7095740">
        <ele>30.4</ele>
        <time>2022-11-01T12:43:41Z</time>
      </trkpt>
      <trkpt lat="36.6938130" lon="-2.7095330">
        <ele>30.2</ele>
        <time>2022-11-01T12:43:42Z</time>
      </trkpt>
      <trkpt lat="36.6937570" lon="-2.7094930">
        <ele>30.2</ele>
        <time>2022-11-01T12:43:43Z</time>
      </trkpt>
      <trkpt lat="36.6937040" lon="-2.7094570">
        <ele>30.2</ele>
        <time>2022-11-01T12:43:44Z</time>
      </trkpt>
      <trkpt lat="36.6936610" lon="-2.7094110">
        <ele>30.2</ele>
        <time>2022-11-01T12:43:45Z</time>
      </trkpt>
      <trkpt lat="36.6936320" lon="-2.7093530">
        <ele>30.2</ele>
        <time>2022-11-01T12:43:46Z</time>
      </trkpt>
      <trkpt lat="36.6936210" lon="-2.7092870">
        <ele>30.2</ele>
        <time>2022-11-01T12:43:47Z</time>
      </trkpt>
      <trkpt lat="36.6936260" lon="-2.7092170">
        <ele>30.2</ele>
        <time>2022-11-01T12:43:48Z</time>
      </trkpt>
      <trkpt lat="36.6936460" lon="-2.7091450">
        <ele>30.0</ele>
        <time>2022-11-01T12:43:49Z</time>
      </trkpt>
      <trkpt lat="36.6936750" lon="-2.7090770">
        <ele>30.0</ele>
        <time>2022-11-01T12:43:50Z</time>
      </trkpt>
      <trkpt lat="36.6937080" lon="-2.7090080">
        <ele>30.0</ele>
        <time>2022-11-01T12:43:51Z</time>
      </trkpt>
      <trkpt lat="36.6937440" lon="-2.7089340">
        <ele>30.0</ele>
        <time>2022-11-01T12:43:52Z</time>
      </trkpt>
      <trkpt lat="36.6937790" lon="-2.7088570">
        <ele>29.8</ele>
        <time>2022-11-01T12:43:53Z</time>
      </trkpt>
      <trkpt lat="36.6938110" lon="-2.7087800">
        <ele>29.8</ele>
        <time>2022-11-01T12:43:54Z</time>
      </trkpt>
      <trkpt lat="36.6938440" lon="-2.7087050">
        <ele>29.8</ele>
        <time>2022-11-01T12:43:55Z</time>
      </trkpt>
      <trkpt lat="36.6938790" lon="-2.7086320">
        <ele>29.6</ele>
        <time>2022-11-01T12:43:56Z</time>
      </trkpt>
      <trkpt lat="36.6939110" lon="-2.7085580">
        <ele>29.6</ele>
        <time>2022-11-01T12:43:57Z</time>
      </trkpt>
      <trkpt lat="36.6939430" lon="-2.7084840">
        <ele>29.6</ele>
        <time>2022-11-01T12:43:58Z</time>
      </trkpt>
      <trkpt lat="36.6939750" lon="-2.7084110">
        <ele>29.6</ele>
        <time>2022-11-01T12:43:59Z</time>
      </trkpt>
      <trkpt lat="36.6940080" lon="-2.7083390">
        <ele>29.6</ele>
        <time>2022-11-01T12:44:00Z</time>
      </trkpt>
      <trkpt lat="36.6940430" lon="-2.7082690">
        <ele>29.6</ele>
        <time>2022-11-01T12:44:01Z</time>
      </trkpt>
      <trkpt lat="36.6940750" lon="-2.7082000">
        <ele>29.6</ele>
        <time>2022-11-01T12:44:02Z</time>
      </trkpt>
      <trkpt lat="36.6941050" lon="-2.7081280">
        <ele>29.6</ele>
        <time>2022-11-01T12:44:03Z</time>
      </trkpt>
      <trkpt lat="36.6941370" lon="-2.7080580">
        <ele>29.6</ele>
        <time>2022-11-01T12:44:04Z</time>
      </trkpt>
      <trkpt lat="36.6941690" lon="-2.7079880">
        <ele>29.6</ele>
        <time>2022-11-01T12:44:05Z</time>
      </trkpt>
      <trkpt lat="36.6942000" lon="-2.7079180">
        <ele>29.6</ele>
        <time>2022-11-01T12:44:06Z</time>
      </trkpt>
      <trkpt lat="36.6942310" lon="-2.7078480">
        <ele>29.6</ele>
        <time>2022-11-01T12:44:07Z</time>
      </trkpt>
      <trkpt lat="36.6942630" lon="-2.7077800">
        <ele>29.6</ele>
        <time>2022-11-01T12:44:08Z</time>
      </trkpt>
      <trkpt lat="36.6942950" lon="-2.7077110">
        <ele>29.6</ele>
        <time>2022-11-01T12:44:09Z</time>
      </trkpt>
      <trkpt lat="36.6943300" lon="-2.7076410">
        <ele>29.4</ele>
        <time>2022-11-01T12:44:10Z</time>
      </trkpt>
      <trkpt lat="36.6943620" lon="-2.7075710">
        <ele>29.4</ele>
        <time>2022-11-01T12:44:11Z</time>
      </trkpt>
      <trkpt lat="36.6943940" lon="-2.7075010">
        <ele>29.4</ele>
        <time>2022-11-01T12:44:12Z</time>
      </trkpt>
      <trkpt lat="36.6944270" lon="-2.7074300">
        <ele>29.4</ele>
        <time>2022-11-01T12:44:13Z</time>
      </trkpt>
      <trkpt lat="36.6944590" lon="-2.7073590">
        <ele>29.4</ele>
        <time>2022-11-01T12:44:14Z</time>
      </trkpt>
      <trkpt lat="36.6944940" lon="-2.7072910">
        <ele>29.2</ele>
        <time>2022-11-01T12:44:15Z</time>
      </trkpt>
      <trkpt lat="36.6945280" lon="-2.7072210">
        <ele>29.2</ele>
        <time>2022-11-01T12:44:16Z</time>
      </trkpt>
      <trkpt lat="36.6945620" lon="-2.7071500">
        <ele>29.2</ele>
        <time>2022-11-01T12:44:17Z</time>
      </trkpt>
      <trkpt lat="36.6945950" lon="-2.7070770">
        <ele>29.2</ele>
        <time>2022-11-01T12:44:18Z</time>
      </trkpt>
      <trkpt lat="36.6946300" lon="-2.7070050">
        <ele>29.2</ele>
        <time>2022-11-01T12:44:19Z</time>
      </trkpt>
      <trkpt lat="36.6946660" lon="-2.7069330">
        <ele>29.2</ele>
        <time>2022-11-01T12:44:20Z</time>
      </trkpt>
      <trkpt lat="36.6947000" lon="-2.7068620">
        <ele>29.2</ele>
        <time>2022-11-01T12:44:21Z</time>
      </trkpt>
      <trkpt lat="36.6947340" lon="-2.7067910">
        <ele>29.0</ele>
        <time>2022-11-01T12:44:22Z</time>
      </trkpt>
      <trkpt lat="36.6947670" lon="-2.7067190">
        <ele>29.0</ele>
        <time>2022-11-01T12:44:23Z</time>
      </trkpt>
      <trkpt lat="36.6948000" lon="-2.7066460">
        <ele>29.0</ele>
        <time>2022-11-01T12:44:24Z</time>
      </trkpt>
      <trkpt lat="36.6948340" lon="-2.7065750">
        <ele>29.0</ele>
        <time>2022-11-01T12:44:25Z</time>
      </trkpt>
      <trkpt lat="36.6948660" lon="-2.7065040">
        <ele>29.0</ele>
        <time>2022-11-01T12:44:26Z</time>
      </trkpt>
      <trkpt lat="36.6949000" lon="-2.7064310">
        <ele>29.0</ele>
        <time>2022-11-01T12:44:27Z</time>
      </trkpt>
      <trkpt lat="36.6949330" lon="-2.7063560">
        <ele>29.0</ele>
        <time>2022-11-01T12:44:28Z</time>
      </trkpt>
      <trkpt lat="36.6949670" lon="-2.7062820">
        <ele>28.8</ele>
        <time>2022-11-01T12:44:29Z</time>
      </trkpt>
      <trkpt lat="36.6950020" lon="-2.7062100">
        <ele>28.8</ele>
        <time>2022-11-01T12:44:30Z</time>
      </trkpt>
      <trkpt lat="36.6950360" lon="-2.7061360">
        <ele>28.8</ele>
        <time>2022-11-01T12:44:31Z</time>
      </trkpt>
      <trkpt lat="36.6950700" lon="-2.7060610">
        <ele>28.8</ele>
        <time>2022-11-01T12:44:32Z</time>
      </trkpt>
      <trkpt lat="36.6951060" lon="-2.7059850">
        <ele>28.8</ele>
        <time>2022-11-01T12:44:33Z</time>
      </trkpt>
      <trkpt lat="36.6951420" lon="-2.7059080">
        <ele>28.8</ele>
        <time>2022-11-01T12:44:34Z</time>
      </trkpt>
      <trkpt lat="36.6951790" lon="-2.7058310">
        <ele>28.8</ele>
        <time>2022-11-01T12:44:35Z</time>
      </trkpt>
      <trkpt lat="36.6952140" lon="-2.7057530">
        <ele>28.8</ele>
        <time>2022-11-01T12:44:36Z</time>
      </trkpt>
      <trkpt lat="36.6952500" lon="-2.7056760">
        <ele>28.8</ele>
        <time>2022-11-01T12:44:37Z</time>
      </trkpt>
      <trkpt lat="36.6952860" lon="-2.7055980">
        <ele>28.8</ele>
        <time>2022-11-01T12:44:38Z</time>
      </trkpt>
      <trkpt lat="36.6953220" lon="-2.7055190">
        <ele>28.8</ele>
        <time>2022-11-01T12:44:39Z</time>
      </trkpt>
      <trkpt lat="36.6953580" lon="-2.7054410">
        <ele>28.8</ele>
        <time>2022-11-01T12:44:40Z</time>
      </trkpt>
      <trkpt lat="36.6953940" lon="-2.7053620">
        <ele>28.8</ele>
        <time>2022-11-01T12:44:41Z</time>
      </trkpt>
      <trkpt lat="36.6954310" lon="-2.7052820">
        <ele>28.6</ele>
        <time>2022-11-01T12:44:42Z</time>
      </trkpt>
      <trkpt lat="36.6954690" lon="-2.7052040">
        <ele>28.6</ele>
        <time>2022-11-01T12:44:43Z</time>
      </trkpt>
      <trkpt lat="36.6955070" lon="-2.7051250">
        <ele>28.6</ele>
        <time>2022-11-01T12:44:44Z</time>
      </trkpt>
      <trkpt lat="36.6955440" lon="-2.7050440">
        <ele>28.6</ele>
        <time>2022-11-01T12:44:45Z</time>
      </trkpt>
      <trkpt lat="36.6955820" lon="-2.7049640">
        <ele>28.6</ele>
        <time>2022-11-01T12:44:46Z</time>
      </trkpt>
      <trkpt lat="36.6956230" lon="-2.7048870">
        <ele>28.6</ele>
        <time>2022-11-01T12:44:47Z</time>
      </trkpt>
      <trkpt lat="36.6956660" lon="-2.7048110">
        <ele>28.6</ele>
        <time>2022-11-01T12:44:48Z</time>
      </trkpt>
      <trkpt lat="36.6957120" lon="-2.7047370">
        <ele>28.8</ele>
        <time>2022-11-01T12:44:49Z</time>
      </trkpt>
      <trkpt lat="36.6957600" lon="-2.7046660">
        <ele>28.8</ele>
        <time>2022-11-01T12:44:50Z</time>
      </trkpt>
      <trkpt lat="36.6958100" lon="-2.7045950">
        <ele>28.6</ele>
        <time>2022-11-01T12:44:51Z</time>
      </trkpt>
      <trkpt lat="36.6958620" lon="-2.7045270">
        <ele>28.6</ele>
        <time>2022-11-01T12:44:52Z</time>
      </trkpt>
      <trkpt lat="36.6959150" lon="-2.7044580">
        <ele>28.6</ele>
        <time>2022-11-01T12:44:53Z</time>
      </trkpt>
      <trkpt lat="36.6959670" lon="-2.7043930">
        <ele>28.6</ele>
        <time>2022-11-01T12:44:54Z</time>
      </trkpt>
      <trkpt lat="36.6960200" lon="-2.7043270">
        <ele>28.6</ele>
        <time>2022-11-01T12:44:55Z</time>
      </trkpt>
      <trkpt lat="36.6960750" lon="-2.7042620">
        <ele>28.6</ele>
        <time>2022-11-01T12:44:56Z</time>
      </trkpt>
      <trkpt lat="36.6961310" lon="-2.7041990">
        <ele>28.6</ele>
        <time>2022-11-01T12:44:57Z</time>
      </trkpt>
      <trkpt lat="36.6961860" lon="-2.7041360">
        <ele>28.6</ele>
        <time>2022-11-01T12:44:58Z</time>
      </trkpt>
      <trkpt lat="36.6962410" lon="-2.7040720">
        <ele>28.6</ele>
        <time>2022-11-01T12:44:59Z</time>
      </trkpt>
      <trkpt lat="36.6962960" lon="-2.7040080">
        <ele>28.6</ele>
        <time>2022-11-01T12:45:00Z</time>
      </trkpt>
      <trkpt lat="36.6963500" lon="-2.7039440">
        <ele>28.6</ele>
        <time>2022-11-01T12:45:01Z</time>
      </trkpt>
      <trkpt lat="36.6964040" lon="-2.7038790">
        <ele>28.6</ele>
        <time>2022-11-01T12:45:02Z</time>
      </trkpt>
      <trkpt lat="36.6964590" lon="-2.7038150">
        <ele>28.6</ele>
        <time>2022-11-01T12:45:03Z</time>
      </trkpt>
      <trkpt lat="36.6965130" lon="-2.7037530">
        <ele>28.6</ele>
        <time>2022-11-01T12:45:04Z</time>
      </trkpt>
      <trkpt lat="36.6965650" lon="-2.7036910">
        <ele>28.6</ele>
        <time>2022-11-01T12:45:05Z</time>
      </trkpt>
      <trkpt lat="36.6966170" lon="-2.7036300">
        <ele>28.6</ele>
        <time>2022-11-01T12:45:06Z</time>
      </trkpt>
      <trkpt lat="36.6966690" lon="-2.7035700">
        <ele>28.6</ele>
        <time>2022-11-01T12:45:07Z</time>
      </trkpt>
      <trkpt lat="36.6967210" lon="-2.7035100">
        <ele>28.6</ele>
        <time>2022-11-01T12:45:08Z</time>
      </trkpt>
      <trkpt lat="36.6967720" lon="-2.7034500">
        <ele>28.6</ele>
        <time>2022-11-01T12:45:09Z</time>
      </trkpt>
      <trkpt lat="36.6968230" lon="-2.7033900">
        <ele>28.6</ele>
        <time>2022-11-01T12:45:10Z</time>
      </trkpt>
      <trkpt lat="36.6968720" lon="-2.7033310">
        <ele>28.6</ele>
        <time>2022-11-01T12:45:11Z</time>
      </trkpt>
      <trkpt lat="36.6969190" lon="-2.7032700">
        <ele>28.6</ele>
        <time>2022-11-01T12:45:12Z</time>
      </trkpt>
      <trkpt lat="36.6969650" lon="-2.7032100">
        <ele>28.6</ele>
        <time>2022-11-01T12:45:13Z</time>
      </trkpt>
      <trkpt lat="36.6970110" lon="-2.7031450">
        <ele>28.6</ele>
        <time>2022-11-01T12:45:14Z</time>
      </trkpt>
      <trkpt lat="36.6970550" lon="-2.7030770">
        <ele>28.6</ele>
        <time>2022-11-01T12:45:15Z</time>
      </trkpt>
      <trkpt lat="36.6970960" lon="-2.7030070">
        <ele>28.6</ele>
        <time>2022-11-01T12:45:16Z</time>
      </trkpt>
      <trkpt lat="36.6971340" lon="-2.7029330">
        <ele>28.6</ele>
        <time>2022-11-01T12:45:17Z</time>
      </trkpt>
      <trkpt lat="36.6971690" lon="-2.7028570">
        <ele>28.6</ele>
        <time>2022-11-01T12:45:18Z</time>
      </trkpt>
      <trkpt lat="36.6972030" lon="-2.7027810">
        <ele>28.6</ele>
        <time>2022-11-01T12:45:19Z</time>
      </trkpt>
      <trkpt lat="36.6972350" lon="-2.7027030">
        <ele>28.8</ele>
        <time>2022-11-01T12:45:20Z</time>
      </trkpt>
      <trkpt lat="36.6972680" lon="-2.7026260">
        <ele>28.8</ele>
        <time>2022-11-01T12:45:21Z</time>
      </trkpt>
      <trkpt lat="36.6972990" lon="-2.7025490">
        <ele>28.8</ele>
        <time>2022-11-01T12:45:22Z</time>
      </trkpt>
      <trkpt lat="36.6973270" lon="-2.7024710">
        <ele>28.8</ele>
        <time>2022-11-01T12:45:23Z</time>
      </trkpt>
      <trkpt lat="36.6973570" lon="-2.7023940">
        <ele>28.8</ele>
        <time>2022-11-01T12:45:24Z</time>
      </trkpt>
      <trkpt lat="36.6973890" lon="-2.7023160">
        <ele>28.8</ele>
        <time>2022-11-01T12:45:25Z</time>
      </trkpt>
      <trkpt lat="36.6974210" lon="-2.7022390">
        <ele>28.8</ele>
        <time>2022-11-01T12:45:26Z</time>
      </trkpt>
      <trkpt lat="36.6974540" lon="-2.7021610">
        <ele>28.8</ele>
        <time>2022-11-01T12:45:27Z</time>
      </trkpt>
      <trkpt lat="36.6974870" lon="-2.7020820">
        <ele>28.8</ele>
        <time>2022-11-01T12:45:28Z</time>
      </trkpt>
      <trkpt lat="36.6975210" lon="-2.7020040">
        <ele>28.8</ele>
        <time>2022-11-01T12:45:29Z</time>
      </trkpt>
      <trkpt lat="36.6975540" lon="-2.7019240">
        <ele>28.8</ele>
        <time>2022-11-01T12:45:30Z</time>
      </trkpt>
      <trkpt lat="36.6975870" lon="-2.7018440">
        <ele>29.0</ele>
        <time>2022-11-01T12:45:31Z</time>
      </trkpt>
      <trkpt lat="36.6976210" lon="-2.7017640">
        <ele>28.8</ele>
        <time>2022-11-01T12:45:32Z</time>
      </trkpt>
      <trkpt lat="36.6976530" lon="-2.7016840">
        <ele>28.8</ele>
        <time>2022-11-01T12:45:33Z</time>
      </trkpt>
      <trkpt lat="36.6976850" lon="-2.7016030">
        <ele>28.8</ele>
        <time>2022-11-01T12:45:34Z</time>
      </trkpt>
      <trkpt lat="36.6977180" lon="-2.7015220">
        <ele>28.8</ele>
        <time>2022-11-01T12:45:35Z</time>
      </trkpt>
      <trkpt lat="36.6977520" lon="-2.7014410">
        <ele>28.8</ele>
        <time>2022-11-01T12:45:36Z</time>
      </trkpt>
      <trkpt lat="36.6977850" lon="-2.7013620">
        <ele>28.8</ele>
        <time>2022-11-01T12:45:37Z</time>
      </trkpt>
      <trkpt lat="36.6978190" lon="-2.7012830">
        <ele>28.6</ele>
        <time>2022-11-01T12:45:38Z</time>
      </trkpt>
      <trkpt lat="36.6978510" lon="-2.7012050">
        <ele>28.6</ele>
        <time>2022-11-01T12:45:39Z</time>
      </trkpt>
      <trkpt lat="36.6978840" lon="-2.7011250">
        <ele>28.8</ele>
        <time>2022-11-01T12:45:40Z</time>
      </trkpt>
      <trkpt lat="36.6979190" lon="-2.7010460">
        <ele>28.8</ele>
        <time>2022-11-01T12:45:41Z</time>
      </trkpt>
      <trkpt lat="36.6979510" lon="-2.7009690">
        <ele>28.8</ele>
        <time>2022-11-01T12:45:42Z</time>
      </trkpt>
      <trkpt lat="36.6979820" lon="-2.7008920">
        <ele>28.6</ele>
        <time>2022-11-01T12:45:43Z</time>
      </trkpt>
      <trkpt lat="36.6980140" lon="-2.7008150">
        <ele>28.6</ele>
        <time>2022-11-01T12:45:44Z</time>
      </trkpt>
      <trkpt lat="36.6980470" lon="-2.7007390">
        <ele>28.6</ele>
        <time>2022-11-01T12:45:45Z</time>
      </trkpt>
      <trkpt lat="36.6980780" lon="-2.7006630">
        <ele>28.6</ele>
        <time>2022-11-01T12:45:46Z</time>
      </trkpt>
      <trkpt lat="36.6981100" lon="-2.7005880">
        <ele>28.6</ele>
        <time>2022-11-01T12:45:47Z</time>
      </trkpt>
      <trkpt lat="36.6981410" lon="-2.7005160">
        <ele>28.6</ele>
        <time>2022-11-01T12:45:48Z</time>
      </trkpt>
      <trkpt lat="36.6981720" lon="-2.7004430">
        <ele>28.6</ele>
        <time>2022-11-01T12:45:49Z</time>
      </trkpt>
      <trkpt lat="36.6982020" lon="-2.7003710">
        <ele>28.6</ele>
        <time>2022-11-01T12:45:50Z</time>
      </trkpt>
      <trkpt lat="36.6982320" lon="-2.7003000">
        <ele>28.6</ele>
        <time>2022-11-01T12:45:51Z</time>
      </trkpt>
      <trkpt lat="36.6982600" lon="-2.7002300">
        <ele>28.6</ele>
        <time>2022-11-01T12:45:52Z</time>
      </trkpt>
      <trkpt lat="36.6982880" lon="-2.7001590">
        <ele>28.6</ele>
        <time>2022-11-01T12:45:53Z</time>
      </trkpt>
      <trkpt lat="36.6983150" lon="-2.7000890">
        <ele>28.6</ele>
        <time>2022-11-01T12:45:54Z</time>
      </trkpt>
      <trkpt lat="36.6983430" lon="-2.7000200">
        <ele>28.6</ele>
        <time>2022-11-01T12:45:55Z</time>
      </trkpt>
      <trkpt lat="36.6983730" lon="-2.6999530">
        <ele>28.6</ele>
        <time>2022-11-01T12:45:56Z</time>
      </trkpt>
      <trkpt lat="36.6984030" lon="-2.6998860">
        <ele>28.4</ele>
        <time>2022-11-01T12:45:57Z</time>
      </trkpt>
      <trkpt lat="36.6984330" lon="-2.6998170">
        <ele>28.4</ele>
        <time>2022-11-01T12:45:58Z</time>
      </trkpt>
      <trkpt lat="36.6984620" lon="-2.6997470">
        <ele>28.4</ele>
        <time>2022-11-01T12:45:59Z</time>
      </trkpt>
      <trkpt lat="36.6984910" lon="-2.6996760">
        <ele>28.2</ele>
        <time>2022-11-01T12:46:00Z</time>
      </trkpt>
      <trkpt lat="36.6985210" lon="-2.6996040">
        <ele>28.2</ele>
        <time>2022-11-01T12:46:01Z</time>
      </trkpt>
      <trkpt lat="36.6985510" lon="-2.6995330">
        <ele>28.2</ele>
        <time>2022-11-01T12:46:02Z</time>
      </trkpt>
      <trkpt lat="36.6985820" lon="-2.6994640">
        <ele>28.2</ele>
        <time>2022-11-01T12:46:03Z</time>
      </trkpt>
      <trkpt lat="36.6986120" lon="-2.6993950">
        <ele>28.2</ele>
        <time>2022-11-01T12:46:04Z</time>
      </trkpt>
      <trkpt lat="36.6986420" lon="-2.6993270">
        <ele>28.2</ele>
        <time>2022-11-01T12:46:05Z</time>
      </trkpt>
      <trkpt lat="36.6986690" lon="-2.6992590">
        <ele>28.2</ele>
        <time>2022-11-01T12:46:06Z</time>
      </trkpt>
      <trkpt lat="36.6986980" lon="-2.6991920">
        <ele>28.2</ele>
        <time>2022-11-01T12:46:07Z</time>
      </trkpt>
      <trkpt lat="36.6987270" lon="-2.6991240">
        <ele>28.2</ele>
        <time>2022-11-01T12:46:08Z</time>
      </trkpt>
      <trkpt lat="36.6987540" lon="-2.6990540">
        <ele>28.2</ele>
        <time>2022-11-01T12:46:09Z</time>
      </trkpt>
      <trkpt lat="36.6987820" lon="-2.6989850">
        <ele>28.2</ele>
        <time>2022-11-01T12:46:10Z</time>
      </trkpt>
      <trkpt lat="36.6988100" lon="-2.6989140">
        <ele>28.2</ele>
        <time>2022-11-01T12:46:11Z</time>
      </trkpt>
      <trkpt lat="36.6988380" lon="-2.6988430">
        <ele>28.2</ele>
        <time>2022-11-01T12:46:12Z</time>
      </trkpt>
      <trkpt lat="36.6988680" lon="-2.6987730">
        <ele>28.2</ele>
        <time>2022-11-01T12:46:13Z</time>
      </trkpt>
      <trkpt lat="36.6988970" lon="-2.6987030">
        <ele>28.2</ele>
        <time>2022-11-01T12:46:14Z</time>
      </trkpt>
      <trkpt lat="36.6989270" lon="-2.6986340">
        <ele>28.2</ele>
        <time>2022-11-01T12:46:15Z</time>
      </trkpt>
      <trkpt lat="36.6989550" lon="-2.6985660">
        <ele>28.2</ele>
        <time>2022-11-01T12:46:16Z</time>
      </trkpt>
      <trkpt lat="36.6989850" lon="-2.6984960">
        <ele>28.2</ele>
        <time>2022-11-01T12:46:17Z</time>
      </trkpt>
      <trkpt lat="36.6990140" lon="-2.6984260">
        <ele>28.2</ele>
        <time>2022-11-01T12:46:18Z</time>
      </trkpt>
      <trkpt lat="36.6990430" lon="-2.6983540">
        <ele>28.2</ele>
        <time>2022-11-01T12:46:19Z</time>
      </trkpt>
      <trkpt lat="36.6990720" lon="-2.6982820">
        <ele>28.0</ele>
        <time>2022-11-01T12:46:20Z</time>
      </trkpt>
      <trkpt lat="36.6991030" lon="-2.6982110">
        <ele>28.2</ele>
        <time>2022-11-01T12:46:21Z</time>
      </trkpt>
      <trkpt lat="36.6991330" lon="-2.6981400">
        <ele>28.0</ele>
        <time>2022-11-01T12:46:22Z</time>
      </trkpt>
      <trkpt lat="36.6991630" lon="-2.6980700">
        <ele>28.0</ele>
        <time>2022-11-01T12:46:23Z</time>
      </trkpt>
      <trkpt lat="36.6991930" lon="-2.6980000">
        <ele>28.0</ele>
        <time>2022-11-01T12:46:24Z</time>
      </trkpt>
      <trkpt lat="36.6992230" lon="-2.6979280">
        <ele>28.0</ele>
        <time>2022-11-01T12:46:25Z</time>
      </trkpt>
      <trkpt lat="36.6992500" lon="-2.6978570">
        <ele>28.0</ele>
        <time>2022-11-01T12:46:26Z</time>
      </trkpt>
      <trkpt lat="36.6992780" lon="-2.6977850">
        <ele>28.0</ele>
        <time>2022-11-01T12:46:27Z</time>
      </trkpt>
      <trkpt lat="36.6993070" lon="-2.6977150">
        <ele>28.0</ele>
        <time>2022-11-01T12:46:28Z</time>
      </trkpt>
      <trkpt lat="36.6993360" lon="-2.6976430">
        <ele>28.0</ele>
        <time>2022-11-01T12:46:29Z</time>
      </trkpt>
      <trkpt lat="36.6993650" lon="-2.6975700">
        <ele>28.0</ele>
        <time>2022-11-01T12:46:30Z</time>
      </trkpt>
      <trkpt lat="36.6993950" lon="-2.6974970">
        <ele>28.0</ele>
        <time>2022-11-01T12:46:31Z</time>
      </trkpt>
      <trkpt lat="36.6994260" lon="-2.6974250">
        <ele>28.0</ele>
        <time>2022-11-01T12:46:32Z</time>
      </trkpt>
      <trkpt lat="36.6994570" lon="-2.6973530">
        <ele>28.0</ele>
        <time>2022-11-01T12:46:33Z</time>
      </trkpt>
      <trkpt lat="36.6994880" lon="-2.6972800">
        <ele>28.0</ele>
        <time>2022-11-01T12:46:34Z</time>
      </trkpt>
      <trkpt lat="36.6995190" lon="-2.6972080">
        <ele>28.0</ele>
        <time>2022-11-01T12:46:35Z</time>
      </trkpt>
      <trkpt lat="36.6995480" lon="-2.6971350">
        <ele>28.0</ele>
        <time>2022-11-01T12:46:36Z</time>
      </trkpt>
      <trkpt lat="36.6995770" lon="-2.6970640">
        <ele>28.0</ele>
        <time>2022-11-01T12:46:37Z</time>
      </trkpt>
      <trkpt lat="36.6996070" lon="-2.6969910">
        <ele>28.0</ele>
        <time>2022-11-01T12:46:38Z</time>
      </trkpt>
      <trkpt lat="36.6996370" lon="-2.6969190">
        <ele>28.0</ele>
        <time>2022-11-01T12:46:39Z</time>
      </trkpt>
      <trkpt lat="36.6996680" lon="-2.6968460">
        <ele>28.0</ele>
        <time>2022-11-01T12:46:40Z</time>
      </trkpt>
      <trkpt lat="36.6996980" lon="-2.6967710">
        <ele>27.8</ele>
        <time>2022-11-01T12:46:41Z</time>
      </trkpt>
      <trkpt lat="36.6997290" lon="-2.6966970">
        <ele>27.8</ele>
        <time>2022-11-01T12:46:42Z</time>
      </trkpt>
      <trkpt lat="36.6997600" lon="-2.6966230">
        <ele>27.8</ele>
        <time>2022-11-01T12:46:43Z</time>
      </trkpt>
      <trkpt lat="36.6997900" lon="-2.6965500">
        <ele>27.8</ele>
        <time>2022-11-01T12:46:44Z</time>
      </trkpt>
      <trkpt lat="36.6998210" lon="-2.6964770">
        <ele>27.8</ele>
        <time>2022-11-01T12:46:45Z</time>
      </trkpt>
      <trkpt lat="36.6998540" lon="-2.6964060">
        <ele>27.8</ele>
        <time>2022-11-01T12:46:46Z</time>
      </trkpt>
      <trkpt lat="36.6998850" lon="-2.6963340">
        <ele>27.8</ele>
        <time>2022-11-01T12:46:47Z</time>
      </trkpt>
      <trkpt lat="36.6999160" lon="-2.6962620">
        <ele>27.8</ele>
        <time>2022-11-01T12:46:48Z</time>
      </trkpt>
      <trkpt lat="36.6999470" lon="-2.6961880">
        <ele>27.8</ele>
        <time>2022-11-01T12:46:49Z</time>
      </trkpt>
      <trkpt lat="36.6999790" lon="-2.6961150">
        <ele>27.8</ele>
        <time>2022-11-01T12:46:50Z</time>
      </trkpt>
      <trkpt lat="36.7000110" lon="-2.6960410">
        <ele>27.8</ele>
        <time>2022-11-01T12:46:51Z</time>
      </trkpt>
      <trkpt lat="36.7000430" lon="-2.6959670">
        <ele>27.6</ele>
        <time>2022-11-01T12:46:52Z</time>
      </trkpt>
      <trkpt lat="36.7000730" lon="-2.6958920">
        <ele>27.6</ele>
        <time>2022-11-01T12:46:53Z</time>
      </trkpt>
      <trkpt lat="36.7001030" lon="-2.6958180">
        <ele>27.6</ele>
        <time>2022-11-01T12:46:54Z</time>
      </trkpt>
      <trkpt lat="36.7001300" lon="-2.6957430">
        <ele>27.6</ele>
        <time>2022-11-01T12:46:55Z</time>
      </trkpt>
      <trkpt lat="36.7001580" lon="-2.6956700">
        <ele>27.6</ele>
        <time>2022-11-01T12:46:56Z</time>
      </trkpt>
      <trkpt lat="36.7001900" lon="-2.6956000">
        <ele>27.6</ele>
        <time>2022-11-01T12:46:57Z</time>
      </trkpt>
      <trkpt lat="36.7002200" lon="-2.6955300">
        <ele>27.6</ele>
        <time>2022-11-01T12:46:58Z</time>
      </trkpt>
      <trkpt lat="36.7002500" lon="-2.6954600">
        <ele>27.6</ele>
        <time>2022-11-01T12:46:59Z</time>
      </trkpt>
      <trkpt lat="36.7002820" lon="-2.6953910">
        <ele>27.6</ele>
        <time>2022-11-01T12:47:00Z</time>
      </trkpt>
      <trkpt lat="36.7003110" lon="-2.6953210">
        <ele>27.6</ele>
        <time>2022-11-01T12:47:01Z</time>
      </trkpt>
      <trkpt lat="36.7003390" lon="-2.6952500">
        <ele>27.6</ele>
        <time>2022-11-01T12:47:02Z</time>
      </trkpt>
      <trkpt lat="36.7003670" lon="-2.6951800">
        <ele>27.6</ele>
        <time>2022-11-01T12:47:03Z</time>
      </trkpt>
      <trkpt lat="36.7003950" lon="-2.6951120">
        <ele>27.6</ele>
        <time>2022-11-01T12:47:04Z</time>
      </trkpt>
      <trkpt lat="36.7004230" lon="-2.6950480">
        <ele>27.8</ele>
        <time>2022-11-01T12:47:05Z</time>
      </trkpt>
      <trkpt lat="36.7004540" lon="-2.6949820">
        <ele>27.6</ele>
        <time>2022-11-01T12:47:06Z</time>
      </trkpt>
      <trkpt lat="36.7004830" lon="-2.6949140">
        <ele>27.6</ele>
        <time>2022-11-01T12:47:07Z</time>
      </trkpt>
      <trkpt lat="36.7005110" lon="-2.6948460">
        <ele>27.6</ele>
        <time>2022-11-01T12:47:08Z</time>
      </trkpt>
      <trkpt lat="36.7005400" lon="-2.6947780">
        <ele>27.6</ele>
        <time>2022-11-01T12:47:09Z</time>
      </trkpt>
      <trkpt lat="36.7005680" lon="-2.6947070">
        <ele>27.6</ele>
        <time>2022-11-01T12:47:10Z</time>
      </trkpt>
      <trkpt lat="36.7005960" lon="-2.6946340">
        <ele>27.6</ele>
        <time>2022-11-01T12:47:11Z</time>
      </trkpt>
      <trkpt lat="36.7006240" lon="-2.6945630">
        <ele>27.6</ele>
        <time>2022-11-01T12:47:12Z</time>
      </trkpt>
      <trkpt lat="36.7006540" lon="-2.6944910">
        <ele>27.6</ele>
        <time>2022-11-01T12:47:13Z</time>
      </trkpt>
      <trkpt lat="36.7006850" lon="-2.6944230">
        <ele>27.6</ele>
        <time>2022-11-01T12:47:14Z</time>
      </trkpt>
      <trkpt lat="36.7007140" lon="-2.6943550">
        <ele>27.6</ele>
        <time>2022-11-01T12:47:15Z</time>
      </trkpt>
      <trkpt lat="36.7007410" lon="-2.6942870">
        <ele>27.6</ele>
        <time>2022-11-01T12:47:16Z</time>
      </trkpt>
      <trkpt lat="36.7007690" lon="-2.6942190">
        <ele>27.6</ele>
        <time>2022-11-01T12:47:17Z</time>
      </trkpt>
      <trkpt lat="36.7007970" lon="-2.6941520">
        <ele>27.6</ele>
        <time>2022-11-01T12:47:18Z</time>
      </trkpt>
      <trkpt lat="36.7008240" lon="-2.6940840">
        <ele>27.6</ele>
        <time>2022-11-01T12:47:19Z</time>
      </trkpt>
      <trkpt lat="36.7008530" lon="-2.6940180">
        <ele>27.6</ele>
        <time>2022-11-01T12:47:20Z</time>
      </trkpt>
      <trkpt lat="36.7008830" lon="-2.6939520">
        <ele>27.6</ele>
        <time>2022-11-01T12:47:21Z</time>
      </trkpt>
      <trkpt lat="36.7009120" lon="-2.6938840">
        <ele>27.6</ele>
        <time>2022-11-01T12:47:22Z</time>
      </trkpt>
      <trkpt lat="36.7009430" lon="-2.6938150">
        <ele>27.6</ele>
        <time>2022-11-01T12:47:23Z</time>
      </trkpt>
      <trkpt lat="36.7009730" lon="-2.6937450">
        <ele>27.6</ele>
        <time>2022-11-01T12:47:24Z</time>
      </trkpt>
      <trkpt lat="36.7010040" lon="-2.6936770">
        <ele>27.6</ele>
        <time>2022-11-01T12:47:25Z</time>
      </trkpt>
      <trkpt lat="36.7010340" lon="-2.6936080">
        <ele>27.6</ele>
        <time>2022-11-01T12:47:26Z</time>
      </trkpt>
      <trkpt lat="36.7010630" lon="-2.6935370">
        <ele>27.6</ele>
        <time>2022-11-01T12:47:27Z</time>
      </trkpt>
      <trkpt lat="36.7010910" lon="-2.6934650">
        <ele>27.6</ele>
        <time>2022-11-01T12:47:28Z</time>
      </trkpt>
      <trkpt lat="36.7011200" lon="-2.6933930">
        <ele>27.6</ele>
        <time>2022-11-01T12:47:29Z</time>
      </trkpt>
      <trkpt lat="36.7011510" lon="-2.6933200">
        <ele>27.4</ele>
        <time>2022-11-01T12:47:30Z</time>
      </trkpt>
      <trkpt lat="36.7011820" lon="-2.6932460">
        <ele>27.4</ele>
        <time>2022-11-01T12:47:31Z</time>
      </trkpt>
      <trkpt lat="36.7012120" lon="-2.6931740">
        <ele>27.4</ele>
        <time>2022-11-01T12:47:32Z</time>
      </trkpt>
      <trkpt lat="36.7012420" lon="-2.6931030">
        <ele>27.4</ele>
        <time>2022-11-01T12:47:33Z</time>
      </trkpt>
      <trkpt lat="36.7012730" lon="-2.6930330">
        <ele>27.4</ele>
        <time>2022-11-01T12:47:34Z</time>
      </trkpt>
      <trkpt lat="36.7013040" lon="-2.6929610">
        <ele>27.4</ele>
        <time>2022-11-01T12:47:35Z</time>
      </trkpt>
      <trkpt lat="36.7013340" lon="-2.6928880">
        <ele>27.4</ele>
        <time>2022-11-01T12:47:36Z</time>
      </trkpt>
      <trkpt lat="36.7013650" lon="-2.6928150">
        <ele>27.4</ele>
        <time>2022-11-01T12:47:37Z</time>
      </trkpt>
      <trkpt lat="36.7013960" lon="-2.6927430">
        <ele>27.4</ele>
        <time>2022-11-01T12:47:38Z</time>
      </trkpt>
      <trkpt lat="36.7014260" lon="-2.6926710">
        <ele>27.4</ele>
        <time>2022-11-01T12:47:39Z</time>
      </trkpt>
      <trkpt lat="36.7014560" lon="-2.6925980">
        <ele>27.2</ele>
        <time>2022-11-01T12:47:40Z</time>
      </trkpt>
      <trkpt lat="36.7014860" lon="-2.6925260">
        <ele>27.2</ele>
        <time>2022-11-01T12:47:41Z</time>
      </trkpt>
      <trkpt lat="36.7015170" lon="-2.6924540">
        <ele>27.2</ele>
        <time>2022-11-01T12:47:42Z</time>
      </trkpt>
      <trkpt lat="36.7015470" lon="-2.6923810">
        <ele>27.4</ele>
        <time>2022-11-01T12:47:43Z</time>
      </trkpt>
      <trkpt lat="36.7015770" lon="-2.6923080">
        <ele>27.4</ele>
        <time>2022-11-01T12:47:44Z</time>
      </trkpt>
      <trkpt lat="36.7016080" lon="-2.6922360">
        <ele>27.2</ele>
        <time>2022-11-01T12:47:45Z</time>
      </trkpt>
      <trkpt lat="36.7016380" lon="-2.6921640">
        <ele>27.2</ele>
        <time>2022-11-01T12:47:46Z</time>
      </trkpt>
      <trkpt lat="36.7016680" lon="-2.6920890">
        <ele>27.4</ele>
        <time>2022-11-01T12:47:47Z</time>
      </trkpt>
      <trkpt lat="36.7017000" lon="-2.6920150">
        <ele>27.2</ele>
        <time>2022-11-01T12:47:48Z</time>
      </trkpt>
      <trkpt lat="36.7017330" lon="-2.6919400">
        <ele>27.2</ele>
        <time>2022-11-01T12:47:49Z</time>
      </trkpt>
      <trkpt lat="36.7017640" lon="-2.6918650">
        <ele>27.2</ele>
        <time>2022-11-01T12:47:50Z</time>
      </trkpt>
      <trkpt lat="36.7017960" lon="-2.6917900">
        <ele>27.2</ele>
        <time>2022-11-01T12:47:51Z</time>
      </trkpt>
      <trkpt lat="36.7018280" lon="-2.6917140">
        <ele>27.4</ele>
        <time>2022-11-01T12:47:52Z</time>
      </trkpt>
      <trkpt lat="36.7018590" lon="-2.6916380">
        <ele>27.2</ele>
        <time>2022-11-01T12:47:53Z</time>
      </trkpt>
      <trkpt lat="36.7018900" lon="-2.6915630">
        <ele>27.2</ele>
        <time>2022-11-01T12:47:54Z</time>
      </trkpt>
      <trkpt lat="36.7019210" lon="-2.6914880">
        <ele>27.2</ele>
        <time>2022-11-01T12:47:55Z</time>
      </trkpt>
      <trkpt lat="36.7019530" lon="-2.6914120">
        <ele>27.2</ele>
        <time>2022-11-01T12:47:56Z</time>
      </trkpt>
      <trkpt lat="36.7019840" lon="-2.6913370">
        <ele>27.2</ele>
        <time>2022-11-01T12:47:57Z</time>
      </trkpt>
      <trkpt lat="36.7020130" lon="-2.6912620">
        <ele>27.2</ele>
        <time>2022-11-01T12:47:58Z</time>
      </trkpt>
      <trkpt lat="36.7020420" lon="-2.6911880">
        <ele>27.2</ele>
        <time>2022-11-01T12:47:59Z</time>
      </trkpt>
      <trkpt lat="36.7020720" lon="-2.6911140">
        <ele>27.4</ele>
        <time>2022-11-01T12:48:00Z</time>
      </trkpt>
      <trkpt lat="36.7021020" lon="-2.6910400">
        <ele>27.2</ele>
        <time>2022-11-01T12:48:01Z</time>
      </trkpt>
      <trkpt lat="36.7021330" lon="-2.6909650">
        <ele>27.2</ele>
        <time>2022-11-01T12:48:02Z</time>
      </trkpt>
      <trkpt lat="36.7021640" lon="-2.6908910">
        <ele>27.2</ele>
        <time>2022-11-01T12:48:03Z</time>
      </trkpt>
      <trkpt lat="36.7021950" lon="-2.6908170">
        <ele>27.2</ele>
        <time>2022-11-01T12:48:04Z</time>
      </trkpt>
      <trkpt lat="36.7022260" lon="-2.6907450">
        <ele>27.2</ele>
        <time>2022-11-01T12:48:05Z</time>
      </trkpt>
      <trkpt lat="36.7022570" lon="-2.6906740">
        <ele>27.2</ele>
        <time>2022-11-01T12:48:06Z</time>
      </trkpt>
      <trkpt lat="36.7022860" lon="-2.6906020">
        <ele>27.4</ele>
        <time>2022-11-01T12:48:07Z</time>
      </trkpt>
      <trkpt lat="36.7023160" lon="-2.6905290">
        <ele>27.2</ele>
        <time>2022-11-01T12:48:08Z</time>
      </trkpt>
      <trkpt lat="36.7023460" lon="-2.6904560">
        <ele>27.4</ele>
        <time>2022-11-01T12:48:09Z</time>
      </trkpt>
      <trkpt lat="36.7023770" lon="-2.6903840">
        <ele>27.4</ele>
        <time>2022-11-01T12:48:10Z</time>
      </trkpt>
      <trkpt lat="36.7024070" lon="-2.6903110">
        <ele>27.4</ele>
        <time>2022-11-01T12:48:11Z</time>
      </trkpt>
      <trkpt lat="36.7024370" lon="-2.6902380">
        <ele>27.4</ele>
        <time>2022-11-01T12:48:12Z</time>
      </trkpt>
      <trkpt lat="36.7024680" lon="-2.6901640">
        <ele>27.4</ele>
        <time>2022-11-01T12:48:13Z</time>
      </trkpt>
      <trkpt lat="36.7024990" lon="-2.6900910">
        <ele>27.2</ele>
        <time>2022-11-01T12:48:14Z</time>
      </trkpt>
      <trkpt lat="36.7025300" lon="-2.6900180">
        <ele>27.2</ele>
        <time>2022-11-01T12:48:15Z</time>
      </trkpt>
      <trkpt lat="36.7025610" lon="-2.6899460">
        <ele>27.2</ele>
        <time>2022-11-01T12:48:16Z</time>
      </trkpt>
      <trkpt lat="36.7025910" lon="-2.6898720">
        <ele>27.2</ele>
        <time>2022-11-01T12:48:17Z</time>
      </trkpt>
      <trkpt lat="36.7026230" lon="-2.6897970">
        <ele>27.2</ele>
        <time>2022-11-01T12:48:18Z</time>
      </trkpt>
      <trkpt lat="36.7026540" lon="-2.6897230">
        <ele>27.2</ele>
        <time>2022-11-01T12:48:19Z</time>
      </trkpt>
      <trkpt lat="36.7026860" lon="-2.6896480">
        <ele>27.2</ele>
        <time>2022-11-01T12:48:20Z</time>
      </trkpt>
      <trkpt lat="36.7027170" lon="-2.6895740">
        <ele>27.2</ele>
        <time>2022-11-01T12:48:21Z</time>
      </trkpt>
      <trkpt lat="36.7027480" lon="-2.6895010">
        <ele>27.2</ele>
        <time>2022-11-01T12:48:22Z</time>
      </trkpt>
      <trkpt lat="36.7027780" lon="-2.6894270">
        <ele>27.2</ele>
        <time>2022-11-01T12:48:23Z</time>
      </trkpt>
      <trkpt lat="36.7028090" lon="-2.6893520">
        <ele>27.2</ele>
        <time>2022-11-01T12:48:24Z</time>
      </trkpt>
      <trkpt lat="36.7028410" lon="-2.6892770">
        <ele>27.2</ele>
        <time>2022-11-01T12:48:25Z</time>
      </trkpt>
      <trkpt lat="36.7028730" lon="-2.6892010">
        <ele>27.2</ele>
        <time>2022-11-01T12:48:26Z</time>
      </trkpt>
      <trkpt lat="36.7029060" lon="-2.6891260">
        <ele>27.2</ele>
        <time>2022-11-01T12:48:27Z</time>
      </trkpt>
      <trkpt lat="36.7029370" lon="-2.6890500">
        <ele>27.2</ele>
        <time>2022-11-01T12:48:28Z</time>
      </trkpt>
      <trkpt lat="36.7029680" lon="-2.6889750">
        <ele>27.0</ele>
        <time>2022-11-01T12:48:29Z</time>
      </trkpt>
      <trkpt lat="36.7030010" lon="-2.6889000">
        <ele>27.0</ele>
        <time>2022-11-01T12:48:30Z</time>
      </trkpt>
      <trkpt lat="36.7030340" lon="-2.6888260">
        <ele>27.0</ele>
        <time>2022-11-01T12:48:31Z</time>
      </trkpt>
      <trkpt lat="36.7030640" lon="-2.6887530">
        <ele>27.0</ele>
        <time>2022-11-01T12:48:32Z</time>
      </trkpt>
      <trkpt lat="36.7030940" lon="-2.6886790">
        <ele>27.0</ele>
        <time>2022-11-01T12:48:33Z</time>
      </trkpt>
      <trkpt lat="36.7031260" lon="-2.6886070">
        <ele>27.0</ele>
        <time>2022-11-01T12:48:34Z</time>
      </trkpt>
      <trkpt lat="36.7031580" lon="-2.6885330">
        <ele>27.2</ele>
        <time>2022-11-01T12:48:35Z</time>
      </trkpt>
      <trkpt lat="36.7031900" lon="-2.6884590">
        <ele>27.2</ele>
        <time>2022-11-01T12:48:36Z</time>
      </trkpt>
      <trkpt lat="36.7032230" lon="-2.6883870">
        <ele>27.2</ele>
        <time>2022-11-01T12:48:37Z</time>
      </trkpt>
      <trkpt lat="36.7032520" lon="-2.6883160">
        <ele>27.2</ele>
        <time>2022-11-01T12:48:38Z</time>
      </trkpt>
      <trkpt lat="36.7032820" lon="-2.6882440">
        <ele>27.2</ele>
        <time>2022-11-01T12:48:39Z</time>
      </trkpt>
      <trkpt lat="36.7033110" lon="-2.6881710">
        <ele>27.2</ele>
        <time>2022-11-01T12:48:40Z</time>
      </trkpt>
      <trkpt lat="36.7033410" lon="-2.6880980">
        <ele>27.2</ele>
        <time>2022-11-01T12:48:41Z</time>
      </trkpt>
      <trkpt lat="36.7033700" lon="-2.6880260">
        <ele>27.2</ele>
        <time>2022-11-01T12:48:42Z</time>
      </trkpt>
      <trkpt lat="36.7034000" lon="-2.6879530">
        <ele>27.0</ele>
        <time>2022-11-01T12:48:43Z</time>
      </trkpt>
      <trkpt lat="36.7034260" lon="-2.6878820">
        <ele>27.0</ele>
        <time>2022-11-01T12:48:44Z</time>
      </trkpt>
      <trkpt lat="36.7034560" lon="-2.6878120">
        <ele>27.0</ele>
        <time>2022-11-01T12:48:45Z</time>
      </trkpt>
      <trkpt lat="36.7034850" lon="-2.6877420">
        <ele>27.2</ele>
        <time>2022-11-01T12:48:46Z</time>
      </trkpt>
      <trkpt lat="36.7035130" lon="-2.6876710">
        <ele>27.2</ele>
        <time>2022-11-01T12:48:47Z</time>
      </trkpt>
      <trkpt lat="36.7035410" lon="-2.6875990">
        <ele>27.2</ele>
        <time>2022-11-01T12:48:48Z</time>
      </trkpt>
      <trkpt lat="36.7035700" lon="-2.6875270">
        <ele>27.2</ele>
        <time>2022-11-01T12:48:49Z</time>
      </trkpt>
      <trkpt lat="36.7035980" lon="-2.6874550">
        <ele>27.2</ele>
        <time>2022-11-01T12:48:50Z</time>
      </trkpt>
      <trkpt lat="36.7036270" lon="-2.6873840">
        <ele>27.2</ele>
        <time>2022-11-01T12:48:51Z</time>
      </trkpt>
      <trkpt lat="36.7036570" lon="-2.6873120">
        <ele>27.2</ele>
        <time>2022-11-01T12:48:52Z</time>
      </trkpt>
      <trkpt lat="36.7036870" lon="-2.6872390">
        <ele>27.2</ele>
        <time>2022-11-01T12:48:53Z</time>
      </trkpt>
      <trkpt lat="36.7037180" lon="-2.6871670">
        <ele>27.2</ele>
        <time>2022-11-01T12:48:54Z</time>
      </trkpt>
      <trkpt lat="36.7037470" lon="-2.6870950">
        <ele>27.2</ele>
        <time>2022-11-01T12:48:55Z</time>
      </trkpt>
      <trkpt lat="36.7037770" lon="-2.6870230">
        <ele>27.2</ele>
        <time>2022-11-01T12:48:56Z</time>
      </trkpt>
      <trkpt lat="36.7038080" lon="-2.6869490">
        <ele>27.2</ele>
        <time>2022-11-01T12:48:57Z</time>
      </trkpt>
      <trkpt lat="36.7038380" lon="-2.6868750">
        <ele>27.2</ele>
        <time>2022-11-01T12:48:58Z</time>
      </trkpt>
      <trkpt lat="36.7038690" lon="-2.6868010">
        <ele>27.4</ele>
        <time>2022-11-01T12:48:59Z</time>
      </trkpt>
      <trkpt lat="36.7039000" lon="-2.6867270">
        <ele>27.4</ele>
        <time>2022-11-01T12:49:00Z</time>
      </trkpt>
      <trkpt lat="36.7039300" lon="-2.6866520">
        <ele>27.4</ele>
        <time>2022-11-01T12:49:01Z</time>
      </trkpt>
      <trkpt lat="36.7039610" lon="-2.6865790">
        <ele>27.4</ele>
        <time>2022-11-01T12:49:02Z</time>
      </trkpt>
      <trkpt lat="36.7039890" lon="-2.6865080">
        <ele>27.6</ele>
        <time>2022-11-01T12:49:03Z</time>
      </trkpt>
      <trkpt lat="36.7040200" lon="-2.6864350">
        <ele>27.6</ele>
        <time>2022-11-01T12:49:04Z</time>
      </trkpt>
      <trkpt lat="36.7040520" lon="-2.6863640">
        <ele>27.6</ele>
        <time>2022-11-01T12:49:05Z</time>
      </trkpt>
      <trkpt lat="36.7040820" lon="-2.6862920">
        <ele>27.6</ele>
        <time>2022-11-01T12:49:06Z</time>
      </trkpt>
      <trkpt lat="36.7041130" lon="-2.6862200">
        <ele>27.6</ele>
        <time>2022-11-01T12:49:07Z</time>
      </trkpt>
      <trkpt lat="36.7041430" lon="-2.6861470">
        <ele>27.6</ele>
        <time>2022-11-01T12:49:08Z</time>
      </trkpt>
      <trkpt lat="36.7041740" lon="-2.6860750">
        <ele>27.6</ele>
        <time>2022-11-01T12:49:09Z</time>
      </trkpt>
      <trkpt lat="36.7042050" lon="-2.6860040">
        <ele>27.6</ele>
        <time>2022-11-01T12:49:10Z</time>
      </trkpt>
      <trkpt lat="36.7042350" lon="-2.6859330">
        <ele>27.6</ele>
        <time>2022-11-01T12:49:11Z</time>
      </trkpt>
      <trkpt lat="36.7042640" lon="-2.6858620">
        <ele>27.6</ele>
        <time>2022-11-01T12:49:12Z</time>
      </trkpt>
      <trkpt lat="36.7042930" lon="-2.6857900">
        <ele>27.6</ele>
        <time>2022-11-01T12:49:13Z</time>
      </trkpt>
      <trkpt lat="36.7043220" lon="-2.6857170">
        <ele>27.6</ele>
        <time>2022-11-01T12:49:14Z</time>
      </trkpt>
      <trkpt lat="36.7043520" lon="-2.6856450">
        <ele>27.6</ele>
        <time>2022-11-01T12:49:15Z</time>
      </trkpt>
      <trkpt lat="36.7043810" lon="-2.6855720">
        <ele>27.6</ele>
        <time>2022-11-01T12:49:16Z</time>
      </trkpt>
      <trkpt lat="36.7044110" lon="-2.6855020">
        <ele>27.6</ele>
        <time>2022-11-01T12:49:17Z</time>
      </trkpt>
      <trkpt lat="36.7044410" lon="-2.6854320">
        <ele>27.6</ele>
        <time>2022-11-01T12:49:18Z</time>
      </trkpt>
      <trkpt lat="36.7044730" lon="-2.6853600">
        <ele>27.8</ele>
        <time>2022-11-01T12:49:19Z</time>
      </trkpt>
      <trkpt lat="36.7045050" lon="-2.6852870">
        <ele>27.8</ele>
        <time>2022-11-01T12:49:20Z</time>
      </trkpt>
      <trkpt lat="36.7045370" lon="-2.6852120">
        <ele>27.8</ele>
        <time>2022-11-01T12:49:21Z</time>
      </trkpt>
      <trkpt lat="36.7045680" lon="-2.6851360">
        <ele>27.6</ele>
        <time>2022-11-01T12:49:22Z</time>
      </trkpt>
      <trkpt lat="36.7045990" lon="-2.6850610">
        <ele>27.6</ele>
        <time>2022-11-01T12:49:23Z</time>
      </trkpt>
      <trkpt lat="36.7046320" lon="-2.6849850">
        <ele>27.6</ele>
        <time>2022-11-01T12:49:24Z</time>
      </trkpt>
      <trkpt lat="36.7046640" lon="-2.6849100">
        <ele>27.4</ele>
        <time>2022-11-01T12:49:25Z</time>
      </trkpt>
      <trkpt lat="36.7046950" lon="-2.6848350">
        <ele>27.4</ele>
        <time>2022-11-01T12:49:26Z</time>
      </trkpt>
      <trkpt lat="36.7047270" lon="-2.6847610">
        <ele>27.4</ele>
        <time>2022-11-01T12:49:27Z</time>
      </trkpt>
      <trkpt lat="36.7047590" lon="-2.6846880">
        <ele>27.4</ele>
        <time>2022-11-01T12:49:28Z</time>
      </trkpt>
      <trkpt lat="36.7047910" lon="-2.6846140">
        <ele>27.4</ele>
        <time>2022-11-01T12:49:29Z</time>
      </trkpt>
      <trkpt lat="36.7048210" lon="-2.6845390">
        <ele>27.4</ele>
        <time>2022-11-01T12:49:30Z</time>
      </trkpt>
      <trkpt lat="36.7048520" lon="-2.6844650">
        <ele>27.6</ele>
        <time>2022-11-01T12:49:31Z</time>
      </trkpt>
      <trkpt lat="36.7048820" lon="-2.6843900">
        <ele>27.4</ele>
        <time>2022-11-01T12:49:32Z</time>
      </trkpt>
      <trkpt lat="36.7049120" lon="-2.6843150">
        <ele>27.4</ele>
        <time>2022-11-01T12:49:33Z</time>
      </trkpt>
      <trkpt lat="36.7049440" lon="-2.6842410">
        <ele>27.4</ele>
        <time>2022-11-01T12:49:34Z</time>
      </trkpt>
      <trkpt lat="36.7049740" lon="-2.6841660">
        <ele>27.4</ele>
        <time>2022-11-01T12:49:35Z</time>
      </trkpt>
      <trkpt lat="36.7050050" lon="-2.6840890">
        <ele>27.4</ele>
        <time>2022-11-01T12:49:36Z</time>
      </trkpt>
      <trkpt lat="36.7050370" lon="-2.6840130">
        <ele>27.4</ele>
        <time>2022-11-01T12:49:37Z</time>
      </trkpt>
      <trkpt lat="36.7050700" lon="-2.6839360">
        <ele>27.4</ele>
        <time>2022-11-01T12:49:38Z</time>
      </trkpt>
      <trkpt lat="36.7051030" lon="-2.6838610">
        <ele>27.4</ele>
        <time>2022-11-01T12:49:39Z</time>
      </trkpt>
      <trkpt lat="36.7051370" lon="-2.6837870">
        <ele>27.4</ele>
        <time>2022-11-01T12:49:40Z</time>
      </trkpt>
      <trkpt lat="36.7051690" lon="-2.6837120">
        <ele>27.4</ele>
        <time>2022-11-01T12:49:41Z</time>
      </trkpt>
      <trkpt lat="36.7052020" lon="-2.6836370">
        <ele>27.4</ele>
        <time>2022-11-01T12:49:42Z</time>
      </trkpt>
      <trkpt lat="36.7052320" lon="-2.6835610">
        <ele>27.4</ele>
        <time>2022-11-01T12:49:43Z</time>
      </trkpt>
      <trkpt lat="36.7052620" lon="-2.6834860">
        <ele>27.4</ele>
        <time>2022-11-01T12:49:44Z</time>
      </trkpt>
      <trkpt lat="36.7052920" lon="-2.6834120">
        <ele>27.6</ele>
        <time>2022-11-01T12:49:45Z</time>
      </trkpt>
      <trkpt lat="36.7053220" lon="-2.6833390">
        <ele>27.6</ele>
        <time>2022-11-01T12:49:46Z</time>
      </trkpt>
      <trkpt lat="36.7053520" lon="-2.6832670">
        <ele>27.6</ele>
        <time>2022-11-01T12:49:47Z</time>
      </trkpt>
      <trkpt lat="36.7053830" lon="-2.6831970">
        <ele>27.6</ele>
        <time>2022-11-01T12:49:48Z</time>
      </trkpt>
      <trkpt lat="36.7054150" lon="-2.6831260">
        <ele>27.6</ele>
        <time>2022-11-01T12:49:49Z</time>
      </trkpt>
      <trkpt lat="36.7054450" lon="-2.6830550">
        <ele>27.6</ele>
        <time>2022-11-01T12:49:50Z</time>
      </trkpt>
      <trkpt lat="36.7054750" lon="-2.6829830">
        <ele>27.6</ele>
        <time>2022-11-01T12:49:51Z</time>
      </trkpt>
      <trkpt lat="36.7055060" lon="-2.6829150">
        <ele>27.8</ele>
        <time>2022-11-01T12:49:52Z</time>
      </trkpt>
      <trkpt lat="36.7055350" lon="-2.6828460">
        <ele>27.8</ele>
        <time>2022-11-01T12:49:53Z</time>
      </trkpt>
      <trkpt lat="36.7055640" lon="-2.6827770">
        <ele>27.8</ele>
        <time>2022-11-01T12:49:54Z</time>
      </trkpt>
      <trkpt lat="36.7055920" lon="-2.6827060">
        <ele>27.8</ele>
        <time>2022-11-01T12:49:55Z</time>
      </trkpt>
      <trkpt lat="36.7056220" lon="-2.6826360">
        <ele>27.8</ele>
        <time>2022-11-01T12:49:56Z</time>
      </trkpt>
      <trkpt lat="36.7056520" lon="-2.6825660">
        <ele>27.8</ele>
        <time>2022-11-01T12:49:57Z</time>
      </trkpt>
      <trkpt lat="36.7056810" lon="-2.6824960">
        <ele>27.8</ele>
        <time>2022-11-01T12:49:58Z</time>
      </trkpt>
      <trkpt lat="36.7057110" lon="-2.6824260">
        <ele>27.8</ele>
        <time>2022-11-01T12:49:59Z</time>
      </trkpt>
      <trkpt lat="36.7057430" lon="-2.6823550">
        <ele>28.0</ele>
        <time>2022-11-01T12:50:00Z</time>
      </trkpt>
      <trkpt lat="36.7057740" lon="-2.6822840">
        <ele>28.0</ele>
        <time>2022-11-01T12:50:01Z</time>
      </trkpt>
      <trkpt lat="36.7058010" lon="-2.6822130">
        <ele>28.0</ele>
        <time>2022-11-01T12:50:02Z</time>
      </trkpt>
      <trkpt lat="36.7058290" lon="-2.6821430">
        <ele>28.0</ele>
        <time>2022-11-01T12:50:03Z</time>
      </trkpt>
      <trkpt lat="36.7058590" lon="-2.6820750">
        <ele>28.0</ele>
        <time>2022-11-01T12:50:04Z</time>
      </trkpt>
      <trkpt lat="36.7058880" lon="-2.6820060">
        <ele>28.0</ele>
        <time>2022-11-01T12:50:05Z</time>
      </trkpt>
      <trkpt lat="36.7059160" lon="-2.6819380">
        <ele>28.0</ele>
        <time>2022-11-01T12:50:06Z</time>
      </trkpt>
      <trkpt lat="36.7059450" lon="-2.6818700">
        <ele>28.0</ele>
        <time>2022-11-01T12:50:07Z</time>
      </trkpt>
      <trkpt lat="36.7059740" lon="-2.6818020">
        <ele>28.0</ele>
        <time>2022-11-01T12:50:08Z</time>
      </trkpt>
      <trkpt lat="36.7060020" lon="-2.6817330">
        <ele>28.0</ele>
        <time>2022-11-01T12:50:09Z</time>
      </trkpt>
      <trkpt lat="36.7060300" lon="-2.6816640">
        <ele>28.0</ele>
        <time>2022-11-01T12:50:10Z</time>
      </trkpt>
      <trkpt lat="36.7060580" lon="-2.6815940">
        <ele>28.0</ele>
        <time>2022-11-01T12:50:11Z</time>
      </trkpt>
      <trkpt lat="36.7060860" lon="-2.6815250">
        <ele>28.0</ele>
        <time>2022-11-01T12:50:12Z</time>
      </trkpt>
      <trkpt lat="36.7061150" lon="-2.6814550">
        <ele>28.0</ele>
        <time>2022-11-01T12:50:13Z</time>
      </trkpt>
      <trkpt lat="36.7061450" lon="-2.6813850">
        <ele>28.0</ele>
        <time>2022-11-01T12:50:14Z</time>
      </trkpt>
      <trkpt lat="36.7061750" lon="-2.6813150">
        <ele>28.0</ele>
        <time>2022-11-01T12:50:15Z</time>
      </trkpt>
      <trkpt lat="36.7062030" lon="-2.6812440">
        <ele>28.2</ele>
        <time>2022-11-01T12:50:16Z</time>
      </trkpt>
      <trkpt lat="36.7062290" lon="-2.6811720">
        <ele>28.2</ele>
        <time>2022-11-01T12:50:17Z</time>
      </trkpt>
      <trkpt lat="36.7062570" lon="-2.6811000">
        <ele>28.0</ele>
        <time>2022-11-01T12:50:18Z</time>
      </trkpt>
      <trkpt lat="36.7062890" lon="-2.6810290">
        <ele>28.0</ele>
        <time>2022-11-01T12:50:19Z</time>
      </trkpt>
      <trkpt lat="36.7063200" lon="-2.6809580">
        <ele>28.0</ele>
        <time>2022-11-01T12:50:20Z</time>
      </trkpt>
      <trkpt lat="36.7063490" lon="-2.6808870">
        <ele>28.2</ele>
        <time>2022-11-01T12:50:21Z</time>
      </trkpt>
      <trkpt lat="36.7063780" lon="-2.6808150">
        <ele>28.2</ele>
        <time>2022-11-01T12:50:22Z</time>
      </trkpt>
      <trkpt lat="36.7064070" lon="-2.6807420">
        <ele>28.2</ele>
        <time>2022-11-01T12:50:23Z</time>
      </trkpt>
      <trkpt lat="36.7064370" lon="-2.6806680">
        <ele>28.2</ele>
        <time>2022-11-01T12:50:24Z</time>
      </trkpt>
      <trkpt lat="36.7064670" lon="-2.6805940">
        <ele>28.2</ele>
        <time>2022-11-01T12:50:25Z</time>
      </trkpt>
      <trkpt lat="36.7065000" lon="-2.6805210">
        <ele>28.2</ele>
        <time>2022-11-01T12:50:26Z</time>
      </trkpt>
      <trkpt lat="36.7065320" lon="-2.6804470">
        <ele>28.2</ele>
        <time>2022-11-01T12:50:27Z</time>
      </trkpt>
      <trkpt lat="36.7065640" lon="-2.6803740">
        <ele>28.2</ele>
        <time>2022-11-01T12:50:28Z</time>
      </trkpt>
      <trkpt lat="36.7065950" lon="-2.6803010">
        <ele>28.2</ele>
        <time>2022-11-01T12:50:29Z</time>
      </trkpt>
      <trkpt lat="36.7066270" lon="-2.6802260">
        <ele>28.2</ele>
        <time>2022-11-01T12:50:30Z</time>
      </trkpt>
      <trkpt lat="36.7066570" lon="-2.6801510">
        <ele>28.2</ele>
        <time>2022-11-01T12:50:31Z</time>
      </trkpt>
      <trkpt lat="36.7066890" lon="-2.6800750">
        <ele>28.0</ele>
        <time>2022-11-01T12:50:32Z</time>
      </trkpt>
      <trkpt lat="36.7067200" lon="-2.6800000">
        <ele>28.0</ele>
        <time>2022-11-01T12:50:33Z</time>
      </trkpt>
      <trkpt lat="36.7067510" lon="-2.6799240">
        <ele>28.0</ele>
        <time>2022-11-01T12:50:34Z</time>
      </trkpt>
      <trkpt lat="36.7067800" lon="-2.6798470">
        <ele>28.2</ele>
        <time>2022-11-01T12:50:35Z</time>
      </trkpt>
      <trkpt lat="36.7068100" lon="-2.6797700">
        <ele>28.0</ele>
        <time>2022-11-01T12:50:36Z</time>
      </trkpt>
      <trkpt lat="36.7068420" lon="-2.6796950">
        <ele>28.2</ele>
        <time>2022-11-01T12:50:37Z</time>
      </trkpt>
      <trkpt lat="36.7068750" lon="-2.6796210">
        <ele>28.0</ele>
        <time>2022-11-01T12:50:38Z</time>
      </trkpt>
      <trkpt lat="36.7069060" lon="-2.6795470">
        <ele>28.0</ele>
        <time>2022-11-01T12:50:39Z</time>
      </trkpt>
      <trkpt lat="36.7069370" lon="-2.6794730">
        <ele>28.0</ele>
        <time>2022-11-01T12:50:40Z</time>
      </trkpt>
      <trkpt lat="36.7069680" lon="-2.6794000">
        <ele>28.0</ele>
        <time>2022-11-01T12:50:41Z</time>
      </trkpt>
      <trkpt lat="36.7069980" lon="-2.6793270">
        <ele>28.0</ele>
        <time>2022-11-01T12:50:42Z</time>
      </trkpt>
      <trkpt lat="36.7070270" lon="-2.6792550">
        <ele>28.0</ele>
        <time>2022-11-01T12:50:43Z</time>
      </trkpt>
      <trkpt lat="36.7070560" lon="-2.6791830">
        <ele>27.8</ele>
        <time>2022-11-01T12:50:44Z</time>
      </trkpt>
      <trkpt lat="36.7070850" lon="-2.6791120">
        <ele>28.0</ele>
        <time>2022-11-01T12:50:45Z</time>
      </trkpt>
      <trkpt lat="36.7071160" lon="-2.6790430">
        <ele>28.0</ele>
        <time>2022-11-01T12:50:46Z</time>
      </trkpt>
      <trkpt lat="36.7071440" lon="-2.6789720">
        <ele>28.0</ele>
        <time>2022-11-01T12:50:47Z</time>
      </trkpt>
      <trkpt lat="36.7071740" lon="-2.6789000">
        <ele>28.0</ele>
        <time>2022-11-01T12:50:48Z</time>
      </trkpt>
      <trkpt lat="36.7072040" lon="-2.6788290">
        <ele>28.0</ele>
        <time>2022-11-01T12:50:49Z</time>
      </trkpt>
      <trkpt lat="36.7072350" lon="-2.6787570">
        <ele>28.0</ele>
        <time>2022-11-01T12:50:50Z</time>
      </trkpt>
      <trkpt lat="36.7072660" lon="-2.6786850">
        <ele>28.0</ele>
        <time>2022-11-01T12:50:51Z</time>
      </trkpt>
      <trkpt lat="36.7072950" lon="-2.6786130">
        <ele>27.8</ele>
        <time>2022-11-01T12:50:52Z</time>
      </trkpt>
      <trkpt lat="36.7073240" lon="-2.6785400">
        <ele>27.8</ele>
        <time>2022-11-01T12:50:53Z</time>
      </trkpt>
      <trkpt lat="36.7073540" lon="-2.6784680">
        <ele>27.8</ele>
        <time>2022-11-01T12:50:54Z</time>
      </trkpt>
      <trkpt lat="36.7073820" lon="-2.6783950">
        <ele>27.8</ele>
        <time>2022-11-01T12:50:55Z</time>
      </trkpt>
      <trkpt lat="36.7074110" lon="-2.6783210">
        <ele>27.8</ele>
        <time>2022-11-01T12:50:56Z</time>
      </trkpt>
      <trkpt lat="36.7074410" lon="-2.6782470">
        <ele>28.0</ele>
        <time>2022-11-01T12:50:57Z</time>
      </trkpt>
      <trkpt lat="36.7074710" lon="-2.6781730">
        <ele>28.0</ele>
        <time>2022-11-01T12:50:58Z</time>
      </trkpt>
      <trkpt lat="36.7075010" lon="-2.6781000">
        <ele>28.0</ele>
        <time>2022-11-01T12:50:59Z</time>
      </trkpt>
      <trkpt lat="36.7075320" lon="-2.6780280">
        <ele>28.0</ele>
        <time>2022-11-01T12:51:00Z</time>
      </trkpt>
      <trkpt lat="36.7075620" lon="-2.6779550">
        <ele>28.2</ele>
        <time>2022-11-01T12:51:01Z</time>
      </trkpt>
      <trkpt lat="36.7075920" lon="-2.6778820">
        <ele>28.2</ele>
        <time>2022-11-01T12:51:02Z</time>
      </trkpt>
      <trkpt lat="36.7076220" lon="-2.6778100">
        <ele>28.2</ele>
        <time>2022-11-01T12:51:03Z</time>
      </trkpt>
      <trkpt lat="36.7076530" lon="-2.6777370">
        <ele>28.2</ele>
        <time>2022-11-01T12:51:04Z</time>
      </trkpt>
      <trkpt lat="36.7076830" lon="-2.6776640">
        <ele>28.2</ele>
        <time>2022-11-01T12:51:05Z</time>
      </trkpt>
      <trkpt lat="36.7077130" lon="-2.6775900">
        <ele>28.2</ele>
        <time>2022-11-01T12:51:06Z</time>
      </trkpt>
      <trkpt lat="36.7077440" lon="-2.6775170">
        <ele>28.2</ele>
        <time>2022-11-01T12:51:07Z</time>
      </trkpt>
      <trkpt lat="36.7077750" lon="-2.6774440">
        <ele>28.2</ele>
        <time>2022-11-01T12:51:08Z</time>
      </trkpt>
      <trkpt lat="36.7078070" lon="-2.6773710">
        <ele>28.4</ele>
        <time>2022-11-01T12:51:09Z</time>
      </trkpt>
      <trkpt lat="36.7078400" lon="-2.6772990">
        <ele>28.4</ele>
        <time>2022-11-01T12:51:10Z</time>
      </trkpt>
      <trkpt lat="36.7078700" lon="-2.6772230">
        <ele>28.2</ele>
        <time>2022-11-01T12:51:11Z</time>
      </trkpt>
      <trkpt lat="36.7078990" lon="-2.6771470">
        <ele>28.2</ele>
        <time>2022-11-01T12:51:12Z</time>
      </trkpt>
      <trkpt lat="36.7079290" lon="-2.6770710">
        <ele>28.2</ele>
        <time>2022-11-01T12:51:13Z</time>
      </trkpt>
      <trkpt lat="36.7079600" lon="-2.6769970">
        <ele>28.2</ele>
        <time>2022-11-01T12:51:14Z</time>
      </trkpt>
      <trkpt lat="36.7079900" lon="-2.6769230">
        <ele>28.4</ele>
        <time>2022-11-01T12:51:15Z</time>
      </trkpt>
      <trkpt lat="36.7080200" lon="-2.6768500">
        <ele>28.4</ele>
        <time>2022-11-01T12:51:16Z</time>
      </trkpt>
      <trkpt lat="36.7080510" lon="-2.6767770">
        <ele>28.2</ele>
        <time>2022-11-01T12:51:17Z</time>
      </trkpt>
      <trkpt lat="36.7080810" lon="-2.6767030">
        <ele>28.2</ele>
        <time>2022-11-01T12:51:18Z</time>
      </trkpt>
      <trkpt lat="36.7081110" lon="-2.6766300">
        <ele>28.4</ele>
        <time>2022-11-01T12:51:19Z</time>
      </trkpt>
      <trkpt lat="36.7081400" lon="-2.6765580">
        <ele>28.4</ele>
        <time>2022-11-01T12:51:20Z</time>
      </trkpt>
      <trkpt lat="36.7081690" lon="-2.6764870">
        <ele>28.4</ele>
        <time>2022-11-01T12:51:21Z</time>
      </trkpt>
      <trkpt lat="36.7082000" lon="-2.6764170">
        <ele>28.4</ele>
        <time>2022-11-01T12:51:22Z</time>
      </trkpt>
      <trkpt lat="36.7082300" lon="-2.6763480">
        <ele>28.4</ele>
        <time>2022-11-01T12:51:23Z</time>
      </trkpt>
      <trkpt lat="36.7082600" lon="-2.6762780">
        <ele>28.4</ele>
        <time>2022-11-01T12:51:24Z</time>
      </trkpt>
      <trkpt lat="36.7082890" lon="-2.6762080">
        <ele>28.4</ele>
        <time>2022-11-01T12:51:25Z</time>
      </trkpt>
      <trkpt lat="36.7083180" lon="-2.6761400">
        <ele>28.4</ele>
        <time>2022-11-01T12:51:26Z</time>
      </trkpt>
      <trkpt lat="36.7083450" lon="-2.6760720">
        <ele>28.4</ele>
        <time>2022-11-01T12:51:27Z</time>
      </trkpt>
      <trkpt lat="36.7083730" lon="-2.6760030">
        <ele>28.6</ele>
        <time>2022-11-01T12:51:28Z</time>
      </trkpt>
      <trkpt lat="36.7084010" lon="-2.6759340">
        <ele>28.6</ele>
        <time>2022-11-01T12:51:29Z</time>
      </trkpt>
      <trkpt lat="36.7084310" lon="-2.6758650">
        <ele>28.6</ele>
        <time>2022-11-01T12:51:30Z</time>
      </trkpt>
      <trkpt lat="36.7084600" lon="-2.6757950">
        <ele>28.6</ele>
        <time>2022-11-01T12:51:31Z</time>
      </trkpt>
      <trkpt lat="36.7084890" lon="-2.6757260">
        <ele>28.6</ele>
        <time>2022-11-01T12:51:32Z</time>
      </trkpt>
      <trkpt lat="36.7085170" lon="-2.6756570">
        <ele>28.6</ele>
        <time>2022-11-01T12:51:33Z</time>
      </trkpt>
      <trkpt lat="36.7085450" lon="-2.6755870">
        <ele>28.6</ele>
        <time>2022-11-01T12:51:34Z</time>
      </trkpt>
      <trkpt lat="36.7085740" lon="-2.6755170">
        <ele>28.6</ele>
        <time>2022-11-01T12:51:35Z</time>
      </trkpt>
      <trkpt lat="36.7086030" lon="-2.6754480">
        <ele>28.6</ele>
        <time>2022-11-01T12:51:36Z</time>
      </trkpt>
      <trkpt lat="36.7086330" lon="-2.6753780">
        <ele>28.6</ele>
        <time>2022-11-01T12:51:37Z</time>
      </trkpt>
      <trkpt lat="36.7086630" lon="-2.6753090">
        <ele>28.8</ele>
        <time>2022-11-01T12:51:38Z</time>
      </trkpt>
      <trkpt lat="36.7086900" lon="-2.6752380">
        <ele>28.8</ele>
        <time>2022-11-01T12:51:39Z</time>
      </trkpt>
      <trkpt lat="36.7087180" lon="-2.6751660">
        <ele>28.8</ele>
        <time>2022-11-01T12:51:40Z</time>
      </trkpt>
      <trkpt lat="36.7087480" lon="-2.6750930">
        <ele>28.8</ele>
        <time>2022-11-01T12:51:41Z</time>
      </trkpt>
      <trkpt lat="36.7087770" lon="-2.6750220">
        <ele>28.8</ele>
        <time>2022-11-01T12:51:42Z</time>
      </trkpt>
      <trkpt lat="36.7088070" lon="-2.6749540">
        <ele>28.8</ele>
        <time>2022-11-01T12:51:43Z</time>
      </trkpt>
      <trkpt lat="36.7088370" lon="-2.6748850">
        <ele>29.0</ele>
        <time>2022-11-01T12:51:44Z</time>
      </trkpt>
      <trkpt lat="36.7088670" lon="-2.6748160">
        <ele>29.0</ele>
        <time>2022-11-01T12:51:45Z</time>
      </trkpt>
      <trkpt lat="36.7088970" lon="-2.6747440">
        <ele>28.8</ele>
        <time>2022-11-01T12:51:46Z</time>
      </trkpt>
      <trkpt lat="36.7089260" lon="-2.6746710">
        <ele>28.8</ele>
        <time>2022-11-01T12:51:47Z</time>
      </trkpt>
      <trkpt lat="36.7089560" lon="-2.6745990">
        <ele>28.8</ele>
        <time>2022-11-01T12:51:48Z</time>
      </trkpt>
      <trkpt lat="36.7089870" lon="-2.6745260">
        <ele>29.0</ele>
        <time>2022-11-01T12:51:49Z</time>
      </trkpt>
      <trkpt lat="36.7090170" lon="-2.6744520">
        <ele>29.0</ele>
        <time>2022-11-01T12:51:50Z</time>
      </trkpt>
      <trkpt lat="36.7090480" lon="-2.6743790">
        <ele>29.0</ele>
        <time>2022-11-01T12:51:51Z</time>
      </trkpt>
      <trkpt lat="36.7090780" lon="-2.6743050">
        <ele>29.0</ele>
        <time>2022-11-01T12:51:52Z</time>
      </trkpt>
      <trkpt lat="36.7091080" lon="-2.6742320">
        <ele>29.2</ele>
        <time>2022-11-01T12:51:53Z</time>
      </trkpt>
      <trkpt lat="36.7091380" lon="-2.6741590">
        <ele>29.2</ele>
        <time>2022-11-01T12:51:54Z</time>
      </trkpt>
      <trkpt lat="36.7091670" lon="-2.6740860">
        <ele>29.2</ele>
        <time>2022-11-01T12:51:55Z</time>
      </trkpt>
      <trkpt lat="36.7091980" lon="-2.6740120">
        <ele>29.2</ele>
        <time>2022-11-01T12:51:56Z</time>
      </trkpt>
      <trkpt lat="36.7092290" lon="-2.6739390">
        <ele>29.2</ele>
        <time>2022-11-01T12:51:57Z</time>
      </trkpt>
      <trkpt lat="36.7092550" lon="-2.6738630">
        <ele>29.2</ele>
        <time>2022-11-01T12:51:58Z</time>
      </trkpt>
      <trkpt lat="36.7092860" lon="-2.6737880">
        <ele>29.2</ele>
        <time>2022-11-01T12:51:59Z</time>
      </trkpt>
      <trkpt lat="36.7093170" lon="-2.6737140">
        <ele>29.2</ele>
        <time>2022-11-01T12:52:00Z</time>
      </trkpt>
      <trkpt lat="36.7093470" lon="-2.6736390">
        <ele>29.2</ele>
        <time>2022-11-01T12:52:01Z</time>
      </trkpt>
      <trkpt lat="36.7093770" lon="-2.6735660">
        <ele>29.4</ele>
        <time>2022-11-01T12:52:02Z</time>
      </trkpt>
      <trkpt lat="36.7094070" lon="-2.6734950">
        <ele>29.4</ele>
        <time>2022-11-01T12:52:03Z</time>
      </trkpt>
      <trkpt lat="36.7094370" lon="-2.6734240">
        <ele>29.4</ele>
        <time>2022-11-01T12:52:04Z</time>
      </trkpt>
      <trkpt lat="36.7094680" lon="-2.6733530">
        <ele>29.4</ele>
        <time>2022-11-01T12:52:05Z</time>
      </trkpt>
      <trkpt lat="36.7094980" lon="-2.6732800">
        <ele>29.4</ele>
        <time>2022-11-01T12:52:06Z</time>
      </trkpt>
      <trkpt lat="36.7095260" lon="-2.6732080">
        <ele>29.4</ele>
        <time>2022-11-01T12:52:07Z</time>
      </trkpt>
      <trkpt lat="36.7095550" lon="-2.6731360">
        <ele>29.4</ele>
        <time>2022-11-01T12:52:08Z</time>
      </trkpt>
      <trkpt lat="36.7095850" lon="-2.6730630">
        <ele>29.4</ele>
        <time>2022-11-01T12:52:09Z</time>
      </trkpt>
      <trkpt lat="36.7096140" lon="-2.6729890">
        <ele>29.4</ele>
        <time>2022-11-01T12:52:10Z</time>
      </trkpt>
      <trkpt lat="36.7096430" lon="-2.6729130">
        <ele>29.2</ele>
        <time>2022-11-01T12:52:11Z</time>
      </trkpt>
      <trkpt lat="36.7096750" lon="-2.6728410">
        <ele>29.2</ele>
        <time>2022-11-01T12:52:12Z</time>
      </trkpt>
      <trkpt lat="36.7097070" lon="-2.6727710">
        <ele>29.4</ele>
        <time>2022-11-01T12:52:13Z</time>
      </trkpt>
      <trkpt lat="36.7097370" lon="-2.6726980">
        <ele>29.2</ele>
        <time>2022-11-01T12:52:14Z</time>
      </trkpt>
      <trkpt lat="36.7097660" lon="-2.6726260">
        <ele>29.2</ele>
        <time>2022-11-01T12:52:15Z</time>
      </trkpt>
      <trkpt lat="36.7097950" lon="-2.6725520">
        <ele>29.2</ele>
        <time>2022-11-01T12:52:16Z</time>
      </trkpt>
      <trkpt lat="36.7098250" lon="-2.6724800">
        <ele>29.2</ele>
        <time>2022-11-01T12:52:17Z</time>
      </trkpt>
      <trkpt lat="36.7098560" lon="-2.6724080">
        <ele>29.2</ele>
        <time>2022-11-01T12:52:18Z</time>
      </trkpt>
      <trkpt lat="36.7098840" lon="-2.6723370">
        <ele>29.2</ele>
        <time>2022-11-01T12:52:19Z</time>
      </trkpt>
      <trkpt lat="36.7099130" lon="-2.6722660">
        <ele>29.2</ele>
        <time>2022-11-01T12:52:20Z</time>
      </trkpt>
      <trkpt lat="36.7099420" lon="-2.6721950">
        <ele>29.2</ele>
        <time>2022-11-01T12:52:21Z</time>
      </trkpt>
      <trkpt lat="36.7099730" lon="-2.6721230">
        <ele>29.4</ele>
        <time>2022-11-01T12:52:22Z</time>
      </trkpt>
      <trkpt lat="36.7100020" lon="-2.6720500">
        <ele>29.4</ele>
        <time>2022-11-01T12:52:23Z</time>
      </trkpt>
      <trkpt lat="36.7100310" lon="-2.6719760">
        <ele>29.4</ele>
        <time>2022-11-01T12:52:24Z</time>
      </trkpt>
      <trkpt lat="36.7100610" lon="-2.6719040">
        <ele>29.4</ele>
        <time>2022-11-01T12:52:25Z</time>
      </trkpt>
      <trkpt lat="36.7100900" lon="-2.6718340">
        <ele>29.2</ele>
        <time>2022-11-01T12:52:26Z</time>
      </trkpt>
      <trkpt lat="36.7101190" lon="-2.6717620">
        <ele>29.2</ele>
        <time>2022-11-01T12:52:27Z</time>
      </trkpt>
      <trkpt lat="36.7101500" lon="-2.6716900">
        <ele>29.2</ele>
        <time>2022-11-01T12:52:28Z</time>
      </trkpt>
      <trkpt lat="36.7101810" lon="-2.6716180">
        <ele>29.2</ele>
        <time>2022-11-01T12:52:29Z</time>
      </trkpt>
      <trkpt lat="36.7102110" lon="-2.6715450">
        <ele>29.2</ele>
        <time>2022-11-01T12:52:30Z</time>
      </trkpt>
      <trkpt lat="36.7102400" lon="-2.6714740">
        <ele>29.2</ele>
        <time>2022-11-01T12:52:31Z</time>
      </trkpt>
      <trkpt lat="36.7102680" lon="-2.6714040">
        <ele>29.2</ele>
        <time>2022-11-01T12:52:32Z</time>
      </trkpt>
      <trkpt lat="36.7102950" lon="-2.6713330">
        <ele>29.2</ele>
        <time>2022-11-01T12:52:33Z</time>
      </trkpt>
      <trkpt lat="36.7103240" lon="-2.6712620">
        <ele>29.2</ele>
        <time>2022-11-01T12:52:34Z</time>
      </trkpt>
      <trkpt lat="36.7103540" lon="-2.6711900">
        <ele>29.2</ele>
        <time>2022-11-01T12:52:35Z</time>
      </trkpt>
      <trkpt lat="36.7103840" lon="-2.6711180">
        <ele>29.2</ele>
        <time>2022-11-01T12:52:36Z</time>
      </trkpt>
      <trkpt lat="36.7104130" lon="-2.6710450">
        <ele>29.2</ele>
        <time>2022-11-01T12:52:37Z</time>
      </trkpt>
      <trkpt lat="36.7104420" lon="-2.6709710">
        <ele>29.2</ele>
        <time>2022-11-01T12:52:38Z</time>
      </trkpt>
      <trkpt lat="36.7104710" lon="-2.6708970">
        <ele>29.2</ele>
        <time>2022-11-01T12:52:39Z</time>
      </trkpt>
      <trkpt lat="36.7105000" lon="-2.6708240">
        <ele>29.2</ele>
        <time>2022-11-01T12:52:40Z</time>
      </trkpt>
      <trkpt lat="36.7105300" lon="-2.6707530">
        <ele>29.2</ele>
        <time>2022-11-01T12:52:41Z</time>
      </trkpt>
      <trkpt lat="36.7105610" lon="-2.6706820">
        <ele>29.2</ele>
        <time>2022-11-01T12:52:42Z</time>
      </trkpt>
      <trkpt lat="36.7105900" lon="-2.6706110">
        <ele>29.2</ele>
        <time>2022-11-01T12:52:43Z</time>
      </trkpt>
      <trkpt lat="36.7106190" lon="-2.6705380">
        <ele>29.2</ele>
        <time>2022-11-01T12:52:44Z</time>
      </trkpt>
      <trkpt lat="36.7106480" lon="-2.6704650">
        <ele>29.2</ele>
        <time>2022-11-01T12:52:45Z</time>
      </trkpt>
      <trkpt lat="36.7106790" lon="-2.6703930">
        <ele>29.2</ele>
        <time>2022-11-01T12:52:46Z</time>
      </trkpt>
      <trkpt lat="36.7107090" lon="-2.6703200">
        <ele>29.4</ele>
        <time>2022-11-01T12:52:47Z</time>
      </trkpt>
      <trkpt lat="36.7107390" lon="-2.6702480">
        <ele>29.4</ele>
        <time>2022-11-01T12:52:48Z</time>
      </trkpt>
      <trkpt lat="36.7107690" lon="-2.6701770">
        <ele>29.4</ele>
        <time>2022-11-01T12:52:49Z</time>
      </trkpt>
      <trkpt lat="36.7107980" lon="-2.6701050">
        <ele>29.4</ele>
        <time>2022-11-01T12:52:50Z</time>
      </trkpt>
      <trkpt lat="36.7108290" lon="-2.6700330">
        <ele>29.6</ele>
        <time>2022-11-01T12:52:51Z</time>
      </trkpt>
      <trkpt lat="36.7108590" lon="-2.6699600">
        <ele>29.6</ele>
        <time>2022-11-01T12:52:52Z</time>
      </trkpt>
      <trkpt lat="36.7108890" lon="-2.6698870">
        <ele>29.6</ele>
        <time>2022-11-01T12:52:53Z</time>
      </trkpt>
      <trkpt lat="36.7109180" lon="-2.6698130">
        <ele>29.6</ele>
        <time>2022-11-01T12:52:54Z</time>
      </trkpt>
      <trkpt lat="36.7109460" lon="-2.6697390">
        <ele>29.6</ele>
        <time>2022-11-01T12:52:55Z</time>
      </trkpt>
      <trkpt lat="36.7109780" lon="-2.6696670">
        <ele>29.8</ele>
        <time>2022-11-01T12:52:56Z</time>
      </trkpt>
      <trkpt lat="36.7110080" lon="-2.6695960">
        <ele>29.8</ele>
        <time>2022-11-01T12:52:57Z</time>
      </trkpt>
      <trkpt lat="36.7110390" lon="-2.6695230">
        <ele>29.8</ele>
        <time>2022-11-01T12:52:58Z</time>
      </trkpt>
      <trkpt lat="36.7110690" lon="-2.6694490">
        <ele>29.8</ele>
        <time>2022-11-01T12:52:59Z</time>
      </trkpt>
      <trkpt lat="36.7111000" lon="-2.6693770">
        <ele>29.8</ele>
        <time>2022-11-01T12:53:00Z</time>
      </trkpt>
      <trkpt lat="36.7111300" lon="-2.6693030">
        <ele>29.8</ele>
        <time>2022-11-01T12:53:01Z</time>
      </trkpt>
      <trkpt lat="36.7111600" lon="-2.6692290">
        <ele>30.0</ele>
        <time>2022-11-01T12:53:02Z</time>
      </trkpt>
      <trkpt lat="36.7111900" lon="-2.6691550">
        <ele>30.0</ele>
        <time>2022-11-01T12:53:03Z</time>
      </trkpt>
      <trkpt lat="36.7112200" lon="-2.6690810">
        <ele>30.0</ele>
        <time>2022-11-01T12:53:04Z</time>
      </trkpt>
      <trkpt lat="36.7112510" lon="-2.6690080">
        <ele>30.0</ele>
        <time>2022-11-01T12:53:05Z</time>
      </trkpt>
      <trkpt lat="36.7112810" lon="-2.6689350">
        <ele>30.0</ele>
        <time>2022-11-01T12:53:06Z</time>
      </trkpt>
      <trkpt lat="36.7113110" lon="-2.6688610">
        <ele>30.0</ele>
        <time>2022-11-01T12:53:07Z</time>
      </trkpt>
      <trkpt lat="36.7113400" lon="-2.6687870">
        <ele>30.0</ele>
        <time>2022-11-01T12:53:08Z</time>
      </trkpt>
      <trkpt lat="36.7113700" lon="-2.6687140">
        <ele>30.0</ele>
        <time>2022-11-01T12:53:09Z</time>
      </trkpt>
      <trkpt lat="36.7114000" lon="-2.6686420">
        <ele>30.0</ele>
        <time>2022-11-01T12:53:10Z</time>
      </trkpt>
      <trkpt lat="36.7114270" lon="-2.6685690">
        <ele>30.0</ele>
        <time>2022-11-01T12:53:11Z</time>
      </trkpt>
      <trkpt lat="36.7114550" lon="-2.6684950">
        <ele>30.0</ele>
        <time>2022-11-01T12:53:12Z</time>
      </trkpt>
      <trkpt lat="36.7114850" lon="-2.6684220">
        <ele>30.0</ele>
        <time>2022-11-01T12:53:13Z</time>
      </trkpt>
      <trkpt lat="36.7115170" lon="-2.6683480">
        <ele>30.0</ele>
        <time>2022-11-01T12:53:14Z</time>
      </trkpt>
      <trkpt lat="36.7115480" lon="-2.6682750">
        <ele>30.0</ele>
        <time>2022-11-01T12:53:15Z</time>
      </trkpt>
      <trkpt lat="36.7115770" lon="-2.6682010">
        <ele>30.0</ele>
        <time>2022-11-01T12:53:16Z</time>
      </trkpt>
      <trkpt lat="36.7116060" lon="-2.6681300">
        <ele>30.0</ele>
        <time>2022-11-01T12:53:17Z</time>
      </trkpt>
      <trkpt lat="36.7116370" lon="-2.6680600">
        <ele>30.0</ele>
        <time>2022-11-01T12:53:18Z</time>
      </trkpt>
      <trkpt lat="36.7116680" lon="-2.6679890">
        <ele>30.0</ele>
        <time>2022-11-01T12:53:19Z</time>
      </trkpt>
      <trkpt lat="36.7116980" lon="-2.6679160">
        <ele>30.0</ele>
        <time>2022-11-01T12:53:20Z</time>
      </trkpt>
      <trkpt lat="36.7117280" lon="-2.6678430">
        <ele>30.0</ele>
        <time>2022-11-01T12:53:21Z</time>
      </trkpt>
      <trkpt lat="36.7117560" lon="-2.6677690">
        <ele>30.2</ele>
        <time>2022-11-01T12:53:22Z</time>
      </trkpt>
      <trkpt lat="36.7117850" lon="-2.6676940">
        <ele>30.2</ele>
        <time>2022-11-01T12:53:23Z</time>
      </trkpt>
      <trkpt lat="36.7118150" lon="-2.6676180">
        <ele>30.0</ele>
        <time>2022-11-01T12:53:24Z</time>
      </trkpt>
      <trkpt lat="36.7118460" lon="-2.6675430">
        <ele>30.0</ele>
        <time>2022-11-01T12:53:25Z</time>
      </trkpt>
      <trkpt lat="36.7118770" lon="-2.6674680">
        <ele>30.0</ele>
        <time>2022-11-01T12:53:26Z</time>
      </trkpt>
      <trkpt lat="36.7119070" lon="-2.6673950">
        <ele>30.0</ele>
        <time>2022-11-01T12:53:27Z</time>
      </trkpt>
      <trkpt lat="36.7119380" lon="-2.6673220">
        <ele>30.0</ele>
        <time>2022-11-01T12:53:28Z</time>
      </trkpt>
      <trkpt lat="36.7119690" lon="-2.6672480">
        <ele>30.0</ele>
        <time>2022-11-01T12:53:29Z</time>
      </trkpt>
      <trkpt lat="36.7120000" lon="-2.6671730">
        <ele>30.0</ele>
        <time>2022-11-01T12:53:30Z</time>
      </trkpt>
      <trkpt lat="36.7120310" lon="-2.6670970">
        <ele>30.0</ele>
        <time>2022-11-01T12:53:31Z</time>
      </trkpt>
      <trkpt lat="36.7120620" lon="-2.6670220">
        <ele>30.0</ele>
        <time>2022-11-01T12:53:32Z</time>
      </trkpt>
      <trkpt lat="36.7120920" lon="-2.6669480">
        <ele>30.0</ele>
        <time>2022-11-01T12:53:33Z</time>
      </trkpt>
      <trkpt lat="36.7121220" lon="-2.6668760">
        <ele>30.0</ele>
        <time>2022-11-01T12:53:34Z</time>
      </trkpt>
      <trkpt lat="36.7121520" lon="-2.6668020">
        <ele>30.0</ele>
        <time>2022-11-01T12:53:35Z</time>
      </trkpt>
      <trkpt lat="36.7121820" lon="-2.6667270">
        <ele>30.0</ele>
        <time>2022-11-01T12:53:36Z</time>
      </trkpt>
      <trkpt lat="36.7122140" lon="-2.6666530">
        <ele>30.0</ele>
        <time>2022-11-01T12:53:37Z</time>
      </trkpt>
      <trkpt lat="36.7122450" lon="-2.6665770">
        <ele>30.0</ele>
        <time>2022-11-01T12:53:38Z</time>
      </trkpt>
      <trkpt lat="36.7122760" lon="-2.6665010">
        <ele>30.2</ele>
        <time>2022-11-01T12:53:39Z</time>
      </trkpt>
      <trkpt lat="36.7123060" lon="-2.6664240">
        <ele>30.2</ele>
        <time>2022-11-01T12:53:40Z</time>
      </trkpt>
      <trkpt lat="36.7123370" lon="-2.6663480">
        <ele>30.2</ele>
        <time>2022-11-01T12:53:41Z</time>
      </trkpt>
      <trkpt lat="36.7123690" lon="-2.6662730">
        <ele>30.2</ele>
        <time>2022-11-01T12:53:42Z</time>
      </trkpt>
      <trkpt lat="36.7124010" lon="-2.6661980">
        <ele>30.2</ele>
        <time>2022-11-01T12:53:43Z</time>
      </trkpt>
      <trkpt lat="36.7124320" lon="-2.6661230">
        <ele>30.0</ele>
        <time>2022-11-01T12:53:44Z</time>
      </trkpt>
      <trkpt lat="36.7124620" lon="-2.6660490">
        <ele>30.0</ele>
        <time>2022-11-01T12:53:45Z</time>
      </trkpt>
      <trkpt lat="36.7124920" lon="-2.6659760">
        <ele>30.0</ele>
        <time>2022-11-01T12:53:46Z</time>
      </trkpt>
      <trkpt lat="36.7125210" lon="-2.6659040">
        <ele>30.0</ele>
        <time>2022-11-01T12:53:47Z</time>
      </trkpt>
      <trkpt lat="36.7125500" lon="-2.6658330">
        <ele>30.0</ele>
        <time>2022-11-01T12:53:48Z</time>
      </trkpt>
      <trkpt lat="36.7125790" lon="-2.6657680">
        <ele>30.2</ele>
        <time>2022-11-01T12:53:49Z</time>
      </trkpt>
      <trkpt lat="36.7126050" lon="-2.6657090">
        <ele>30.2</ele>
        <time>2022-11-01T12:53:50Z</time>
      </trkpt>
      <trkpt lat="36.7126260" lon="-2.6656530">
        <ele>30.2</ele>
        <time>2022-11-01T12:53:51Z</time>
      </trkpt>
      <trkpt lat="36.7126470" lon="-2.6655980">
        <ele>30.2</ele>
        <time>2022-11-01T12:53:52Z</time>
      </trkpt>
      <trkpt lat="36.7126660" lon="-2.6655460">
        <ele>30.2</ele>
        <time>2022-11-01T12:53:53Z</time>
      </trkpt>
      <trkpt lat="36.7126830" lon="-2.6654970">
        <ele>30.2</ele>
        <time>2022-11-01T12:53:54Z</time>
      </trkpt>
      <trkpt lat="36.7126970" lon="-2.6654510">
        <ele>30.2</ele>
        <time>2022-11-01T12:53:55Z</time>
      </trkpt>
      <trkpt lat="36.7127090" lon="-2.6654150">
        <ele>30.2</ele>
        <time>2022-11-01T12:53:56Z</time>
      </trkpt>
      <trkpt lat="36.7127150" lon="-2.6653910">
        <ele>30.2</ele>
        <time>2022-11-01T12:53:57Z</time>
      </trkpt>
      <trkpt lat="36.7127160" lon="-2.6653840">
        <ele>30.4</ele>
        <time>2022-11-01T12:53:58Z</time>
      </trkpt>
      <trkpt lat="36.7127160" lon="-2.6653840">
        <ele>30.2</ele>
        <time>2022-11-01T12:53:59Z</time>
      </trkpt>
      <trkpt lat="36.7127170" lon="-2.6653840">
        <ele>30.4</ele>
        <time>2022-11-01T12:54:00Z</time>
      </trkpt>
      <trkpt lat="36.7127170" lon="-2.6653840">
        <ele>30.4</ele>
        <time>2022-11-01T12:54:01Z</time>
      </trkpt>
      <trkpt lat="36.7127700" lon="-2.6652510">
        <ele>30.6</ele>
        <time>2022-11-01T12:55:02Z</time>
      </trkpt>
      <trkpt lat="36.7127700" lon="-2.6652510">
        <ele>30.6</ele>
        <time>2022-11-01T12:55:03Z</time>
      </trkpt>
      <trkpt lat="36.7127880" lon="-2.6652040">
        <ele>30.6</ele>
        <time>2022-11-01T12:55:04Z</time>
      </trkpt>
      <trkpt lat="36.7128080" lon="-2.6651580">
        <ele>30.6</ele>
        <time>2022-11-01T12:55:05Z</time>
      </trkpt>
      <trkpt lat="36.7128300" lon="-2.6651090">
        <ele>30.6</ele>
        <time>2022-11-01T12:55:06Z</time>
      </trkpt>
      <trkpt lat="36.7128550" lon="-2.6650580">
        <ele>30.6</ele>
        <time>2022-11-01T12:55:07Z</time>
      </trkpt>
      <trkpt lat="36.7128790" lon="-2.6650040">
        <ele>30.6</ele>
        <time>2022-11-01T12:55:08Z</time>
      </trkpt>
      <trkpt lat="36.7129020" lon="-2.6649450">
        <ele>30.6</ele>
        <time>2022-11-01T12:55:09Z</time>
      </trkpt>
      <trkpt lat="36.7129270" lon="-2.6648840">
        <ele>30.6</ele>
        <time>2022-11-01T12:55:10Z</time>
      </trkpt>
      <trkpt lat="36.7129520" lon="-2.6648210">
        <ele>30.6</ele>
        <time>2022-11-01T12:55:11Z</time>
      </trkpt>
      <trkpt lat="36.7129790" lon="-2.6647560">
        <ele>30.4</ele>
        <time>2022-11-01T12:55:12Z</time>
      </trkpt>
      <trkpt lat="36.7130060" lon="-2.6646880">
        <ele>30.4</ele>
        <time>2022-11-01T12:55:13Z</time>
      </trkpt>
      <trkpt lat="36.7130350" lon="-2.6646200">
        <ele>30.4</ele>
        <time>2022-11-01T12:55:14Z</time>
      </trkpt>
      <trkpt lat="36.7130650" lon="-2.6645490">
        <ele>30.4</ele>
        <time>2022-11-01T12:55:15Z</time>
      </trkpt>
      <trkpt lat="36.7130950" lon="-2.6644770">
        <ele>30.4</ele>
        <time>2022-11-01T12:55:16Z</time>
      </trkpt>
      <trkpt lat="36.7131250" lon="-2.6644030">
        <ele>30.2</ele>
        <time>2022-11-01T12:55:17Z</time>
      </trkpt>
      <trkpt lat="36.7131560" lon="-2.6643270">
        <ele>30.2</ele>
        <time>2022-11-01T12:55:18Z</time>
      </trkpt>
      <trkpt lat="36.7131880" lon="-2.6642520">
        <ele>30.0</ele>
        <time>2022-11-01T12:55:19Z</time>
      </trkpt>
      <trkpt lat="36.7132200" lon="-2.6641770">
        <ele>30.0</ele>
        <time>2022-11-01T12:55:20Z</time>
      </trkpt>
      <trkpt lat="36.7132530" lon="-2.6641040">
        <ele>30.0</ele>
        <time>2022-11-01T12:55:21Z</time>
      </trkpt>
      <trkpt lat="36.7132840" lon="-2.6640310">
        <ele>29.8</ele>
        <time>2022-11-01T12:55:22Z</time>
      </trkpt>
      <trkpt lat="36.7133140" lon="-2.6639550">
        <ele>29.8</ele>
        <time>2022-11-01T12:55:23Z</time>
      </trkpt>
      <trkpt lat="36.7133470" lon="-2.6638790">
        <ele>29.8</ele>
        <time>2022-11-01T12:55:24Z</time>
      </trkpt>
      <trkpt lat="36.7133780" lon="-2.6638000">
        <ele>29.8</ele>
        <time>2022-11-01T12:55:25Z</time>
      </trkpt>
      <trkpt lat="36.7134100" lon="-2.6637200">
        <ele>29.8</ele>
        <time>2022-11-01T12:55:26Z</time>
      </trkpt>
      <trkpt lat="36.7134420" lon="-2.6636390">
        <ele>29.6</ele>
        <time>2022-11-01T12:55:27Z</time>
      </trkpt>
      <trkpt lat="36.7134760" lon="-2.6635570">
        <ele>29.6</ele>
        <time>2022-11-01T12:55:28Z</time>
      </trkpt>
      <trkpt lat="36.7135100" lon="-2.6634740">
        <ele>29.6</ele>
        <time>2022-11-01T12:55:29Z</time>
      </trkpt>
      <trkpt lat="36.7135440" lon="-2.6633910">
        <ele>29.6</ele>
        <time>2022-11-01T12:55:30Z</time>
      </trkpt>
      <trkpt lat="36.7135780" lon="-2.6633080">
        <ele>29.6</ele>
        <time>2022-11-01T12:55:31Z</time>
      </trkpt>
      <trkpt lat="36.7136120" lon="-2.6632230">
        <ele>29.6</ele>
        <time>2022-11-01T12:55:32Z</time>
      </trkpt>
      <trkpt lat="36.7136460" lon="-2.6631390">
        <ele>29.6</ele>
        <time>2022-11-01T12:55:33Z</time>
      </trkpt>
      <trkpt lat="36.7136820" lon="-2.6630550">
        <ele>29.6</ele>
        <time>2022-11-01T12:55:34Z</time>
      </trkpt>
      <trkpt lat="36.7137180" lon="-2.6629710">
        <ele>29.6</ele>
        <time>2022-11-01T12:55:35Z</time>
      </trkpt>
      <trkpt lat="36.7137560" lon="-2.6628880">
        <ele>29.8</ele>
        <time>2022-11-01T12:55:36Z</time>
      </trkpt>
      <trkpt lat="36.7137950" lon="-2.6628060">
        <ele>29.8</ele>
        <time>2022-11-01T12:55:37Z</time>
      </trkpt>
      <trkpt lat="36.7138350" lon="-2.6627250">
        <ele>29.8</ele>
        <time>2022-11-01T12:55:38Z</time>
      </trkpt>
      <trkpt lat="36.7138770" lon="-2.6626450">
        <ele>29.8</ele>
        <time>2022-11-01T12:55:39Z</time>
      </trkpt>
      <trkpt lat="36.7139220" lon="-2.6625680">
        <ele>29.8</ele>
        <time>2022-11-01T12:55:40Z</time>
      </trkpt>
      <trkpt lat="36.7139700" lon="-2.6624930">
        <ele>29.8</ele>
        <time>2022-11-01T12:55:41Z</time>
      </trkpt>
      <trkpt lat="36.7140190" lon="-2.6624210">
        <ele>29.8</ele>
        <time>2022-11-01T12:55:42Z</time>
      </trkpt>
      <trkpt lat="36.7140690" lon="-2.6623510">
        <ele>29.8</ele>
        <time>2022-11-01T12:55:43Z</time>
      </trkpt>
      <trkpt lat="36.7141200" lon="-2.6622830">
        <ele>29.8</ele>
        <time>2022-11-01T12:55:44Z</time>
      </trkpt>
      <trkpt lat="36.7141710" lon="-2.6622160">
        <ele>29.8</ele>
        <time>2022-11-01T12:55:45Z</time>
      </trkpt>
      <trkpt lat="36.7142210" lon="-2.6621510">
        <ele>29.8</ele>
        <time>2022-11-01T12:55:46Z</time>
      </trkpt>
      <trkpt lat="36.7142730" lon="-2.6620890">
        <ele>29.8</ele>
        <time>2022-11-01T12:55:47Z</time>
      </trkpt>
      <trkpt lat="36.7143240" lon="-2.6620270">
        <ele>29.6</ele>
        <time>2022-11-01T12:55:48Z</time>
      </trkpt>
      <trkpt lat="36.7143760" lon="-2.6619650">
        <ele>29.6</ele>
        <time>2022-11-01T12:55:49Z</time>
      </trkpt>
      <trkpt lat="36.7144280" lon="-2.6619040">
        <ele>29.6</ele>
        <time>2022-11-01T12:55:50Z</time>
      </trkpt>
      <trkpt lat="36.7144810" lon="-2.6618430">
        <ele>29.6</ele>
        <time>2022-11-01T12:55:51Z</time>
      </trkpt>
      <trkpt lat="36.7145330" lon="-2.6617830">
        <ele>29.6</ele>
        <time>2022-11-01T12:55:52Z</time>
      </trkpt>
      <trkpt lat="36.7145880" lon="-2.6617220">
        <ele>29.6</ele>
        <time>2022-11-01T12:55:53Z</time>
      </trkpt>
      <trkpt lat="36.7146420" lon="-2.6616600">
        <ele>29.6</ele>
        <time>2022-11-01T12:55:54Z</time>
      </trkpt>
      <trkpt lat="36.7146930" lon="-2.6615960">
        <ele>29.6</ele>
        <time>2022-11-01T12:55:55Z</time>
      </trkpt>
      <trkpt lat="36.7147450" lon="-2.6615340">
        <ele>29.6</ele>
        <time>2022-11-01T12:55:56Z</time>
      </trkpt>
      <trkpt lat="36.7147960" lon="-2.6614720">
        <ele>29.6</ele>
        <time>2022-11-01T12:55:57Z</time>
      </trkpt>
      <trkpt lat="36.7148480" lon="-2.6614100">
        <ele>29.6</ele>
        <time>2022-11-01T12:55:58Z</time>
      </trkpt>
      <trkpt lat="36.7149000" lon="-2.6613480">
        <ele>29.6</ele>
        <time>2022-11-01T12:55:59Z</time>
      </trkpt>
      <trkpt lat="36.7149500" lon="-2.6612850">
        <ele>29.6</ele>
        <time>2022-11-01T12:56:00Z</time>
      </trkpt>
      <trkpt lat="36.7150020" lon="-2.6612260">
        <ele>29.6</ele>
        <time>2022-11-01T12:56:01Z</time>
      </trkpt>
      <trkpt lat="36.7150540" lon="-2.6611690">
        <ele>29.4</ele>
        <time>2022-11-01T12:56:02Z</time>
      </trkpt>
      <trkpt lat="36.7151030" lon="-2.6611100">
        <ele>29.4</ele>
        <time>2022-11-01T12:56:03Z</time>
      </trkpt>
      <trkpt lat="36.7151500" lon="-2.6610500">
        <ele>29.6</ele>
        <time>2022-11-01T12:56:04Z</time>
      </trkpt>
      <trkpt lat="36.7151980" lon="-2.6609920">
        <ele>29.6</ele>
        <time>2022-11-01T12:56:05Z</time>
      </trkpt>
      <trkpt lat="36.7152450" lon="-2.6609360">
        <ele>29.6</ele>
        <time>2022-11-01T12:56:06Z</time>
      </trkpt>
      <trkpt lat="36.7152910" lon="-2.6608800">
        <ele>29.6</ele>
        <time>2022-11-01T12:56:07Z</time>
      </trkpt>
      <trkpt lat="36.7153360" lon="-2.6608240">
        <ele>29.6</ele>
        <time>2022-11-01T12:56:08Z</time>
      </trkpt>
      <trkpt lat="36.7153810" lon="-2.6607690">
        <ele>29.6</ele>
        <time>2022-11-01T12:56:09Z</time>
      </trkpt>
      <trkpt lat="36.7154270" lon="-2.6607170">
        <ele>29.6</ele>
        <time>2022-11-01T12:56:10Z</time>
      </trkpt>
      <trkpt lat="36.7154730" lon="-2.6606640">
        <ele>29.6</ele>
        <time>2022-11-01T12:56:11Z</time>
      </trkpt>
      <trkpt lat="36.7155170" lon="-2.6606120">
        <ele>29.6</ele>
        <time>2022-11-01T12:56:12Z</time>
      </trkpt>
      <trkpt lat="36.7155610" lon="-2.6605590">
        <ele>29.6</ele>
        <time>2022-11-01T12:56:13Z</time>
      </trkpt>
      <trkpt lat="36.7156040" lon="-2.6605070">
        <ele>29.8</ele>
        <time>2022-11-01T12:56:14Z</time>
      </trkpt>
      <trkpt lat="36.7156470" lon="-2.6604540">
        <ele>29.8</ele>
        <time>2022-11-01T12:56:15Z</time>
      </trkpt>
      <trkpt lat="36.7156910" lon="-2.6604020">
        <ele>29.8</ele>
        <time>2022-11-01T12:56:16Z</time>
      </trkpt>
      <trkpt lat="36.7157330" lon="-2.6603500">
        <ele>29.8</ele>
        <time>2022-11-01T12:56:17Z</time>
      </trkpt>
      <trkpt lat="36.7157760" lon="-2.6602990">
        <ele>29.8</ele>
        <time>2022-11-01T12:56:18Z</time>
      </trkpt>
      <trkpt lat="36.7158180" lon="-2.6602470">
        <ele>29.8</ele>
        <time>2022-11-01T12:56:19Z</time>
      </trkpt>
      <trkpt lat="36.7158590" lon="-2.6601940">
        <ele>29.6</ele>
        <time>2022-11-01T12:56:20Z</time>
      </trkpt>
      <trkpt lat="36.7159020" lon="-2.6601430">
        <ele>29.6</ele>
        <time>2022-11-01T12:56:21Z</time>
      </trkpt>
      <trkpt lat="36.7159450" lon="-2.6600930">
        <ele>29.8</ele>
        <time>2022-11-01T12:56:22Z</time>
      </trkpt>
      <trkpt lat="36.7159870" lon="-2.6600430">
        <ele>29.8</ele>
        <time>2022-11-01T12:56:23Z</time>
      </trkpt>
      <trkpt lat="36.7160280" lon="-2.6599930">
        <ele>29.8</ele>
        <time>2022-11-01T12:56:24Z</time>
      </trkpt>
      <trkpt lat="36.7160700" lon="-2.6599430">
        <ele>29.8</ele>
        <time>2022-11-01T12:56:25Z</time>
      </trkpt>
      <trkpt lat="36.7161120" lon="-2.6598940">
        <ele>29.8</ele>
        <time>2022-11-01T12:56:26Z</time>
      </trkpt>
      <trkpt lat="36.7161550" lon="-2.6598440">
        <ele>29.8</ele>
        <time>2022-11-01T12:56:27Z</time>
      </trkpt>
      <trkpt lat="36.7161970" lon="-2.6597920">
        <ele>29.8</ele>
        <time>2022-11-01T12:56:28Z</time>
      </trkpt>
      <trkpt lat="36.7162380" lon="-2.6597400">
        <ele>29.8</ele>
        <time>2022-11-01T12:56:29Z</time>
      </trkpt>
      <trkpt lat="36.7162810" lon="-2.6596890">
        <ele>29.8</ele>
        <time>2022-11-01T12:56:30Z</time>
      </trkpt>
      <trkpt lat="36.7163230" lon="-2.6596390">
        <ele>30.0</ele>
        <time>2022-11-01T12:56:31Z</time>
      </trkpt>
      <trkpt lat="36.7163660" lon="-2.6595880">
        <ele>30.0</ele>
        <time>2022-11-01T12:56:32Z</time>
      </trkpt>
      <trkpt lat="36.7164090" lon="-2.6595370">
        <ele>30.0</ele>
        <time>2022-11-01T12:56:33Z</time>
      </trkpt>
      <trkpt lat="36.7164510" lon="-2.6594850">
        <ele>30.0</ele>
        <time>2022-11-01T12:56:34Z</time>
      </trkpt>
      <trkpt lat="36.7164930" lon="-2.6594320">
        <ele>30.0</ele>
        <time>2022-11-01T12:56:35Z</time>
      </trkpt>
      <trkpt lat="36.7165350" lon="-2.6593790">
        <ele>30.0</ele>
        <time>2022-11-01T12:56:36Z</time>
      </trkpt>
      <trkpt lat="36.7165780" lon="-2.6593280">
        <ele>30.0</ele>
        <time>2022-11-01T12:56:37Z</time>
      </trkpt>
      <trkpt lat="36.7166200" lon="-2.6592770">
        <ele>30.0</ele>
        <time>2022-11-01T12:56:38Z</time>
      </trkpt>
      <trkpt lat="36.7166630" lon="-2.6592250">
        <ele>30.0</ele>
        <time>2022-11-01T12:56:39Z</time>
      </trkpt>
      <trkpt lat="36.7167050" lon="-2.6591730">
        <ele>30.0</ele>
        <time>2022-11-01T12:56:40Z</time>
      </trkpt>
      <trkpt lat="36.7167480" lon="-2.6591220">
        <ele>30.0</ele>
        <time>2022-11-01T12:56:41Z</time>
      </trkpt>
      <trkpt lat="36.7167920" lon="-2.6590720">
        <ele>30.0</ele>
        <time>2022-11-01T12:56:42Z</time>
      </trkpt>
      <trkpt lat="36.7168350" lon="-2.6590200">
        <ele>30.0</ele>
        <time>2022-11-01T12:56:43Z</time>
      </trkpt>
      <trkpt lat="36.7168780" lon="-2.6589670">
        <ele>30.0</ele>
        <time>2022-11-01T12:56:44Z</time>
      </trkpt>
      <trkpt lat="36.7169230" lon="-2.6589160">
        <ele>30.0</ele>
        <time>2022-11-01T12:56:45Z</time>
      </trkpt>
      <trkpt lat="36.7169650" lon="-2.6588650">
        <ele>30.0</ele>
        <time>2022-11-01T12:56:46Z</time>
      </trkpt>
      <trkpt lat="36.7170080" lon="-2.6588130">
        <ele>30.0</ele>
        <time>2022-11-01T12:56:47Z</time>
      </trkpt>
      <trkpt lat="36.7170480" lon="-2.6587600">
        <ele>30.0</ele>
        <time>2022-11-01T12:56:48Z</time>
      </trkpt>
      <trkpt lat="36.7170910" lon="-2.6587070">
        <ele>30.0</ele>
        <time>2022-11-01T12:56:49Z</time>
      </trkpt>
      <trkpt lat="36.7171330" lon="-2.6586560">
        <ele>30.0</ele>
        <time>2022-11-01T12:56:50Z</time>
      </trkpt>
      <trkpt lat="36.7171760" lon="-2.6586040">
        <ele>30.0</ele>
        <time>2022-11-01T12:56:51Z</time>
      </trkpt>
      <trkpt lat="36.7172190" lon="-2.6585510">
        <ele>30.2</ele>
        <time>2022-11-01T12:56:52Z</time>
      </trkpt>
      <trkpt lat="36.7172630" lon="-2.6585000">
        <ele>30.0</ele>
        <time>2022-11-01T12:56:53Z</time>
      </trkpt>
      <trkpt lat="36.7173050" lon="-2.6584490">
        <ele>30.2</ele>
        <time>2022-11-01T12:56:54Z</time>
      </trkpt>
      <trkpt lat="36.7173470" lon="-2.6583980">
        <ele>30.0</ele>
        <time>2022-11-01T12:56:55Z</time>
      </trkpt>
      <trkpt lat="36.7173890" lon="-2.6583480">
        <ele>30.2</ele>
        <time>2022-11-01T12:56:56Z</time>
      </trkpt>
      <trkpt lat="36.7174320" lon="-2.6582980">
        <ele>30.2</ele>
        <time>2022-11-01T12:56:57Z</time>
      </trkpt>
      <trkpt lat="36.7174750" lon="-2.6582480">
        <ele>30.2</ele>
        <time>2022-11-01T12:56:58Z</time>
      </trkpt>
      <trkpt lat="36.7175170" lon="-2.6581970">
        <ele>30.2</ele>
        <time>2022-11-01T12:56:59Z</time>
      </trkpt>
      <trkpt lat="36.7175600" lon="-2.6581450">
        <ele>30.2</ele>
        <time>2022-11-01T12:57:00Z</time>
      </trkpt>
      <trkpt lat="36.7176010" lon="-2.6580930">
        <ele>30.2</ele>
        <time>2022-11-01T12:57:01Z</time>
      </trkpt>
      <trkpt lat="36.7176420" lon="-2.6580410">
        <ele>30.2</ele>
        <time>2022-11-01T12:57:02Z</time>
      </trkpt>
      <trkpt lat="36.7176850" lon="-2.6579890">
        <ele>30.2</ele>
        <time>2022-11-01T12:57:03Z</time>
      </trkpt>
      <trkpt lat="36.7177280" lon="-2.6579390">
        <ele>30.2</ele>
        <time>2022-11-01T12:57:04Z</time>
      </trkpt>
      <trkpt lat="36.7177710" lon="-2.6578880">
        <ele>30.2</ele>
        <time>2022-11-01T12:57:05Z</time>
      </trkpt>
      <trkpt lat="36.7178140" lon="-2.6578370">
        <ele>30.2</ele>
        <time>2022-11-01T12:57:06Z</time>
      </trkpt>
      <trkpt lat="36.7178570" lon="-2.6577850">
        <ele>30.2</ele>
        <time>2022-11-01T12:57:07Z</time>
      </trkpt>
      <trkpt lat="36.7178990" lon="-2.6577330">
        <ele>30.2</ele>
        <time>2022-11-01T12:57:08Z</time>
      </trkpt>
      <trkpt lat="36.7179430" lon="-2.6576820">
        <ele>30.2</ele>
        <time>2022-11-01T12:57:09Z</time>
      </trkpt>
      <trkpt lat="36.7179870" lon="-2.6576310">
        <ele>30.2</ele>
        <time>2022-11-01T12:57:10Z</time>
      </trkpt>
      <trkpt lat="36.7180300" lon="-2.6575810">
        <ele>30.2</ele>
        <time>2022-11-01T12:57:11Z</time>
      </trkpt>
      <trkpt lat="36.7180730" lon="-2.6575310">
        <ele>30.2</ele>
        <time>2022-11-01T12:57:12Z</time>
      </trkpt>
      <trkpt lat="36.7181160" lon="-2.6574810">
        <ele>30.2</ele>
        <time>2022-11-01T12:57:13Z</time>
      </trkpt>
      <trkpt lat="36.7181580" lon="-2.6574310">
        <ele>30.4</ele>
        <time>2022-11-01T12:57:14Z</time>
      </trkpt>
      <trkpt lat="36.7182010" lon="-2.6573820">
        <ele>30.4</ele>
        <time>2022-11-01T12:57:15Z</time>
      </trkpt>
      <trkpt lat="36.7182430" lon="-2.6573350">
        <ele>30.6</ele>
        <time>2022-11-01T12:57:16Z</time>
      </trkpt>
      <trkpt lat="36.7182880" lon="-2.6572900">
        <ele>30.6</ele>
        <time>2022-11-01T12:57:17Z</time>
      </trkpt>
      <trkpt lat="36.7183320" lon="-2.6572470">
        <ele>30.6</ele>
        <time>2022-11-01T12:57:18Z</time>
      </trkpt>
      <trkpt lat="36.7183760" lon="-2.6572050">
        <ele>30.8</ele>
        <time>2022-11-01T12:57:19Z</time>
      </trkpt>
      <trkpt lat="36.7184190" lon="-2.6571640">
        <ele>31.0</ele>
        <time>2022-11-01T12:57:20Z</time>
      </trkpt>
      <trkpt lat="36.7184640" lon="-2.6571260">
        <ele>31.2</ele>
        <time>2022-11-01T12:57:21Z</time>
      </trkpt>
      <trkpt lat="36.7185070" lon="-2.6570900">
        <ele>31.4</ele>
        <time>2022-11-01T12:57:22Z</time>
      </trkpt>
      <trkpt lat="36.7185510" lon="-2.6570550">
        <ele>31.6</ele>
        <time>2022-11-01T12:57:23Z</time>
      </trkpt>
      <trkpt lat="36.7185940" lon="-2.6570230">
        <ele>31.6</ele>
        <time>2022-11-01T12:57:24Z</time>
      </trkpt>
      <trkpt lat="36.7186370" lon="-2.6569940">
        <ele>31.8</ele>
        <time>2022-11-01T12:57:25Z</time>
      </trkpt>
      <trkpt lat="36.7186800" lon="-2.6569670">
        <ele>31.8</ele>
        <time>2022-11-01T12:57:26Z</time>
      </trkpt>
      <trkpt lat="36.7187240" lon="-2.6569410">
        <ele>32.0</ele>
        <time>2022-11-01T12:57:27Z</time>
      </trkpt>
      <trkpt lat="36.7187680" lon="-2.6569160">
        <ele>32.2</ele>
        <time>2022-11-01T12:57:28Z</time>
      </trkpt>
      <trkpt lat="36.7188120" lon="-2.6568920">
        <ele>32.2</ele>
        <time>2022-11-01T12:57:29Z</time>
      </trkpt>
      <trkpt lat="36.7188560" lon="-2.6568680">
        <ele>32.4</ele>
        <time>2022-11-01T12:57:30Z</time>
      </trkpt>
      <trkpt lat="36.7189000" lon="-2.6568450">
        <ele>32.6</ele>
        <time>2022-11-01T12:57:31Z</time>
      </trkpt>
      <trkpt lat="36.7189440" lon="-2.6568230">
        <ele>32.6</ele>
        <time>2022-11-01T12:57:32Z</time>
      </trkpt>
      <trkpt lat="36.7189870" lon="-2.6568000">
        <ele>32.8</ele>
        <time>2022-11-01T12:57:33Z</time>
      </trkpt>
      <trkpt lat="36.7190290" lon="-2.6567780">
        <ele>33.0</ele>
        <time>2022-11-01T12:57:34Z</time>
      </trkpt>
      <trkpt lat="36.7190690" lon="-2.6567550">
        <ele>33.0</ele>
        <time>2022-11-01T12:57:35Z</time>
      </trkpt>
      <trkpt lat="36.7191090" lon="-2.6567320">
        <ele>33.2</ele>
        <time>2022-11-01T12:57:36Z</time>
      </trkpt>
      <trkpt lat="36.7191500" lon="-2.6567100">
        <ele>33.2</ele>
        <time>2022-11-01T12:57:37Z</time>
      </trkpt>
      <trkpt lat="36.7191920" lon="-2.6566880">
        <ele>33.4</ele>
        <time>2022-11-01T12:57:38Z</time>
      </trkpt>
      <trkpt lat="36.7192330" lon="-2.6566660">
        <ele>33.4</ele>
        <time>2022-11-01T12:57:39Z</time>
      </trkpt>
      <trkpt lat="36.7192750" lon="-2.6566430">
        <ele>33.6</ele>
        <time>2022-11-01T12:57:40Z</time>
      </trkpt>
      <trkpt lat="36.7193160" lon="-2.6566190">
        <ele>33.6</ele>
        <time>2022-11-01T12:57:41Z</time>
      </trkpt>
      <trkpt lat="36.7193580" lon="-2.6565950">
        <ele>33.8</ele>
        <time>2022-11-01T12:57:42Z</time>
      </trkpt>
      <trkpt lat="36.7194020" lon="-2.6565720">
        <ele>33.8</ele>
        <time>2022-11-01T12:57:43Z</time>
      </trkpt>
      <trkpt lat="36.7194450" lon="-2.6565490">
        <ele>34.0</ele>
        <time>2022-11-01T12:57:44Z</time>
      </trkpt>
      <trkpt lat="36.7194880" lon="-2.6565250">
        <ele>34.0</ele>
        <time>2022-11-01T12:57:45Z</time>
      </trkpt>
      <trkpt lat="36.7195320" lon="-2.6565000">
        <ele>34.0</ele>
        <time>2022-11-01T12:57:46Z</time>
      </trkpt>
      <trkpt lat="36.7195780" lon="-2.6564750">
        <ele>34.2</ele>
        <time>2022-11-01T12:57:47Z</time>
      </trkpt>
      <trkpt lat="36.7196220" lon="-2.6564510">
        <ele>34.2</ele>
        <time>2022-11-01T12:57:48Z</time>
      </trkpt>
      <trkpt lat="36.7196680" lon="-2.6564270">
        <ele>34.4</ele>
        <time>2022-11-01T12:57:49Z</time>
      </trkpt>
      <trkpt lat="36.7197140" lon="-2.6564020">
        <ele>34.4</ele>
        <time>2022-11-01T12:57:50Z</time>
      </trkpt>
      <trkpt lat="36.7197610" lon="-2.6563790">
        <ele>34.4</ele>
        <time>2022-11-01T12:57:51Z</time>
      </trkpt>
      <trkpt lat="36.7198050" lon="-2.6563540">
        <ele>34.4</ele>
        <time>2022-11-01T12:57:52Z</time>
      </trkpt>
      <trkpt lat="36.7198500" lon="-2.6563310">
        <ele>34.6</ele>
        <time>2022-11-01T12:57:53Z</time>
      </trkpt>
      <trkpt lat="36.7198950" lon="-2.6563090">
        <ele>34.6</ele>
        <time>2022-11-01T12:57:54Z</time>
      </trkpt>
      <trkpt lat="36.7199400" lon="-2.6562870">
        <ele>34.8</ele>
        <time>2022-11-01T12:57:55Z</time>
      </trkpt>
      <trkpt lat="36.7199840" lon="-2.6562620">
        <ele>35.0</ele>
        <time>2022-11-01T12:57:56Z</time>
      </trkpt>
      <trkpt lat="36.7200260" lon="-2.6562370">
        <ele>35.0</ele>
        <time>2022-11-01T12:57:57Z</time>
      </trkpt>
      <trkpt lat="36.7200690" lon="-2.6562120">
        <ele>35.0</ele>
        <time>2022-11-01T12:57:58Z</time>
      </trkpt>
      <trkpt lat="36.7201130" lon="-2.6561890">
        <ele>35.2</ele>
        <time>2022-11-01T12:57:59Z</time>
      </trkpt>
      <trkpt lat="36.7201550" lon="-2.6561660">
        <ele>35.4</ele>
        <time>2022-11-01T12:58:00Z</time>
      </trkpt>
      <trkpt lat="36.7201980" lon="-2.6561420">
        <ele>35.4</ele>
        <time>2022-11-01T12:58:01Z</time>
      </trkpt>
      <trkpt lat="36.7202430" lon="-2.6561200">
        <ele>35.6</ele>
        <time>2022-11-01T12:58:02Z</time>
      </trkpt>
      <trkpt lat="36.7202860" lon="-2.6560970">
        <ele>35.6</ele>
        <time>2022-11-01T12:58:03Z</time>
      </trkpt>
      <trkpt lat="36.7203260" lon="-2.6560710">
        <ele>35.8</ele>
        <time>2022-11-01T12:58:04Z</time>
      </trkpt>
      <trkpt lat="36.7203640" lon="-2.6560460">
        <ele>36.0</ele>
        <time>2022-11-01T12:58:05Z</time>
      </trkpt>
      <trkpt lat="36.7204050" lon="-2.6560200">
        <ele>36.0</ele>
        <time>2022-11-01T12:58:06Z</time>
      </trkpt>
      <trkpt lat="36.7204460" lon="-2.6559930">
        <ele>36.0</ele>
        <time>2022-11-01T12:58:07Z</time>
      </trkpt>
      <trkpt lat="36.7204860" lon="-2.6559660">
        <ele>36.2</ele>
        <time>2022-11-01T12:58:08Z</time>
      </trkpt>
      <trkpt lat="36.7205250" lon="-2.6559370">
        <ele>36.2</ele>
        <time>2022-11-01T12:58:09Z</time>
      </trkpt>
      <trkpt lat="36.7205630" lon="-2.6559050">
        <ele>36.4</ele>
        <time>2022-11-01T12:58:10Z</time>
      </trkpt>
      <trkpt lat="36.7206010" lon="-2.6558720">
        <ele>36.4</ele>
        <time>2022-11-01T12:58:11Z</time>
      </trkpt>
      <trkpt lat="36.7206380" lon="-2.6558360">
        <ele>36.4</ele>
        <time>2022-11-01T12:58:12Z</time>
      </trkpt>
      <trkpt lat="36.7206760" lon="-2.6557990">
        <ele>36.4</ele>
        <time>2022-11-01T12:58:13Z</time>
      </trkpt>
      <trkpt lat="36.7207130" lon="-2.6557620">
        <ele>36.4</ele>
        <time>2022-11-01T12:58:14Z</time>
      </trkpt>
      <trkpt lat="36.7207500" lon="-2.6557230">
        <ele>36.4</ele>
        <time>2022-11-01T12:58:15Z</time>
      </trkpt>
      <trkpt lat="36.7207870" lon="-2.6556830">
        <ele>36.4</ele>
        <time>2022-11-01T12:58:16Z</time>
      </trkpt>
      <trkpt lat="36.7208220" lon="-2.6556410">
        <ele>36.6</ele>
        <time>2022-11-01T12:58:17Z</time>
      </trkpt>
      <trkpt lat="36.7208560" lon="-2.6555980">
        <ele>36.6</ele>
        <time>2022-11-01T12:58:18Z</time>
      </trkpt>
      <trkpt lat="36.7208880" lon="-2.6555540">
        <ele>36.6</ele>
        <time>2022-11-01T12:58:19Z</time>
      </trkpt>
      <trkpt lat="36.7209220" lon="-2.6555110">
        <ele>36.6</ele>
        <time>2022-11-01T12:58:20Z</time>
      </trkpt>
      <trkpt lat="36.7209520" lon="-2.6554640">
        <ele>36.6</ele>
        <time>2022-11-01T12:58:21Z</time>
      </trkpt>
      <trkpt lat="36.7209830" lon="-2.6554190">
        <ele>36.6</ele>
        <time>2022-11-01T12:58:22Z</time>
      </trkpt>
      <trkpt lat="36.7210170" lon="-2.6553720">
        <ele>36.6</ele>
        <time>2022-11-01T12:58:23Z</time>
      </trkpt>
      <trkpt lat="36.7210530" lon="-2.6553240">
        <ele>36.6</ele>
        <time>2022-11-01T12:58:24Z</time>
      </trkpt>
      <trkpt lat="36.7210910" lon="-2.6552760">
        <ele>36.6</ele>
        <time>2022-11-01T12:58:25Z</time>
      </trkpt>
      <trkpt lat="36.7211340" lon="-2.6552270">
        <ele>36.8</ele>
        <time>2022-11-01T12:58:26Z</time>
      </trkpt>
      <trkpt lat="36.7211790" lon="-2.6551760">
        <ele>36.8</ele>
        <time>2022-11-01T12:58:27Z</time>
      </trkpt>
      <trkpt lat="36.7212210" lon="-2.6551250">
        <ele>36.8</ele>
        <time>2022-11-01T12:58:28Z</time>
      </trkpt>
      <trkpt lat="36.7212620" lon="-2.6550730">
        <ele>36.8</ele>
        <time>2022-11-01T12:58:29Z</time>
      </trkpt>
      <trkpt lat="36.7213100" lon="-2.6550230">
        <ele>36.8</ele>
        <time>2022-11-01T12:58:30Z</time>
      </trkpt>
      <trkpt lat="36.7213540" lon="-2.6549730">
        <ele>37.0</ele>
        <time>2022-11-01T12:58:31Z</time>
      </trkpt>
      <trkpt lat="36.7213990" lon="-2.6549190">
        <ele>37.0</ele>
        <time>2022-11-01T12:58:32Z</time>
      </trkpt>
      <trkpt lat="36.7214430" lon="-2.6548650">
        <ele>37.0</ele>
        <time>2022-11-01T12:58:33Z</time>
      </trkpt>
      <trkpt lat="36.7214850" lon="-2.6548140">
        <ele>37.0</ele>
        <time>2022-11-01T12:58:34Z</time>
      </trkpt>
      <trkpt lat="36.7215260" lon="-2.6547620">
        <ele>37.0</ele>
        <time>2022-11-01T12:58:35Z</time>
      </trkpt>
      <trkpt lat="36.7215680" lon="-2.6547100">
        <ele>37.0</ele>
        <time>2022-11-01T12:58:36Z</time>
      </trkpt>
      <trkpt lat="36.7216080" lon="-2.6546580">
        <ele>37.0</ele>
        <time>2022-11-01T12:58:37Z</time>
      </trkpt>
      <trkpt lat="36.7216500" lon="-2.6546060">
        <ele>37.2</ele>
        <time>2022-11-01T12:58:38Z</time>
      </trkpt>
      <trkpt lat="36.7216940" lon="-2.6545540">
        <ele>37.2</ele>
        <time>2022-11-01T12:58:39Z</time>
      </trkpt>
      <trkpt lat="36.7217380" lon="-2.6545020">
        <ele>37.4</ele>
        <time>2022-11-01T12:58:40Z</time>
      </trkpt>
      <trkpt lat="36.7217820" lon="-2.6544500">
        <ele>37.4</ele>
        <time>2022-11-01T12:58:41Z</time>
      </trkpt>
      <trkpt lat="36.7218250" lon="-2.6543970">
        <ele>37.4</ele>
        <time>2022-11-01T12:58:42Z</time>
      </trkpt>
      <trkpt lat="36.7218690" lon="-2.6543440">
        <ele>37.4</ele>
        <time>2022-11-01T12:58:43Z</time>
      </trkpt>
      <trkpt lat="36.7219170" lon="-2.6542940">
        <ele>37.4</ele>
        <time>2022-11-01T12:58:44Z</time>
      </trkpt>
      <trkpt lat="36.7219660" lon="-2.6542480">
        <ele>37.4</ele>
        <time>2022-11-01T12:58:45Z</time>
      </trkpt>
      <trkpt lat="36.7220190" lon="-2.6542060">
        <ele>37.4</ele>
        <time>2022-11-01T12:58:46Z</time>
      </trkpt>
      <trkpt lat="36.7220730" lon="-2.6541670">
        <ele>37.4</ele>
        <time>2022-11-01T12:58:47Z</time>
      </trkpt>
      <trkpt lat="36.7221280" lon="-2.6541300">
        <ele>37.4</ele>
        <time>2022-11-01T12:58:48Z</time>
      </trkpt>
      <trkpt lat="36.7221870" lon="-2.6540940">
        <ele>37.4</ele>
        <time>2022-11-01T12:58:49Z</time>
      </trkpt>
      <trkpt lat="36.7222450" lon="-2.6540600">
        <ele>37.4</ele>
        <time>2022-11-01T12:58:50Z</time>
      </trkpt>
      <trkpt lat="36.7223030" lon="-2.6540270">
        <ele>37.4</ele>
        <time>2022-11-01T12:58:51Z</time>
      </trkpt>
      <trkpt lat="36.7223590" lon="-2.6539980">
        <ele>37.4</ele>
        <time>2022-11-01T12:58:52Z</time>
      </trkpt>
      <trkpt lat="36.7224140" lon="-2.6539680">
        <ele>37.4</ele>
        <time>2022-11-01T12:58:53Z</time>
      </trkpt>
      <trkpt lat="36.7224670" lon="-2.6539380">
        <ele>37.4</ele>
        <time>2022-11-01T12:58:54Z</time>
      </trkpt>
      <trkpt lat="36.7225200" lon="-2.6539080">
        <ele>37.4</ele>
        <time>2022-11-01T12:58:55Z</time>
      </trkpt>
      <trkpt lat="36.7225720" lon="-2.6538770">
        <ele>37.4</ele>
        <time>2022-11-01T12:58:56Z</time>
      </trkpt>
      <trkpt lat="36.7226280" lon="-2.6538490">
        <ele>37.4</ele>
        <time>2022-11-01T12:58:57Z</time>
      </trkpt>
      <trkpt lat="36.7226810" lon="-2.6538210">
        <ele>37.4</ele>
        <time>2022-11-01T12:58:58Z</time>
      </trkpt>
      <trkpt lat="36.7227340" lon="-2.6537940">
        <ele>37.4</ele>
        <time>2022-11-01T12:58:59Z</time>
      </trkpt>
      <trkpt lat="36.7227870" lon="-2.6537650">
        <ele>37.4</ele>
        <time>2022-11-01T12:59:00Z</time>
      </trkpt>
      <trkpt lat="36.7228400" lon="-2.6537360">
        <ele>37.4</ele>
        <time>2022-11-01T12:59:01Z</time>
      </trkpt>
      <trkpt lat="36.7228950" lon="-2.6537070">
        <ele>37.4</ele>
        <time>2022-11-01T12:59:02Z</time>
      </trkpt>
      <trkpt lat="36.7229480" lon="-2.6536770">
        <ele>37.2</ele>
        <time>2022-11-01T12:59:03Z</time>
      </trkpt>
      <trkpt lat="36.7230030" lon="-2.6536480">
        <ele>37.2</ele>
        <time>2022-11-01T12:59:04Z</time>
      </trkpt>
      <trkpt lat="36.7230570" lon="-2.6536200">
        <ele>37.2</ele>
        <time>2022-11-01T12:59:05Z</time>
      </trkpt>
      <trkpt lat="36.7231090" lon="-2.6535950">
        <ele>37.2</ele>
        <time>2022-11-01T12:59:06Z</time>
      </trkpt>
      <trkpt lat="36.7231640" lon="-2.6535710">
        <ele>37.4</ele>
        <time>2022-11-01T12:59:07Z</time>
      </trkpt>
      <trkpt lat="36.7232230" lon="-2.6535510">
        <ele>37.2</ele>
        <time>2022-11-01T12:59:08Z</time>
      </trkpt>
      <trkpt lat="36.7232850" lon="-2.6535330">
        <ele>37.2</ele>
        <time>2022-11-01T12:59:09Z</time>
      </trkpt>
      <trkpt lat="36.7233490" lon="-2.6535180">
        <ele>37.2</ele>
        <time>2022-11-01T12:59:10Z</time>
      </trkpt>
      <trkpt lat="36.7234130" lon="-2.6535070">
        <ele>37.2</ele>
        <time>2022-11-01T12:59:11Z</time>
      </trkpt>
      <trkpt lat="36.7234770" lon="-2.6534990">
        <ele>37.0</ele>
        <time>2022-11-01T12:59:12Z</time>
      </trkpt>
      <trkpt lat="36.7235420" lon="-2.6534930">
        <ele>37.0</ele>
        <time>2022-11-01T12:59:13Z</time>
      </trkpt>
      <trkpt lat="36.7236070" lon="-2.6534870">
        <ele>37.0</ele>
        <time>2022-11-01T12:59:14Z</time>
      </trkpt>
      <trkpt lat="36.7236720" lon="-2.6534830">
        <ele>37.0</ele>
        <time>2022-11-01T12:59:15Z</time>
      </trkpt>
      <trkpt lat="36.7237370" lon="-2.6534810">
        <ele>37.0</ele>
        <time>2022-11-01T12:59:16Z</time>
      </trkpt>
      <trkpt lat="36.7238030" lon="-2.6534790">
        <ele>36.8</ele>
        <time>2022-11-01T12:59:17Z</time>
      </trkpt>
      <trkpt lat="36.7238690" lon="-2.6534770">
        <ele>36.8</ele>
        <time>2022-11-01T12:59:18Z</time>
      </trkpt>
      <trkpt lat="36.7239370" lon="-2.6534750">
        <ele>36.8</ele>
        <time>2022-11-01T12:59:19Z</time>
      </trkpt>
      <trkpt lat="36.7240060" lon="-2.6534750">
        <ele>36.8</ele>
        <time>2022-11-01T12:59:20Z</time>
      </trkpt>
      <trkpt lat="36.7240760" lon="-2.6534740">
        <ele>36.8</ele>
        <time>2022-11-01T12:59:21Z</time>
      </trkpt>
      <trkpt lat="36.7241460" lon="-2.6534740">
        <ele>36.8</ele>
        <time>2022-11-01T12:59:22Z</time>
      </trkpt>
      <trkpt lat="36.7242160" lon="-2.6534720">
        <ele>36.6</ele>
        <time>2022-11-01T12:59:23Z</time>
      </trkpt>
      <trkpt lat="36.7242850" lon="-2.6534690">
        <ele>36.6</ele>
        <time>2022-11-01T12:59:24Z</time>
      </trkpt>
      <trkpt lat="36.7243550" lon="-2.6534660">
        <ele>36.4</ele>
        <time>2022-11-01T12:59:25Z</time>
      </trkpt>
      <trkpt lat="36.7244240" lon="-2.6534650">
        <ele>36.4</ele>
        <time>2022-11-01T12:59:26Z</time>
      </trkpt>
      <trkpt lat="36.7244930" lon="-2.6534650">
        <ele>36.4</ele>
        <time>2022-11-01T12:59:27Z</time>
      </trkpt>
      <trkpt lat="36.7245620" lon="-2.6534630">
        <ele>36.2</ele>
        <time>2022-11-01T12:59:28Z</time>
      </trkpt>
      <trkpt lat="36.7246310" lon="-2.6534620">
        <ele>36.2</ele>
        <time>2022-11-01T12:59:29Z</time>
      </trkpt>
      <trkpt lat="36.7247000" lon="-2.6534620">
        <ele>36.2</ele>
        <time>2022-11-01T12:59:30Z</time>
      </trkpt>
      <trkpt lat="36.7247680" lon="-2.6534580">
        <ele>36.0</ele>
        <time>2022-11-01T12:59:31Z</time>
      </trkpt>
      <trkpt lat="36.7248350" lon="-2.6534520">
        <ele>36.0</ele>
        <time>2022-11-01T12:59:32Z</time>
      </trkpt>
      <trkpt lat="36.7249020" lon="-2.6534450">
        <ele>36.0</ele>
        <time>2022-11-01T12:59:33Z</time>
      </trkpt>
      <trkpt lat="36.7249710" lon="-2.6534340">
        <ele>35.8</ele>
        <time>2022-11-01T12:59:34Z</time>
      </trkpt>
      <trkpt lat="36.7250380" lon="-2.6534180">
        <ele>35.8</ele>
        <time>2022-11-01T12:59:35Z</time>
      </trkpt>
      <trkpt lat="36.7251050" lon="-2.6533990">
        <ele>35.8</ele>
        <time>2022-11-01T12:59:36Z</time>
      </trkpt>
      <trkpt lat="36.7251730" lon="-2.6533770">
        <ele>35.6</ele>
        <time>2022-11-01T12:59:37Z</time>
      </trkpt>
      <trkpt lat="36.7252420" lon="-2.6533510">
        <ele>35.4</ele>
        <time>2022-11-01T12:59:38Z</time>
      </trkpt>
      <trkpt lat="36.7253120" lon="-2.6533220">
        <ele>35.2</ele>
        <time>2022-11-01T12:59:39Z</time>
      </trkpt>
      <trkpt lat="36.7253850" lon="-2.6532910">
        <ele>34.8</ele>
        <time>2022-11-01T12:59:40Z</time>
      </trkpt>
      <trkpt lat="36.7254610" lon="-2.6532580">
        <ele>34.4</ele>
        <time>2022-11-01T12:59:41Z</time>
      </trkpt>
      <trkpt lat="36.7255380" lon="-2.6532250">
        <ele>34.0</ele>
        <time>2022-11-01T12:59:42Z</time>
      </trkpt>
      <trkpt lat="36.7256200" lon="-2.6531930">
        <ele>33.6</ele>
        <time>2022-11-01T12:59:43Z</time>
      </trkpt>
      <trkpt lat="36.7257040" lon="-2.6531590">
        <ele>33.2</ele>
        <time>2022-11-01T12:59:44Z</time>
      </trkpt>
      <trkpt lat="36.7257910" lon="-2.6531220">
        <ele>32.8</ele>
        <time>2022-11-01T12:59:45Z</time>
      </trkpt>
      <trkpt lat="36.7258800" lon="-2.6530850">
        <ele>32.4</ele>
        <time>2022-11-01T12:59:46Z</time>
      </trkpt>
      <trkpt lat="36.7259690" lon="-2.6530480">
        <ele>32.0</ele>
        <time>2022-11-01T12:59:47Z</time>
      </trkpt>
      <trkpt lat="36.7260580" lon="-2.6530100">
        <ele>31.8</ele>
        <time>2022-11-01T12:59:48Z</time>
      </trkpt>
      <trkpt lat="36.7261460" lon="-2.6529750">
        <ele>31.6</ele>
        <time>2022-11-01T12:59:49Z</time>
      </trkpt>
      <trkpt lat="36.7262330" lon="-2.6529380">
        <ele>31.6</ele>
        <time>2022-11-01T12:59:50Z</time>
      </trkpt>
      <trkpt lat="36.7263200" lon="-2.6529020">
        <ele>31.2</ele>
        <time>2022-11-01T12:59:51Z</time>
      </trkpt>
      <trkpt lat="36.7264060" lon="-2.6528660">
        <ele>31.2</ele>
        <time>2022-11-01T12:59:52Z</time>
      </trkpt>
      <trkpt lat="36.7264930" lon="-2.6528310">
        <ele>31.0</ele>
        <time>2022-11-01T12:59:53Z</time>
      </trkpt>
      <trkpt lat="36.7265780" lon="-2.6527940">
        <ele>31.0</ele>
        <time>2022-11-01T12:59:54Z</time>
      </trkpt>
      <trkpt lat="36.7266620" lon="-2.6527590">
        <ele>31.0</ele>
        <time>2022-11-01T12:59:55Z</time>
      </trkpt>
      <trkpt lat="36.7267450" lon="-2.6527260">
        <ele>30.8</ele>
        <time>2022-11-01T12:59:56Z</time>
      </trkpt>
      <trkpt lat="36.7268290" lon="-2.6526910">
        <ele>30.6</ele>
        <time>2022-11-01T12:59:57Z</time>
      </trkpt>
      <trkpt lat="36.7269120" lon="-2.6526550">
        <ele>30.6</ele>
        <time>2022-11-01T12:59:58Z</time>
      </trkpt>
      <trkpt lat="36.7269940" lon="-2.6526200">
        <ele>30.6</ele>
        <time>2022-11-01T12:59:59Z</time>
      </trkpt>
      <trkpt lat="36.7270770" lon="-2.6525860">
        <ele>30.6</ele>
        <time>2022-11-01T13:00:00Z</time>
      </trkpt>
      <trkpt lat="36.7271600" lon="-2.6525520">
        <ele>30.4</ele>
        <time>2022-11-01T13:00:01Z</time>
      </trkpt>
      <trkpt lat="36.7272440" lon="-2.6525190">
        <ele>30.4</ele>
        <time>2022-11-01T13:00:02Z</time>
      </trkpt>
      <trkpt lat="36.7273250" lon="-2.6524850">
        <ele>30.2</ele>
        <time>2022-11-01T13:00:03Z</time>
      </trkpt>
      <trkpt lat="36.7274070" lon="-2.6524510">
        <ele>30.2</ele>
        <time>2022-11-01T13:00:04Z</time>
      </trkpt>
      <trkpt lat="36.7274890" lon="-2.6524180">
        <ele>30.2</ele>
        <time>2022-11-01T13:00:05Z</time>
      </trkpt>
      <trkpt lat="36.7275700" lon="-2.6523840">
        <ele>30.2</ele>
        <time>2022-11-01T13:00:06Z</time>
      </trkpt>
      <trkpt lat="36.7276510" lon="-2.6523500">
        <ele>30.2</ele>
        <time>2022-11-01T13:00:07Z</time>
      </trkpt>
      <trkpt lat="36.7277320" lon="-2.6523170">
        <ele>30.2</ele>
        <time>2022-11-01T13:00:08Z</time>
      </trkpt>
      <trkpt lat="36.7278130" lon="-2.6522840">
        <ele>30.2</ele>
        <time>2022-11-01T13:00:09Z</time>
      </trkpt>
      <trkpt lat="36.7278940" lon="-2.6522510">
        <ele>30.2</ele>
        <time>2022-11-01T13:00:10Z</time>
      </trkpt>
      <trkpt lat="36.7279740" lon="-2.6522160">
        <ele>30.0</ele>
        <time>2022-11-01T13:00:11Z</time>
      </trkpt>
      <trkpt lat="36.7280540" lon="-2.6521800">
        <ele>30.0</ele>
        <time>2022-11-01T13:00:12Z</time>
      </trkpt>
      <trkpt lat="36.7281310" lon="-2.6521410">
        <ele>30.0</ele>
        <time>2022-11-01T13:00:13Z</time>
      </trkpt>
      <trkpt lat="36.7281990" lon="-2.6520890">
        <ele>30.0</ele>
        <time>2022-11-01T13:00:14Z</time>
      </trkpt>
      <trkpt lat="36.7282640" lon="-2.6520340">
        <ele>30.0</ele>
        <time>2022-11-01T13:00:15Z</time>
      </trkpt>
      <trkpt lat="36.7283290" lon="-2.6519830">
        <ele>30.0</ele>
        <time>2022-11-01T13:00:16Z</time>
      </trkpt>
      <trkpt lat="36.7283930" lon="-2.6519320">
        <ele>30.0</ele>
        <time>2022-11-01T13:00:17Z</time>
      </trkpt>
      <trkpt lat="36.7284410" lon="-2.6518740">
        <ele>30.0</ele>
        <time>2022-11-01T13:00:18Z</time>
      </trkpt>
      <trkpt lat="36.7285010" lon="-2.6518160">
        <ele>30.0</ele>
        <time>2022-11-01T13:00:19Z</time>
      </trkpt>
      <trkpt lat="36.7285640" lon="-2.6517600">
        <ele>30.0</ele>
        <time>2022-11-01T13:00:20Z</time>
      </trkpt>
      <trkpt lat="36.7286230" lon="-2.6517050">
        <ele>30.0</ele>
        <time>2022-11-01T13:00:21Z</time>
      </trkpt>
      <trkpt lat="36.7286850" lon="-2.6516510">
        <ele>29.8</ele>
        <time>2022-11-01T13:00:22Z</time>
      </trkpt>
      <trkpt lat="36.7287490" lon="-2.6515980">
        <ele>30.0</ele>
        <time>2022-11-01T13:00:23Z</time>
      </trkpt>
      <trkpt lat="36.7288100" lon="-2.6515430">
        <ele>29.8</ele>
        <time>2022-11-01T13:00:24Z</time>
      </trkpt>
      <trkpt lat="36.7288690" lon="-2.6514880">
        <ele>29.8</ele>
        <time>2022-11-01T13:00:25Z</time>
      </trkpt>
      <trkpt lat="36.7289290" lon="-2.6514340">
        <ele>29.8</ele>
        <time>2022-11-01T13:00:26Z</time>
      </trkpt>
      <trkpt lat="36.7289870" lon="-2.6513780">
        <ele>29.8</ele>
        <time>2022-11-01T13:00:27Z</time>
      </trkpt>
      <trkpt lat="36.7290430" lon="-2.6513210">
        <ele>29.6</ele>
        <time>2022-11-01T13:00:28Z</time>
      </trkpt>
      <trkpt lat="36.7290970" lon="-2.6512650">
        <ele>29.8</ele>
        <time>2022-11-01T13:00:29Z</time>
      </trkpt>
      <trkpt lat="36.7291520" lon="-2.6512080">
        <ele>29.8</ele>
        <time>2022-11-01T13:00:30Z</time>
      </trkpt>
      <trkpt lat="36.7292080" lon="-2.6511510">
        <ele>29.8</ele>
        <time>2022-11-01T13:00:31Z</time>
      </trkpt>
      <trkpt lat="36.7292620" lon="-2.6510950">
        <ele>30.0</ele>
        <time>2022-11-01T13:00:32Z</time>
      </trkpt>
      <trkpt lat="36.7293170" lon="-2.6510380">
        <ele>29.8</ele>
        <time>2022-11-01T13:00:33Z</time>
      </trkpt>
      <trkpt lat="36.7293670" lon="-2.6509790">
        <ele>29.8</ele>
        <time>2022-11-01T13:00:34Z</time>
      </trkpt>
      <trkpt lat="36.7294170" lon="-2.6509170">
        <ele>30.0</ele>
        <time>2022-11-01T13:00:35Z</time>
      </trkpt>
      <trkpt lat="36.7294650" lon="-2.6508530">
        <ele>29.8</ele>
        <time>2022-11-01T13:00:36Z</time>
      </trkpt>
      <trkpt lat="36.7295100" lon="-2.6507870">
        <ele>29.6</ele>
        <time>2022-11-01T13:00:37Z</time>
      </trkpt>
      <trkpt lat="36.7295510" lon="-2.6507180">
        <ele>29.6</ele>
        <time>2022-11-01T13:00:38Z</time>
      </trkpt>
      <trkpt lat="36.7295890" lon="-2.6506460">
        <ele>29.6</ele>
        <time>2022-11-01T13:00:39Z</time>
      </trkpt>
      <trkpt lat="36.7296250" lon="-2.6505730">
        <ele>29.6</ele>
        <time>2022-11-01T13:00:40Z</time>
      </trkpt>
      <trkpt lat="36.7296600" lon="-2.6504990">
        <ele>29.6</ele>
        <time>2022-11-01T13:00:41Z</time>
      </trkpt>
      <trkpt lat="36.7296920" lon="-2.6504230">
        <ele>29.6</ele>
        <time>2022-11-01T13:00:42Z</time>
      </trkpt>
      <trkpt lat="36.7297230" lon="-2.6503460">
        <ele>29.6</ele>
        <time>2022-11-01T13:00:43Z</time>
      </trkpt>
      <trkpt lat="36.7297520" lon="-2.6502670">
        <ele>29.4</ele>
        <time>2022-11-01T13:00:44Z</time>
      </trkpt>
      <trkpt lat="36.7297810" lon="-2.6501890">
        <ele>29.4</ele>
        <time>2022-11-01T13:00:45Z</time>
      </trkpt>
      <trkpt lat="36.7298100" lon="-2.6501120">
        <ele>29.4</ele>
        <time>2022-11-01T13:00:46Z</time>
      </trkpt>
      <trkpt lat="36.7298400" lon="-2.6500350">
        <ele>29.4</ele>
        <time>2022-11-01T13:00:47Z</time>
      </trkpt>
      <trkpt lat="36.7298690" lon="-2.6499580">
        <ele>29.4</ele>
        <time>2022-11-01T13:00:48Z</time>
      </trkpt>
      <trkpt lat="36.7298980" lon="-2.6498800">
        <ele>29.4</ele>
        <time>2022-11-01T13:00:49Z</time>
      </trkpt>
      <trkpt lat="36.7299250" lon="-2.6498030">
        <ele>29.4</ele>
        <time>2022-11-01T13:00:50Z</time>
      </trkpt>
      <trkpt lat="36.7299520" lon="-2.6497250">
        <ele>29.2</ele>
        <time>2022-11-01T13:00:51Z</time>
      </trkpt>
      <trkpt lat="36.7299800" lon="-2.6496470">
        <ele>29.2</ele>
        <time>2022-11-01T13:00:52Z</time>
      </trkpt>
      <trkpt lat="36.7300070" lon="-2.6495720">
        <ele>29.2</ele>
        <time>2022-11-01T13:00:53Z</time>
      </trkpt>
      <trkpt lat="36.7300340" lon="-2.6494960">
        <ele>29.2</ele>
        <time>2022-11-01T13:00:54Z</time>
      </trkpt>
      <trkpt lat="36.7300600" lon="-2.6494200">
        <ele>29.4</ele>
        <time>2022-11-01T13:00:55Z</time>
      </trkpt>
      <trkpt lat="36.7300870" lon="-2.6493460">
        <ele>29.4</ele>
        <time>2022-11-01T13:00:56Z</time>
      </trkpt>
      <trkpt lat="36.7301130" lon="-2.6492720">
        <ele>29.6</ele>
        <time>2022-11-01T13:00:57Z</time>
      </trkpt>
      <trkpt lat="36.7301390" lon="-2.6491980">
        <ele>29.6</ele>
        <time>2022-11-01T13:00:58Z</time>
      </trkpt>
      <trkpt lat="36.7301650" lon="-2.6491260">
        <ele>29.6</ele>
        <time>2022-11-01T13:00:59Z</time>
      </trkpt>
      <trkpt lat="36.7301900" lon="-2.6490540">
        <ele>29.8</ele>
        <time>2022-11-01T13:01:00Z</time>
      </trkpt>
      <trkpt lat="36.7302150" lon="-2.6489810">
        <ele>29.8</ele>
        <time>2022-11-01T13:01:01Z</time>
      </trkpt>
      <trkpt lat="36.7302410" lon="-2.6489090">
        <ele>29.8</ele>
        <time>2022-11-01T13:01:02Z</time>
      </trkpt>
      <trkpt lat="36.7302670" lon="-2.6488370">
        <ele>30.0</ele>
        <time>2022-11-01T13:01:03Z</time>
      </trkpt>
      <trkpt lat="36.7302930" lon="-2.6487650">
        <ele>30.0</ele>
        <time>2022-11-01T13:01:04Z</time>
      </trkpt>
      <trkpt lat="36.7303210" lon="-2.6486920">
        <ele>30.2</ele>
        <time>2022-11-01T13:01:05Z</time>
      </trkpt>
      <trkpt lat="36.7303480" lon="-2.6486180">
        <ele>30.2</ele>
        <time>2022-11-01T13:01:06Z</time>
      </trkpt>
      <trkpt lat="36.7303750" lon="-2.6485440">
        <ele>30.4</ele>
        <time>2022-11-01T13:01:07Z</time>
      </trkpt>
      <trkpt lat="36.7304010" lon="-2.6484690">
        <ele>30.4</ele>
        <time>2022-11-01T13:01:08Z</time>
      </trkpt>
      <trkpt lat="36.7304290" lon="-2.6483950">
        <ele>30.4</ele>
        <time>2022-11-01T13:01:09Z</time>
      </trkpt>
      <trkpt lat="36.7304570" lon="-2.6483230">
        <ele>30.6</ele>
        <time>2022-11-01T13:01:10Z</time>
      </trkpt>
      <trkpt lat="36.7304830" lon="-2.6482490">
        <ele>30.6</ele>
        <time>2022-11-01T13:01:11Z</time>
      </trkpt>
      <trkpt lat="36.7305100" lon="-2.6481740">
        <ele>30.8</ele>
        <time>2022-11-01T13:01:12Z</time>
      </trkpt>
      <trkpt lat="36.7305380" lon="-2.6481020">
        <ele>30.8</ele>
        <time>2022-11-01T13:01:13Z</time>
      </trkpt>
      <trkpt lat="36.7305650" lon="-2.6480280">
        <ele>31.0</ele>
        <time>2022-11-01T13:01:14Z</time>
      </trkpt>
      <trkpt lat="36.7305920" lon="-2.6479530">
        <ele>31.0</ele>
        <time>2022-11-01T13:01:15Z</time>
      </trkpt>
      <trkpt lat="36.7306190" lon="-2.6478780">
        <ele>31.0</ele>
        <time>2022-11-01T13:01:16Z</time>
      </trkpt>
      <trkpt lat="36.7306470" lon="-2.6478020">
        <ele>31.0</ele>
        <time>2022-11-01T13:01:17Z</time>
      </trkpt>
      <trkpt lat="36.7306750" lon="-2.6477260">
        <ele>31.0</ele>
        <time>2022-11-01T13:01:18Z</time>
      </trkpt>
      <trkpt lat="36.7307040" lon="-2.6476490">
        <ele>31.2</ele>
        <time>2022-11-01T13:01:19Z</time>
      </trkpt>
      <trkpt lat="36.7307320" lon="-2.6475710">
        <ele>31.2</ele>
        <time>2022-11-01T13:01:20Z</time>
      </trkpt>
      <trkpt lat="36.7307590" lon="-2.6474940">
        <ele>31.2</ele>
        <time>2022-11-01T13:01:21Z</time>
      </trkpt>
      <trkpt lat="36.7307870" lon="-2.6474170">
        <ele>31.4</ele>
        <time>2022-11-01T13:01:22Z</time>
      </trkpt>
      <trkpt lat="36.7308150" lon="-2.6473390">
        <ele>31.4</ele>
        <time>2022-11-01T13:01:23Z</time>
      </trkpt>
      <trkpt lat="36.7308420" lon="-2.6472620">
        <ele>31.6</ele>
        <time>2022-11-01T13:01:24Z</time>
      </trkpt>
      <trkpt lat="36.7308690" lon="-2.6471850">
        <ele>31.6</ele>
        <time>2022-11-01T13:01:25Z</time>
      </trkpt>
      <trkpt lat="36.7308970" lon="-2.6471100">
        <ele>31.6</ele>
        <time>2022-11-01T13:01:26Z</time>
      </trkpt>
      <trkpt lat="36.7309260" lon="-2.6470340">
        <ele>31.8</ele>
        <time>2022-11-01T13:01:27Z</time>
      </trkpt>
      <trkpt lat="36.7309540" lon="-2.6469590">
        <ele>31.8</ele>
        <time>2022-11-01T13:01:28Z</time>
      </trkpt>
      <trkpt lat="36.7309800" lon="-2.6468840">
        <ele>32.0</ele>
        <time>2022-11-01T13:01:29Z</time>
      </trkpt>
      <trkpt lat="36.7310070" lon="-2.6468100">
        <ele>32.2</ele>
        <time>2022-11-01T13:01:30Z</time>
      </trkpt>
      <trkpt lat="36.7310330" lon="-2.6467370">
        <ele>32.4</ele>
        <time>2022-11-01T13:01:31Z</time>
      </trkpt>
      <trkpt lat="36.7310590" lon="-2.6466660">
        <ele>32.6</ele>
        <time>2022-11-01T13:01:32Z</time>
      </trkpt>
      <trkpt lat="36.7310850" lon="-2.6465960">
        <ele>32.6</ele>
        <time>2022-11-01T13:01:33Z</time>
      </trkpt>
      <trkpt lat="36.7311110" lon="-2.6465270">
        <ele>33.0</ele>
        <time>2022-11-01T13:01:34Z</time>
      </trkpt>
      <trkpt lat="36.7311360" lon="-2.6464590">
        <ele>33.0</ele>
        <time>2022-11-01T13:01:35Z</time>
      </trkpt>
      <trkpt lat="36.7311610" lon="-2.6463910">
        <ele>33.2</ele>
        <time>2022-11-01T13:01:36Z</time>
      </trkpt>
      <trkpt lat="36.7311860" lon="-2.6463240">
        <ele>33.4</ele>
        <time>2022-11-01T13:01:37Z</time>
      </trkpt>
      <trkpt lat="36.7312110" lon="-2.6462580">
        <ele>33.4</ele>
        <time>2022-11-01T13:01:38Z</time>
      </trkpt>
      <trkpt lat="36.7312340" lon="-2.6461910">
        <ele>33.4</ele>
        <time>2022-11-01T13:01:39Z</time>
      </trkpt>
      <trkpt lat="36.7312580" lon="-2.6461250">
        <ele>33.6</ele>
        <time>2022-11-01T13:01:40Z</time>
      </trkpt>
      <trkpt lat="36.7312810" lon="-2.6460590">
        <ele>33.8</ele>
        <time>2022-11-01T13:01:41Z</time>
      </trkpt>
      <trkpt lat="36.7313040" lon="-2.6459930">
        <ele>33.8</ele>
        <time>2022-11-01T13:01:42Z</time>
      </trkpt>
      <trkpt lat="36.7313240" lon="-2.6459260">
        <ele>34.0</ele>
        <time>2022-11-01T13:01:43Z</time>
      </trkpt>
      <trkpt lat="36.7313410" lon="-2.6458580">
        <ele>34.0</ele>
        <time>2022-11-01T13:01:44Z</time>
      </trkpt>
      <trkpt lat="36.7313540" lon="-2.6457850">
        <ele>34.0</ele>
        <time>2022-11-01T13:01:45Z</time>
      </trkpt>
      <trkpt lat="36.7313630" lon="-2.6457100">
        <ele>33.8</ele>
        <time>2022-11-01T13:01:46Z</time>
      </trkpt>
      <trkpt lat="36.7313670" lon="-2.6456330">
        <ele>33.8</ele>
        <time>2022-11-01T13:01:47Z</time>
      </trkpt>
      <trkpt lat="36.7313660" lon="-2.6455570">
        <ele>33.8</ele>
        <time>2022-11-01T13:01:48Z</time>
      </trkpt>
      <trkpt lat="36.7313630" lon="-2.6454790">
        <ele>33.8</ele>
        <time>2022-11-01T13:01:49Z</time>
      </trkpt>
      <trkpt lat="36.7313560" lon="-2.6454010">
        <ele>33.8</ele>
        <time>2022-11-01T13:01:50Z</time>
      </trkpt>
      <trkpt lat="36.7313470" lon="-2.6453210">
        <ele>33.6</ele>
        <time>2022-11-01T13:01:51Z</time>
      </trkpt>
      <trkpt lat="36.7313350" lon="-2.6452400">
        <ele>33.4</ele>
        <time>2022-11-01T13:01:52Z</time>
      </trkpt>
      <trkpt lat="36.7313220" lon="-2.6451580">
        <ele>33.4</ele>
        <time>2022-11-01T13:01:53Z</time>
      </trkpt>
      <trkpt lat="36.7313100" lon="-2.6450760">
        <ele>33.4</ele>
        <time>2022-11-01T13:01:54Z</time>
      </trkpt>
      <trkpt lat="36.7312970" lon="-2.6449960">
        <ele>33.2</ele>
        <time>2022-11-01T13:01:55Z</time>
      </trkpt>
      <trkpt lat="36.7312830" lon="-2.6449200">
        <ele>33.2</ele>
        <time>2022-11-01T13:01:56Z</time>
      </trkpt>
      <trkpt lat="36.7312680" lon="-2.6448420">
        <ele>33.0</ele>
        <time>2022-11-01T13:01:57Z</time>
      </trkpt>
      <trkpt lat="36.7312530" lon="-2.6447650">
        <ele>33.0</ele>
        <time>2022-11-01T13:01:58Z</time>
      </trkpt>
      <trkpt lat="36.7312360" lon="-2.6446880">
        <ele>33.0</ele>
        <time>2022-11-01T13:01:59Z</time>
      </trkpt>
      <trkpt lat="36.7312190" lon="-2.6446110">
        <ele>33.0</ele>
        <time>2022-11-01T13:02:00Z</time>
      </trkpt>
      <trkpt lat="36.7312030" lon="-2.6445340">
        <ele>33.0</ele>
        <time>2022-11-01T13:02:01Z</time>
      </trkpt>
      <trkpt lat="36.7311850" lon="-2.6444570">
        <ele>33.0</ele>
        <time>2022-11-01T13:02:02Z</time>
      </trkpt>
      <trkpt lat="36.7311680" lon="-2.6443800">
        <ele>33.0</ele>
        <time>2022-11-01T13:02:03Z</time>
      </trkpt>
      <trkpt lat="36.7311520" lon="-2.6443000">
        <ele>33.0</ele>
        <time>2022-11-01T13:02:04Z</time>
      </trkpt>
      <trkpt lat="36.7311370" lon="-2.6442230">
        <ele>33.0</ele>
        <time>2022-11-01T13:02:05Z</time>
      </trkpt>
      <trkpt lat="36.7311220" lon="-2.6441480">
        <ele>32.8</ele>
        <time>2022-11-01T13:02:06Z</time>
      </trkpt>
      <trkpt lat="36.7311070" lon="-2.6440710">
        <ele>32.8</ele>
        <time>2022-11-01T13:02:07Z</time>
      </trkpt>
      <trkpt lat="36.7310910" lon="-2.6439930">
        <ele>32.8</ele>
        <time>2022-11-01T13:02:08Z</time>
      </trkpt>
      <trkpt lat="36.7310760" lon="-2.6439130">
        <ele>32.8</ele>
        <time>2022-11-01T13:02:09Z</time>
      </trkpt>
      <trkpt lat="36.7310610" lon="-2.6438320">
        <ele>32.6</ele>
        <time>2022-11-01T13:02:10Z</time>
      </trkpt>
      <trkpt lat="36.7310450" lon="-2.6437540">
        <ele>32.6</ele>
        <time>2022-11-01T13:02:11Z</time>
      </trkpt>
      <trkpt lat="36.7310310" lon="-2.6436740">
        <ele>32.6</ele>
        <time>2022-11-01T13:02:12Z</time>
      </trkpt>
      <trkpt lat="36.7310180" lon="-2.6435930">
        <ele>32.6</ele>
        <time>2022-11-01T13:02:13Z</time>
      </trkpt>
      <trkpt lat="36.7310060" lon="-2.6435110">
        <ele>32.4</ele>
        <time>2022-11-01T13:02:14Z</time>
      </trkpt>
      <trkpt lat="36.7309940" lon="-2.6434300">
        <ele>32.4</ele>
        <time>2022-11-01T13:02:15Z</time>
      </trkpt>
      <trkpt lat="36.7309840" lon="-2.6433500">
        <ele>32.4</ele>
        <time>2022-11-01T13:02:16Z</time>
      </trkpt>
      <trkpt lat="36.7309760" lon="-2.6432690">
        <ele>32.4</ele>
        <time>2022-11-01T13:02:17Z</time>
      </trkpt>
      <trkpt lat="36.7309690" lon="-2.6431880">
        <ele>32.2</ele>
        <time>2022-11-01T13:02:18Z</time>
      </trkpt>
      <trkpt lat="36.7309630" lon="-2.6431080">
        <ele>32.2</ele>
        <time>2022-11-01T13:02:19Z</time>
      </trkpt>
      <trkpt lat="36.7309570" lon="-2.6430260">
        <ele>32.2</ele>
        <time>2022-11-01T13:02:20Z</time>
      </trkpt>
      <trkpt lat="36.7309520" lon="-2.6429440">
        <ele>32.2</ele>
        <time>2022-11-01T13:02:21Z</time>
      </trkpt>
      <trkpt lat="36.7309470" lon="-2.6428620">
        <ele>32.2</ele>
        <time>2022-11-01T13:02:22Z</time>
      </trkpt>
      <trkpt lat="36.7309430" lon="-2.6427800">
        <ele>32.2</ele>
        <time>2022-11-01T13:02:23Z</time>
      </trkpt>
      <trkpt lat="36.7309400" lon="-2.6426990">
        <ele>32.0</ele>
        <time>2022-11-01T13:02:24Z</time>
      </trkpt>
      <trkpt lat="36.7309370" lon="-2.6426180">
        <ele>32.0</ele>
        <time>2022-11-01T13:02:25Z</time>
      </trkpt>
      <trkpt lat="36.7309330" lon="-2.6425360">
        <ele>32.0</ele>
        <time>2022-11-01T13:02:26Z</time>
      </trkpt>
      <trkpt lat="36.7309280" lon="-2.6424530">
        <ele>32.0</ele>
        <time>2022-11-01T13:02:27Z</time>
      </trkpt>
      <trkpt lat="36.7309230" lon="-2.6423710">
        <ele>32.0</ele>
        <time>2022-11-01T13:02:28Z</time>
      </trkpt>
      <trkpt lat="36.7309180" lon="-2.6422880">
        <ele>32.0</ele>
        <time>2022-11-01T13:02:29Z</time>
      </trkpt>
      <trkpt lat="36.7309120" lon="-2.6422050">
        <ele>32.0</ele>
        <time>2022-11-01T13:02:30Z</time>
      </trkpt>
      <trkpt lat="36.7309050" lon="-2.6421210">
        <ele>32.0</ele>
        <time>2022-11-01T13:02:31Z</time>
      </trkpt>
      <trkpt lat="36.7308980" lon="-2.6420390">
        <ele>32.0</ele>
        <time>2022-11-01T13:02:32Z</time>
      </trkpt>
      <trkpt lat="36.7308890" lon="-2.6419560">
        <ele>32.0</ele>
        <time>2022-11-01T13:02:33Z</time>
      </trkpt>
      <trkpt lat="36.7308790" lon="-2.6418740">
        <ele>31.8</ele>
        <time>2022-11-01T13:02:34Z</time>
      </trkpt>
      <trkpt lat="36.7308690" lon="-2.6417940">
        <ele>31.8</ele>
        <time>2022-11-01T13:02:35Z</time>
      </trkpt>
      <trkpt lat="36.7308590" lon="-2.6417130">
        <ele>31.8</ele>
        <time>2022-11-01T13:02:36Z</time>
      </trkpt>
      <trkpt lat="36.7308460" lon="-2.6416320">
        <ele>31.8</ele>
        <time>2022-11-01T13:02:37Z</time>
      </trkpt>
      <trkpt lat="36.7308280" lon="-2.6415520">
        <ele>31.8</ele>
        <time>2022-11-01T13:02:38Z</time>
      </trkpt>
      <trkpt lat="36.7308090" lon="-2.6414720">
        <ele>31.8</ele>
        <time>2022-11-01T13:02:39Z</time>
      </trkpt>
      <trkpt lat="36.7307860" lon="-2.6413940">
        <ele>31.6</ele>
        <time>2022-11-01T13:02:40Z</time>
      </trkpt>
      <trkpt lat="36.7307630" lon="-2.6413170">
        <ele>31.6</ele>
        <time>2022-11-01T13:02:41Z</time>
      </trkpt>
      <trkpt lat="36.7307380" lon="-2.6412410">
        <ele>31.6</ele>
        <time>2022-11-01T13:02:42Z</time>
      </trkpt>
      <trkpt lat="36.7307120" lon="-2.6411670">
        <ele>31.6</ele>
        <time>2022-11-01T13:02:43Z</time>
      </trkpt>
      <trkpt lat="36.7306830" lon="-2.6410950">
        <ele>31.6</ele>
        <time>2022-11-01T13:02:44Z</time>
      </trkpt>
      <trkpt lat="36.7306520" lon="-2.6410230">
        <ele>31.6</ele>
        <time>2022-11-01T13:02:45Z</time>
      </trkpt>
      <trkpt lat="36.7306180" lon="-2.6409530">
        <ele>31.6</ele>
        <time>2022-11-01T13:02:46Z</time>
      </trkpt>
      <trkpt lat="36.7305830" lon="-2.6408850">
        <ele>31.4</ele>
        <time>2022-11-01T13:02:47Z</time>
      </trkpt>
      <trkpt lat="36.7305470" lon="-2.6408180">
        <ele>31.4</ele>
        <time>2022-11-01T13:02:48Z</time>
      </trkpt>
      <trkpt lat="36.7305090" lon="-2.6407530">
        <ele>31.4</ele>
        <time>2022-11-01T13:02:49Z</time>
      </trkpt>
      <trkpt lat="36.7304690" lon="-2.6406900">
        <ele>31.4</ele>
        <time>2022-11-01T13:02:50Z</time>
      </trkpt>
      <trkpt lat="36.7304310" lon="-2.6406290">
        <ele>31.4</ele>
        <time>2022-11-01T13:02:51Z</time>
      </trkpt>
      <trkpt lat="36.7303930" lon="-2.6405690">
        <ele>31.6</ele>
        <time>2022-11-01T13:02:52Z</time>
      </trkpt>
      <trkpt lat="36.7303540" lon="-2.6405110">
        <ele>31.6</ele>
        <time>2022-11-01T13:02:53Z</time>
      </trkpt>
      <trkpt lat="36.7303130" lon="-2.6404560">
        <ele>31.6</ele>
        <time>2022-11-01T13:02:54Z</time>
      </trkpt>
      <trkpt lat="36.7302700" lon="-2.6404020">
        <ele>31.6</ele>
        <time>2022-11-01T13:02:55Z</time>
      </trkpt>
      <trkpt lat="36.7302280" lon="-2.6403460">
        <ele>31.6</ele>
        <time>2022-11-01T13:02:56Z</time>
      </trkpt>
      <trkpt lat="36.7301860" lon="-2.6402900">
        <ele>31.6</ele>
        <time>2022-11-01T13:02:57Z</time>
      </trkpt>
      <trkpt lat="36.7301440" lon="-2.6402360">
        <ele>31.6</ele>
        <time>2022-11-01T13:02:58Z</time>
      </trkpt>
      <trkpt lat="36.7301010" lon="-2.6401800">
        <ele>31.6</ele>
        <time>2022-11-01T13:02:59Z</time>
      </trkpt>
      <trkpt lat="36.7300590" lon="-2.6401260">
        <ele>31.8</ele>
        <time>2022-11-01T13:03:00Z</time>
      </trkpt>
      <trkpt lat="36.7300160" lon="-2.6400730">
        <ele>31.8</ele>
        <time>2022-11-01T13:03:01Z</time>
      </trkpt>
      <trkpt lat="36.7299740" lon="-2.6400190">
        <ele>31.8</ele>
        <time>2022-11-01T13:03:02Z</time>
      </trkpt>
      <trkpt lat="36.7299330" lon="-2.6399650">
        <ele>31.8</ele>
        <time>2022-11-01T13:03:03Z</time>
      </trkpt>
      <trkpt lat="36.7298940" lon="-2.6399100">
        <ele>31.8</ele>
        <time>2022-11-01T13:03:04Z</time>
      </trkpt>
      <trkpt lat="36.7298550" lon="-2.6398570">
        <ele>31.8</ele>
        <time>2022-11-01T13:03:05Z</time>
      </trkpt>
      <trkpt lat="36.7298140" lon="-2.6398060">
        <ele>31.8</ele>
        <time>2022-11-01T13:03:06Z</time>
      </trkpt>
      <trkpt lat="36.7297730" lon="-2.6397580">
        <ele>31.8</ele>
        <time>2022-11-01T13:03:07Z</time>
      </trkpt>
      <trkpt lat="36.7297310" lon="-2.6397160">
        <ele>31.6</ele>
        <time>2022-11-01T13:03:08Z</time>
      </trkpt>
      <trkpt lat="36.7296870" lon="-2.6396730">
        <ele>31.6</ele>
        <time>2022-11-01T13:03:09Z</time>
      </trkpt>
      <trkpt lat="36.7296430" lon="-2.6396260">
        <ele>31.6</ele>
        <time>2022-11-01T13:03:10Z</time>
      </trkpt>
      <trkpt lat="36.7295990" lon="-2.6395800">
        <ele>31.6</ele>
        <time>2022-11-01T13:03:11Z</time>
      </trkpt>
      <trkpt lat="36.7295520" lon="-2.6395380">
        <ele>31.4</ele>
        <time>2022-11-01T13:03:12Z</time>
      </trkpt>
      <trkpt lat="36.7295040" lon="-2.6395080">
        <ele>31.4</ele>
        <time>2022-11-01T13:03:13Z</time>
      </trkpt>
      <trkpt lat="36.7294530" lon="-2.6394820">
        <ele>31.4</ele>
        <time>2022-11-01T13:03:14Z</time>
      </trkpt>
      <trkpt lat="36.7294050" lon="-2.6394500">
        <ele>31.4</ele>
        <time>2022-11-01T13:03:15Z</time>
      </trkpt>
      <trkpt lat="36.7293610" lon="-2.6394070">
        <ele>31.4</ele>
        <time>2022-11-01T13:03:16Z</time>
      </trkpt>
      <trkpt lat="36.7293240" lon="-2.6393530">
        <ele>31.4</ele>
        <time>2022-11-01T13:03:17Z</time>
      </trkpt>
      <trkpt lat="36.7293000" lon="-2.6392900">
        <ele>31.4</ele>
        <time>2022-11-01T13:03:18Z</time>
      </trkpt>
      <trkpt lat="36.7292900" lon="-2.6392200">
        <ele>31.4</ele>
        <time>2022-11-01T13:03:19Z</time>
      </trkpt>
      <trkpt lat="36.7292930" lon="-2.6391480">
        <ele>31.6</ele>
        <time>2022-11-01T13:03:20Z</time>
      </trkpt>
      <trkpt lat="36.7293060" lon="-2.6390740">
        <ele>31.4</ele>
        <time>2022-11-01T13:03:21Z</time>
      </trkpt>
      <trkpt lat="36.7293280" lon="-2.6390030">
        <ele>31.4</ele>
        <time>2022-11-01T13:03:22Z</time>
      </trkpt>
      <trkpt lat="36.7293550" lon="-2.6389320">
        <ele>31.4</ele>
        <time>2022-11-01T13:03:23Z</time>
      </trkpt>
      <trkpt lat="36.7293780" lon="-2.6388570">
        <ele>31.4</ele>
        <time>2022-11-01T13:03:24Z</time>
      </trkpt>
      <trkpt lat="36.7293980" lon="-2.6387800">
        <ele>31.2</ele>
        <time>2022-11-01T13:03:25Z</time>
      </trkpt>
      <trkpt lat="36.7294150" lon="-2.6387010">
        <ele>31.2</ele>
        <time>2022-11-01T13:03:26Z</time>
      </trkpt>
      <trkpt lat="36.7294280" lon="-2.6386240">
        <ele>31.2</ele>
        <time>2022-11-01T13:03:27Z</time>
      </trkpt>
      <trkpt lat="36.7294410" lon="-2.6385470">
        <ele>31.0</ele>
        <time>2022-11-01T13:03:28Z</time>
      </trkpt>
      <trkpt lat="36.7294550" lon="-2.6384680">
        <ele>31.0</ele>
        <time>2022-11-01T13:03:29Z</time>
      </trkpt>
      <trkpt lat="36.7294710" lon="-2.6383900">
        <ele>31.0</ele>
        <time>2022-11-01T13:03:30Z</time>
      </trkpt>
      <trkpt lat="36.7294860" lon="-2.6383120">
        <ele>31.0</ele>
        <time>2022-11-01T13:03:31Z</time>
      </trkpt>
      <trkpt lat="36.7295020" lon="-2.6382340">
        <ele>31.0</ele>
        <time>2022-11-01T13:03:32Z</time>
      </trkpt>
      <trkpt lat="36.7295170" lon="-2.6381610">
        <ele>31.0</ele>
        <time>2022-11-01T13:03:33Z</time>
      </trkpt>
      <trkpt lat="36.7295350" lon="-2.6380880">
        <ele>31.0</ele>
        <time>2022-11-01T13:03:34Z</time>
      </trkpt>
      <trkpt lat="36.7295530" lon="-2.6380160">
        <ele>31.0</ele>
        <time>2022-11-01T13:03:35Z</time>
      </trkpt>
      <trkpt lat="36.7295690" lon="-2.6379440">
        <ele>31.0</ele>
        <time>2022-11-01T13:03:36Z</time>
      </trkpt>
      <trkpt lat="36.7295850" lon="-2.6378710">
        <ele>31.2</ele>
        <time>2022-11-01T13:03:37Z</time>
      </trkpt>
      <trkpt lat="36.7296020" lon="-2.6377970">
        <ele>31.2</ele>
        <time>2022-11-01T13:03:38Z</time>
      </trkpt>
      <trkpt lat="36.7296200" lon="-2.6377250">
        <ele>31.2</ele>
        <time>2022-11-01T13:03:39Z</time>
      </trkpt>
      <trkpt lat="36.7296370" lon="-2.6376560">
        <ele>31.2</ele>
        <time>2022-11-01T13:03:40Z</time>
      </trkpt>
      <trkpt lat="36.7296560" lon="-2.6375850">
        <ele>31.2</ele>
        <time>2022-11-01T13:03:41Z</time>
      </trkpt>
      <trkpt lat="36.7296720" lon="-2.6375160">
        <ele>31.0</ele>
        <time>2022-11-01T13:03:42Z</time>
      </trkpt>
      <trkpt lat="36.7296850" lon="-2.6374510">
        <ele>31.0</ele>
        <time>2022-11-01T13:03:43Z</time>
      </trkpt>
      <trkpt lat="36.7297020" lon="-2.6373840">
        <ele>31.2</ele>
        <time>2022-11-01T13:03:44Z</time>
      </trkpt>
      <trkpt lat="36.7297200" lon="-2.6373140">
        <ele>31.2</ele>
        <time>2022-11-01T13:03:45Z</time>
      </trkpt>
      <trkpt lat="36.7297380" lon="-2.6372450">
        <ele>31.2</ele>
        <time>2022-11-01T13:03:46Z</time>
      </trkpt>
      <trkpt lat="36.7297550" lon="-2.6371750">
        <ele>31.2</ele>
        <time>2022-11-01T13:03:47Z</time>
      </trkpt>
      <trkpt lat="36.7297650" lon="-2.6371060">
        <ele>31.2</ele>
        <time>2022-11-01T13:03:48Z</time>
      </trkpt>
      <trkpt lat="36.7297810" lon="-2.6370380">
        <ele>31.4</ele>
        <time>2022-11-01T13:03:49Z</time>
      </trkpt>
      <trkpt lat="36.7297950" lon="-2.6369690">
        <ele>31.4</ele>
        <time>2022-11-01T13:03:50Z</time>
      </trkpt>
      <trkpt lat="36.7298140" lon="-2.6368990">
        <ele>31.4</ele>
        <time>2022-11-01T13:03:51Z</time>
      </trkpt>
      <trkpt lat="36.7298310" lon="-2.6368280">
        <ele>31.4</ele>
        <time>2022-11-01T13:03:52Z</time>
      </trkpt>
      <trkpt lat="36.7298470" lon="-2.6367560">
        <ele>31.4</ele>
        <time>2022-11-01T13:03:53Z</time>
      </trkpt>
      <trkpt lat="36.7298640" lon="-2.6366830">
        <ele>31.4</ele>
        <time>2022-11-01T13:03:54Z</time>
      </trkpt>
      <trkpt lat="36.7298830" lon="-2.6366120">
        <ele>31.4</ele>
        <time>2022-11-01T13:03:55Z</time>
      </trkpt>
      <trkpt lat="36.7298940" lon="-2.6365410">
        <ele>31.4</ele>
        <time>2022-11-01T13:03:56Z</time>
      </trkpt>
      <trkpt lat="36.7299170" lon="-2.6364710">
        <ele>31.4</ele>
        <time>2022-11-01T13:03:57Z</time>
      </trkpt>
      <trkpt lat="36.7299350" lon="-2.6363990">
        <ele>31.4</ele>
        <time>2022-11-01T13:03:58Z</time>
      </trkpt>
      <trkpt lat="36.7299570" lon="-2.6363240">
        <ele>31.2</ele>
        <time>2022-11-01T13:03:59Z</time>
      </trkpt>
      <trkpt lat="36.7299780" lon="-2.6362490">
        <ele>31.2</ele>
        <time>2022-11-01T13:04:00Z</time>
      </trkpt>
      <trkpt lat="36.7299950" lon="-2.6361790">
        <ele>31.2</ele>
        <time>2022-11-01T13:04:01Z</time>
      </trkpt>
      <trkpt lat="36.7300070" lon="-2.6361110">
        <ele>31.0</ele>
        <time>2022-11-01T13:04:02Z</time>
      </trkpt>
      <trkpt lat="36.7300120" lon="-2.6360430">
        <ele>31.4</ele>
        <time>2022-11-01T13:04:03Z</time>
      </trkpt>
      <trkpt lat="36.7300260" lon="-2.6359740">
        <ele>31.4</ele>
        <time>2022-11-01T13:04:04Z</time>
      </trkpt>
      <trkpt lat="36.7300360" lon="-2.6359110">
        <ele>31.4</ele>
        <time>2022-11-01T13:04:05Z</time>
      </trkpt>
      <trkpt lat="36.7300510" lon="-2.6358460">
        <ele>31.2</ele>
        <time>2022-11-01T13:04:06Z</time>
      </trkpt>
      <trkpt lat="36.7300720" lon="-2.6357780">
        <ele>31.2</ele>
        <time>2022-11-01T13:04:07Z</time>
      </trkpt>
      <trkpt lat="36.7300950" lon="-2.6357100">
        <ele>31.0</ele>
        <time>2022-11-01T13:04:08Z</time>
      </trkpt>
      <trkpt lat="36.7301170" lon="-2.6356400">
        <ele>31.0</ele>
        <time>2022-11-01T13:04:09Z</time>
      </trkpt>
      <trkpt lat="36.7301410" lon="-2.6355640">
        <ele>31.0</ele>
        <time>2022-11-01T13:04:10Z</time>
      </trkpt>
      <trkpt lat="36.7301620" lon="-2.6354930">
        <ele>31.0</ele>
        <time>2022-11-01T13:04:11Z</time>
      </trkpt>
      <trkpt lat="36.7301820" lon="-2.6354190">
        <ele>31.0</ele>
        <time>2022-11-01T13:04:12Z</time>
      </trkpt>
      <trkpt lat="36.7302000" lon="-2.6353470">
        <ele>31.0</ele>
        <time>2022-11-01T13:04:13Z</time>
      </trkpt>
      <trkpt lat="36.7302190" lon="-2.6352740">
        <ele>31.0</ele>
        <time>2022-11-01T13:04:14Z</time>
      </trkpt>
      <trkpt lat="36.7302430" lon="-2.6352020">
        <ele>31.0</ele>
        <time>2022-11-01T13:04:15Z</time>
      </trkpt>
      <trkpt lat="36.7302630" lon="-2.6351290">
        <ele>31.0</ele>
        <time>2022-11-01T13:04:16Z</time>
      </trkpt>
      <trkpt lat="36.7302830" lon="-2.6350560">
        <ele>31.0</ele>
        <time>2022-11-01T13:04:17Z</time>
      </trkpt>
      <trkpt lat="36.7303020" lon="-2.6349820">
        <ele>31.0</ele>
        <time>2022-11-01T13:04:18Z</time>
      </trkpt>
      <trkpt lat="36.7303190" lon="-2.6349050">
        <ele>30.8</ele>
        <time>2022-11-01T13:04:19Z</time>
      </trkpt>
      <trkpt lat="36.7303410" lon="-2.6348260">
        <ele>30.8</ele>
        <time>2022-11-01T13:04:20Z</time>
      </trkpt>
      <trkpt lat="36.7303620" lon="-2.6347510">
        <ele>30.8</ele>
        <time>2022-11-01T13:04:21Z</time>
      </trkpt>
      <trkpt lat="36.7303820" lon="-2.6346770">
        <ele>30.6</ele>
        <time>2022-11-01T13:04:22Z</time>
      </trkpt>
      <trkpt lat="36.7304020" lon="-2.6346010">
        <ele>30.6</ele>
        <time>2022-11-01T13:04:23Z</time>
      </trkpt>
      <trkpt lat="36.7304180" lon="-2.6345260">
        <ele>30.6</ele>
        <time>2022-11-01T13:04:24Z</time>
      </trkpt>
      <trkpt lat="36.7304390" lon="-2.6344490">
        <ele>30.6</ele>
        <time>2022-11-01T13:04:25Z</time>
      </trkpt>
      <trkpt lat="36.7304590" lon="-2.6343710">
        <ele>30.6</ele>
        <time>2022-11-01T13:04:26Z</time>
      </trkpt>
      <trkpt lat="36.7304780" lon="-2.6342950">
        <ele>30.6</ele>
        <time>2022-11-01T13:04:27Z</time>
      </trkpt>
      <trkpt lat="36.7305000" lon="-2.6342190">
        <ele>30.6</ele>
        <time>2022-11-01T13:04:28Z</time>
      </trkpt>
      <trkpt lat="36.7305250" lon="-2.6341450">
        <ele>30.4</ele>
        <time>2022-11-01T13:04:29Z</time>
      </trkpt>
      <trkpt lat="36.7305410" lon="-2.6340730">
        <ele>30.4</ele>
        <time>2022-11-01T13:04:30Z</time>
      </trkpt>
      <trkpt lat="36.7305570" lon="-2.6340030">
        <ele>30.6</ele>
        <time>2022-11-01T13:04:31Z</time>
      </trkpt>
      <trkpt lat="36.7305730" lon="-2.6339320">
        <ele>30.6</ele>
        <time>2022-11-01T13:04:32Z</time>
      </trkpt>
      <trkpt lat="36.7305870" lon="-2.6338610">
        <ele>30.6</ele>
        <time>2022-11-01T13:04:33Z</time>
      </trkpt>
      <trkpt lat="36.7306030" lon="-2.6337920">
        <ele>30.6</ele>
        <time>2022-11-01T13:04:34Z</time>
      </trkpt>
      <trkpt lat="36.7306140" lon="-2.6337270">
        <ele>30.6</ele>
        <time>2022-11-01T13:04:35Z</time>
      </trkpt>
      <trkpt lat="36.7306360" lon="-2.6336590">
        <ele>30.6</ele>
        <time>2022-11-01T13:04:36Z</time>
      </trkpt>
      <trkpt lat="36.7306550" lon="-2.6335970">
        <ele>30.6</ele>
        <time>2022-11-01T13:04:37Z</time>
      </trkpt>
      <trkpt lat="36.7306650" lon="-2.6335370">
        <ele>30.6</ele>
        <time>2022-11-01T13:04:38Z</time>
      </trkpt>
      <trkpt lat="36.7306820" lon="-2.6334730">
        <ele>30.4</ele>
        <time>2022-11-01T13:04:39Z</time>
      </trkpt>
      <trkpt lat="36.7306980" lon="-2.6334050">
        <ele>30.4</ele>
        <time>2022-11-01T13:04:40Z</time>
      </trkpt>
      <trkpt lat="36.7307210" lon="-2.6333380">
        <ele>30.4</ele>
        <time>2022-11-01T13:04:41Z</time>
      </trkpt>
      <trkpt lat="36.7307400" lon="-2.6332700">
        <ele>30.4</ele>
        <time>2022-11-01T13:04:42Z</time>
      </trkpt>
      <trkpt lat="36.7307560" lon="-2.6332020">
        <ele>30.4</ele>
        <time>2022-11-01T13:04:43Z</time>
      </trkpt>
      <trkpt lat="36.7307690" lon="-2.6331390">
        <ele>30.2</ele>
        <time>2022-11-01T13:04:44Z</time>
      </trkpt>
      <trkpt lat="36.7307890" lon="-2.6330760">
        <ele>30.2</ele>
        <time>2022-11-01T13:04:45Z</time>
      </trkpt>
      <trkpt lat="36.7308040" lon="-2.6330140">
        <ele>30.2</ele>
        <time>2022-11-01T13:04:46Z</time>
      </trkpt>
      <trkpt lat="36.7308190" lon="-2.6329560">
        <ele>30.2</ele>
        <time>2022-11-01T13:04:47Z</time>
      </trkpt>
      <trkpt lat="36.7308340" lon="-2.6328940">
        <ele>30.2</ele>
        <time>2022-11-01T13:04:48Z</time>
      </trkpt>
      <trkpt lat="36.7308520" lon="-2.6328320">
        <ele>30.2</ele>
        <time>2022-11-01T13:04:49Z</time>
      </trkpt>
      <trkpt lat="36.7308690" lon="-2.6327700">
        <ele>30.0</ele>
        <time>2022-11-01T13:04:50Z</time>
      </trkpt>
      <trkpt lat="36.7308940" lon="-2.6327060">
        <ele>30.2</ele>
        <time>2022-11-01T13:04:51Z</time>
      </trkpt>
      <trkpt lat="36.7309090" lon="-2.6326430">
        <ele>30.0</ele>
        <time>2022-11-01T13:04:52Z</time>
      </trkpt>
      <trkpt lat="36.7309220" lon="-2.6325860">
        <ele>30.2</ele>
        <time>2022-11-01T13:04:53Z</time>
      </trkpt>
      <trkpt lat="36.7309370" lon="-2.6325290">
        <ele>30.2</ele>
        <time>2022-11-01T13:04:54Z</time>
      </trkpt>
      <trkpt lat="36.7309520" lon="-2.6324700">
        <ele>30.0</ele>
        <time>2022-11-01T13:04:55Z</time>
      </trkpt>
      <trkpt lat="36.7309660" lon="-2.6324110">
        <ele>30.0</ele>
        <time>2022-11-01T13:04:56Z</time>
      </trkpt>
      <trkpt lat="36.7309820" lon="-2.6323590">
        <ele>30.2</ele>
        <time>2022-11-01T13:04:57Z</time>
      </trkpt>
      <trkpt lat="36.7309940" lon="-2.6323110">
        <ele>30.0</ele>
        <time>2022-11-01T13:04:58Z</time>
      </trkpt>
      <trkpt lat="36.7310080" lon="-2.6322700">
        <ele>30.0</ele>
        <time>2022-11-01T13:04:59Z</time>
      </trkpt>
      <trkpt lat="36.7310160" lon="-2.6322430">
        <ele>30.0</ele>
        <time>2022-11-01T13:05:00Z</time>
      </trkpt>
      <trkpt lat="36.7310240" lon="-2.6322190">
        <ele>30.0</ele>
        <time>2022-11-01T13:05:01Z</time>
      </trkpt>
      <trkpt lat="36.7310300" lon="-2.6322010">
        <ele>30.0</ele>
        <time>2022-11-01T13:05:02Z</time>
      </trkpt>
      <trkpt lat="36.7310350" lon="-2.6321850">
        <ele>30.2</ele>
        <time>2022-11-01T13:05:03Z</time>
      </trkpt>
      <trkpt lat="36.7310350" lon="-2.6321760">
        <ele>30.0</ele>
        <time>2022-11-01T13:05:04Z</time>
      </trkpt>
      <trkpt lat="36.7310340" lon="-2.6321710">
        <ele>30.0</ele>
        <time>2022-11-01T13:05:05Z</time>
      </trkpt>
      <trkpt lat="36.7310360" lon="-2.6321710">
        <ele>30.0</ele>
        <time>2022-11-01T13:05:06Z</time>
      </trkpt>
      <trkpt lat="36.7310360" lon="-2.6321690">
        <ele>30.0</ele>
        <time>2022-11-01T13:05:07Z</time>
      </trkpt>
      <trkpt lat="36.7310790" lon="-2.6320450">
        <ele>30.0</ele>
        <time>2022-11-01T13:05:24Z</time>
      </trkpt>
      <trkpt lat="36.7310790" lon="-2.6320450">
        <ele>30.0</ele>
        <time>2022-11-01T13:05:25Z</time>
      </trkpt>
      <trkpt lat="36.7310960" lon="-2.6319970">
        <ele>30.0</ele>
        <time>2022-11-01T13:05:26Z</time>
      </trkpt>
      <trkpt lat="36.7311090" lon="-2.6319410">
        <ele>29.8</ele>
        <time>2022-11-01T13:05:27Z</time>
      </trkpt>
      <trkpt lat="36.7311180" lon="-2.6318860">
        <ele>29.8</ele>
        <time>2022-11-01T13:05:28Z</time>
      </trkpt>
      <trkpt lat="36.7311270" lon="-2.6318300">
        <ele>29.8</ele>
        <time>2022-11-01T13:05:29Z</time>
      </trkpt>
      <trkpt lat="36.7311360" lon="-2.6317760">
        <ele>29.8</ele>
        <time>2022-11-01T13:05:30Z</time>
      </trkpt>
      <trkpt lat="36.7311480" lon="-2.6317220">
        <ele>29.8</ele>
        <time>2022-11-01T13:05:31Z</time>
      </trkpt>
      <trkpt lat="36.7311600" lon="-2.6316690">
        <ele>29.8</ele>
        <time>2022-11-01T13:05:32Z</time>
      </trkpt>
      <trkpt lat="36.7311720" lon="-2.6316170">
        <ele>30.0</ele>
        <time>2022-11-01T13:05:33Z</time>
      </trkpt>
      <trkpt lat="36.7311900" lon="-2.6315540">
        <ele>29.8</ele>
        <time>2022-11-01T13:05:34Z</time>
      </trkpt>
      <trkpt lat="36.7312070" lon="-2.6314870">
        <ele>29.8</ele>
        <time>2022-11-01T13:05:35Z</time>
      </trkpt>
      <trkpt lat="36.7312230" lon="-2.6314230">
        <ele>29.8</ele>
        <time>2022-11-01T13:05:36Z</time>
      </trkpt>
      <trkpt lat="36.7312420" lon="-2.6313600">
        <ele>29.8</ele>
        <time>2022-11-01T13:05:37Z</time>
      </trkpt>
      <trkpt lat="36.7312570" lon="-2.6312980">
        <ele>29.8</ele>
        <time>2022-11-01T13:05:38Z</time>
      </trkpt>
      <trkpt lat="36.7312690" lon="-2.6312390">
        <ele>29.8</ele>
        <time>2022-11-01T13:05:39Z</time>
      </trkpt>
      <trkpt lat="36.7312840" lon="-2.6311790">
        <ele>29.8</ele>
        <time>2022-11-01T13:05:40Z</time>
      </trkpt>
      <trkpt lat="36.7312990" lon="-2.6311200">
        <ele>29.8</ele>
        <time>2022-11-01T13:05:41Z</time>
      </trkpt>
      <trkpt lat="36.7313140" lon="-2.6310620">
        <ele>30.0</ele>
        <time>2022-11-01T13:05:42Z</time>
      </trkpt>
      <trkpt lat="36.7313280" lon="-2.6310030">
        <ele>30.0</ele>
        <time>2022-11-01T13:05:43Z</time>
      </trkpt>
      <trkpt lat="36.7313430" lon="-2.6309440">
        <ele>30.0</ele>
        <time>2022-11-01T13:05:44Z</time>
      </trkpt>
      <trkpt lat="36.7313590" lon="-2.6308830">
        <ele>30.0</ele>
        <time>2022-11-01T13:05:45Z</time>
      </trkpt>
      <trkpt lat="36.7313740" lon="-2.6308230">
        <ele>30.0</ele>
        <time>2022-11-01T13:05:46Z</time>
      </trkpt>
      <trkpt lat="36.7313890" lon="-2.6307630">
        <ele>30.0</ele>
        <time>2022-11-01T13:05:47Z</time>
      </trkpt>
      <trkpt lat="36.7314030" lon="-2.6307050">
        <ele>30.0</ele>
        <time>2022-11-01T13:05:48Z</time>
      </trkpt>
      <trkpt lat="36.7314160" lon="-2.6306460">
        <ele>30.0</ele>
        <time>2022-11-01T13:05:49Z</time>
      </trkpt>
      <trkpt lat="36.7314300" lon="-2.6305900">
        <ele>30.0</ele>
        <time>2022-11-01T13:05:50Z</time>
      </trkpt>
      <trkpt lat="36.7314470" lon="-2.6305310">
        <ele>30.0</ele>
        <time>2022-11-01T13:05:51Z</time>
      </trkpt>
      <trkpt lat="36.7314620" lon="-2.6304710">
        <ele>30.0</ele>
        <time>2022-11-01T13:05:52Z</time>
      </trkpt>
      <trkpt lat="36.7314760" lon="-2.6304170">
        <ele>30.0</ele>
        <time>2022-11-01T13:05:53Z</time>
      </trkpt>
      <trkpt lat="36.7314880" lon="-2.6303820">
        <ele>30.0</ele>
        <time>2022-11-01T13:05:54Z</time>
      </trkpt>
      <trkpt lat="36.7314990" lon="-2.6303570">
        <ele>30.0</ele>
        <time>2022-11-01T13:05:55Z</time>
      </trkpt>
      <trkpt lat="36.7315060" lon="-2.6303450">
        <ele>30.0</ele>
        <time>2022-11-01T13:05:56Z</time>
      </trkpt>
      <trkpt lat="36.7315090" lon="-2.6303410">
        <ele>30.0</ele>
        <time>2022-11-01T13:05:57Z</time>
      </trkpt>
      <trkpt lat="36.7315100" lon="-2.6303400">
        <ele>30.0</ele>
        <time>2022-11-01T13:05:58Z</time>
      </trkpt>
      <trkpt lat="36.7315130" lon="-2.6303380">
        <ele>30.0</ele>
        <time>2022-11-01T13:05:59Z</time>
      </trkpt>
      <trkpt lat="36.7315140" lon="-2.6303360">
        <ele>30.0</ele>
        <time>2022-11-01T13:06:00Z</time>
      </trkpt>
      <trkpt lat="36.7315450" lon="-2.6302660">
        <ele>30.0</ele>
        <time>2022-11-01T13:06:21Z</time>
      </trkpt>
      <trkpt lat="36.7315550" lon="-2.6302330">
        <ele>30.0</ele>
        <time>2022-11-01T13:06:22Z</time>
      </trkpt>
      <trkpt lat="36.7315520" lon="-2.6301970">
        <ele>30.0</ele>
        <time>2022-11-01T13:06:23Z</time>
      </trkpt>
      <trkpt lat="36.7315590" lon="-2.6301570">
        <ele>30.0</ele>
        <time>2022-11-01T13:06:24Z</time>
      </trkpt>
      <trkpt lat="36.7315660" lon="-2.6301180">
        <ele>30.0</ele>
        <time>2022-11-01T13:06:25Z</time>
      </trkpt>
      <trkpt lat="36.7315760" lon="-2.6300790">
        <ele>30.0</ele>
        <time>2022-11-01T13:06:26Z</time>
      </trkpt>
      <trkpt lat="36.7315870" lon="-2.6300420">
        <ele>30.0</ele>
        <time>2022-11-01T13:06:27Z</time>
      </trkpt>
      <trkpt lat="36.7315960" lon="-2.6300040">
        <ele>30.0</ele>
        <time>2022-11-01T13:06:28Z</time>
      </trkpt>
      <trkpt lat="36.7316070" lon="-2.6299650">
        <ele>30.0</ele>
        <time>2022-11-01T13:06:29Z</time>
      </trkpt>
      <trkpt lat="36.7316170" lon="-2.6299270">
        <ele>30.0</ele>
        <time>2022-11-01T13:06:30Z</time>
      </trkpt>
      <trkpt lat="36.7316270" lon="-2.6298870">
        <ele>30.0</ele>
        <time>2022-11-01T13:06:31Z</time>
      </trkpt>
      <trkpt lat="36.7316350" lon="-2.6298490">
        <ele>30.0</ele>
        <time>2022-11-01T13:06:32Z</time>
      </trkpt>
      <trkpt lat="36.7316450" lon="-2.6298110">
        <ele>30.0</ele>
        <time>2022-11-01T13:06:33Z</time>
      </trkpt>
      <trkpt lat="36.7316570" lon="-2.6297710">
        <ele>30.0</ele>
        <time>2022-11-01T13:06:34Z</time>
      </trkpt>
      <trkpt lat="36.7316690" lon="-2.6297310">
        <ele>30.0</ele>
        <time>2022-11-01T13:06:35Z</time>
      </trkpt>
      <trkpt lat="36.7316650" lon="-2.6297030">
        <ele>30.0</ele>
        <time>2022-11-01T13:06:36Z</time>
      </trkpt>
      <trkpt lat="36.7316720" lon="-2.6296660">
        <ele>30.0</ele>
        <time>2022-11-01T13:06:37Z</time>
      </trkpt>
      <trkpt lat="36.7316830" lon="-2.6296260">
        <ele>30.0</ele>
        <time>2022-11-01T13:06:38Z</time>
      </trkpt>
      <trkpt lat="36.7316970" lon="-2.6295820">
        <ele>30.0</ele>
        <time>2022-11-01T13:06:39Z</time>
      </trkpt>
      <trkpt lat="36.7317110" lon="-2.6295320">
        <ele>30.2</ele>
        <time>2022-11-01T13:06:40Z</time>
      </trkpt>
      <trkpt lat="36.7317270" lon="-2.6294780">
        <ele>30.2</ele>
        <time>2022-11-01T13:06:41Z</time>
      </trkpt>
      <trkpt lat="36.7317420" lon="-2.6294210">
        <ele>30.2</ele>
        <time>2022-11-01T13:06:42Z</time>
      </trkpt>
      <trkpt lat="36.7317590" lon="-2.6293580">
        <ele>30.2</ele>
        <time>2022-11-01T13:06:43Z</time>
      </trkpt>
      <trkpt lat="36.7317770" lon="-2.6292920">
        <ele>30.2</ele>
        <time>2022-11-01T13:06:44Z</time>
      </trkpt>
      <trkpt lat="36.7317960" lon="-2.6292290">
        <ele>30.2</ele>
        <time>2022-11-01T13:06:45Z</time>
      </trkpt>
      <trkpt lat="36.7318080" lon="-2.6291760">
        <ele>30.2</ele>
        <time>2022-11-01T13:06:46Z</time>
      </trkpt>
      <trkpt lat="36.7318230" lon="-2.6291120">
        <ele>30.2</ele>
        <time>2022-11-01T13:06:47Z</time>
      </trkpt>
      <trkpt lat="36.7318400" lon="-2.6290410">
        <ele>30.2</ele>
        <time>2022-11-01T13:06:48Z</time>
      </trkpt>
      <trkpt lat="36.7318560" lon="-2.6289730">
        <ele>30.2</ele>
        <time>2022-11-01T13:06:49Z</time>
      </trkpt>
      <trkpt lat="36.7318730" lon="-2.6289050">
        <ele>30.2</ele>
        <time>2022-11-01T13:06:50Z</time>
      </trkpt>
      <trkpt lat="36.7318880" lon="-2.6288370">
        <ele>30.2</ele>
        <time>2022-11-01T13:06:51Z</time>
      </trkpt>
      <trkpt lat="36.7319030" lon="-2.6287700">
        <ele>30.2</ele>
        <time>2022-11-01T13:06:52Z</time>
      </trkpt>
      <trkpt lat="36.7319170" lon="-2.6287030">
        <ele>30.2</ele>
        <time>2022-11-01T13:06:53Z</time>
      </trkpt>
      <trkpt lat="36.7319310" lon="-2.6286390">
        <ele>30.2</ele>
        <time>2022-11-01T13:06:54Z</time>
      </trkpt>
      <trkpt lat="36.7319460" lon="-2.6285740">
        <ele>30.2</ele>
        <time>2022-11-01T13:06:55Z</time>
      </trkpt>
      <trkpt lat="36.7319610" lon="-2.6285070">
        <ele>30.2</ele>
        <time>2022-11-01T13:06:56Z</time>
      </trkpt>
      <trkpt lat="36.7319720" lon="-2.6284400">
        <ele>30.2</ele>
        <time>2022-11-01T13:06:57Z</time>
      </trkpt>
      <trkpt lat="36.7319860" lon="-2.6283720">
        <ele>30.2</ele>
        <time>2022-11-01T13:06:58Z</time>
      </trkpt>
      <trkpt lat="36.7319980" lon="-2.6283070">
        <ele>30.2</ele>
        <time>2022-11-01T13:06:59Z</time>
      </trkpt>
      <trkpt lat="36.7320090" lon="-2.6282450">
        <ele>30.2</ele>
        <time>2022-11-01T13:07:00Z</time>
      </trkpt>
      <trkpt lat="36.7320160" lon="-2.6281960">
        <ele>30.2</ele>
        <time>2022-11-01T13:07:01Z</time>
      </trkpt>
      <trkpt lat="36.7320190" lon="-2.6281500">
        <ele>30.4</ele>
        <time>2022-11-01T13:07:02Z</time>
      </trkpt>
      <trkpt lat="36.7320190" lon="-2.6281060">
        <ele>30.4</ele>
        <time>2022-11-01T13:07:03Z</time>
      </trkpt>
      <trkpt lat="36.7320170" lon="-2.6280480">
        <ele>30.4</ele>
        <time>2022-11-01T13:07:04Z</time>
      </trkpt>
      <trkpt lat="36.7320070" lon="-2.6279860">
        <ele>30.4</ele>
        <time>2022-11-01T13:07:05Z</time>
      </trkpt>
      <trkpt lat="36.7319920" lon="-2.6279240">
        <ele>30.6</ele>
        <time>2022-11-01T13:07:06Z</time>
      </trkpt>
      <trkpt lat="36.7319800" lon="-2.6278600">
        <ele>30.6</ele>
        <time>2022-11-01T13:07:07Z</time>
      </trkpt>
      <trkpt lat="36.7319740" lon="-2.6277930">
        <ele>30.6</ele>
        <time>2022-11-01T13:07:08Z</time>
      </trkpt>
      <trkpt lat="36.7319750" lon="-2.6277240">
        <ele>30.6</ele>
        <time>2022-11-01T13:07:09Z</time>
      </trkpt>
      <trkpt lat="36.7319840" lon="-2.6276560">
        <ele>30.6</ele>
        <time>2022-11-01T13:07:10Z</time>
      </trkpt>
      <trkpt lat="36.7320000" lon="-2.6275890">
        <ele>30.6</ele>
        <time>2022-11-01T13:07:11Z</time>
      </trkpt>
      <trkpt lat="36.7320180" lon="-2.6275220">
        <ele>30.6</ele>
        <time>2022-11-01T13:07:12Z</time>
      </trkpt>
      <trkpt lat="36.7320390" lon="-2.6274580">
        <ele>30.6</ele>
        <time>2022-11-01T13:07:13Z</time>
      </trkpt>
      <trkpt lat="36.7320600" lon="-2.6273980">
        <ele>30.6</ele>
        <time>2022-11-01T13:07:14Z</time>
      </trkpt>
      <trkpt lat="36.7320820" lon="-2.6273430">
        <ele>30.6</ele>
        <time>2022-11-01T13:07:15Z</time>
      </trkpt>
      <trkpt lat="36.7321030" lon="-2.6272900">
        <ele>30.6</ele>
        <time>2022-11-01T13:07:16Z</time>
      </trkpt>
      <trkpt lat="36.7321220" lon="-2.6272360">
        <ele>30.6</ele>
        <time>2022-11-01T13:07:17Z</time>
      </trkpt>
      <trkpt lat="36.7321390" lon="-2.6271830">
        <ele>30.8</ele>
        <time>2022-11-01T13:07:18Z</time>
      </trkpt>
      <trkpt lat="36.7321550" lon="-2.6271310">
        <ele>30.8</ele>
        <time>2022-11-01T13:07:19Z</time>
      </trkpt>
      <trkpt lat="36.7321700" lon="-2.6270780">
        <ele>30.8</ele>
        <time>2022-11-01T13:07:20Z</time>
      </trkpt>
      <trkpt lat="36.7321820" lon="-2.6270240">
        <ele>30.8</ele>
        <time>2022-11-01T13:07:21Z</time>
      </trkpt>
      <trkpt lat="36.7321930" lon="-2.6269730">
        <ele>30.8</ele>
        <time>2022-11-01T13:07:22Z</time>
      </trkpt>
      <trkpt lat="36.7322080" lon="-2.6269200">
        <ele>30.8</ele>
        <time>2022-11-01T13:07:23Z</time>
      </trkpt>
      <trkpt lat="36.7322230" lon="-2.6268680">
        <ele>30.8</ele>
        <time>2022-11-01T13:07:24Z</time>
      </trkpt>
      <trkpt lat="36.7322410" lon="-2.6268140">
        <ele>30.8</ele>
        <time>2022-11-01T13:07:25Z</time>
      </trkpt>
      <trkpt lat="36.7322610" lon="-2.6267590">
        <ele>30.8</ele>
        <time>2022-11-01T13:07:26Z</time>
      </trkpt>
      <trkpt lat="36.7322820" lon="-2.6267030">
        <ele>30.8</ele>
        <time>2022-11-01T13:07:27Z</time>
      </trkpt>
      <trkpt lat="36.7323040" lon="-2.6266450">
        <ele>30.8</ele>
        <time>2022-11-01T13:07:28Z</time>
      </trkpt>
      <trkpt lat="36.7323270" lon="-2.6265840">
        <ele>31.0</ele>
        <time>2022-11-01T13:07:29Z</time>
      </trkpt>
      <trkpt lat="36.7323480" lon="-2.6265250">
        <ele>30.8</ele>
        <time>2022-11-01T13:07:30Z</time>
      </trkpt>
      <trkpt lat="36.7323740" lon="-2.6264650">
        <ele>30.8</ele>
        <time>2022-11-01T13:07:31Z</time>
      </trkpt>
      <trkpt lat="36.7323990" lon="-2.6264080">
        <ele>30.8</ele>
        <time>2022-11-01T13:07:32Z</time>
      </trkpt>
      <trkpt lat="36.7324250" lon="-2.6263520">
        <ele>30.8</ele>
        <time>2022-11-01T13:07:33Z</time>
      </trkpt>
      <trkpt lat="36.7324530" lon="-2.6262980">
        <ele>30.8</ele>
        <time>2022-11-01T13:07:34Z</time>
      </trkpt>
      <trkpt lat="36.7324790" lon="-2.6262450">
        <ele>30.8</ele>
        <time>2022-11-01T13:07:35Z</time>
      </trkpt>
      <trkpt lat="36.7325100" lon="-2.6261920">
        <ele>30.8</ele>
        <time>2022-11-01T13:07:36Z</time>
      </trkpt>
      <trkpt lat="36.7325410" lon="-2.6261370">
        <ele>30.8</ele>
        <time>2022-11-01T13:07:37Z</time>
      </trkpt>
      <trkpt lat="36.7325680" lon="-2.6260850">
        <ele>30.8</ele>
        <time>2022-11-01T13:07:38Z</time>
      </trkpt>
      <trkpt lat="36.7325990" lon="-2.6260310">
        <ele>30.8</ele>
        <time>2022-11-01T13:07:39Z</time>
      </trkpt>
      <trkpt lat="36.7326300" lon="-2.6259760">
        <ele>30.8</ele>
        <time>2022-11-01T13:07:40Z</time>
      </trkpt>
      <trkpt lat="36.7326620" lon="-2.6259230">
        <ele>30.8</ele>
        <time>2022-11-01T13:07:41Z</time>
      </trkpt>
      <trkpt lat="36.7326950" lon="-2.6258700">
        <ele>31.0</ele>
        <time>2022-11-01T13:07:42Z</time>
      </trkpt>
      <trkpt lat="36.7327270" lon="-2.6258170">
        <ele>31.0</ele>
        <time>2022-11-01T13:07:43Z</time>
      </trkpt>
      <trkpt lat="36.7327580" lon="-2.6257650">
        <ele>31.0</ele>
        <time>2022-11-01T13:07:44Z</time>
      </trkpt>
      <trkpt lat="36.7327890" lon="-2.6257120">
        <ele>31.0</ele>
        <time>2022-11-01T13:07:45Z</time>
      </trkpt>
      <trkpt lat="36.7328200" lon="-2.6256620">
        <ele>31.0</ele>
        <time>2022-11-01T13:07:46Z</time>
      </trkpt>
      <trkpt lat="36.7328480" lon="-2.6256130">
        <ele>31.0</ele>
        <time>2022-11-01T13:07:47Z</time>
      </trkpt>
      <trkpt lat="36.7328780" lon="-2.6255670">
        <ele>31.0</ele>
        <time>2022-11-01T13:07:48Z</time>
      </trkpt>
      <trkpt lat="36.7329040" lon="-2.6255230">
        <ele>31.0</ele>
        <time>2022-11-01T13:07:49Z</time>
      </trkpt>
      <trkpt lat="36.7329280" lon="-2.6254760">
        <ele>31.0</ele>
        <time>2022-11-01T13:07:50Z</time>
      </trkpt>
      <trkpt lat="36.7329540" lon="-2.6254280">
        <ele>31.0</ele>
        <time>2022-11-01T13:07:51Z</time>
      </trkpt>
      <trkpt lat="36.7329790" lon="-2.6253830">
        <ele>31.0</ele>
        <time>2022-11-01T13:07:52Z</time>
      </trkpt>
      <trkpt lat="36.7330060" lon="-2.6253390">
        <ele>31.0</ele>
        <time>2022-11-01T13:07:53Z</time>
      </trkpt>
      <trkpt lat="36.7330330" lon="-2.6252930">
        <ele>31.0</ele>
        <time>2022-11-01T13:07:54Z</time>
      </trkpt>
      <trkpt lat="36.7330510" lon="-2.6252470">
        <ele>31.0</ele>
        <time>2022-11-01T13:07:55Z</time>
      </trkpt>
      <trkpt lat="36.7330760" lon="-2.6251980">
        <ele>31.0</ele>
        <time>2022-11-01T13:07:56Z</time>
      </trkpt>
      <trkpt lat="36.7331110" lon="-2.6251500">
        <ele>31.0</ele>
        <time>2022-11-01T13:07:57Z</time>
      </trkpt>
      <trkpt lat="36.7331420" lon="-2.6251020">
        <ele>31.0</ele>
        <time>2022-11-01T13:07:58Z</time>
      </trkpt>
      <trkpt lat="36.7331700" lon="-2.6250530">
        <ele>31.0</ele>
        <time>2022-11-01T13:07:59Z</time>
      </trkpt>
      <trkpt lat="36.7331970" lon="-2.6250070">
        <ele>31.0</ele>
        <time>2022-11-01T13:08:00Z</time>
      </trkpt>
      <trkpt lat="36.7332180" lon="-2.6249610">
        <ele>31.0</ele>
        <time>2022-11-01T13:08:01Z</time>
      </trkpt>
      <trkpt lat="36.7332390" lon="-2.6249100">
        <ele>31.0</ele>
        <time>2022-11-01T13:08:02Z</time>
      </trkpt>
      <trkpt lat="36.7332610" lon="-2.6248620">
        <ele>31.0</ele>
        <time>2022-11-01T13:08:03Z</time>
      </trkpt>
      <trkpt lat="36.7332870" lon="-2.6248160">
        <ele>31.0</ele>
        <time>2022-11-01T13:08:04Z</time>
      </trkpt>
      <trkpt lat="36.7333130" lon="-2.6247690">
        <ele>31.0</ele>
        <time>2022-11-01T13:08:05Z</time>
      </trkpt>
      <trkpt lat="36.7333420" lon="-2.6247180">
        <ele>31.0</ele>
        <time>2022-11-01T13:08:06Z</time>
      </trkpt>
      <trkpt lat="36.7333690" lon="-2.6246640">
        <ele>31.0</ele>
        <time>2022-11-01T13:08:07Z</time>
      </trkpt>
      <trkpt lat="36.7333970" lon="-2.6246060">
        <ele>31.0</ele>
        <time>2022-11-01T13:08:08Z</time>
      </trkpt>
      <trkpt lat="36.7334260" lon="-2.6245450">
        <ele>31.0</ele>
        <time>2022-11-01T13:08:09Z</time>
      </trkpt>
      <trkpt lat="36.7334540" lon="-2.6244820">
        <ele>30.8</ele>
        <time>2022-11-01T13:08:10Z</time>
      </trkpt>
      <trkpt lat="36.7334820" lon="-2.6244230">
        <ele>30.8</ele>
        <time>2022-11-01T13:08:11Z</time>
      </trkpt>
      <trkpt lat="36.7335090" lon="-2.6243640">
        <ele>30.8</ele>
        <time>2022-11-01T13:08:12Z</time>
      </trkpt>
      <trkpt lat="36.7335360" lon="-2.6243000">
        <ele>30.8</ele>
        <time>2022-11-01T13:08:13Z</time>
      </trkpt>
      <trkpt lat="36.7335640" lon="-2.6242360">
        <ele>30.6</ele>
        <time>2022-11-01T13:08:14Z</time>
      </trkpt>
      <trkpt lat="36.7335890" lon="-2.6241710">
        <ele>30.6</ele>
        <time>2022-11-01T13:08:15Z</time>
      </trkpt>
      <trkpt lat="36.7336150" lon="-2.6241120">
        <ele>30.6</ele>
        <time>2022-11-01T13:08:16Z</time>
      </trkpt>
      <trkpt lat="36.7336440" lon="-2.6240470">
        <ele>30.6</ele>
        <time>2022-11-01T13:08:17Z</time>
      </trkpt>
      <trkpt lat="36.7336730" lon="-2.6239800">
        <ele>30.6</ele>
        <time>2022-11-01T13:08:18Z</time>
      </trkpt>
      <trkpt lat="36.7337010" lon="-2.6239140">
        <ele>30.6</ele>
        <time>2022-11-01T13:08:19Z</time>
      </trkpt>
      <trkpt lat="36.7337280" lon="-2.6238490">
        <ele>30.6</ele>
        <time>2022-11-01T13:08:20Z</time>
      </trkpt>
      <trkpt lat="36.7337580" lon="-2.6237810">
        <ele>30.6</ele>
        <time>2022-11-01T13:08:21Z</time>
      </trkpt>
      <trkpt lat="36.7337890" lon="-2.6237130">
        <ele>30.6</ele>
        <time>2022-11-01T13:08:22Z</time>
      </trkpt>
      <trkpt lat="36.7338170" lon="-2.6236560">
        <ele>30.6</ele>
        <time>2022-11-01T13:08:23Z</time>
      </trkpt>
      <trkpt lat="36.7338480" lon="-2.6235920">
        <ele>30.6</ele>
        <time>2022-11-01T13:08:24Z</time>
      </trkpt>
      <trkpt lat="36.7338790" lon="-2.6235260">
        <ele>30.6</ele>
        <time>2022-11-01T13:08:25Z</time>
      </trkpt>
      <trkpt lat="36.7339080" lon="-2.6234650">
        <ele>30.6</ele>
        <time>2022-11-01T13:08:26Z</time>
      </trkpt>
      <trkpt lat="36.7339400" lon="-2.6234060">
        <ele>30.6</ele>
        <time>2022-11-01T13:08:27Z</time>
      </trkpt>
      <trkpt lat="36.7339760" lon="-2.6233430">
        <ele>30.4</ele>
        <time>2022-11-01T13:08:28Z</time>
      </trkpt>
      <trkpt lat="36.7340100" lon="-2.6232830">
        <ele>30.4</ele>
        <time>2022-11-01T13:08:29Z</time>
      </trkpt>
      <trkpt lat="36.7340440" lon="-2.6232210">
        <ele>30.4</ele>
        <time>2022-11-01T13:08:30Z</time>
      </trkpt>
      <trkpt lat="36.7340730" lon="-2.6231550">
        <ele>30.4</ele>
        <time>2022-11-01T13:08:31Z</time>
      </trkpt>
      <trkpt lat="36.7340880" lon="-2.6230990">
        <ele>30.4</ele>
        <time>2022-11-01T13:08:32Z</time>
      </trkpt>
      <trkpt lat="36.7341180" lon="-2.6230380">
        <ele>30.2</ele>
        <time>2022-11-01T13:08:33Z</time>
      </trkpt>
      <trkpt lat="36.7341540" lon="-2.6229770">
        <ele>30.2</ele>
        <time>2022-11-01T13:08:34Z</time>
      </trkpt>
      <trkpt lat="36.7341890" lon="-2.6229180">
        <ele>30.2</ele>
        <time>2022-11-01T13:08:35Z</time>
      </trkpt>
      <trkpt lat="36.7342240" lon="-2.6228550">
        <ele>30.2</ele>
        <time>2022-11-01T13:08:36Z</time>
      </trkpt>
      <trkpt lat="36.7342510" lon="-2.6228000">
        <ele>30.2</ele>
        <time>2022-11-01T13:08:37Z</time>
      </trkpt>
      <trkpt lat="36.7342840" lon="-2.6227400">
        <ele>30.2</ele>
        <time>2022-11-01T13:08:38Z</time>
      </trkpt>
      <trkpt lat="36.7343200" lon="-2.6226820">
        <ele>30.2</ele>
        <time>2022-11-01T13:08:39Z</time>
      </trkpt>
      <trkpt lat="36.7343560" lon="-2.6226240">
        <ele>30.2</ele>
        <time>2022-11-01T13:08:40Z</time>
      </trkpt>
      <trkpt lat="36.7343920" lon="-2.6225630">
        <ele>30.2</ele>
        <time>2022-11-01T13:08:41Z</time>
      </trkpt>
      <trkpt lat="36.7344260" lon="-2.6225030">
        <ele>30.2</ele>
        <time>2022-11-01T13:08:42Z</time>
      </trkpt>
      <trkpt lat="36.7344620" lon="-2.6224410">
        <ele>30.2</ele>
        <time>2022-11-01T13:08:43Z</time>
      </trkpt>
      <trkpt lat="36.7344910" lon="-2.6223870">
        <ele>30.2</ele>
        <time>2022-11-01T13:08:44Z</time>
      </trkpt>
      <trkpt lat="36.7345270" lon="-2.6223240">
        <ele>30.2</ele>
        <time>2022-11-01T13:08:45Z</time>
      </trkpt>
      <trkpt lat="36.7345710" lon="-2.6222690">
        <ele>30.2</ele>
        <time>2022-11-01T13:08:46Z</time>
      </trkpt>
      <trkpt lat="36.7346180" lon="-2.6222300">
        <ele>30.4</ele>
        <time>2022-11-01T13:08:47Z</time>
      </trkpt>
      <trkpt lat="36.7346650" lon="-2.6222020">
        <ele>30.4</ele>
        <time>2022-11-01T13:08:48Z</time>
      </trkpt>
      <trkpt lat="36.7347160" lon="-2.6221800">
        <ele>30.6</ele>
        <time>2022-11-01T13:08:49Z</time>
      </trkpt>
      <trkpt lat="36.7347690" lon="-2.6221510">
        <ele>30.6</ele>
        <time>2022-11-01T13:08:50Z</time>
      </trkpt>
      <trkpt lat="36.7348180" lon="-2.6221210">
        <ele>30.6</ele>
        <time>2022-11-01T13:08:51Z</time>
      </trkpt>
      <trkpt lat="36.7348610" lon="-2.6220890">
        <ele>30.6</ele>
        <time>2022-11-01T13:08:52Z</time>
      </trkpt>
      <trkpt lat="36.7349040" lon="-2.6220530">
        <ele>30.8</ele>
        <time>2022-11-01T13:08:53Z</time>
      </trkpt>
      <trkpt lat="36.7349450" lon="-2.6220130">
        <ele>30.8</ele>
        <time>2022-11-01T13:08:54Z</time>
      </trkpt>
      <trkpt lat="36.7349850" lon="-2.6219700">
        <ele>31.0</ele>
        <time>2022-11-01T13:08:55Z</time>
      </trkpt>
      <trkpt lat="36.7350270" lon="-2.6219280">
        <ele>31.0</ele>
        <time>2022-11-01T13:08:56Z</time>
      </trkpt>
      <trkpt lat="36.7350710" lon="-2.6218880">
        <ele>31.0</ele>
        <time>2022-11-01T13:08:57Z</time>
      </trkpt>
      <trkpt lat="36.7351170" lon="-2.6218500">
        <ele>31.2</ele>
        <time>2022-11-01T13:08:58Z</time>
      </trkpt>
      <trkpt lat="36.7351610" lon="-2.6218110">
        <ele>31.2</ele>
        <time>2022-11-01T13:08:59Z</time>
      </trkpt>
      <trkpt lat="36.7352060" lon="-2.6217710">
        <ele>31.2</ele>
        <time>2022-11-01T13:09:00Z</time>
      </trkpt>
      <trkpt lat="36.7352490" lon="-2.6217300">
        <ele>31.2</ele>
        <time>2022-11-01T13:09:01Z</time>
      </trkpt>
      <trkpt lat="36.7352920" lon="-2.6216890">
        <ele>31.4</ele>
        <time>2022-11-01T13:09:02Z</time>
      </trkpt>
      <trkpt lat="36.7353330" lon="-2.6216500">
        <ele>31.4</ele>
        <time>2022-11-01T13:09:03Z</time>
      </trkpt>
      <trkpt lat="36.7353750" lon="-2.6216120">
        <ele>31.6</ele>
        <time>2022-11-01T13:09:04Z</time>
      </trkpt>
      <trkpt lat="36.7354140" lon="-2.6215730">
        <ele>31.6</ele>
        <time>2022-11-01T13:09:05Z</time>
      </trkpt>
      <trkpt lat="36.7354570" lon="-2.6215330">
        <ele>31.6</ele>
        <time>2022-11-01T13:09:06Z</time>
      </trkpt>
      <trkpt lat="36.7355020" lon="-2.6214950">
        <ele>31.6</ele>
        <time>2022-11-01T13:09:07Z</time>
      </trkpt>
      <trkpt lat="36.7355470" lon="-2.6214560">
        <ele>31.6</ele>
        <time>2022-11-01T13:09:08Z</time>
      </trkpt>
      <trkpt lat="36.7355930" lon="-2.6214150">
        <ele>31.6</ele>
        <time>2022-11-01T13:09:09Z</time>
      </trkpt>
      <trkpt lat="36.7356370" lon="-2.6213730">
        <ele>31.8</ele>
        <time>2022-11-01T13:09:10Z</time>
      </trkpt>
      <trkpt lat="36.7356780" lon="-2.6213300">
        <ele>31.8</ele>
        <time>2022-11-01T13:09:11Z</time>
      </trkpt>
      <trkpt lat="36.7357220" lon="-2.6212880">
        <ele>31.8</ele>
        <time>2022-11-01T13:09:12Z</time>
      </trkpt>
      <trkpt lat="36.7357670" lon="-2.6212470">
        <ele>31.8</ele>
        <time>2022-11-01T13:09:13Z</time>
      </trkpt>
      <trkpt lat="36.7358120" lon="-2.6212050">
        <ele>31.8</ele>
        <time>2022-11-01T13:09:14Z</time>
      </trkpt>
      <trkpt lat="36.7358570" lon="-2.6211620">
        <ele>31.8</ele>
        <time>2022-11-01T13:09:15Z</time>
      </trkpt>
      <trkpt lat="36.7359020" lon="-2.6211160">
        <ele>31.8</ele>
        <time>2022-11-01T13:09:16Z</time>
      </trkpt>
      <trkpt lat="36.7359480" lon="-2.6210670">
        <ele>31.8</ele>
        <time>2022-11-01T13:09:17Z</time>
      </trkpt>
      <trkpt lat="36.7359920" lon="-2.6210170">
        <ele>31.8</ele>
        <time>2022-11-01T13:09:18Z</time>
      </trkpt>
      <trkpt lat="36.7360380" lon="-2.6209680">
        <ele>31.8</ele>
        <time>2022-11-01T13:09:19Z</time>
      </trkpt>
      <trkpt lat="36.7360830" lon="-2.6209230">
        <ele>31.8</ele>
        <time>2022-11-01T13:09:20Z</time>
      </trkpt>
      <trkpt lat="36.7361250" lon="-2.6208790">
        <ele>31.8</ele>
        <time>2022-11-01T13:09:21Z</time>
      </trkpt>
      <trkpt lat="36.7361710" lon="-2.6208360">
        <ele>31.8</ele>
        <time>2022-11-01T13:09:22Z</time>
      </trkpt>
      <trkpt lat="36.7362170" lon="-2.6207940">
        <ele>31.8</ele>
        <time>2022-11-01T13:09:23Z</time>
      </trkpt>
      <trkpt lat="36.7362630" lon="-2.6207540">
        <ele>31.8</ele>
        <time>2022-11-01T13:09:24Z</time>
      </trkpt>
      <trkpt lat="36.7363080" lon="-2.6207130">
        <ele>32.0</ele>
        <time>2022-11-01T13:09:25Z</time>
      </trkpt>
      <trkpt lat="36.7363510" lon="-2.6206710">
        <ele>31.8</ele>
        <time>2022-11-01T13:09:26Z</time>
      </trkpt>
      <trkpt lat="36.7363950" lon="-2.6206280">
        <ele>32.0</ele>
        <time>2022-11-01T13:09:27Z</time>
      </trkpt>
      <trkpt lat="36.7364420" lon="-2.6205880">
        <ele>32.0</ele>
        <time>2022-11-01T13:09:28Z</time>
      </trkpt>
      <trkpt lat="36.7364870" lon="-2.6205470">
        <ele>32.0</ele>
        <time>2022-11-01T13:09:29Z</time>
      </trkpt>
      <trkpt lat="36.7365310" lon="-2.6205050">
        <ele>31.8</ele>
        <time>2022-11-01T13:09:30Z</time>
      </trkpt>
      <trkpt lat="36.7365740" lon="-2.6204640">
        <ele>31.8</ele>
        <time>2022-11-01T13:09:31Z</time>
      </trkpt>
      <trkpt lat="36.7366190" lon="-2.6204240">
        <ele>31.8</ele>
        <time>2022-11-01T13:09:32Z</time>
      </trkpt>
      <trkpt lat="36.7366640" lon="-2.6203840">
        <ele>31.8</ele>
        <time>2022-11-01T13:09:33Z</time>
      </trkpt>
      <trkpt lat="36.7367090" lon="-2.6203430">
        <ele>31.8</ele>
        <time>2022-11-01T13:09:34Z</time>
      </trkpt>
      <trkpt lat="36.7367560" lon="-2.6203000">
        <ele>32.0</ele>
        <time>2022-11-01T13:09:35Z</time>
      </trkpt>
      <trkpt lat="36.7368030" lon="-2.6202560">
        <ele>32.0</ele>
        <time>2022-11-01T13:09:36Z</time>
      </trkpt>
      <trkpt lat="36.7368490" lon="-2.6202120">
        <ele>32.0</ele>
        <time>2022-11-01T13:09:37Z</time>
      </trkpt>
      <trkpt lat="36.7368950" lon="-2.6201700">
        <ele>32.0</ele>
        <time>2022-11-01T13:09:38Z</time>
      </trkpt>
      <trkpt lat="36.7369410" lon="-2.6201300">
        <ele>31.8</ele>
        <time>2022-11-01T13:09:39Z</time>
      </trkpt>
      <trkpt lat="36.7369860" lon="-2.6200870">
        <ele>31.8</ele>
        <time>2022-11-01T13:09:40Z</time>
      </trkpt>
      <trkpt lat="36.7370320" lon="-2.6200450">
        <ele>31.8</ele>
        <time>2022-11-01T13:09:41Z</time>
      </trkpt>
      <trkpt lat="36.7370780" lon="-2.6200060">
        <ele>31.8</ele>
        <time>2022-11-01T13:09:42Z</time>
      </trkpt>
      <trkpt lat="36.7371210" lon="-2.6199660">
        <ele>31.8</ele>
        <time>2022-11-01T13:09:43Z</time>
      </trkpt>
      <trkpt lat="36.7371660" lon="-2.6199260">
        <ele>31.8</ele>
        <time>2022-11-01T13:09:44Z</time>
      </trkpt>
      <trkpt lat="36.7372100" lon="-2.6198860">
        <ele>31.8</ele>
        <time>2022-11-01T13:09:45Z</time>
      </trkpt>
      <trkpt lat="36.7372560" lon="-2.6198460">
        <ele>31.8</ele>
        <time>2022-11-01T13:09:46Z</time>
      </trkpt>
      <trkpt lat="36.7373010" lon="-2.6198050">
        <ele>31.8</ele>
        <time>2022-11-01T13:09:47Z</time>
      </trkpt>
      <trkpt lat="36.7373450" lon="-2.6197640">
        <ele>31.8</ele>
        <time>2022-11-01T13:09:48Z</time>
      </trkpt>
      <trkpt lat="36.7373860" lon="-2.6197240">
        <ele>31.8</ele>
        <time>2022-11-01T13:09:49Z</time>
      </trkpt>
      <trkpt lat="36.7374290" lon="-2.6196840">
        <ele>31.8</ele>
        <time>2022-11-01T13:09:50Z</time>
      </trkpt>
      <trkpt lat="36.7374720" lon="-2.6196450">
        <ele>31.8</ele>
        <time>2022-11-01T13:09:51Z</time>
      </trkpt>
      <trkpt lat="36.7375130" lon="-2.6196060">
        <ele>31.8</ele>
        <time>2022-11-01T13:09:52Z</time>
      </trkpt>
      <trkpt lat="36.7375540" lon="-2.6195670">
        <ele>31.8</ele>
        <time>2022-11-01T13:09:53Z</time>
      </trkpt>
      <trkpt lat="36.7375950" lon="-2.6195290">
        <ele>31.8</ele>
        <time>2022-11-01T13:09:54Z</time>
      </trkpt>
      <trkpt lat="36.7376360" lon="-2.6194900">
        <ele>31.8</ele>
        <time>2022-11-01T13:09:55Z</time>
      </trkpt>
      <trkpt lat="36.7376800" lon="-2.6194530">
        <ele>31.8</ele>
        <time>2022-11-01T13:09:56Z</time>
      </trkpt>
      <trkpt lat="36.7377240" lon="-2.6194160">
        <ele>31.8</ele>
        <time>2022-11-01T13:09:57Z</time>
      </trkpt>
      <trkpt lat="36.7377650" lon="-2.6193790">
        <ele>31.6</ele>
        <time>2022-11-01T13:09:58Z</time>
      </trkpt>
      <trkpt lat="36.7378060" lon="-2.6193410">
        <ele>31.8</ele>
        <time>2022-11-01T13:09:59Z</time>
      </trkpt>
      <trkpt lat="36.7378480" lon="-2.6193040">
        <ele>31.8</ele>
        <time>2022-11-01T13:10:00Z</time>
      </trkpt>
      <trkpt lat="36.7378890" lon="-2.6192680">
        <ele>31.8</ele>
        <time>2022-11-01T13:10:01Z</time>
      </trkpt>
      <trkpt lat="36.7379310" lon="-2.6192290">
        <ele>31.8</ele>
        <time>2022-11-01T13:10:02Z</time>
      </trkpt>
      <trkpt lat="36.7379740" lon="-2.6191900">
        <ele>31.8</ele>
        <time>2022-11-01T13:10:03Z</time>
      </trkpt>
      <trkpt lat="36.7380190" lon="-2.6191510">
        <ele>31.8</ele>
        <time>2022-11-01T13:10:04Z</time>
      </trkpt>
      <trkpt lat="36.7380610" lon="-2.6191120">
        <ele>31.8</ele>
        <time>2022-11-01T13:10:05Z</time>
      </trkpt>
      <trkpt lat="36.7381040" lon="-2.6190740">
        <ele>31.8</ele>
        <time>2022-11-01T13:10:06Z</time>
      </trkpt>
      <trkpt lat="36.7381450" lon="-2.6190350">
        <ele>31.8</ele>
        <time>2022-11-01T13:10:07Z</time>
      </trkpt>
      <trkpt lat="36.7381870" lon="-2.6189960">
        <ele>31.8</ele>
        <time>2022-11-01T13:10:08Z</time>
      </trkpt>
      <trkpt lat="36.7382320" lon="-2.6189570">
        <ele>31.8</ele>
        <time>2022-11-01T13:10:09Z</time>
      </trkpt>
      <trkpt lat="36.7382750" lon="-2.6189160">
        <ele>31.8</ele>
        <time>2022-11-01T13:10:10Z</time>
      </trkpt>
      <trkpt lat="36.7383150" lon="-2.6188770">
        <ele>31.8</ele>
        <time>2022-11-01T13:10:11Z</time>
      </trkpt>
      <trkpt lat="36.7383560" lon="-2.6188390">
        <ele>31.8</ele>
        <time>2022-11-01T13:10:12Z</time>
      </trkpt>
      <trkpt lat="36.7383930" lon="-2.6188010">
        <ele>31.8</ele>
        <time>2022-11-01T13:10:13Z</time>
      </trkpt>
      <trkpt lat="36.7384320" lon="-2.6187630">
        <ele>31.8</ele>
        <time>2022-11-01T13:10:14Z</time>
      </trkpt>
      <trkpt lat="36.7384710" lon="-2.6187260">
        <ele>31.8</ele>
        <time>2022-11-01T13:10:15Z</time>
      </trkpt>
      <trkpt lat="36.7385100" lon="-2.6186920">
        <ele>31.8</ele>
        <time>2022-11-01T13:10:16Z</time>
      </trkpt>
      <trkpt lat="36.7385490" lon="-2.6186560">
        <ele>31.8</ele>
        <time>2022-11-01T13:10:17Z</time>
      </trkpt>
      <trkpt lat="36.7385870" lon="-2.6186200">
        <ele>31.8</ele>
        <time>2022-11-01T13:10:18Z</time>
      </trkpt>
      <trkpt lat="36.7386240" lon="-2.6185860">
        <ele>31.8</ele>
        <time>2022-11-01T13:10:19Z</time>
      </trkpt>
      <trkpt lat="36.7386620" lon="-2.6185540">
        <ele>31.8</ele>
        <time>2022-11-01T13:10:20Z</time>
      </trkpt>
      <trkpt lat="36.7386960" lon="-2.6185210">
        <ele>32.0</ele>
        <time>2022-11-01T13:10:21Z</time>
      </trkpt>
      <trkpt lat="36.7387260" lon="-2.6184920">
        <ele>32.0</ele>
        <time>2022-11-01T13:10:22Z</time>
      </trkpt>
      <trkpt lat="36.7387630" lon="-2.6184600">
        <ele>32.0</ele>
        <time>2022-11-01T13:10:23Z</time>
      </trkpt>
      <trkpt lat="36.7388010" lon="-2.6184240">
        <ele>32.0</ele>
        <time>2022-11-01T13:10:24Z</time>
      </trkpt>
      <trkpt lat="36.7388400" lon="-2.6183880">
        <ele>32.0</ele>
        <time>2022-11-01T13:10:25Z</time>
      </trkpt>
      <trkpt lat="36.7388790" lon="-2.6183530">
        <ele>32.0</ele>
        <time>2022-11-01T13:10:26Z</time>
      </trkpt>
      <trkpt lat="36.7389230" lon="-2.6183150">
        <ele>32.0</ele>
        <time>2022-11-01T13:10:27Z</time>
      </trkpt>
      <trkpt lat="36.7389630" lon="-2.6182790">
        <ele>32.0</ele>
        <time>2022-11-01T13:10:28Z</time>
      </trkpt>
      <trkpt lat="36.7390030" lon="-2.6182420">
        <ele>32.0</ele>
        <time>2022-11-01T13:10:29Z</time>
      </trkpt>
      <trkpt lat="36.7390440" lon="-2.6182040">
        <ele>32.0</ele>
        <time>2022-11-01T13:10:30Z</time>
      </trkpt>
      <trkpt lat="36.7390860" lon="-2.6181680">
        <ele>32.0</ele>
        <time>2022-11-01T13:10:31Z</time>
      </trkpt>
      <trkpt lat="36.7391260" lon="-2.6181320">
        <ele>32.0</ele>
        <time>2022-11-01T13:10:32Z</time>
      </trkpt>
      <trkpt lat="36.7391660" lon="-2.6180930">
        <ele>32.0</ele>
        <time>2022-11-01T13:10:33Z</time>
      </trkpt>
      <trkpt lat="36.7392060" lon="-2.6180550">
        <ele>32.0</ele>
        <time>2022-11-01T13:10:34Z</time>
      </trkpt>
      <trkpt lat="36.7392460" lon="-2.6180190">
        <ele>32.0</ele>
        <time>2022-11-01T13:10:35Z</time>
      </trkpt>
      <trkpt lat="36.7392850" lon="-2.6179830">
        <ele>32.0</ele>
        <time>2022-11-01T13:10:36Z</time>
      </trkpt>
      <trkpt lat="36.7393250" lon="-2.6179480">
        <ele>32.0</ele>
        <time>2022-11-01T13:10:37Z</time>
      </trkpt>
      <trkpt lat="36.7393640" lon="-2.6179130">
        <ele>32.0</ele>
        <time>2022-11-01T13:10:38Z</time>
      </trkpt>
      <trkpt lat="36.7394020" lon="-2.6178760">
        <ele>32.0</ele>
        <time>2022-11-01T13:10:39Z</time>
      </trkpt>
      <trkpt lat="36.7394430" lon="-2.6178390">
        <ele>32.0</ele>
        <time>2022-11-01T13:10:40Z</time>
      </trkpt>
      <trkpt lat="36.7394830" lon="-2.6178030">
        <ele>32.0</ele>
        <time>2022-11-01T13:10:41Z</time>
      </trkpt>
      <trkpt lat="36.7395210" lon="-2.6177700">
        <ele>32.0</ele>
        <time>2022-11-01T13:10:42Z</time>
      </trkpt>
      <trkpt lat="36.7395580" lon="-2.6177350">
        <ele>32.0</ele>
        <time>2022-11-01T13:10:43Z</time>
      </trkpt>
      <trkpt lat="36.7395950" lon="-2.6177050">
        <ele>32.0</ele>
        <time>2022-11-01T13:10:44Z</time>
      </trkpt>
      <trkpt lat="36.7396250" lon="-2.6176690">
        <ele>32.0</ele>
        <time>2022-11-01T13:10:45Z</time>
      </trkpt>
      <trkpt lat="36.7396660" lon="-2.6176340">
        <ele>32.0</ele>
        <time>2022-11-01T13:10:46Z</time>
      </trkpt>
      <trkpt lat="36.7397020" lon="-2.6175970">
        <ele>32.0</ele>
        <time>2022-11-01T13:10:47Z</time>
      </trkpt>
      <trkpt lat="36.7397390" lon="-2.6175610">
        <ele>32.0</ele>
        <time>2022-11-01T13:10:48Z</time>
      </trkpt>
      <trkpt lat="36.7397760" lon="-2.6175230">
        <ele>32.0</ele>
        <time>2022-11-01T13:10:49Z</time>
      </trkpt>
      <trkpt lat="36.7398120" lon="-2.6174900">
        <ele>32.0</ele>
        <time>2022-11-01T13:10:50Z</time>
      </trkpt>
      <trkpt lat="36.7398500" lon="-2.6174570">
        <ele>32.0</ele>
        <time>2022-11-01T13:10:51Z</time>
      </trkpt>
      <trkpt lat="36.7398920" lon="-2.6174210">
        <ele>32.0</ele>
        <time>2022-11-01T13:10:52Z</time>
      </trkpt>
      <trkpt lat="36.7399340" lon="-2.6173850">
        <ele>31.8</ele>
        <time>2022-11-01T13:10:53Z</time>
      </trkpt>
      <trkpt lat="36.7399740" lon="-2.6173480">
        <ele>31.8</ele>
        <time>2022-11-01T13:10:54Z</time>
      </trkpt>
      <trkpt lat="36.7400160" lon="-2.6173110">
        <ele>32.0</ele>
        <time>2022-11-01T13:10:55Z</time>
      </trkpt>
      <trkpt lat="36.7400570" lon="-2.6172750">
        <ele>32.0</ele>
        <time>2022-11-01T13:10:56Z</time>
      </trkpt>
      <trkpt lat="36.7400960" lon="-2.6172380">
        <ele>32.0</ele>
        <time>2022-11-01T13:10:57Z</time>
      </trkpt>
      <trkpt lat="36.7401320" lon="-2.6172030">
        <ele>32.0</ele>
        <time>2022-11-01T13:10:58Z</time>
      </trkpt>
      <trkpt lat="36.7401710" lon="-2.6171690">
        <ele>31.8</ele>
        <time>2022-11-01T13:10:59Z</time>
      </trkpt>
      <trkpt lat="36.7402100" lon="-2.6171340">
        <ele>32.0</ele>
        <time>2022-11-01T13:11:00Z</time>
      </trkpt>
      <trkpt lat="36.7402430" lon="-2.6171010">
        <ele>31.8</ele>
        <time>2022-11-01T13:11:01Z</time>
      </trkpt>
      <trkpt lat="36.7402780" lon="-2.6170680">
        <ele>31.8</ele>
        <time>2022-11-01T13:11:02Z</time>
      </trkpt>
      <trkpt lat="36.7403140" lon="-2.6170340">
        <ele>32.0</ele>
        <time>2022-11-01T13:11:03Z</time>
      </trkpt>
      <trkpt lat="36.7403530" lon="-2.6170000">
        <ele>31.8</ele>
        <time>2022-11-01T13:11:04Z</time>
      </trkpt>
      <trkpt lat="36.7403920" lon="-2.6169660">
        <ele>31.8</ele>
        <time>2022-11-01T13:11:05Z</time>
      </trkpt>
      <trkpt lat="36.7404290" lon="-2.6169310">
        <ele>31.8</ele>
        <time>2022-11-01T13:11:06Z</time>
      </trkpt>
      <trkpt lat="36.7404670" lon="-2.6168940">
        <ele>32.0</ele>
        <time>2022-11-01T13:11:07Z</time>
      </trkpt>
      <trkpt lat="36.7405050" lon="-2.6168580">
        <ele>31.8</ele>
        <time>2022-11-01T13:11:08Z</time>
      </trkpt>
      <trkpt lat="36.7405430" lon="-2.6168210">
        <ele>31.8</ele>
        <time>2022-11-01T13:11:09Z</time>
      </trkpt>
      <trkpt lat="36.7405820" lon="-2.6167850">
        <ele>31.8</ele>
        <time>2022-11-01T13:11:10Z</time>
      </trkpt>
      <trkpt lat="36.7406190" lon="-2.6167520">
        <ele>32.0</ele>
        <time>2022-11-01T13:11:11Z</time>
      </trkpt>
      <trkpt lat="36.7406590" lon="-2.6167170">
        <ele>31.8</ele>
        <time>2022-11-01T13:11:12Z</time>
      </trkpt>
      <trkpt lat="36.7407020" lon="-2.6166820">
        <ele>32.0</ele>
        <time>2022-11-01T13:11:13Z</time>
      </trkpt>
      <trkpt lat="36.7407430" lon="-2.6166480">
        <ele>32.0</ele>
        <time>2022-11-01T13:11:14Z</time>
      </trkpt>
      <trkpt lat="36.7407870" lon="-2.6166150">
        <ele>32.0</ele>
        <time>2022-11-01T13:11:15Z</time>
      </trkpt>
      <trkpt lat="36.7408280" lon="-2.6165810">
        <ele>32.0</ele>
        <time>2022-11-01T13:11:16Z</time>
      </trkpt>
      <trkpt lat="36.7408700" lon="-2.6165460">
        <ele>32.0</ele>
        <time>2022-11-01T13:11:17Z</time>
      </trkpt>
      <trkpt lat="36.7409090" lon="-2.6165130">
        <ele>32.0</ele>
        <time>2022-11-01T13:11:18Z</time>
      </trkpt>
      <trkpt lat="36.7409480" lon="-2.6164780">
        <ele>32.0</ele>
        <time>2022-11-01T13:11:19Z</time>
      </trkpt>
      <trkpt lat="36.7409880" lon="-2.6164430">
        <ele>32.0</ele>
        <time>2022-11-01T13:11:20Z</time>
      </trkpt>
      <trkpt lat="36.7410310" lon="-2.6164060">
        <ele>32.0</ele>
        <time>2022-11-01T13:11:21Z</time>
      </trkpt>
      <trkpt lat="36.7410720" lon="-2.6163680">
        <ele>32.0</ele>
        <time>2022-11-01T13:11:22Z</time>
      </trkpt>
      <trkpt lat="36.7411110" lon="-2.6163280">
        <ele>32.0</ele>
        <time>2022-11-01T13:11:23Z</time>
      </trkpt>
      <trkpt lat="36.7411490" lon="-2.6162900">
        <ele>32.0</ele>
        <time>2022-11-01T13:11:24Z</time>
      </trkpt>
      <trkpt lat="36.7411890" lon="-2.6162500">
        <ele>32.0</ele>
        <time>2022-11-01T13:11:25Z</time>
      </trkpt>
      <trkpt lat="36.7412310" lon="-2.6162100">
        <ele>32.0</ele>
        <time>2022-11-01T13:11:26Z</time>
      </trkpt>
      <trkpt lat="36.7412740" lon="-2.6161720">
        <ele>32.0</ele>
        <time>2022-11-01T13:11:27Z</time>
      </trkpt>
      <trkpt lat="36.7413170" lon="-2.6161350">
        <ele>32.0</ele>
        <time>2022-11-01T13:11:28Z</time>
      </trkpt>
      <trkpt lat="36.7413580" lon="-2.6160960">
        <ele>31.8</ele>
        <time>2022-11-01T13:11:29Z</time>
      </trkpt>
      <trkpt lat="36.7413980" lon="-2.6160570">
        <ele>31.8</ele>
        <time>2022-11-01T13:11:30Z</time>
      </trkpt>
      <trkpt lat="36.7414330" lon="-2.6160260">
        <ele>32.0</ele>
        <time>2022-11-01T13:11:31Z</time>
      </trkpt>
      <trkpt lat="36.7414670" lon="-2.6160010">
        <ele>32.0</ele>
        <time>2022-11-01T13:11:32Z</time>
      </trkpt>
      <trkpt lat="36.7414940" lon="-2.6159780">
        <ele>32.0</ele>
        <time>2022-11-01T13:11:33Z</time>
      </trkpt>
      <trkpt lat="36.7415280" lon="-2.6159490">
        <ele>32.0</ele>
        <time>2022-11-01T13:11:34Z</time>
      </trkpt>
      <trkpt lat="36.7415570" lon="-2.6159190">
        <ele>32.0</ele>
        <time>2022-11-01T13:11:35Z</time>
      </trkpt>
      <trkpt lat="36.7415770" lon="-2.6158930">
        <ele>32.0</ele>
        <time>2022-11-01T13:11:36Z</time>
      </trkpt>
      <trkpt lat="36.7415930" lon="-2.6158740">
        <ele>32.0</ele>
        <time>2022-11-01T13:11:37Z</time>
      </trkpt>
      <trkpt lat="36.7415970" lon="-2.6158640">
        <ele>32.0</ele>
        <time>2022-11-01T13:11:38Z</time>
      </trkpt>
      <trkpt lat="36.7416020" lon="-2.6158590">
        <ele>32.0</ele>
        <time>2022-11-01T13:11:39Z</time>
      </trkpt>
      <trkpt lat="36.7416050" lon="-2.6158550">
        <ele>32.0</ele>
        <time>2022-11-01T13:11:40Z</time>
      </trkpt>
      <trkpt lat="36.7416100" lon="-2.6158510">
        <ele>32.0</ele>
        <time>2022-11-01T13:11:41Z</time>
      </trkpt>
      <trkpt lat="36.7416110" lon="-2.6158510">
        <ele>32.0</ele>
        <time>2022-11-01T13:11:42Z</time>
      </trkpt>
      <trkpt lat="36.7417120" lon="-2.6157850">
        <ele>32.0</ele>
        <time>2022-11-01T13:12:06Z</time>
      </trkpt>
      <trkpt lat="36.7417120" lon="-2.6157850">
        <ele>32.0</ele>
        <time>2022-11-01T13:12:07Z</time>
      </trkpt>
      <trkpt lat="36.7417310" lon="-2.6157650">
        <ele>32.0</ele>
        <time>2022-11-01T13:12:08Z</time>
      </trkpt>
      <trkpt lat="36.7417500" lon="-2.6157420">
        <ele>32.0</ele>
        <time>2022-11-01T13:12:09Z</time>
      </trkpt>
      <trkpt lat="36.7417710" lon="-2.6157200">
        <ele>32.0</ele>
        <time>2022-11-01T13:12:10Z</time>
      </trkpt>
      <trkpt lat="36.7417930" lon="-2.6157040">
        <ele>32.0</ele>
        <time>2022-11-01T13:12:11Z</time>
      </trkpt>
      <trkpt lat="36.7418140" lon="-2.6156830">
        <ele>32.0</ele>
        <time>2022-11-01T13:12:12Z</time>
      </trkpt>
      <trkpt lat="36.7418330" lon="-2.6156570">
        <ele>32.0</ele>
        <time>2022-11-01T13:12:13Z</time>
      </trkpt>
      <trkpt lat="36.7418550" lon="-2.6156300">
        <ele>32.0</ele>
        <time>2022-11-01T13:12:14Z</time>
      </trkpt>
      <trkpt lat="36.7418800" lon="-2.6156020">
        <ele>32.0</ele>
        <time>2022-11-01T13:12:15Z</time>
      </trkpt>
      <trkpt lat="36.7419060" lon="-2.6155730">
        <ele>32.0</ele>
        <time>2022-11-01T13:12:16Z</time>
      </trkpt>
      <trkpt lat="36.7419350" lon="-2.6155440">
        <ele>32.0</ele>
        <time>2022-11-01T13:12:17Z</time>
      </trkpt>
      <trkpt lat="36.7419610" lon="-2.6155150">
        <ele>32.0</ele>
        <time>2022-11-01T13:12:18Z</time>
      </trkpt>
      <trkpt lat="36.7419910" lon="-2.6154890">
        <ele>32.0</ele>
        <time>2022-11-01T13:12:19Z</time>
      </trkpt>
      <trkpt lat="36.7420190" lon="-2.6154610">
        <ele>32.0</ele>
        <time>2022-11-01T13:12:20Z</time>
      </trkpt>
      <trkpt lat="36.7420470" lon="-2.6154280">
        <ele>32.2</ele>
        <time>2022-11-01T13:12:21Z</time>
      </trkpt>
      <trkpt lat="36.7420790" lon="-2.6153950">
        <ele>32.2</ele>
        <time>2022-11-01T13:12:22Z</time>
      </trkpt>
      <trkpt lat="36.7421090" lon="-2.6153620">
        <ele>32.2</ele>
        <time>2022-11-01T13:12:23Z</time>
      </trkpt>
      <trkpt lat="36.7421360" lon="-2.6153280">
        <ele>32.2</ele>
        <time>2022-11-01T13:12:24Z</time>
      </trkpt>
      <trkpt lat="36.7421680" lon="-2.6152940">
        <ele>32.2</ele>
        <time>2022-11-01T13:12:25Z</time>
      </trkpt>
      <trkpt lat="36.7422030" lon="-2.6152580">
        <ele>32.2</ele>
        <time>2022-11-01T13:12:26Z</time>
      </trkpt>
      <trkpt lat="36.7422370" lon="-2.6152250">
        <ele>32.2</ele>
        <time>2022-11-01T13:12:27Z</time>
      </trkpt>
      <trkpt lat="36.7422700" lon="-2.6151940">
        <ele>32.2</ele>
        <time>2022-11-01T13:12:28Z</time>
      </trkpt>
      <trkpt lat="36.7422990" lon="-2.6151590">
        <ele>32.2</ele>
        <time>2022-11-01T13:12:29Z</time>
      </trkpt>
      <trkpt lat="36.7423220" lon="-2.6151230">
        <ele>32.2</ele>
        <time>2022-11-01T13:12:30Z</time>
      </trkpt>
      <trkpt lat="36.7423520" lon="-2.6150880">
        <ele>32.2</ele>
        <time>2022-11-01T13:12:31Z</time>
      </trkpt>
      <trkpt lat="36.7423850" lon="-2.6150510">
        <ele>32.2</ele>
        <time>2022-11-01T13:12:32Z</time>
      </trkpt>
      <trkpt lat="36.7424260" lon="-2.6150160">
        <ele>32.2</ele>
        <time>2022-11-01T13:12:33Z</time>
      </trkpt>
      <trkpt lat="36.7424630" lon="-2.6149810">
        <ele>32.2</ele>
        <time>2022-11-01T13:12:34Z</time>
      </trkpt>
      <trkpt lat="36.7424990" lon="-2.6149450">
        <ele>32.2</ele>
        <time>2022-11-01T13:12:35Z</time>
      </trkpt>
      <trkpt lat="36.7425330" lon="-2.6149100">
        <ele>32.0</ele>
        <time>2022-11-01T13:12:36Z</time>
      </trkpt>
      <trkpt lat="36.7425700" lon="-2.6148730">
        <ele>32.0</ele>
        <time>2022-11-01T13:12:37Z</time>
      </trkpt>
      <trkpt lat="36.7426090" lon="-2.6148360">
        <ele>32.0</ele>
        <time>2022-11-01T13:12:38Z</time>
      </trkpt>
      <trkpt lat="36.7426520" lon="-2.6147980">
        <ele>32.0</ele>
        <time>2022-11-01T13:12:39Z</time>
      </trkpt>
      <trkpt lat="36.7426940" lon="-2.6147570">
        <ele>32.0</ele>
        <time>2022-11-01T13:12:40Z</time>
      </trkpt>
      <trkpt lat="36.7427370" lon="-2.6147170">
        <ele>32.0</ele>
        <time>2022-11-01T13:12:41Z</time>
      </trkpt>
      <trkpt lat="36.7427800" lon="-2.6146750">
        <ele>32.0</ele>
        <time>2022-11-01T13:12:42Z</time>
      </trkpt>
      <trkpt lat="36.7428190" lon="-2.6146360">
        <ele>32.0</ele>
        <time>2022-11-01T13:12:43Z</time>
      </trkpt>
      <trkpt lat="36.7428570" lon="-2.6145970">
        <ele>32.0</ele>
        <time>2022-11-01T13:12:44Z</time>
      </trkpt>
      <trkpt lat="36.7428950" lon="-2.6145510">
        <ele>31.8</ele>
        <time>2022-11-01T13:12:45Z</time>
      </trkpt>
      <trkpt lat="36.7429350" lon="-2.6145150">
        <ele>31.8</ele>
        <time>2022-11-01T13:12:46Z</time>
      </trkpt>
      <trkpt lat="36.7429790" lon="-2.6144770">
        <ele>31.8</ele>
        <time>2022-11-01T13:12:47Z</time>
      </trkpt>
      <trkpt lat="36.7430220" lon="-2.6144380">
        <ele>32.0</ele>
        <time>2022-11-01T13:12:48Z</time>
      </trkpt>
      <trkpt lat="36.7430680" lon="-2.6143960">
        <ele>32.0</ele>
        <time>2022-11-01T13:12:49Z</time>
      </trkpt>
      <trkpt lat="36.7431090" lon="-2.6143520">
        <ele>31.8</ele>
        <time>2022-11-01T13:12:50Z</time>
      </trkpt>
      <trkpt lat="36.7431540" lon="-2.6143070">
        <ele>31.8</ele>
        <time>2022-11-01T13:12:51Z</time>
      </trkpt>
      <trkpt lat="36.7432020" lon="-2.6142640">
        <ele>32.0</ele>
        <time>2022-11-01T13:12:52Z</time>
      </trkpt>
      <trkpt lat="36.7432430" lon="-2.6142190">
        <ele>32.0</ele>
        <time>2022-11-01T13:12:53Z</time>
      </trkpt>
      <trkpt lat="36.7432840" lon="-2.6141780">
        <ele>32.0</ele>
        <time>2022-11-01T13:12:54Z</time>
      </trkpt>
      <trkpt lat="36.7433290" lon="-2.6141360">
        <ele>31.8</ele>
        <time>2022-11-01T13:12:55Z</time>
      </trkpt>
      <trkpt lat="36.7433740" lon="-2.6140950">
        <ele>31.8</ele>
        <time>2022-11-01T13:12:56Z</time>
      </trkpt>
      <trkpt lat="36.7434180" lon="-2.6140520">
        <ele>31.8</ele>
        <time>2022-11-01T13:12:57Z</time>
      </trkpt>
      <trkpt lat="36.7434670" lon="-2.6140090">
        <ele>31.8</ele>
        <time>2022-11-01T13:12:58Z</time>
      </trkpt>
      <trkpt lat="36.7435130" lon="-2.6139660">
        <ele>31.8</ele>
        <time>2022-11-01T13:12:59Z</time>
      </trkpt>
      <trkpt lat="36.7435600" lon="-2.6139240">
        <ele>31.6</ele>
        <time>2022-11-01T13:13:00Z</time>
      </trkpt>
      <trkpt lat="36.7436070" lon="-2.6138790">
        <ele>31.6</ele>
        <time>2022-11-01T13:13:01Z</time>
      </trkpt>
      <trkpt lat="36.7436530" lon="-2.6138320">
        <ele>31.6</ele>
        <time>2022-11-01T13:13:02Z</time>
      </trkpt>
      <trkpt lat="36.7436970" lon="-2.6137800">
        <ele>31.6</ele>
        <time>2022-11-01T13:13:03Z</time>
      </trkpt>
      <trkpt lat="36.7437460" lon="-2.6137320">
        <ele>31.6</ele>
        <time>2022-11-01T13:13:04Z</time>
      </trkpt>
      <trkpt lat="36.7437970" lon="-2.6136850">
        <ele>31.6</ele>
        <time>2022-11-01T13:13:05Z</time>
      </trkpt>
      <trkpt lat="36.7438550" lon="-2.6136380">
        <ele>31.6</ele>
        <time>2022-11-01T13:13:06Z</time>
      </trkpt>
      <trkpt lat="36.7439090" lon="-2.6135900">
        <ele>31.6</ele>
        <time>2022-11-01T13:13:07Z</time>
      </trkpt>
      <trkpt lat="36.7439590" lon="-2.6135440">
        <ele>31.4</ele>
        <time>2022-11-01T13:13:08Z</time>
      </trkpt>
      <trkpt lat="36.7440110" lon="-2.6134980">
        <ele>31.4</ele>
        <time>2022-11-01T13:13:09Z</time>
      </trkpt>
      <trkpt lat="36.7440670" lon="-2.6134510">
        <ele>31.4</ele>
        <time>2022-11-01T13:13:10Z</time>
      </trkpt>
      <trkpt lat="36.7441160" lon="-2.6134060">
        <ele>31.4</ele>
        <time>2022-11-01T13:13:11Z</time>
      </trkpt>
      <trkpt lat="36.7441660" lon="-2.6133580">
        <ele>31.4</ele>
        <time>2022-11-01T13:13:12Z</time>
      </trkpt>
      <trkpt lat="36.7442160" lon="-2.6133100">
        <ele>31.2</ele>
        <time>2022-11-01T13:13:13Z</time>
      </trkpt>
      <trkpt lat="36.7442640" lon="-2.6132640">
        <ele>31.2</ele>
        <time>2022-11-01T13:13:14Z</time>
      </trkpt>
      <trkpt lat="36.7443120" lon="-2.6132210">
        <ele>31.2</ele>
        <time>2022-11-01T13:13:15Z</time>
      </trkpt>
      <trkpt lat="36.7443620" lon="-2.6131800">
        <ele>31.2</ele>
        <time>2022-11-01T13:13:16Z</time>
      </trkpt>
      <trkpt lat="36.7444060" lon="-2.6131370">
        <ele>31.2</ele>
        <time>2022-11-01T13:13:17Z</time>
      </trkpt>
      <trkpt lat="36.7444520" lon="-2.6130930">
        <ele>31.4</ele>
        <time>2022-11-01T13:13:18Z</time>
      </trkpt>
      <trkpt lat="36.7444960" lon="-2.6130470">
        <ele>31.4</ele>
        <time>2022-11-01T13:13:19Z</time>
      </trkpt>
      <trkpt lat="36.7445410" lon="-2.6130040">
        <ele>31.4</ele>
        <time>2022-11-01T13:13:20Z</time>
      </trkpt>
      <trkpt lat="36.7445890" lon="-2.6129640">
        <ele>31.4</ele>
        <time>2022-11-01T13:13:21Z</time>
      </trkpt>
      <trkpt lat="36.7446330" lon="-2.6129220">
        <ele>31.4</ele>
        <time>2022-11-01T13:13:22Z</time>
      </trkpt>
      <trkpt lat="36.7446770" lon="-2.6128810">
        <ele>31.4</ele>
        <time>2022-11-01T13:13:23Z</time>
      </trkpt>
      <trkpt lat="36.7447230" lon="-2.6128380">
        <ele>31.4</ele>
        <time>2022-11-01T13:13:24Z</time>
      </trkpt>
      <trkpt lat="36.7447690" lon="-2.6127970">
        <ele>31.4</ele>
        <time>2022-11-01T13:13:25Z</time>
      </trkpt>
      <trkpt lat="36.7448150" lon="-2.6127550">
        <ele>31.6</ele>
        <time>2022-11-01T13:13:26Z</time>
      </trkpt>
      <trkpt lat="36.7448610" lon="-2.6127120">
        <ele>31.6</ele>
        <time>2022-11-01T13:13:27Z</time>
      </trkpt>
      <trkpt lat="36.7449100" lon="-2.6126720">
        <ele>31.6</ele>
        <time>2022-11-01T13:13:28Z</time>
      </trkpt>
      <trkpt lat="36.7449550" lon="-2.6126310">
        <ele>31.6</ele>
        <time>2022-11-01T13:13:29Z</time>
      </trkpt>
      <trkpt lat="36.7450020" lon="-2.6125910">
        <ele>31.6</ele>
        <time>2022-11-01T13:13:30Z</time>
      </trkpt>
      <trkpt lat="36.7450460" lon="-2.6125520">
        <ele>31.6</ele>
        <time>2022-11-01T13:13:31Z</time>
      </trkpt>
      <trkpt lat="36.7450910" lon="-2.6125090">
        <ele>31.6</ele>
        <time>2022-11-01T13:13:32Z</time>
      </trkpt>
      <trkpt lat="36.7451350" lon="-2.6124660">
        <ele>31.6</ele>
        <time>2022-11-01T13:13:33Z</time>
      </trkpt>
      <trkpt lat="36.7451810" lon="-2.6124210">
        <ele>31.6</ele>
        <time>2022-11-01T13:13:34Z</time>
      </trkpt>
      <trkpt lat="36.7452290" lon="-2.6123760">
        <ele>31.6</ele>
        <time>2022-11-01T13:13:35Z</time>
      </trkpt>
      <trkpt lat="36.7452770" lon="-2.6123280">
        <ele>31.6</ele>
        <time>2022-11-01T13:13:36Z</time>
      </trkpt>
      <trkpt lat="36.7453210" lon="-2.6122820">
        <ele>31.6</ele>
        <time>2022-11-01T13:13:37Z</time>
      </trkpt>
      <trkpt lat="36.7453640" lon="-2.6122360">
        <ele>31.6</ele>
        <time>2022-11-01T13:13:38Z</time>
      </trkpt>
      <trkpt lat="36.7454110" lon="-2.6121900">
        <ele>31.6</ele>
        <time>2022-11-01T13:13:39Z</time>
      </trkpt>
      <trkpt lat="36.7454570" lon="-2.6121440">
        <ele>31.6</ele>
        <time>2022-11-01T13:13:40Z</time>
      </trkpt>
      <trkpt lat="36.7455020" lon="-2.6120990">
        <ele>31.6</ele>
        <time>2022-11-01T13:13:41Z</time>
      </trkpt>
      <trkpt lat="36.7455500" lon="-2.6120570">
        <ele>31.8</ele>
        <time>2022-11-01T13:13:42Z</time>
      </trkpt>
      <trkpt lat="36.7455940" lon="-2.6120140">
        <ele>31.8</ele>
        <time>2022-11-01T13:13:43Z</time>
      </trkpt>
      <trkpt lat="36.7456440" lon="-2.6119690">
        <ele>31.8</ele>
        <time>2022-11-01T13:13:44Z</time>
      </trkpt>
      <trkpt lat="36.7456920" lon="-2.6119220">
        <ele>31.8</ele>
        <time>2022-11-01T13:13:45Z</time>
      </trkpt>
      <trkpt lat="36.7457370" lon="-2.6118760">
        <ele>31.8</ele>
        <time>2022-11-01T13:13:46Z</time>
      </trkpt>
      <trkpt lat="36.7457790" lon="-2.6118330">
        <ele>32.0</ele>
        <time>2022-11-01T13:13:47Z</time>
      </trkpt>
      <trkpt lat="36.7458190" lon="-2.6117900">
        <ele>32.0</ele>
        <time>2022-11-01T13:13:48Z</time>
      </trkpt>
      <trkpt lat="36.7458640" lon="-2.6117460">
        <ele>32.0</ele>
        <time>2022-11-01T13:13:49Z</time>
      </trkpt>
      <trkpt lat="36.7459110" lon="-2.6117030">
        <ele>31.8</ele>
        <time>2022-11-01T13:13:50Z</time>
      </trkpt>
      <trkpt lat="36.7459550" lon="-2.6116580">
        <ele>31.8</ele>
        <time>2022-11-01T13:13:51Z</time>
      </trkpt>
      <trkpt lat="36.7460040" lon="-2.6116130">
        <ele>31.8</ele>
        <time>2022-11-01T13:13:52Z</time>
      </trkpt>
      <trkpt lat="36.7460530" lon="-2.6115700">
        <ele>31.8</ele>
        <time>2022-11-01T13:13:53Z</time>
      </trkpt>
      <trkpt lat="36.7461020" lon="-2.6115280">
        <ele>31.8</ele>
        <time>2022-11-01T13:13:54Z</time>
      </trkpt>
      <trkpt lat="36.7461540" lon="-2.6114880">
        <ele>31.6</ele>
        <time>2022-11-01T13:13:55Z</time>
      </trkpt>
      <trkpt lat="36.7462070" lon="-2.6114480">
        <ele>31.6</ele>
        <time>2022-11-01T13:13:56Z</time>
      </trkpt>
      <trkpt lat="36.7462580" lon="-2.6114080">
        <ele>31.6</ele>
        <time>2022-11-01T13:13:57Z</time>
      </trkpt>
      <trkpt lat="36.7463100" lon="-2.6113670">
        <ele>31.6</ele>
        <time>2022-11-01T13:13:58Z</time>
      </trkpt>
      <trkpt lat="36.7463600" lon="-2.6113240">
        <ele>31.6</ele>
        <time>2022-11-01T13:13:59Z</time>
      </trkpt>
      <trkpt lat="36.7464100" lon="-2.6112850">
        <ele>31.6</ele>
        <time>2022-11-01T13:14:00Z</time>
      </trkpt>
      <trkpt lat="36.7464570" lon="-2.6112460">
        <ele>31.6</ele>
        <time>2022-11-01T13:14:01Z</time>
      </trkpt>
      <trkpt lat="36.7465020" lon="-2.6112090">
        <ele>31.6</ele>
        <time>2022-11-01T13:14:02Z</time>
      </trkpt>
      <trkpt lat="36.7465540" lon="-2.6111750">
        <ele>31.6</ele>
        <time>2022-11-01T13:14:03Z</time>
      </trkpt>
      <trkpt lat="36.7466050" lon="-2.6111410">
        <ele>31.6</ele>
        <time>2022-11-01T13:14:04Z</time>
      </trkpt>
      <trkpt lat="36.7466540" lon="-2.6111050">
        <ele>31.6</ele>
        <time>2022-11-01T13:14:05Z</time>
      </trkpt>
      <trkpt lat="36.7467070" lon="-2.6110700">
        <ele>31.6</ele>
        <time>2022-11-01T13:14:06Z</time>
      </trkpt>
      <trkpt lat="36.7467550" lon="-2.6110310">
        <ele>31.6</ele>
        <time>2022-11-01T13:14:07Z</time>
      </trkpt>
      <trkpt lat="36.7468020" lon="-2.6109900">
        <ele>31.6</ele>
        <time>2022-11-01T13:14:08Z</time>
      </trkpt>
      <trkpt lat="36.7468510" lon="-2.6109480">
        <ele>31.6</ele>
        <time>2022-11-01T13:14:09Z</time>
      </trkpt>
      <trkpt lat="36.7469000" lon="-2.6109080">
        <ele>31.6</ele>
        <time>2022-11-01T13:14:10Z</time>
      </trkpt>
      <trkpt lat="36.7469490" lon="-2.6108680">
        <ele>31.6</ele>
        <time>2022-11-01T13:14:11Z</time>
      </trkpt>
      <trkpt lat="36.7469980" lon="-2.6108270">
        <ele>31.6</ele>
        <time>2022-11-01T13:14:12Z</time>
      </trkpt>
      <trkpt lat="36.7470460" lon="-2.6107860">
        <ele>31.6</ele>
        <time>2022-11-01T13:14:13Z</time>
      </trkpt>
      <trkpt lat="36.7470950" lon="-2.6107450">
        <ele>31.6</ele>
        <time>2022-11-01T13:14:14Z</time>
      </trkpt>
      <trkpt lat="36.7471430" lon="-2.6107050">
        <ele>31.6</ele>
        <time>2022-11-01T13:14:15Z</time>
      </trkpt>
      <trkpt lat="36.7471930" lon="-2.6106660">
        <ele>31.6</ele>
        <time>2022-11-01T13:14:16Z</time>
      </trkpt>
      <trkpt lat="36.7472440" lon="-2.6106260">
        <ele>31.6</ele>
        <time>2022-11-01T13:14:17Z</time>
      </trkpt>
      <trkpt lat="36.7472970" lon="-2.6105880">
        <ele>31.6</ele>
        <time>2022-11-01T13:14:18Z</time>
      </trkpt>
      <trkpt lat="36.7473490" lon="-2.6105480">
        <ele>31.6</ele>
        <time>2022-11-01T13:14:19Z</time>
      </trkpt>
      <trkpt lat="36.7473990" lon="-2.6105060">
        <ele>31.6</ele>
        <time>2022-11-01T13:14:20Z</time>
      </trkpt>
      <trkpt lat="36.7474550" lon="-2.6104610">
        <ele>31.6</ele>
        <time>2022-11-01T13:14:21Z</time>
      </trkpt>
      <trkpt lat="36.7475060" lon="-2.6104210">
        <ele>31.6</ele>
        <time>2022-11-01T13:14:22Z</time>
      </trkpt>
      <trkpt lat="36.7475530" lon="-2.6103800">
        <ele>31.6</ele>
        <time>2022-11-01T13:14:23Z</time>
      </trkpt>
      <trkpt lat="36.7475980" lon="-2.6103410">
        <ele>31.6</ele>
        <time>2022-11-01T13:14:24Z</time>
      </trkpt>
      <trkpt lat="36.7476440" lon="-2.6103040">
        <ele>31.6</ele>
        <time>2022-11-01T13:14:25Z</time>
      </trkpt>
      <trkpt lat="36.7476910" lon="-2.6102660">
        <ele>31.6</ele>
        <time>2022-11-01T13:14:26Z</time>
      </trkpt>
      <trkpt lat="36.7477400" lon="-2.6102280">
        <ele>31.6</ele>
        <time>2022-11-01T13:14:27Z</time>
      </trkpt>
      <trkpt lat="36.7477890" lon="-2.6101900">
        <ele>31.6</ele>
        <time>2022-11-01T13:14:28Z</time>
      </trkpt>
      <trkpt lat="36.7478380" lon="-2.6101520">
        <ele>31.6</ele>
        <time>2022-11-01T13:14:29Z</time>
      </trkpt>
      <trkpt lat="36.7478870" lon="-2.6101130">
        <ele>31.6</ele>
        <time>2022-11-01T13:14:30Z</time>
      </trkpt>
      <trkpt lat="36.7479360" lon="-2.6100740">
        <ele>31.6</ele>
        <time>2022-11-01T13:14:31Z</time>
      </trkpt>
      <trkpt lat="36.7479840" lon="-2.6100350">
        <ele>31.6</ele>
        <time>2022-11-01T13:14:32Z</time>
      </trkpt>
      <trkpt lat="36.7480350" lon="-2.6099980">
        <ele>31.6</ele>
        <time>2022-11-01T13:14:33Z</time>
      </trkpt>
      <trkpt lat="36.7480790" lon="-2.6099610">
        <ele>31.6</ele>
        <time>2022-11-01T13:14:34Z</time>
      </trkpt>
      <trkpt lat="36.7481240" lon="-2.6099230">
        <ele>31.4</ele>
        <time>2022-11-01T13:14:35Z</time>
      </trkpt>
      <trkpt lat="36.7481710" lon="-2.6098850">
        <ele>31.4</ele>
        <time>2022-11-01T13:14:36Z</time>
      </trkpt>
      <trkpt lat="36.7482200" lon="-2.6098470">
        <ele>31.4</ele>
        <time>2022-11-01T13:14:37Z</time>
      </trkpt>
      <trkpt lat="36.7482630" lon="-2.6098090">
        <ele>31.4</ele>
        <time>2022-11-01T13:14:38Z</time>
      </trkpt>
      <trkpt lat="36.7483090" lon="-2.6097710">
        <ele>31.6</ele>
        <time>2022-11-01T13:14:39Z</time>
      </trkpt>
      <trkpt lat="36.7483580" lon="-2.6097340">
        <ele>31.6</ele>
        <time>2022-11-01T13:14:40Z</time>
      </trkpt>
      <trkpt lat="36.7484070" lon="-2.6096970">
        <ele>31.6</ele>
        <time>2022-11-01T13:14:41Z</time>
      </trkpt>
      <trkpt lat="36.7484540" lon="-2.6096600">
        <ele>31.4</ele>
        <time>2022-11-01T13:14:42Z</time>
      </trkpt>
      <trkpt lat="36.7485010" lon="-2.6096240">
        <ele>31.4</ele>
        <time>2022-11-01T13:14:43Z</time>
      </trkpt>
      <trkpt lat="36.7485510" lon="-2.6095880">
        <ele>31.6</ele>
        <time>2022-11-01T13:14:44Z</time>
      </trkpt>
      <trkpt lat="36.7486020" lon="-2.6095550">
        <ele>31.6</ele>
        <time>2022-11-01T13:14:45Z</time>
      </trkpt>
      <trkpt lat="36.7486550" lon="-2.6095260">
        <ele>31.6</ele>
        <time>2022-11-01T13:14:46Z</time>
      </trkpt>
      <trkpt lat="36.7487070" lon="-2.6094980">
        <ele>31.6</ele>
        <time>2022-11-01T13:14:47Z</time>
      </trkpt>
      <trkpt lat="36.7487590" lon="-2.6094750">
        <ele>31.6</ele>
        <time>2022-11-01T13:14:48Z</time>
      </trkpt>
      <trkpt lat="36.7488100" lon="-2.6094560">
        <ele>31.6</ele>
        <time>2022-11-01T13:14:49Z</time>
      </trkpt>
      <trkpt lat="36.7488640" lon="-2.6094330">
        <ele>31.8</ele>
        <time>2022-11-01T13:14:50Z</time>
      </trkpt>
      <trkpt lat="36.7489210" lon="-2.6094110">
        <ele>31.8</ele>
        <time>2022-11-01T13:14:51Z</time>
      </trkpt>
      <trkpt lat="36.7489780" lon="-2.6093920">
        <ele>31.8</ele>
        <time>2022-11-01T13:14:52Z</time>
      </trkpt>
      <trkpt lat="36.7490340" lon="-2.6093700">
        <ele>31.8</ele>
        <time>2022-11-01T13:14:53Z</time>
      </trkpt>
      <trkpt lat="36.7490910" lon="-2.6093470">
        <ele>31.8</ele>
        <time>2022-11-01T13:14:54Z</time>
      </trkpt>
      <trkpt lat="36.7491470" lon="-2.6093210">
        <ele>31.8</ele>
        <time>2022-11-01T13:14:55Z</time>
      </trkpt>
      <trkpt lat="36.7492010" lon="-2.6092900">
        <ele>32.0</ele>
        <time>2022-11-01T13:14:56Z</time>
      </trkpt>
      <trkpt lat="36.7492570" lon="-2.6092600">
        <ele>32.0</ele>
        <time>2022-11-01T13:14:57Z</time>
      </trkpt>
      <trkpt lat="36.7493090" lon="-2.6092290">
        <ele>32.0</ele>
        <time>2022-11-01T13:14:58Z</time>
      </trkpt>
      <trkpt lat="36.7493600" lon="-2.6092000">
        <ele>32.0</ele>
        <time>2022-11-01T13:14:59Z</time>
      </trkpt>
      <trkpt lat="36.7494100" lon="-2.6091680">
        <ele>32.0</ele>
        <time>2022-11-01T13:15:00Z</time>
      </trkpt>
      <trkpt lat="36.7494580" lon="-2.6091340">
        <ele>32.0</ele>
        <time>2022-11-01T13:15:01Z</time>
      </trkpt>
      <trkpt lat="36.7495040" lon="-2.6091030">
        <ele>32.2</ele>
        <time>2022-11-01T13:15:02Z</time>
      </trkpt>
      <trkpt lat="36.7495500" lon="-2.6090690">
        <ele>32.2</ele>
        <time>2022-11-01T13:15:03Z</time>
      </trkpt>
      <trkpt lat="36.7496020" lon="-2.6090340">
        <ele>32.2</ele>
        <time>2022-11-01T13:15:04Z</time>
      </trkpt>
      <trkpt lat="36.7496540" lon="-2.6089980">
        <ele>32.4</ele>
        <time>2022-11-01T13:15:05Z</time>
      </trkpt>
      <trkpt lat="36.7497070" lon="-2.6089650">
        <ele>32.4</ele>
        <time>2022-11-01T13:15:06Z</time>
      </trkpt>
      <trkpt lat="36.7497580" lon="-2.6089310">
        <ele>32.4</ele>
        <time>2022-11-01T13:15:07Z</time>
      </trkpt>
      <trkpt lat="36.7498080" lon="-2.6088930">
        <ele>32.4</ele>
        <time>2022-11-01T13:15:08Z</time>
      </trkpt>
      <trkpt lat="36.7498570" lon="-2.6088570">
        <ele>32.6</ele>
        <time>2022-11-01T13:15:09Z</time>
      </trkpt>
      <trkpt lat="36.7499040" lon="-2.6088250">
        <ele>32.6</ele>
        <time>2022-11-01T13:15:10Z</time>
      </trkpt>
      <trkpt lat="36.7499530" lon="-2.6087910">
        <ele>32.6</ele>
        <time>2022-11-01T13:15:11Z</time>
      </trkpt>
      <trkpt lat="36.7500030" lon="-2.6087570">
        <ele>32.6</ele>
        <time>2022-11-01T13:15:12Z</time>
      </trkpt>
      <trkpt lat="36.7500530" lon="-2.6087230">
        <ele>32.6</ele>
        <time>2022-11-01T13:15:13Z</time>
      </trkpt>
      <trkpt lat="36.7501040" lon="-2.6086890">
        <ele>32.6</ele>
        <time>2022-11-01T13:15:14Z</time>
      </trkpt>
      <trkpt lat="36.7501540" lon="-2.6086540">
        <ele>32.6</ele>
        <time>2022-11-01T13:15:15Z</time>
      </trkpt>
      <trkpt lat="36.7502030" lon="-2.6086200">
        <ele>32.6</ele>
        <time>2022-11-01T13:15:16Z</time>
      </trkpt>
      <trkpt lat="36.7502530" lon="-2.6085840">
        <ele>32.6</ele>
        <time>2022-11-01T13:15:17Z</time>
      </trkpt>
      <trkpt lat="36.7503060" lon="-2.6085500">
        <ele>32.8</ele>
        <time>2022-11-01T13:15:18Z</time>
      </trkpt>
      <trkpt lat="36.7503580" lon="-2.6085170">
        <ele>32.6</ele>
        <time>2022-11-01T13:15:19Z</time>
      </trkpt>
      <trkpt lat="36.7504100" lon="-2.6084840">
        <ele>32.8</ele>
        <time>2022-11-01T13:15:20Z</time>
      </trkpt>
      <trkpt lat="36.7504640" lon="-2.6084460">
        <ele>32.8</ele>
        <time>2022-11-01T13:15:21Z</time>
      </trkpt>
      <trkpt lat="36.7505160" lon="-2.6084070">
        <ele>32.8</ele>
        <time>2022-11-01T13:15:22Z</time>
      </trkpt>
      <trkpt lat="36.7505710" lon="-2.6083700">
        <ele>32.8</ele>
        <time>2022-11-01T13:15:23Z</time>
      </trkpt>
      <trkpt lat="36.7506220" lon="-2.6083340">
        <ele>33.0</ele>
        <time>2022-11-01T13:15:24Z</time>
      </trkpt>
      <trkpt lat="36.7506710" lon="-2.6083000">
        <ele>33.0</ele>
        <time>2022-11-01T13:15:25Z</time>
      </trkpt>
      <trkpt lat="36.7507200" lon="-2.6082650">
        <ele>33.0</ele>
        <time>2022-11-01T13:15:26Z</time>
      </trkpt>
      <trkpt lat="36.7507680" lon="-2.6082310">
        <ele>33.2</ele>
        <time>2022-11-01T13:15:27Z</time>
      </trkpt>
      <trkpt lat="36.7508200" lon="-2.6081950">
        <ele>33.2</ele>
        <time>2022-11-01T13:15:28Z</time>
      </trkpt>
      <trkpt lat="36.7508720" lon="-2.6081600">
        <ele>33.2</ele>
        <time>2022-11-01T13:15:29Z</time>
      </trkpt>
      <trkpt lat="36.7509240" lon="-2.6081250">
        <ele>33.2</ele>
        <time>2022-11-01T13:15:30Z</time>
      </trkpt>
      <trkpt lat="36.7509760" lon="-2.6080900">
        <ele>33.2</ele>
        <time>2022-11-01T13:15:31Z</time>
      </trkpt>
      <trkpt lat="36.7510320" lon="-2.6080520">
        <ele>33.2</ele>
        <time>2022-11-01T13:15:32Z</time>
      </trkpt>
      <trkpt lat="36.7510830" lon="-2.6080170">
        <ele>33.2</ele>
        <time>2022-11-01T13:15:33Z</time>
      </trkpt>
      <trkpt lat="36.7511320" lon="-2.6079810">
        <ele>33.2</ele>
        <time>2022-11-01T13:15:34Z</time>
      </trkpt>
      <trkpt lat="36.7511800" lon="-2.6079470">
        <ele>33.4</ele>
        <time>2022-11-01T13:15:35Z</time>
      </trkpt>
      <trkpt lat="36.7512350" lon="-2.6079170">
        <ele>33.4</ele>
        <time>2022-11-01T13:15:36Z</time>
      </trkpt>
      <trkpt lat="36.7512890" lon="-2.6078890">
        <ele>33.6</ele>
        <time>2022-11-01T13:15:37Z</time>
      </trkpt>
      <trkpt lat="36.7513400" lon="-2.6078610">
        <ele>33.8</ele>
        <time>2022-11-01T13:15:38Z</time>
      </trkpt>
      <trkpt lat="36.7513900" lon="-2.6078380">
        <ele>33.8</ele>
        <time>2022-11-01T13:15:39Z</time>
      </trkpt>
      <trkpt lat="36.7514430" lon="-2.6078140">
        <ele>34.0</ele>
        <time>2022-11-01T13:15:40Z</time>
      </trkpt>
      <trkpt lat="36.7514950" lon="-2.6077910">
        <ele>34.0</ele>
        <time>2022-11-01T13:15:41Z</time>
      </trkpt>
      <trkpt lat="36.7515460" lon="-2.6077680">
        <ele>34.2</ele>
        <time>2022-11-01T13:15:42Z</time>
      </trkpt>
      <trkpt lat="36.7515990" lon="-2.6077460">
        <ele>34.4</ele>
        <time>2022-11-01T13:15:43Z</time>
      </trkpt>
      <trkpt lat="36.7516500" lon="-2.6077260">
        <ele>34.4</ele>
        <time>2022-11-01T13:15:44Z</time>
      </trkpt>
      <trkpt lat="36.7516990" lon="-2.6077050">
        <ele>34.4</ele>
        <time>2022-11-01T13:15:45Z</time>
      </trkpt>
      <trkpt lat="36.7517510" lon="-2.6076840">
        <ele>34.6</ele>
        <time>2022-11-01T13:15:46Z</time>
      </trkpt>
      <trkpt lat="36.7518020" lon="-2.6076620">
        <ele>34.8</ele>
        <time>2022-11-01T13:15:47Z</time>
      </trkpt>
      <trkpt lat="36.7518560" lon="-2.6076390">
        <ele>34.8</ele>
        <time>2022-11-01T13:15:48Z</time>
      </trkpt>
      <trkpt lat="36.7519110" lon="-2.6076190">
        <ele>35.0</ele>
        <time>2022-11-01T13:15:49Z</time>
      </trkpt>
      <trkpt lat="36.7519680" lon="-2.6076030">
        <ele>35.0</ele>
        <time>2022-11-01T13:15:50Z</time>
      </trkpt>
      <trkpt lat="36.7520240" lon="-2.6075850">
        <ele>35.0</ele>
        <time>2022-11-01T13:15:51Z</time>
      </trkpt>
      <trkpt lat="36.7520810" lon="-2.6075690">
        <ele>35.0</ele>
        <time>2022-11-01T13:15:52Z</time>
      </trkpt>
      <trkpt lat="36.7521350" lon="-2.6075500">
        <ele>35.2</ele>
        <time>2022-11-01T13:15:53Z</time>
      </trkpt>
      <trkpt lat="36.7521890" lon="-2.6075330">
        <ele>35.4</ele>
        <time>2022-11-01T13:15:54Z</time>
      </trkpt>
      <trkpt lat="36.7522420" lon="-2.6075160">
        <ele>35.4</ele>
        <time>2022-11-01T13:15:55Z</time>
      </trkpt>
      <trkpt lat="36.7522980" lon="-2.6074990">
        <ele>35.4</ele>
        <time>2022-11-01T13:15:56Z</time>
      </trkpt>
      <trkpt lat="36.7523560" lon="-2.6074810">
        <ele>35.4</ele>
        <time>2022-11-01T13:15:57Z</time>
      </trkpt>
      <trkpt lat="36.7524150" lon="-2.6074640">
        <ele>35.6</ele>
        <time>2022-11-01T13:15:58Z</time>
      </trkpt>
      <trkpt lat="36.7524730" lon="-2.6074470">
        <ele>35.6</ele>
        <time>2022-11-01T13:15:59Z</time>
      </trkpt>
      <trkpt lat="36.7525280" lon="-2.6074360">
        <ele>35.6</ele>
        <time>2022-11-01T13:16:00Z</time>
      </trkpt>
      <trkpt lat="36.7525820" lon="-2.6074260">
        <ele>35.6</ele>
        <time>2022-11-01T13:16:01Z</time>
      </trkpt>
      <trkpt lat="36.7526350" lon="-2.6074140">
        <ele>35.6</ele>
        <time>2022-11-01T13:16:02Z</time>
      </trkpt>
      <trkpt lat="36.7526880" lon="-2.6073980">
        <ele>35.8</ele>
        <time>2022-11-01T13:16:03Z</time>
      </trkpt>
      <trkpt lat="36.7527410" lon="-2.6073830">
        <ele>35.8</ele>
        <time>2022-11-01T13:16:04Z</time>
      </trkpt>
      <trkpt lat="36.7527950" lon="-2.6073700">
        <ele>35.8</ele>
        <time>2022-11-01T13:16:05Z</time>
      </trkpt>
      <trkpt lat="36.7528480" lon="-2.6073550">
        <ele>35.8</ele>
        <time>2022-11-01T13:16:06Z</time>
      </trkpt>
      <trkpt lat="36.7528990" lon="-2.6073400">
        <ele>36.0</ele>
        <time>2022-11-01T13:16:07Z</time>
      </trkpt>
      <trkpt lat="36.7529490" lon="-2.6073260">
        <ele>36.0</ele>
        <time>2022-11-01T13:16:08Z</time>
      </trkpt>
      <trkpt lat="36.7530000" lon="-2.6073080">
        <ele>36.0</ele>
        <time>2022-11-01T13:16:09Z</time>
      </trkpt>
      <trkpt lat="36.7530540" lon="-2.6072880">
        <ele>36.0</ele>
        <time>2022-11-01T13:16:10Z</time>
      </trkpt>
      <trkpt lat="36.7531010" lon="-2.6072690">
        <ele>36.0</ele>
        <time>2022-11-01T13:16:11Z</time>
      </trkpt>
      <trkpt lat="36.7531510" lon="-2.6072480">
        <ele>36.0</ele>
        <time>2022-11-01T13:16:12Z</time>
      </trkpt>
      <trkpt lat="36.7531980" lon="-2.6072280">
        <ele>36.0</ele>
        <time>2022-11-01T13:16:13Z</time>
      </trkpt>
      <trkpt lat="36.7532460" lon="-2.6072030">
        <ele>36.0</ele>
        <time>2022-11-01T13:16:14Z</time>
      </trkpt>
      <trkpt lat="36.7532940" lon="-2.6071800">
        <ele>36.0</ele>
        <time>2022-11-01T13:16:15Z</time>
      </trkpt>
      <trkpt lat="36.7533430" lon="-2.6071610">
        <ele>36.0</ele>
        <time>2022-11-01T13:16:16Z</time>
      </trkpt>
      <trkpt lat="36.7533880" lon="-2.6071420">
        <ele>35.8</ele>
        <time>2022-11-01T13:16:17Z</time>
      </trkpt>
      <trkpt lat="36.7534480" lon="-2.6071200">
        <ele>35.8</ele>
        <time>2022-11-01T13:16:18Z</time>
      </trkpt>
      <trkpt lat="36.7535030" lon="-2.6070970">
        <ele>35.8</ele>
        <time>2022-11-01T13:16:19Z</time>
      </trkpt>
      <trkpt lat="36.7535630" lon="-2.6070790">
        <ele>35.8</ele>
        <time>2022-11-01T13:16:20Z</time>
      </trkpt>
      <trkpt lat="36.7536270" lon="-2.6070740">
        <ele>35.8</ele>
        <time>2022-11-01T13:16:21Z</time>
      </trkpt>
      <trkpt lat="36.7536890" lon="-2.6070860">
        <ele>35.6</ele>
        <time>2022-11-01T13:16:22Z</time>
      </trkpt>
      <trkpt lat="36.7537420" lon="-2.6071160">
        <ele>35.8</ele>
        <time>2022-11-01T13:16:23Z</time>
      </trkpt>
      <trkpt lat="36.7537890" lon="-2.6071590">
        <ele>35.6</ele>
        <time>2022-11-01T13:16:24Z</time>
      </trkpt>
      <trkpt lat="36.7538290" lon="-2.6072100">
        <ele>35.6</ele>
        <time>2022-11-01T13:16:25Z</time>
      </trkpt>
      <trkpt lat="36.7538630" lon="-2.6072650">
        <ele>35.8</ele>
        <time>2022-11-01T13:16:26Z</time>
      </trkpt>
      <trkpt lat="36.7538980" lon="-2.6073120">
        <ele>36.0</ele>
        <time>2022-11-01T13:16:27Z</time>
      </trkpt>
      <trkpt lat="36.7539310" lon="-2.6073700">
        <ele>36.2</ele>
        <time>2022-11-01T13:16:28Z</time>
      </trkpt>
      <trkpt lat="36.7539670" lon="-2.6074250">
        <ele>36.4</ele>
        <time>2022-11-01T13:16:29Z</time>
      </trkpt>
      <trkpt lat="36.7540060" lon="-2.6074710">
        <ele>36.4</ele>
        <time>2022-11-01T13:16:30Z</time>
      </trkpt>
      <trkpt lat="36.7540500" lon="-2.6075070">
        <ele>36.6</ele>
        <time>2022-11-01T13:16:31Z</time>
      </trkpt>
      <trkpt lat="36.7540960" lon="-2.6075380">
        <ele>36.8</ele>
        <time>2022-11-01T13:16:32Z</time>
      </trkpt>
      <trkpt lat="36.7541460" lon="-2.6075650">
        <ele>36.8</ele>
        <time>2022-11-01T13:16:33Z</time>
      </trkpt>
      <trkpt lat="36.7541970" lon="-2.6075920">
        <ele>36.8</ele>
        <time>2022-11-01T13:16:34Z</time>
      </trkpt>
      <trkpt lat="36.7542430" lon="-2.6076180">
        <ele>37.0</ele>
        <time>2022-11-01T13:16:35Z</time>
      </trkpt>
      <trkpt lat="36.7542900" lon="-2.6076460">
        <ele>37.0</ele>
        <time>2022-11-01T13:16:36Z</time>
      </trkpt>
      <trkpt lat="36.7543420" lon="-2.6076730">
        <ele>37.0</ele>
        <time>2022-11-01T13:16:37Z</time>
      </trkpt>
      <trkpt lat="36.7543940" lon="-2.6077020">
        <ele>37.2</ele>
        <time>2022-11-01T13:16:38Z</time>
      </trkpt>
      <trkpt lat="36.7544460" lon="-2.6077320">
        <ele>37.2</ele>
        <time>2022-11-01T13:16:39Z</time>
      </trkpt>
      <trkpt lat="36.7544970" lon="-2.6077610">
        <ele>37.2</ele>
        <time>2022-11-01T13:16:40Z</time>
      </trkpt>
      <trkpt lat="36.7545480" lon="-2.6077910">
        <ele>37.2</ele>
        <time>2022-11-01T13:16:41Z</time>
      </trkpt>
      <trkpt lat="36.7546030" lon="-2.6078210">
        <ele>37.2</ele>
        <time>2022-11-01T13:16:42Z</time>
      </trkpt>
      <trkpt lat="36.7546550" lon="-2.6078500">
        <ele>37.2</ele>
        <time>2022-11-01T13:16:43Z</time>
      </trkpt>
      <trkpt lat="36.7547040" lon="-2.6078800">
        <ele>37.4</ele>
        <time>2022-11-01T13:16:44Z</time>
      </trkpt>
      <trkpt lat="36.7547540" lon="-2.6079080">
        <ele>37.4</ele>
        <time>2022-11-01T13:16:45Z</time>
      </trkpt>
      <trkpt lat="36.7548080" lon="-2.6079350">
        <ele>37.4</ele>
        <time>2022-11-01T13:16:46Z</time>
      </trkpt>
      <trkpt lat="36.7548590" lon="-2.6079640">
        <ele>37.4</ele>
        <time>2022-11-01T13:16:47Z</time>
      </trkpt>
      <trkpt lat="36.7549090" lon="-2.6079910">
        <ele>37.4</ele>
        <time>2022-11-01T13:16:48Z</time>
      </trkpt>
      <trkpt lat="36.7549630" lon="-2.6080240">
        <ele>37.4</ele>
        <time>2022-11-01T13:16:49Z</time>
      </trkpt>
      <trkpt lat="36.7550140" lon="-2.6080500">
        <ele>37.4</ele>
        <time>2022-11-01T13:16:50Z</time>
      </trkpt>
      <trkpt lat="36.7550630" lon="-2.6080770">
        <ele>37.4</ele>
        <time>2022-11-01T13:16:51Z</time>
      </trkpt>
      <trkpt lat="36.7551150" lon="-2.6081030">
        <ele>37.4</ele>
        <time>2022-11-01T13:16:52Z</time>
      </trkpt>
      <trkpt lat="36.7551640" lon="-2.6081280">
        <ele>37.2</ele>
        <time>2022-11-01T13:16:53Z</time>
      </trkpt>
      <trkpt lat="36.7552200" lon="-2.6081520">
        <ele>37.4</ele>
        <time>2022-11-01T13:16:54Z</time>
      </trkpt>
      <trkpt lat="36.7552740" lon="-2.6081720">
        <ele>37.2</ele>
        <time>2022-11-01T13:16:55Z</time>
      </trkpt>
      <trkpt lat="36.7553250" lon="-2.6081940">
        <ele>37.4</ele>
        <time>2022-11-01T13:16:56Z</time>
      </trkpt>
      <trkpt lat="36.7553770" lon="-2.6082150">
        <ele>37.2</ele>
        <time>2022-11-01T13:16:57Z</time>
      </trkpt>
      <trkpt lat="36.7554250" lon="-2.6082280">
        <ele>37.2</ele>
        <time>2022-11-01T13:16:58Z</time>
      </trkpt>
      <trkpt lat="36.7554770" lon="-2.6082440">
        <ele>37.4</ele>
        <time>2022-11-01T13:16:59Z</time>
      </trkpt>
      <trkpt lat="36.7555340" lon="-2.6082730">
        <ele>37.2</ele>
        <time>2022-11-01T13:17:00Z</time>
      </trkpt>
      <trkpt lat="36.7555880" lon="-2.6082910">
        <ele>37.2</ele>
        <time>2022-11-01T13:17:01Z</time>
      </trkpt>
      <trkpt lat="36.7556380" lon="-2.6083070">
        <ele>37.2</ele>
        <time>2022-11-01T13:17:02Z</time>
      </trkpt>
      <trkpt lat="36.7556920" lon="-2.6083300">
        <ele>37.0</ele>
        <time>2022-11-01T13:17:03Z</time>
      </trkpt>
      <trkpt lat="36.7557500" lon="-2.6083530">
        <ele>37.0</ele>
        <time>2022-11-01T13:17:04Z</time>
      </trkpt>
      <trkpt lat="36.7558090" lon="-2.6083800">
        <ele>37.0</ele>
        <time>2022-11-01T13:17:05Z</time>
      </trkpt>
      <trkpt lat="36.7558630" lon="-2.6084010">
        <ele>37.0</ele>
        <time>2022-11-01T13:17:06Z</time>
      </trkpt>
      <trkpt lat="36.7559220" lon="-2.6084250">
        <ele>37.0</ele>
        <time>2022-11-01T13:17:07Z</time>
      </trkpt>
      <trkpt lat="36.7559830" lon="-2.6084460">
        <ele>37.0</ele>
        <time>2022-11-01T13:17:08Z</time>
      </trkpt>
      <trkpt lat="36.7560370" lon="-2.6084550">
        <ele>36.8</ele>
        <time>2022-11-01T13:17:09Z</time>
      </trkpt>
      <trkpt lat="36.7560860" lon="-2.6084680">
        <ele>36.8</ele>
        <time>2022-11-01T13:17:10Z</time>
      </trkpt>
      <trkpt lat="36.7561400" lon="-2.6084860">
        <ele>36.8</ele>
        <time>2022-11-01T13:17:11Z</time>
      </trkpt>
      <trkpt lat="36.7561950" lon="-2.6085070">
        <ele>36.8</ele>
        <time>2022-11-01T13:17:12Z</time>
      </trkpt>
      <trkpt lat="36.7562510" lon="-2.6085270">
        <ele>36.8</ele>
        <time>2022-11-01T13:17:13Z</time>
      </trkpt>
      <trkpt lat="36.7563060" lon="-2.6085530">
        <ele>36.8</ele>
        <time>2022-11-01T13:17:14Z</time>
      </trkpt>
      <trkpt lat="36.7563640" lon="-2.6085740">
        <ele>36.8</ele>
        <time>2022-11-01T13:17:15Z</time>
      </trkpt>
      <trkpt lat="36.7564200" lon="-2.6085910">
        <ele>36.8</ele>
        <time>2022-11-01T13:17:16Z</time>
      </trkpt>
      <trkpt lat="36.7564740" lon="-2.6086050">
        <ele>36.8</ele>
        <time>2022-11-01T13:17:17Z</time>
      </trkpt>
      <trkpt lat="36.7565420" lon="-2.6086240">
        <ele>36.8</ele>
        <time>2022-11-01T13:17:18Z</time>
      </trkpt>
      <trkpt lat="36.7566050" lon="-2.6086410">
        <ele>36.8</ele>
        <time>2022-11-01T13:17:19Z</time>
      </trkpt>
      <trkpt lat="36.7566650" lon="-2.6086590">
        <ele>36.8</ele>
        <time>2022-11-01T13:17:20Z</time>
      </trkpt>
      <trkpt lat="36.7567260" lon="-2.6086760">
        <ele>36.8</ele>
        <time>2022-11-01T13:17:21Z</time>
      </trkpt>
      <trkpt lat="36.7567870" lon="-2.6086930">
        <ele>36.8</ele>
        <time>2022-11-01T13:17:22Z</time>
      </trkpt>
      <trkpt lat="36.7568460" lon="-2.6087100">
        <ele>36.8</ele>
        <time>2022-11-01T13:17:23Z</time>
      </trkpt>
      <trkpt lat="36.7569030" lon="-2.6087250">
        <ele>37.0</ele>
        <time>2022-11-01T13:17:24Z</time>
      </trkpt>
      <trkpt lat="36.7569640" lon="-2.6087450">
        <ele>37.0</ele>
        <time>2022-11-01T13:17:25Z</time>
      </trkpt>
      <trkpt lat="36.7570140" lon="-2.6087580">
        <ele>37.2</ele>
        <time>2022-11-01T13:17:26Z</time>
      </trkpt>
      <trkpt lat="36.7570820" lon="-2.6087720">
        <ele>37.2</ele>
        <time>2022-11-01T13:17:27Z</time>
      </trkpt>
      <trkpt lat="36.7571280" lon="-2.6087870">
        <ele>37.4</ele>
        <time>2022-11-01T13:17:28Z</time>
      </trkpt>
      <trkpt lat="36.7571850" lon="-2.6088030">
        <ele>37.4</ele>
        <time>2022-11-01T13:17:29Z</time>
      </trkpt>
      <trkpt lat="36.7572400" lon="-2.6088180">
        <ele>37.6</ele>
        <time>2022-11-01T13:17:30Z</time>
      </trkpt>
      <trkpt lat="36.7573000" lon="-2.6088270">
        <ele>37.6</ele>
        <time>2022-11-01T13:17:31Z</time>
      </trkpt>
      <trkpt lat="36.7573520" lon="-2.6088350">
        <ele>37.8</ele>
        <time>2022-11-01T13:17:32Z</time>
      </trkpt>
      <trkpt lat="36.7574010" lon="-2.6088440">
        <ele>37.8</ele>
        <time>2022-11-01T13:17:33Z</time>
      </trkpt>
      <trkpt lat="36.7574520" lon="-2.6088510">
        <ele>38.0</ele>
        <time>2022-11-01T13:17:34Z</time>
      </trkpt>
      <trkpt lat="36.7575020" lon="-2.6088550">
        <ele>38.0</ele>
        <time>2022-11-01T13:17:35Z</time>
      </trkpt>
      <trkpt lat="36.7575490" lon="-2.6088460">
        <ele>38.2</ele>
        <time>2022-11-01T13:17:36Z</time>
      </trkpt>
      <trkpt lat="36.7575900" lon="-2.6088310">
        <ele>38.2</ele>
        <time>2022-11-01T13:17:37Z</time>
      </trkpt>
      <trkpt lat="36.7576320" lon="-2.6088200">
        <ele>38.4</ele>
        <time>2022-11-01T13:17:38Z</time>
      </trkpt>
      <trkpt lat="36.7576840" lon="-2.6088240">
        <ele>38.4</ele>
        <time>2022-11-01T13:17:39Z</time>
      </trkpt>
      <trkpt lat="36.7577360" lon="-2.6088590">
        <ele>38.6</ele>
        <time>2022-11-01T13:17:40Z</time>
      </trkpt>
      <trkpt lat="36.7577790" lon="-2.6088730">
        <ele>38.6</ele>
        <time>2022-11-01T13:17:41Z</time>
      </trkpt>
      <trkpt lat="36.7578130" lon="-2.6088860">
        <ele>38.8</ele>
        <time>2022-11-01T13:17:42Z</time>
      </trkpt>
      <trkpt lat="36.7578390" lon="-2.6089030">
        <ele>38.8</ele>
        <time>2022-11-01T13:17:43Z</time>
      </trkpt>
      <trkpt lat="36.7578540" lon="-2.6089200">
        <ele>39.0</ele>
        <time>2022-11-01T13:17:44Z</time>
      </trkpt>
      <trkpt lat="36.7578940" lon="-2.6089440">
        <ele>39.2</ele>
        <time>2022-11-01T13:17:45Z</time>
      </trkpt>
      <trkpt lat="36.7579560" lon="-2.6089630">
        <ele>39.6</ele>
        <time>2022-11-01T13:17:46Z</time>
      </trkpt>
      <trkpt lat="36.7580000" lon="-2.6089820">
        <ele>39.8</ele>
        <time>2022-11-01T13:17:47Z</time>
      </trkpt>
      <trkpt lat="36.7580410" lon="-2.6090010">
        <ele>40.0</ele>
        <time>2022-11-01T13:17:48Z</time>
      </trkpt>
      <trkpt lat="36.7580860" lon="-2.6090250">
        <ele>40.2</ele>
        <time>2022-11-01T13:17:49Z</time>
      </trkpt>
      <trkpt lat="36.7581260" lon="-2.6090390">
        <ele>40.4</ele>
        <time>2022-11-01T13:17:50Z</time>
      </trkpt>
      <trkpt lat="36.7581650" lon="-2.6090490">
        <ele>40.6</ele>
        <time>2022-11-01T13:17:51Z</time>
      </trkpt>
      <trkpt lat="36.7581980" lon="-2.6090560">
        <ele>40.8</ele>
        <time>2022-11-01T13:17:52Z</time>
      </trkpt>
      <trkpt lat="36.7582280" lon="-2.6090610">
        <ele>41.0</ele>
        <time>2022-11-01T13:17:53Z</time>
      </trkpt>
      <trkpt lat="36.7582540" lon="-2.6090640">
        <ele>41.0</ele>
        <time>2022-11-01T13:17:54Z</time>
      </trkpt>
      <trkpt lat="36.7582800" lon="-2.6090670">
        <ele>41.2</ele>
        <time>2022-11-01T13:17:55Z</time>
      </trkpt>
      <trkpt lat="36.7583060" lon="-2.6090690">
        <ele>41.2</ele>
        <time>2022-11-01T13:17:56Z</time>
      </trkpt>
      <trkpt lat="36.7583270" lon="-2.6090720">
        <ele>41.2</ele>
        <time>2022-11-01T13:17:57Z</time>
      </trkpt>
      <trkpt lat="36.7583490" lon="-2.6090760">
        <ele>41.4</ele>
        <time>2022-11-01T13:17:58Z</time>
      </trkpt>
      <trkpt lat="36.7583730" lon="-2.6090830">
        <ele>41.4</ele>
        <time>2022-11-01T13:17:59Z</time>
      </trkpt>
      <trkpt lat="36.7583970" lon="-2.6090940">
        <ele>41.6</ele>
        <time>2022-11-01T13:18:00Z</time>
      </trkpt>
      <trkpt lat="36.7584210" lon="-2.6091050">
        <ele>41.6</ele>
        <time>2022-11-01T13:18:01Z</time>
      </trkpt>
      <trkpt lat="36.7584390" lon="-2.6091220">
        <ele>41.6</ele>
        <time>2022-11-01T13:18:02Z</time>
      </trkpt>
      <trkpt lat="36.7584590" lon="-2.6091390">
        <ele>41.8</ele>
        <time>2022-11-01T13:18:03Z</time>
      </trkpt>
      <trkpt lat="36.7584830" lon="-2.6091540">
        <ele>42.0</ele>
        <time>2022-11-01T13:18:04Z</time>
      </trkpt>
      <trkpt lat="36.7585170" lon="-2.6091680">
        <ele>42.2</ele>
        <time>2022-11-01T13:18:05Z</time>
      </trkpt>
      <trkpt lat="36.7585680" lon="-2.6091910">
        <ele>42.2</ele>
        <time>2022-11-01T13:18:06Z</time>
      </trkpt>
      <trkpt lat="36.7586170" lon="-2.6092170">
        <ele>42.4</ele>
        <time>2022-11-01T13:18:07Z</time>
      </trkpt>
      <trkpt lat="36.7586690" lon="-2.6092440">
        <ele>42.4</ele>
        <time>2022-11-01T13:18:08Z</time>
      </trkpt>
      <trkpt lat="36.7587230" lon="-2.6092710">
        <ele>42.6</ele>
        <time>2022-11-01T13:18:09Z</time>
      </trkpt>
      <trkpt lat="36.7587810" lon="-2.6093000">
        <ele>42.8</ele>
        <time>2022-11-01T13:18:10Z</time>
      </trkpt>
      <trkpt lat="36.7588380" lon="-2.6093350">
        <ele>43.0</ele>
        <time>2022-11-01T13:18:11Z</time>
      </trkpt>
      <trkpt lat="36.7588950" lon="-2.6093680">
        <ele>43.0</ele>
        <time>2022-11-01T13:18:12Z</time>
      </trkpt>
      <trkpt lat="36.7589550" lon="-2.6094020">
        <ele>43.2</ele>
        <time>2022-11-01T13:18:13Z</time>
      </trkpt>
      <trkpt lat="36.7590140" lon="-2.6094340">
        <ele>43.4</ele>
        <time>2022-11-01T13:18:14Z</time>
      </trkpt>
      <trkpt lat="36.7590720" lon="-2.6094620">
        <ele>43.4</ele>
        <time>2022-11-01T13:18:15Z</time>
      </trkpt>
      <trkpt lat="36.7591320" lon="-2.6094910">
        <ele>43.4</ele>
        <time>2022-11-01T13:18:16Z</time>
      </trkpt>
      <trkpt lat="36.7591940" lon="-2.6095330">
        <ele>43.6</ele>
        <time>2022-11-01T13:18:17Z</time>
      </trkpt>
      <trkpt lat="36.7592580" lon="-2.6095690">
        <ele>43.6</ele>
        <time>2022-11-01T13:18:18Z</time>
      </trkpt>
      <trkpt lat="36.7593230" lon="-2.6096090">
        <ele>43.6</ele>
        <time>2022-11-01T13:18:19Z</time>
      </trkpt>
      <trkpt lat="36.7593880" lon="-2.6096500">
        <ele>43.4</ele>
        <time>2022-11-01T13:18:20Z</time>
      </trkpt>
      <trkpt lat="36.7594460" lon="-2.6096890">
        <ele>43.4</ele>
        <time>2022-11-01T13:18:21Z</time>
      </trkpt>
      <trkpt lat="36.7595070" lon="-2.6097260">
        <ele>43.2</ele>
        <time>2022-11-01T13:18:22Z</time>
      </trkpt>
      <trkpt lat="36.7595700" lon="-2.6097660">
        <ele>43.2</ele>
        <time>2022-11-01T13:18:23Z</time>
      </trkpt>
      <trkpt lat="36.7596380" lon="-2.6098030">
        <ele>43.2</ele>
        <time>2022-11-01T13:18:24Z</time>
      </trkpt>
      <trkpt lat="36.7597040" lon="-2.6098400">
        <ele>43.0</ele>
        <time>2022-11-01T13:18:25Z</time>
      </trkpt>
      <trkpt lat="36.7597700" lon="-2.6098790">
        <ele>42.8</ele>
        <time>2022-11-01T13:18:26Z</time>
      </trkpt>
      <trkpt lat="36.7598470" lon="-2.6099110">
        <ele>42.6</ele>
        <time>2022-11-01T13:18:27Z</time>
      </trkpt>
      <trkpt lat="36.7599180" lon="-2.6099410">
        <ele>42.4</ele>
        <time>2022-11-01T13:18:28Z</time>
      </trkpt>
      <trkpt lat="36.7599890" lon="-2.6099710">
        <ele>42.2</ele>
        <time>2022-11-01T13:18:29Z</time>
      </trkpt>
      <trkpt lat="36.7600590" lon="-2.6100010">
        <ele>42.2</ele>
        <time>2022-11-01T13:18:30Z</time>
      </trkpt>
      <trkpt lat="36.7601300" lon="-2.6100390">
        <ele>42.2</ele>
        <time>2022-11-01T13:18:31Z</time>
      </trkpt>
      <trkpt lat="36.7601990" lon="-2.6100720">
        <ele>42.0</ele>
        <time>2022-11-01T13:18:32Z</time>
      </trkpt>
      <trkpt lat="36.7602720" lon="-2.6101020">
        <ele>41.8</ele>
        <time>2022-11-01T13:18:33Z</time>
      </trkpt>
      <trkpt lat="36.7603440" lon="-2.6101360">
        <ele>41.6</ele>
        <time>2022-11-01T13:18:34Z</time>
      </trkpt>
      <trkpt lat="36.7604140" lon="-2.6101690">
        <ele>41.6</ele>
        <time>2022-11-01T13:18:35Z</time>
      </trkpt>
      <trkpt lat="36.7604830" lon="-2.6102000">
        <ele>41.4</ele>
        <time>2022-11-01T13:18:36Z</time>
      </trkpt>
      <trkpt lat="36.7605480" lon="-2.6102290">
        <ele>41.4</ele>
        <time>2022-11-01T13:18:37Z</time>
      </trkpt>
      <trkpt lat="36.7606180" lon="-2.6102630">
        <ele>41.2</ele>
        <time>2022-11-01T13:18:38Z</time>
      </trkpt>
      <trkpt lat="36.7606750" lon="-2.6102940">
        <ele>41.2</ele>
        <time>2022-11-01T13:18:39Z</time>
      </trkpt>
      <trkpt lat="36.7607410" lon="-2.6103270">
        <ele>41.0</ele>
        <time>2022-11-01T13:18:40Z</time>
      </trkpt>
      <trkpt lat="36.7608070" lon="-2.6103620">
        <ele>41.0</ele>
        <time>2022-11-01T13:18:41Z</time>
      </trkpt>
      <trkpt lat="36.7608720" lon="-2.6103930">
        <ele>40.8</ele>
        <time>2022-11-01T13:18:42Z</time>
      </trkpt>
      <trkpt lat="36.7609390" lon="-2.6104350">
        <ele>40.8</ele>
        <time>2022-11-01T13:18:43Z</time>
      </trkpt>
      <trkpt lat="36.7610060" lon="-2.6104690">
        <ele>40.8</ele>
        <time>2022-11-01T13:18:44Z</time>
      </trkpt>
      <trkpt lat="36.7610620" lon="-2.6105050">
        <ele>40.8</ele>
        <time>2022-11-01T13:18:45Z</time>
      </trkpt>
      <trkpt lat="36.7611230" lon="-2.6105370">
        <ele>40.6</ele>
        <time>2022-11-01T13:18:46Z</time>
      </trkpt>
      <trkpt lat="36.7611820" lon="-2.6105680">
        <ele>40.4</ele>
        <time>2022-11-01T13:18:47Z</time>
      </trkpt>
      <trkpt lat="36.7612410" lon="-2.6105980">
        <ele>40.2</ele>
        <time>2022-11-01T13:18:48Z</time>
      </trkpt>
      <trkpt lat="36.7613010" lon="-2.6106310">
        <ele>40.2</ele>
        <time>2022-11-01T13:18:49Z</time>
      </trkpt>
      <trkpt lat="36.7613600" lon="-2.6106640">
        <ele>40.0</ele>
        <time>2022-11-01T13:18:50Z</time>
      </trkpt>
      <trkpt lat="36.7614190" lon="-2.6107000">
        <ele>40.0</ele>
        <time>2022-11-01T13:18:51Z</time>
      </trkpt>
      <trkpt lat="36.7614730" lon="-2.6107330">
        <ele>39.8</ele>
        <time>2022-11-01T13:18:52Z</time>
      </trkpt>
      <trkpt lat="36.7615300" lon="-2.6107660">
        <ele>39.8</ele>
        <time>2022-11-01T13:18:53Z</time>
      </trkpt>
      <trkpt lat="36.7615860" lon="-2.6108010">
        <ele>39.6</ele>
        <time>2022-11-01T13:18:54Z</time>
      </trkpt>
      <trkpt lat="36.7616450" lon="-2.6108400">
        <ele>39.4</ele>
        <time>2022-11-01T13:18:55Z</time>
      </trkpt>
      <trkpt lat="36.7617090" lon="-2.6108760">
        <ele>39.2</ele>
        <time>2022-11-01T13:18:56Z</time>
      </trkpt>
      <trkpt lat="36.7617850" lon="-2.6109150">
        <ele>39.0</ele>
        <time>2022-11-01T13:18:57Z</time>
      </trkpt>
      <trkpt lat="36.7618570" lon="-2.6109550">
        <ele>38.8</ele>
        <time>2022-11-01T13:18:58Z</time>
      </trkpt>
      <trkpt lat="36.7619310" lon="-2.6109950">
        <ele>38.6</ele>
        <time>2022-11-01T13:18:59Z</time>
      </trkpt>
      <trkpt lat="36.7620030" lon="-2.6110360">
        <ele>38.4</ele>
        <time>2022-11-01T13:19:00Z</time>
      </trkpt>
      <trkpt lat="36.7620730" lon="-2.6110810">
        <ele>38.2</ele>
        <time>2022-11-01T13:19:01Z</time>
      </trkpt>
      <trkpt lat="36.7621390" lon="-2.6111240">
        <ele>38.0</ele>
        <time>2022-11-01T13:19:02Z</time>
      </trkpt>
      <trkpt lat="36.7622100" lon="-2.6111720">
        <ele>37.8</ele>
        <time>2022-11-01T13:19:03Z</time>
      </trkpt>
      <trkpt lat="36.7622760" lon="-2.6112210">
        <ele>37.6</ele>
        <time>2022-11-01T13:19:04Z</time>
      </trkpt>
      <trkpt lat="36.7623460" lon="-2.6112730">
        <ele>37.4</ele>
        <time>2022-11-01T13:19:05Z</time>
      </trkpt>
      <trkpt lat="36.7624160" lon="-2.6113180">
        <ele>37.0</ele>
        <time>2022-11-01T13:19:06Z</time>
      </trkpt>
      <trkpt lat="36.7624750" lon="-2.6113700">
        <ele>36.8</ele>
        <time>2022-11-01T13:19:07Z</time>
      </trkpt>
      <trkpt lat="36.7625340" lon="-2.6114130">
        <ele>36.8</ele>
        <time>2022-11-01T13:19:08Z</time>
      </trkpt>
      <trkpt lat="36.7625940" lon="-2.6114530">
        <ele>36.6</ele>
        <time>2022-11-01T13:19:09Z</time>
      </trkpt>
      <trkpt lat="36.7626440" lon="-2.6114830">
        <ele>36.4</ele>
        <time>2022-11-01T13:19:10Z</time>
      </trkpt>
      <trkpt lat="36.7626840" lon="-2.6115080">
        <ele>36.2</ele>
        <time>2022-11-01T13:19:11Z</time>
      </trkpt>
      <trkpt lat="36.7627080" lon="-2.6115330">
        <ele>36.0</ele>
        <time>2022-11-01T13:19:12Z</time>
      </trkpt>
      <trkpt lat="36.7627230" lon="-2.6115540">
        <ele>35.8</ele>
        <time>2022-11-01T13:19:13Z</time>
      </trkpt>
      <trkpt lat="36.7627380" lon="-2.6115720">
        <ele>35.8</ele>
        <time>2022-11-01T13:19:14Z</time>
      </trkpt>
      <trkpt lat="36.7627550" lon="-2.6115640">
        <ele>35.8</ele>
        <time>2022-11-01T13:19:15Z</time>
      </trkpt>
      <trkpt lat="36.7627700" lon="-2.6115750">
        <ele>35.8</ele>
        <time>2022-11-01T13:19:16Z</time>
      </trkpt>
      <trkpt lat="36.7627790" lon="-2.6115990">
        <ele>35.6</ele>
        <time>2022-11-01T13:19:17Z</time>
      </trkpt>
      <trkpt lat="36.7627720" lon="-2.6116410">
        <ele>35.6</ele>
        <time>2022-11-01T13:19:18Z</time>
      </trkpt>
      <trkpt lat="36.7627690" lon="-2.6116640">
        <ele>35.6</ele>
        <time>2022-11-01T13:19:19Z</time>
      </trkpt>
      <trkpt lat="36.7627750" lon="-2.6116580">
        <ele>35.6</ele>
        <time>2022-11-01T13:19:20Z</time>
      </trkpt>
      <trkpt lat="36.7627670" lon="-2.6116680">
        <ele>35.6</ele>
        <time>2022-11-01T13:19:21Z</time>
      </trkpt>
      <trkpt lat="36.7627580" lon="-2.6116890">
        <ele>35.6</ele>
        <time>2022-11-01T13:19:22Z</time>
      </trkpt>
      <trkpt lat="36.7627410" lon="-2.6117160">
        <ele>35.8</ele>
        <time>2022-11-01T13:19:23Z</time>
      </trkpt>
      <trkpt lat="36.7627200" lon="-2.6117480">
        <ele>35.8</ele>
        <time>2022-11-01T13:19:24Z</time>
      </trkpt>
      <trkpt lat="36.7626950" lon="-2.6117830">
        <ele>35.8</ele>
        <time>2022-11-01T13:19:25Z</time>
      </trkpt>
      <trkpt lat="36.7626720" lon="-2.6118180">
        <ele>35.8</ele>
        <time>2022-11-01T13:19:26Z</time>
      </trkpt>
      <trkpt lat="36.7626510" lon="-2.6118560">
        <ele>36.0</ele>
        <time>2022-11-01T13:19:27Z</time>
      </trkpt>
      <trkpt lat="36.7626290" lon="-2.6119010">
        <ele>36.0</ele>
        <time>2022-11-01T13:19:28Z</time>
      </trkpt>
      <trkpt lat="36.7626100" lon="-2.6119460">
        <ele>36.2</ele>
        <time>2022-11-01T13:19:29Z</time>
      </trkpt>
      <trkpt lat="36.7625980" lon="-2.6119880">
        <ele>36.2</ele>
        <time>2022-11-01T13:19:30Z</time>
      </trkpt>
      <trkpt lat="36.7625850" lon="-2.6120290">
        <ele>36.2</ele>
        <time>2022-11-01T13:19:31Z</time>
      </trkpt>
      <trkpt lat="36.7625660" lon="-2.6120610">
        <ele>36.4</ele>
        <time>2022-11-01T13:19:32Z</time>
      </trkpt>
      <trkpt lat="36.7625470" lon="-2.6120870">
        <ele>36.4</ele>
        <time>2022-11-01T13:19:33Z</time>
      </trkpt>
      <trkpt lat="36.7625230" lon="-2.6121160">
        <ele>36.4</ele>
        <time>2022-11-01T13:19:34Z</time>
      </trkpt>
      <trkpt lat="36.7625040" lon="-2.6121110">
        <ele>36.6</ele>
        <time>2022-11-01T13:19:35Z</time>
      </trkpt>
      <trkpt lat="36.7625020" lon="-2.6121000">
        <ele>36.6</ele>
        <time>2022-11-01T13:19:36Z</time>
      </trkpt>
      <trkpt lat="36.7625020" lon="-2.6120890">
        <ele>36.8</ele>
        <time>2022-11-01T13:19:37Z</time>
      </trkpt>
      <trkpt lat="36.7624880" lon="-2.6120790">
        <ele>36.8</ele>
        <time>2022-11-01T13:19:38Z</time>
      </trkpt>
    </trkseg>
  </trk>
</gpx>
